<?xml version="1.0" encoding="UTF-8" standalone="no" ?>
<gpx xmlns="http://www.topografix.com/GPX/1/1" xmlns:xsi="http://www.w3.org/2001/XMLSchema-instance" xsi:schemaLocation="http://www.topografix.com/GPX/1/1 http://www.topografix.com/GPX/1/1/gpx.xsd" version="1.1" creator="VisuGPX - https://www.visugpx.com">
  <metadata>
    <name>2016-04-24 09h03 Balade Joz34</name>
    <desc><![CDATA[2016-04-24 09h03 Balade Joz34]]></desc>
  </metadata>
  <trk>
    <name><![CDATA[2016-04-24 09:03 001]]></name>
    <trkseg>
      <trkpt lat="43.61992" lon="3.83804">
        <ele>85.69</ele>
        <time>2016-04-24T07:03:52Z</time>
      </trkpt>
      <trkpt lat="43.61991" lon="3.83803">
        <ele>86.18</ele>
        <time>2016-04-24T07:04:02Z</time>
      </trkpt>
      <trkpt lat="43.6199" lon="3.83791">
        <ele>86.18</ele>
        <time>2016-04-24T07:04:05Z</time>
      </trkpt>
      <trkpt lat="43.61992" lon="3.83783">
        <ele>86.18</ele>
        <time>2016-04-24T07:04:06Z</time>
      </trkpt>
      <trkpt lat="43.61996" lon="3.83776">
        <ele>86.66</ele>
        <time>2016-04-24T07:04:07Z</time>
      </trkpt>
      <trkpt lat="43.62002" lon="3.83768">
        <ele>86.66</ele>
        <time>2016-04-24T07:04:08Z</time>
      </trkpt>
      <trkpt lat="43.6201" lon="3.83761">
        <ele>86.66</ele>
        <time>2016-04-24T07:04:09Z</time>
      </trkpt>
      <trkpt lat="43.62019" lon="3.83753">
        <ele>86.66</ele>
        <time>2016-04-24T07:04:10Z</time>
      </trkpt>
      <trkpt lat="43.62127" lon="3.83661">
        <ele>86.18</ele>
        <time>2016-04-24T07:04:20Z</time>
      </trkpt>
      <trkpt lat="43.62224" lon="3.8359">
        <ele>85.21</ele>
        <time>2016-04-24T07:04:30Z</time>
      </trkpt>
      <trkpt lat="43.6223" lon="3.83583">
        <ele>84.73</ele>
        <time>2016-04-24T07:04:31Z</time>
      </trkpt>
      <trkpt lat="43.62235" lon="3.83577">
        <ele>84.73</ele>
        <time>2016-04-24T07:04:32Z</time>
      </trkpt>
      <trkpt lat="43.62238" lon="3.83571">
        <ele>84.25</ele>
        <time>2016-04-24T07:04:33Z</time>
      </trkpt>
      <trkpt lat="43.6224" lon="3.83568">
        <ele>83.77</ele>
        <time>2016-04-24T07:04:34Z</time>
      </trkpt>
      <trkpt lat="43.62241" lon="3.83565">
        <ele>83.77</ele>
        <time>2016-04-24T07:04:35Z</time>
      </trkpt>
      <trkpt lat="43.62256" lon="3.83523">
        <ele>83.29</ele>
        <time>2016-04-24T07:04:43Z</time>
      </trkpt>
      <trkpt lat="43.62301" lon="3.83417">
        <ele>80.89</ele>
        <time>2016-04-24T07:04:50Z</time>
      </trkpt>
      <trkpt lat="43.62311" lon="3.83409">
        <ele>80.41</ele>
        <time>2016-04-24T07:04:51Z</time>
      </trkpt>
      <trkpt lat="43.62321" lon="3.83405">
        <ele>79.93</ele>
        <time>2016-04-24T07:04:52Z</time>
      </trkpt>
      <trkpt lat="43.62331" lon="3.83399">
        <ele>79.45</ele>
        <time>2016-04-24T07:04:53Z</time>
      </trkpt>
      <trkpt lat="43.62339" lon="3.83389">
        <ele>79.45</ele>
        <time>2016-04-24T07:04:54Z</time>
      </trkpt>
      <trkpt lat="43.62344" lon="3.83376">
        <ele>78.97</ele>
        <time>2016-04-24T07:04:55Z</time>
      </trkpt>
      <trkpt lat="43.62346" lon="3.83362">
        <ele>78.48</ele>
        <time>2016-04-24T07:04:56Z</time>
      </trkpt>
      <trkpt lat="43.62345" lon="3.83347">
        <ele>77.52</ele>
        <time>2016-04-24T07:04:57Z</time>
      </trkpt>
      <trkpt lat="43.62339" lon="3.83334">
        <ele>77.52</ele>
        <time>2016-04-24T07:04:58Z</time>
      </trkpt>
      <trkpt lat="43.62331" lon="3.83323">
        <ele>77.52</ele>
        <time>2016-04-24T07:04:59Z</time>
      </trkpt>
      <trkpt lat="43.62322" lon="3.83311">
        <ele>77.04</ele>
        <time>2016-04-24T07:05:00Z</time>
      </trkpt>
      <trkpt lat="43.62315" lon="3.83297">
        <ele>77.04</ele>
        <time>2016-04-24T07:05:01Z</time>
      </trkpt>
      <trkpt lat="43.6231" lon="3.83281">
        <ele>77.04</ele>
        <time>2016-04-24T07:05:02Z</time>
      </trkpt>
      <trkpt lat="43.62307" lon="3.83262">
        <ele>76.56</ele>
        <time>2016-04-24T07:05:03Z</time>
      </trkpt>
      <trkpt lat="43.62306" lon="3.83241">
        <ele>76.08</ele>
        <time>2016-04-24T07:05:04Z</time>
      </trkpt>
      <trkpt lat="43.62307" lon="3.8322">
        <ele>75.6</ele>
        <time>2016-04-24T07:05:05Z</time>
      </trkpt>
      <trkpt lat="43.62309" lon="3.83199">
        <ele>75.12</ele>
        <time>2016-04-24T07:05:06Z</time>
      </trkpt>
      <trkpt lat="43.62312" lon="3.83177">
        <ele>75.12</ele>
        <time>2016-04-24T07:05:07Z</time>
      </trkpt>
      <trkpt lat="43.62317" lon="3.83155">
        <ele>74.64</ele>
        <time>2016-04-24T07:05:08Z</time>
      </trkpt>
      <trkpt lat="43.62323" lon="3.83133">
        <ele>74.16</ele>
        <time>2016-04-24T07:05:09Z</time>
      </trkpt>
      <trkpt lat="43.6233" lon="3.8311">
        <ele>74.16</ele>
        <time>2016-04-24T07:05:10Z</time>
      </trkpt>
      <trkpt lat="43.62421" lon="3.82855">
        <ele>70.79</ele>
        <time>2016-04-24T07:05:22Z</time>
      </trkpt>
      <trkpt lat="43.62473" lon="3.82743">
        <ele>67.91</ele>
        <time>2016-04-24T07:05:28Z</time>
      </trkpt>
      <trkpt lat="43.62478" lon="3.82724">
        <ele>67.43</ele>
        <time>2016-04-24T07:05:29Z</time>
      </trkpt>
      <trkpt lat="43.62479" lon="3.82707">
        <ele>66.95</ele>
        <time>2016-04-24T07:05:30Z</time>
      </trkpt>
      <trkpt lat="43.62483" lon="3.82651">
        <ele>65.51</ele>
        <time>2016-04-24T07:05:34Z</time>
      </trkpt>
      <trkpt lat="43.62482" lon="3.82639">
        <ele>65.51</ele>
        <time>2016-04-24T07:05:35Z</time>
      </trkpt>
      <trkpt lat="43.62478" lon="3.82628">
        <ele>65.03</ele>
        <time>2016-04-24T07:05:36Z</time>
      </trkpt>
      <trkpt lat="43.62471" lon="3.82616">
        <ele>64.55</ele>
        <time>2016-04-24T07:05:37Z</time>
      </trkpt>
      <trkpt lat="43.62464" lon="3.82602">
        <ele>64.07</ele>
        <time>2016-04-24T07:05:38Z</time>
      </trkpt>
      <trkpt lat="43.62457" lon="3.82586">
        <ele>64.07</ele>
        <time>2016-04-24T07:05:39Z</time>
      </trkpt>
      <trkpt lat="43.6245" lon="3.82568">
        <ele>63.58</ele>
        <time>2016-04-24T07:05:40Z</time>
      </trkpt>
      <trkpt lat="43.62375" lon="3.82447">
        <ele>62.14</ele>
        <time>2016-04-24T07:05:47Z</time>
      </trkpt>
      <trkpt lat="43.62276" lon="3.8231">
        <ele>56.86</ele>
        <time>2016-04-24T07:05:55Z</time>
      </trkpt>
      <trkpt lat="43.62264" lon="3.82298">
        <ele>56.37</ele>
        <time>2016-04-24T07:05:56Z</time>
      </trkpt>
      <trkpt lat="43.62252" lon="3.82289">
        <ele>55.41</ele>
        <time>2016-04-24T07:05:57Z</time>
      </trkpt>
      <trkpt lat="43.62211" lon="3.82254">
        <ele>53.49</ele>
        <time>2016-04-24T07:06:01Z</time>
      </trkpt>
      <trkpt lat="43.62203" lon="3.82253">
        <ele>53.49</ele>
        <time>2016-04-24T07:06:02Z</time>
      </trkpt>
      <trkpt lat="43.62195" lon="3.82256">
        <ele>53.01</ele>
        <time>2016-04-24T07:06:03Z</time>
      </trkpt>
      <trkpt lat="43.62186" lon="3.82261">
        <ele>53.01</ele>
        <time>2016-04-24T07:06:04Z</time>
      </trkpt>
      <trkpt lat="43.62176" lon="3.82266">
        <ele>53.01</ele>
        <time>2016-04-24T07:06:05Z</time>
      </trkpt>
      <trkpt lat="43.62163" lon="3.82268">
        <ele>53.01</ele>
        <time>2016-04-24T07:06:06Z</time>
      </trkpt>
      <trkpt lat="43.62149" lon="3.82268">
        <ele>53.01</ele>
        <time>2016-04-24T07:06:07Z</time>
      </trkpt>
      <trkpt lat="43.62134" lon="3.82266">
        <ele>53.49</ele>
        <time>2016-04-24T07:06:08Z</time>
      </trkpt>
      <trkpt lat="43.62" lon="3.82221">
        <ele>54.45</ele>
        <time>2016-04-24T07:06:16Z</time>
      </trkpt>
      <trkpt lat="43.61844" lon="3.82108">
        <ele>50.13</ele>
        <time>2016-04-24T07:06:25Z</time>
      </trkpt>
      <trkpt lat="43.61724" lon="3.82016">
        <ele>51.57</ele>
        <time>2016-04-24T07:06:32Z</time>
      </trkpt>
      <trkpt lat="43.61705" lon="3.82009">
        <ele>52.05</ele>
        <time>2016-04-24T07:06:33Z</time>
      </trkpt>
      <trkpt lat="43.61685" lon="3.82005">
        <ele>52.05</ele>
        <time>2016-04-24T07:06:34Z</time>
      </trkpt>
      <trkpt lat="43.61665" lon="3.82005">
        <ele>52.53</ele>
        <time>2016-04-24T07:06:35Z</time>
      </trkpt>
      <trkpt lat="43.61646" lon="3.8201">
        <ele>52.53</ele>
        <time>2016-04-24T07:06:36Z</time>
      </trkpt>
      <trkpt lat="43.61627" lon="3.82017">
        <ele>53.01</ele>
        <time>2016-04-24T07:06:37Z</time>
      </trkpt>
      <trkpt lat="43.61608" lon="3.82027">
        <ele>53.01</ele>
        <time>2016-04-24T07:06:38Z</time>
      </trkpt>
      <trkpt lat="43.6159" lon="3.82039">
        <ele>53.01</ele>
        <time>2016-04-24T07:06:39Z</time>
      </trkpt>
      <trkpt lat="43.61442" lon="3.82144">
        <ele>53.97</ele>
        <time>2016-04-24T07:06:47Z</time>
      </trkpt>
      <trkpt lat="43.6127" lon="3.82268">
        <ele>49.16</ele>
        <time>2016-04-24T07:06:57Z</time>
      </trkpt>
      <trkpt lat="43.61254" lon="3.82275">
        <ele>48.68</ele>
        <time>2016-04-24T07:06:58Z</time>
      </trkpt>
      <trkpt lat="43.61235" lon="3.82278">
        <ele>47.72</ele>
        <time>2016-04-24T07:06:59Z</time>
      </trkpt>
      <trkpt lat="43.61216" lon="3.82275">
        <ele>47.24</ele>
        <time>2016-04-24T07:07:00Z</time>
      </trkpt>
      <trkpt lat="43.61196" lon="3.8227">
        <ele>46.76</ele>
        <time>2016-04-24T07:07:01Z</time>
      </trkpt>
      <trkpt lat="43.61176" lon="3.82264">
        <ele>46.28</ele>
        <time>2016-04-24T07:07:02Z</time>
      </trkpt>
      <trkpt lat="43.61009" lon="3.82238">
        <ele>46.76</ele>
        <time>2016-04-24T07:07:10Z</time>
      </trkpt>
      <trkpt lat="43.60884" lon="3.82166">
        <ele>46.28</ele>
        <time>2016-04-24T07:07:16Z</time>
      </trkpt>
      <trkpt lat="43.60758" lon="3.82014">
        <ele>43.88</ele>
        <time>2016-04-24T07:07:23Z</time>
      </trkpt>
      <trkpt lat="43.60599" lon="3.81709">
        <ele>39.55</ele>
        <time>2016-04-24T07:07:34Z</time>
      </trkpt>
      <trkpt lat="43.60525" lon="3.81494">
        <ele>39.07</ele>
        <time>2016-04-24T07:07:41Z</time>
      </trkpt>
      <trkpt lat="43.60528" lon="3.81323">
        <ele>39.55</ele>
        <time>2016-04-24T07:07:46Z</time>
      </trkpt>
      <trkpt lat="43.60578" lon="3.81166">
        <ele>41.47</ele>
        <time>2016-04-24T07:07:51Z</time>
      </trkpt>
      <trkpt lat="43.60714" lon="3.80925">
        <ele>41.95</ele>
        <time>2016-04-24T07:08:00Z</time>
      </trkpt>
      <trkpt lat="43.60799" lon="3.80695">
        <ele>43.4</ele>
        <time>2016-04-24T07:08:08Z</time>
      </trkpt>
      <trkpt lat="43.60899" lon="3.80517">
        <ele>44.84</ele>
        <time>2016-04-24T07:08:15Z</time>
      </trkpt>
      <trkpt lat="43.61079" lon="3.80295">
        <ele>53.01</ele>
        <time>2016-04-24T07:08:25Z</time>
      </trkpt>
      <trkpt lat="43.61307" lon="3.80014">
        <ele>67.91</ele>
        <time>2016-04-24T07:08:38Z</time>
      </trkpt>
      <trkpt lat="43.61516" lon="3.79883">
        <ele>70.79</ele>
        <time>2016-04-24T07:08:47Z</time>
      </trkpt>
      <trkpt lat="43.61632" lon="3.79762">
        <ele>68.87</ele>
        <time>2016-04-24T07:08:53Z</time>
      </trkpt>
      <trkpt lat="43.6174" lon="3.79565">
        <ele>66.47</ele>
        <time>2016-04-24T07:09:01Z</time>
      </trkpt>
      <trkpt lat="43.61798" lon="3.79451">
        <ele>68.39</ele>
        <time>2016-04-24T07:09:07Z</time>
      </trkpt>
      <trkpt lat="43.61809" lon="3.79436">
        <ele>68.87</ele>
        <time>2016-04-24T07:09:11Z</time>
      </trkpt>
      <trkpt lat="43.61806" lon="3.79437">
        <ele>71.76</ele>
        <time>2016-04-24T07:09:24Z</time>
      </trkpt>
      <trkpt lat="43.61802" lon="3.79442">
        <ele>71.27</ele>
        <time>2016-04-24T07:10:27Z</time>
      </trkpt>
      <trkpt lat="43.61802" lon="3.79443">
        <ele>70.79</ele>
        <time>2016-04-24T07:10:50Z</time>
      </trkpt>
      <trkpt lat="43.61803" lon="3.79441">
        <ele>70.79</ele>
        <time>2016-04-24T07:13:55Z</time>
      </trkpt>
      <trkpt lat="43.61802" lon="3.79441">
        <ele>74.64</ele>
        <time>2016-04-24T07:22:41Z</time>
      </trkpt>
      <trkpt lat="43.61804" lon="3.79433">
        <ele>74.64</ele>
        <time>2016-04-24T07:22:43Z</time>
      </trkpt>
      <trkpt lat="43.61809" lon="3.79422">
        <ele>74.64</ele>
        <time>2016-04-24T07:22:44Z</time>
      </trkpt>
      <trkpt lat="43.61845" lon="3.79348">
        <ele>76.56</ele>
        <time>2016-04-24T07:22:48Z</time>
      </trkpt>
      <trkpt lat="43.61943" lon="3.79213">
        <ele>78.97</ele>
        <time>2016-04-24T07:22:56Z</time>
      </trkpt>
      <trkpt lat="43.62087" lon="3.79101">
        <ele>81.37</ele>
        <time>2016-04-24T07:23:06Z</time>
      </trkpt>
      <trkpt lat="43.6228" lon="3.78953">
        <ele>83.29</ele>
        <time>2016-04-24T07:23:18Z</time>
      </trkpt>
      <trkpt lat="43.62399" lon="3.78807">
        <ele>90.02</ele>
        <time>2016-04-24T07:23:26Z</time>
      </trkpt>
      <trkpt lat="43.62545" lon="3.78593">
        <ele>98.19</ele>
        <time>2016-04-24T07:23:35Z</time>
      </trkpt>
      <trkpt lat="43.62748" lon="3.78319">
        <ele>103.96</ele>
        <time>2016-04-24T07:23:45Z</time>
      </trkpt>
      <trkpt lat="43.62898" lon="3.78044">
        <ele>108.29</ele>
        <time>2016-04-24T07:23:53Z</time>
      </trkpt>
      <trkpt lat="43.62927" lon="3.77823">
        <ele>108.29</ele>
        <time>2016-04-24T07:23:58Z</time>
      </trkpt>
      <trkpt lat="43.62924" lon="3.77776">
        <ele>108.29</ele>
        <time>2016-04-24T07:23:59Z</time>
      </trkpt>
      <trkpt lat="43.62899" lon="3.77508">
        <ele>107.32</ele>
        <time>2016-04-24T07:24:05Z</time>
      </trkpt>
      <trkpt lat="43.62929" lon="3.77252">
        <ele>109.73</ele>
        <time>2016-04-24T07:24:11Z</time>
      </trkpt>
      <trkpt lat="43.63036" lon="3.76811">
        <ele>116.94</ele>
        <time>2016-04-24T07:24:21Z</time>
      </trkpt>
      <trkpt lat="43.63162" lon="3.76288">
        <ele>128.95</ele>
        <time>2016-04-24T07:24:34Z</time>
      </trkpt>
      <trkpt lat="43.63291" lon="3.75965">
        <ele>133.76</ele>
        <time>2016-04-24T07:24:43Z</time>
      </trkpt>
      <trkpt lat="43.63386" lon="3.7567">
        <ele>140.97</ele>
        <time>2016-04-24T07:24:51Z</time>
      </trkpt>
      <trkpt lat="43.63417" lon="3.7538">
        <ele>148.18</ele>
        <time>2016-04-24T07:24:58Z</time>
      </trkpt>
      <trkpt lat="43.63397" lon="3.75115">
        <ele>153.95</ele>
        <time>2016-04-24T07:25:04Z</time>
      </trkpt>
      <trkpt lat="43.63316" lon="3.74764">
        <ele>160.2</ele>
        <time>2016-04-24T07:25:12Z</time>
      </trkpt>
      <trkpt lat="43.63256" lon="3.74417">
        <ele>165</ele>
        <time>2016-04-24T07:25:20Z</time>
      </trkpt>
      <trkpt lat="43.63251" lon="3.74068">
        <ele>168.85</ele>
        <time>2016-04-24T07:25:28Z</time>
      </trkpt>
      <trkpt lat="43.63288" lon="3.73471">
        <ele>170.77</ele>
        <time>2016-04-24T07:25:42Z</time>
      </trkpt>
      <trkpt lat="43.63305" lon="3.72932">
        <ele>169.33</ele>
        <time>2016-04-24T07:25:54Z</time>
      </trkpt>
      <trkpt lat="43.63262" lon="3.72531">
        <ele>167.41</ele>
        <time>2016-04-24T07:26:03Z</time>
      </trkpt>
      <trkpt lat="43.63174" lon="3.72143">
        <ele>165</ele>
        <time>2016-04-24T07:26:12Z</time>
      </trkpt>
      <trkpt lat="43.62995" lon="3.71436">
        <ele>158.75</ele>
        <time>2016-04-24T07:26:29Z</time>
      </trkpt>
      <trkpt lat="43.62864" lon="3.70899">
        <ele>154.91</ele>
        <time>2016-04-24T07:26:42Z</time>
      </trkpt>
      <trkpt lat="43.62811" lon="3.7053">
        <ele>152.51</ele>
        <time>2016-04-24T07:26:50Z</time>
      </trkpt>
      <trkpt lat="43.62806" lon="3.70144">
        <ele>150.58</ele>
        <time>2016-04-24T07:26:58Z</time>
      </trkpt>
      <trkpt lat="43.62845" lon="3.69774">
        <ele>148.18</ele>
        <time>2016-04-24T07:27:06Z</time>
      </trkpt>
      <trkpt lat="43.62928" lon="3.69402">
        <ele>145.3</ele>
        <time>2016-04-24T07:27:15Z</time>
      </trkpt>
      <trkpt lat="43.63014" lon="3.69003">
        <ele>147.22</ele>
        <time>2016-04-24T07:27:25Z</time>
      </trkpt>
      <trkpt lat="43.63113" lon="3.68464">
        <ele>167.41</ele>
        <time>2016-04-24T07:27:38Z</time>
      </trkpt>
      <trkpt lat="43.63105" lon="3.68165">
        <ele>179.9</ele>
        <time>2016-04-24T07:27:45Z</time>
      </trkpt>
      <trkpt lat="43.63039" lon="3.67867">
        <ele>190.48</ele>
        <time>2016-04-24T07:27:52Z</time>
      </trkpt>
      <trkpt lat="43.62914" lon="3.67547">
        <ele>194.8</ele>
        <time>2016-04-24T07:28:00Z</time>
      </trkpt>
      <trkpt lat="43.62832" lon="3.67239">
        <ele>193.84</ele>
        <time>2016-04-24T07:28:07Z</time>
      </trkpt>
      <trkpt lat="43.62707" lon="3.66669">
        <ele>178.94</ele>
        <time>2016-04-24T07:28:19Z</time>
      </trkpt>
      <trkpt lat="43.62669" lon="3.66382">
        <ele>168.37</ele>
        <time>2016-04-24T07:28:25Z</time>
      </trkpt>
      <trkpt lat="43.62672" lon="3.66055">
        <ele>162.6</ele>
        <time>2016-04-24T07:28:32Z</time>
      </trkpt>
      <trkpt lat="43.62661" lon="3.65789">
        <ele>164.04</ele>
        <time>2016-04-24T07:28:38Z</time>
      </trkpt>
      <trkpt lat="43.62591" lon="3.65496">
        <ele>170.29</ele>
        <time>2016-04-24T07:28:45Z</time>
      </trkpt>
      <trkpt lat="43.62555" lon="3.65236">
        <ele>177.5</ele>
        <time>2016-04-24T07:28:51Z</time>
      </trkpt>
      <trkpt lat="43.62567" lon="3.64931">
        <ele>187.11</ele>
        <time>2016-04-24T07:28:58Z</time>
      </trkpt>
      <trkpt lat="43.62557" lon="3.64616">
        <ele>196.25</ele>
        <time>2016-04-24T07:29:05Z</time>
      </trkpt>
      <trkpt lat="43.62478" lon="3.63986">
        <ele>208.74</ele>
        <time>2016-04-24T07:29:19Z</time>
      </trkpt>
      <trkpt lat="43.62406" lon="3.63418">
        <ele>214.99</ele>
        <time>2016-04-24T07:29:32Z</time>
      </trkpt>
      <trkpt lat="43.62343" lon="3.62836">
        <ele>223.16</ele>
        <time>2016-04-24T07:29:45Z</time>
      </trkpt>
      <trkpt lat="43.62359" lon="3.62474">
        <ele>227.01</ele>
        <time>2016-04-24T07:29:53Z</time>
      </trkpt>
      <trkpt lat="43.62426" lon="3.62123">
        <ele>231.33</ele>
        <time>2016-04-24T07:30:01Z</time>
      </trkpt>
      <trkpt lat="43.62508" lon="3.61771">
        <ele>234.7</ele>
        <time>2016-04-24T07:30:09Z</time>
      </trkpt>
      <trkpt lat="43.62547" lon="3.6152">
        <ele>232.78</ele>
        <time>2016-04-24T07:30:15Z</time>
      </trkpt>
      <trkpt lat="43.62573" lon="3.6119">
        <ele>225.57</ele>
        <time>2016-04-24T07:30:23Z</time>
      </trkpt>
      <trkpt lat="43.62637" lon="3.60843">
        <ele>214.03</ele>
        <time>2016-04-24T07:30:31Z</time>
      </trkpt>
      <trkpt lat="43.62685" lon="3.60537">
        <ele>203.94</ele>
        <time>2016-04-24T07:30:38Z</time>
      </trkpt>
      <trkpt lat="43.62684" lon="3.60232">
        <ele>193.84</ele>
        <time>2016-04-24T07:30:45Z</time>
      </trkpt>
      <trkpt lat="43.62702" lon="3.59878">
        <ele>182.79</ele>
        <time>2016-04-24T07:30:53Z</time>
      </trkpt>
      <trkpt lat="43.62769" lon="3.59581">
        <ele>174.62</ele>
        <time>2016-04-24T07:31:00Z</time>
      </trkpt>
      <trkpt lat="43.62878" lon="3.59313">
        <ele>162.12</ele>
        <time>2016-04-24T07:31:07Z</time>
      </trkpt>
      <trkpt lat="43.63026" lon="3.59081">
        <ele>150.1</ele>
        <time>2016-04-24T07:31:14Z</time>
      </trkpt>
      <trkpt lat="43.63272" lon="3.58751">
        <ele>134.24</ele>
        <time>2016-04-24T07:31:25Z</time>
      </trkpt>
      <trkpt lat="43.63595" lon="3.58316">
        <ele>121.74</ele>
        <time>2016-04-24T07:31:39Z</time>
      </trkpt>
      <trkpt lat="43.6385" lon="3.57957">
        <ele>120.78</ele>
        <time>2016-04-24T07:31:51Z</time>
      </trkpt>
      <trkpt lat="43.6396" lon="3.57721">
        <ele>121.74</ele>
        <time>2016-04-24T07:31:57Z</time>
      </trkpt>
      <trkpt lat="43.64029" lon="3.57489">
        <ele>122.22</ele>
        <time>2016-04-24T07:32:03Z</time>
      </trkpt>
      <trkpt lat="43.64177" lon="3.56968">
        <ele>116.94</ele>
        <time>2016-04-24T07:32:17Z</time>
      </trkpt>
      <trkpt lat="43.64293" lon="3.56666">
        <ele>111.17</ele>
        <time>2016-04-24T07:32:25Z</time>
      </trkpt>
      <trkpt lat="43.64422" lon="3.56312">
        <ele>106.36</ele>
        <time>2016-04-24T07:32:34Z</time>
      </trkpt>
      <trkpt lat="43.64466" lon="3.56">
        <ele>96.75</ele>
        <time>2016-04-24T07:32:41Z</time>
      </trkpt>
      <trkpt lat="43.64505" lon="3.55505">
        <ele>83.29</ele>
        <time>2016-04-24T07:32:52Z</time>
      </trkpt>
      <trkpt lat="43.64565" lon="3.55059">
        <ele>77.52</ele>
        <time>2016-04-24T07:33:02Z</time>
      </trkpt>
      <trkpt lat="43.64671" lon="3.54782">
        <ele>71.27</ele>
        <time>2016-04-24T07:33:09Z</time>
      </trkpt>
      <trkpt lat="43.6482" lon="3.54558">
        <ele>60.7</ele>
        <time>2016-04-24T07:33:16Z</time>
      </trkpt>
      <trkpt lat="43.6498" lon="3.54346">
        <ele>56.86</ele>
        <time>2016-04-24T07:33:23Z</time>
      </trkpt>
      <trkpt lat="43.65084" lon="3.54119">
        <ele>55.41</ele>
        <time>2016-04-24T07:33:29Z</time>
      </trkpt>
      <trkpt lat="43.65158" lon="3.53823">
        <ele>54.45</ele>
        <time>2016-04-24T07:33:36Z</time>
      </trkpt>
      <trkpt lat="43.65206" lon="3.53414">
        <ele>56.37</ele>
        <time>2016-04-24T07:33:45Z</time>
      </trkpt>
      <trkpt lat="43.65264" lon="3.52974">
        <ele>61.18</ele>
        <time>2016-04-24T07:33:55Z</time>
      </trkpt>
      <trkpt lat="43.65362" lon="3.52608">
        <ele>64.55</ele>
        <time>2016-04-24T07:34:04Z</time>
      </trkpt>
      <trkpt lat="43.65505" lon="3.52263">
        <ele>70.79</ele>
        <time>2016-04-24T07:34:13Z</time>
      </trkpt>
      <trkpt lat="43.65776" lon="3.51694">
        <ele>80.41</ele>
        <time>2016-04-24T07:34:28Z</time>
      </trkpt>
      <trkpt lat="43.65901" lon="3.51341">
        <ele>82.33</ele>
        <time>2016-04-24T07:34:37Z</time>
      </trkpt>
      <trkpt lat="43.65968" lon="3.50994">
        <ele>84.25</ele>
        <time>2016-04-24T07:34:45Z</time>
      </trkpt>
      <trkpt lat="43.65995" lon="3.50627">
        <ele>86.18</ele>
        <time>2016-04-24T07:34:53Z</time>
      </trkpt>
      <trkpt lat="43.65973" lon="3.5022">
        <ele>88.1</ele>
        <time>2016-04-24T07:35:02Z</time>
      </trkpt>
      <trkpt lat="43.65901" lon="3.49775">
        <ele>90.02</ele>
        <time>2016-04-24T07:35:12Z</time>
      </trkpt>
      <trkpt lat="43.65865" lon="3.49395">
        <ele>90.98</ele>
        <time>2016-04-24T07:35:21Z</time>
      </trkpt>
      <trkpt lat="43.65874" lon="3.49039">
        <ele>91.46</ele>
        <time>2016-04-24T07:35:29Z</time>
      </trkpt>
      <trkpt lat="43.65906" lon="3.48713">
        <ele>91.94</ele>
        <time>2016-04-24T07:35:37Z</time>
      </trkpt>
      <trkpt lat="43.65929" lon="3.48264">
        <ele>92.9</ele>
        <time>2016-04-24T07:35:48Z</time>
      </trkpt>
      <trkpt lat="43.65914" lon="3.47748">
        <ele>93.39</ele>
        <time>2016-04-24T07:36:00Z</time>
      </trkpt>
      <trkpt lat="43.65849" lon="3.47204">
        <ele>90.5</ele>
        <time>2016-04-24T07:36:13Z</time>
      </trkpt>
      <trkpt lat="43.65771" lon="3.46679">
        <ele>89.06</ele>
        <time>2016-04-24T07:36:26Z</time>
      </trkpt>
      <trkpt lat="43.65688" lon="3.46167">
        <ele>89.06</ele>
        <time>2016-04-24T07:36:39Z</time>
      </trkpt>
      <trkpt lat="43.65627" lon="3.45813">
        <ele>89.06</ele>
        <time>2016-04-24T07:36:49Z</time>
      </trkpt>
      <trkpt lat="43.65545" lon="3.45345">
        <ele>88.1</ele>
        <time>2016-04-24T07:37:02Z</time>
      </trkpt>
      <trkpt lat="43.65492" lon="3.4499">
        <ele>88.58</ele>
        <time>2016-04-24T07:37:12Z</time>
      </trkpt>
      <trkpt lat="43.65497" lon="3.44921">
        <ele>89.54</ele>
        <time>2016-04-24T07:37:14Z</time>
      </trkpt>
      <trkpt lat="43.65503" lon="3.44887">
        <ele>90.02</ele>
        <time>2016-04-24T07:37:15Z</time>
      </trkpt>
      <trkpt lat="43.65511" lon="3.44854">
        <ele>90.5</ele>
        <time>2016-04-24T07:37:16Z</time>
      </trkpt>
      <trkpt lat="43.65521" lon="3.44823">
        <ele>90.98</ele>
        <time>2016-04-24T07:37:17Z</time>
      </trkpt>
      <trkpt lat="43.65534" lon="3.44792">
        <ele>90.98</ele>
        <time>2016-04-24T07:37:18Z</time>
      </trkpt>
      <trkpt lat="43.65549" lon="3.44764">
        <ele>90.98</ele>
        <time>2016-04-24T07:37:19Z</time>
      </trkpt>
      <trkpt lat="43.65566" lon="3.44736">
        <ele>90.5</ele>
        <time>2016-04-24T07:37:20Z</time>
      </trkpt>
      <trkpt lat="43.65586" lon="3.44709">
        <ele>90.02</ele>
        <time>2016-04-24T07:37:21Z</time>
      </trkpt>
      <trkpt lat="43.65607" lon="3.44684">
        <ele>90.02</ele>
        <time>2016-04-24T07:37:22Z</time>
      </trkpt>
      <trkpt lat="43.6563" lon="3.44659">
        <ele>89.54</ele>
        <time>2016-04-24T07:37:23Z</time>
      </trkpt>
      <trkpt lat="43.65802" lon="3.44464">
        <ele>90.98</ele>
        <time>2016-04-24T07:37:30Z</time>
      </trkpt>
      <trkpt lat="43.65988" lon="3.44256">
        <ele>92.9</ele>
        <time>2016-04-24T07:37:38Z</time>
      </trkpt>
      <trkpt lat="43.66176" lon="3.43998">
        <ele>94.83</ele>
        <time>2016-04-24T07:37:47Z</time>
      </trkpt>
      <trkpt lat="43.66295" lon="3.43784">
        <ele>94.83</ele>
        <time>2016-04-24T07:37:54Z</time>
      </trkpt>
      <trkpt lat="43.66536" lon="3.43415">
        <ele>86.18</ele>
        <time>2016-04-24T07:38:07Z</time>
      </trkpt>
      <trkpt lat="43.66808" lon="3.4301">
        <ele>87.62</ele>
        <time>2016-04-24T07:38:21Z</time>
      </trkpt>
      <trkpt lat="43.66976" lon="3.42832">
        <ele>90.02</ele>
        <time>2016-04-24T07:38:28Z</time>
      </trkpt>
      <trkpt lat="43.67398" lon="3.42422">
        <ele>90.98</ele>
        <time>2016-04-24T07:38:45Z</time>
      </trkpt>
      <trkpt lat="43.67535" lon="3.42189">
        <ele>93.39</ele>
        <time>2016-04-24T07:38:52Z</time>
      </trkpt>
      <trkpt lat="43.67627" lon="3.41924">
        <ele>100.11</ele>
        <time>2016-04-24T07:38:59Z</time>
      </trkpt>
      <trkpt lat="43.67669" lon="3.41702">
        <ele>102.04</ele>
        <time>2016-04-24T07:39:06Z</time>
      </trkpt>
      <trkpt lat="43.67715" lon="3.41376">
        <ele>101.08</ele>
        <time>2016-04-24T07:39:15Z</time>
      </trkpt>
      <trkpt lat="43.67804" lon="3.40783">
        <ele>101.56</ele>
        <time>2016-04-24T07:39:30Z</time>
      </trkpt>
      <trkpt lat="43.67887" lon="3.40198">
        <ele>102.52</ele>
        <time>2016-04-24T07:39:45Z</time>
      </trkpt>
      <trkpt lat="43.67971" lon="3.39622">
        <ele>103.48</ele>
        <time>2016-04-24T07:40:00Z</time>
      </trkpt>
      <trkpt lat="43.68023" lon="3.39207">
        <ele>103.96</ele>
        <time>2016-04-24T07:40:11Z</time>
      </trkpt>
      <trkpt lat="43.68004" lon="3.38892">
        <ele>105.4</ele>
        <time>2016-04-24T07:40:19Z</time>
      </trkpt>
      <trkpt lat="43.68002" lon="3.38495">
        <ele>111.65</ele>
        <time>2016-04-24T07:40:30Z</time>
      </trkpt>
      <trkpt lat="43.68023" lon="3.3819">
        <ele>114.05</ele>
        <time>2016-04-24T07:40:38Z</time>
      </trkpt>
      <trkpt lat="43.68095" lon="3.37926">
        <ele>115.5</ele>
        <time>2016-04-24T07:40:45Z</time>
      </trkpt>
      <trkpt lat="43.68312" lon="3.37331">
        <ele>114.53</ele>
        <time>2016-04-24T07:41:01Z</time>
      </trkpt>
      <trkpt lat="43.68466" lon="3.3685">
        <ele>121.26</ele>
        <time>2016-04-24T07:41:14Z</time>
      </trkpt>
      <trkpt lat="43.68527" lon="3.36518">
        <ele>125.11</ele>
        <time>2016-04-24T07:41:23Z</time>
      </trkpt>
      <trkpt lat="43.68524" lon="3.36142">
        <ele>122.22</ele>
        <time>2016-04-24T07:41:33Z</time>
      </trkpt>
      <trkpt lat="43.68533" lon="3.35881">
        <ele>125.11</ele>
        <time>2016-04-24T07:41:40Z</time>
      </trkpt>
      <trkpt lat="43.686" lon="3.35701">
        <ele>127.51</ele>
        <time>2016-04-24T07:41:45Z</time>
      </trkpt>
      <trkpt lat="43.68714" lon="3.35561">
        <ele>127.03</ele>
        <time>2016-04-24T07:41:50Z</time>
      </trkpt>
      <trkpt lat="43.68829" lon="3.35407">
        <ele>127.03</ele>
        <time>2016-04-24T07:41:56Z</time>
      </trkpt>
      <trkpt lat="43.69105" lon="3.34982">
        <ele>127.99</ele>
        <time>2016-04-24T07:42:11Z</time>
      </trkpt>
      <trkpt lat="43.69207" lon="3.34773">
        <ele>130.4</ele>
        <time>2016-04-24T07:42:18Z</time>
      </trkpt>
      <trkpt lat="43.69329" lon="3.34408">
        <ele>136.16</ele>
        <time>2016-04-24T07:42:29Z</time>
      </trkpt>
      <trkpt lat="43.69346" lon="3.34383">
        <ele>136.64</ele>
        <time>2016-04-24T07:42:30Z</time>
      </trkpt>
      <trkpt lat="43.69365" lon="3.34359">
        <ele>137.13</ele>
        <time>2016-04-24T07:42:31Z</time>
      </trkpt>
      <trkpt lat="43.69385" lon="3.34337">
        <ele>137.61</ele>
        <time>2016-04-24T07:42:32Z</time>
      </trkpt>
      <trkpt lat="43.69406" lon="3.34318">
        <ele>137.61</ele>
        <time>2016-04-24T07:42:33Z</time>
      </trkpt>
      <trkpt lat="43.69429" lon="3.343">
        <ele>137.61</ele>
        <time>2016-04-24T07:42:34Z</time>
      </trkpt>
      <trkpt lat="43.69453" lon="3.34284">
        <ele>137.61</ele>
        <time>2016-04-24T07:42:35Z</time>
      </trkpt>
      <trkpt lat="43.69613" lon="3.34165">
        <ele>135.2</ele>
        <time>2016-04-24T07:42:42Z</time>
      </trkpt>
      <trkpt lat="43.69725" lon="3.33995">
        <ele>135.68</ele>
        <time>2016-04-24T07:42:48Z</time>
      </trkpt>
      <trkpt lat="43.69792" lon="3.33767">
        <ele>137.61</ele>
        <time>2016-04-24T07:42:54Z</time>
      </trkpt>
      <trkpt lat="43.6986" lon="3.33435">
        <ele>140.97</ele>
        <time>2016-04-24T07:43:02Z</time>
      </trkpt>
      <trkpt lat="43.69965" lon="3.33225">
        <ele>141.93</ele>
        <time>2016-04-24T07:43:08Z</time>
      </trkpt>
      <trkpt lat="43.70107" lon="3.33083">
        <ele>142.89</ele>
        <time>2016-04-24T07:43:14Z</time>
      </trkpt>
      <trkpt lat="43.70393" lon="3.32917">
        <ele>145.78</ele>
        <time>2016-04-24T07:43:25Z</time>
      </trkpt>
      <trkpt lat="43.706" lon="3.32798">
        <ele>148.18</ele>
        <time>2016-04-24T07:43:34Z</time>
      </trkpt>
      <trkpt lat="43.70884" lon="3.32635">
        <ele>151.06</ele>
        <time>2016-04-24T07:43:46Z</time>
      </trkpt>
      <trkpt lat="43.71213" lon="3.32462">
        <ele>153.95</ele>
        <time>2016-04-24T07:43:59Z</time>
      </trkpt>
      <trkpt lat="43.71382" lon="3.32448">
        <ele>155.87</ele>
        <time>2016-04-24T07:44:06Z</time>
      </trkpt>
      <trkpt lat="43.71761" lon="3.32455">
        <ele>162.12</ele>
        <time>2016-04-24T07:44:22Z</time>
      </trkpt>
      <trkpt lat="43.72" lon="3.32459">
        <ele>165.48</ele>
        <time>2016-04-24T07:44:32Z</time>
      </trkpt>
      <trkpt lat="43.72168" lon="3.32474">
        <ele>172.69</ele>
        <time>2016-04-24T07:44:40Z</time>
      </trkpt>
      <trkpt lat="43.7226" lon="3.32492">
        <ele>174.62</ele>
        <time>2016-04-24T07:44:47Z</time>
      </trkpt>
      <trkpt lat="43.72271" lon="3.32489">
        <ele>174.62</ele>
        <time>2016-04-24T07:44:48Z</time>
      </trkpt>
      <trkpt lat="43.72281" lon="3.32482">
        <ele>174.62</ele>
        <time>2016-04-24T07:44:49Z</time>
      </trkpt>
      <trkpt lat="43.72291" lon="3.32473">
        <ele>174.62</ele>
        <time>2016-04-24T07:44:50Z</time>
      </trkpt>
      <trkpt lat="43.72301" lon="3.32465">
        <ele>174.14</ele>
        <time>2016-04-24T07:44:51Z</time>
      </trkpt>
      <trkpt lat="43.72323" lon="3.32422">
        <ele>173.66</ele>
        <time>2016-04-24T07:44:54Z</time>
      </trkpt>
      <trkpt lat="43.72341" lon="3.3238">
        <ele>170.77</ele>
        <time>2016-04-24T07:44:58Z</time>
      </trkpt>
      <trkpt lat="43.72346" lon="3.32374">
        <ele>170.77</ele>
        <time>2016-04-24T07:44:59Z</time>
      </trkpt>
      <trkpt lat="43.72352" lon="3.32371">
        <ele>170.77</ele>
        <time>2016-04-24T07:45:00Z</time>
      </trkpt>
      <trkpt lat="43.72359" lon="3.32371">
        <ele>170.77</ele>
        <time>2016-04-24T07:45:01Z</time>
      </trkpt>
      <trkpt lat="43.72367" lon="3.3237">
        <ele>170.77</ele>
        <time>2016-04-24T07:45:02Z</time>
      </trkpt>
      <trkpt lat="43.72374" lon="3.32368">
        <ele>170.77</ele>
        <time>2016-04-24T07:45:03Z</time>
      </trkpt>
      <trkpt lat="43.72381" lon="3.32365">
        <ele>170.77</ele>
        <time>2016-04-24T07:45:04Z</time>
      </trkpt>
      <trkpt lat="43.72387" lon="3.32364">
        <ele>170.29</ele>
        <time>2016-04-24T07:45:05Z</time>
      </trkpt>
      <trkpt lat="43.72393" lon="3.32364">
        <ele>170.29</ele>
        <time>2016-04-24T07:45:06Z</time>
      </trkpt>
      <trkpt lat="43.72399" lon="3.32366">
        <ele>170.29</ele>
        <time>2016-04-24T07:45:07Z</time>
      </trkpt>
      <trkpt lat="43.72412" lon="3.3237">
        <ele>169.33</ele>
        <time>2016-04-24T07:45:09Z</time>
      </trkpt>
      <trkpt lat="43.72417" lon="3.32371">
        <ele>169.81</ele>
        <time>2016-04-24T07:45:10Z</time>
      </trkpt>
      <trkpt lat="43.72431" lon="3.32369">
        <ele>170.29</ele>
        <time>2016-04-24T07:45:13Z</time>
      </trkpt>
      <trkpt lat="43.72434" lon="3.32368">
        <ele>169.81</ele>
        <time>2016-04-24T07:45:14Z</time>
      </trkpt>
      <trkpt lat="43.72438" lon="3.32364">
        <ele>169.81</ele>
        <time>2016-04-24T07:45:15Z</time>
      </trkpt>
      <trkpt lat="43.72441" lon="3.3236">
        <ele>169.81</ele>
        <time>2016-04-24T07:45:16Z</time>
      </trkpt>
      <trkpt lat="43.72443" lon="3.32354">
        <ele>169.81</ele>
        <time>2016-04-24T07:45:17Z</time>
      </trkpt>
      <trkpt lat="43.72444" lon="3.32348">
        <ele>169.81</ele>
        <time>2016-04-24T07:45:18Z</time>
      </trkpt>
      <trkpt lat="43.72446" lon="3.32342">
        <ele>169.81</ele>
        <time>2016-04-24T07:45:19Z</time>
      </trkpt>
      <trkpt lat="43.72448" lon="3.32337">
        <ele>170.29</ele>
        <time>2016-04-24T07:45:20Z</time>
      </trkpt>
      <trkpt lat="43.72451" lon="3.32332">
        <ele>170.29</ele>
        <time>2016-04-24T07:45:21Z</time>
      </trkpt>
      <trkpt lat="43.72454" lon="3.32329">
        <ele>169.81</ele>
        <time>2016-04-24T07:45:22Z</time>
      </trkpt>
      <trkpt lat="43.72459" lon="3.32327">
        <ele>169.81</ele>
        <time>2016-04-24T07:45:23Z</time>
      </trkpt>
      <trkpt lat="43.72463" lon="3.32326">
        <ele>169.81</ele>
        <time>2016-04-24T07:45:24Z</time>
      </trkpt>
      <trkpt lat="43.725" lon="3.32333">
        <ele>168.85</ele>
        <time>2016-04-24T07:45:36Z</time>
      </trkpt>
      <trkpt lat="43.72492" lon="3.32348">
        <ele>168.85</ele>
        <time>2016-04-24T07:45:47Z</time>
      </trkpt>
      <trkpt lat="43.72478" lon="3.32352">
        <ele>170.29</ele>
        <time>2016-04-24T07:46:21Z</time>
      </trkpt>
      <trkpt lat="43.72475" lon="3.32351">
        <ele>169.81</ele>
        <time>2016-04-24T07:46:35Z</time>
      </trkpt>
      <trkpt lat="43.72474" lon="3.32349">
        <ele>168.85</ele>
        <time>2016-04-24T07:46:53Z</time>
      </trkpt>
      <trkpt lat="43.72477" lon="3.32356">
        <ele>143.37</ele>
        <time>2016-04-24T07:48:02Z</time>
      </trkpt>
      <trkpt lat="43.72493" lon="3.3235">
        <ele>174.62</ele>
        <time>2016-04-24T07:54:49Z</time>
      </trkpt>
      <trkpt lat="43.72494" lon="3.32352">
        <ele>173.17</ele>
        <time>2016-04-24T07:58:59Z</time>
      </trkpt>
      <trkpt lat="43.72485" lon="3.32353">
        <ele>172.69</ele>
        <time>2016-04-24T07:59:02Z</time>
      </trkpt>
      <trkpt lat="43.72481" lon="3.32354">
        <ele>172.69</ele>
        <time>2016-04-24T07:59:03Z</time>
      </trkpt>
      <trkpt lat="43.72477" lon="3.32355">
        <ele>172.69</ele>
        <time>2016-04-24T07:59:04Z</time>
      </trkpt>
      <trkpt lat="43.72463" lon="3.32359">
        <ele>172.21</ele>
        <time>2016-04-24T07:59:07Z</time>
      </trkpt>
      <trkpt lat="43.72458" lon="3.32359">
        <ele>172.21</ele>
        <time>2016-04-24T07:59:08Z</time>
      </trkpt>
      <trkpt lat="43.72454" lon="3.32359">
        <ele>171.73</ele>
        <time>2016-04-24T07:59:09Z</time>
      </trkpt>
      <trkpt lat="43.7245" lon="3.32357">
        <ele>171.73</ele>
        <time>2016-04-24T07:59:10Z</time>
      </trkpt>
      <trkpt lat="43.72447" lon="3.32357">
        <ele>171.73</ele>
        <time>2016-04-24T07:59:11Z</time>
      </trkpt>
      <trkpt lat="43.7244" lon="3.32357">
        <ele>171.25</ele>
        <time>2016-04-24T07:59:13Z</time>
      </trkpt>
      <trkpt lat="43.72435" lon="3.32361">
        <ele>171.25</ele>
        <time>2016-04-24T07:59:14Z</time>
      </trkpt>
      <trkpt lat="43.72429" lon="3.32364">
        <ele>170.77</ele>
        <time>2016-04-24T07:59:15Z</time>
      </trkpt>
      <trkpt lat="43.72424" lon="3.32367">
        <ele>170.77</ele>
        <time>2016-04-24T07:59:16Z</time>
      </trkpt>
      <trkpt lat="43.72418" lon="3.32368">
        <ele>170.77</ele>
        <time>2016-04-24T07:59:17Z</time>
      </trkpt>
      <trkpt lat="43.72414" lon="3.32368">
        <ele>170.77</ele>
        <time>2016-04-24T07:59:18Z</time>
      </trkpt>
      <trkpt lat="43.72404" lon="3.32367">
        <ele>170.77</ele>
        <time>2016-04-24T07:59:20Z</time>
      </trkpt>
      <trkpt lat="43.72398" lon="3.32366">
        <ele>170.77</ele>
        <time>2016-04-24T07:59:21Z</time>
      </trkpt>
      <trkpt lat="43.72393" lon="3.32363">
        <ele>170.77</ele>
        <time>2016-04-24T07:59:22Z</time>
      </trkpt>
      <trkpt lat="43.72388" lon="3.32358">
        <ele>170.77</ele>
        <time>2016-04-24T07:59:23Z</time>
      </trkpt>
      <trkpt lat="43.72384" lon="3.32351">
        <ele>170.77</ele>
        <time>2016-04-24T07:59:24Z</time>
      </trkpt>
      <trkpt lat="43.72379" lon="3.32342">
        <ele>170.29</ele>
        <time>2016-04-24T07:59:25Z</time>
      </trkpt>
      <trkpt lat="43.72376" lon="3.32332">
        <ele>169.81</ele>
        <time>2016-04-24T07:59:26Z</time>
      </trkpt>
      <trkpt lat="43.72374" lon="3.32321">
        <ele>169.33</ele>
        <time>2016-04-24T07:59:27Z</time>
      </trkpt>
      <trkpt lat="43.72373" lon="3.32309">
        <ele>168.85</ele>
        <time>2016-04-24T07:59:28Z</time>
      </trkpt>
      <trkpt lat="43.72374" lon="3.32298">
        <ele>168.85</ele>
        <time>2016-04-24T07:59:29Z</time>
      </trkpt>
      <trkpt lat="43.72376" lon="3.32287">
        <ele>168.37</ele>
        <time>2016-04-24T07:59:30Z</time>
      </trkpt>
      <trkpt lat="43.72378" lon="3.32275">
        <ele>167.89</ele>
        <time>2016-04-24T07:59:31Z</time>
      </trkpt>
      <trkpt lat="43.72398" lon="3.32199">
        <ele>164.04</ele>
        <time>2016-04-24T07:59:40Z</time>
      </trkpt>
      <trkpt lat="43.72401" lon="3.32193">
        <ele>164.04</ele>
        <time>2016-04-24T07:59:41Z</time>
      </trkpt>
      <trkpt lat="43.72405" lon="3.32186">
        <ele>163.56</ele>
        <time>2016-04-24T07:59:42Z</time>
      </trkpt>
      <trkpt lat="43.7241" lon="3.3218">
        <ele>163.56</ele>
        <time>2016-04-24T07:59:43Z</time>
      </trkpt>
      <trkpt lat="43.72416" lon="3.32174">
        <ele>163.08</ele>
        <time>2016-04-24T07:59:44Z</time>
      </trkpt>
      <trkpt lat="43.72423" lon="3.32169">
        <ele>162.6</ele>
        <time>2016-04-24T07:59:45Z</time>
      </trkpt>
      <trkpt lat="43.72431" lon="3.32166">
        <ele>162.12</ele>
        <time>2016-04-24T07:59:46Z</time>
      </trkpt>
      <trkpt lat="43.72438" lon="3.32164">
        <ele>162.12</ele>
        <time>2016-04-24T07:59:47Z</time>
      </trkpt>
      <trkpt lat="43.72445" lon="3.32162">
        <ele>161.64</ele>
        <time>2016-04-24T07:59:48Z</time>
      </trkpt>
      <trkpt lat="43.72453" lon="3.32162">
        <ele>161.64</ele>
        <time>2016-04-24T07:59:49Z</time>
      </trkpt>
      <trkpt lat="43.72518" lon="3.32177">
        <ele>164.04</ele>
        <time>2016-04-24T07:59:58Z</time>
      </trkpt>
      <trkpt lat="43.72601" lon="3.32252">
        <ele>165.48</ele>
        <time>2016-04-24T08:00:12Z</time>
      </trkpt>
      <trkpt lat="43.72606" lon="3.32261">
        <ele>165.48</ele>
        <time>2016-04-24T08:00:13Z</time>
      </trkpt>
      <trkpt lat="43.72611" lon="3.32271">
        <ele>165.48</ele>
        <time>2016-04-24T08:00:14Z</time>
      </trkpt>
      <trkpt lat="43.72617" lon="3.32282">
        <ele>165.96</ele>
        <time>2016-04-24T08:00:15Z</time>
      </trkpt>
      <trkpt lat="43.72623" lon="3.32292">
        <ele>165.96</ele>
        <time>2016-04-24T08:00:16Z</time>
      </trkpt>
      <trkpt lat="43.7263" lon="3.323">
        <ele>165.96</ele>
        <time>2016-04-24T08:00:17Z</time>
      </trkpt>
      <trkpt lat="43.72638" lon="3.32306">
        <ele>165.96</ele>
        <time>2016-04-24T08:00:18Z</time>
      </trkpt>
      <trkpt lat="43.72646" lon="3.32312">
        <ele>165.96</ele>
        <time>2016-04-24T08:00:19Z</time>
      </trkpt>
      <trkpt lat="43.72747" lon="3.32387">
        <ele>166.93</ele>
        <time>2016-04-24T08:00:32Z</time>
      </trkpt>
      <trkpt lat="43.72845" lon="3.32465">
        <ele>169.81</ele>
        <time>2016-04-24T08:00:42Z</time>
      </trkpt>
      <trkpt lat="43.72879" lon="3.32489">
        <ele>169.81</ele>
        <time>2016-04-24T08:00:45Z</time>
      </trkpt>
      <trkpt lat="43.72891" lon="3.32495">
        <ele>169.81</ele>
        <time>2016-04-24T08:00:46Z</time>
      </trkpt>
      <trkpt lat="43.72904" lon="3.32498">
        <ele>169.81</ele>
        <time>2016-04-24T08:00:47Z</time>
      </trkpt>
      <trkpt lat="43.72919" lon="3.32495">
        <ele>170.29</ele>
        <time>2016-04-24T08:00:48Z</time>
      </trkpt>
      <trkpt lat="43.72933" lon="3.3249">
        <ele>170.77</ele>
        <time>2016-04-24T08:00:49Z</time>
      </trkpt>
      <trkpt lat="43.72946" lon="3.32481">
        <ele>171.25</ele>
        <time>2016-04-24T08:00:50Z</time>
      </trkpt>
      <trkpt lat="43.72957" lon="3.32471">
        <ele>171.73</ele>
        <time>2016-04-24T08:00:51Z</time>
      </trkpt>
      <trkpt lat="43.72967" lon="3.32461">
        <ele>172.21</ele>
        <time>2016-04-24T08:00:52Z</time>
      </trkpt>
      <trkpt lat="43.73012" lon="3.32422">
        <ele>170.77</ele>
        <time>2016-04-24T08:00:57Z</time>
      </trkpt>
      <trkpt lat="43.73021" lon="3.32417">
        <ele>171.25</ele>
        <time>2016-04-24T08:00:58Z</time>
      </trkpt>
      <trkpt lat="43.7303" lon="3.32413">
        <ele>172.21</ele>
        <time>2016-04-24T08:00:59Z</time>
      </trkpt>
      <trkpt lat="43.73039" lon="3.32411">
        <ele>173.17</ele>
        <time>2016-04-24T08:01:00Z</time>
      </trkpt>
      <trkpt lat="43.73048" lon="3.32409">
        <ele>173.66</ele>
        <time>2016-04-24T08:01:01Z</time>
      </trkpt>
      <trkpt lat="43.73107" lon="3.32399">
        <ele>177.02</ele>
        <time>2016-04-24T08:01:09Z</time>
      </trkpt>
      <trkpt lat="43.73111" lon="3.32395">
        <ele>176.54</ele>
        <time>2016-04-24T08:01:10Z</time>
      </trkpt>
      <trkpt lat="43.73112" lon="3.32388">
        <ele>175.1</ele>
        <time>2016-04-24T08:01:11Z</time>
      </trkpt>
      <trkpt lat="43.73113" lon="3.32379">
        <ele>174.62</ele>
        <time>2016-04-24T08:01:12Z</time>
      </trkpt>
      <trkpt lat="43.73112" lon="3.3237">
        <ele>174.62</ele>
        <time>2016-04-24T08:01:13Z</time>
      </trkpt>
      <trkpt lat="43.73112" lon="3.32361">
        <ele>174.14</ele>
        <time>2016-04-24T08:01:14Z</time>
      </trkpt>
      <trkpt lat="43.73111" lon="3.32338">
        <ele>173.17</ele>
        <time>2016-04-24T08:01:17Z</time>
      </trkpt>
      <trkpt lat="43.73113" lon="3.32331">
        <ele>172.69</ele>
        <time>2016-04-24T08:01:18Z</time>
      </trkpt>
      <trkpt lat="43.73116" lon="3.32325">
        <ele>172.21</ele>
        <time>2016-04-24T08:01:19Z</time>
      </trkpt>
      <trkpt lat="43.73121" lon="3.3232">
        <ele>172.21</ele>
        <time>2016-04-24T08:01:20Z</time>
      </trkpt>
      <trkpt lat="43.73126" lon="3.32316">
        <ele>171.73</ele>
        <time>2016-04-24T08:01:21Z</time>
      </trkpt>
      <trkpt lat="43.73132" lon="3.32312">
        <ele>171.25</ele>
        <time>2016-04-24T08:01:22Z</time>
      </trkpt>
      <trkpt lat="43.73172" lon="3.3228">
        <ele>168.85</ele>
        <time>2016-04-24T08:01:29Z</time>
      </trkpt>
      <trkpt lat="43.73176" lon="3.32274">
        <ele>168.37</ele>
        <time>2016-04-24T08:01:30Z</time>
      </trkpt>
      <trkpt lat="43.73177" lon="3.32266">
        <ele>168.37</ele>
        <time>2016-04-24T08:01:31Z</time>
      </trkpt>
      <trkpt lat="43.73179" lon="3.32258">
        <ele>168.85</ele>
        <time>2016-04-24T08:01:32Z</time>
      </trkpt>
      <trkpt lat="43.73179" lon="3.3225">
        <ele>169.81</ele>
        <time>2016-04-24T08:01:33Z</time>
      </trkpt>
      <trkpt lat="43.73179" lon="3.32242">
        <ele>171.25</ele>
        <time>2016-04-24T08:01:34Z</time>
      </trkpt>
      <trkpt lat="43.73177" lon="3.32234">
        <ele>171.25</ele>
        <time>2016-04-24T08:01:35Z</time>
      </trkpt>
      <trkpt lat="43.73176" lon="3.32226">
        <ele>172.21</ele>
        <time>2016-04-24T08:01:36Z</time>
      </trkpt>
      <trkpt lat="43.73176" lon="3.32218">
        <ele>174.14</ele>
        <time>2016-04-24T08:01:37Z</time>
      </trkpt>
      <trkpt lat="43.73173" lon="3.32199">
        <ele>175.58</ele>
        <time>2016-04-24T08:01:40Z</time>
      </trkpt>
      <trkpt lat="43.73163" lon="3.32161">
        <ele>179.42</ele>
        <time>2016-04-24T08:01:46Z</time>
      </trkpt>
      <trkpt lat="43.73162" lon="3.32155">
        <ele>180.38</ele>
        <time>2016-04-24T08:01:47Z</time>
      </trkpt>
      <trkpt lat="43.73163" lon="3.32143">
        <ele>182.79</ele>
        <time>2016-04-24T08:01:49Z</time>
      </trkpt>
      <trkpt lat="43.73164" lon="3.32136">
        <ele>181.83</ele>
        <time>2016-04-24T08:01:50Z</time>
      </trkpt>
      <trkpt lat="43.73166" lon="3.32129">
        <ele>182.31</ele>
        <time>2016-04-24T08:01:51Z</time>
      </trkpt>
      <trkpt lat="43.73169" lon="3.32123">
        <ele>181.83</ele>
        <time>2016-04-24T08:01:52Z</time>
      </trkpt>
      <trkpt lat="43.73173" lon="3.32117">
        <ele>181.35</ele>
        <time>2016-04-24T08:01:53Z</time>
      </trkpt>
      <trkpt lat="43.73179" lon="3.32111">
        <ele>180.87</ele>
        <time>2016-04-24T08:01:54Z</time>
      </trkpt>
      <trkpt lat="43.73182" lon="3.32104">
        <ele>179.9</ele>
        <time>2016-04-24T08:01:55Z</time>
      </trkpt>
      <trkpt lat="43.73239" lon="3.32016">
        <ele>182.31</ele>
        <time>2016-04-24T08:02:08Z</time>
      </trkpt>
      <trkpt lat="43.73282" lon="3.31931">
        <ele>180.38</ele>
        <time>2016-04-24T08:02:21Z</time>
      </trkpt>
      <trkpt lat="43.73323" lon="3.31855">
        <ele>181.35</ele>
        <time>2016-04-24T08:02:33Z</time>
      </trkpt>
      <trkpt lat="43.7334" lon="3.31817">
        <ele>180.87</ele>
        <time>2016-04-24T08:02:36Z</time>
      </trkpt>
      <trkpt lat="43.73344" lon="3.31802">
        <ele>180.87</ele>
        <time>2016-04-24T08:02:37Z</time>
      </trkpt>
      <trkpt lat="43.73376" lon="3.31667">
        <ele>181.35</ele>
        <time>2016-04-24T08:02:46Z</time>
      </trkpt>
      <trkpt lat="43.73393" lon="3.31624">
        <ele>180.87</ele>
        <time>2016-04-24T08:02:52Z</time>
      </trkpt>
      <trkpt lat="43.73395" lon="3.31622">
        <ele>181.35</ele>
        <time>2016-04-24T08:03:06Z</time>
      </trkpt>
      <trkpt lat="43.73396" lon="3.31602">
        <ele>181.83</ele>
        <time>2016-04-24T08:03:36Z</time>
      </trkpt>
      <trkpt lat="43.73393" lon="3.31594">
        <ele>181.35</ele>
        <time>2016-04-24T08:03:37Z</time>
      </trkpt>
      <trkpt lat="43.73387" lon="3.31586">
        <ele>181.35</ele>
        <time>2016-04-24T08:03:38Z</time>
      </trkpt>
      <trkpt lat="43.73322" lon="3.31479">
        <ele>184.71</ele>
        <time>2016-04-24T08:03:49Z</time>
      </trkpt>
      <trkpt lat="43.733" lon="3.3144">
        <ele>186.15</ele>
        <time>2016-04-24T08:03:54Z</time>
      </trkpt>
      <trkpt lat="43.73295" lon="3.31435">
        <ele>186.15</ele>
        <time>2016-04-24T08:03:55Z</time>
      </trkpt>
      <trkpt lat="43.73292" lon="3.31433">
        <ele>185.67</ele>
        <time>2016-04-24T08:03:56Z</time>
      </trkpt>
      <trkpt lat="43.73286" lon="3.31435">
        <ele>185.19</ele>
        <time>2016-04-24T08:04:05Z</time>
      </trkpt>
      <trkpt lat="43.73282" lon="3.3144">
        <ele>184.71</ele>
        <time>2016-04-24T08:04:06Z</time>
      </trkpt>
      <trkpt lat="43.73278" lon="3.3145">
        <ele>184.71</ele>
        <time>2016-04-24T08:04:07Z</time>
      </trkpt>
      <trkpt lat="43.73271" lon="3.31473">
        <ele>185.19</ele>
        <time>2016-04-24T08:04:09Z</time>
      </trkpt>
      <trkpt lat="43.73267" lon="3.31484">
        <ele>185.19</ele>
        <time>2016-04-24T08:04:10Z</time>
      </trkpt>
      <trkpt lat="43.73262" lon="3.31493">
        <ele>184.71</ele>
        <time>2016-04-24T08:04:11Z</time>
      </trkpt>
      <trkpt lat="43.73259" lon="3.31498">
        <ele>185.19</ele>
        <time>2016-04-24T08:04:12Z</time>
      </trkpt>
      <trkpt lat="43.7325" lon="3.31496">
        <ele>185.19</ele>
        <time>2016-04-24T08:04:13Z</time>
      </trkpt>
      <trkpt lat="43.73239" lon="3.31493">
        <ele>184.71</ele>
        <time>2016-04-24T08:04:14Z</time>
      </trkpt>
      <trkpt lat="43.7323" lon="3.31488">
        <ele>184.23</ele>
        <time>2016-04-24T08:04:15Z</time>
      </trkpt>
      <trkpt lat="43.73225" lon="3.31481">
        <ele>184.23</ele>
        <time>2016-04-24T08:04:16Z</time>
      </trkpt>
      <trkpt lat="43.73218" lon="3.31475">
        <ele>183.75</ele>
        <time>2016-04-24T08:04:17Z</time>
      </trkpt>
      <trkpt lat="43.73215" lon="3.31469">
        <ele>183.27</ele>
        <time>2016-04-24T08:04:18Z</time>
      </trkpt>
      <trkpt lat="43.73215" lon="3.31461">
        <ele>182.31</ele>
        <time>2016-04-24T08:04:24Z</time>
      </trkpt>
      <trkpt lat="43.73204" lon="3.31451">
        <ele>181.35</ele>
        <time>2016-04-24T08:04:33Z</time>
      </trkpt>
      <trkpt lat="43.73199" lon="3.31446">
        <ele>181.35</ele>
        <time>2016-04-24T08:04:34Z</time>
      </trkpt>
      <trkpt lat="43.73194" lon="3.31441">
        <ele>181.83</ele>
        <time>2016-04-24T08:04:35Z</time>
      </trkpt>
      <trkpt lat="43.73191" lon="3.31432">
        <ele>181.83</ele>
        <time>2016-04-24T08:04:36Z</time>
      </trkpt>
      <trkpt lat="43.73192" lon="3.31419">
        <ele>182.31</ele>
        <time>2016-04-24T08:04:37Z</time>
      </trkpt>
      <trkpt lat="43.73195" lon="3.31408">
        <ele>181.83</ele>
        <time>2016-04-24T08:04:38Z</time>
      </trkpt>
      <trkpt lat="43.73197" lon="3.31396">
        <ele>181.83</ele>
        <time>2016-04-24T08:04:39Z</time>
      </trkpt>
      <trkpt lat="43.73197" lon="3.31382">
        <ele>181.83</ele>
        <time>2016-04-24T08:04:40Z</time>
      </trkpt>
      <trkpt lat="43.732" lon="3.3132">
        <ele>181.35</ele>
        <time>2016-04-24T08:04:44Z</time>
      </trkpt>
      <trkpt lat="43.73213" lon="3.31162">
        <ele>179.9</ele>
        <time>2016-04-24T08:04:53Z</time>
      </trkpt>
      <trkpt lat="43.73224" lon="3.30957">
        <ele>180.38</ele>
        <time>2016-04-24T08:05:04Z</time>
      </trkpt>
      <trkpt lat="43.73239" lon="3.30788">
        <ele>183.75</ele>
        <time>2016-04-24T08:05:14Z</time>
      </trkpt>
      <trkpt lat="43.73251" lon="3.30732">
        <ele>186.15</ele>
        <time>2016-04-24T08:05:17Z</time>
      </trkpt>
      <trkpt lat="43.73253" lon="3.30711">
        <ele>186.63</ele>
        <time>2016-04-24T08:05:18Z</time>
      </trkpt>
      <trkpt lat="43.7325" lon="3.30646">
        <ele>185.67</ele>
        <time>2016-04-24T08:05:21Z</time>
      </trkpt>
      <trkpt lat="43.73245" lon="3.30625">
        <ele>185.67</ele>
        <time>2016-04-24T08:05:22Z</time>
      </trkpt>
      <trkpt lat="43.7324" lon="3.30604">
        <ele>184.71</ele>
        <time>2016-04-24T08:05:23Z</time>
      </trkpt>
      <trkpt lat="43.73234" lon="3.30583">
        <ele>184.23</ele>
        <time>2016-04-24T08:05:24Z</time>
      </trkpt>
      <trkpt lat="43.73225" lon="3.30564">
        <ele>183.75</ele>
        <time>2016-04-24T08:05:25Z</time>
      </trkpt>
      <trkpt lat="43.73213" lon="3.30546">
        <ele>184.23</ele>
        <time>2016-04-24T08:05:26Z</time>
      </trkpt>
      <trkpt lat="43.73197" lon="3.30511">
        <ele>184.71</ele>
        <time>2016-04-24T08:05:28Z</time>
      </trkpt>
      <trkpt lat="43.73194" lon="3.30495">
        <ele>184.71</ele>
        <time>2016-04-24T08:05:29Z</time>
      </trkpt>
      <trkpt lat="43.73193" lon="3.30479">
        <ele>185.67</ele>
        <time>2016-04-24T08:05:30Z</time>
      </trkpt>
      <trkpt lat="43.73193" lon="3.30464">
        <ele>185.67</ele>
        <time>2016-04-24T08:05:31Z</time>
      </trkpt>
      <trkpt lat="43.73194" lon="3.30447">
        <ele>186.15</ele>
        <time>2016-04-24T08:05:32Z</time>
      </trkpt>
      <trkpt lat="43.73216" lon="3.30282">
        <ele>190.96</ele>
        <time>2016-04-24T08:05:40Z</time>
      </trkpt>
      <trkpt lat="43.73235" lon="3.30152">
        <ele>194.8</ele>
        <time>2016-04-24T08:05:46Z</time>
      </trkpt>
      <trkpt lat="43.73241" lon="3.3013">
        <ele>195.28</ele>
        <time>2016-04-24T08:05:47Z</time>
      </trkpt>
      <trkpt lat="43.73249" lon="3.30109">
        <ele>195.28</ele>
        <time>2016-04-24T08:05:48Z</time>
      </trkpt>
      <trkpt lat="43.7326" lon="3.30093">
        <ele>195.77</ele>
        <time>2016-04-24T08:05:49Z</time>
      </trkpt>
      <trkpt lat="43.73271" lon="3.30079">
        <ele>195.77</ele>
        <time>2016-04-24T08:05:50Z</time>
      </trkpt>
      <trkpt lat="43.73284" lon="3.30072">
        <ele>196.25</ele>
        <time>2016-04-24T08:05:51Z</time>
      </trkpt>
      <trkpt lat="43.73296" lon="3.30062">
        <ele>196.25</ele>
        <time>2016-04-24T08:05:52Z</time>
      </trkpt>
      <trkpt lat="43.73308" lon="3.30051">
        <ele>197.21</ele>
        <time>2016-04-24T08:05:53Z</time>
      </trkpt>
      <trkpt lat="43.7333" lon="3.30026">
        <ele>197.21</ele>
        <time>2016-04-24T08:05:55Z</time>
      </trkpt>
      <trkpt lat="43.7334" lon="3.3001">
        <ele>197.69</ele>
        <time>2016-04-24T08:05:56Z</time>
      </trkpt>
      <trkpt lat="43.73348" lon="3.29994">
        <ele>197.69</ele>
        <time>2016-04-24T08:05:57Z</time>
      </trkpt>
      <trkpt lat="43.73355" lon="3.29977">
        <ele>198.17</ele>
        <time>2016-04-24T08:05:58Z</time>
      </trkpt>
      <trkpt lat="43.7336" lon="3.2996">
        <ele>198.65</ele>
        <time>2016-04-24T08:05:59Z</time>
      </trkpt>
      <trkpt lat="43.73364" lon="3.29944">
        <ele>199.13</ele>
        <time>2016-04-24T08:06:00Z</time>
      </trkpt>
      <trkpt lat="43.73364" lon="3.29927">
        <ele>199.61</ele>
        <time>2016-04-24T08:06:01Z</time>
      </trkpt>
      <trkpt lat="43.73363" lon="3.2991">
        <ele>200.57</ele>
        <time>2016-04-24T08:06:02Z</time>
      </trkpt>
      <trkpt lat="43.73356" lon="3.29895">
        <ele>202.01</ele>
        <time>2016-04-24T08:06:03Z</time>
      </trkpt>
      <trkpt lat="43.73344" lon="3.29884">
        <ele>201.05</ele>
        <time>2016-04-24T08:06:04Z</time>
      </trkpt>
      <trkpt lat="43.73333" lon="3.29869">
        <ele>201.05</ele>
        <time>2016-04-24T08:06:05Z</time>
      </trkpt>
      <trkpt lat="43.7332" lon="3.29855">
        <ele>201.05</ele>
        <time>2016-04-24T08:06:06Z</time>
      </trkpt>
      <trkpt lat="43.73308" lon="3.2984">
        <ele>200.57</ele>
        <time>2016-04-24T08:06:07Z</time>
      </trkpt>
      <trkpt lat="43.73275" lon="3.29766">
        <ele>201.53</ele>
        <time>2016-04-24T08:06:11Z</time>
      </trkpt>
      <trkpt lat="43.73271" lon="3.29743">
        <ele>201.53</ele>
        <time>2016-04-24T08:06:12Z</time>
      </trkpt>
      <trkpt lat="43.73218" lon="3.29454">
        <ele>213.55</ele>
        <time>2016-04-24T08:06:24Z</time>
      </trkpt>
      <trkpt lat="43.73167" lon="3.29177">
        <ele>223.64</ele>
        <time>2016-04-24T08:06:34Z</time>
      </trkpt>
      <trkpt lat="43.73114" lon="3.28873">
        <ele>230.85</ele>
        <time>2016-04-24T08:06:45Z</time>
      </trkpt>
      <trkpt lat="43.73114" lon="3.28845">
        <ele>231.81</ele>
        <time>2016-04-24T08:06:46Z</time>
      </trkpt>
      <trkpt lat="43.73117" lon="3.28818">
        <ele>232.78</ele>
        <time>2016-04-24T08:06:47Z</time>
      </trkpt>
      <trkpt lat="43.73121" lon="3.28789">
        <ele>234.22</ele>
        <time>2016-04-24T08:06:48Z</time>
      </trkpt>
      <trkpt lat="43.73125" lon="3.28761">
        <ele>236.62</ele>
        <time>2016-04-24T08:06:49Z</time>
      </trkpt>
      <trkpt lat="43.73157" lon="3.28548">
        <ele>249.12</ele>
        <time>2016-04-24T08:06:57Z</time>
      </trkpt>
      <trkpt lat="43.73157" lon="3.28523">
        <ele>250.56</ele>
        <time>2016-04-24T08:06:58Z</time>
      </trkpt>
      <trkpt lat="43.73153" lon="3.285">
        <ele>252</ele>
        <time>2016-04-24T08:06:59Z</time>
      </trkpt>
      <trkpt lat="43.73144" lon="3.28476">
        <ele>253.44</ele>
        <time>2016-04-24T08:07:00Z</time>
      </trkpt>
      <trkpt lat="43.73133" lon="3.28453">
        <ele>254.41</ele>
        <time>2016-04-24T08:07:01Z</time>
      </trkpt>
      <trkpt lat="43.7312" lon="3.28431">
        <ele>256.33</ele>
        <time>2016-04-24T08:07:02Z</time>
      </trkpt>
      <trkpt lat="43.73107" lon="3.2841">
        <ele>258.25</ele>
        <time>2016-04-24T08:07:03Z</time>
      </trkpt>
      <trkpt lat="43.73085" lon="3.28366">
        <ele>262.58</ele>
        <time>2016-04-24T08:07:05Z</time>
      </trkpt>
      <trkpt lat="43.73076" lon="3.28341">
        <ele>264.5</ele>
        <time>2016-04-24T08:07:06Z</time>
      </trkpt>
      <trkpt lat="43.7307" lon="3.28313">
        <ele>266.9</ele>
        <time>2016-04-24T08:07:07Z</time>
      </trkpt>
      <trkpt lat="43.73066" lon="3.28283">
        <ele>268.83</ele>
        <time>2016-04-24T08:07:08Z</time>
      </trkpt>
      <trkpt lat="43.73066" lon="3.28247">
        <ele>271.23</ele>
        <time>2016-04-24T08:07:09Z</time>
      </trkpt>
      <trkpt lat="43.73069" lon="3.28211">
        <ele>274.11</ele>
        <time>2016-04-24T08:07:10Z</time>
      </trkpt>
      <trkpt lat="43.73072" lon="3.28175">
        <ele>277</ele>
        <time>2016-04-24T08:07:11Z</time>
      </trkpt>
      <trkpt lat="43.73075" lon="3.28115">
        <ele>282.28</ele>
        <time>2016-04-24T08:07:13Z</time>
      </trkpt>
      <trkpt lat="43.73072" lon="3.28089">
        <ele>284.21</ele>
        <time>2016-04-24T08:07:14Z</time>
      </trkpt>
      <trkpt lat="43.73066" lon="3.28065">
        <ele>286.13</ele>
        <time>2016-04-24T08:07:15Z</time>
      </trkpt>
      <trkpt lat="43.73057" lon="3.28044">
        <ele>288.05</ele>
        <time>2016-04-24T08:07:16Z</time>
      </trkpt>
      <trkpt lat="43.73042" lon="3.28027">
        <ele>289.97</ele>
        <time>2016-04-24T08:07:17Z</time>
      </trkpt>
      <trkpt lat="43.73025" lon="3.28016">
        <ele>291.9</ele>
        <time>2016-04-24T08:07:18Z</time>
      </trkpt>
      <trkpt lat="43.73006" lon="3.28009">
        <ele>293.82</ele>
        <time>2016-04-24T08:07:19Z</time>
      </trkpt>
      <trkpt lat="43.72986" lon="3.28004">
        <ele>295.74</ele>
        <time>2016-04-24T08:07:20Z</time>
      </trkpt>
      <trkpt lat="43.72964" lon="3.28006">
        <ele>297.18</ele>
        <time>2016-04-24T08:07:21Z</time>
      </trkpt>
      <trkpt lat="43.72942" lon="3.28009">
        <ele>299.59</ele>
        <time>2016-04-24T08:07:22Z</time>
      </trkpt>
      <trkpt lat="43.7292" lon="3.2801">
        <ele>301.51</ele>
        <time>2016-04-24T08:07:23Z</time>
      </trkpt>
      <trkpt lat="43.72901" lon="3.28004">
        <ele>303.43</ele>
        <time>2016-04-24T08:07:24Z</time>
      </trkpt>
      <trkpt lat="43.72884" lon="3.27994">
        <ele>304.88</ele>
        <time>2016-04-24T08:07:25Z</time>
      </trkpt>
      <trkpt lat="43.7287" lon="3.27977">
        <ele>306.8</ele>
        <time>2016-04-24T08:07:26Z</time>
      </trkpt>
      <trkpt lat="43.72856" lon="3.27959">
        <ele>309.68</ele>
        <time>2016-04-24T08:07:27Z</time>
      </trkpt>
      <trkpt lat="43.72843" lon="3.27933">
        <ele>312.57</ele>
        <time>2016-04-24T08:07:28Z</time>
      </trkpt>
      <trkpt lat="43.72827" lon="3.27901">
        <ele>314.01</ele>
        <time>2016-04-24T08:07:29Z</time>
      </trkpt>
      <trkpt lat="43.72816" lon="3.27868">
        <ele>315.93</ele>
        <time>2016-04-24T08:07:30Z</time>
      </trkpt>
      <trkpt lat="43.72802" lon="3.27837">
        <ele>318.33</ele>
        <time>2016-04-24T08:07:31Z</time>
      </trkpt>
      <trkpt lat="43.72785" lon="3.27808">
        <ele>320.74</ele>
        <time>2016-04-24T08:07:32Z</time>
      </trkpt>
      <trkpt lat="43.72701" lon="3.27651">
        <ele>333.23</ele>
        <time>2016-04-24T08:07:37Z</time>
      </trkpt>
      <trkpt lat="43.72684" lon="3.2763">
        <ele>336.12</ele>
        <time>2016-04-24T08:07:38Z</time>
      </trkpt>
      <trkpt lat="43.72664" lon="3.27607">
        <ele>338.52</ele>
        <time>2016-04-24T08:07:39Z</time>
      </trkpt>
      <trkpt lat="43.72641" lon="3.27584">
        <ele>340.92</ele>
        <time>2016-04-24T08:07:40Z</time>
      </trkpt>
      <trkpt lat="43.72615" lon="3.27562">
        <ele>343.33</ele>
        <time>2016-04-24T08:07:41Z</time>
      </trkpt>
      <trkpt lat="43.72589" lon="3.27539">
        <ele>345.73</ele>
        <time>2016-04-24T08:07:42Z</time>
      </trkpt>
      <trkpt lat="43.72443" lon="3.27464">
        <ele>360.15</ele>
        <time>2016-04-24T08:07:47Z</time>
      </trkpt>
      <trkpt lat="43.72316" lon="3.27428">
        <ele>372.17</ele>
        <time>2016-04-24T08:07:52Z</time>
      </trkpt>
      <trkpt lat="43.72268" lon="3.27391">
        <ele>380.34</ele>
        <time>2016-04-24T08:07:55Z</time>
      </trkpt>
      <trkpt lat="43.72265" lon="3.2736">
        <ele>381.78</ele>
        <time>2016-04-24T08:07:56Z</time>
      </trkpt>
      <trkpt lat="43.72263" lon="3.27329">
        <ele>384.18</ele>
        <time>2016-04-24T08:07:57Z</time>
      </trkpt>
      <trkpt lat="43.72263" lon="3.273">
        <ele>385.63</ele>
        <time>2016-04-24T08:07:58Z</time>
      </trkpt>
      <trkpt lat="43.72263" lon="3.2727">
        <ele>387.07</ele>
        <time>2016-04-24T08:07:59Z</time>
      </trkpt>
      <trkpt lat="43.72261" lon="3.27241">
        <ele>388.99</ele>
        <time>2016-04-24T08:08:00Z</time>
      </trkpt>
      <trkpt lat="43.72256" lon="3.27212">
        <ele>389.95</ele>
        <time>2016-04-24T08:08:01Z</time>
      </trkpt>
      <trkpt lat="43.72244" lon="3.27182">
        <ele>391.39</ele>
        <time>2016-04-24T08:08:02Z</time>
      </trkpt>
      <trkpt lat="43.72231" lon="3.27159">
        <ele>391.87</ele>
        <time>2016-04-24T08:08:03Z</time>
      </trkpt>
      <trkpt lat="43.72215" lon="3.27138">
        <ele>392.84</ele>
        <time>2016-04-24T08:08:04Z</time>
      </trkpt>
      <trkpt lat="43.72199" lon="3.27119">
        <ele>393.8</ele>
        <time>2016-04-24T08:08:05Z</time>
      </trkpt>
      <trkpt lat="43.72184" lon="3.27103">
        <ele>395.24</ele>
        <time>2016-04-24T08:08:06Z</time>
      </trkpt>
      <trkpt lat="43.72172" lon="3.27089">
        <ele>396.68</ele>
        <time>2016-04-24T08:08:07Z</time>
      </trkpt>
      <trkpt lat="43.72165" lon="3.27071">
        <ele>397.64</ele>
        <time>2016-04-24T08:08:08Z</time>
      </trkpt>
      <trkpt lat="43.72169" lon="3.27046">
        <ele>397.64</ele>
        <time>2016-04-24T08:08:09Z</time>
      </trkpt>
      <trkpt lat="43.72176" lon="3.27023">
        <ele>399.57</ele>
        <time>2016-04-24T08:08:10Z</time>
      </trkpt>
      <trkpt lat="43.72183" lon="3.27">
        <ele>401.49</ele>
        <time>2016-04-24T08:08:11Z</time>
      </trkpt>
      <trkpt lat="43.72188" lon="3.26977">
        <ele>402.93</ele>
        <time>2016-04-24T08:08:12Z</time>
      </trkpt>
      <trkpt lat="43.7219" lon="3.26951">
        <ele>404.37</ele>
        <time>2016-04-24T08:08:13Z</time>
      </trkpt>
      <trkpt lat="43.7219" lon="3.26923">
        <ele>406.29</ele>
        <time>2016-04-24T08:08:14Z</time>
      </trkpt>
      <trkpt lat="43.72191" lon="3.26894">
        <ele>407.74</ele>
        <time>2016-04-24T08:08:15Z</time>
      </trkpt>
      <trkpt lat="43.72198" lon="3.26867">
        <ele>409.18</ele>
        <time>2016-04-24T08:08:16Z</time>
      </trkpt>
      <trkpt lat="43.72211" lon="3.26845">
        <ele>410.62</ele>
        <time>2016-04-24T08:08:17Z</time>
      </trkpt>
      <trkpt lat="43.72228" lon="3.26823">
        <ele>412.06</ele>
        <time>2016-04-24T08:08:18Z</time>
      </trkpt>
      <trkpt lat="43.72244" lon="3.26802">
        <ele>414.47</ele>
        <time>2016-04-24T08:08:19Z</time>
      </trkpt>
      <trkpt lat="43.72265" lon="3.26784">
        <ele>416.87</ele>
        <time>2016-04-24T08:08:20Z</time>
      </trkpt>
      <trkpt lat="43.72285" lon="3.26768">
        <ele>419.27</ele>
        <time>2016-04-24T08:08:21Z</time>
      </trkpt>
      <trkpt lat="43.72303" lon="3.2675">
        <ele>421.68</ele>
        <time>2016-04-24T08:08:22Z</time>
      </trkpt>
      <trkpt lat="43.72319" lon="3.26729">
        <ele>422.64</ele>
        <time>2016-04-24T08:08:23Z</time>
      </trkpt>
      <trkpt lat="43.72332" lon="3.26705">
        <ele>424.56</ele>
        <time>2016-04-24T08:08:24Z</time>
      </trkpt>
      <trkpt lat="43.72342" lon="3.26681">
        <ele>426.48</ele>
        <time>2016-04-24T08:08:25Z</time>
      </trkpt>
      <trkpt lat="43.72346" lon="3.26655">
        <ele>428.4</ele>
        <time>2016-04-24T08:08:26Z</time>
      </trkpt>
      <trkpt lat="43.72342" lon="3.26631">
        <ele>428.89</ele>
        <time>2016-04-24T08:08:27Z</time>
      </trkpt>
      <trkpt lat="43.72337" lon="3.2661">
        <ele>429.37</ele>
        <time>2016-04-24T08:08:28Z</time>
      </trkpt>
      <trkpt lat="43.72322" lon="3.26589">
        <ele>430.33</ele>
        <time>2016-04-24T08:08:29Z</time>
      </trkpt>
      <trkpt lat="43.72305" lon="3.2657">
        <ele>431.29</ele>
        <time>2016-04-24T08:08:30Z</time>
      </trkpt>
      <trkpt lat="43.72289" lon="3.26553">
        <ele>432.73</ele>
        <time>2016-04-24T08:08:31Z</time>
      </trkpt>
      <trkpt lat="43.72275" lon="3.26539">
        <ele>434.65</ele>
        <time>2016-04-24T08:08:32Z</time>
      </trkpt>
      <trkpt lat="43.72266" lon="3.26521">
        <ele>435.61</ele>
        <time>2016-04-24T08:08:33Z</time>
      </trkpt>
      <trkpt lat="43.72263" lon="3.26497">
        <ele>437.06</ele>
        <time>2016-04-24T08:08:34Z</time>
      </trkpt>
      <trkpt lat="43.72263" lon="3.26469">
        <ele>438.5</ele>
        <time>2016-04-24T08:08:35Z</time>
      </trkpt>
      <trkpt lat="43.72268" lon="3.26441">
        <ele>440.9</ele>
        <time>2016-04-24T08:08:36Z</time>
      </trkpt>
      <trkpt lat="43.72274" lon="3.2641">
        <ele>442.82</ele>
        <time>2016-04-24T08:08:37Z</time>
      </trkpt>
      <trkpt lat="43.7228" lon="3.2638">
        <ele>445.23</ele>
        <time>2016-04-24T08:08:38Z</time>
      </trkpt>
      <trkpt lat="43.72289" lon="3.26323">
        <ele>449.07</ele>
        <time>2016-04-24T08:08:40Z</time>
      </trkpt>
      <trkpt lat="43.72287" lon="3.26296">
        <ele>450.52</ele>
        <time>2016-04-24T08:08:41Z</time>
      </trkpt>
      <trkpt lat="43.72283" lon="3.26268">
        <ele>451.96</ele>
        <time>2016-04-24T08:08:42Z</time>
      </trkpt>
      <trkpt lat="43.72275" lon="3.26214">
        <ele>455.8</ele>
        <time>2016-04-24T08:08:44Z</time>
      </trkpt>
      <trkpt lat="43.72277" lon="3.26187">
        <ele>457.24</ele>
        <time>2016-04-24T08:08:45Z</time>
      </trkpt>
      <trkpt lat="43.72286" lon="3.26161">
        <ele>458.21</ele>
        <time>2016-04-24T08:08:46Z</time>
      </trkpt>
      <trkpt lat="43.72297" lon="3.26134">
        <ele>459.65</ele>
        <time>2016-04-24T08:08:47Z</time>
      </trkpt>
      <trkpt lat="43.72312" lon="3.26106">
        <ele>461.57</ele>
        <time>2016-04-24T08:08:48Z</time>
      </trkpt>
      <trkpt lat="43.72332" lon="3.26076">
        <ele>463.01</ele>
        <time>2016-04-24T08:08:49Z</time>
      </trkpt>
      <trkpt lat="43.72354" lon="3.26047">
        <ele>464.93</ele>
        <time>2016-04-24T08:08:50Z</time>
      </trkpt>
      <trkpt lat="43.72375" lon="3.26017">
        <ele>467.82</ele>
        <time>2016-04-24T08:08:51Z</time>
      </trkpt>
      <trkpt lat="43.72515" lon="3.25869">
        <ele>481.76</ele>
        <time>2016-04-24T08:08:57Z</time>
      </trkpt>
      <trkpt lat="43.72595" lon="3.25819">
        <ele>492.81</ele>
        <time>2016-04-24T08:09:02Z</time>
      </trkpt>
      <trkpt lat="43.72595" lon="3.25807">
        <ele>493.77</ele>
        <time>2016-04-24T08:09:03Z</time>
      </trkpt>
      <trkpt lat="43.72594" lon="3.25787">
        <ele>494.74</ele>
        <time>2016-04-24T08:09:04Z</time>
      </trkpt>
      <trkpt lat="43.7259" lon="3.25767">
        <ele>496.18</ele>
        <time>2016-04-24T08:09:05Z</time>
      </trkpt>
      <trkpt lat="43.72583" lon="3.2575">
        <ele>497.14</ele>
        <time>2016-04-24T08:09:06Z</time>
      </trkpt>
      <trkpt lat="43.7256" lon="3.25735">
        <ele>499.06</ele>
        <time>2016-04-24T08:09:08Z</time>
      </trkpt>
      <trkpt lat="43.72538" lon="3.25739">
        <ele>498.1</ele>
        <time>2016-04-24T08:09:09Z</time>
      </trkpt>
      <trkpt lat="43.72519" lon="3.25745">
        <ele>499.06</ele>
        <time>2016-04-24T08:09:10Z</time>
      </trkpt>
      <trkpt lat="43.72498" lon="3.2575">
        <ele>500.98</ele>
        <time>2016-04-24T08:09:11Z</time>
      </trkpt>
      <trkpt lat="43.7245" lon="3.25753">
        <ele>504.35</ele>
        <time>2016-04-24T08:09:13Z</time>
      </trkpt>
      <trkpt lat="43.72427" lon="3.2575">
        <ele>505.79</ele>
        <time>2016-04-24T08:09:14Z</time>
      </trkpt>
      <trkpt lat="43.72406" lon="3.25743">
        <ele>507.71</ele>
        <time>2016-04-24T08:09:15Z</time>
      </trkpt>
      <trkpt lat="43.72357" lon="3.2574">
        <ele>513</ele>
        <time>2016-04-24T08:09:18Z</time>
      </trkpt>
      <trkpt lat="43.7234" lon="3.25749">
        <ele>514.44</ele>
        <time>2016-04-24T08:09:19Z</time>
      </trkpt>
      <trkpt lat="43.72323" lon="3.2576">
        <ele>515.88</ele>
        <time>2016-04-24T08:09:20Z</time>
      </trkpt>
      <trkpt lat="43.72306" lon="3.25767">
        <ele>516.85</ele>
        <time>2016-04-24T08:09:21Z</time>
      </trkpt>
      <trkpt lat="43.72288" lon="3.25766">
        <ele>518.77</ele>
        <time>2016-04-24T08:09:22Z</time>
      </trkpt>
      <trkpt lat="43.7227" lon="3.25758">
        <ele>520.21</ele>
        <time>2016-04-24T08:09:23Z</time>
      </trkpt>
      <trkpt lat="43.7225" lon="3.25747">
        <ele>521.65</ele>
        <time>2016-04-24T08:09:24Z</time>
      </trkpt>
      <trkpt lat="43.72229" lon="3.25737">
        <ele>524.06</ele>
        <time>2016-04-24T08:09:25Z</time>
      </trkpt>
      <trkpt lat="43.72209" lon="3.25729">
        <ele>526.46</ele>
        <time>2016-04-24T08:09:26Z</time>
      </trkpt>
      <trkpt lat="43.72192" lon="3.25728">
        <ele>528.38</ele>
        <time>2016-04-24T08:09:27Z</time>
      </trkpt>
      <trkpt lat="43.72177" lon="3.25731">
        <ele>529.34</ele>
        <time>2016-04-24T08:09:28Z</time>
      </trkpt>
      <trkpt lat="43.72165" lon="3.25746">
        <ele>531.27</ele>
        <time>2016-04-24T08:09:29Z</time>
      </trkpt>
      <trkpt lat="43.72157" lon="3.25767">
        <ele>532.71</ele>
        <time>2016-04-24T08:09:30Z</time>
      </trkpt>
      <trkpt lat="43.72149" lon="3.25793">
        <ele>533.67</ele>
        <time>2016-04-24T08:09:31Z</time>
      </trkpt>
      <trkpt lat="43.7215" lon="3.25816">
        <ele>535.59</ele>
        <time>2016-04-24T08:09:32Z</time>
      </trkpt>
      <trkpt lat="43.72146" lon="3.25842">
        <ele>535.59</ele>
        <time>2016-04-24T08:09:33Z</time>
      </trkpt>
      <trkpt lat="43.72138" lon="3.25867">
        <ele>537.03</ele>
        <time>2016-04-24T08:09:34Z</time>
      </trkpt>
      <trkpt lat="43.72125" lon="3.25891">
        <ele>538.48</ele>
        <time>2016-04-24T08:09:35Z</time>
      </trkpt>
      <trkpt lat="43.72109" lon="3.25912">
        <ele>539.92</ele>
        <time>2016-04-24T08:09:36Z</time>
      </trkpt>
      <trkpt lat="43.72095" lon="3.25926">
        <ele>541.84</ele>
        <time>2016-04-24T08:09:37Z</time>
      </trkpt>
      <trkpt lat="43.72084" lon="3.25936">
        <ele>542.8</ele>
        <time>2016-04-24T08:09:38Z</time>
      </trkpt>
      <trkpt lat="43.72075" lon="3.2594">
        <ele>544.24</ele>
        <time>2016-04-24T08:09:39Z</time>
      </trkpt>
      <trkpt lat="43.72066" lon="3.25938">
        <ele>544.72</ele>
        <time>2016-04-24T08:09:40Z</time>
      </trkpt>
      <trkpt lat="43.72061" lon="3.2593">
        <ele>545.2</ele>
        <time>2016-04-24T08:09:41Z</time>
      </trkpt>
      <trkpt lat="43.72072" lon="3.25894">
        <ele>547.61</ele>
        <time>2016-04-24T08:09:44Z</time>
      </trkpt>
      <trkpt lat="43.72083" lon="3.25883">
        <ele>548.57</ele>
        <time>2016-04-24T08:09:45Z</time>
      </trkpt>
      <trkpt lat="43.72096" lon="3.25871">
        <ele>549.53</ele>
        <time>2016-04-24T08:09:46Z</time>
      </trkpt>
      <trkpt lat="43.72108" lon="3.25855">
        <ele>550.49</ele>
        <time>2016-04-24T08:09:47Z</time>
      </trkpt>
      <trkpt lat="43.72119" lon="3.25835">
        <ele>551.93</ele>
        <time>2016-04-24T08:09:48Z</time>
      </trkpt>
      <trkpt lat="43.72124" lon="3.25811">
        <ele>552.41</ele>
        <time>2016-04-24T08:09:49Z</time>
      </trkpt>
      <trkpt lat="43.72123" lon="3.25784">
        <ele>552.9</ele>
        <time>2016-04-24T08:09:50Z</time>
      </trkpt>
      <trkpt lat="43.7212" lon="3.25755">
        <ele>554.34</ele>
        <time>2016-04-24T08:09:51Z</time>
      </trkpt>
      <trkpt lat="43.7212" lon="3.25726">
        <ele>555.78</ele>
        <time>2016-04-24T08:09:52Z</time>
      </trkpt>
      <trkpt lat="43.72122" lon="3.25699">
        <ele>557.22</ele>
        <time>2016-04-24T08:09:53Z</time>
      </trkpt>
      <trkpt lat="43.72126" lon="3.25676">
        <ele>558.66</ele>
        <time>2016-04-24T08:09:54Z</time>
      </trkpt>
      <trkpt lat="43.72134" lon="3.25656">
        <ele>560.11</ele>
        <time>2016-04-24T08:09:55Z</time>
      </trkpt>
      <trkpt lat="43.72148" lon="3.25643">
        <ele>562.03</ele>
        <time>2016-04-24T08:09:56Z</time>
      </trkpt>
      <trkpt lat="43.72166" lon="3.25638">
        <ele>562.99</ele>
        <time>2016-04-24T08:09:57Z</time>
      </trkpt>
      <trkpt lat="43.72188" lon="3.25637">
        <ele>564.43</ele>
        <time>2016-04-24T08:09:58Z</time>
      </trkpt>
      <trkpt lat="43.72211" lon="3.25641">
        <ele>566.35</ele>
        <time>2016-04-24T08:09:59Z</time>
      </trkpt>
      <trkpt lat="43.72233" lon="3.25644">
        <ele>568.28</ele>
        <time>2016-04-24T08:10:00Z</time>
      </trkpt>
      <trkpt lat="43.72272" lon="3.25645">
        <ele>570.68</ele>
        <time>2016-04-24T08:10:02Z</time>
      </trkpt>
      <trkpt lat="43.72291" lon="3.25637">
        <ele>572.12</ele>
        <time>2016-04-24T08:10:03Z</time>
      </trkpt>
      <trkpt lat="43.7231" lon="3.25623">
        <ele>573.08</ele>
        <time>2016-04-24T08:10:04Z</time>
      </trkpt>
      <trkpt lat="43.72329" lon="3.25608">
        <ele>574.53</ele>
        <time>2016-04-24T08:10:05Z</time>
      </trkpt>
      <trkpt lat="43.72346" lon="3.25592">
        <ele>576.45</ele>
        <time>2016-04-24T08:10:06Z</time>
      </trkpt>
      <trkpt lat="43.72365" lon="3.25581">
        <ele>577.89</ele>
        <time>2016-04-24T08:10:07Z</time>
      </trkpt>
      <trkpt lat="43.72385" lon="3.25576">
        <ele>579.33</ele>
        <time>2016-04-24T08:10:08Z</time>
      </trkpt>
      <trkpt lat="43.72406" lon="3.25579">
        <ele>580.77</ele>
        <time>2016-04-24T08:10:09Z</time>
      </trkpt>
      <trkpt lat="43.72425" lon="3.25585">
        <ele>581.73</ele>
        <time>2016-04-24T08:10:10Z</time>
      </trkpt>
      <trkpt lat="43.72442" lon="3.25589">
        <ele>583.66</ele>
        <time>2016-04-24T08:10:11Z</time>
      </trkpt>
      <trkpt lat="43.72459" lon="3.25589">
        <ele>585.1</ele>
        <time>2016-04-24T08:10:12Z</time>
      </trkpt>
      <trkpt lat="43.72477" lon="3.2558">
        <ele>586.54</ele>
        <time>2016-04-24T08:10:13Z</time>
      </trkpt>
      <trkpt lat="43.72495" lon="3.25565">
        <ele>587.98</ele>
        <time>2016-04-24T08:10:14Z</time>
      </trkpt>
      <trkpt lat="43.72511" lon="3.25544">
        <ele>590.39</ele>
        <time>2016-04-24T08:10:15Z</time>
      </trkpt>
      <trkpt lat="43.72529" lon="3.25522">
        <ele>592.31</ele>
        <time>2016-04-24T08:10:16Z</time>
      </trkpt>
      <trkpt lat="43.72609" lon="3.25436">
        <ele>601.44</ele>
        <time>2016-04-24T08:10:20Z</time>
      </trkpt>
      <trkpt lat="43.72629" lon="3.25423">
        <ele>603.36</ele>
        <time>2016-04-24T08:10:21Z</time>
      </trkpt>
      <trkpt lat="43.7265" lon="3.25414">
        <ele>605.77</ele>
        <time>2016-04-24T08:10:22Z</time>
      </trkpt>
      <trkpt lat="43.72669" lon="3.25408">
        <ele>607.69</ele>
        <time>2016-04-24T08:10:23Z</time>
      </trkpt>
      <trkpt lat="43.72687" lon="3.25402">
        <ele>609.61</ele>
        <time>2016-04-24T08:10:24Z</time>
      </trkpt>
      <trkpt lat="43.72702" lon="3.25395">
        <ele>612.02</ele>
        <time>2016-04-24T08:10:25Z</time>
      </trkpt>
      <trkpt lat="43.72713" lon="3.25385">
        <ele>613.46</ele>
        <time>2016-04-24T08:10:26Z</time>
      </trkpt>
      <trkpt lat="43.72721" lon="3.25375">
        <ele>615.38</ele>
        <time>2016-04-24T08:10:27Z</time>
      </trkpt>
      <trkpt lat="43.72726" lon="3.25365">
        <ele>617.3</ele>
        <time>2016-04-24T08:10:28Z</time>
      </trkpt>
      <trkpt lat="43.72724" lon="3.25356">
        <ele>616.34</ele>
        <time>2016-04-24T08:10:29Z</time>
      </trkpt>
      <trkpt lat="43.72722" lon="3.25347">
        <ele>616.82</ele>
        <time>2016-04-24T08:10:30Z</time>
      </trkpt>
      <trkpt lat="43.72719" lon="3.25339">
        <ele>616.82</ele>
        <time>2016-04-24T08:10:31Z</time>
      </trkpt>
      <trkpt lat="43.72716" lon="3.25333">
        <ele>616.82</ele>
        <time>2016-04-24T08:10:32Z</time>
      </trkpt>
      <trkpt lat="43.72713" lon="3.25331">
        <ele>616.34</ele>
        <time>2016-04-24T08:10:33Z</time>
      </trkpt>
      <trkpt lat="43.72709" lon="3.2533">
        <ele>615.86</ele>
        <time>2016-04-24T08:10:34Z</time>
      </trkpt>
      <trkpt lat="43.72707" lon="3.25329">
        <ele>615.86</ele>
        <time>2016-04-24T08:10:35Z</time>
      </trkpt>
      <trkpt lat="43.72704" lon="3.25328">
        <ele>615.38</ele>
        <time>2016-04-24T08:10:36Z</time>
      </trkpt>
      <trkpt lat="43.72703" lon="3.25327">
        <ele>615.38</ele>
        <time>2016-04-24T08:10:37Z</time>
      </trkpt>
      <trkpt lat="43.72702" lon="3.2533">
        <ele>614.9</ele>
        <time>2016-04-24T08:10:58Z</time>
      </trkpt>
      <trkpt lat="43.727" lon="3.2533">
        <ele>614.9</ele>
        <time>2016-04-24T08:11:00Z</time>
      </trkpt>
      <trkpt lat="43.727" lon="3.25342">
        <ele>614.9</ele>
        <time>2016-04-24T08:11:03Z</time>
      </trkpt>
      <trkpt lat="43.72704" lon="3.25347">
        <ele>614.9</ele>
        <time>2016-04-24T08:11:04Z</time>
      </trkpt>
      <trkpt lat="43.72709" lon="3.25351">
        <ele>614.9</ele>
        <time>2016-04-24T08:11:05Z</time>
      </trkpt>
      <trkpt lat="43.72714" lon="3.25354">
        <ele>615.38</ele>
        <time>2016-04-24T08:11:06Z</time>
      </trkpt>
      <trkpt lat="43.72722" lon="3.25353">
        <ele>615.38</ele>
        <time>2016-04-24T08:11:07Z</time>
      </trkpt>
      <trkpt lat="43.72732" lon="3.25347">
        <ele>615.86</ele>
        <time>2016-04-24T08:11:08Z</time>
      </trkpt>
      <trkpt lat="43.72742" lon="3.25338">
        <ele>616.82</ele>
        <time>2016-04-24T08:11:09Z</time>
      </trkpt>
      <trkpt lat="43.72752" lon="3.25328">
        <ele>617.78</ele>
        <time>2016-04-24T08:11:10Z</time>
      </trkpt>
      <trkpt lat="43.72848" lon="3.25257">
        <ele>626.44</ele>
        <time>2016-04-24T08:11:16Z</time>
      </trkpt>
      <trkpt lat="43.72991" lon="3.25166">
        <ele>639.89</ele>
        <time>2016-04-24T08:11:23Z</time>
      </trkpt>
      <trkpt lat="43.73029" lon="3.25148">
        <ele>642.78</ele>
        <time>2016-04-24T08:11:25Z</time>
      </trkpt>
      <trkpt lat="43.73046" lon="3.25135">
        <ele>644.7</ele>
        <time>2016-04-24T08:11:26Z</time>
      </trkpt>
      <trkpt lat="43.73061" lon="3.25119">
        <ele>646.62</ele>
        <time>2016-04-24T08:11:27Z</time>
      </trkpt>
      <trkpt lat="43.73106" lon="3.25071">
        <ele>650.95</ele>
        <time>2016-04-24T08:11:30Z</time>
      </trkpt>
      <trkpt lat="43.73123" lon="3.2506">
        <ele>652.39</ele>
        <time>2016-04-24T08:11:31Z</time>
      </trkpt>
      <trkpt lat="43.73141" lon="3.25052">
        <ele>654.31</ele>
        <time>2016-04-24T08:11:32Z</time>
      </trkpt>
      <trkpt lat="43.7316" lon="3.25047">
        <ele>655.76</ele>
        <time>2016-04-24T08:11:33Z</time>
      </trkpt>
      <trkpt lat="43.73179" lon="3.25044">
        <ele>657.68</ele>
        <time>2016-04-24T08:11:34Z</time>
      </trkpt>
      <trkpt lat="43.73197" lon="3.25041">
        <ele>659.12</ele>
        <time>2016-04-24T08:11:35Z</time>
      </trkpt>
      <trkpt lat="43.73231" lon="3.2503">
        <ele>662.01</ele>
        <time>2016-04-24T08:11:37Z</time>
      </trkpt>
      <trkpt lat="43.73244" lon="3.25021">
        <ele>663.45</ele>
        <time>2016-04-24T08:11:38Z</time>
      </trkpt>
      <trkpt lat="43.73257" lon="3.25009">
        <ele>664.41</ele>
        <time>2016-04-24T08:11:39Z</time>
      </trkpt>
      <trkpt lat="43.73281" lon="3.24984">
        <ele>667.29</ele>
        <time>2016-04-24T08:11:41Z</time>
      </trkpt>
      <trkpt lat="43.73294" lon="3.24974">
        <ele>668.25</ele>
        <time>2016-04-24T08:11:42Z</time>
      </trkpt>
      <trkpt lat="43.73308" lon="3.24967">
        <ele>669.22</ele>
        <time>2016-04-24T08:11:43Z</time>
      </trkpt>
      <trkpt lat="43.73323" lon="3.24963">
        <ele>670.66</ele>
        <time>2016-04-24T08:11:44Z</time>
      </trkpt>
      <trkpt lat="43.7334" lon="3.24962">
        <ele>672.1</ele>
        <time>2016-04-24T08:11:45Z</time>
      </trkpt>
      <trkpt lat="43.73357" lon="3.24963">
        <ele>673.54</ele>
        <time>2016-04-24T08:11:46Z</time>
      </trkpt>
      <trkpt lat="43.73375" lon="3.24969">
        <ele>674.98</ele>
        <time>2016-04-24T08:11:47Z</time>
      </trkpt>
      <trkpt lat="43.73394" lon="3.24978">
        <ele>676.42</ele>
        <time>2016-04-24T08:11:48Z</time>
      </trkpt>
      <trkpt lat="43.73414" lon="3.24988">
        <ele>677.87</ele>
        <time>2016-04-24T08:11:49Z</time>
      </trkpt>
      <trkpt lat="43.73435" lon="3.24997">
        <ele>679.31</ele>
        <time>2016-04-24T08:11:50Z</time>
      </trkpt>
      <trkpt lat="43.73455" lon="3.25002">
        <ele>681.23</ele>
        <time>2016-04-24T08:11:51Z</time>
      </trkpt>
      <trkpt lat="43.73475" lon="3.25004">
        <ele>682.67</ele>
        <time>2016-04-24T08:11:52Z</time>
      </trkpt>
      <trkpt lat="43.73495" lon="3.25003">
        <ele>684.6</ele>
        <time>2016-04-24T08:11:53Z</time>
      </trkpt>
      <trkpt lat="43.73513" lon="3.24999">
        <ele>686.04</ele>
        <time>2016-04-24T08:11:54Z</time>
      </trkpt>
      <trkpt lat="43.73532" lon="3.24995">
        <ele>687.48</ele>
        <time>2016-04-24T08:11:55Z</time>
      </trkpt>
      <trkpt lat="43.73666" lon="3.24995">
        <ele>698.05</ele>
        <time>2016-04-24T08:12:01Z</time>
      </trkpt>
      <trkpt lat="43.73742" lon="3.25007">
        <ele>704.3</ele>
        <time>2016-04-24T08:12:04Z</time>
      </trkpt>
      <trkpt lat="43.73764" lon="3.25004">
        <ele>706.23</ele>
        <time>2016-04-24T08:12:05Z</time>
      </trkpt>
      <trkpt lat="43.73785" lon="3.24998">
        <ele>707.67</ele>
        <time>2016-04-24T08:12:06Z</time>
      </trkpt>
      <trkpt lat="43.73825" lon="3.24989">
        <ele>711.03</ele>
        <time>2016-04-24T08:12:08Z</time>
      </trkpt>
      <trkpt lat="43.73845" lon="3.24993">
        <ele>712.47</ele>
        <time>2016-04-24T08:12:09Z</time>
      </trkpt>
      <trkpt lat="43.73865" lon="3.25001">
        <ele>713.92</ele>
        <time>2016-04-24T08:12:10Z</time>
      </trkpt>
      <trkpt lat="43.73943" lon="3.25034">
        <ele>719.68</ele>
        <time>2016-04-24T08:12:14Z</time>
      </trkpt>
      <trkpt lat="43.73959" lon="3.25033">
        <ele>721.13</ele>
        <time>2016-04-24T08:12:15Z</time>
      </trkpt>
      <trkpt lat="43.73975" lon="3.25028">
        <ele>722.09</ele>
        <time>2016-04-24T08:12:16Z</time>
      </trkpt>
      <trkpt lat="43.7399" lon="3.2502">
        <ele>723.05</ele>
        <time>2016-04-24T08:12:17Z</time>
      </trkpt>
      <trkpt lat="43.74004" lon="3.25009">
        <ele>724.49</ele>
        <time>2016-04-24T08:12:18Z</time>
      </trkpt>
      <trkpt lat="43.74015" lon="3.24993">
        <ele>724.97</ele>
        <time>2016-04-24T08:12:19Z</time>
      </trkpt>
      <trkpt lat="43.74023" lon="3.24972">
        <ele>725.93</ele>
        <time>2016-04-24T08:12:20Z</time>
      </trkpt>
      <trkpt lat="43.74028" lon="3.24949">
        <ele>726.89</ele>
        <time>2016-04-24T08:12:21Z</time>
      </trkpt>
      <trkpt lat="43.7403" lon="3.24926">
        <ele>728.34</ele>
        <time>2016-04-24T08:12:22Z</time>
      </trkpt>
      <trkpt lat="43.7403" lon="3.24901">
        <ele>729.3</ele>
        <time>2016-04-24T08:12:23Z</time>
      </trkpt>
      <trkpt lat="43.74029" lon="3.24878">
        <ele>730.26</ele>
        <time>2016-04-24T08:12:24Z</time>
      </trkpt>
      <trkpt lat="43.74031" lon="3.24833">
        <ele>731.7</ele>
        <time>2016-04-24T08:12:26Z</time>
      </trkpt>
      <trkpt lat="43.74037" lon="3.24814">
        <ele>732.66</ele>
        <time>2016-04-24T08:12:27Z</time>
      </trkpt>
      <trkpt lat="43.74047" lon="3.248">
        <ele>733.62</ele>
        <time>2016-04-24T08:12:28Z</time>
      </trkpt>
      <trkpt lat="43.7406" lon="3.24792">
        <ele>734.58</ele>
        <time>2016-04-24T08:12:29Z</time>
      </trkpt>
      <trkpt lat="43.74076" lon="3.2479">
        <ele>735.55</ele>
        <time>2016-04-24T08:12:30Z</time>
      </trkpt>
      <trkpt lat="43.74093" lon="3.24791">
        <ele>736.03</ele>
        <time>2016-04-24T08:12:31Z</time>
      </trkpt>
      <trkpt lat="43.74112" lon="3.24794">
        <ele>737.47</ele>
        <time>2016-04-24T08:12:32Z</time>
      </trkpt>
      <trkpt lat="43.74132" lon="3.248">
        <ele>738.43</ele>
        <time>2016-04-24T08:12:33Z</time>
      </trkpt>
      <trkpt lat="43.74152" lon="3.24814">
        <ele>739.39</ele>
        <time>2016-04-24T08:12:34Z</time>
      </trkpt>
      <trkpt lat="43.7417" lon="3.24832">
        <ele>740.35</ele>
        <time>2016-04-24T08:12:35Z</time>
      </trkpt>
      <trkpt lat="43.74186" lon="3.24854">
        <ele>741.31</ele>
        <time>2016-04-24T08:12:36Z</time>
      </trkpt>
      <trkpt lat="43.74199" lon="3.24879">
        <ele>742.76</ele>
        <time>2016-04-24T08:12:37Z</time>
      </trkpt>
      <trkpt lat="43.7421" lon="3.24907">
        <ele>743.72</ele>
        <time>2016-04-24T08:12:38Z</time>
      </trkpt>
      <trkpt lat="43.74221" lon="3.24934">
        <ele>744.2</ele>
        <time>2016-04-24T08:12:39Z</time>
      </trkpt>
      <trkpt lat="43.74247" lon="3.24985">
        <ele>745.64</ele>
        <time>2016-04-24T08:12:41Z</time>
      </trkpt>
      <trkpt lat="43.74265" lon="3.25006">
        <ele>746.12</ele>
        <time>2016-04-24T08:12:42Z</time>
      </trkpt>
      <trkpt lat="43.74284" lon="3.25022">
        <ele>747.08</ele>
        <time>2016-04-24T08:12:43Z</time>
      </trkpt>
      <trkpt lat="43.74304" lon="3.25035">
        <ele>747.56</ele>
        <time>2016-04-24T08:12:44Z</time>
      </trkpt>
      <trkpt lat="43.74324" lon="3.25047">
        <ele>748.04</ele>
        <time>2016-04-24T08:12:45Z</time>
      </trkpt>
      <trkpt lat="43.74344" lon="3.25057">
        <ele>748.04</ele>
        <time>2016-04-24T08:12:46Z</time>
      </trkpt>
      <trkpt lat="43.74403" lon="3.25084">
        <ele>749</ele>
        <time>2016-04-24T08:12:49Z</time>
      </trkpt>
      <trkpt lat="43.74422" lon="3.25086">
        <ele>749</ele>
        <time>2016-04-24T08:12:50Z</time>
      </trkpt>
      <trkpt lat="43.74441" lon="3.25084">
        <ele>749</ele>
        <time>2016-04-24T08:12:51Z</time>
      </trkpt>
      <trkpt lat="43.74461" lon="3.2508">
        <ele>749</ele>
        <time>2016-04-24T08:12:52Z</time>
      </trkpt>
      <trkpt lat="43.7448" lon="3.25074">
        <ele>749</ele>
        <time>2016-04-24T08:12:53Z</time>
      </trkpt>
      <trkpt lat="43.74499" lon="3.25066">
        <ele>749</ele>
        <time>2016-04-24T08:12:54Z</time>
      </trkpt>
      <trkpt lat="43.74515" lon="3.25055">
        <ele>749</ele>
        <time>2016-04-24T08:12:55Z</time>
      </trkpt>
      <trkpt lat="43.7453" lon="3.25039">
        <ele>749</ele>
        <time>2016-04-24T08:12:56Z</time>
      </trkpt>
      <trkpt lat="43.74542" lon="3.25017">
        <ele>748.52</ele>
        <time>2016-04-24T08:12:57Z</time>
      </trkpt>
      <trkpt lat="43.74552" lon="3.24993">
        <ele>749</ele>
        <time>2016-04-24T08:12:58Z</time>
      </trkpt>
      <trkpt lat="43.74559" lon="3.24966">
        <ele>749</ele>
        <time>2016-04-24T08:12:59Z</time>
      </trkpt>
      <trkpt lat="43.74564" lon="3.24938">
        <ele>749</ele>
        <time>2016-04-24T08:13:00Z</time>
      </trkpt>
      <trkpt lat="43.74563" lon="3.24911">
        <ele>749</ele>
        <time>2016-04-24T08:13:01Z</time>
      </trkpt>
      <trkpt lat="43.74561" lon="3.24884">
        <ele>749</ele>
        <time>2016-04-24T08:13:02Z</time>
      </trkpt>
      <trkpt lat="43.74559" lon="3.24856">
        <ele>749.49</ele>
        <time>2016-04-24T08:13:03Z</time>
      </trkpt>
      <trkpt lat="43.74559" lon="3.24827">
        <ele>749.97</ele>
        <time>2016-04-24T08:13:04Z</time>
      </trkpt>
      <trkpt lat="43.74562" lon="3.24798">
        <ele>749.97</ele>
        <time>2016-04-24T08:13:05Z</time>
      </trkpt>
      <trkpt lat="43.74566" lon="3.2477">
        <ele>750.45</ele>
        <time>2016-04-24T08:13:06Z</time>
      </trkpt>
      <trkpt lat="43.74588" lon="3.24643">
        <ele>750.93</ele>
        <time>2016-04-24T08:13:11Z</time>
      </trkpt>
      <trkpt lat="43.74594" lon="3.24627">
        <ele>750.93</ele>
        <time>2016-04-24T08:13:12Z</time>
      </trkpt>
      <trkpt lat="43.74605" lon="3.24614">
        <ele>750.93</ele>
        <time>2016-04-24T08:13:13Z</time>
      </trkpt>
      <trkpt lat="43.74618" lon="3.24606">
        <ele>750.93</ele>
        <time>2016-04-24T08:13:14Z</time>
      </trkpt>
      <trkpt lat="43.74632" lon="3.24603">
        <ele>750.93</ele>
        <time>2016-04-24T08:13:15Z</time>
      </trkpt>
      <trkpt lat="43.7465" lon="3.24604">
        <ele>750.93</ele>
        <time>2016-04-24T08:13:16Z</time>
      </trkpt>
      <trkpt lat="43.7467" lon="3.24611">
        <ele>750.93</ele>
        <time>2016-04-24T08:13:17Z</time>
      </trkpt>
      <trkpt lat="43.7469" lon="3.24618">
        <ele>750.93</ele>
        <time>2016-04-24T08:13:18Z</time>
      </trkpt>
      <trkpt lat="43.74711" lon="3.24625">
        <ele>750.45</ele>
        <time>2016-04-24T08:13:19Z</time>
      </trkpt>
      <trkpt lat="43.74731" lon="3.2463">
        <ele>749.97</ele>
        <time>2016-04-24T08:13:20Z</time>
      </trkpt>
      <trkpt lat="43.74752" lon="3.24631">
        <ele>749.49</ele>
        <time>2016-04-24T08:13:21Z</time>
      </trkpt>
      <trkpt lat="43.74772" lon="3.24628">
        <ele>749.49</ele>
        <time>2016-04-24T08:13:22Z</time>
      </trkpt>
      <trkpt lat="43.74791" lon="3.24623">
        <ele>749</ele>
        <time>2016-04-24T08:13:23Z</time>
      </trkpt>
      <trkpt lat="43.74811" lon="3.24617">
        <ele>748.52</ele>
        <time>2016-04-24T08:13:24Z</time>
      </trkpt>
      <trkpt lat="43.74846" lon="3.24608">
        <ele>748.04</ele>
        <time>2016-04-24T08:13:26Z</time>
      </trkpt>
      <trkpt lat="43.74863" lon="3.24609">
        <ele>747.56</ele>
        <time>2016-04-24T08:13:27Z</time>
      </trkpt>
      <trkpt lat="43.74879" lon="3.24617">
        <ele>747.08</ele>
        <time>2016-04-24T08:13:28Z</time>
      </trkpt>
      <trkpt lat="43.74893" lon="3.2463">
        <ele>746.6</ele>
        <time>2016-04-24T08:13:29Z</time>
      </trkpt>
      <trkpt lat="43.74907" lon="3.24646">
        <ele>746.12</ele>
        <time>2016-04-24T08:13:30Z</time>
      </trkpt>
      <trkpt lat="43.74922" lon="3.24661">
        <ele>746.12</ele>
        <time>2016-04-24T08:13:31Z</time>
      </trkpt>
      <trkpt lat="43.74989" lon="3.24714">
        <ele>745.16</ele>
        <time>2016-04-24T08:13:35Z</time>
      </trkpt>
      <trkpt lat="43.75008" lon="3.24722">
        <ele>744.68</ele>
        <time>2016-04-24T08:13:36Z</time>
      </trkpt>
      <trkpt lat="43.75029" lon="3.24725">
        <ele>744.2</ele>
        <time>2016-04-24T08:13:37Z</time>
      </trkpt>
      <trkpt lat="43.7505" lon="3.24726">
        <ele>743.72</ele>
        <time>2016-04-24T08:13:38Z</time>
      </trkpt>
      <trkpt lat="43.75071" lon="3.24723">
        <ele>743.24</ele>
        <time>2016-04-24T08:13:39Z</time>
      </trkpt>
      <trkpt lat="43.75092" lon="3.24718">
        <ele>742.28</ele>
        <time>2016-04-24T08:13:40Z</time>
      </trkpt>
      <trkpt lat="43.75112" lon="3.24709">
        <ele>741.79</ele>
        <time>2016-04-24T08:13:41Z</time>
      </trkpt>
      <trkpt lat="43.75131" lon="3.24699">
        <ele>741.31</ele>
        <time>2016-04-24T08:13:42Z</time>
      </trkpt>
      <trkpt lat="43.7515" lon="3.24688">
        <ele>740.83</ele>
        <time>2016-04-24T08:13:43Z</time>
      </trkpt>
      <trkpt lat="43.75274" lon="3.24666">
        <ele>739.87</ele>
        <time>2016-04-24T08:13:49Z</time>
      </trkpt>
      <trkpt lat="43.75315" lon="3.24657">
        <ele>739.87</ele>
        <time>2016-04-24T08:13:51Z</time>
      </trkpt>
      <trkpt lat="43.75335" lon="3.24648">
        <ele>739.87</ele>
        <time>2016-04-24T08:13:52Z</time>
      </trkpt>
      <trkpt lat="43.75355" lon="3.24638">
        <ele>739.87</ele>
        <time>2016-04-24T08:13:53Z</time>
      </trkpt>
      <trkpt lat="43.75438" lon="3.24577">
        <ele>740.35</ele>
        <time>2016-04-24T08:13:58Z</time>
      </trkpt>
      <trkpt lat="43.75451" lon="3.2456">
        <ele>740.35</ele>
        <time>2016-04-24T08:13:59Z</time>
      </trkpt>
      <trkpt lat="43.75463" lon="3.2454">
        <ele>740.83</ele>
        <time>2016-04-24T08:14:00Z</time>
      </trkpt>
      <trkpt lat="43.75473" lon="3.24519">
        <ele>741.31</ele>
        <time>2016-04-24T08:14:01Z</time>
      </trkpt>
      <trkpt lat="43.75484" lon="3.24497">
        <ele>741.31</ele>
        <time>2016-04-24T08:14:02Z</time>
      </trkpt>
      <trkpt lat="43.75506" lon="3.24459">
        <ele>741.79</ele>
        <time>2016-04-24T08:14:04Z</time>
      </trkpt>
      <trkpt lat="43.75519" lon="3.24445">
        <ele>742.28</ele>
        <time>2016-04-24T08:14:05Z</time>
      </trkpt>
      <trkpt lat="43.75533" lon="3.24435">
        <ele>742.28</ele>
        <time>2016-04-24T08:14:06Z</time>
      </trkpt>
      <trkpt lat="43.75549" lon="3.24428">
        <ele>742.28</ele>
        <time>2016-04-24T08:14:07Z</time>
      </trkpt>
      <trkpt lat="43.75567" lon="3.24424">
        <ele>742.76</ele>
        <time>2016-04-24T08:14:08Z</time>
      </trkpt>
      <trkpt lat="43.75586" lon="3.24422">
        <ele>743.24</ele>
        <time>2016-04-24T08:14:09Z</time>
      </trkpt>
      <trkpt lat="43.75639" lon="3.2441">
        <ele>744.68</ele>
        <time>2016-04-24T08:14:12Z</time>
      </trkpt>
      <trkpt lat="43.75654" lon="3.24398">
        <ele>745.16</ele>
        <time>2016-04-24T08:14:13Z</time>
      </trkpt>
      <trkpt lat="43.75666" lon="3.24382">
        <ele>745.64</ele>
        <time>2016-04-24T08:14:14Z</time>
      </trkpt>
      <trkpt lat="43.75676" lon="3.24359">
        <ele>746.6</ele>
        <time>2016-04-24T08:14:15Z</time>
      </trkpt>
      <trkpt lat="43.75686" lon="3.24336">
        <ele>748.04</ele>
        <time>2016-04-24T08:14:16Z</time>
      </trkpt>
      <trkpt lat="43.75694" lon="3.24312">
        <ele>749.49</ele>
        <time>2016-04-24T08:14:17Z</time>
      </trkpt>
      <trkpt lat="43.75699" lon="3.24289">
        <ele>750.93</ele>
        <time>2016-04-24T08:14:18Z</time>
      </trkpt>
      <trkpt lat="43.75703" lon="3.24266">
        <ele>752.37</ele>
        <time>2016-04-24T08:14:19Z</time>
      </trkpt>
      <trkpt lat="43.75703" lon="3.24242">
        <ele>753.33</ele>
        <time>2016-04-24T08:14:20Z</time>
      </trkpt>
      <trkpt lat="43.75702" lon="3.24217">
        <ele>754.29</ele>
        <time>2016-04-24T08:14:21Z</time>
      </trkpt>
      <trkpt lat="43.75698" lon="3.24191">
        <ele>756.21</ele>
        <time>2016-04-24T08:14:22Z</time>
      </trkpt>
      <trkpt lat="43.75694" lon="3.24164">
        <ele>758.14</ele>
        <time>2016-04-24T08:14:23Z</time>
      </trkpt>
      <trkpt lat="43.75687" lon="3.24077">
        <ele>764.39</ele>
        <time>2016-04-24T08:14:27Z</time>
      </trkpt>
      <trkpt lat="43.75691" lon="3.24065">
        <ele>765.83</ele>
        <time>2016-04-24T08:14:28Z</time>
      </trkpt>
      <trkpt lat="43.757" lon="3.24057">
        <ele>767.27</ele>
        <time>2016-04-24T08:14:29Z</time>
      </trkpt>
      <trkpt lat="43.75709" lon="3.24054">
        <ele>768.23</ele>
        <time>2016-04-24T08:14:30Z</time>
      </trkpt>
      <trkpt lat="43.75719" lon="3.24057">
        <ele>769.67</ele>
        <time>2016-04-24T08:14:31Z</time>
      </trkpt>
      <trkpt lat="43.7573" lon="3.24066">
        <ele>770.63</ele>
        <time>2016-04-24T08:14:32Z</time>
      </trkpt>
      <trkpt lat="43.75743" lon="3.24077">
        <ele>772.08</ele>
        <time>2016-04-24T08:14:33Z</time>
      </trkpt>
      <trkpt lat="43.75757" lon="3.24088">
        <ele>773.04</ele>
        <time>2016-04-24T08:14:34Z</time>
      </trkpt>
      <trkpt lat="43.75772" lon="3.24098">
        <ele>774.48</ele>
        <time>2016-04-24T08:14:35Z</time>
      </trkpt>
      <trkpt lat="43.75861" lon="3.2416">
        <ele>782.65</ele>
        <time>2016-04-24T08:14:40Z</time>
      </trkpt>
      <trkpt lat="43.7588" lon="3.24166">
        <ele>784.09</ele>
        <time>2016-04-24T08:14:41Z</time>
      </trkpt>
      <trkpt lat="43.75899" lon="3.24167">
        <ele>785.05</ele>
        <time>2016-04-24T08:14:42Z</time>
      </trkpt>
      <trkpt lat="43.75918" lon="3.24164">
        <ele>786.5</ele>
        <time>2016-04-24T08:14:43Z</time>
      </trkpt>
      <trkpt lat="43.75936" lon="3.24157">
        <ele>787.46</ele>
        <time>2016-04-24T08:14:44Z</time>
      </trkpt>
      <trkpt lat="43.75955" lon="3.24144">
        <ele>788.42</ele>
        <time>2016-04-24T08:14:45Z</time>
      </trkpt>
      <trkpt lat="43.75976" lon="3.24128">
        <ele>789.38</ele>
        <time>2016-04-24T08:14:46Z</time>
      </trkpt>
      <trkpt lat="43.75997" lon="3.24109">
        <ele>790.34</ele>
        <time>2016-04-24T08:14:47Z</time>
      </trkpt>
      <trkpt lat="43.76017" lon="3.24089">
        <ele>791.3</ele>
        <time>2016-04-24T08:14:48Z</time>
      </trkpt>
      <trkpt lat="43.76092" lon="3.24012">
        <ele>794.19</ele>
        <time>2016-04-24T08:14:52Z</time>
      </trkpt>
      <trkpt lat="43.76107" lon="3.23989">
        <ele>794.67</ele>
        <time>2016-04-24T08:14:53Z</time>
      </trkpt>
      <trkpt lat="43.76121" lon="3.23964">
        <ele>795.63</ele>
        <time>2016-04-24T08:14:54Z</time>
      </trkpt>
      <trkpt lat="43.76133" lon="3.23936">
        <ele>796.11</ele>
        <time>2016-04-24T08:14:55Z</time>
      </trkpt>
      <trkpt lat="43.76142" lon="3.23906">
        <ele>797.07</ele>
        <time>2016-04-24T08:14:56Z</time>
      </trkpt>
      <trkpt lat="43.76148" lon="3.23875">
        <ele>797.55</ele>
        <time>2016-04-24T08:14:57Z</time>
      </trkpt>
      <trkpt lat="43.76153" lon="3.23845">
        <ele>798.03</ele>
        <time>2016-04-24T08:14:58Z</time>
      </trkpt>
      <trkpt lat="43.7617" lon="3.23748">
        <ele>799.47</ele>
        <time>2016-04-24T08:15:02Z</time>
      </trkpt>
      <trkpt lat="43.76177" lon="3.23729">
        <ele>798.99</ele>
        <time>2016-04-24T08:15:03Z</time>
      </trkpt>
      <trkpt lat="43.76185" lon="3.23712">
        <ele>798.99</ele>
        <time>2016-04-24T08:15:04Z</time>
      </trkpt>
      <trkpt lat="43.7621" lon="3.2365">
        <ele>795.15</ele>
        <time>2016-04-24T08:15:10Z</time>
      </trkpt>
      <trkpt lat="43.76211" lon="3.23641">
        <ele>794.67</ele>
        <time>2016-04-24T08:15:11Z</time>
      </trkpt>
      <trkpt lat="43.7622" lon="3.23562">
        <ele>789.86</ele>
        <time>2016-04-24T08:15:16Z</time>
      </trkpt>
      <trkpt lat="43.7622" lon="3.2354">
        <ele>788.9</ele>
        <time>2016-04-24T08:15:17Z</time>
      </trkpt>
      <trkpt lat="43.76218" lon="3.23518">
        <ele>787.94</ele>
        <time>2016-04-24T08:15:18Z</time>
      </trkpt>
      <trkpt lat="43.76214" lon="3.23495">
        <ele>786.5</ele>
        <time>2016-04-24T08:15:19Z</time>
      </trkpt>
      <trkpt lat="43.7621" lon="3.23472">
        <ele>785.53</ele>
        <time>2016-04-24T08:15:20Z</time>
      </trkpt>
      <trkpt lat="43.76203" lon="3.23413">
        <ele>782.65</ele>
        <time>2016-04-24T08:15:23Z</time>
      </trkpt>
      <trkpt lat="43.76208" lon="3.234">
        <ele>781.69</ele>
        <time>2016-04-24T08:15:24Z</time>
      </trkpt>
      <trkpt lat="43.76215" lon="3.23389">
        <ele>781.21</ele>
        <time>2016-04-24T08:15:25Z</time>
      </trkpt>
      <trkpt lat="43.76224" lon="3.23381">
        <ele>780.25</ele>
        <time>2016-04-24T08:15:26Z</time>
      </trkpt>
      <trkpt lat="43.76235" lon="3.23381">
        <ele>779.29</ele>
        <time>2016-04-24T08:15:27Z</time>
      </trkpt>
      <trkpt lat="43.76246" lon="3.23381">
        <ele>778.32</ele>
        <time>2016-04-24T08:15:28Z</time>
      </trkpt>
      <trkpt lat="43.76256" lon="3.23386">
        <ele>776.88</ele>
        <time>2016-04-24T08:15:29Z</time>
      </trkpt>
      <trkpt lat="43.76266" lon="3.23393">
        <ele>775.44</ele>
        <time>2016-04-24T08:15:30Z</time>
      </trkpt>
      <trkpt lat="43.76277" lon="3.23402">
        <ele>774.96</ele>
        <time>2016-04-24T08:15:31Z</time>
      </trkpt>
      <trkpt lat="43.76339" lon="3.23447">
        <ele>771.11</ele>
        <time>2016-04-24T08:15:37Z</time>
      </trkpt>
      <trkpt lat="43.76351" lon="3.2345">
        <ele>770.15</ele>
        <time>2016-04-24T08:15:38Z</time>
      </trkpt>
      <trkpt lat="43.76364" lon="3.23448">
        <ele>768.71</ele>
        <time>2016-04-24T08:15:39Z</time>
      </trkpt>
      <trkpt lat="43.76378" lon="3.23445">
        <ele>767.75</ele>
        <time>2016-04-24T08:15:40Z</time>
      </trkpt>
      <trkpt lat="43.76392" lon="3.23443">
        <ele>766.31</ele>
        <time>2016-04-24T08:15:41Z</time>
      </trkpt>
      <trkpt lat="43.76409" lon="3.23443">
        <ele>764.87</ele>
        <time>2016-04-24T08:15:42Z</time>
      </trkpt>
      <trkpt lat="43.76424" lon="3.23447">
        <ele>763.42</ele>
        <time>2016-04-24T08:15:43Z</time>
      </trkpt>
      <trkpt lat="43.76439" lon="3.23451">
        <ele>761.98</ele>
        <time>2016-04-24T08:15:44Z</time>
      </trkpt>
      <trkpt lat="43.76566" lon="3.23454">
        <ele>752.85</ele>
        <time>2016-04-24T08:15:52Z</time>
      </trkpt>
      <trkpt lat="43.76702" lon="3.23417">
        <ele>744.2</ele>
        <time>2016-04-24T08:16:00Z</time>
      </trkpt>
      <trkpt lat="43.76732" lon="3.23416">
        <ele>741.31</ele>
        <time>2016-04-24T08:16:02Z</time>
      </trkpt>
      <trkpt lat="43.76747" lon="3.23412">
        <ele>740.35</ele>
        <time>2016-04-24T08:16:03Z</time>
      </trkpt>
      <trkpt lat="43.7676" lon="3.23407">
        <ele>739.39</ele>
        <time>2016-04-24T08:16:04Z</time>
      </trkpt>
      <trkpt lat="43.76773" lon="3.23403">
        <ele>737.95</ele>
        <time>2016-04-24T08:16:05Z</time>
      </trkpt>
      <trkpt lat="43.76786" lon="3.23404">
        <ele>736.51</ele>
        <time>2016-04-24T08:16:06Z</time>
      </trkpt>
      <trkpt lat="43.76798" lon="3.23408">
        <ele>735.07</ele>
        <time>2016-04-24T08:16:07Z</time>
      </trkpt>
      <trkpt lat="43.76812" lon="3.23415">
        <ele>734.1</ele>
        <time>2016-04-24T08:16:08Z</time>
      </trkpt>
      <trkpt lat="43.76826" lon="3.23421">
        <ele>733.14</ele>
        <time>2016-04-24T08:16:09Z</time>
      </trkpt>
      <trkpt lat="43.76852" lon="3.23429">
        <ele>730.74</ele>
        <time>2016-04-24T08:16:11Z</time>
      </trkpt>
      <trkpt lat="43.76865" lon="3.23426">
        <ele>729.78</ele>
        <time>2016-04-24T08:16:12Z</time>
      </trkpt>
      <trkpt lat="43.76878" lon="3.23419">
        <ele>728.82</ele>
        <time>2016-04-24T08:16:13Z</time>
      </trkpt>
      <trkpt lat="43.76891" lon="3.23409">
        <ele>727.86</ele>
        <time>2016-04-24T08:16:14Z</time>
      </trkpt>
      <trkpt lat="43.76905" lon="3.23398">
        <ele>726.41</ele>
        <time>2016-04-24T08:16:15Z</time>
      </trkpt>
      <trkpt lat="43.7692" lon="3.23387">
        <ele>725.45</ele>
        <time>2016-04-24T08:16:16Z</time>
      </trkpt>
      <trkpt lat="43.77021" lon="3.23282">
        <ele>716.32</ele>
        <time>2016-04-24T08:16:24Z</time>
      </trkpt>
      <trkpt lat="43.77068" lon="3.23195">
        <ele>714.4</ele>
        <time>2016-04-24T08:16:29Z</time>
      </trkpt>
      <trkpt lat="43.77076" lon="3.23175">
        <ele>713.44</ele>
        <time>2016-04-24T08:16:30Z</time>
      </trkpt>
      <trkpt lat="43.77081" lon="3.23154">
        <ele>712.95</ele>
        <time>2016-04-24T08:16:31Z</time>
      </trkpt>
      <trkpt lat="43.771" lon="3.23075">
        <ele>710.55</ele>
        <time>2016-04-24T08:16:35Z</time>
      </trkpt>
      <trkpt lat="43.77099" lon="3.23054">
        <ele>709.59</ele>
        <time>2016-04-24T08:16:36Z</time>
      </trkpt>
      <trkpt lat="43.77095" lon="3.23035">
        <ele>709.11</ele>
        <time>2016-04-24T08:16:37Z</time>
      </trkpt>
      <trkpt lat="43.77089" lon="3.23016">
        <ele>708.15</ele>
        <time>2016-04-24T08:16:38Z</time>
      </trkpt>
      <trkpt lat="43.77082" lon="3.22997">
        <ele>707.67</ele>
        <time>2016-04-24T08:16:39Z</time>
      </trkpt>
      <trkpt lat="43.77078" lon="3.22979">
        <ele>706.71</ele>
        <time>2016-04-24T08:16:40Z</time>
      </trkpt>
      <trkpt lat="43.77076" lon="3.2296">
        <ele>706.23</ele>
        <time>2016-04-24T08:16:41Z</time>
      </trkpt>
      <trkpt lat="43.77077" lon="3.22942">
        <ele>705.75</ele>
        <time>2016-04-24T08:16:42Z</time>
      </trkpt>
      <trkpt lat="43.77082" lon="3.22926">
        <ele>705.26</ele>
        <time>2016-04-24T08:16:43Z</time>
      </trkpt>
      <trkpt lat="43.77088" lon="3.22911">
        <ele>704.3</ele>
        <time>2016-04-24T08:16:44Z</time>
      </trkpt>
      <trkpt lat="43.77092" lon="3.22896">
        <ele>703.82</ele>
        <time>2016-04-24T08:16:45Z</time>
      </trkpt>
      <trkpt lat="43.7709" lon="3.22883">
        <ele>702.86</ele>
        <time>2016-04-24T08:16:46Z</time>
      </trkpt>
      <trkpt lat="43.77087" lon="3.22869">
        <ele>702.38</ele>
        <time>2016-04-24T08:16:47Z</time>
      </trkpt>
      <trkpt lat="43.77084" lon="3.22854">
        <ele>701.9</ele>
        <time>2016-04-24T08:16:48Z</time>
      </trkpt>
      <trkpt lat="43.77083" lon="3.22838">
        <ele>701.42</ele>
        <time>2016-04-24T08:16:49Z</time>
      </trkpt>
      <trkpt lat="43.77088" lon="3.22823">
        <ele>700.94</ele>
        <time>2016-04-24T08:16:50Z</time>
      </trkpt>
      <trkpt lat="43.77092" lon="3.22807">
        <ele>700.46</ele>
        <time>2016-04-24T08:16:51Z</time>
      </trkpt>
      <trkpt lat="43.77093" lon="3.22788">
        <ele>699.98</ele>
        <time>2016-04-24T08:16:52Z</time>
      </trkpt>
      <trkpt lat="43.77091" lon="3.22769">
        <ele>699.98</ele>
        <time>2016-04-24T08:16:53Z</time>
      </trkpt>
      <trkpt lat="43.77088" lon="3.22751">
        <ele>699.5</ele>
        <time>2016-04-24T08:16:54Z</time>
      </trkpt>
      <trkpt lat="43.77084" lon="3.22715">
        <ele>699.02</ele>
        <time>2016-04-24T08:16:56Z</time>
      </trkpt>
      <trkpt lat="43.77077" lon="3.22699">
        <ele>698.53</ele>
        <time>2016-04-24T08:16:57Z</time>
      </trkpt>
      <trkpt lat="43.77069" lon="3.22684">
        <ele>698.05</ele>
        <time>2016-04-24T08:16:58Z</time>
      </trkpt>
      <trkpt lat="43.77062" lon="3.22669">
        <ele>697.57</ele>
        <time>2016-04-24T08:16:59Z</time>
      </trkpt>
      <trkpt lat="43.77056" lon="3.22653">
        <ele>697.09</ele>
        <time>2016-04-24T08:17:00Z</time>
      </trkpt>
      <trkpt lat="43.77053" lon="3.22636">
        <ele>696.61</ele>
        <time>2016-04-24T08:17:01Z</time>
      </trkpt>
      <trkpt lat="43.77055" lon="3.22619">
        <ele>696.13</ele>
        <time>2016-04-24T08:17:02Z</time>
      </trkpt>
      <trkpt lat="43.77058" lon="3.22599">
        <ele>695.17</ele>
        <time>2016-04-24T08:17:03Z</time>
      </trkpt>
      <trkpt lat="43.7706" lon="3.22577">
        <ele>694.21</ele>
        <time>2016-04-24T08:17:04Z</time>
      </trkpt>
      <trkpt lat="43.7706" lon="3.22553">
        <ele>694.21</ele>
        <time>2016-04-24T08:17:05Z</time>
      </trkpt>
      <trkpt lat="43.77059" lon="3.22529">
        <ele>693.73</ele>
        <time>2016-04-24T08:17:06Z</time>
      </trkpt>
      <trkpt lat="43.77049" lon="3.22423">
        <ele>691.33</ele>
        <time>2016-04-24T08:17:11Z</time>
      </trkpt>
      <trkpt lat="43.77051" lon="3.22405">
        <ele>690.84</ele>
        <time>2016-04-24T08:17:12Z</time>
      </trkpt>
      <trkpt lat="43.77057" lon="3.22389">
        <ele>689.88</ele>
        <time>2016-04-24T08:17:13Z</time>
      </trkpt>
      <trkpt lat="43.77064" lon="3.22374">
        <ele>689.4</ele>
        <time>2016-04-24T08:17:14Z</time>
      </trkpt>
      <trkpt lat="43.77071" lon="3.2236">
        <ele>688.92</ele>
        <time>2016-04-24T08:17:15Z</time>
      </trkpt>
      <trkpt lat="43.77076" lon="3.22344">
        <ele>688.44</ele>
        <time>2016-04-24T08:17:16Z</time>
      </trkpt>
      <trkpt lat="43.77078" lon="3.22328">
        <ele>687.96</ele>
        <time>2016-04-24T08:17:17Z</time>
      </trkpt>
      <trkpt lat="43.77074" lon="3.22312">
        <ele>687.48</ele>
        <time>2016-04-24T08:17:18Z</time>
      </trkpt>
      <trkpt lat="43.77067" lon="3.22295">
        <ele>687</ele>
        <time>2016-04-24T08:17:19Z</time>
      </trkpt>
      <trkpt lat="43.77059" lon="3.22278">
        <ele>686.52</ele>
        <time>2016-04-24T08:17:20Z</time>
      </trkpt>
      <trkpt lat="43.77052" lon="3.22263">
        <ele>686.04</ele>
        <time>2016-04-24T08:17:21Z</time>
      </trkpt>
      <trkpt lat="43.77023" lon="3.22196">
        <ele>684.12</ele>
        <time>2016-04-24T08:17:25Z</time>
      </trkpt>
      <trkpt lat="43.7702" lon="3.22176">
        <ele>683.63</ele>
        <time>2016-04-24T08:17:26Z</time>
      </trkpt>
      <trkpt lat="43.77019" lon="3.22155">
        <ele>683.15</ele>
        <time>2016-04-24T08:17:27Z</time>
      </trkpt>
      <trkpt lat="43.7702" lon="3.22132">
        <ele>683.15</ele>
        <time>2016-04-24T08:17:28Z</time>
      </trkpt>
      <trkpt lat="43.77022" lon="3.22107">
        <ele>682.67</ele>
        <time>2016-04-24T08:17:29Z</time>
      </trkpt>
      <trkpt lat="43.77038" lon="3.21903">
        <ele>677.87</ele>
        <time>2016-04-24T08:17:36Z</time>
      </trkpt>
      <trkpt lat="43.77059" lon="3.2161">
        <ele>679.79</ele>
        <time>2016-04-24T08:17:48Z</time>
      </trkpt>
      <trkpt lat="43.77066" lon="3.21497">
        <ele>681.23</ele>
        <time>2016-04-24T08:17:53Z</time>
      </trkpt>
      <trkpt lat="43.77065" lon="3.21476">
        <ele>680.75</ele>
        <time>2016-04-24T08:17:54Z</time>
      </trkpt>
      <trkpt lat="43.77061" lon="3.21455">
        <ele>680.27</ele>
        <time>2016-04-24T08:17:55Z</time>
      </trkpt>
      <trkpt lat="43.7704" lon="3.2137">
        <ele>678.35</ele>
        <time>2016-04-24T08:17:59Z</time>
      </trkpt>
      <trkpt lat="43.7704" lon="3.21349">
        <ele>677.39</ele>
        <time>2016-04-24T08:18:00Z</time>
      </trkpt>
      <trkpt lat="43.77042" lon="3.2133">
        <ele>676.42</ele>
        <time>2016-04-24T08:18:01Z</time>
      </trkpt>
      <trkpt lat="43.7705" lon="3.21311">
        <ele>675.46</ele>
        <time>2016-04-24T08:18:02Z</time>
      </trkpt>
      <trkpt lat="43.7706" lon="3.21293">
        <ele>674.5</ele>
        <time>2016-04-24T08:18:03Z</time>
      </trkpt>
      <trkpt lat="43.7707" lon="3.21275">
        <ele>673.54</ele>
        <time>2016-04-24T08:18:04Z</time>
      </trkpt>
      <trkpt lat="43.77099" lon="3.21225">
        <ele>671.14</ele>
        <time>2016-04-24T08:18:07Z</time>
      </trkpt>
      <trkpt lat="43.77105" lon="3.21206">
        <ele>669.7</ele>
        <time>2016-04-24T08:18:08Z</time>
      </trkpt>
      <trkpt lat="43.77108" lon="3.21186">
        <ele>669.22</ele>
        <time>2016-04-24T08:18:09Z</time>
      </trkpt>
      <trkpt lat="43.77109" lon="3.21166">
        <ele>668.25</ele>
        <time>2016-04-24T08:18:10Z</time>
      </trkpt>
      <trkpt lat="43.77107" lon="3.21145">
        <ele>667.77</ele>
        <time>2016-04-24T08:18:11Z</time>
      </trkpt>
      <trkpt lat="43.77105" lon="3.21123">
        <ele>666.81</ele>
        <time>2016-04-24T08:18:12Z</time>
      </trkpt>
      <trkpt lat="43.77104" lon="3.21099">
        <ele>665.37</ele>
        <time>2016-04-24T08:18:13Z</time>
      </trkpt>
      <trkpt lat="43.77106" lon="3.21076">
        <ele>664.89</ele>
        <time>2016-04-24T08:18:14Z</time>
      </trkpt>
      <trkpt lat="43.7711" lon="3.21054">
        <ele>663.93</ele>
        <time>2016-04-24T08:18:15Z</time>
      </trkpt>
      <trkpt lat="43.77116" lon="3.21032">
        <ele>662.97</ele>
        <time>2016-04-24T08:18:16Z</time>
      </trkpt>
      <trkpt lat="43.77123" lon="3.21012">
        <ele>662.01</ele>
        <time>2016-04-24T08:18:17Z</time>
      </trkpt>
      <trkpt lat="43.77132" lon="3.20993">
        <ele>661.04</ele>
        <time>2016-04-24T08:18:18Z</time>
      </trkpt>
      <trkpt lat="43.77141" lon="3.20977">
        <ele>660.08</ele>
        <time>2016-04-24T08:18:19Z</time>
      </trkpt>
      <trkpt lat="43.7715" lon="3.20962">
        <ele>659.6</ele>
        <time>2016-04-24T08:18:20Z</time>
      </trkpt>
      <trkpt lat="43.77159" lon="3.20949">
        <ele>658.64</ele>
        <time>2016-04-24T08:18:21Z</time>
      </trkpt>
      <trkpt lat="43.77168" lon="3.20936">
        <ele>657.68</ele>
        <time>2016-04-24T08:18:22Z</time>
      </trkpt>
      <trkpt lat="43.77174" lon="3.20923">
        <ele>657.2</ele>
        <time>2016-04-24T08:18:23Z</time>
      </trkpt>
      <trkpt lat="43.77177" lon="3.20908">
        <ele>656.24</ele>
        <time>2016-04-24T08:18:24Z</time>
      </trkpt>
      <trkpt lat="43.77177" lon="3.20892">
        <ele>655.28</ele>
        <time>2016-04-24T08:18:25Z</time>
      </trkpt>
      <trkpt lat="43.77172" lon="3.20875">
        <ele>654.8</ele>
        <time>2016-04-24T08:18:26Z</time>
      </trkpt>
      <trkpt lat="43.77168" lon="3.20855">
        <ele>653.83</ele>
        <time>2016-04-24T08:18:27Z</time>
      </trkpt>
      <trkpt lat="43.77166" lon="3.20835">
        <ele>652.39</ele>
        <time>2016-04-24T08:18:28Z</time>
      </trkpt>
      <trkpt lat="43.77165" lon="3.20813">
        <ele>652.39</ele>
        <time>2016-04-24T08:18:29Z</time>
      </trkpt>
      <trkpt lat="43.77167" lon="3.2079">
        <ele>652.39</ele>
        <time>2016-04-24T08:18:30Z</time>
      </trkpt>
      <trkpt lat="43.7717" lon="3.20765">
        <ele>652.87</ele>
        <time>2016-04-24T08:18:31Z</time>
      </trkpt>
      <trkpt lat="43.77174" lon="3.20739">
        <ele>652.39</ele>
        <time>2016-04-24T08:18:32Z</time>
      </trkpt>
      <trkpt lat="43.7721" lon="3.20476">
        <ele>649.99</ele>
        <time>2016-04-24T08:18:43Z</time>
      </trkpt>
      <trkpt lat="43.77244" lon="3.20242">
        <ele>649.99</ele>
        <time>2016-04-24T08:18:52Z</time>
      </trkpt>
      <trkpt lat="43.77246" lon="3.2022">
        <ele>649.51</ele>
        <time>2016-04-24T08:18:53Z</time>
      </trkpt>
      <trkpt lat="43.77245" lon="3.20198">
        <ele>649.03</ele>
        <time>2016-04-24T08:18:54Z</time>
      </trkpt>
      <trkpt lat="43.77242" lon="3.20176">
        <ele>648.07</ele>
        <time>2016-04-24T08:18:55Z</time>
      </trkpt>
      <trkpt lat="43.77236" lon="3.20155">
        <ele>647.59</ele>
        <time>2016-04-24T08:18:56Z</time>
      </trkpt>
      <trkpt lat="43.77228" lon="3.20135">
        <ele>646.62</ele>
        <time>2016-04-24T08:18:57Z</time>
      </trkpt>
      <trkpt lat="43.7722" lon="3.20115">
        <ele>645.18</ele>
        <time>2016-04-24T08:18:58Z</time>
      </trkpt>
      <trkpt lat="43.77209" lon="3.20097">
        <ele>644.22</ele>
        <time>2016-04-24T08:18:59Z</time>
      </trkpt>
      <trkpt lat="43.77198" lon="3.20081">
        <ele>642.3</ele>
        <time>2016-04-24T08:19:00Z</time>
      </trkpt>
      <trkpt lat="43.77186" lon="3.20063">
        <ele>641.34</ele>
        <time>2016-04-24T08:19:01Z</time>
      </trkpt>
      <trkpt lat="43.77177" lon="3.20042">
        <ele>639.89</ele>
        <time>2016-04-24T08:19:02Z</time>
      </trkpt>
      <trkpt lat="43.77171" lon="3.20021">
        <ele>638.93</ele>
        <time>2016-04-24T08:19:03Z</time>
      </trkpt>
      <trkpt lat="43.77164" lon="3.19999">
        <ele>637.49</ele>
        <time>2016-04-24T08:19:04Z</time>
      </trkpt>
      <trkpt lat="43.77155" lon="3.19979">
        <ele>636.05</ele>
        <time>2016-04-24T08:19:05Z</time>
      </trkpt>
      <trkpt lat="43.77146" lon="3.19959">
        <ele>634.61</ele>
        <time>2016-04-24T08:19:06Z</time>
      </trkpt>
      <trkpt lat="43.77088" lon="3.19784">
        <ele>625.47</ele>
        <time>2016-04-24T08:19:14Z</time>
      </trkpt>
      <trkpt lat="43.77075" lon="3.19621">
        <ele>623.55</ele>
        <time>2016-04-24T08:19:21Z</time>
      </trkpt>
      <trkpt lat="43.77074" lon="3.19532">
        <ele>624.51</ele>
        <time>2016-04-24T08:19:25Z</time>
      </trkpt>
      <trkpt lat="43.7707" lon="3.1951">
        <ele>624.51</ele>
        <time>2016-04-24T08:19:26Z</time>
      </trkpt>
      <trkpt lat="43.77065" lon="3.19487">
        <ele>624.99</ele>
        <time>2016-04-24T08:19:27Z</time>
      </trkpt>
      <trkpt lat="43.77058" lon="3.19466">
        <ele>625.47</ele>
        <time>2016-04-24T08:19:28Z</time>
      </trkpt>
      <trkpt lat="43.77049" lon="3.19444">
        <ele>624.99</ele>
        <time>2016-04-24T08:19:29Z</time>
      </trkpt>
      <trkpt lat="43.77039" lon="3.19424">
        <ele>625.47</ele>
        <time>2016-04-24T08:19:30Z</time>
      </trkpt>
      <trkpt lat="43.77027" lon="3.19404">
        <ele>624.99</ele>
        <time>2016-04-24T08:19:31Z</time>
      </trkpt>
      <trkpt lat="43.77014" lon="3.19384">
        <ele>624.51</ele>
        <time>2016-04-24T08:19:32Z</time>
      </trkpt>
      <trkpt lat="43.76999" lon="3.19364">
        <ele>624.03</ele>
        <time>2016-04-24T08:19:33Z</time>
      </trkpt>
      <trkpt lat="43.76983" lon="3.19344">
        <ele>624.03</ele>
        <time>2016-04-24T08:19:34Z</time>
      </trkpt>
      <trkpt lat="43.76899" lon="3.19224">
        <ele>622.59</ele>
        <time>2016-04-24T08:19:40Z</time>
      </trkpt>
      <trkpt lat="43.76891" lon="3.19203">
        <ele>622.59</ele>
        <time>2016-04-24T08:19:41Z</time>
      </trkpt>
      <trkpt lat="43.76883" lon="3.1918">
        <ele>622.59</ele>
        <time>2016-04-24T08:19:42Z</time>
      </trkpt>
      <trkpt lat="43.76878" lon="3.19155">
        <ele>622.59</ele>
        <time>2016-04-24T08:19:43Z</time>
      </trkpt>
      <trkpt lat="43.76874" lon="3.19128">
        <ele>622.59</ele>
        <time>2016-04-24T08:19:44Z</time>
      </trkpt>
      <trkpt lat="43.76871" lon="3.19102">
        <ele>622.59</ele>
        <time>2016-04-24T08:19:45Z</time>
      </trkpt>
      <trkpt lat="43.76869" lon="3.19015">
        <ele>623.55</ele>
        <time>2016-04-24T08:19:49Z</time>
      </trkpt>
      <trkpt lat="43.76874" lon="3.19002">
        <ele>623.55</ele>
        <time>2016-04-24T08:19:50Z</time>
      </trkpt>
      <trkpt lat="43.76882" lon="3.18991">
        <ele>623.55</ele>
        <time>2016-04-24T08:19:51Z</time>
      </trkpt>
      <trkpt lat="43.76893" lon="3.18986">
        <ele>624.03</ele>
        <time>2016-04-24T08:19:52Z</time>
      </trkpt>
      <trkpt lat="43.76904" lon="3.18987">
        <ele>624.51</ele>
        <time>2016-04-24T08:19:53Z</time>
      </trkpt>
      <trkpt lat="43.76915" lon="3.18991">
        <ele>625.47</ele>
        <time>2016-04-24T08:19:54Z</time>
      </trkpt>
      <trkpt lat="43.76926" lon="3.18995">
        <ele>626.44</ele>
        <time>2016-04-24T08:19:55Z</time>
      </trkpt>
      <trkpt lat="43.76936" lon="3.18996">
        <ele>627.4</ele>
        <time>2016-04-24T08:19:56Z</time>
      </trkpt>
      <trkpt lat="43.76945" lon="3.18992">
        <ele>627.88</ele>
        <time>2016-04-24T08:19:57Z</time>
      </trkpt>
      <trkpt lat="43.76951" lon="3.18986">
        <ele>628.36</ele>
        <time>2016-04-24T08:19:58Z</time>
      </trkpt>
      <trkpt lat="43.76954" lon="3.18976">
        <ele>628.84</ele>
        <time>2016-04-24T08:19:59Z</time>
      </trkpt>
      <trkpt lat="43.76955" lon="3.18963">
        <ele>629.32</ele>
        <time>2016-04-24T08:20:00Z</time>
      </trkpt>
      <trkpt lat="43.76954" lon="3.1895">
        <ele>629.8</ele>
        <time>2016-04-24T08:20:01Z</time>
      </trkpt>
      <trkpt lat="43.76953" lon="3.18936">
        <ele>630.28</ele>
        <time>2016-04-24T08:20:02Z</time>
      </trkpt>
      <trkpt lat="43.76935" lon="3.18825">
        <ele>630.76</ele>
        <time>2016-04-24T08:20:07Z</time>
      </trkpt>
      <trkpt lat="43.76912" lon="3.18706">
        <ele>627.88</ele>
        <time>2016-04-24T08:20:12Z</time>
      </trkpt>
      <trkpt lat="43.76904" lon="3.18684">
        <ele>627.4</ele>
        <time>2016-04-24T08:20:13Z</time>
      </trkpt>
      <trkpt lat="43.76823" lon="3.18516">
        <ele>621.15</ele>
        <time>2016-04-24T08:20:21Z</time>
      </trkpt>
      <trkpt lat="43.76766" lon="3.18344">
        <ele>620.19</ele>
        <time>2016-04-24T08:20:29Z</time>
      </trkpt>
      <trkpt lat="43.7673" lon="3.18163">
        <ele>620.67</ele>
        <time>2016-04-24T08:20:36Z</time>
      </trkpt>
      <trkpt lat="43.7673" lon="3.18008">
        <ele>623.07</ele>
        <time>2016-04-24T08:20:42Z</time>
      </trkpt>
      <trkpt lat="43.76734" lon="3.17984">
        <ele>623.55</ele>
        <time>2016-04-24T08:20:43Z</time>
      </trkpt>
      <trkpt lat="43.76742" lon="3.17941">
        <ele>624.99</ele>
        <time>2016-04-24T08:20:45Z</time>
      </trkpt>
      <trkpt lat="43.76743" lon="3.1792">
        <ele>625.96</ele>
        <time>2016-04-24T08:20:46Z</time>
      </trkpt>
      <trkpt lat="43.76742" lon="3.17898">
        <ele>626.44</ele>
        <time>2016-04-24T08:20:47Z</time>
      </trkpt>
      <trkpt lat="43.76733" lon="3.17794">
        <ele>628.36</ele>
        <time>2016-04-24T08:20:52Z</time>
      </trkpt>
      <trkpt lat="43.76728" lon="3.17778">
        <ele>627.88</ele>
        <time>2016-04-24T08:20:53Z</time>
      </trkpt>
      <trkpt lat="43.7672" lon="3.17763">
        <ele>627.88</ele>
        <time>2016-04-24T08:20:54Z</time>
      </trkpt>
      <trkpt lat="43.7671" lon="3.17749">
        <ele>627.4</ele>
        <time>2016-04-24T08:20:55Z</time>
      </trkpt>
      <trkpt lat="43.76699" lon="3.17735">
        <ele>626.92</ele>
        <time>2016-04-24T08:20:56Z</time>
      </trkpt>
      <trkpt lat="43.76679" lon="3.17706">
        <ele>625.47</ele>
        <time>2016-04-24T08:20:58Z</time>
      </trkpt>
      <trkpt lat="43.7667" lon="3.17689">
        <ele>624.51</ele>
        <time>2016-04-24T08:20:59Z</time>
      </trkpt>
      <trkpt lat="43.76638" lon="3.17599">
        <ele>621.63</ele>
        <time>2016-04-24T08:21:04Z</time>
      </trkpt>
      <trkpt lat="43.76636" lon="3.17581">
        <ele>621.15</ele>
        <time>2016-04-24T08:21:05Z</time>
      </trkpt>
      <trkpt lat="43.76636" lon="3.17565">
        <ele>621.63</ele>
        <time>2016-04-24T08:21:06Z</time>
      </trkpt>
      <trkpt lat="43.76637" lon="3.17512">
        <ele>621.15</ele>
        <time>2016-04-24T08:21:10Z</time>
      </trkpt>
      <trkpt lat="43.76641" lon="3.175">
        <ele>620.67</ele>
        <time>2016-04-24T08:21:11Z</time>
      </trkpt>
      <trkpt lat="43.76646" lon="3.17488">
        <ele>620.67</ele>
        <time>2016-04-24T08:21:12Z</time>
      </trkpt>
      <trkpt lat="43.76653" lon="3.17478">
        <ele>620.19</ele>
        <time>2016-04-24T08:21:13Z</time>
      </trkpt>
      <trkpt lat="43.76662" lon="3.1747">
        <ele>620.19</ele>
        <time>2016-04-24T08:21:14Z</time>
      </trkpt>
      <trkpt lat="43.76673" lon="3.17465">
        <ele>619.71</ele>
        <time>2016-04-24T08:21:15Z</time>
      </trkpt>
      <trkpt lat="43.76685" lon="3.17462">
        <ele>619.71</ele>
        <time>2016-04-24T08:21:16Z</time>
      </trkpt>
      <trkpt lat="43.76697" lon="3.1746">
        <ele>620.19</ele>
        <time>2016-04-24T08:21:17Z</time>
      </trkpt>
      <trkpt lat="43.76724" lon="3.17456">
        <ele>620.67</ele>
        <time>2016-04-24T08:21:19Z</time>
      </trkpt>
      <trkpt lat="43.76739" lon="3.17456">
        <ele>621.63</ele>
        <time>2016-04-24T08:21:20Z</time>
      </trkpt>
      <trkpt lat="43.76791" lon="3.17453">
        <ele>623.55</ele>
        <time>2016-04-24T08:21:24Z</time>
      </trkpt>
      <trkpt lat="43.76801" lon="3.17448">
        <ele>623.55</ele>
        <time>2016-04-24T08:21:25Z</time>
      </trkpt>
      <trkpt lat="43.76811" lon="3.17439">
        <ele>624.03</ele>
        <time>2016-04-24T08:21:26Z</time>
      </trkpt>
      <trkpt lat="43.76821" lon="3.17425">
        <ele>624.51</ele>
        <time>2016-04-24T08:21:27Z</time>
      </trkpt>
      <trkpt lat="43.76828" lon="3.17409">
        <ele>624.51</ele>
        <time>2016-04-24T08:21:28Z</time>
      </trkpt>
      <trkpt lat="43.76834" lon="3.17389">
        <ele>625.47</ele>
        <time>2016-04-24T08:21:29Z</time>
      </trkpt>
      <trkpt lat="43.76839" lon="3.17368">
        <ele>625.96</ele>
        <time>2016-04-24T08:21:30Z</time>
      </trkpt>
      <trkpt lat="43.76844" lon="3.17347">
        <ele>626.92</ele>
        <time>2016-04-24T08:21:31Z</time>
      </trkpt>
      <trkpt lat="43.76851" lon="3.17327">
        <ele>627.4</ele>
        <time>2016-04-24T08:21:32Z</time>
      </trkpt>
      <trkpt lat="43.76857" lon="3.17308">
        <ele>627.88</ele>
        <time>2016-04-24T08:21:33Z</time>
      </trkpt>
      <trkpt lat="43.76861" lon="3.17288">
        <ele>628.36</ele>
        <time>2016-04-24T08:21:34Z</time>
      </trkpt>
      <trkpt lat="43.76862" lon="3.17269">
        <ele>628.84</ele>
        <time>2016-04-24T08:21:35Z</time>
      </trkpt>
      <trkpt lat="43.76862" lon="3.17249">
        <ele>629.32</ele>
        <time>2016-04-24T08:21:36Z</time>
      </trkpt>
      <trkpt lat="43.76863" lon="3.1723">
        <ele>629.8</ele>
        <time>2016-04-24T08:21:37Z</time>
      </trkpt>
      <trkpt lat="43.76867" lon="3.17211">
        <ele>630.28</ele>
        <time>2016-04-24T08:21:38Z</time>
      </trkpt>
      <trkpt lat="43.76874" lon="3.17192">
        <ele>630.76</ele>
        <time>2016-04-24T08:21:39Z</time>
      </trkpt>
      <trkpt lat="43.76883" lon="3.17175">
        <ele>631.24</ele>
        <time>2016-04-24T08:21:40Z</time>
      </trkpt>
      <trkpt lat="43.76894" lon="3.17157">
        <ele>631.72</ele>
        <time>2016-04-24T08:21:41Z</time>
      </trkpt>
      <trkpt lat="43.76979" lon="3.17031">
        <ele>635.57</ele>
        <time>2016-04-24T08:21:49Z</time>
      </trkpt>
      <trkpt lat="43.76997" lon="3.17007">
        <ele>636.53</ele>
        <time>2016-04-24T08:21:51Z</time>
      </trkpt>
      <trkpt lat="43.77003" lon="3.16994">
        <ele>637.01</ele>
        <time>2016-04-24T08:21:52Z</time>
      </trkpt>
      <trkpt lat="43.77008" lon="3.16979">
        <ele>637.49</ele>
        <time>2016-04-24T08:21:53Z</time>
      </trkpt>
      <trkpt lat="43.7701" lon="3.16965">
        <ele>637.97</ele>
        <time>2016-04-24T08:21:54Z</time>
      </trkpt>
      <trkpt lat="43.77012" lon="3.16952">
        <ele>638.45</ele>
        <time>2016-04-24T08:21:55Z</time>
      </trkpt>
      <trkpt lat="43.77016" lon="3.16939">
        <ele>638.93</ele>
        <time>2016-04-24T08:21:56Z</time>
      </trkpt>
      <trkpt lat="43.77023" lon="3.16926">
        <ele>639.41</ele>
        <time>2016-04-24T08:21:57Z</time>
      </trkpt>
      <trkpt lat="43.77032" lon="3.16915">
        <ele>639.89</ele>
        <time>2016-04-24T08:21:58Z</time>
      </trkpt>
      <trkpt lat="43.77043" lon="3.16904">
        <ele>640.86</ele>
        <time>2016-04-24T08:21:59Z</time>
      </trkpt>
      <trkpt lat="43.77056" lon="3.16895">
        <ele>641.34</ele>
        <time>2016-04-24T08:22:00Z</time>
      </trkpt>
      <trkpt lat="43.77069" lon="3.16885">
        <ele>641.82</ele>
        <time>2016-04-24T08:22:01Z</time>
      </trkpt>
      <trkpt lat="43.77147" lon="3.1681">
        <ele>646.14</ele>
        <time>2016-04-24T08:22:08Z</time>
      </trkpt>
      <trkpt lat="43.77157" lon="3.16798">
        <ele>646.62</ele>
        <time>2016-04-24T08:22:09Z</time>
      </trkpt>
      <trkpt lat="43.77167" lon="3.16785">
        <ele>646.62</ele>
        <time>2016-04-24T08:22:10Z</time>
      </trkpt>
      <trkpt lat="43.77175" lon="3.16769">
        <ele>647.1</ele>
        <time>2016-04-24T08:22:11Z</time>
      </trkpt>
      <trkpt lat="43.77269" lon="3.16551">
        <ele>655.28</ele>
        <time>2016-04-24T08:22:23Z</time>
      </trkpt>
      <trkpt lat="43.77341" lon="3.16317">
        <ele>664.89</ele>
        <time>2016-04-24T08:22:34Z</time>
      </trkpt>
      <trkpt lat="43.77345" lon="3.16296">
        <ele>665.85</ele>
        <time>2016-04-24T08:22:35Z</time>
      </trkpt>
      <trkpt lat="43.77346" lon="3.16277">
        <ele>666.81</ele>
        <time>2016-04-24T08:22:36Z</time>
      </trkpt>
      <trkpt lat="43.77344" lon="3.16261">
        <ele>668.25</ele>
        <time>2016-04-24T08:22:37Z</time>
      </trkpt>
      <trkpt lat="43.7734" lon="3.16246">
        <ele>668.73</ele>
        <time>2016-04-24T08:22:38Z</time>
      </trkpt>
      <trkpt lat="43.77336" lon="3.16234">
        <ele>669.7</ele>
        <time>2016-04-24T08:22:39Z</time>
      </trkpt>
      <trkpt lat="43.77334" lon="3.16224">
        <ele>670.18</ele>
        <time>2016-04-24T08:22:40Z</time>
      </trkpt>
      <trkpt lat="43.77335" lon="3.16215">
        <ele>670.18</ele>
        <time>2016-04-24T08:22:41Z</time>
      </trkpt>
      <trkpt lat="43.77338" lon="3.16209">
        <ele>670.18</ele>
        <time>2016-04-24T08:22:42Z</time>
      </trkpt>
      <trkpt lat="43.77345" lon="3.1621">
        <ele>670.18</ele>
        <time>2016-04-24T08:22:43Z</time>
      </trkpt>
      <trkpt lat="43.77353" lon="3.16215">
        <ele>670.66</ele>
        <time>2016-04-24T08:22:44Z</time>
      </trkpt>
      <trkpt lat="43.77363" lon="3.16225">
        <ele>671.14</ele>
        <time>2016-04-24T08:22:45Z</time>
      </trkpt>
      <trkpt lat="43.77374" lon="3.1624">
        <ele>671.14</ele>
        <time>2016-04-24T08:22:46Z</time>
      </trkpt>
      <trkpt lat="43.77384" lon="3.16254">
        <ele>672.1</ele>
        <time>2016-04-24T08:22:47Z</time>
      </trkpt>
      <trkpt lat="43.77393" lon="3.16268">
        <ele>673.06</ele>
        <time>2016-04-24T08:22:48Z</time>
      </trkpt>
      <trkpt lat="43.774" lon="3.16282">
        <ele>674.02</ele>
        <time>2016-04-24T08:22:49Z</time>
      </trkpt>
      <trkpt lat="43.77404" lon="3.16295">
        <ele>674.5</ele>
        <time>2016-04-24T08:22:50Z</time>
      </trkpt>
      <trkpt lat="43.77407" lon="3.16308">
        <ele>675.94</ele>
        <time>2016-04-24T08:22:51Z</time>
      </trkpt>
      <trkpt lat="43.77409" lon="3.16318">
        <ele>676.91</ele>
        <time>2016-04-24T08:22:52Z</time>
      </trkpt>
      <trkpt lat="43.77412" lon="3.16327">
        <ele>677.87</ele>
        <time>2016-04-24T08:22:53Z</time>
      </trkpt>
      <trkpt lat="43.77417" lon="3.16333">
        <ele>678.35</ele>
        <time>2016-04-24T08:22:54Z</time>
      </trkpt>
      <trkpt lat="43.77423" lon="3.16337">
        <ele>678.83</ele>
        <time>2016-04-24T08:22:55Z</time>
      </trkpt>
      <trkpt lat="43.77435" lon="3.16342">
        <ele>679.31</ele>
        <time>2016-04-24T08:22:57Z</time>
      </trkpt>
      <trkpt lat="43.77441" lon="3.16346">
        <ele>678.83</ele>
        <time>2016-04-24T08:22:58Z</time>
      </trkpt>
      <trkpt lat="43.77446" lon="3.16352">
        <ele>678.35</ele>
        <time>2016-04-24T08:22:59Z</time>
      </trkpt>
      <trkpt lat="43.77462" lon="3.16371">
        <ele>676.42</ele>
        <time>2016-04-24T08:23:01Z</time>
      </trkpt>
      <trkpt lat="43.77473" lon="3.16379">
        <ele>675.46</ele>
        <time>2016-04-24T08:23:02Z</time>
      </trkpt>
      <trkpt lat="43.77499" lon="3.16396">
        <ele>673.06</ele>
        <time>2016-04-24T08:23:04Z</time>
      </trkpt>
      <trkpt lat="43.77512" lon="3.16407">
        <ele>672.1</ele>
        <time>2016-04-24T08:23:05Z</time>
      </trkpt>
      <trkpt lat="43.77524" lon="3.16417">
        <ele>670.66</ele>
        <time>2016-04-24T08:23:06Z</time>
      </trkpt>
      <trkpt lat="43.77538" lon="3.16426">
        <ele>669.7</ele>
        <time>2016-04-24T08:23:07Z</time>
      </trkpt>
      <trkpt lat="43.77553" lon="3.16432">
        <ele>668.25</ele>
        <time>2016-04-24T08:23:08Z</time>
      </trkpt>
      <trkpt lat="43.77568" lon="3.16437">
        <ele>666.81</ele>
        <time>2016-04-24T08:23:09Z</time>
      </trkpt>
      <trkpt lat="43.77597" lon="3.16449">
        <ele>664.41</ele>
        <time>2016-04-24T08:23:11Z</time>
      </trkpt>
      <trkpt lat="43.7761" lon="3.16458">
        <ele>662.97</ele>
        <time>2016-04-24T08:23:12Z</time>
      </trkpt>
      <trkpt lat="43.77622" lon="3.16469">
        <ele>662.01</ele>
        <time>2016-04-24T08:23:13Z</time>
      </trkpt>
      <trkpt lat="43.77721" lon="3.16545">
        <ele>652.39</ele>
        <time>2016-04-24T08:23:20Z</time>
      </trkpt>
      <trkpt lat="43.77737" lon="3.16549">
        <ele>651.43</ele>
        <time>2016-04-24T08:23:21Z</time>
      </trkpt>
      <trkpt lat="43.77753" lon="3.1655">
        <ele>649.99</ele>
        <time>2016-04-24T08:23:22Z</time>
      </trkpt>
      <trkpt lat="43.77768" lon="3.16547">
        <ele>648.55</ele>
        <time>2016-04-24T08:23:23Z</time>
      </trkpt>
      <trkpt lat="43.77783" lon="3.16541">
        <ele>646.62</ele>
        <time>2016-04-24T08:23:24Z</time>
      </trkpt>
      <trkpt lat="43.77798" lon="3.16531">
        <ele>645.18</ele>
        <time>2016-04-24T08:23:25Z</time>
      </trkpt>
      <trkpt lat="43.77811" lon="3.1652">
        <ele>643.74</ele>
        <time>2016-04-24T08:23:26Z</time>
      </trkpt>
      <trkpt lat="43.77822" lon="3.16508">
        <ele>642.78</ele>
        <time>2016-04-24T08:23:27Z</time>
      </trkpt>
      <trkpt lat="43.77832" lon="3.16497">
        <ele>641.34</ele>
        <time>2016-04-24T08:23:28Z</time>
      </trkpt>
      <trkpt lat="43.77838" lon="3.16485">
        <ele>639.89</ele>
        <time>2016-04-24T08:23:29Z</time>
      </trkpt>
      <trkpt lat="43.77842" lon="3.16471">
        <ele>639.41</ele>
        <time>2016-04-24T08:23:30Z</time>
      </trkpt>
      <trkpt lat="43.77841" lon="3.16452">
        <ele>638.45</ele>
        <time>2016-04-24T08:23:31Z</time>
      </trkpt>
      <trkpt lat="43.77838" lon="3.16431">
        <ele>637.97</ele>
        <time>2016-04-24T08:23:32Z</time>
      </trkpt>
      <trkpt lat="43.77834" lon="3.16409">
        <ele>636.53</ele>
        <time>2016-04-24T08:23:33Z</time>
      </trkpt>
      <trkpt lat="43.77832" lon="3.16387">
        <ele>635.09</ele>
        <time>2016-04-24T08:23:34Z</time>
      </trkpt>
      <trkpt lat="43.77828" lon="3.16311">
        <ele>631.24</ele>
        <time>2016-04-24T08:23:38Z</time>
      </trkpt>
      <trkpt lat="43.77832" lon="3.16295">
        <ele>630.28</ele>
        <time>2016-04-24T08:23:39Z</time>
      </trkpt>
      <trkpt lat="43.77839" lon="3.16278">
        <ele>628.84</ele>
        <time>2016-04-24T08:23:40Z</time>
      </trkpt>
      <trkpt lat="43.77848" lon="3.16262">
        <ele>627.88</ele>
        <time>2016-04-24T08:23:41Z</time>
      </trkpt>
      <trkpt lat="43.77858" lon="3.16245">
        <ele>625.96</ele>
        <time>2016-04-24T08:23:42Z</time>
      </trkpt>
      <trkpt lat="43.77975" lon="3.1607">
        <ele>611.06</ele>
        <time>2016-04-24T08:23:51Z</time>
      </trkpt>
      <trkpt lat="43.78058" lon="3.15952">
        <ele>601.92</ele>
        <time>2016-04-24T08:23:57Z</time>
      </trkpt>
      <trkpt lat="43.78073" lon="3.15939">
        <ele>600.48</ele>
        <time>2016-04-24T08:23:58Z</time>
      </trkpt>
      <trkpt lat="43.78089" lon="3.15932">
        <ele>599.04</ele>
        <time>2016-04-24T08:23:59Z</time>
      </trkpt>
      <trkpt lat="43.78103" lon="3.15926">
        <ele>598.08</ele>
        <time>2016-04-24T08:24:00Z</time>
      </trkpt>
      <trkpt lat="43.78115" lon="3.15921">
        <ele>596.64</ele>
        <time>2016-04-24T08:24:01Z</time>
      </trkpt>
      <trkpt lat="43.78124" lon="3.15912">
        <ele>595.67</ele>
        <time>2016-04-24T08:24:02Z</time>
      </trkpt>
      <trkpt lat="43.78131" lon="3.15899">
        <ele>594.71</ele>
        <time>2016-04-24T08:24:03Z</time>
      </trkpt>
      <trkpt lat="43.78133" lon="3.15883">
        <ele>593.27</ele>
        <time>2016-04-24T08:24:04Z</time>
      </trkpt>
      <trkpt lat="43.78134" lon="3.15866">
        <ele>592.31</ele>
        <time>2016-04-24T08:24:05Z</time>
      </trkpt>
      <trkpt lat="43.78131" lon="3.15848">
        <ele>591.35</ele>
        <time>2016-04-24T08:24:06Z</time>
      </trkpt>
      <trkpt lat="43.78127" lon="3.15831">
        <ele>590.39</ele>
        <time>2016-04-24T08:24:07Z</time>
      </trkpt>
      <trkpt lat="43.78125" lon="3.15814">
        <ele>589.43</ele>
        <time>2016-04-24T08:24:08Z</time>
      </trkpt>
      <trkpt lat="43.78125" lon="3.15798">
        <ele>588.46</ele>
        <time>2016-04-24T08:24:09Z</time>
      </trkpt>
      <trkpt lat="43.78129" lon="3.15784">
        <ele>587.5</ele>
        <time>2016-04-24T08:24:10Z</time>
      </trkpt>
      <trkpt lat="43.78136" lon="3.1577">
        <ele>586.54</ele>
        <time>2016-04-24T08:24:11Z</time>
      </trkpt>
      <trkpt lat="43.78145" lon="3.15756">
        <ele>585.1</ele>
        <time>2016-04-24T08:24:12Z</time>
      </trkpt>
      <trkpt lat="43.78175" lon="3.15693">
        <ele>580.77</ele>
        <time>2016-04-24T08:24:16Z</time>
      </trkpt>
      <trkpt lat="43.78179" lon="3.15676">
        <ele>579.81</ele>
        <time>2016-04-24T08:24:17Z</time>
      </trkpt>
      <trkpt lat="43.78182" lon="3.15658">
        <ele>578.85</ele>
        <time>2016-04-24T08:24:18Z</time>
      </trkpt>
      <trkpt lat="43.78183" lon="3.1564">
        <ele>577.89</ele>
        <time>2016-04-24T08:24:19Z</time>
      </trkpt>
      <trkpt lat="43.78181" lon="3.15621">
        <ele>576.93</ele>
        <time>2016-04-24T08:24:20Z</time>
      </trkpt>
      <trkpt lat="43.78181" lon="3.156">
        <ele>575.97</ele>
        <time>2016-04-24T08:24:21Z</time>
      </trkpt>
      <trkpt lat="43.78182" lon="3.1558">
        <ele>575.01</ele>
        <time>2016-04-24T08:24:22Z</time>
      </trkpt>
      <trkpt lat="43.78184" lon="3.15559">
        <ele>574.04</ele>
        <time>2016-04-24T08:24:23Z</time>
      </trkpt>
      <trkpt lat="43.78189" lon="3.15522">
        <ele>571.64</ele>
        <time>2016-04-24T08:24:25Z</time>
      </trkpt>
      <trkpt lat="43.78194" lon="3.15507">
        <ele>570.68</ele>
        <time>2016-04-24T08:24:26Z</time>
      </trkpt>
      <trkpt lat="43.78202" lon="3.15494">
        <ele>569.72</ele>
        <time>2016-04-24T08:24:27Z</time>
      </trkpt>
      <trkpt lat="43.78211" lon="3.15484">
        <ele>568.76</ele>
        <time>2016-04-24T08:24:28Z</time>
      </trkpt>
      <trkpt lat="43.78221" lon="3.15475">
        <ele>567.8</ele>
        <time>2016-04-24T08:24:29Z</time>
      </trkpt>
      <trkpt lat="43.78237" lon="3.15455">
        <ele>565.87</ele>
        <time>2016-04-24T08:24:31Z</time>
      </trkpt>
      <trkpt lat="43.78243" lon="3.15444">
        <ele>564.91</ele>
        <time>2016-04-24T08:24:32Z</time>
      </trkpt>
      <trkpt lat="43.78247" lon="3.15432">
        <ele>563.95</ele>
        <time>2016-04-24T08:24:33Z</time>
      </trkpt>
      <trkpt lat="43.78244" lon="3.15419">
        <ele>562.99</ele>
        <time>2016-04-24T08:24:34Z</time>
      </trkpt>
      <trkpt lat="43.78239" lon="3.1541">
        <ele>562.03</ele>
        <time>2016-04-24T08:24:35Z</time>
      </trkpt>
      <trkpt lat="43.78228" lon="3.154">
        <ele>561.07</ele>
        <time>2016-04-24T08:24:36Z</time>
      </trkpt>
      <trkpt lat="43.78218" lon="3.15394">
        <ele>560.11</ele>
        <time>2016-04-24T08:24:37Z</time>
      </trkpt>
      <trkpt lat="43.78206" lon="3.15389">
        <ele>559.14</ele>
        <time>2016-04-24T08:24:38Z</time>
      </trkpt>
      <trkpt lat="43.78195" lon="3.15383">
        <ele>558.18</ele>
        <time>2016-04-24T08:24:39Z</time>
      </trkpt>
      <trkpt lat="43.78163" lon="3.15364">
        <ele>555.78</ele>
        <time>2016-04-24T08:24:42Z</time>
      </trkpt>
      <trkpt lat="43.78154" lon="3.15355">
        <ele>554.82</ele>
        <time>2016-04-24T08:24:43Z</time>
      </trkpt>
      <trkpt lat="43.78147" lon="3.1534">
        <ele>553.86</ele>
        <time>2016-04-24T08:24:44Z</time>
      </trkpt>
      <trkpt lat="43.78142" lon="3.15323">
        <ele>552.9</ele>
        <time>2016-04-24T08:24:45Z</time>
      </trkpt>
      <trkpt lat="43.78139" lon="3.15303">
        <ele>550.97</ele>
        <time>2016-04-24T08:24:46Z</time>
      </trkpt>
      <trkpt lat="43.78139" lon="3.15281">
        <ele>549.53</ele>
        <time>2016-04-24T08:24:47Z</time>
      </trkpt>
      <trkpt lat="43.78142" lon="3.15258">
        <ele>548.09</ele>
        <time>2016-04-24T08:24:48Z</time>
      </trkpt>
      <trkpt lat="43.78145" lon="3.15235">
        <ele>547.13</ele>
        <time>2016-04-24T08:24:49Z</time>
      </trkpt>
      <trkpt lat="43.78182" lon="3.15078">
        <ele>538.96</ele>
        <time>2016-04-24T08:24:57Z</time>
      </trkpt>
      <trkpt lat="43.7819" lon="3.15062">
        <ele>537.99</ele>
        <time>2016-04-24T08:24:58Z</time>
      </trkpt>
      <trkpt lat="43.782" lon="3.15048">
        <ele>537.03</ele>
        <time>2016-04-24T08:24:59Z</time>
      </trkpt>
      <trkpt lat="43.78211" lon="3.15034">
        <ele>535.59</ele>
        <time>2016-04-24T08:25:00Z</time>
      </trkpt>
      <trkpt lat="43.78222" lon="3.15022">
        <ele>534.63</ele>
        <time>2016-04-24T08:25:01Z</time>
      </trkpt>
      <trkpt lat="43.78235" lon="3.1501">
        <ele>533.67</ele>
        <time>2016-04-24T08:25:02Z</time>
      </trkpt>
      <trkpt lat="43.78249" lon="3.14999">
        <ele>532.71</ele>
        <time>2016-04-24T08:25:03Z</time>
      </trkpt>
      <trkpt lat="43.78263" lon="3.14989">
        <ele>531.75</ele>
        <time>2016-04-24T08:25:04Z</time>
      </trkpt>
      <trkpt lat="43.78278" lon="3.14981">
        <ele>530.79</ele>
        <time>2016-04-24T08:25:05Z</time>
      </trkpt>
      <trkpt lat="43.78294" lon="3.14974">
        <ele>530.3</ele>
        <time>2016-04-24T08:25:06Z</time>
      </trkpt>
      <trkpt lat="43.78325" lon="3.14958">
        <ele>527.42</ele>
        <time>2016-04-24T08:25:08Z</time>
      </trkpt>
      <trkpt lat="43.78338" lon="3.14946">
        <ele>526.46</ele>
        <time>2016-04-24T08:25:09Z</time>
      </trkpt>
      <trkpt lat="43.78351" lon="3.14932">
        <ele>525.02</ele>
        <time>2016-04-24T08:25:10Z</time>
      </trkpt>
      <trkpt lat="43.78452" lon="3.14802">
        <ele>521.65</ele>
        <time>2016-04-24T08:25:18Z</time>
      </trkpt>
      <trkpt lat="43.78572" lon="3.14601">
        <ele>518.29</ele>
        <time>2016-04-24T08:25:28Z</time>
      </trkpt>
      <trkpt lat="43.7862" lon="3.14522">
        <ele>516.85</ele>
        <time>2016-04-24T08:25:32Z</time>
      </trkpt>
      <trkpt lat="43.78634" lon="3.14507">
        <ele>516.85</ele>
        <time>2016-04-24T08:25:33Z</time>
      </trkpt>
      <trkpt lat="43.78751" lon="3.14419">
        <ele>514.92</ele>
        <time>2016-04-24T08:25:41Z</time>
      </trkpt>
      <trkpt lat="43.78817" lon="3.14382">
        <ele>513</ele>
        <time>2016-04-24T08:25:47Z</time>
      </trkpt>
      <trkpt lat="43.78845" lon="3.14366">
        <ele>511.56</ele>
        <time>2016-04-24T08:25:55Z</time>
      </trkpt>
      <trkpt lat="43.78905" lon="3.14333">
        <ele>511.08</ele>
        <time>2016-04-24T08:26:05Z</time>
      </trkpt>
      <trkpt lat="43.78924" lon="3.14321">
        <ele>510.6</ele>
        <time>2016-04-24T08:26:07Z</time>
      </trkpt>
      <trkpt lat="43.78933" lon="3.14312">
        <ele>510.12</ele>
        <time>2016-04-24T08:26:08Z</time>
      </trkpt>
      <trkpt lat="43.78941" lon="3.14301">
        <ele>509.64</ele>
        <time>2016-04-24T08:26:09Z</time>
      </trkpt>
      <trkpt lat="43.7895" lon="3.14289">
        <ele>509.64</ele>
        <time>2016-04-24T08:26:10Z</time>
      </trkpt>
      <trkpt lat="43.78957" lon="3.14275">
        <ele>509.16</ele>
        <time>2016-04-24T08:26:11Z</time>
      </trkpt>
      <trkpt lat="43.78963" lon="3.14261">
        <ele>508.67</ele>
        <time>2016-04-24T08:26:12Z</time>
      </trkpt>
      <trkpt lat="43.7897" lon="3.14246">
        <ele>508.67</ele>
        <time>2016-04-24T08:26:13Z</time>
      </trkpt>
      <trkpt lat="43.79016" lon="3.14142">
        <ele>508.19</ele>
        <time>2016-04-24T08:26:20Z</time>
      </trkpt>
      <trkpt lat="43.79024" lon="3.14128">
        <ele>508.19</ele>
        <time>2016-04-24T08:26:21Z</time>
      </trkpt>
      <trkpt lat="43.79034" lon="3.14116">
        <ele>508.67</ele>
        <time>2016-04-24T08:26:22Z</time>
      </trkpt>
      <trkpt lat="43.79045" lon="3.14106">
        <ele>508.19</ele>
        <time>2016-04-24T08:26:23Z</time>
      </trkpt>
      <trkpt lat="43.79057" lon="3.14097">
        <ele>508.19</ele>
        <time>2016-04-24T08:26:24Z</time>
      </trkpt>
      <trkpt lat="43.7907" lon="3.14089">
        <ele>508.67</ele>
        <time>2016-04-24T08:26:25Z</time>
      </trkpt>
      <trkpt lat="43.79095" lon="3.14072">
        <ele>508.67</ele>
        <time>2016-04-24T08:26:27Z</time>
      </trkpt>
      <trkpt lat="43.79106" lon="3.1406">
        <ele>508.19</ele>
        <time>2016-04-24T08:26:28Z</time>
      </trkpt>
      <trkpt lat="43.79117" lon="3.14042">
        <ele>507.71</ele>
        <time>2016-04-24T08:26:29Z</time>
      </trkpt>
      <trkpt lat="43.79127" lon="3.14024">
        <ele>507.71</ele>
        <time>2016-04-24T08:26:30Z</time>
      </trkpt>
      <trkpt lat="43.79135" lon="3.14007">
        <ele>507.23</ele>
        <time>2016-04-24T08:26:31Z</time>
      </trkpt>
      <trkpt lat="43.79155" lon="3.13973">
        <ele>506.75</ele>
        <time>2016-04-24T08:26:33Z</time>
      </trkpt>
      <trkpt lat="43.79167" lon="3.13958">
        <ele>506.27</ele>
        <time>2016-04-24T08:26:34Z</time>
      </trkpt>
      <trkpt lat="43.79246" lon="3.13866">
        <ele>502.91</ele>
        <time>2016-04-24T08:26:40Z</time>
      </trkpt>
      <trkpt lat="43.79256" lon="3.13848">
        <ele>502.43</ele>
        <time>2016-04-24T08:26:41Z</time>
      </trkpt>
      <trkpt lat="43.79265" lon="3.13828">
        <ele>502.43</ele>
        <time>2016-04-24T08:26:42Z</time>
      </trkpt>
      <trkpt lat="43.79272" lon="3.13807">
        <ele>501.46</ele>
        <time>2016-04-24T08:26:43Z</time>
      </trkpt>
      <trkpt lat="43.79278" lon="3.13785">
        <ele>500.5</ele>
        <time>2016-04-24T08:26:44Z</time>
      </trkpt>
      <trkpt lat="43.79343" lon="3.13597">
        <ele>495.7</ele>
        <time>2016-04-24T08:26:52Z</time>
      </trkpt>
      <trkpt lat="43.79396" lon="3.13345">
        <ele>489.45</ele>
        <time>2016-04-24T08:27:02Z</time>
      </trkpt>
      <trkpt lat="43.79396" lon="3.13221">
        <ele>485.12</ele>
        <time>2016-04-24T08:27:09Z</time>
      </trkpt>
      <trkpt lat="43.79389" lon="3.13211">
        <ele>484.16</ele>
        <time>2016-04-24T08:27:10Z</time>
      </trkpt>
      <trkpt lat="43.79379" lon="3.13204">
        <ele>484.16</ele>
        <time>2016-04-24T08:27:11Z</time>
      </trkpt>
      <trkpt lat="43.79369" lon="3.13196">
        <ele>484.16</ele>
        <time>2016-04-24T08:27:12Z</time>
      </trkpt>
      <trkpt lat="43.79361" lon="3.13186">
        <ele>483.2</ele>
        <time>2016-04-24T08:27:13Z</time>
      </trkpt>
      <trkpt lat="43.79356" lon="3.13174">
        <ele>483.2</ele>
        <time>2016-04-24T08:27:14Z</time>
      </trkpt>
      <trkpt lat="43.79353" lon="3.1316">
        <ele>483.68</ele>
        <time>2016-04-24T08:27:15Z</time>
      </trkpt>
      <trkpt lat="43.79359" lon="3.13147">
        <ele>483.68</ele>
        <time>2016-04-24T08:27:16Z</time>
      </trkpt>
      <trkpt lat="43.79364" lon="3.13132">
        <ele>483.68</ele>
        <time>2016-04-24T08:27:17Z</time>
      </trkpt>
      <trkpt lat="43.7937" lon="3.13116">
        <ele>483.68</ele>
        <time>2016-04-24T08:27:18Z</time>
      </trkpt>
      <trkpt lat="43.79429" lon="3.13008">
        <ele>484.64</ele>
        <time>2016-04-24T08:27:24Z</time>
      </trkpt>
      <trkpt lat="43.79452" lon="3.12977">
        <ele>484.16</ele>
        <time>2016-04-24T08:27:26Z</time>
      </trkpt>
      <trkpt lat="43.79461" lon="3.1296">
        <ele>483.2</ele>
        <time>2016-04-24T08:27:27Z</time>
      </trkpt>
      <trkpt lat="43.79469" lon="3.12942">
        <ele>482.72</ele>
        <time>2016-04-24T08:27:28Z</time>
      </trkpt>
      <trkpt lat="43.79494" lon="3.12874">
        <ele>481.76</ele>
        <time>2016-04-24T08:27:32Z</time>
      </trkpt>
      <trkpt lat="43.79503" lon="3.12859">
        <ele>481.28</ele>
        <time>2016-04-24T08:27:33Z</time>
      </trkpt>
      <trkpt lat="43.79514" lon="3.12846">
        <ele>480.8</ele>
        <time>2016-04-24T08:27:34Z</time>
      </trkpt>
      <trkpt lat="43.79526" lon="3.12836">
        <ele>480.8</ele>
        <time>2016-04-24T08:27:35Z</time>
      </trkpt>
      <trkpt lat="43.7954" lon="3.12829">
        <ele>480.8</ele>
        <time>2016-04-24T08:27:36Z</time>
      </trkpt>
      <trkpt lat="43.79551" lon="3.12821">
        <ele>480.32</ele>
        <time>2016-04-24T08:27:37Z</time>
      </trkpt>
      <trkpt lat="43.79562" lon="3.12811">
        <ele>480.32</ele>
        <time>2016-04-24T08:27:38Z</time>
      </trkpt>
      <trkpt lat="43.79571" lon="3.12798">
        <ele>480.32</ele>
        <time>2016-04-24T08:27:39Z</time>
      </trkpt>
      <trkpt lat="43.79577" lon="3.1278">
        <ele>479.84</ele>
        <time>2016-04-24T08:27:40Z</time>
      </trkpt>
      <trkpt lat="43.79581" lon="3.1276">
        <ele>479.35</ele>
        <time>2016-04-24T08:27:41Z</time>
      </trkpt>
      <trkpt lat="43.79582" lon="3.12738">
        <ele>478.87</ele>
        <time>2016-04-24T08:27:42Z</time>
      </trkpt>
      <trkpt lat="43.79583" lon="3.12715">
        <ele>478.39</ele>
        <time>2016-04-24T08:27:43Z</time>
      </trkpt>
      <trkpt lat="43.79588" lon="3.1267">
        <ele>478.39</ele>
        <time>2016-04-24T08:27:45Z</time>
      </trkpt>
      <trkpt lat="43.79593" lon="3.12649">
        <ele>477.91</ele>
        <time>2016-04-24T08:27:46Z</time>
      </trkpt>
      <trkpt lat="43.79602" lon="3.12631">
        <ele>477.91</ele>
        <time>2016-04-24T08:27:47Z</time>
      </trkpt>
      <trkpt lat="43.79613" lon="3.12615">
        <ele>477.43</ele>
        <time>2016-04-24T08:27:48Z</time>
      </trkpt>
      <trkpt lat="43.79624" lon="3.12601">
        <ele>477.43</ele>
        <time>2016-04-24T08:27:49Z</time>
      </trkpt>
      <trkpt lat="43.79635" lon="3.12587">
        <ele>476.47</ele>
        <time>2016-04-24T08:27:50Z</time>
      </trkpt>
      <trkpt lat="43.79643" lon="3.1257">
        <ele>475.51</ele>
        <time>2016-04-24T08:27:51Z</time>
      </trkpt>
      <trkpt lat="43.79651" lon="3.12551">
        <ele>474.55</ele>
        <time>2016-04-24T08:27:52Z</time>
      </trkpt>
      <trkpt lat="43.79658" lon="3.12531">
        <ele>474.55</ele>
        <time>2016-04-24T08:27:53Z</time>
      </trkpt>
      <trkpt lat="43.79722" lon="3.12405">
        <ele>469.74</ele>
        <time>2016-04-24T08:27:59Z</time>
      </trkpt>
      <trkpt lat="43.7977" lon="3.12311">
        <ele>464.45</ele>
        <time>2016-04-24T08:28:04Z</time>
      </trkpt>
      <trkpt lat="43.7978" lon="3.12295">
        <ele>463.49</ele>
        <time>2016-04-24T08:28:05Z</time>
      </trkpt>
      <trkpt lat="43.79791" lon="3.12279">
        <ele>462.53</ele>
        <time>2016-04-24T08:28:06Z</time>
      </trkpt>
      <trkpt lat="43.79802" lon="3.12264">
        <ele>462.05</ele>
        <time>2016-04-24T08:28:07Z</time>
      </trkpt>
      <trkpt lat="43.79812" lon="3.12252">
        <ele>461.09</ele>
        <time>2016-04-24T08:28:08Z</time>
      </trkpt>
      <trkpt lat="43.79824" lon="3.12242">
        <ele>461.09</ele>
        <time>2016-04-24T08:28:09Z</time>
      </trkpt>
      <trkpt lat="43.79836" lon="3.12235">
        <ele>461.09</ele>
        <time>2016-04-24T08:28:10Z</time>
      </trkpt>
      <trkpt lat="43.7985" lon="3.12231">
        <ele>460.61</ele>
        <time>2016-04-24T08:28:11Z</time>
      </trkpt>
      <trkpt lat="43.79866" lon="3.12229">
        <ele>460.13</ele>
        <time>2016-04-24T08:28:12Z</time>
      </trkpt>
      <trkpt lat="43.79881" lon="3.12229">
        <ele>458.69</ele>
        <time>2016-04-24T08:28:13Z</time>
      </trkpt>
      <trkpt lat="43.79962" lon="3.12206">
        <ele>454.36</ele>
        <time>2016-04-24T08:28:18Z</time>
      </trkpt>
      <trkpt lat="43.79988" lon="3.12184">
        <ele>451.96</ele>
        <time>2016-04-24T08:28:20Z</time>
      </trkpt>
      <trkpt lat="43.8" lon="3.1217">
        <ele>450.52</ele>
        <time>2016-04-24T08:28:21Z</time>
      </trkpt>
      <trkpt lat="43.80012" lon="3.12154">
        <ele>449.07</ele>
        <time>2016-04-24T08:28:22Z</time>
      </trkpt>
      <trkpt lat="43.80056" lon="3.12096">
        <ele>444.75</ele>
        <time>2016-04-24T08:28:26Z</time>
      </trkpt>
      <trkpt lat="43.80069" lon="3.12089">
        <ele>444.27</ele>
        <time>2016-04-24T08:28:27Z</time>
      </trkpt>
      <trkpt lat="43.80081" lon="3.12083">
        <ele>443.79</ele>
        <time>2016-04-24T08:28:28Z</time>
      </trkpt>
      <trkpt lat="43.80095" lon="3.12079">
        <ele>443.31</ele>
        <time>2016-04-24T08:28:29Z</time>
      </trkpt>
      <trkpt lat="43.80112" lon="3.12074">
        <ele>444.27</ele>
        <time>2016-04-24T08:28:30Z</time>
      </trkpt>
      <trkpt lat="43.80197" lon="3.12039">
        <ele>440.9</ele>
        <time>2016-04-24T08:28:38Z</time>
      </trkpt>
      <trkpt lat="43.80215" lon="3.12027">
        <ele>443.31</ele>
        <time>2016-04-24T08:28:46Z</time>
      </trkpt>
      <trkpt lat="43.80227" lon="3.12007">
        <ele>443.79</ele>
        <time>2016-04-24T08:28:53Z</time>
      </trkpt>
      <trkpt lat="43.80228" lon="3.11997">
        <ele>443.31</ele>
        <time>2016-04-24T08:28:54Z</time>
      </trkpt>
      <trkpt lat="43.80237" lon="3.11855">
        <ele>443.31</ele>
        <time>2016-04-24T08:29:04Z</time>
      </trkpt>
      <trkpt lat="43.80245" lon="3.11683">
        <ele>442.82</ele>
        <time>2016-04-24T08:29:14Z</time>
      </trkpt>
      <trkpt lat="43.80245" lon="3.11651">
        <ele>442.82</ele>
        <time>2016-04-24T08:29:17Z</time>
      </trkpt>
      <trkpt lat="43.80253" lon="3.11564">
        <ele>442.34</ele>
        <time>2016-04-24T08:29:24Z</time>
      </trkpt>
      <trkpt lat="43.80293" lon="3.11413">
        <ele>443.79</ele>
        <time>2016-04-24T08:29:34Z</time>
      </trkpt>
      <trkpt lat="43.80301" lon="3.11368">
        <ele>443.79</ele>
        <time>2016-04-24T08:29:37Z</time>
      </trkpt>
      <trkpt lat="43.80302" lon="3.11353">
        <ele>444.27</ele>
        <time>2016-04-24T08:29:38Z</time>
      </trkpt>
      <trkpt lat="43.80301" lon="3.11339">
        <ele>444.27</ele>
        <time>2016-04-24T08:29:39Z</time>
      </trkpt>
      <trkpt lat="43.80291" lon="3.11242">
        <ele>445.23</ele>
        <time>2016-04-24T08:29:47Z</time>
      </trkpt>
      <trkpt lat="43.80291" lon="3.11216">
        <ele>445.71</ele>
        <time>2016-04-24T08:29:53Z</time>
      </trkpt>
      <trkpt lat="43.80288" lon="3.11135">
        <ele>446.19</ele>
        <time>2016-04-24T08:30:01Z</time>
      </trkpt>
      <trkpt lat="43.80298" lon="3.10994">
        <ele>445.23</ele>
        <time>2016-04-24T08:30:12Z</time>
      </trkpt>
      <trkpt lat="43.80304" lon="3.10892">
        <ele>444.27</ele>
        <time>2016-04-24T08:30:21Z</time>
      </trkpt>
      <trkpt lat="43.80312" lon="3.10766">
        <ele>441.86</ele>
        <time>2016-04-24T08:30:28Z</time>
      </trkpt>
      <trkpt lat="43.80319" lon="3.10495">
        <ele>439.94</ele>
        <time>2016-04-24T08:30:40Z</time>
      </trkpt>
      <trkpt lat="43.80327" lon="3.10289">
        <ele>440.42</ele>
        <time>2016-04-24T08:30:49Z</time>
      </trkpt>
      <trkpt lat="43.80336" lon="3.10083">
        <ele>440.9</ele>
        <time>2016-04-24T08:30:58Z</time>
      </trkpt>
      <trkpt lat="43.80345" lon="3.09839">
        <ele>440.42</ele>
        <time>2016-04-24T08:31:08Z</time>
      </trkpt>
      <trkpt lat="43.80343" lon="3.09783">
        <ele>441.38</ele>
        <time>2016-04-24T08:31:11Z</time>
      </trkpt>
      <trkpt lat="43.80335" lon="3.0977">
        <ele>441.38</ele>
        <time>2016-04-24T08:31:12Z</time>
      </trkpt>
      <trkpt lat="43.80324" lon="3.09765">
        <ele>440.9</ele>
        <time>2016-04-24T08:31:13Z</time>
      </trkpt>
      <trkpt lat="43.80311" lon="3.09758">
        <ele>440.9</ele>
        <time>2016-04-24T08:31:14Z</time>
      </trkpt>
      <trkpt lat="43.80296" lon="3.09759">
        <ele>440.9</ele>
        <time>2016-04-24T08:31:15Z</time>
      </trkpt>
      <trkpt lat="43.80283" lon="3.0976">
        <ele>440.9</ele>
        <time>2016-04-24T08:31:16Z</time>
      </trkpt>
      <trkpt lat="43.80265" lon="3.09763">
        <ele>442.82</ele>
        <time>2016-04-24T08:31:17Z</time>
      </trkpt>
      <trkpt lat="43.8025" lon="3.09761">
        <ele>444.27</ele>
        <time>2016-04-24T08:31:18Z</time>
      </trkpt>
      <trkpt lat="43.80236" lon="3.09756">
        <ele>445.23</ele>
        <time>2016-04-24T08:31:19Z</time>
      </trkpt>
      <trkpt lat="43.80224" lon="3.09748">
        <ele>446.67</ele>
        <time>2016-04-24T08:31:20Z</time>
      </trkpt>
      <trkpt lat="43.80214" lon="3.09737">
        <ele>447.63</ele>
        <time>2016-04-24T08:31:21Z</time>
      </trkpt>
      <trkpt lat="43.80207" lon="3.09722">
        <ele>447.15</ele>
        <time>2016-04-24T08:31:22Z</time>
      </trkpt>
      <trkpt lat="43.80204" lon="3.097">
        <ele>447.63</ele>
        <time>2016-04-24T08:31:23Z</time>
      </trkpt>
      <trkpt lat="43.80201" lon="3.09678">
        <ele>448.59</ele>
        <time>2016-04-24T08:31:24Z</time>
      </trkpt>
      <trkpt lat="43.80198" lon="3.09655">
        <ele>449.55</ele>
        <time>2016-04-24T08:31:25Z</time>
      </trkpt>
      <trkpt lat="43.80191" lon="3.09632">
        <ele>450.03</ele>
        <time>2016-04-24T08:31:26Z</time>
      </trkpt>
      <trkpt lat="43.80182" lon="3.09611">
        <ele>451</ele>
        <time>2016-04-24T08:31:27Z</time>
      </trkpt>
      <trkpt lat="43.80173" lon="3.09591">
        <ele>451.96</ele>
        <time>2016-04-24T08:31:28Z</time>
      </trkpt>
      <trkpt lat="43.8016" lon="3.09556">
        <ele>453.4</ele>
        <time>2016-04-24T08:31:30Z</time>
      </trkpt>
      <trkpt lat="43.80161" lon="3.09537">
        <ele>453.88</ele>
        <time>2016-04-24T08:31:31Z</time>
      </trkpt>
      <trkpt lat="43.80168" lon="3.09521">
        <ele>453.88</ele>
        <time>2016-04-24T08:31:32Z</time>
      </trkpt>
      <trkpt lat="43.80179" lon="3.09508">
        <ele>454.84</ele>
        <time>2016-04-24T08:31:33Z</time>
      </trkpt>
      <trkpt lat="43.80194" lon="3.095">
        <ele>455.32</ele>
        <time>2016-04-24T08:31:34Z</time>
      </trkpt>
      <trkpt lat="43.8021" lon="3.09491">
        <ele>455.8</ele>
        <time>2016-04-24T08:31:35Z</time>
      </trkpt>
      <trkpt lat="43.80223" lon="3.09475">
        <ele>457.24</ele>
        <time>2016-04-24T08:31:36Z</time>
      </trkpt>
      <trkpt lat="43.80234" lon="3.09454">
        <ele>458.21</ele>
        <time>2016-04-24T08:31:37Z</time>
      </trkpt>
      <trkpt lat="43.80243" lon="3.09428">
        <ele>460.61</ele>
        <time>2016-04-24T08:31:38Z</time>
      </trkpt>
      <trkpt lat="43.80253" lon="3.09401">
        <ele>461.57</ele>
        <time>2016-04-24T08:31:39Z</time>
      </trkpt>
      <trkpt lat="43.80305" lon="3.09235">
        <ele>470.22</ele>
        <time>2016-04-24T08:31:46Z</time>
      </trkpt>
      <trkpt lat="43.80287" lon="3.09207">
        <ele>473.59</ele>
        <time>2016-04-24T08:31:49Z</time>
      </trkpt>
      <trkpt lat="43.80273" lon="3.09209">
        <ele>475.03</ele>
        <time>2016-04-24T08:31:50Z</time>
      </trkpt>
      <trkpt lat="43.80259" lon="3.09208">
        <ele>476.47</ele>
        <time>2016-04-24T08:31:51Z</time>
      </trkpt>
      <trkpt lat="43.80238" lon="3.09213">
        <ele>479.35</ele>
        <time>2016-04-24T08:31:52Z</time>
      </trkpt>
      <trkpt lat="43.80219" lon="3.09219">
        <ele>480.32</ele>
        <time>2016-04-24T08:31:53Z</time>
      </trkpt>
      <trkpt lat="43.80202" lon="3.09231">
        <ele>480.8</ele>
        <time>2016-04-24T08:31:54Z</time>
      </trkpt>
      <trkpt lat="43.80185" lon="3.09246">
        <ele>481.76</ele>
        <time>2016-04-24T08:31:55Z</time>
      </trkpt>
      <trkpt lat="43.80168" lon="3.09262">
        <ele>482.72</ele>
        <time>2016-04-24T08:31:56Z</time>
      </trkpt>
      <trkpt lat="43.80058" lon="3.09342">
        <ele>489.45</ele>
        <time>2016-04-24T08:32:03Z</time>
      </trkpt>
      <trkpt lat="43.80045" lon="3.09345">
        <ele>490.41</ele>
        <time>2016-04-24T08:32:04Z</time>
      </trkpt>
      <trkpt lat="43.80033" lon="3.09341">
        <ele>491.37</ele>
        <time>2016-04-24T08:32:05Z</time>
      </trkpt>
      <trkpt lat="43.80022" lon="3.0933">
        <ele>492.33</ele>
        <time>2016-04-24T08:32:06Z</time>
      </trkpt>
      <trkpt lat="43.80015" lon="3.09314">
        <ele>493.29</ele>
        <time>2016-04-24T08:32:07Z</time>
      </trkpt>
      <trkpt lat="43.80011" lon="3.09294">
        <ele>493.77</ele>
        <time>2016-04-24T08:32:08Z</time>
      </trkpt>
      <trkpt lat="43.80017" lon="3.09267">
        <ele>493.77</ele>
        <time>2016-04-24T08:32:09Z</time>
      </trkpt>
      <trkpt lat="43.80022" lon="3.09243">
        <ele>493.29</ele>
        <time>2016-04-24T08:32:10Z</time>
      </trkpt>
      <trkpt lat="43.80031" lon="3.09221">
        <ele>493.77</ele>
        <time>2016-04-24T08:32:11Z</time>
      </trkpt>
      <trkpt lat="43.80043" lon="3.09201">
        <ele>494.26</ele>
        <time>2016-04-24T08:32:12Z</time>
      </trkpt>
      <trkpt lat="43.80056" lon="3.0918">
        <ele>494.26</ele>
        <time>2016-04-24T08:32:13Z</time>
      </trkpt>
      <trkpt lat="43.80093" lon="3.09114">
        <ele>496.18</ele>
        <time>2016-04-24T08:32:16Z</time>
      </trkpt>
      <trkpt lat="43.80107" lon="3.09095">
        <ele>497.14</ele>
        <time>2016-04-24T08:32:17Z</time>
      </trkpt>
      <trkpt lat="43.80122" lon="3.09078">
        <ele>498.1</ele>
        <time>2016-04-24T08:32:18Z</time>
      </trkpt>
      <trkpt lat="43.80138" lon="3.09062">
        <ele>499.06</ele>
        <time>2016-04-24T08:32:19Z</time>
      </trkpt>
      <trkpt lat="43.80155" lon="3.09049">
        <ele>500.02</ele>
        <time>2016-04-24T08:32:20Z</time>
      </trkpt>
      <trkpt lat="43.80173" lon="3.09038">
        <ele>500.98</ele>
        <time>2016-04-24T08:32:21Z</time>
      </trkpt>
      <trkpt lat="43.80192" lon="3.09029">
        <ele>501.46</ele>
        <time>2016-04-24T08:32:22Z</time>
      </trkpt>
      <trkpt lat="43.80212" lon="3.09022">
        <ele>502.43</ele>
        <time>2016-04-24T08:32:23Z</time>
      </trkpt>
      <trkpt lat="43.8023" lon="3.09013">
        <ele>503.39</ele>
        <time>2016-04-24T08:32:24Z</time>
      </trkpt>
      <trkpt lat="43.80247" lon="3.09">
        <ele>504.83</ele>
        <time>2016-04-24T08:32:25Z</time>
      </trkpt>
      <trkpt lat="43.8026" lon="3.08986">
        <ele>505.31</ele>
        <time>2016-04-24T08:32:26Z</time>
      </trkpt>
      <trkpt lat="43.8027" lon="3.08969">
        <ele>505.79</ele>
        <time>2016-04-24T08:32:27Z</time>
      </trkpt>
      <trkpt lat="43.80272" lon="3.08945">
        <ele>506.75</ele>
        <time>2016-04-24T08:32:28Z</time>
      </trkpt>
      <trkpt lat="43.80274" lon="3.08922">
        <ele>507.71</ele>
        <time>2016-04-24T08:32:29Z</time>
      </trkpt>
      <trkpt lat="43.80278" lon="3.08898">
        <ele>509.16</ele>
        <time>2016-04-24T08:32:30Z</time>
      </trkpt>
      <trkpt lat="43.80285" lon="3.08874">
        <ele>510.12</ele>
        <time>2016-04-24T08:32:31Z</time>
      </trkpt>
      <trkpt lat="43.80296" lon="3.08852">
        <ele>511.08</ele>
        <time>2016-04-24T08:32:32Z</time>
      </trkpt>
      <trkpt lat="43.80313" lon="3.08836">
        <ele>510.6</ele>
        <time>2016-04-24T08:32:33Z</time>
      </trkpt>
      <trkpt lat="43.80328" lon="3.08819">
        <ele>511.56</ele>
        <time>2016-04-24T08:32:34Z</time>
      </trkpt>
      <trkpt lat="43.80344" lon="3.08805">
        <ele>513</ele>
        <time>2016-04-24T08:32:35Z</time>
      </trkpt>
      <trkpt lat="43.80358" lon="3.08789">
        <ele>513.96</ele>
        <time>2016-04-24T08:32:36Z</time>
      </trkpt>
      <trkpt lat="43.80368" lon="3.08772">
        <ele>514.92</ele>
        <time>2016-04-24T08:32:37Z</time>
      </trkpt>
      <trkpt lat="43.80373" lon="3.08753">
        <ele>515.88</ele>
        <time>2016-04-24T08:32:38Z</time>
      </trkpt>
      <trkpt lat="43.80373" lon="3.08735">
        <ele>517.33</ele>
        <time>2016-04-24T08:32:39Z</time>
      </trkpt>
      <trkpt lat="43.80371" lon="3.08714">
        <ele>517.33</ele>
        <time>2016-04-24T08:32:40Z</time>
      </trkpt>
      <trkpt lat="43.80367" lon="3.08693">
        <ele>517.33</ele>
        <time>2016-04-24T08:32:41Z</time>
      </trkpt>
      <trkpt lat="43.8036" lon="3.08672">
        <ele>518.29</ele>
        <time>2016-04-24T08:32:42Z</time>
      </trkpt>
      <trkpt lat="43.80354" lon="3.08655">
        <ele>519.25</ele>
        <time>2016-04-24T08:32:43Z</time>
      </trkpt>
      <trkpt lat="43.80347" lon="3.08628">
        <ele>521.65</ele>
        <time>2016-04-24T08:32:45Z</time>
      </trkpt>
      <trkpt lat="43.80348" lon="3.08617">
        <ele>522.61</ele>
        <time>2016-04-24T08:32:46Z</time>
      </trkpt>
      <trkpt lat="43.80357" lon="3.08618">
        <ele>524.06</ele>
        <time>2016-04-24T08:32:47Z</time>
      </trkpt>
      <trkpt lat="43.80364" lon="3.08622">
        <ele>524.54</ele>
        <time>2016-04-24T08:32:48Z</time>
      </trkpt>
      <trkpt lat="43.80369" lon="3.08633">
        <ele>525.02</ele>
        <time>2016-04-24T08:32:49Z</time>
      </trkpt>
      <trkpt lat="43.80372" lon="3.08648">
        <ele>525.98</ele>
        <time>2016-04-24T08:32:50Z</time>
      </trkpt>
      <trkpt lat="43.80375" lon="3.08662">
        <ele>526.46</ele>
        <time>2016-04-24T08:32:51Z</time>
      </trkpt>
      <trkpt lat="43.80382" lon="3.08677">
        <ele>526.94</ele>
        <time>2016-04-24T08:32:52Z</time>
      </trkpt>
      <trkpt lat="43.80398" lon="3.087">
        <ele>527.42</ele>
        <time>2016-04-24T08:32:54Z</time>
      </trkpt>
      <trkpt lat="43.8041" lon="3.08703">
        <ele>527.9</ele>
        <time>2016-04-24T08:32:55Z</time>
      </trkpt>
      <trkpt lat="43.80425" lon="3.08705">
        <ele>529.34</ele>
        <time>2016-04-24T08:32:56Z</time>
      </trkpt>
      <trkpt lat="43.80443" lon="3.08704">
        <ele>529.82</ele>
        <time>2016-04-24T08:32:57Z</time>
      </trkpt>
      <trkpt lat="43.8046" lon="3.08704">
        <ele>529.82</ele>
        <time>2016-04-24T08:32:58Z</time>
      </trkpt>
      <trkpt lat="43.80479" lon="3.08699">
        <ele>530.79</ele>
        <time>2016-04-24T08:32:59Z</time>
      </trkpt>
      <trkpt lat="43.80495" lon="3.08689">
        <ele>530.79</ele>
        <time>2016-04-24T08:33:00Z</time>
      </trkpt>
      <trkpt lat="43.80511" lon="3.08678">
        <ele>531.75</ele>
        <time>2016-04-24T08:33:01Z</time>
      </trkpt>
      <trkpt lat="43.80524" lon="3.08666">
        <ele>533.19</ele>
        <time>2016-04-24T08:33:02Z</time>
      </trkpt>
      <trkpt lat="43.80535" lon="3.08655">
        <ele>534.15</ele>
        <time>2016-04-24T08:33:03Z</time>
      </trkpt>
      <trkpt lat="43.80558" lon="3.08652">
        <ele>534.15</ele>
        <time>2016-04-24T08:33:05Z</time>
      </trkpt>
      <trkpt lat="43.80568" lon="3.08665">
        <ele>537.03</ele>
        <time>2016-04-24T08:33:06Z</time>
      </trkpt>
      <trkpt lat="43.80578" lon="3.08677">
        <ele>538.48</ele>
        <time>2016-04-24T08:33:07Z</time>
      </trkpt>
      <trkpt lat="43.80591" lon="3.08686">
        <ele>539.92</ele>
        <time>2016-04-24T08:33:08Z</time>
      </trkpt>
      <trkpt lat="43.80605" lon="3.08688">
        <ele>540.88</ele>
        <time>2016-04-24T08:33:09Z</time>
      </trkpt>
      <trkpt lat="43.80619" lon="3.08684">
        <ele>541.84</ele>
        <time>2016-04-24T08:33:10Z</time>
      </trkpt>
      <trkpt lat="43.80631" lon="3.08674">
        <ele>542.32</ele>
        <time>2016-04-24T08:33:11Z</time>
      </trkpt>
      <trkpt lat="43.80642" lon="3.08657">
        <ele>543.28</ele>
        <time>2016-04-24T08:33:12Z</time>
      </trkpt>
      <trkpt lat="43.80655" lon="3.08639">
        <ele>545.2</ele>
        <time>2016-04-24T08:33:13Z</time>
      </trkpt>
      <trkpt lat="43.80667" lon="3.08617">
        <ele>546.17</ele>
        <time>2016-04-24T08:33:14Z</time>
      </trkpt>
      <trkpt lat="43.8068" lon="3.08595">
        <ele>548.09</ele>
        <time>2016-04-24T08:33:15Z</time>
      </trkpt>
      <trkpt lat="43.80695" lon="3.08574">
        <ele>549.53</ele>
        <time>2016-04-24T08:33:16Z</time>
      </trkpt>
      <trkpt lat="43.80712" lon="3.08554">
        <ele>550.97</ele>
        <time>2016-04-24T08:33:17Z</time>
      </trkpt>
      <trkpt lat="43.80809" lon="3.0847">
        <ele>560.11</ele>
        <time>2016-04-24T08:33:23Z</time>
      </trkpt>
      <trkpt lat="43.8083" lon="3.08445">
        <ele>561.55</ele>
        <time>2016-04-24T08:33:25Z</time>
      </trkpt>
      <trkpt lat="43.80841" lon="3.08435">
        <ele>562.03</ele>
        <time>2016-04-24T08:33:26Z</time>
      </trkpt>
      <trkpt lat="43.80855" lon="3.08427">
        <ele>562.99</ele>
        <time>2016-04-24T08:33:27Z</time>
      </trkpt>
      <trkpt lat="43.8087" lon="3.08421">
        <ele>563.47</ele>
        <time>2016-04-24T08:33:28Z</time>
      </trkpt>
      <trkpt lat="43.80887" lon="3.08417">
        <ele>563.47</ele>
        <time>2016-04-24T08:33:29Z</time>
      </trkpt>
      <trkpt lat="43.80906" lon="3.08414">
        <ele>563.95</ele>
        <time>2016-04-24T08:33:30Z</time>
      </trkpt>
      <trkpt lat="43.80979" lon="3.08402">
        <ele>564.43</ele>
        <time>2016-04-24T08:33:34Z</time>
      </trkpt>
      <trkpt lat="43.81026" lon="3.08397">
        <ele>562.51</ele>
        <time>2016-04-24T08:33:37Z</time>
      </trkpt>
      <trkpt lat="43.81102" lon="3.08376">
        <ele>560.11</ele>
        <time>2016-04-24T08:33:42Z</time>
      </trkpt>
      <trkpt lat="43.81117" lon="3.08378">
        <ele>559.14</ele>
        <time>2016-04-24T08:33:43Z</time>
      </trkpt>
      <trkpt lat="43.81133" lon="3.08384">
        <ele>558.66</ele>
        <time>2016-04-24T08:33:44Z</time>
      </trkpt>
      <trkpt lat="43.81166" lon="3.08401">
        <ele>554.34</ele>
        <time>2016-04-24T08:33:46Z</time>
      </trkpt>
      <trkpt lat="43.81184" lon="3.08414">
        <ele>552.9</ele>
        <time>2016-04-24T08:33:47Z</time>
      </trkpt>
      <trkpt lat="43.81201" lon="3.08424">
        <ele>552.41</ele>
        <time>2016-04-24T08:33:48Z</time>
      </trkpt>
      <trkpt lat="43.8122" lon="3.08433">
        <ele>551.93</ele>
        <time>2016-04-24T08:33:49Z</time>
      </trkpt>
      <trkpt lat="43.81239" lon="3.0844">
        <ele>551.45</ele>
        <time>2016-04-24T08:33:50Z</time>
      </trkpt>
      <trkpt lat="43.81258" lon="3.08445">
        <ele>551.45</ele>
        <time>2016-04-24T08:33:51Z</time>
      </trkpt>
      <trkpt lat="43.81278" lon="3.08447">
        <ele>550.97</ele>
        <time>2016-04-24T08:33:52Z</time>
      </trkpt>
      <trkpt lat="43.813" lon="3.08443">
        <ele>550.97</ele>
        <time>2016-04-24T08:33:53Z</time>
      </trkpt>
      <trkpt lat="43.81321" lon="3.08438">
        <ele>550.49</ele>
        <time>2016-04-24T08:33:54Z</time>
      </trkpt>
      <trkpt lat="43.81344" lon="3.0843">
        <ele>549.53</ele>
        <time>2016-04-24T08:33:55Z</time>
      </trkpt>
      <trkpt lat="43.81365" lon="3.08419">
        <ele>550.01</ele>
        <time>2016-04-24T08:33:56Z</time>
      </trkpt>
      <trkpt lat="43.81386" lon="3.08408">
        <ele>550.01</ele>
        <time>2016-04-24T08:33:57Z</time>
      </trkpt>
      <trkpt lat="43.81526" lon="3.08337">
        <ele>550.01</ele>
        <time>2016-04-24T08:34:05Z</time>
      </trkpt>
      <trkpt lat="43.81535" lon="3.08324">
        <ele>550.49</ele>
        <time>2016-04-24T08:34:06Z</time>
      </trkpt>
      <trkpt lat="43.81553" lon="3.08296">
        <ele>550.01</ele>
        <time>2016-04-24T08:34:08Z</time>
      </trkpt>
      <trkpt lat="43.81565" lon="3.08286">
        <ele>550.01</ele>
        <time>2016-04-24T08:34:09Z</time>
      </trkpt>
      <trkpt lat="43.8158" lon="3.08277">
        <ele>550.97</ele>
        <time>2016-04-24T08:34:10Z</time>
      </trkpt>
      <trkpt lat="43.81598" lon="3.08272">
        <ele>550.97</ele>
        <time>2016-04-24T08:34:11Z</time>
      </trkpt>
      <trkpt lat="43.81615" lon="3.0827">
        <ele>551.45</ele>
        <time>2016-04-24T08:34:12Z</time>
      </trkpt>
      <trkpt lat="43.81632" lon="3.08266">
        <ele>550.97</ele>
        <time>2016-04-24T08:34:13Z</time>
      </trkpt>
      <trkpt lat="43.81646" lon="3.08261">
        <ele>550.97</ele>
        <time>2016-04-24T08:34:14Z</time>
      </trkpt>
      <trkpt lat="43.81657" lon="3.08253">
        <ele>550.97</ele>
        <time>2016-04-24T08:34:15Z</time>
      </trkpt>
      <trkpt lat="43.81667" lon="3.08244">
        <ele>550.97</ele>
        <time>2016-04-24T08:34:16Z</time>
      </trkpt>
      <trkpt lat="43.81668" lon="3.08231">
        <ele>550.49</ele>
        <time>2016-04-24T08:34:17Z</time>
      </trkpt>
      <trkpt lat="43.81666" lon="3.08215">
        <ele>550.01</ele>
        <time>2016-04-24T08:34:18Z</time>
      </trkpt>
      <trkpt lat="43.81661" lon="3.08199">
        <ele>550.01</ele>
        <time>2016-04-24T08:34:19Z</time>
      </trkpt>
      <trkpt lat="43.81656" lon="3.0818">
        <ele>550.97</ele>
        <time>2016-04-24T08:34:20Z</time>
      </trkpt>
      <trkpt lat="43.81653" lon="3.08156">
        <ele>550.97</ele>
        <time>2016-04-24T08:34:21Z</time>
      </trkpt>
      <trkpt lat="43.81656" lon="3.08132">
        <ele>552.9</ele>
        <time>2016-04-24T08:34:22Z</time>
      </trkpt>
      <trkpt lat="43.81663" lon="3.08109">
        <ele>553.38</ele>
        <time>2016-04-24T08:34:23Z</time>
      </trkpt>
      <trkpt lat="43.81672" lon="3.08088">
        <ele>554.34</ele>
        <time>2016-04-24T08:34:24Z</time>
      </trkpt>
      <trkpt lat="43.81682" lon="3.0807">
        <ele>555.3</ele>
        <time>2016-04-24T08:34:25Z</time>
      </trkpt>
      <trkpt lat="43.81692" lon="3.08052">
        <ele>555.78</ele>
        <time>2016-04-24T08:34:26Z</time>
      </trkpt>
      <trkpt lat="43.817" lon="3.08033">
        <ele>557.22</ele>
        <time>2016-04-24T08:34:27Z</time>
      </trkpt>
      <trkpt lat="43.81703" lon="3.0801">
        <ele>558.18</ele>
        <time>2016-04-24T08:34:28Z</time>
      </trkpt>
      <trkpt lat="43.81704" lon="3.07986">
        <ele>558.18</ele>
        <time>2016-04-24T08:34:29Z</time>
      </trkpt>
      <trkpt lat="43.81701" lon="3.07961">
        <ele>559.14</ele>
        <time>2016-04-24T08:34:30Z</time>
      </trkpt>
      <trkpt lat="43.81695" lon="3.07932">
        <ele>559.62</ele>
        <time>2016-04-24T08:34:31Z</time>
      </trkpt>
      <trkpt lat="43.81687" lon="3.07899">
        <ele>560.59</ele>
        <time>2016-04-24T08:34:32Z</time>
      </trkpt>
      <trkpt lat="43.81681" lon="3.0787">
        <ele>561.07</ele>
        <time>2016-04-24T08:34:33Z</time>
      </trkpt>
      <trkpt lat="43.81657" lon="3.07777">
        <ele>564.43</ele>
        <time>2016-04-24T08:34:37Z</time>
      </trkpt>
      <trkpt lat="43.8164" lon="3.07744">
        <ele>567.32</ele>
        <time>2016-04-24T08:34:40Z</time>
      </trkpt>
      <trkpt lat="43.81632" lon="3.07739">
        <ele>567.32</ele>
        <time>2016-04-24T08:34:41Z</time>
      </trkpt>
      <trkpt lat="43.81622" lon="3.07738">
        <ele>567.32</ele>
        <time>2016-04-24T08:34:42Z</time>
      </trkpt>
      <trkpt lat="43.81613" lon="3.07744">
        <ele>567.32</ele>
        <time>2016-04-24T08:34:43Z</time>
      </trkpt>
      <trkpt lat="43.81606" lon="3.07758">
        <ele>567.32</ele>
        <time>2016-04-24T08:34:44Z</time>
      </trkpt>
      <trkpt lat="43.81602" lon="3.07776">
        <ele>567.8</ele>
        <time>2016-04-24T08:34:45Z</time>
      </trkpt>
      <trkpt lat="43.81599" lon="3.07801">
        <ele>571.16</ele>
        <time>2016-04-24T08:34:46Z</time>
      </trkpt>
      <trkpt lat="43.81585" lon="3.0788">
        <ele>575.97</ele>
        <time>2016-04-24T08:34:49Z</time>
      </trkpt>
      <trkpt lat="43.81576" lon="3.07906">
        <ele>576.93</ele>
        <time>2016-04-24T08:34:50Z</time>
      </trkpt>
      <trkpt lat="43.81538" lon="3.08036">
        <ele>581.73</ele>
        <time>2016-04-24T08:34:56Z</time>
      </trkpt>
      <trkpt lat="43.81529" lon="3.08081">
        <ele>584.14</ele>
        <time>2016-04-24T08:34:59Z</time>
      </trkpt>
      <trkpt lat="43.81525" lon="3.08087">
        <ele>584.62</ele>
        <time>2016-04-24T08:35:00Z</time>
      </trkpt>
      <trkpt lat="43.81515" lon="3.08079">
        <ele>585.1</ele>
        <time>2016-04-24T08:35:02Z</time>
      </trkpt>
      <trkpt lat="43.81513" lon="3.08068">
        <ele>585.1</ele>
        <time>2016-04-24T08:35:03Z</time>
      </trkpt>
      <trkpt lat="43.81515" lon="3.08053">
        <ele>585.1</ele>
        <time>2016-04-24T08:35:04Z</time>
      </trkpt>
      <trkpt lat="43.8152" lon="3.08036">
        <ele>585.58</ele>
        <time>2016-04-24T08:35:05Z</time>
      </trkpt>
      <trkpt lat="43.81524" lon="3.08015">
        <ele>587.02</ele>
        <time>2016-04-24T08:35:06Z</time>
      </trkpt>
      <trkpt lat="43.81526" lon="3.07991">
        <ele>587.5</ele>
        <time>2016-04-24T08:35:07Z</time>
      </trkpt>
      <trkpt lat="43.81527" lon="3.07966">
        <ele>588.46</ele>
        <time>2016-04-24T08:35:08Z</time>
      </trkpt>
      <trkpt lat="43.81551" lon="3.07727">
        <ele>598.08</ele>
        <time>2016-04-24T08:35:17Z</time>
      </trkpt>
      <trkpt lat="43.81551" lon="3.07703">
        <ele>599.04</ele>
        <time>2016-04-24T08:35:18Z</time>
      </trkpt>
      <trkpt lat="43.81548" lon="3.07679">
        <ele>600</ele>
        <time>2016-04-24T08:35:19Z</time>
      </trkpt>
      <trkpt lat="43.81543" lon="3.07656">
        <ele>600.96</ele>
        <time>2016-04-24T08:35:20Z</time>
      </trkpt>
      <trkpt lat="43.81536" lon="3.07632">
        <ele>601.92</ele>
        <time>2016-04-24T08:35:21Z</time>
      </trkpt>
      <trkpt lat="43.81528" lon="3.07608">
        <ele>602.88</ele>
        <time>2016-04-24T08:35:22Z</time>
      </trkpt>
      <trkpt lat="43.8151" lon="3.07497">
        <ele>608.17</ele>
        <time>2016-04-24T08:35:27Z</time>
      </trkpt>
      <trkpt lat="43.81514" lon="3.07483">
        <ele>608.17</ele>
        <time>2016-04-24T08:35:28Z</time>
      </trkpt>
      <trkpt lat="43.81525" lon="3.07474">
        <ele>608.65</ele>
        <time>2016-04-24T08:35:29Z</time>
      </trkpt>
      <trkpt lat="43.81538" lon="3.07467">
        <ele>609.61</ele>
        <time>2016-04-24T08:35:30Z</time>
      </trkpt>
      <trkpt lat="43.81553" lon="3.0746">
        <ele>609.61</ele>
        <time>2016-04-24T08:35:31Z</time>
      </trkpt>
      <trkpt lat="43.81569" lon="3.07449">
        <ele>610.57</ele>
        <time>2016-04-24T08:35:32Z</time>
      </trkpt>
      <trkpt lat="43.81583" lon="3.07437">
        <ele>611.06</ele>
        <time>2016-04-24T08:35:33Z</time>
      </trkpt>
      <trkpt lat="43.81609" lon="3.07413">
        <ele>612.5</ele>
        <time>2016-04-24T08:35:35Z</time>
      </trkpt>
      <trkpt lat="43.81623" lon="3.07411">
        <ele>613.46</ele>
        <time>2016-04-24T08:35:36Z</time>
      </trkpt>
      <trkpt lat="43.81637" lon="3.07415">
        <ele>613.94</ele>
        <time>2016-04-24T08:35:37Z</time>
      </trkpt>
      <trkpt lat="43.81651" lon="3.07423">
        <ele>614.9</ele>
        <time>2016-04-24T08:35:38Z</time>
      </trkpt>
      <trkpt lat="43.81663" lon="3.0743">
        <ele>615.86</ele>
        <time>2016-04-24T08:35:39Z</time>
      </trkpt>
      <trkpt lat="43.81676" lon="3.07433">
        <ele>616.82</ele>
        <time>2016-04-24T08:35:40Z</time>
      </trkpt>
      <trkpt lat="43.81689" lon="3.07429">
        <ele>617.78</ele>
        <time>2016-04-24T08:35:41Z</time>
      </trkpt>
      <trkpt lat="43.81702" lon="3.07417">
        <ele>617.78</ele>
        <time>2016-04-24T08:35:42Z</time>
      </trkpt>
      <trkpt lat="43.81711" lon="3.074">
        <ele>618.26</ele>
        <time>2016-04-24T08:35:43Z</time>
      </trkpt>
      <trkpt lat="43.81718" lon="3.07381">
        <ele>619.23</ele>
        <time>2016-04-24T08:35:44Z</time>
      </trkpt>
      <trkpt lat="43.81722" lon="3.07357">
        <ele>620.67</ele>
        <time>2016-04-24T08:35:45Z</time>
      </trkpt>
      <trkpt lat="43.81724" lon="3.07331">
        <ele>622.11</ele>
        <time>2016-04-24T08:35:46Z</time>
      </trkpt>
      <trkpt lat="43.81725" lon="3.07303">
        <ele>623.07</ele>
        <time>2016-04-24T08:35:47Z</time>
      </trkpt>
      <trkpt lat="43.81727" lon="3.07273">
        <ele>624.03</ele>
        <time>2016-04-24T08:35:48Z</time>
      </trkpt>
      <trkpt lat="43.8173" lon="3.07245">
        <ele>624.99</ele>
        <time>2016-04-24T08:35:49Z</time>
      </trkpt>
      <trkpt lat="43.81734" lon="3.07151">
        <ele>629.8</ele>
        <time>2016-04-24T08:35:53Z</time>
      </trkpt>
      <trkpt lat="43.81731" lon="3.0713">
        <ele>631.24</ele>
        <time>2016-04-24T08:35:54Z</time>
      </trkpt>
      <trkpt lat="43.81726" lon="3.07107">
        <ele>632.2</ele>
        <time>2016-04-24T08:35:55Z</time>
      </trkpt>
      <trkpt lat="43.81691" lon="3.06979">
        <ele>639.89</ele>
        <time>2016-04-24T08:36:02Z</time>
      </trkpt>
      <trkpt lat="43.8169" lon="3.06964">
        <ele>640.38</ele>
        <time>2016-04-24T08:36:03Z</time>
      </trkpt>
      <trkpt lat="43.81693" lon="3.06949">
        <ele>641.34</ele>
        <time>2016-04-24T08:36:04Z</time>
      </trkpt>
      <trkpt lat="43.81702" lon="3.0694">
        <ele>642.3</ele>
        <time>2016-04-24T08:36:05Z</time>
      </trkpt>
      <trkpt lat="43.81713" lon="3.06936">
        <ele>643.26</ele>
        <time>2016-04-24T08:36:06Z</time>
      </trkpt>
      <trkpt lat="43.81724" lon="3.06936">
        <ele>643.74</ele>
        <time>2016-04-24T08:36:07Z</time>
      </trkpt>
      <trkpt lat="43.81735" lon="3.06939">
        <ele>643.74</ele>
        <time>2016-04-24T08:36:08Z</time>
      </trkpt>
      <trkpt lat="43.81744" lon="3.06947">
        <ele>644.7</ele>
        <time>2016-04-24T08:36:09Z</time>
      </trkpt>
      <trkpt lat="43.81753" lon="3.06955">
        <ele>644.7</ele>
        <time>2016-04-24T08:36:10Z</time>
      </trkpt>
      <trkpt lat="43.81762" lon="3.0696">
        <ele>645.66</ele>
        <time>2016-04-24T08:36:11Z</time>
      </trkpt>
      <trkpt lat="43.81771" lon="3.06959">
        <ele>646.62</ele>
        <time>2016-04-24T08:36:12Z</time>
      </trkpt>
      <trkpt lat="43.81779" lon="3.0695">
        <ele>646.62</ele>
        <time>2016-04-24T08:36:13Z</time>
      </trkpt>
      <trkpt lat="43.81784" lon="3.06936">
        <ele>646.62</ele>
        <time>2016-04-24T08:36:14Z</time>
      </trkpt>
      <trkpt lat="43.81788" lon="3.0692">
        <ele>646.62</ele>
        <time>2016-04-24T08:36:15Z</time>
      </trkpt>
      <trkpt lat="43.8179" lon="3.06901">
        <ele>646.62</ele>
        <time>2016-04-24T08:36:16Z</time>
      </trkpt>
      <trkpt lat="43.81788" lon="3.06879">
        <ele>647.1</ele>
        <time>2016-04-24T08:36:17Z</time>
      </trkpt>
      <trkpt lat="43.81791" lon="3.06859">
        <ele>648.07</ele>
        <time>2016-04-24T08:36:18Z</time>
      </trkpt>
      <trkpt lat="43.81797" lon="3.06839">
        <ele>649.03</ele>
        <time>2016-04-24T08:36:19Z</time>
      </trkpt>
      <trkpt lat="43.81805" lon="3.06821">
        <ele>650.47</ele>
        <time>2016-04-24T08:36:20Z</time>
      </trkpt>
      <trkpt lat="43.81814" lon="3.06805">
        <ele>651.43</ele>
        <time>2016-04-24T08:36:21Z</time>
      </trkpt>
      <trkpt lat="43.81821" lon="3.06787">
        <ele>651.91</ele>
        <time>2016-04-24T08:36:22Z</time>
      </trkpt>
      <trkpt lat="43.81825" lon="3.06767">
        <ele>652.39</ele>
        <time>2016-04-24T08:36:23Z</time>
      </trkpt>
      <trkpt lat="43.81826" lon="3.06746">
        <ele>652.87</ele>
        <time>2016-04-24T08:36:24Z</time>
      </trkpt>
      <trkpt lat="43.81824" lon="3.06725">
        <ele>653.83</ele>
        <time>2016-04-24T08:36:25Z</time>
      </trkpt>
      <trkpt lat="43.81824" lon="3.06704">
        <ele>654.8</ele>
        <time>2016-04-24T08:36:26Z</time>
      </trkpt>
      <trkpt lat="43.81828" lon="3.06684">
        <ele>654.8</ele>
        <time>2016-04-24T08:36:27Z</time>
      </trkpt>
      <trkpt lat="43.81834" lon="3.06665">
        <ele>655.28</ele>
        <time>2016-04-24T08:36:28Z</time>
      </trkpt>
      <trkpt lat="43.81843" lon="3.06644">
        <ele>655.76</ele>
        <time>2016-04-24T08:36:29Z</time>
      </trkpt>
      <trkpt lat="43.81852" lon="3.06619">
        <ele>656.72</ele>
        <time>2016-04-24T08:36:30Z</time>
      </trkpt>
      <trkpt lat="43.81859" lon="3.06592">
        <ele>658.16</ele>
        <time>2016-04-24T08:36:31Z</time>
      </trkpt>
      <trkpt lat="43.81866" lon="3.06564">
        <ele>659.12</ele>
        <time>2016-04-24T08:36:32Z</time>
      </trkpt>
      <trkpt lat="43.81885" lon="3.06486">
        <ele>662.49</ele>
        <time>2016-04-24T08:36:35Z</time>
      </trkpt>
      <trkpt lat="43.81895" lon="3.06468">
        <ele>662.97</ele>
        <time>2016-04-24T08:36:36Z</time>
      </trkpt>
      <trkpt lat="43.81909" lon="3.06455">
        <ele>663.93</ele>
        <time>2016-04-24T08:36:37Z</time>
      </trkpt>
      <trkpt lat="43.81923" lon="3.06445">
        <ele>665.37</ele>
        <time>2016-04-24T08:36:38Z</time>
      </trkpt>
      <trkpt lat="43.81936" lon="3.06436">
        <ele>666.33</ele>
        <time>2016-04-24T08:36:39Z</time>
      </trkpt>
      <trkpt lat="43.81948" lon="3.06427">
        <ele>666.81</ele>
        <time>2016-04-24T08:36:40Z</time>
      </trkpt>
      <trkpt lat="43.81956" lon="3.06418">
        <ele>667.77</ele>
        <time>2016-04-24T08:36:41Z</time>
      </trkpt>
      <trkpt lat="43.81986" lon="3.06374">
        <ele>669.7</ele>
        <time>2016-04-24T08:36:47Z</time>
      </trkpt>
      <trkpt lat="43.8199" lon="3.06361">
        <ele>670.18</ele>
        <time>2016-04-24T08:36:48Z</time>
      </trkpt>
      <trkpt lat="43.81992" lon="3.06346">
        <ele>669.7</ele>
        <time>2016-04-24T08:36:49Z</time>
      </trkpt>
      <trkpt lat="43.81993" lon="3.06329">
        <ele>670.18</ele>
        <time>2016-04-24T08:36:50Z</time>
      </trkpt>
      <trkpt lat="43.81994" lon="3.0631">
        <ele>670.18</ele>
        <time>2016-04-24T08:36:51Z</time>
      </trkpt>
      <trkpt lat="43.81996" lon="3.06291">
        <ele>670.18</ele>
        <time>2016-04-24T08:36:52Z</time>
      </trkpt>
      <trkpt lat="43.82" lon="3.06273">
        <ele>670.18</ele>
        <time>2016-04-24T08:36:53Z</time>
      </trkpt>
      <trkpt lat="43.82006" lon="3.06255">
        <ele>670.18</ele>
        <time>2016-04-24T08:36:54Z</time>
      </trkpt>
      <trkpt lat="43.82022" lon="3.06201">
        <ele>669.7</ele>
        <time>2016-04-24T08:36:57Z</time>
      </trkpt>
      <trkpt lat="43.82024" lon="3.06182">
        <ele>669.7</ele>
        <time>2016-04-24T08:36:58Z</time>
      </trkpt>
      <trkpt lat="43.82024" lon="3.06162">
        <ele>669.22</ele>
        <time>2016-04-24T08:36:59Z</time>
      </trkpt>
      <trkpt lat="43.82023" lon="3.06142">
        <ele>669.22</ele>
        <time>2016-04-24T08:37:00Z</time>
      </trkpt>
      <trkpt lat="43.8202" lon="3.06121">
        <ele>668.73</ele>
        <time>2016-04-24T08:37:01Z</time>
      </trkpt>
      <trkpt lat="43.82001" lon="3.06015">
        <ele>667.29</ele>
        <time>2016-04-24T08:37:06Z</time>
      </trkpt>
      <trkpt lat="43.81999" lon="3.05994">
        <ele>667.29</ele>
        <time>2016-04-24T08:37:07Z</time>
      </trkpt>
      <trkpt lat="43.81999" lon="3.05973">
        <ele>666.81</ele>
        <time>2016-04-24T08:37:08Z</time>
      </trkpt>
      <trkpt lat="43.82002" lon="3.05951">
        <ele>666.33</ele>
        <time>2016-04-24T08:37:09Z</time>
      </trkpt>
      <trkpt lat="43.82004" lon="3.0593">
        <ele>665.85</ele>
        <time>2016-04-24T08:37:10Z</time>
      </trkpt>
      <trkpt lat="43.82004" lon="3.05907">
        <ele>665.37</ele>
        <time>2016-04-24T08:37:11Z</time>
      </trkpt>
      <trkpt lat="43.82003" lon="3.05883">
        <ele>664.89</ele>
        <time>2016-04-24T08:37:12Z</time>
      </trkpt>
      <trkpt lat="43.82" lon="3.05859">
        <ele>664.89</ele>
        <time>2016-04-24T08:37:13Z</time>
      </trkpt>
      <trkpt lat="43.81996" lon="3.05812">
        <ele>663.93</ele>
        <time>2016-04-24T08:37:15Z</time>
      </trkpt>
      <trkpt lat="43.81996" lon="3.05788">
        <ele>663.93</ele>
        <time>2016-04-24T08:37:16Z</time>
      </trkpt>
      <trkpt lat="43.81998" lon="3.05765">
        <ele>663.45</ele>
        <time>2016-04-24T08:37:17Z</time>
      </trkpt>
      <trkpt lat="43.82003" lon="3.05742">
        <ele>663.45</ele>
        <time>2016-04-24T08:37:18Z</time>
      </trkpt>
      <trkpt lat="43.82009" lon="3.05721">
        <ele>662.97</ele>
        <time>2016-04-24T08:37:19Z</time>
      </trkpt>
      <trkpt lat="43.82017" lon="3.05702">
        <ele>662.97</ele>
        <time>2016-04-24T08:37:20Z</time>
      </trkpt>
      <trkpt lat="43.82026" lon="3.05685">
        <ele>662.49</ele>
        <time>2016-04-24T08:37:21Z</time>
      </trkpt>
      <trkpt lat="43.82036" lon="3.0567">
        <ele>662.01</ele>
        <time>2016-04-24T08:37:22Z</time>
      </trkpt>
      <trkpt lat="43.82047" lon="3.05658">
        <ele>661.52</ele>
        <time>2016-04-24T08:37:23Z</time>
      </trkpt>
      <trkpt lat="43.82059" lon="3.0565">
        <ele>661.52</ele>
        <time>2016-04-24T08:37:24Z</time>
      </trkpt>
      <trkpt lat="43.82074" lon="3.05644">
        <ele>661.04</ele>
        <time>2016-04-24T08:37:25Z</time>
      </trkpt>
      <trkpt lat="43.8209" lon="3.05642">
        <ele>661.04</ele>
        <time>2016-04-24T08:37:26Z</time>
      </trkpt>
      <trkpt lat="43.82107" lon="3.05641">
        <ele>660.56</ele>
        <time>2016-04-24T08:37:27Z</time>
      </trkpt>
      <trkpt lat="43.82124" lon="3.05637">
        <ele>660.08</ele>
        <time>2016-04-24T08:37:28Z</time>
      </trkpt>
      <trkpt lat="43.82201" lon="3.05608">
        <ele>660.56</ele>
        <time>2016-04-24T08:37:33Z</time>
      </trkpt>
      <trkpt lat="43.82228" lon="3.05604">
        <ele>660.08</ele>
        <time>2016-04-24T08:37:35Z</time>
      </trkpt>
      <trkpt lat="43.82242" lon="3.0561">
        <ele>659.6</ele>
        <time>2016-04-24T08:37:36Z</time>
      </trkpt>
      <trkpt lat="43.82254" lon="3.0562">
        <ele>659.12</ele>
        <time>2016-04-24T08:37:37Z</time>
      </trkpt>
      <trkpt lat="43.82266" lon="3.05629">
        <ele>659.6</ele>
        <time>2016-04-24T08:37:38Z</time>
      </trkpt>
      <trkpt lat="43.82274" lon="3.05638">
        <ele>659.12</ele>
        <time>2016-04-24T08:37:39Z</time>
      </trkpt>
      <trkpt lat="43.82285" lon="3.05646">
        <ele>658.16</ele>
        <time>2016-04-24T08:37:40Z</time>
      </trkpt>
      <trkpt lat="43.82296" lon="3.0565">
        <ele>657.68</ele>
        <time>2016-04-24T08:37:41Z</time>
      </trkpt>
      <trkpt lat="43.82311" lon="3.05651">
        <ele>658.64</ele>
        <time>2016-04-24T08:37:42Z</time>
      </trkpt>
      <trkpt lat="43.82324" lon="3.05649">
        <ele>658.16</ele>
        <time>2016-04-24T08:37:43Z</time>
      </trkpt>
      <trkpt lat="43.82337" lon="3.05649">
        <ele>659.6</ele>
        <time>2016-04-24T08:37:44Z</time>
      </trkpt>
      <trkpt lat="43.82359" lon="3.05651">
        <ele>662.01</ele>
        <time>2016-04-24T08:37:46Z</time>
      </trkpt>
      <trkpt lat="43.8237" lon="3.05656">
        <ele>661.52</ele>
        <time>2016-04-24T08:37:47Z</time>
      </trkpt>
      <trkpt lat="43.82381" lon="3.05667">
        <ele>661.52</ele>
        <time>2016-04-24T08:37:48Z</time>
      </trkpt>
      <trkpt lat="43.82393" lon="3.05679">
        <ele>662.49</ele>
        <time>2016-04-24T08:37:49Z</time>
      </trkpt>
      <trkpt lat="43.82407" lon="3.05693">
        <ele>662.01</ele>
        <time>2016-04-24T08:37:50Z</time>
      </trkpt>
      <trkpt lat="43.82479" lon="3.05749">
        <ele>659.6</ele>
        <time>2016-04-24T08:37:57Z</time>
      </trkpt>
      <trkpt lat="43.82485" lon="3.05752">
        <ele>658.64</ele>
        <time>2016-04-24T08:37:58Z</time>
      </trkpt>
      <trkpt lat="43.82492" lon="3.05752">
        <ele>658.16</ele>
        <time>2016-04-24T08:37:59Z</time>
      </trkpt>
      <trkpt lat="43.82498" lon="3.05746">
        <ele>657.68</ele>
        <time>2016-04-24T08:38:00Z</time>
      </trkpt>
      <trkpt lat="43.82502" lon="3.05736">
        <ele>657.2</ele>
        <time>2016-04-24T08:38:01Z</time>
      </trkpt>
      <trkpt lat="43.82505" lon="3.05724">
        <ele>656.72</ele>
        <time>2016-04-24T08:38:02Z</time>
      </trkpt>
      <trkpt lat="43.82507" lon="3.0571">
        <ele>656.24</ele>
        <time>2016-04-24T08:38:03Z</time>
      </trkpt>
      <trkpt lat="43.82509" lon="3.05695">
        <ele>656.24</ele>
        <time>2016-04-24T08:38:04Z</time>
      </trkpt>
      <trkpt lat="43.82512" lon="3.0568">
        <ele>655.76</ele>
        <time>2016-04-24T08:38:05Z</time>
      </trkpt>
      <trkpt lat="43.82518" lon="3.05665">
        <ele>655.76</ele>
        <time>2016-04-24T08:38:06Z</time>
      </trkpt>
      <trkpt lat="43.82526" lon="3.05651">
        <ele>655.28</ele>
        <time>2016-04-24T08:38:07Z</time>
      </trkpt>
      <trkpt lat="43.82534" lon="3.05638">
        <ele>654.8</ele>
        <time>2016-04-24T08:38:08Z</time>
      </trkpt>
      <trkpt lat="43.82543" lon="3.05627">
        <ele>654.8</ele>
        <time>2016-04-24T08:38:09Z</time>
      </trkpt>
      <trkpt lat="43.82551" lon="3.05617">
        <ele>654.31</ele>
        <time>2016-04-24T08:38:10Z</time>
      </trkpt>
      <trkpt lat="43.82567" lon="3.05596">
        <ele>654.31</ele>
        <time>2016-04-24T08:38:12Z</time>
      </trkpt>
      <trkpt lat="43.8257" lon="3.05585">
        <ele>654.31</ele>
        <time>2016-04-24T08:38:13Z</time>
      </trkpt>
      <trkpt lat="43.82569" lon="3.05572">
        <ele>653.83</ele>
        <time>2016-04-24T08:38:14Z</time>
      </trkpt>
      <trkpt lat="43.82565" lon="3.05555">
        <ele>653.35</ele>
        <time>2016-04-24T08:38:15Z</time>
      </trkpt>
      <trkpt lat="43.8256" lon="3.05537">
        <ele>653.35</ele>
        <time>2016-04-24T08:38:16Z</time>
      </trkpt>
      <trkpt lat="43.82554" lon="3.05513">
        <ele>652.87</ele>
        <time>2016-04-24T08:38:17Z</time>
      </trkpt>
      <trkpt lat="43.8252" lon="3.0535">
        <ele>654.8</ele>
        <time>2016-04-24T08:38:25Z</time>
      </trkpt>
      <trkpt lat="43.82512" lon="3.05317">
        <ele>655.28</ele>
        <time>2016-04-24T08:38:27Z</time>
      </trkpt>
      <trkpt lat="43.82511" lon="3.05299">
        <ele>652.87</ele>
        <time>2016-04-24T08:38:28Z</time>
      </trkpt>
      <trkpt lat="43.82514" lon="3.05282">
        <ele>651.91</ele>
        <time>2016-04-24T08:38:29Z</time>
      </trkpt>
      <trkpt lat="43.82519" lon="3.05267">
        <ele>650.95</ele>
        <time>2016-04-24T08:38:30Z</time>
      </trkpt>
      <trkpt lat="43.82525" lon="3.05253">
        <ele>651.43</ele>
        <time>2016-04-24T08:38:31Z</time>
      </trkpt>
      <trkpt lat="43.8253" lon="3.05244">
        <ele>651.43</ele>
        <time>2016-04-24T08:38:32Z</time>
      </trkpt>
      <trkpt lat="43.82531" lon="3.05232">
        <ele>650.95</ele>
        <time>2016-04-24T08:38:33Z</time>
      </trkpt>
      <trkpt lat="43.82527" lon="3.0522">
        <ele>650.47</ele>
        <time>2016-04-24T08:38:34Z</time>
      </trkpt>
      <trkpt lat="43.82518" lon="3.05212">
        <ele>650.95</ele>
        <time>2016-04-24T08:38:35Z</time>
      </trkpt>
      <trkpt lat="43.82506" lon="3.05205">
        <ele>650.95</ele>
        <time>2016-04-24T08:38:36Z</time>
      </trkpt>
      <trkpt lat="43.82496" lon="3.05197">
        <ele>651.43</ele>
        <time>2016-04-24T08:38:37Z</time>
      </trkpt>
      <trkpt lat="43.82484" lon="3.05193">
        <ele>651.43</ele>
        <time>2016-04-24T08:38:38Z</time>
      </trkpt>
      <trkpt lat="43.82469" lon="3.05188">
        <ele>651.43</ele>
        <time>2016-04-24T08:38:39Z</time>
      </trkpt>
      <trkpt lat="43.82456" lon="3.05184">
        <ele>651.43</ele>
        <time>2016-04-24T08:38:40Z</time>
      </trkpt>
      <trkpt lat="43.82432" lon="3.05178">
        <ele>649.99</ele>
        <time>2016-04-24T08:38:42Z</time>
      </trkpt>
      <trkpt lat="43.8242" lon="3.05179">
        <ele>650.95</ele>
        <time>2016-04-24T08:38:43Z</time>
      </trkpt>
      <trkpt lat="43.82409" lon="3.05179">
        <ele>649.99</ele>
        <time>2016-04-24T08:38:44Z</time>
      </trkpt>
      <trkpt lat="43.82397" lon="3.0518">
        <ele>649.51</ele>
        <time>2016-04-24T08:38:45Z</time>
      </trkpt>
      <trkpt lat="43.82385" lon="3.05179">
        <ele>649.51</ele>
        <time>2016-04-24T08:38:46Z</time>
      </trkpt>
      <trkpt lat="43.82373" lon="3.05176">
        <ele>649.03</ele>
        <time>2016-04-24T08:38:47Z</time>
      </trkpt>
      <trkpt lat="43.82361" lon="3.05168">
        <ele>648.55</ele>
        <time>2016-04-24T08:38:48Z</time>
      </trkpt>
      <trkpt lat="43.82352" lon="3.05156">
        <ele>648.55</ele>
        <time>2016-04-24T08:38:49Z</time>
      </trkpt>
      <trkpt lat="43.82344" lon="3.05141">
        <ele>647.59</ele>
        <time>2016-04-24T08:38:50Z</time>
      </trkpt>
      <trkpt lat="43.82337" lon="3.05124">
        <ele>646.62</ele>
        <time>2016-04-24T08:38:51Z</time>
      </trkpt>
      <trkpt lat="43.82331" lon="3.05105">
        <ele>645.66</ele>
        <time>2016-04-24T08:38:52Z</time>
      </trkpt>
      <trkpt lat="43.82324" lon="3.05085">
        <ele>645.18</ele>
        <time>2016-04-24T08:38:53Z</time>
      </trkpt>
      <trkpt lat="43.82318" lon="3.05064">
        <ele>643.74</ele>
        <time>2016-04-24T08:38:54Z</time>
      </trkpt>
      <trkpt lat="43.82255" lon="3.04927">
        <ele>639.41</ele>
        <time>2016-04-24T08:39:02Z</time>
      </trkpt>
      <trkpt lat="43.82246" lon="3.04918">
        <ele>638.45</ele>
        <time>2016-04-24T08:39:03Z</time>
      </trkpt>
      <trkpt lat="43.82235" lon="3.04915">
        <ele>638.93</ele>
        <time>2016-04-24T08:39:04Z</time>
      </trkpt>
      <trkpt lat="43.82224" lon="3.04912">
        <ele>638.45</ele>
        <time>2016-04-24T08:39:05Z</time>
      </trkpt>
      <trkpt lat="43.82211" lon="3.04915">
        <ele>637.01</ele>
        <time>2016-04-24T08:39:06Z</time>
      </trkpt>
      <trkpt lat="43.82197" lon="3.04915">
        <ele>637.01</ele>
        <time>2016-04-24T08:39:07Z</time>
      </trkpt>
      <trkpt lat="43.82181" lon="3.04912">
        <ele>635.57</ele>
        <time>2016-04-24T08:39:08Z</time>
      </trkpt>
      <trkpt lat="43.82165" lon="3.04907">
        <ele>634.61</ele>
        <time>2016-04-24T08:39:09Z</time>
      </trkpt>
      <trkpt lat="43.82151" lon="3.04899">
        <ele>633.65</ele>
        <time>2016-04-24T08:39:10Z</time>
      </trkpt>
      <trkpt lat="43.82137" lon="3.0489">
        <ele>633.65</ele>
        <time>2016-04-24T08:39:11Z</time>
      </trkpt>
      <trkpt lat="43.82124" lon="3.0488">
        <ele>633.17</ele>
        <time>2016-04-24T08:39:12Z</time>
      </trkpt>
      <trkpt lat="43.82111" lon="3.04868">
        <ele>632.68</ele>
        <time>2016-04-24T08:39:13Z</time>
      </trkpt>
      <trkpt lat="43.821" lon="3.04853">
        <ele>632.2</ele>
        <time>2016-04-24T08:39:14Z</time>
      </trkpt>
      <trkpt lat="43.82092" lon="3.04836">
        <ele>632.2</ele>
        <time>2016-04-24T08:39:15Z</time>
      </trkpt>
      <trkpt lat="43.82088" lon="3.04814">
        <ele>632.2</ele>
        <time>2016-04-24T08:39:16Z</time>
      </trkpt>
      <trkpt lat="43.82084" lon="3.04793">
        <ele>631.72</ele>
        <time>2016-04-24T08:39:17Z</time>
      </trkpt>
      <trkpt lat="43.82081" lon="3.04771">
        <ele>630.76</ele>
        <time>2016-04-24T08:39:18Z</time>
      </trkpt>
      <trkpt lat="43.8208" lon="3.04749">
        <ele>629.8</ele>
        <time>2016-04-24T08:39:19Z</time>
      </trkpt>
      <trkpt lat="43.82081" lon="3.04728">
        <ele>630.28</ele>
        <time>2016-04-24T08:39:20Z</time>
      </trkpt>
      <trkpt lat="43.82082" lon="3.04705">
        <ele>628.36</ele>
        <time>2016-04-24T08:39:21Z</time>
      </trkpt>
      <trkpt lat="43.82085" lon="3.04682">
        <ele>626.44</ele>
        <time>2016-04-24T08:39:22Z</time>
      </trkpt>
      <trkpt lat="43.8209" lon="3.04659">
        <ele>624.99</ele>
        <time>2016-04-24T08:39:23Z</time>
      </trkpt>
      <trkpt lat="43.82096" lon="3.04637">
        <ele>624.51</ele>
        <time>2016-04-24T08:39:24Z</time>
      </trkpt>
      <trkpt lat="43.8214" lon="3.04408">
        <ele>618.75</ele>
        <time>2016-04-24T08:39:33Z</time>
      </trkpt>
      <trkpt lat="43.82187" lon="3.04232">
        <ele>613.94</ele>
        <time>2016-04-24T08:39:41Z</time>
      </trkpt>
      <trkpt lat="43.82194" lon="3.04214">
        <ele>612.98</ele>
        <time>2016-04-24T08:39:42Z</time>
      </trkpt>
      <trkpt lat="43.82203" lon="3.04197">
        <ele>612.5</ele>
        <time>2016-04-24T08:39:43Z</time>
      </trkpt>
      <trkpt lat="43.82214" lon="3.04183">
        <ele>611.54</ele>
        <time>2016-04-24T08:39:44Z</time>
      </trkpt>
      <trkpt lat="43.82227" lon="3.04175">
        <ele>610.09</ele>
        <time>2016-04-24T08:39:45Z</time>
      </trkpt>
      <trkpt lat="43.82243" lon="3.04171">
        <ele>609.61</ele>
        <time>2016-04-24T08:39:46Z</time>
      </trkpt>
      <trkpt lat="43.82259" lon="3.04169">
        <ele>609.13</ele>
        <time>2016-04-24T08:39:47Z</time>
      </trkpt>
      <trkpt lat="43.82274" lon="3.04167">
        <ele>608.17</ele>
        <time>2016-04-24T08:39:48Z</time>
      </trkpt>
      <trkpt lat="43.82289" lon="3.04164">
        <ele>607.69</ele>
        <time>2016-04-24T08:39:49Z</time>
      </trkpt>
      <trkpt lat="43.82317" lon="3.04151">
        <ele>607.21</ele>
        <time>2016-04-24T08:39:51Z</time>
      </trkpt>
      <trkpt lat="43.82331" lon="3.04138">
        <ele>606.73</ele>
        <time>2016-04-24T08:39:52Z</time>
      </trkpt>
      <trkpt lat="43.82343" lon="3.04124">
        <ele>606.25</ele>
        <time>2016-04-24T08:39:53Z</time>
      </trkpt>
      <trkpt lat="43.82405" lon="3.04063">
        <ele>603.85</ele>
        <time>2016-04-24T08:39:58Z</time>
      </trkpt>
      <trkpt lat="43.82415" lon="3.0405">
        <ele>603.36</ele>
        <time>2016-04-24T08:39:59Z</time>
      </trkpt>
      <trkpt lat="43.82422" lon="3.04036">
        <ele>602.88</ele>
        <time>2016-04-24T08:40:00Z</time>
      </trkpt>
      <trkpt lat="43.82427" lon="3.04021">
        <ele>602.4</ele>
        <time>2016-04-24T08:40:01Z</time>
      </trkpt>
      <trkpt lat="43.8243" lon="3.04006">
        <ele>601.92</ele>
        <time>2016-04-24T08:40:02Z</time>
      </trkpt>
      <trkpt lat="43.8243" lon="3.03991">
        <ele>600.96</ele>
        <time>2016-04-24T08:40:03Z</time>
      </trkpt>
      <trkpt lat="43.82425" lon="3.03977">
        <ele>600.48</ele>
        <time>2016-04-24T08:40:04Z</time>
      </trkpt>
      <trkpt lat="43.82416" lon="3.03964">
        <ele>599.52</ele>
        <time>2016-04-24T08:40:05Z</time>
      </trkpt>
      <trkpt lat="43.8241" lon="3.03951">
        <ele>599.04</ele>
        <time>2016-04-24T08:40:06Z</time>
      </trkpt>
      <trkpt lat="43.82407" lon="3.03938">
        <ele>598.56</ele>
        <time>2016-04-24T08:40:07Z</time>
      </trkpt>
      <trkpt lat="43.82407" lon="3.03924">
        <ele>597.6</ele>
        <time>2016-04-24T08:40:08Z</time>
      </trkpt>
      <trkpt lat="43.82411" lon="3.0391">
        <ele>596.64</ele>
        <time>2016-04-24T08:40:09Z</time>
      </trkpt>
      <trkpt lat="43.82416" lon="3.03896">
        <ele>596.64</ele>
        <time>2016-04-24T08:40:10Z</time>
      </trkpt>
      <trkpt lat="43.82421" lon="3.0388">
        <ele>595.67</ele>
        <time>2016-04-24T08:40:11Z</time>
      </trkpt>
      <trkpt lat="43.82423" lon="3.03861">
        <ele>595.19</ele>
        <time>2016-04-24T08:40:12Z</time>
      </trkpt>
      <trkpt lat="43.82423" lon="3.03842">
        <ele>594.71</ele>
        <time>2016-04-24T08:40:13Z</time>
      </trkpt>
      <trkpt lat="43.8242" lon="3.03822">
        <ele>594.23</ele>
        <time>2016-04-24T08:40:14Z</time>
      </trkpt>
      <trkpt lat="43.82415" lon="3.03803">
        <ele>593.75</ele>
        <time>2016-04-24T08:40:15Z</time>
      </trkpt>
      <trkpt lat="43.82409" lon="3.03786">
        <ele>592.79</ele>
        <time>2016-04-24T08:40:16Z</time>
      </trkpt>
      <trkpt lat="43.82403" lon="3.03768">
        <ele>591.83</ele>
        <time>2016-04-24T08:40:17Z</time>
      </trkpt>
      <trkpt lat="43.8239" lon="3.03719">
        <ele>589.91</ele>
        <time>2016-04-24T08:40:20Z</time>
      </trkpt>
      <trkpt lat="43.82388" lon="3.03702">
        <ele>589.43</ele>
        <time>2016-04-24T08:40:21Z</time>
      </trkpt>
      <trkpt lat="43.8239" lon="3.03685">
        <ele>588.95</ele>
        <time>2016-04-24T08:40:22Z</time>
      </trkpt>
      <trkpt lat="43.82395" lon="3.03669">
        <ele>588.95</ele>
        <time>2016-04-24T08:40:23Z</time>
      </trkpt>
      <trkpt lat="43.82404" lon="3.03657">
        <ele>589.43</ele>
        <time>2016-04-24T08:40:24Z</time>
      </trkpt>
      <trkpt lat="43.82416" lon="3.03648">
        <ele>588.46</ele>
        <time>2016-04-24T08:40:25Z</time>
      </trkpt>
      <trkpt lat="43.82432" lon="3.03643">
        <ele>587.98</ele>
        <time>2016-04-24T08:40:26Z</time>
      </trkpt>
      <trkpt lat="43.82448" lon="3.03644">
        <ele>587.5</ele>
        <time>2016-04-24T08:40:27Z</time>
      </trkpt>
      <trkpt lat="43.82464" lon="3.03645">
        <ele>587.02</ele>
        <time>2016-04-24T08:40:28Z</time>
      </trkpt>
      <trkpt lat="43.82479" lon="3.03648">
        <ele>586.54</ele>
        <time>2016-04-24T08:40:29Z</time>
      </trkpt>
      <trkpt lat="43.82493" lon="3.03652">
        <ele>586.54</ele>
        <time>2016-04-24T08:40:30Z</time>
      </trkpt>
      <trkpt lat="43.82506" lon="3.03658">
        <ele>586.06</ele>
        <time>2016-04-24T08:40:31Z</time>
      </trkpt>
      <trkpt lat="43.82518" lon="3.03665">
        <ele>585.58</ele>
        <time>2016-04-24T08:40:32Z</time>
      </trkpt>
      <trkpt lat="43.82529" lon="3.03672">
        <ele>585.1</ele>
        <time>2016-04-24T08:40:33Z</time>
      </trkpt>
      <trkpt lat="43.82541" lon="3.03677">
        <ele>584.62</ele>
        <time>2016-04-24T08:40:34Z</time>
      </trkpt>
      <trkpt lat="43.82552" lon="3.03675">
        <ele>583.66</ele>
        <time>2016-04-24T08:40:35Z</time>
      </trkpt>
      <trkpt lat="43.82561" lon="3.03668">
        <ele>582.7</ele>
        <time>2016-04-24T08:40:36Z</time>
      </trkpt>
      <trkpt lat="43.8257" lon="3.03657">
        <ele>581.73</ele>
        <time>2016-04-24T08:40:37Z</time>
      </trkpt>
      <trkpt lat="43.82576" lon="3.03642">
        <ele>581.25</ele>
        <time>2016-04-24T08:40:38Z</time>
      </trkpt>
      <trkpt lat="43.82581" lon="3.03623">
        <ele>580.77</ele>
        <time>2016-04-24T08:40:39Z</time>
      </trkpt>
      <trkpt lat="43.82586" lon="3.03606">
        <ele>580.29</ele>
        <time>2016-04-24T08:40:40Z</time>
      </trkpt>
      <trkpt lat="43.82601" lon="3.03575">
        <ele>578.85</ele>
        <time>2016-04-24T08:40:42Z</time>
      </trkpt>
      <trkpt lat="43.82612" lon="3.03565">
        <ele>578.37</ele>
        <time>2016-04-24T08:40:43Z</time>
      </trkpt>
      <trkpt lat="43.82622" lon="3.03558">
        <ele>578.37</ele>
        <time>2016-04-24T08:40:44Z</time>
      </trkpt>
      <trkpt lat="43.82632" lon="3.03553">
        <ele>578.37</ele>
        <time>2016-04-24T08:40:45Z</time>
      </trkpt>
      <trkpt lat="43.82639" lon="3.03544">
        <ele>577.41</ele>
        <time>2016-04-24T08:40:46Z</time>
      </trkpt>
      <trkpt lat="43.82644" lon="3.03531">
        <ele>576.45</ele>
        <time>2016-04-24T08:40:47Z</time>
      </trkpt>
      <trkpt lat="43.82647" lon="3.03515">
        <ele>575.01</ele>
        <time>2016-04-24T08:40:48Z</time>
      </trkpt>
      <trkpt lat="43.82649" lon="3.03497">
        <ele>575.01</ele>
        <time>2016-04-24T08:40:49Z</time>
      </trkpt>
      <trkpt lat="43.82653" lon="3.03481">
        <ele>574.53</ele>
        <time>2016-04-24T08:40:50Z</time>
      </trkpt>
      <trkpt lat="43.82659" lon="3.03467">
        <ele>574.04</ele>
        <time>2016-04-24T08:40:51Z</time>
      </trkpt>
      <trkpt lat="43.82668" lon="3.03459">
        <ele>573.56</ele>
        <time>2016-04-24T08:40:52Z</time>
      </trkpt>
      <trkpt lat="43.82678" lon="3.03458">
        <ele>573.08</ele>
        <time>2016-04-24T08:40:53Z</time>
      </trkpt>
      <trkpt lat="43.82687" lon="3.03459">
        <ele>573.08</ele>
        <time>2016-04-24T08:40:54Z</time>
      </trkpt>
      <trkpt lat="43.82698" lon="3.03464">
        <ele>572.6</ele>
        <time>2016-04-24T08:40:55Z</time>
      </trkpt>
      <trkpt lat="43.82707" lon="3.03464">
        <ele>572.12</ele>
        <time>2016-04-24T08:40:56Z</time>
      </trkpt>
      <trkpt lat="43.82718" lon="3.03463">
        <ele>571.64</ele>
        <time>2016-04-24T08:40:57Z</time>
      </trkpt>
      <trkpt lat="43.82728" lon="3.03454">
        <ele>570.68</ele>
        <time>2016-04-24T08:40:58Z</time>
      </trkpt>
      <trkpt lat="43.82736" lon="3.0344">
        <ele>569.72</ele>
        <time>2016-04-24T08:40:59Z</time>
      </trkpt>
      <trkpt lat="43.8274" lon="3.03423">
        <ele>569.72</ele>
        <time>2016-04-24T08:41:00Z</time>
      </trkpt>
      <trkpt lat="43.82744" lon="3.03406">
        <ele>569.24</ele>
        <time>2016-04-24T08:41:01Z</time>
      </trkpt>
      <trkpt lat="43.82752" lon="3.03373">
        <ele>567.8</ele>
        <time>2016-04-24T08:41:03Z</time>
      </trkpt>
      <trkpt lat="43.82758" lon="3.03359">
        <ele>567.32</ele>
        <time>2016-04-24T08:41:04Z</time>
      </trkpt>
      <trkpt lat="43.82766" lon="3.03347">
        <ele>566.35</ele>
        <time>2016-04-24T08:41:05Z</time>
      </trkpt>
      <trkpt lat="43.82775" lon="3.03337">
        <ele>565.87</ele>
        <time>2016-04-24T08:41:06Z</time>
      </trkpt>
      <trkpt lat="43.82784" lon="3.03328">
        <ele>565.39</ele>
        <time>2016-04-24T08:41:07Z</time>
      </trkpt>
      <trkpt lat="43.82804" lon="3.03311">
        <ele>563.95</ele>
        <time>2016-04-24T08:41:09Z</time>
      </trkpt>
      <trkpt lat="43.82814" lon="3.03305">
        <ele>563.47</ele>
        <time>2016-04-24T08:41:10Z</time>
      </trkpt>
      <trkpt lat="43.82825" lon="3.03302">
        <ele>562.51</ele>
        <time>2016-04-24T08:41:11Z</time>
      </trkpt>
      <trkpt lat="43.82836" lon="3.033">
        <ele>562.51</ele>
        <time>2016-04-24T08:41:12Z</time>
      </trkpt>
      <trkpt lat="43.82846" lon="3.03302">
        <ele>561.55</ele>
        <time>2016-04-24T08:41:13Z</time>
      </trkpt>
      <trkpt lat="43.82856" lon="3.03309">
        <ele>561.07</ele>
        <time>2016-04-24T08:41:14Z</time>
      </trkpt>
      <trkpt lat="43.82865" lon="3.03316">
        <ele>561.07</ele>
        <time>2016-04-24T08:41:15Z</time>
      </trkpt>
      <trkpt lat="43.82874" lon="3.03322">
        <ele>560.59</ele>
        <time>2016-04-24T08:41:16Z</time>
      </trkpt>
      <trkpt lat="43.82884" lon="3.03326">
        <ele>560.11</ele>
        <time>2016-04-24T08:41:17Z</time>
      </trkpt>
      <trkpt lat="43.82894" lon="3.03322">
        <ele>559.14</ele>
        <time>2016-04-24T08:41:18Z</time>
      </trkpt>
      <trkpt lat="43.82906" lon="3.03316">
        <ele>558.66</ele>
        <time>2016-04-24T08:41:19Z</time>
      </trkpt>
      <trkpt lat="43.82917" lon="3.03305">
        <ele>557.7</ele>
        <time>2016-04-24T08:41:20Z</time>
      </trkpt>
      <trkpt lat="43.82926" lon="3.03291">
        <ele>557.22</ele>
        <time>2016-04-24T08:41:21Z</time>
      </trkpt>
      <trkpt lat="43.82935" lon="3.03275">
        <ele>556.26</ele>
        <time>2016-04-24T08:41:22Z</time>
      </trkpt>
      <trkpt lat="43.82943" lon="3.03259">
        <ele>555.78</ele>
        <time>2016-04-24T08:41:23Z</time>
      </trkpt>
      <trkpt lat="43.83032" lon="3.03168">
        <ele>551.45</ele>
        <time>2016-04-24T08:41:31Z</time>
      </trkpt>
      <trkpt lat="43.83049" lon="3.03165">
        <ele>551.45</ele>
        <time>2016-04-24T08:41:32Z</time>
      </trkpt>
      <trkpt lat="43.83066" lon="3.03162">
        <ele>550.49</ele>
        <time>2016-04-24T08:41:33Z</time>
      </trkpt>
      <trkpt lat="43.83134" lon="3.03158">
        <ele>546.65</ele>
        <time>2016-04-24T08:41:37Z</time>
      </trkpt>
      <trkpt lat="43.83151" lon="3.03161">
        <ele>545.69</ele>
        <time>2016-04-24T08:41:38Z</time>
      </trkpt>
      <trkpt lat="43.83194" lon="3.03172">
        <ele>543.28</ele>
        <time>2016-04-24T08:41:41Z</time>
      </trkpt>
      <trkpt lat="43.83206" lon="3.03178">
        <ele>542.32</ele>
        <time>2016-04-24T08:41:42Z</time>
      </trkpt>
      <trkpt lat="43.83216" lon="3.0319">
        <ele>542.32</ele>
        <time>2016-04-24T08:41:43Z</time>
      </trkpt>
      <trkpt lat="43.83224" lon="3.03202">
        <ele>542.32</ele>
        <time>2016-04-24T08:41:44Z</time>
      </trkpt>
      <trkpt lat="43.83233" lon="3.03211">
        <ele>541.84</ele>
        <time>2016-04-24T08:41:45Z</time>
      </trkpt>
      <trkpt lat="43.83241" lon="3.0322">
        <ele>540.88</ele>
        <time>2016-04-24T08:41:46Z</time>
      </trkpt>
      <trkpt lat="43.8325" lon="3.03222">
        <ele>539.92</ele>
        <time>2016-04-24T08:41:47Z</time>
      </trkpt>
      <trkpt lat="43.83259" lon="3.03216">
        <ele>538.48</ele>
        <time>2016-04-24T08:41:48Z</time>
      </trkpt>
      <trkpt lat="43.83267" lon="3.03207">
        <ele>537.51</ele>
        <time>2016-04-24T08:41:49Z</time>
      </trkpt>
      <trkpt lat="43.83271" lon="3.03192">
        <ele>537.99</ele>
        <time>2016-04-24T08:41:50Z</time>
      </trkpt>
      <trkpt lat="43.83276" lon="3.03175">
        <ele>537.99</ele>
        <time>2016-04-24T08:41:51Z</time>
      </trkpt>
      <trkpt lat="43.83282" lon="3.03158">
        <ele>537.99</ele>
        <time>2016-04-24T08:41:52Z</time>
      </trkpt>
      <trkpt lat="43.83302" lon="3.03095">
        <ele>537.51</ele>
        <time>2016-04-24T08:41:56Z</time>
      </trkpt>
      <trkpt lat="43.83302" lon="3.0308">
        <ele>537.51</ele>
        <time>2016-04-24T08:41:57Z</time>
      </trkpt>
      <trkpt lat="43.83299" lon="3.03065">
        <ele>537.51</ele>
        <time>2016-04-24T08:41:58Z</time>
      </trkpt>
      <trkpt lat="43.83293" lon="3.0305">
        <ele>537.03</ele>
        <time>2016-04-24T08:41:59Z</time>
      </trkpt>
      <trkpt lat="43.83284" lon="3.03036">
        <ele>537.03</ele>
        <time>2016-04-24T08:42:00Z</time>
      </trkpt>
      <trkpt lat="43.83274" lon="3.03022">
        <ele>537.51</ele>
        <time>2016-04-24T08:42:01Z</time>
      </trkpt>
      <trkpt lat="43.83259" lon="3.02991">
        <ele>537.99</ele>
        <time>2016-04-24T08:42:03Z</time>
      </trkpt>
      <trkpt lat="43.83255" lon="3.02972">
        <ele>538.48</ele>
        <time>2016-04-24T08:42:04Z</time>
      </trkpt>
      <trkpt lat="43.83253" lon="3.02952">
        <ele>538.96</ele>
        <time>2016-04-24T08:42:05Z</time>
      </trkpt>
      <trkpt lat="43.83252" lon="3.0293">
        <ele>539.92</ele>
        <time>2016-04-24T08:42:06Z</time>
      </trkpt>
      <trkpt lat="43.83252" lon="3.02909">
        <ele>540.88</ele>
        <time>2016-04-24T08:42:07Z</time>
      </trkpt>
      <trkpt lat="43.8325" lon="3.02887">
        <ele>541.36</ele>
        <time>2016-04-24T08:42:08Z</time>
      </trkpt>
      <trkpt lat="43.83245" lon="3.02868">
        <ele>541.84</ele>
        <time>2016-04-24T08:42:09Z</time>
      </trkpt>
      <trkpt lat="43.83237" lon="3.02853">
        <ele>542.8</ele>
        <time>2016-04-24T08:42:10Z</time>
      </trkpt>
      <trkpt lat="43.83225" lon="3.0284">
        <ele>543.76</ele>
        <time>2016-04-24T08:42:11Z</time>
      </trkpt>
      <trkpt lat="43.83211" lon="3.02837">
        <ele>543.76</ele>
        <time>2016-04-24T08:42:12Z</time>
      </trkpt>
      <trkpt lat="43.83196" lon="3.02835">
        <ele>545.2</ele>
        <time>2016-04-24T08:42:13Z</time>
      </trkpt>
      <trkpt lat="43.83182" lon="3.02835">
        <ele>545.2</ele>
        <time>2016-04-24T08:42:14Z</time>
      </trkpt>
      <trkpt lat="43.8317" lon="3.02836">
        <ele>545.69</ele>
        <time>2016-04-24T08:42:15Z</time>
      </trkpt>
      <trkpt lat="43.83158" lon="3.02835">
        <ele>546.65</ele>
        <time>2016-04-24T08:42:16Z</time>
      </trkpt>
      <trkpt lat="43.83148" lon="3.0283">
        <ele>547.13</ele>
        <time>2016-04-24T08:42:17Z</time>
      </trkpt>
      <trkpt lat="43.83139" lon="3.02821">
        <ele>548.09</ele>
        <time>2016-04-24T08:42:18Z</time>
      </trkpt>
      <trkpt lat="43.83132" lon="3.02805">
        <ele>549.05</ele>
        <time>2016-04-24T08:42:19Z</time>
      </trkpt>
      <trkpt lat="43.83124" lon="3.02788">
        <ele>550.01</ele>
        <time>2016-04-24T08:42:20Z</time>
      </trkpt>
      <trkpt lat="43.83115" lon="3.02769">
        <ele>550.49</ele>
        <time>2016-04-24T08:42:21Z</time>
      </trkpt>
      <trkpt lat="43.83096" lon="3.02726">
        <ele>551.93</ele>
        <time>2016-04-24T08:42:23Z</time>
      </trkpt>
      <trkpt lat="43.83088" lon="3.02704">
        <ele>552.9</ele>
        <time>2016-04-24T08:42:24Z</time>
      </trkpt>
      <trkpt lat="43.83083" lon="3.02682">
        <ele>553.38</ele>
        <time>2016-04-24T08:42:25Z</time>
      </trkpt>
      <trkpt lat="43.83079" lon="3.02661">
        <ele>552.9</ele>
        <time>2016-04-24T08:42:26Z</time>
      </trkpt>
      <trkpt lat="43.83077" lon="3.02639">
        <ele>553.38</ele>
        <time>2016-04-24T08:42:27Z</time>
      </trkpt>
      <trkpt lat="43.83079" lon="3.02619">
        <ele>553.38</ele>
        <time>2016-04-24T08:42:28Z</time>
      </trkpt>
      <trkpt lat="43.83081" lon="3.026">
        <ele>554.34</ele>
        <time>2016-04-24T08:42:29Z</time>
      </trkpt>
      <trkpt lat="43.83083" lon="3.02562">
        <ele>556.26</ele>
        <time>2016-04-24T08:42:31Z</time>
      </trkpt>
      <trkpt lat="43.83087" lon="3.02544">
        <ele>556.74</ele>
        <time>2016-04-24T08:42:32Z</time>
      </trkpt>
      <trkpt lat="43.83095" lon="3.02531">
        <ele>556.74</ele>
        <time>2016-04-24T08:42:33Z</time>
      </trkpt>
      <trkpt lat="43.83106" lon="3.02519">
        <ele>557.7</ele>
        <time>2016-04-24T08:42:34Z</time>
      </trkpt>
      <trkpt lat="43.83118" lon="3.02511">
        <ele>558.18</ele>
        <time>2016-04-24T08:42:35Z</time>
      </trkpt>
      <trkpt lat="43.8313" lon="3.02506">
        <ele>558.66</ele>
        <time>2016-04-24T08:42:36Z</time>
      </trkpt>
      <trkpt lat="43.83141" lon="3.02503">
        <ele>559.14</ele>
        <time>2016-04-24T08:42:37Z</time>
      </trkpt>
      <trkpt lat="43.8315" lon="3.02498">
        <ele>558.66</ele>
        <time>2016-04-24T08:42:38Z</time>
      </trkpt>
      <trkpt lat="43.83157" lon="3.02486">
        <ele>558.66</ele>
        <time>2016-04-24T08:42:39Z</time>
      </trkpt>
      <trkpt lat="43.8316" lon="3.02468">
        <ele>560.11</ele>
        <time>2016-04-24T08:42:40Z</time>
      </trkpt>
      <trkpt lat="43.83162" lon="3.02449">
        <ele>560.59</ele>
        <time>2016-04-24T08:42:41Z</time>
      </trkpt>
      <trkpt lat="43.83165" lon="3.02429">
        <ele>561.55</ele>
        <time>2016-04-24T08:42:42Z</time>
      </trkpt>
      <trkpt lat="43.83171" lon="3.0241">
        <ele>562.51</ele>
        <time>2016-04-24T08:42:43Z</time>
      </trkpt>
      <trkpt lat="43.8318" lon="3.02396">
        <ele>562.99</ele>
        <time>2016-04-24T08:42:44Z</time>
      </trkpt>
      <trkpt lat="43.8319" lon="3.02386">
        <ele>563.95</ele>
        <time>2016-04-24T08:42:45Z</time>
      </trkpt>
      <trkpt lat="43.83199" lon="3.02379">
        <ele>564.43</ele>
        <time>2016-04-24T08:42:46Z</time>
      </trkpt>
      <trkpt lat="43.83207" lon="3.02372">
        <ele>564.91</ele>
        <time>2016-04-24T08:42:47Z</time>
      </trkpt>
      <trkpt lat="43.83212" lon="3.02362">
        <ele>565.39</ele>
        <time>2016-04-24T08:42:48Z</time>
      </trkpt>
      <trkpt lat="43.83215" lon="3.02349">
        <ele>565.87</ele>
        <time>2016-04-24T08:42:49Z</time>
      </trkpt>
      <trkpt lat="43.83216" lon="3.02332">
        <ele>566.83</ele>
        <time>2016-04-24T08:42:50Z</time>
      </trkpt>
      <trkpt lat="43.83219" lon="3.02312">
        <ele>567.8</ele>
        <time>2016-04-24T08:42:51Z</time>
      </trkpt>
      <trkpt lat="43.83221" lon="3.02292">
        <ele>568.76</ele>
        <time>2016-04-24T08:42:52Z</time>
      </trkpt>
      <trkpt lat="43.83219" lon="3.02273">
        <ele>569.24</ele>
        <time>2016-04-24T08:42:53Z</time>
      </trkpt>
      <trkpt lat="43.83216" lon="3.02255">
        <ele>570.2</ele>
        <time>2016-04-24T08:42:54Z</time>
      </trkpt>
      <trkpt lat="43.83214" lon="3.02237">
        <ele>571.16</ele>
        <time>2016-04-24T08:42:55Z</time>
      </trkpt>
      <trkpt lat="43.83214" lon="3.02218">
        <ele>572.12</ele>
        <time>2016-04-24T08:42:56Z</time>
      </trkpt>
      <trkpt lat="43.83215" lon="3.02197">
        <ele>572.6</ele>
        <time>2016-04-24T08:42:57Z</time>
      </trkpt>
      <trkpt lat="43.83216" lon="3.02174">
        <ele>573.56</ele>
        <time>2016-04-24T08:42:58Z</time>
      </trkpt>
      <trkpt lat="43.83214" lon="3.02151">
        <ele>574.53</ele>
        <time>2016-04-24T08:42:59Z</time>
      </trkpt>
      <trkpt lat="43.83211" lon="3.0213">
        <ele>575.49</ele>
        <time>2016-04-24T08:43:00Z</time>
      </trkpt>
      <trkpt lat="43.83209" lon="3.02111">
        <ele>576.45</ele>
        <time>2016-04-24T08:43:01Z</time>
      </trkpt>
      <trkpt lat="43.83208" lon="3.02091">
        <ele>577.41</ele>
        <time>2016-04-24T08:43:02Z</time>
      </trkpt>
      <trkpt lat="43.83208" lon="3.02071">
        <ele>577.89</ele>
        <time>2016-04-24T08:43:03Z</time>
      </trkpt>
      <trkpt lat="43.83211" lon="3.02032">
        <ele>579.81</ele>
        <time>2016-04-24T08:43:05Z</time>
      </trkpt>
      <trkpt lat="43.83216" lon="3.02014">
        <ele>580.77</ele>
        <time>2016-04-24T08:43:06Z</time>
      </trkpt>
      <trkpt lat="43.83222" lon="3.01999">
        <ele>580.77</ele>
        <time>2016-04-24T08:43:07Z</time>
      </trkpt>
      <trkpt lat="43.83229" lon="3.01986">
        <ele>581.25</ele>
        <time>2016-04-24T08:43:08Z</time>
      </trkpt>
      <trkpt lat="43.83236" lon="3.01975">
        <ele>582.22</ele>
        <time>2016-04-24T08:43:09Z</time>
      </trkpt>
      <trkpt lat="43.83241" lon="3.01966">
        <ele>582.7</ele>
        <time>2016-04-24T08:43:10Z</time>
      </trkpt>
      <trkpt lat="43.83243" lon="3.01955">
        <ele>582.7</ele>
        <time>2016-04-24T08:43:11Z</time>
      </trkpt>
      <trkpt lat="43.8324" lon="3.01947">
        <ele>583.18</ele>
        <time>2016-04-24T08:43:12Z</time>
      </trkpt>
      <trkpt lat="43.83233" lon="3.01938">
        <ele>584.14</ele>
        <time>2016-04-24T08:43:13Z</time>
      </trkpt>
      <trkpt lat="43.83224" lon="3.01933">
        <ele>584.14</ele>
        <time>2016-04-24T08:43:14Z</time>
      </trkpt>
      <trkpt lat="43.83212" lon="3.01933">
        <ele>585.1</ele>
        <time>2016-04-24T08:43:15Z</time>
      </trkpt>
      <trkpt lat="43.83197" lon="3.01936">
        <ele>585.58</ele>
        <time>2016-04-24T08:43:16Z</time>
      </trkpt>
      <trkpt lat="43.83185" lon="3.01938">
        <ele>587.02</ele>
        <time>2016-04-24T08:43:17Z</time>
      </trkpt>
      <trkpt lat="43.83174" lon="3.01937">
        <ele>587.5</ele>
        <time>2016-04-24T08:43:18Z</time>
      </trkpt>
      <trkpt lat="43.83165" lon="3.01932">
        <ele>587.98</ele>
        <time>2016-04-24T08:43:19Z</time>
      </trkpt>
      <trkpt lat="43.83159" lon="3.0192">
        <ele>587.98</ele>
        <time>2016-04-24T08:43:20Z</time>
      </trkpt>
      <trkpt lat="43.83153" lon="3.01907">
        <ele>588.46</ele>
        <time>2016-04-24T08:43:21Z</time>
      </trkpt>
      <trkpt lat="43.8315" lon="3.01888">
        <ele>588.95</ele>
        <time>2016-04-24T08:43:22Z</time>
      </trkpt>
      <trkpt lat="43.83148" lon="3.01866">
        <ele>589.43</ele>
        <time>2016-04-24T08:43:23Z</time>
      </trkpt>
      <trkpt lat="43.83148" lon="3.01843">
        <ele>590.87</ele>
        <time>2016-04-24T08:43:24Z</time>
      </trkpt>
      <trkpt lat="43.83149" lon="3.01821">
        <ele>591.83</ele>
        <time>2016-04-24T08:43:25Z</time>
      </trkpt>
      <trkpt lat="43.83158" lon="3.0172">
        <ele>596.15</ele>
        <time>2016-04-24T08:43:30Z</time>
      </trkpt>
      <trkpt lat="43.83157" lon="3.01701">
        <ele>597.12</ele>
        <time>2016-04-24T08:43:31Z</time>
      </trkpt>
      <trkpt lat="43.83154" lon="3.01683">
        <ele>598.08</ele>
        <time>2016-04-24T08:43:32Z</time>
      </trkpt>
      <trkpt lat="43.83148" lon="3.01643">
        <ele>599.52</ele>
        <time>2016-04-24T08:43:34Z</time>
      </trkpt>
      <trkpt lat="43.83147" lon="3.01621">
        <ele>600</ele>
        <time>2016-04-24T08:43:35Z</time>
      </trkpt>
      <trkpt lat="43.83149" lon="3.01553">
        <ele>602.88</ele>
        <time>2016-04-24T08:43:38Z</time>
      </trkpt>
      <trkpt lat="43.83152" lon="3.0153">
        <ele>603.85</ele>
        <time>2016-04-24T08:43:39Z</time>
      </trkpt>
      <trkpt lat="43.83158" lon="3.0149">
        <ele>605.29</ele>
        <time>2016-04-24T08:43:41Z</time>
      </trkpt>
      <trkpt lat="43.83158" lon="3.0147">
        <ele>606.25</ele>
        <time>2016-04-24T08:43:42Z</time>
      </trkpt>
      <trkpt lat="43.83155" lon="3.01451">
        <ele>607.21</ele>
        <time>2016-04-24T08:43:43Z</time>
      </trkpt>
      <trkpt lat="43.83149" lon="3.01433">
        <ele>607.69</ele>
        <time>2016-04-24T08:43:44Z</time>
      </trkpt>
      <trkpt lat="43.83144" lon="3.01415">
        <ele>608.65</ele>
        <time>2016-04-24T08:43:45Z</time>
      </trkpt>
      <trkpt lat="43.83141" lon="3.01399">
        <ele>609.13</ele>
        <time>2016-04-24T08:43:46Z</time>
      </trkpt>
      <trkpt lat="43.83139" lon="3.01383">
        <ele>609.61</ele>
        <time>2016-04-24T08:43:47Z</time>
      </trkpt>
      <trkpt lat="43.83141" lon="3.01369">
        <ele>609.61</ele>
        <time>2016-04-24T08:43:48Z</time>
      </trkpt>
      <trkpt lat="43.83149" lon="3.01361">
        <ele>609.61</ele>
        <time>2016-04-24T08:43:49Z</time>
      </trkpt>
      <trkpt lat="43.83158" lon="3.01358">
        <ele>610.09</ele>
        <time>2016-04-24T08:43:50Z</time>
      </trkpt>
      <trkpt lat="43.83167" lon="3.01358">
        <ele>611.06</ele>
        <time>2016-04-24T08:43:51Z</time>
      </trkpt>
      <trkpt lat="43.83179" lon="3.01365">
        <ele>611.54</ele>
        <time>2016-04-24T08:43:52Z</time>
      </trkpt>
      <trkpt lat="43.83192" lon="3.01378">
        <ele>612.5</ele>
        <time>2016-04-24T08:43:53Z</time>
      </trkpt>
      <trkpt lat="43.83204" lon="3.01395">
        <ele>613.46</ele>
        <time>2016-04-24T08:43:54Z</time>
      </trkpt>
      <trkpt lat="43.83215" lon="3.01413">
        <ele>614.42</ele>
        <time>2016-04-24T08:43:55Z</time>
      </trkpt>
      <trkpt lat="43.83226" lon="3.01432">
        <ele>615.38</ele>
        <time>2016-04-24T08:43:56Z</time>
      </trkpt>
      <trkpt lat="43.83282" lon="3.01515">
        <ele>620.19</ele>
        <time>2016-04-24T08:44:02Z</time>
      </trkpt>
      <trkpt lat="43.83292" lon="3.01523">
        <ele>621.15</ele>
        <time>2016-04-24T08:44:03Z</time>
      </trkpt>
      <trkpt lat="43.83304" lon="3.01526">
        <ele>621.63</ele>
        <time>2016-04-24T08:44:04Z</time>
      </trkpt>
      <trkpt lat="43.83313" lon="3.01523">
        <ele>622.11</ele>
        <time>2016-04-24T08:44:05Z</time>
      </trkpt>
      <trkpt lat="43.83322" lon="3.01517">
        <ele>622.59</ele>
        <time>2016-04-24T08:44:06Z</time>
      </trkpt>
      <trkpt lat="43.83329" lon="3.01505">
        <ele>623.55</ele>
        <time>2016-04-24T08:44:07Z</time>
      </trkpt>
      <trkpt lat="43.83328" lon="3.01489">
        <ele>624.51</ele>
        <time>2016-04-24T08:44:08Z</time>
      </trkpt>
      <trkpt lat="43.83329" lon="3.01473">
        <ele>625.47</ele>
        <time>2016-04-24T08:44:09Z</time>
      </trkpt>
      <trkpt lat="43.83327" lon="3.01453">
        <ele>625.96</ele>
        <time>2016-04-24T08:44:10Z</time>
      </trkpt>
      <trkpt lat="43.83321" lon="3.01437">
        <ele>626.44</ele>
        <time>2016-04-24T08:44:11Z</time>
      </trkpt>
      <trkpt lat="43.83319" lon="3.01422">
        <ele>626.92</ele>
        <time>2016-04-24T08:44:12Z</time>
      </trkpt>
      <trkpt lat="43.8332" lon="3.01408">
        <ele>627.4</ele>
        <time>2016-04-24T08:44:13Z</time>
      </trkpt>
      <trkpt lat="43.83325" lon="3.01394">
        <ele>628.36</ele>
        <time>2016-04-24T08:44:14Z</time>
      </trkpt>
      <trkpt lat="43.83332" lon="3.01379">
        <ele>629.32</ele>
        <time>2016-04-24T08:44:15Z</time>
      </trkpt>
      <trkpt lat="43.8334" lon="3.01364">
        <ele>629.32</ele>
        <time>2016-04-24T08:44:16Z</time>
      </trkpt>
      <trkpt lat="43.8335" lon="3.01349">
        <ele>630.28</ele>
        <time>2016-04-24T08:44:17Z</time>
      </trkpt>
      <trkpt lat="43.83392" lon="3.01261">
        <ele>633.65</ele>
        <time>2016-04-24T08:44:23Z</time>
      </trkpt>
      <trkpt lat="43.83395" lon="3.01248">
        <ele>634.13</ele>
        <time>2016-04-24T08:44:24Z</time>
      </trkpt>
      <trkpt lat="43.83391" lon="3.01235">
        <ele>634.13</ele>
        <time>2016-04-24T08:44:25Z</time>
      </trkpt>
      <trkpt lat="43.83382" lon="3.01227">
        <ele>634.61</ele>
        <time>2016-04-24T08:44:26Z</time>
      </trkpt>
      <trkpt lat="43.8337" lon="3.01218">
        <ele>635.57</ele>
        <time>2016-04-24T08:44:27Z</time>
      </trkpt>
      <trkpt lat="43.8336" lon="3.01209">
        <ele>636.05</ele>
        <time>2016-04-24T08:44:28Z</time>
      </trkpt>
      <trkpt lat="43.83347" lon="3.01199">
        <ele>637.01</ele>
        <time>2016-04-24T08:44:29Z</time>
      </trkpt>
      <trkpt lat="43.83338" lon="3.01186">
        <ele>637.49</ele>
        <time>2016-04-24T08:44:30Z</time>
      </trkpt>
      <trkpt lat="43.83334" lon="3.01171">
        <ele>637.97</ele>
        <time>2016-04-24T08:44:31Z</time>
      </trkpt>
      <trkpt lat="43.83333" lon="3.01154">
        <ele>638.45</ele>
        <time>2016-04-24T08:44:32Z</time>
      </trkpt>
      <trkpt lat="43.83335" lon="3.01135">
        <ele>638.93</ele>
        <time>2016-04-24T08:44:33Z</time>
      </trkpt>
      <trkpt lat="43.83339" lon="3.01115">
        <ele>639.89</ele>
        <time>2016-04-24T08:44:34Z</time>
      </trkpt>
      <trkpt lat="43.83342" lon="3.01095">
        <ele>640.86</ele>
        <time>2016-04-24T08:44:35Z</time>
      </trkpt>
      <trkpt lat="43.83344" lon="3.01073">
        <ele>641.34</ele>
        <time>2016-04-24T08:44:36Z</time>
      </trkpt>
      <trkpt lat="43.83345" lon="3.01053">
        <ele>642.3</ele>
        <time>2016-04-24T08:44:37Z</time>
      </trkpt>
      <trkpt lat="43.83345" lon="3.01033">
        <ele>642.78</ele>
        <time>2016-04-24T08:44:38Z</time>
      </trkpt>
      <trkpt lat="43.83344" lon="3.01016">
        <ele>643.74</ele>
        <time>2016-04-24T08:44:39Z</time>
      </trkpt>
      <trkpt lat="43.83342" lon="3.01">
        <ele>644.22</ele>
        <time>2016-04-24T08:44:40Z</time>
      </trkpt>
      <trkpt lat="43.83333" lon="3.00933">
        <ele>648.07</ele>
        <time>2016-04-24T08:44:47Z</time>
      </trkpt>
      <trkpt lat="43.83327" lon="3.00905">
        <ele>649.99</ele>
        <time>2016-04-24T08:44:52Z</time>
      </trkpt>
      <trkpt lat="43.83322" lon="3.009">
        <ele>649.99</ele>
        <time>2016-04-24T08:44:53Z</time>
      </trkpt>
      <trkpt lat="43.83316" lon="3.00898">
        <ele>649.99</ele>
        <time>2016-04-24T08:44:54Z</time>
      </trkpt>
      <trkpt lat="43.83307" lon="3.00898">
        <ele>649.99</ele>
        <time>2016-04-24T08:44:55Z</time>
      </trkpt>
      <trkpt lat="43.83296" lon="3.00898">
        <ele>649.51</ele>
        <time>2016-04-24T08:44:56Z</time>
      </trkpt>
      <trkpt lat="43.83286" lon="3.00896">
        <ele>649.51</ele>
        <time>2016-04-24T08:44:57Z</time>
      </trkpt>
      <trkpt lat="43.83276" lon="3.00894">
        <ele>649.51</ele>
        <time>2016-04-24T08:44:58Z</time>
      </trkpt>
      <trkpt lat="43.83266" lon="3.0089">
        <ele>649.51</ele>
        <time>2016-04-24T08:44:59Z</time>
      </trkpt>
      <trkpt lat="43.83256" lon="3.00886">
        <ele>649.51</ele>
        <time>2016-04-24T08:45:00Z</time>
      </trkpt>
      <trkpt lat="43.83245" lon="3.00888">
        <ele>649.03</ele>
        <time>2016-04-24T08:45:01Z</time>
      </trkpt>
      <trkpt lat="43.83235" lon="3.00897">
        <ele>649.03</ele>
        <time>2016-04-24T08:45:02Z</time>
      </trkpt>
      <trkpt lat="43.83225" lon="3.00904">
        <ele>649.03</ele>
        <time>2016-04-24T08:45:03Z</time>
      </trkpt>
      <trkpt lat="43.83215" lon="3.00917">
        <ele>649.99</ele>
        <time>2016-04-24T08:45:04Z</time>
      </trkpt>
      <trkpt lat="43.83206" lon="3.0093">
        <ele>649.99</ele>
        <time>2016-04-24T08:45:05Z</time>
      </trkpt>
      <trkpt lat="43.83197" lon="3.00945">
        <ele>649.51</ele>
        <time>2016-04-24T08:45:06Z</time>
      </trkpt>
      <trkpt lat="43.83138" lon="3.01005">
        <ele>647.59</ele>
        <time>2016-04-24T08:45:11Z</time>
      </trkpt>
      <trkpt lat="43.83126" lon="3.01009">
        <ele>647.1</ele>
        <time>2016-04-24T08:45:12Z</time>
      </trkpt>
      <trkpt lat="43.83113" lon="3.01008">
        <ele>647.1</ele>
        <time>2016-04-24T08:45:13Z</time>
      </trkpt>
      <trkpt lat="43.831" lon="3.01003">
        <ele>647.59</ele>
        <time>2016-04-24T08:45:14Z</time>
      </trkpt>
      <trkpt lat="43.83088" lon="3.00992">
        <ele>647.59</ele>
        <time>2016-04-24T08:45:15Z</time>
      </trkpt>
      <trkpt lat="43.83078" lon="3.0098">
        <ele>648.07</ele>
        <time>2016-04-24T08:45:16Z</time>
      </trkpt>
      <trkpt lat="43.83069" lon="3.00967">
        <ele>648.07</ele>
        <time>2016-04-24T08:45:17Z</time>
      </trkpt>
      <trkpt lat="43.83048" lon="3.00945">
        <ele>648.07</ele>
        <time>2016-04-24T08:45:19Z</time>
      </trkpt>
      <trkpt lat="43.83035" lon="3.00938">
        <ele>648.07</ele>
        <time>2016-04-24T08:45:20Z</time>
      </trkpt>
      <trkpt lat="43.83022" lon="3.00937">
        <ele>648.55</ele>
        <time>2016-04-24T08:45:21Z</time>
      </trkpt>
      <trkpt lat="43.83009" lon="3.00938">
        <ele>648.55</ele>
        <time>2016-04-24T08:45:22Z</time>
      </trkpt>
      <trkpt lat="43.82996" lon="3.00939">
        <ele>648.55</ele>
        <time>2016-04-24T08:45:23Z</time>
      </trkpt>
      <trkpt lat="43.82984" lon="3.00937">
        <ele>649.03</ele>
        <time>2016-04-24T08:45:24Z</time>
      </trkpt>
      <trkpt lat="43.82971" lon="3.00934">
        <ele>649.03</ele>
        <time>2016-04-24T08:45:25Z</time>
      </trkpt>
      <trkpt lat="43.82959" lon="3.00927">
        <ele>649.03</ele>
        <time>2016-04-24T08:45:26Z</time>
      </trkpt>
      <trkpt lat="43.82946" lon="3.00918">
        <ele>649.03</ele>
        <time>2016-04-24T08:45:27Z</time>
      </trkpt>
      <trkpt lat="43.82934" lon="3.00907">
        <ele>649.03</ele>
        <time>2016-04-24T08:45:28Z</time>
      </trkpt>
      <trkpt lat="43.82924" lon="3.00894">
        <ele>649.51</ele>
        <time>2016-04-24T08:45:29Z</time>
      </trkpt>
      <trkpt lat="43.82914" lon="3.00881">
        <ele>649.51</ele>
        <time>2016-04-24T08:45:30Z</time>
      </trkpt>
      <trkpt lat="43.82905" lon="3.00865">
        <ele>649.51</ele>
        <time>2016-04-24T08:45:31Z</time>
      </trkpt>
      <trkpt lat="43.82897" lon="3.00849">
        <ele>649.03</ele>
        <time>2016-04-24T08:45:32Z</time>
      </trkpt>
      <trkpt lat="43.8289" lon="3.0083">
        <ele>649.51</ele>
        <time>2016-04-24T08:45:33Z</time>
      </trkpt>
      <trkpt lat="43.82884" lon="3.0081">
        <ele>649.03</ele>
        <time>2016-04-24T08:45:34Z</time>
      </trkpt>
      <trkpt lat="43.82877" lon="3.00788">
        <ele>649.03</ele>
        <time>2016-04-24T08:45:35Z</time>
      </trkpt>
      <trkpt lat="43.82861" lon="3.00746">
        <ele>648.55</ele>
        <time>2016-04-24T08:45:37Z</time>
      </trkpt>
      <trkpt lat="43.8285" lon="3.00728">
        <ele>648.55</ele>
        <time>2016-04-24T08:45:38Z</time>
      </trkpt>
      <trkpt lat="43.82829" lon="3.00694">
        <ele>648.07</ele>
        <time>2016-04-24T08:45:40Z</time>
      </trkpt>
      <trkpt lat="43.8282" lon="3.00675">
        <ele>648.07</ele>
        <time>2016-04-24T08:45:41Z</time>
      </trkpt>
      <trkpt lat="43.82812" lon="3.00653">
        <ele>647.1</ele>
        <time>2016-04-24T08:45:42Z</time>
      </trkpt>
      <trkpt lat="43.82792" lon="3.00589">
        <ele>647.1</ele>
        <time>2016-04-24T08:45:45Z</time>
      </trkpt>
      <trkpt lat="43.82782" lon="3.00572">
        <ele>647.59</ele>
        <time>2016-04-24T08:45:46Z</time>
      </trkpt>
      <trkpt lat="43.82771" lon="3.00558">
        <ele>647.59</ele>
        <time>2016-04-24T08:45:47Z</time>
      </trkpt>
      <trkpt lat="43.82761" lon="3.00544">
        <ele>647.59</ele>
        <time>2016-04-24T08:45:48Z</time>
      </trkpt>
      <trkpt lat="43.82752" lon="3.00529">
        <ele>647.1</ele>
        <time>2016-04-24T08:45:49Z</time>
      </trkpt>
      <trkpt lat="43.82745" lon="3.00512">
        <ele>647.1</ele>
        <time>2016-04-24T08:45:50Z</time>
      </trkpt>
      <trkpt lat="43.82741" lon="3.00492">
        <ele>647.1</ele>
        <time>2016-04-24T08:45:51Z</time>
      </trkpt>
      <trkpt lat="43.82736" lon="3.00474">
        <ele>647.1</ele>
        <time>2016-04-24T08:45:52Z</time>
      </trkpt>
      <trkpt lat="43.8273" lon="3.00456">
        <ele>647.1</ele>
        <time>2016-04-24T08:45:53Z</time>
      </trkpt>
      <trkpt lat="43.82707" lon="3.00436">
        <ele>646.14</ele>
        <time>2016-04-24T08:45:55Z</time>
      </trkpt>
      <trkpt lat="43.82695" lon="3.00426">
        <ele>646.62</ele>
        <time>2016-04-24T08:45:56Z</time>
      </trkpt>
      <trkpt lat="43.82686" lon="3.00411">
        <ele>646.62</ele>
        <time>2016-04-24T08:45:57Z</time>
      </trkpt>
      <trkpt lat="43.82679" lon="3.00394">
        <ele>646.14</ele>
        <time>2016-04-24T08:45:58Z</time>
      </trkpt>
      <trkpt lat="43.82676" lon="3.00371">
        <ele>645.66</ele>
        <time>2016-04-24T08:45:59Z</time>
      </trkpt>
      <trkpt lat="43.82674" lon="3.00347">
        <ele>645.66</ele>
        <time>2016-04-24T08:46:00Z</time>
      </trkpt>
      <trkpt lat="43.82673" lon="3.00322">
        <ele>646.14</ele>
        <time>2016-04-24T08:46:01Z</time>
      </trkpt>
      <trkpt lat="43.82676" lon="3.00239">
        <ele>647.59</ele>
        <time>2016-04-24T08:46:05Z</time>
      </trkpt>
      <trkpt lat="43.82673" lon="3.00224">
        <ele>647.59</ele>
        <time>2016-04-24T08:46:06Z</time>
      </trkpt>
      <trkpt lat="43.82667" lon="3.00208">
        <ele>647.59</ele>
        <time>2016-04-24T08:46:07Z</time>
      </trkpt>
      <trkpt lat="43.82658" lon="3.00193">
        <ele>647.59</ele>
        <time>2016-04-24T08:46:08Z</time>
      </trkpt>
      <trkpt lat="43.82649" lon="3.00175">
        <ele>648.55</ele>
        <time>2016-04-24T08:46:09Z</time>
      </trkpt>
      <trkpt lat="43.82642" lon="3.00154">
        <ele>649.99</ele>
        <time>2016-04-24T08:46:10Z</time>
      </trkpt>
      <trkpt lat="43.82636" lon="3.00133">
        <ele>650.47</ele>
        <time>2016-04-24T08:46:11Z</time>
      </trkpt>
      <trkpt lat="43.82624" lon="3.00062">
        <ele>654.8</ele>
        <time>2016-04-24T08:46:15Z</time>
      </trkpt>
      <trkpt lat="43.82624" lon="3.00047">
        <ele>655.28</ele>
        <time>2016-04-24T08:46:16Z</time>
      </trkpt>
      <trkpt lat="43.82627" lon="3.00033">
        <ele>655.28</ele>
        <time>2016-04-24T08:46:17Z</time>
      </trkpt>
      <trkpt lat="43.82633" lon="3.00022">
        <ele>655.76</ele>
        <time>2016-04-24T08:46:18Z</time>
      </trkpt>
      <trkpt lat="43.82641" lon="3.00012">
        <ele>655.76</ele>
        <time>2016-04-24T08:46:19Z</time>
      </trkpt>
      <trkpt lat="43.82652" lon="2.99987">
        <ele>656.24</ele>
        <time>2016-04-24T08:46:21Z</time>
      </trkpt>
      <trkpt lat="43.82655" lon="2.99974">
        <ele>656.72</ele>
        <time>2016-04-24T08:46:22Z</time>
      </trkpt>
      <trkpt lat="43.82658" lon="2.9996">
        <ele>656.72</ele>
        <time>2016-04-24T08:46:23Z</time>
      </trkpt>
      <trkpt lat="43.82659" lon="2.99947">
        <ele>657.2</ele>
        <time>2016-04-24T08:46:24Z</time>
      </trkpt>
      <trkpt lat="43.82658" lon="2.99933">
        <ele>657.2</ele>
        <time>2016-04-24T08:46:25Z</time>
      </trkpt>
      <trkpt lat="43.82653" lon="2.99921">
        <ele>657.68</ele>
        <time>2016-04-24T08:46:26Z</time>
      </trkpt>
      <trkpt lat="43.82647" lon="2.99909">
        <ele>658.16</ele>
        <time>2016-04-24T08:46:27Z</time>
      </trkpt>
      <trkpt lat="43.8264" lon="2.99898">
        <ele>659.12</ele>
        <time>2016-04-24T08:46:28Z</time>
      </trkpt>
      <trkpt lat="43.82631" lon="2.99889">
        <ele>659.12</ele>
        <time>2016-04-24T08:46:29Z</time>
      </trkpt>
      <trkpt lat="43.82622" lon="2.99885">
        <ele>658.64</ele>
        <time>2016-04-24T08:46:30Z</time>
      </trkpt>
      <trkpt lat="43.82613" lon="2.99883">
        <ele>658.64</ele>
        <time>2016-04-24T08:46:31Z</time>
      </trkpt>
      <trkpt lat="43.82602" lon="2.99888">
        <ele>658.64</ele>
        <time>2016-04-24T08:46:32Z</time>
      </trkpt>
      <trkpt lat="43.82594" lon="2.99896">
        <ele>658.64</ele>
        <time>2016-04-24T08:46:33Z</time>
      </trkpt>
      <trkpt lat="43.82588" lon="2.99909">
        <ele>658.64</ele>
        <time>2016-04-24T08:46:34Z</time>
      </trkpt>
      <trkpt lat="43.82581" lon="2.9992">
        <ele>658.16</ele>
        <time>2016-04-24T08:46:35Z</time>
      </trkpt>
      <trkpt lat="43.82573" lon="2.99929">
        <ele>657.68</ele>
        <time>2016-04-24T08:46:36Z</time>
      </trkpt>
      <trkpt lat="43.82564" lon="2.99932">
        <ele>658.16</ele>
        <time>2016-04-24T08:46:37Z</time>
      </trkpt>
      <trkpt lat="43.82554" lon="2.99929">
        <ele>659.12</ele>
        <time>2016-04-24T08:46:38Z</time>
      </trkpt>
      <trkpt lat="43.82545" lon="2.9992">
        <ele>660.56</ele>
        <time>2016-04-24T08:46:39Z</time>
      </trkpt>
      <trkpt lat="43.82536" lon="2.99908">
        <ele>661.52</ele>
        <time>2016-04-24T08:46:40Z</time>
      </trkpt>
      <trkpt lat="43.82528" lon="2.99892">
        <ele>662.01</ele>
        <time>2016-04-24T08:46:41Z</time>
      </trkpt>
      <trkpt lat="43.82519" lon="2.99876">
        <ele>662.01</ele>
        <time>2016-04-24T08:46:42Z</time>
      </trkpt>
      <trkpt lat="43.82482" lon="2.99824">
        <ele>662.49</ele>
        <time>2016-04-24T08:46:46Z</time>
      </trkpt>
      <trkpt lat="43.82474" lon="2.99811">
        <ele>662.49</ele>
        <time>2016-04-24T08:46:47Z</time>
      </trkpt>
      <trkpt lat="43.82466" lon="2.99796">
        <ele>662.49</ele>
        <time>2016-04-24T08:46:48Z</time>
      </trkpt>
      <trkpt lat="43.8246" lon="2.99779">
        <ele>662.97</ele>
        <time>2016-04-24T08:46:49Z</time>
      </trkpt>
      <trkpt lat="43.82455" lon="2.9976">
        <ele>662.49</ele>
        <time>2016-04-24T08:46:50Z</time>
      </trkpt>
      <trkpt lat="43.82452" lon="2.99739">
        <ele>662.01</ele>
        <time>2016-04-24T08:46:51Z</time>
      </trkpt>
      <trkpt lat="43.8245" lon="2.99717">
        <ele>661.52</ele>
        <time>2016-04-24T08:46:52Z</time>
      </trkpt>
      <trkpt lat="43.82448" lon="2.99695">
        <ele>661.04</ele>
        <time>2016-04-24T08:46:53Z</time>
      </trkpt>
      <trkpt lat="43.82443" lon="2.99588">
        <ele>662.01</ele>
        <time>2016-04-24T08:46:58Z</time>
      </trkpt>
      <trkpt lat="43.82445" lon="2.99569">
        <ele>662.49</ele>
        <time>2016-04-24T08:46:59Z</time>
      </trkpt>
      <trkpt lat="43.82448" lon="2.9955">
        <ele>662.97</ele>
        <time>2016-04-24T08:47:00Z</time>
      </trkpt>
      <trkpt lat="43.82453" lon="2.99531">
        <ele>663.45</ele>
        <time>2016-04-24T08:47:01Z</time>
      </trkpt>
      <trkpt lat="43.8246" lon="2.99513">
        <ele>663.45</ele>
        <time>2016-04-24T08:47:02Z</time>
      </trkpt>
      <trkpt lat="43.82468" lon="2.99496">
        <ele>663.93</ele>
        <time>2016-04-24T08:47:03Z</time>
      </trkpt>
      <trkpt lat="43.82478" lon="2.99478">
        <ele>664.41</ele>
        <time>2016-04-24T08:47:04Z</time>
      </trkpt>
      <trkpt lat="43.82489" lon="2.99461">
        <ele>664.41</ele>
        <time>2016-04-24T08:47:05Z</time>
      </trkpt>
      <trkpt lat="43.82573" lon="2.99328">
        <ele>667.29</ele>
        <time>2016-04-24T08:47:12Z</time>
      </trkpt>
      <trkpt lat="43.82601" lon="2.99257">
        <ele>668.25</ele>
        <time>2016-04-24T08:47:16Z</time>
      </trkpt>
      <trkpt lat="43.82604" lon="2.99242">
        <ele>668.25</ele>
        <time>2016-04-24T08:47:17Z</time>
      </trkpt>
      <trkpt lat="43.82605" lon="2.99228">
        <ele>668.25</ele>
        <time>2016-04-24T08:47:18Z</time>
      </trkpt>
      <trkpt lat="43.82602" lon="2.99218">
        <ele>668.73</ele>
        <time>2016-04-24T08:47:19Z</time>
      </trkpt>
      <trkpt lat="43.82596" lon="2.99213">
        <ele>669.22</ele>
        <time>2016-04-24T08:47:20Z</time>
      </trkpt>
      <trkpt lat="43.82589" lon="2.99212">
        <ele>669.22</ele>
        <time>2016-04-24T08:47:21Z</time>
      </trkpt>
      <trkpt lat="43.82582" lon="2.99212">
        <ele>669.7</ele>
        <time>2016-04-24T08:47:22Z</time>
      </trkpt>
      <trkpt lat="43.8257" lon="2.99213">
        <ele>669.7</ele>
        <time>2016-04-24T08:47:23Z</time>
      </trkpt>
      <trkpt lat="43.82544" lon="2.99219">
        <ele>669.22</ele>
        <time>2016-04-24T08:47:25Z</time>
      </trkpt>
      <trkpt lat="43.82531" lon="2.99223">
        <ele>668.73</ele>
        <time>2016-04-24T08:47:26Z</time>
      </trkpt>
      <trkpt lat="43.82495" lon="2.99237">
        <ele>668.73</ele>
        <time>2016-04-24T08:47:29Z</time>
      </trkpt>
      <trkpt lat="43.82485" lon="2.99237">
        <ele>669.22</ele>
        <time>2016-04-24T08:47:30Z</time>
      </trkpt>
      <trkpt lat="43.82476" lon="2.9923">
        <ele>669.22</ele>
        <time>2016-04-24T08:47:31Z</time>
      </trkpt>
      <trkpt lat="43.82474" lon="2.99216">
        <ele>669.22</ele>
        <time>2016-04-24T08:47:32Z</time>
      </trkpt>
      <trkpt lat="43.82474" lon="2.99198">
        <ele>669.22</ele>
        <time>2016-04-24T08:47:33Z</time>
      </trkpt>
      <trkpt lat="43.82474" lon="2.99179">
        <ele>669.22</ele>
        <time>2016-04-24T08:47:34Z</time>
      </trkpt>
      <trkpt lat="43.82472" lon="2.9916">
        <ele>669.7</ele>
        <time>2016-04-24T08:47:35Z</time>
      </trkpt>
      <trkpt lat="43.82466" lon="2.99141">
        <ele>669.7</ele>
        <time>2016-04-24T08:47:36Z</time>
      </trkpt>
      <trkpt lat="43.82458" lon="2.99127">
        <ele>669.7</ele>
        <time>2016-04-24T08:47:37Z</time>
      </trkpt>
      <trkpt lat="43.8245" lon="2.99115">
        <ele>669.22</ele>
        <time>2016-04-24T08:47:38Z</time>
      </trkpt>
      <trkpt lat="43.82439" lon="2.99109">
        <ele>668.25</ele>
        <time>2016-04-24T08:47:39Z</time>
      </trkpt>
      <trkpt lat="43.82425" lon="2.99114">
        <ele>669.22</ele>
        <time>2016-04-24T08:47:40Z</time>
      </trkpt>
      <trkpt lat="43.82412" lon="2.9912">
        <ele>669.7</ele>
        <time>2016-04-24T08:47:41Z</time>
      </trkpt>
      <trkpt lat="43.82398" lon="2.99128">
        <ele>669.7</ele>
        <time>2016-04-24T08:47:42Z</time>
      </trkpt>
      <trkpt lat="43.82385" lon="2.99135">
        <ele>669.22</ele>
        <time>2016-04-24T08:47:43Z</time>
      </trkpt>
      <trkpt lat="43.82351" lon="2.99155">
        <ele>670.18</ele>
        <time>2016-04-24T08:47:46Z</time>
      </trkpt>
      <trkpt lat="43.8234" lon="2.99158">
        <ele>670.18</ele>
        <time>2016-04-24T08:47:47Z</time>
      </trkpt>
      <trkpt lat="43.82331" lon="2.99155">
        <ele>670.66</ele>
        <time>2016-04-24T08:47:48Z</time>
      </trkpt>
      <trkpt lat="43.82321" lon="2.99149">
        <ele>671.14</ele>
        <time>2016-04-24T08:47:49Z</time>
      </trkpt>
      <trkpt lat="43.82314" lon="2.9914">
        <ele>671.14</ele>
        <time>2016-04-24T08:47:50Z</time>
      </trkpt>
      <trkpt lat="43.82308" lon="2.9913">
        <ele>671.14</ele>
        <time>2016-04-24T08:47:51Z</time>
      </trkpt>
      <trkpt lat="43.82304" lon="2.99119">
        <ele>671.62</ele>
        <time>2016-04-24T08:47:52Z</time>
      </trkpt>
      <trkpt lat="43.82302" lon="2.99106">
        <ele>671.14</ele>
        <time>2016-04-24T08:47:53Z</time>
      </trkpt>
      <trkpt lat="43.82302" lon="2.99091">
        <ele>671.14</ele>
        <time>2016-04-24T08:47:54Z</time>
      </trkpt>
      <trkpt lat="43.82302" lon="2.99076">
        <ele>671.14</ele>
        <time>2016-04-24T08:47:55Z</time>
      </trkpt>
      <trkpt lat="43.82304" lon="2.9906">
        <ele>670.66</ele>
        <time>2016-04-24T08:47:56Z</time>
      </trkpt>
      <trkpt lat="43.82306" lon="2.99044">
        <ele>670.66</ele>
        <time>2016-04-24T08:47:57Z</time>
      </trkpt>
      <trkpt lat="43.8231" lon="2.99029">
        <ele>670.18</ele>
        <time>2016-04-24T08:47:58Z</time>
      </trkpt>
      <trkpt lat="43.82316" lon="2.99014">
        <ele>669.7</ele>
        <time>2016-04-24T08:47:59Z</time>
      </trkpt>
      <trkpt lat="43.82324" lon="2.99001">
        <ele>669.22</ele>
        <time>2016-04-24T08:48:00Z</time>
      </trkpt>
      <trkpt lat="43.82334" lon="2.98988">
        <ele>669.22</ele>
        <time>2016-04-24T08:48:01Z</time>
      </trkpt>
      <trkpt lat="43.82345" lon="2.98974">
        <ele>668.73</ele>
        <time>2016-04-24T08:48:02Z</time>
      </trkpt>
      <trkpt lat="43.82384" lon="2.98925">
        <ele>668.73</ele>
        <time>2016-04-24T08:48:06Z</time>
      </trkpt>
      <trkpt lat="43.82389" lon="2.9891">
        <ele>668.25</ele>
        <time>2016-04-24T08:48:07Z</time>
      </trkpt>
      <trkpt lat="43.82392" lon="2.98894">
        <ele>668.25</ele>
        <time>2016-04-24T08:48:08Z</time>
      </trkpt>
      <trkpt lat="43.82391" lon="2.98877">
        <ele>668.25</ele>
        <time>2016-04-24T08:48:09Z</time>
      </trkpt>
      <trkpt lat="43.82387" lon="2.98859">
        <ele>668.73</ele>
        <time>2016-04-24T08:48:10Z</time>
      </trkpt>
      <trkpt lat="43.82381" lon="2.9884">
        <ele>668.73</ele>
        <time>2016-04-24T08:48:11Z</time>
      </trkpt>
      <trkpt lat="43.82374" lon="2.98823">
        <ele>669.22</ele>
        <time>2016-04-24T08:48:12Z</time>
      </trkpt>
      <trkpt lat="43.82344" lon="2.98718">
        <ele>670.18</ele>
        <time>2016-04-24T08:48:18Z</time>
      </trkpt>
      <trkpt lat="43.82342" lon="2.987">
        <ele>670.66</ele>
        <time>2016-04-24T08:48:19Z</time>
      </trkpt>
      <trkpt lat="43.82335" lon="2.98618">
        <ele>671.62</ele>
        <time>2016-04-24T08:48:24Z</time>
      </trkpt>
      <trkpt lat="43.8233" lon="2.98603">
        <ele>671.62</ele>
        <time>2016-04-24T08:48:25Z</time>
      </trkpt>
      <trkpt lat="43.82323" lon="2.98589">
        <ele>672.1</ele>
        <time>2016-04-24T08:48:26Z</time>
      </trkpt>
      <trkpt lat="43.82312" lon="2.98578">
        <ele>672.1</ele>
        <time>2016-04-24T08:48:27Z</time>
      </trkpt>
      <trkpt lat="43.82301" lon="2.98566">
        <ele>672.1</ele>
        <time>2016-04-24T08:48:28Z</time>
      </trkpt>
      <trkpt lat="43.82291" lon="2.98552">
        <ele>672.1</ele>
        <time>2016-04-24T08:48:29Z</time>
      </trkpt>
      <trkpt lat="43.82282" lon="2.98536">
        <ele>671.62</ele>
        <time>2016-04-24T08:48:30Z</time>
      </trkpt>
      <trkpt lat="43.82277" lon="2.98516">
        <ele>672.1</ele>
        <time>2016-04-24T08:48:31Z</time>
      </trkpt>
      <trkpt lat="43.82273" lon="2.98495">
        <ele>672.58</ele>
        <time>2016-04-24T08:48:32Z</time>
      </trkpt>
      <trkpt lat="43.82271" lon="2.98472">
        <ele>672.58</ele>
        <time>2016-04-24T08:48:33Z</time>
      </trkpt>
      <trkpt lat="43.82257" lon="2.98331">
        <ele>674.5</ele>
        <time>2016-04-24T08:48:40Z</time>
      </trkpt>
      <trkpt lat="43.82261" lon="2.9832">
        <ele>674.02</ele>
        <time>2016-04-24T08:48:41Z</time>
      </trkpt>
      <trkpt lat="43.82267" lon="2.98314">
        <ele>673.06</ele>
        <time>2016-04-24T08:48:42Z</time>
      </trkpt>
      <trkpt lat="43.82275" lon="2.98315">
        <ele>672.58</ele>
        <time>2016-04-24T08:48:43Z</time>
      </trkpt>
      <trkpt lat="43.82286" lon="2.98319">
        <ele>672.1</ele>
        <time>2016-04-24T08:48:44Z</time>
      </trkpt>
      <trkpt lat="43.82296" lon="2.98327">
        <ele>671.62</ele>
        <time>2016-04-24T08:48:45Z</time>
      </trkpt>
      <trkpt lat="43.82304" lon="2.98336">
        <ele>671.14</ele>
        <time>2016-04-24T08:48:46Z</time>
      </trkpt>
      <trkpt lat="43.82313" lon="2.98345">
        <ele>670.66</ele>
        <time>2016-04-24T08:48:47Z</time>
      </trkpt>
      <trkpt lat="43.82321" lon="2.98353">
        <ele>670.66</ele>
        <time>2016-04-24T08:48:48Z</time>
      </trkpt>
      <trkpt lat="43.82328" lon="2.98358">
        <ele>670.66</ele>
        <time>2016-04-24T08:48:49Z</time>
      </trkpt>
      <trkpt lat="43.82337" lon="2.9836">
        <ele>670.66</ele>
        <time>2016-04-24T08:48:50Z</time>
      </trkpt>
      <trkpt lat="43.82346" lon="2.9836">
        <ele>670.18</ele>
        <time>2016-04-24T08:48:51Z</time>
      </trkpt>
      <trkpt lat="43.82358" lon="2.98357">
        <ele>670.18</ele>
        <time>2016-04-24T08:48:52Z</time>
      </trkpt>
      <trkpt lat="43.82372" lon="2.98352">
        <ele>670.66</ele>
        <time>2016-04-24T08:48:53Z</time>
      </trkpt>
      <trkpt lat="43.82384" lon="2.98347">
        <ele>670.18</ele>
        <time>2016-04-24T08:48:54Z</time>
      </trkpt>
      <trkpt lat="43.82435" lon="2.98315">
        <ele>660.56</ele>
        <time>2016-04-24T08:48:59Z</time>
      </trkpt>
      <trkpt lat="43.82441" lon="2.98301">
        <ele>659.12</ele>
        <time>2016-04-24T08:49:00Z</time>
      </trkpt>
      <trkpt lat="43.82447" lon="2.98285">
        <ele>659.6</ele>
        <time>2016-04-24T08:49:01Z</time>
      </trkpt>
      <trkpt lat="43.82453" lon="2.98267">
        <ele>658.64</ele>
        <time>2016-04-24T08:49:02Z</time>
      </trkpt>
      <trkpt lat="43.82458" lon="2.98248">
        <ele>658.64</ele>
        <time>2016-04-24T08:49:03Z</time>
      </trkpt>
      <trkpt lat="43.82464" lon="2.98226">
        <ele>659.12</ele>
        <time>2016-04-24T08:49:04Z</time>
      </trkpt>
      <trkpt lat="43.82501" lon="2.98045">
        <ele>658.16</ele>
        <time>2016-04-24T08:49:13Z</time>
      </trkpt>
      <trkpt lat="43.82512" lon="2.97941">
        <ele>654.31</ele>
        <time>2016-04-24T08:49:18Z</time>
      </trkpt>
      <trkpt lat="43.82517" lon="2.97924">
        <ele>653.83</ele>
        <time>2016-04-24T08:49:19Z</time>
      </trkpt>
      <trkpt lat="43.82533" lon="2.97879">
        <ele>650.95</ele>
        <time>2016-04-24T08:49:22Z</time>
      </trkpt>
      <trkpt lat="43.82541" lon="2.97868">
        <ele>649.99</ele>
        <time>2016-04-24T08:49:23Z</time>
      </trkpt>
      <trkpt lat="43.8255" lon="2.97861">
        <ele>649.51</ele>
        <time>2016-04-24T08:49:24Z</time>
      </trkpt>
      <trkpt lat="43.82563" lon="2.97859">
        <ele>648.55</ele>
        <time>2016-04-24T08:49:25Z</time>
      </trkpt>
      <trkpt lat="43.82574" lon="2.9786">
        <ele>648.07</ele>
        <time>2016-04-24T08:49:26Z</time>
      </trkpt>
      <trkpt lat="43.82587" lon="2.97864">
        <ele>647.1</ele>
        <time>2016-04-24T08:49:27Z</time>
      </trkpt>
      <trkpt lat="43.82601" lon="2.97873">
        <ele>646.62</ele>
        <time>2016-04-24T08:49:28Z</time>
      </trkpt>
      <trkpt lat="43.82614" lon="2.97882">
        <ele>646.14</ele>
        <time>2016-04-24T08:49:29Z</time>
      </trkpt>
      <trkpt lat="43.82626" lon="2.97891">
        <ele>645.66</ele>
        <time>2016-04-24T08:49:30Z</time>
      </trkpt>
      <trkpt lat="43.82646" lon="2.97905">
        <ele>644.22</ele>
        <time>2016-04-24T08:49:32Z</time>
      </trkpt>
      <trkpt lat="43.82656" lon="2.97907">
        <ele>643.74</ele>
        <time>2016-04-24T08:49:33Z</time>
      </trkpt>
      <trkpt lat="43.82665" lon="2.97902">
        <ele>642.78</ele>
        <time>2016-04-24T08:49:34Z</time>
      </trkpt>
      <trkpt lat="43.82672" lon="2.97894">
        <ele>641.34</ele>
        <time>2016-04-24T08:49:35Z</time>
      </trkpt>
      <trkpt lat="43.82678" lon="2.97881">
        <ele>639.89</ele>
        <time>2016-04-24T08:49:36Z</time>
      </trkpt>
      <trkpt lat="43.82682" lon="2.97867">
        <ele>638.93</ele>
        <time>2016-04-24T08:49:37Z</time>
      </trkpt>
      <trkpt lat="43.82685" lon="2.9785">
        <ele>638.93</ele>
        <time>2016-04-24T08:49:38Z</time>
      </trkpt>
      <trkpt lat="43.82686" lon="2.97833">
        <ele>638.45</ele>
        <time>2016-04-24T08:49:39Z</time>
      </trkpt>
      <trkpt lat="43.82688" lon="2.97815">
        <ele>637.97</ele>
        <time>2016-04-24T08:49:40Z</time>
      </trkpt>
      <trkpt lat="43.82696" lon="2.97768">
        <ele>636.53</ele>
        <time>2016-04-24T08:49:43Z</time>
      </trkpt>
      <trkpt lat="43.827" lon="2.97755">
        <ele>636.05</ele>
        <time>2016-04-24T08:49:44Z</time>
      </trkpt>
      <trkpt lat="43.82706" lon="2.97744">
        <ele>635.57</ele>
        <time>2016-04-24T08:49:45Z</time>
      </trkpt>
      <trkpt lat="43.82715" lon="2.9774">
        <ele>635.09</ele>
        <time>2016-04-24T08:49:46Z</time>
      </trkpt>
      <trkpt lat="43.82726" lon="2.97737">
        <ele>633.65</ele>
        <time>2016-04-24T08:49:47Z</time>
      </trkpt>
      <trkpt lat="43.82737" lon="2.97739">
        <ele>632.68</ele>
        <time>2016-04-24T08:49:48Z</time>
      </trkpt>
      <trkpt lat="43.82749" lon="2.97746">
        <ele>632.2</ele>
        <time>2016-04-24T08:49:49Z</time>
      </trkpt>
      <trkpt lat="43.82762" lon="2.97753">
        <ele>631.24</ele>
        <time>2016-04-24T08:49:50Z</time>
      </trkpt>
      <trkpt lat="43.82777" lon="2.9776">
        <ele>630.76</ele>
        <time>2016-04-24T08:49:51Z</time>
      </trkpt>
      <trkpt lat="43.82864" lon="2.97815">
        <ele>626.44</ele>
        <time>2016-04-24T08:49:58Z</time>
      </trkpt>
      <trkpt lat="43.82873" lon="2.97817">
        <ele>625.96</ele>
        <time>2016-04-24T08:49:59Z</time>
      </trkpt>
      <trkpt lat="43.8288" lon="2.97812">
        <ele>625.47</ele>
        <time>2016-04-24T08:50:00Z</time>
      </trkpt>
      <trkpt lat="43.82887" lon="2.97805">
        <ele>624.51</ele>
        <time>2016-04-24T08:50:01Z</time>
      </trkpt>
      <trkpt lat="43.82895" lon="2.97791">
        <ele>624.51</ele>
        <time>2016-04-24T08:50:02Z</time>
      </trkpt>
      <trkpt lat="43.82901" lon="2.97776">
        <ele>624.99</ele>
        <time>2016-04-24T08:50:03Z</time>
      </trkpt>
      <trkpt lat="43.82974" lon="2.97685">
        <ele>621.15</ele>
        <time>2016-04-24T08:50:09Z</time>
      </trkpt>
      <trkpt lat="43.83045" lon="2.97553">
        <ele>614.9</ele>
        <time>2016-04-24T08:50:16Z</time>
      </trkpt>
      <trkpt lat="43.83126" lon="2.97389">
        <ele>607.69</ele>
        <time>2016-04-24T08:50:24Z</time>
      </trkpt>
      <trkpt lat="43.83205" lon="2.97285">
        <ele>600</ele>
        <time>2016-04-24T08:50:32Z</time>
      </trkpt>
      <trkpt lat="43.83215" lon="2.97291">
        <ele>598.08</ele>
        <time>2016-04-24T08:50:33Z</time>
      </trkpt>
      <trkpt lat="43.83225" lon="2.97299">
        <ele>597.6</ele>
        <time>2016-04-24T08:50:34Z</time>
      </trkpt>
      <trkpt lat="43.83235" lon="2.97309">
        <ele>596.64</ele>
        <time>2016-04-24T08:50:35Z</time>
      </trkpt>
      <trkpt lat="43.83244" lon="2.97317">
        <ele>595.67</ele>
        <time>2016-04-24T08:50:36Z</time>
      </trkpt>
      <trkpt lat="43.83254" lon="2.97322">
        <ele>594.23</ele>
        <time>2016-04-24T08:50:37Z</time>
      </trkpt>
      <trkpt lat="43.83263" lon="2.97326">
        <ele>592.79</ele>
        <time>2016-04-24T08:50:38Z</time>
      </trkpt>
      <trkpt lat="43.83272" lon="2.97327">
        <ele>591.35</ele>
        <time>2016-04-24T08:50:39Z</time>
      </trkpt>
      <trkpt lat="43.83281" lon="2.97327">
        <ele>590.87</ele>
        <time>2016-04-24T08:50:40Z</time>
      </trkpt>
      <trkpt lat="43.83289" lon="2.97323">
        <ele>592.31</ele>
        <time>2016-04-24T08:50:41Z</time>
      </trkpt>
      <trkpt lat="43.83297" lon="2.97315">
        <ele>592.31</ele>
        <time>2016-04-24T08:50:42Z</time>
      </trkpt>
      <trkpt lat="43.83306" lon="2.97304">
        <ele>592.31</ele>
        <time>2016-04-24T08:50:43Z</time>
      </trkpt>
      <trkpt lat="43.83316" lon="2.97291">
        <ele>591.83</ele>
        <time>2016-04-24T08:50:44Z</time>
      </trkpt>
      <trkpt lat="43.83326" lon="2.97277">
        <ele>589.91</ele>
        <time>2016-04-24T08:50:45Z</time>
      </trkpt>
      <trkpt lat="43.83336" lon="2.97262">
        <ele>588.95</ele>
        <time>2016-04-24T08:50:46Z</time>
      </trkpt>
      <trkpt lat="43.83422" lon="2.97154">
        <ele>582.7</ele>
        <time>2016-04-24T08:50:55Z</time>
      </trkpt>
      <trkpt lat="43.83437" lon="2.97128">
        <ele>579.33</ele>
        <time>2016-04-24T08:50:57Z</time>
      </trkpt>
      <trkpt lat="43.83442" lon="2.97111">
        <ele>577.41</ele>
        <time>2016-04-24T08:50:58Z</time>
      </trkpt>
      <trkpt lat="43.83448" lon="2.97092">
        <ele>575.97</ele>
        <time>2016-04-24T08:50:59Z</time>
      </trkpt>
      <trkpt lat="43.83473" lon="2.96949">
        <ele>568.76</ele>
        <time>2016-04-24T08:51:06Z</time>
      </trkpt>
      <trkpt lat="43.83472" lon="2.96931">
        <ele>567.32</ele>
        <time>2016-04-24T08:51:07Z</time>
      </trkpt>
      <trkpt lat="43.8347" lon="2.96911">
        <ele>565.87</ele>
        <time>2016-04-24T08:51:08Z</time>
      </trkpt>
      <trkpt lat="43.83467" lon="2.96892">
        <ele>566.35</ele>
        <time>2016-04-24T08:51:09Z</time>
      </trkpt>
      <trkpt lat="43.83463" lon="2.96876">
        <ele>566.35</ele>
        <time>2016-04-24T08:51:10Z</time>
      </trkpt>
      <trkpt lat="43.83457" lon="2.96859">
        <ele>565.87</ele>
        <time>2016-04-24T08:51:11Z</time>
      </trkpt>
      <trkpt lat="43.8345" lon="2.96842">
        <ele>566.35</ele>
        <time>2016-04-24T08:51:12Z</time>
      </trkpt>
      <trkpt lat="43.83386" lon="2.96714">
        <ele>558.66</ele>
        <time>2016-04-24T08:51:19Z</time>
      </trkpt>
      <trkpt lat="43.83365" lon="2.96685">
        <ele>555.78</ele>
        <time>2016-04-24T08:51:21Z</time>
      </trkpt>
      <trkpt lat="43.83314" lon="2.96643">
        <ele>550.01</ele>
        <time>2016-04-24T08:51:25Z</time>
      </trkpt>
      <trkpt lat="43.83291" lon="2.96629">
        <ele>550.97</ele>
        <time>2016-04-24T08:51:27Z</time>
      </trkpt>
      <trkpt lat="43.8328" lon="2.96626">
        <ele>550.49</ele>
        <time>2016-04-24T08:51:28Z</time>
      </trkpt>
      <trkpt lat="43.83239" lon="2.96611">
        <ele>547.61</ele>
        <time>2016-04-24T08:51:33Z</time>
      </trkpt>
      <trkpt lat="43.83239" lon="2.96603">
        <ele>546.65</ele>
        <time>2016-04-24T08:51:34Z</time>
      </trkpt>
      <trkpt lat="43.83241" lon="2.96591">
        <ele>545.69</ele>
        <time>2016-04-24T08:51:35Z</time>
      </trkpt>
      <trkpt lat="43.83244" lon="2.96579">
        <ele>544.24</ele>
        <time>2016-04-24T08:51:36Z</time>
      </trkpt>
      <trkpt lat="43.83249" lon="2.96567">
        <ele>543.28</ele>
        <time>2016-04-24T08:51:37Z</time>
      </trkpt>
      <trkpt lat="43.83254" lon="2.96553">
        <ele>541.84</ele>
        <time>2016-04-24T08:51:38Z</time>
      </trkpt>
      <trkpt lat="43.83289" lon="2.96456">
        <ele>536.55</ele>
        <time>2016-04-24T08:51:44Z</time>
      </trkpt>
      <trkpt lat="43.83296" lon="2.96443">
        <ele>536.55</ele>
        <time>2016-04-24T08:51:45Z</time>
      </trkpt>
      <trkpt lat="43.83303" lon="2.96432">
        <ele>535.59</ele>
        <time>2016-04-24T08:51:46Z</time>
      </trkpt>
      <trkpt lat="43.83312" lon="2.96423">
        <ele>535.59</ele>
        <time>2016-04-24T08:51:47Z</time>
      </trkpt>
      <trkpt lat="43.83319" lon="2.96413">
        <ele>534.63</ele>
        <time>2016-04-24T08:51:48Z</time>
      </trkpt>
      <trkpt lat="43.83325" lon="2.96403">
        <ele>534.15</ele>
        <time>2016-04-24T08:51:49Z</time>
      </trkpt>
      <trkpt lat="43.83328" lon="2.96392">
        <ele>533.19</ele>
        <time>2016-04-24T08:51:50Z</time>
      </trkpt>
      <trkpt lat="43.83325" lon="2.96379">
        <ele>531.27</ele>
        <time>2016-04-24T08:51:51Z</time>
      </trkpt>
      <trkpt lat="43.8332" lon="2.96368">
        <ele>529.34</ele>
        <time>2016-04-24T08:51:52Z</time>
      </trkpt>
      <trkpt lat="43.83311" lon="2.96357">
        <ele>528.38</ele>
        <time>2016-04-24T08:51:53Z</time>
      </trkpt>
      <trkpt lat="43.83301" lon="2.96341">
        <ele>528.86</ele>
        <time>2016-04-24T08:51:54Z</time>
      </trkpt>
      <trkpt lat="43.83291" lon="2.96327">
        <ele>528.86</ele>
        <time>2016-04-24T08:51:55Z</time>
      </trkpt>
      <trkpt lat="43.8328" lon="2.96315">
        <ele>527.42</ele>
        <time>2016-04-24T08:51:56Z</time>
      </trkpt>
      <trkpt lat="43.83268" lon="2.96304">
        <ele>526.94</ele>
        <time>2016-04-24T08:51:57Z</time>
      </trkpt>
      <trkpt lat="43.83256" lon="2.96298">
        <ele>526.94</ele>
        <time>2016-04-24T08:51:58Z</time>
      </trkpt>
      <trkpt lat="43.83244" lon="2.96287">
        <ele>526.46</ele>
        <time>2016-04-24T08:51:59Z</time>
      </trkpt>
      <trkpt lat="43.83217" lon="2.96262">
        <ele>524.06</ele>
        <time>2016-04-24T08:52:02Z</time>
      </trkpt>
      <trkpt lat="43.83214" lon="2.96249">
        <ele>524.06</ele>
        <time>2016-04-24T08:52:03Z</time>
      </trkpt>
      <trkpt lat="43.83214" lon="2.96233">
        <ele>523.09</ele>
        <time>2016-04-24T08:52:04Z</time>
      </trkpt>
      <trkpt lat="43.83213" lon="2.96216">
        <ele>521.65</ele>
        <time>2016-04-24T08:52:05Z</time>
      </trkpt>
      <trkpt lat="43.83217" lon="2.96201">
        <ele>521.65</ele>
        <time>2016-04-24T08:52:06Z</time>
      </trkpt>
      <trkpt lat="43.83217" lon="2.96186">
        <ele>521.65</ele>
        <time>2016-04-24T08:52:07Z</time>
      </trkpt>
      <trkpt lat="43.83212" lon="2.96142">
        <ele>518.29</ele>
        <time>2016-04-24T08:52:10Z</time>
      </trkpt>
      <trkpt lat="43.832" lon="2.96104">
        <ele>516.37</ele>
        <time>2016-04-24T08:52:13Z</time>
      </trkpt>
      <trkpt lat="43.83191" lon="2.96101">
        <ele>515.4</ele>
        <time>2016-04-24T08:52:14Z</time>
      </trkpt>
      <trkpt lat="43.83182" lon="2.96102">
        <ele>517.81</ele>
        <time>2016-04-24T08:52:15Z</time>
      </trkpt>
      <trkpt lat="43.83168" lon="2.96106">
        <ele>519.73</ele>
        <time>2016-04-24T08:52:16Z</time>
      </trkpt>
      <trkpt lat="43.83158" lon="2.96109">
        <ele>518.77</ele>
        <time>2016-04-24T08:52:17Z</time>
      </trkpt>
      <trkpt lat="43.8315" lon="2.96114">
        <ele>517.33</ele>
        <time>2016-04-24T08:52:18Z</time>
      </trkpt>
      <trkpt lat="43.83147" lon="2.96125">
        <ele>516.85</ele>
        <time>2016-04-24T08:52:19Z</time>
      </trkpt>
      <trkpt lat="43.83135" lon="2.96132">
        <ele>514.92</ele>
        <time>2016-04-24T08:52:22Z</time>
      </trkpt>
      <trkpt lat="43.83134" lon="2.96119">
        <ele>514.92</ele>
        <time>2016-04-24T08:52:24Z</time>
      </trkpt>
      <trkpt lat="43.83135" lon="2.96109">
        <ele>513.96</ele>
        <time>2016-04-24T08:52:25Z</time>
      </trkpt>
      <trkpt lat="43.83138" lon="2.96097">
        <ele>513</ele>
        <time>2016-04-24T08:52:26Z</time>
      </trkpt>
      <trkpt lat="43.8314" lon="2.96085">
        <ele>511.56</ele>
        <time>2016-04-24T08:52:27Z</time>
      </trkpt>
      <trkpt lat="43.83141" lon="2.96072">
        <ele>509.64</ele>
        <time>2016-04-24T08:52:28Z</time>
      </trkpt>
      <trkpt lat="43.83141" lon="2.96061">
        <ele>510.6</ele>
        <time>2016-04-24T08:52:29Z</time>
      </trkpt>
      <trkpt lat="43.83135" lon="2.96049">
        <ele>511.08</ele>
        <time>2016-04-24T08:52:30Z</time>
      </trkpt>
      <trkpt lat="43.83131" lon="2.9604">
        <ele>510.6</ele>
        <time>2016-04-24T08:52:31Z</time>
      </trkpt>
      <trkpt lat="43.83129" lon="2.96015">
        <ele>510.12</ele>
        <time>2016-04-24T08:52:33Z</time>
      </trkpt>
      <trkpt lat="43.83132" lon="2.96001">
        <ele>510.12</ele>
        <time>2016-04-24T08:52:34Z</time>
      </trkpt>
      <trkpt lat="43.83136" lon="2.95988">
        <ele>509.64</ele>
        <time>2016-04-24T08:52:35Z</time>
      </trkpt>
      <trkpt lat="43.8314" lon="2.95977">
        <ele>508.19</ele>
        <time>2016-04-24T08:52:36Z</time>
      </trkpt>
      <trkpt lat="43.83145" lon="2.95964">
        <ele>507.71</ele>
        <time>2016-04-24T08:52:37Z</time>
      </trkpt>
      <trkpt lat="43.83152" lon="2.9594">
        <ele>504.83</ele>
        <time>2016-04-24T08:52:39Z</time>
      </trkpt>
      <trkpt lat="43.83153" lon="2.95927">
        <ele>504.35</ele>
        <time>2016-04-24T08:52:40Z</time>
      </trkpt>
      <trkpt lat="43.83153" lon="2.95914">
        <ele>503.87</ele>
        <time>2016-04-24T08:52:41Z</time>
      </trkpt>
      <trkpt lat="43.83152" lon="2.95901">
        <ele>503.39</ele>
        <time>2016-04-24T08:52:42Z</time>
      </trkpt>
      <trkpt lat="43.83148" lon="2.95887">
        <ele>502.43</ele>
        <time>2016-04-24T08:52:43Z</time>
      </trkpt>
      <trkpt lat="43.83142" lon="2.95874">
        <ele>501.95</ele>
        <time>2016-04-24T08:52:44Z</time>
      </trkpt>
      <trkpt lat="43.83132" lon="2.95863">
        <ele>500.5</ele>
        <time>2016-04-24T08:52:45Z</time>
      </trkpt>
      <trkpt lat="43.83124" lon="2.95853">
        <ele>500.5</ele>
        <time>2016-04-24T08:52:46Z</time>
      </trkpt>
      <trkpt lat="43.83115" lon="2.95846">
        <ele>499.54</ele>
        <time>2016-04-24T08:52:47Z</time>
      </trkpt>
      <trkpt lat="43.83091" lon="2.9584">
        <ele>498.1</ele>
        <time>2016-04-24T08:52:49Z</time>
      </trkpt>
      <trkpt lat="43.83077" lon="2.95835">
        <ele>497.14</ele>
        <time>2016-04-24T08:52:50Z</time>
      </trkpt>
      <trkpt lat="43.8297" lon="2.95782">
        <ele>488.97</ele>
        <time>2016-04-24T08:52:58Z</time>
      </trkpt>
      <trkpt lat="43.82925" lon="2.95762">
        <ele>485.12</ele>
        <time>2016-04-24T08:53:02Z</time>
      </trkpt>
      <trkpt lat="43.8288" lon="2.95742">
        <ele>480.8</ele>
        <time>2016-04-24T08:53:07Z</time>
      </trkpt>
      <trkpt lat="43.82873" lon="2.95735">
        <ele>478.87</ele>
        <time>2016-04-24T08:53:08Z</time>
      </trkpt>
      <trkpt lat="43.82865" lon="2.9573">
        <ele>478.39</ele>
        <time>2016-04-24T08:53:09Z</time>
      </trkpt>
      <trkpt lat="43.82817" lon="2.95722">
        <ele>475.03</ele>
        <time>2016-04-24T08:53:13Z</time>
      </trkpt>
      <trkpt lat="43.82802" lon="2.95722">
        <ele>474.07</ele>
        <time>2016-04-24T08:53:14Z</time>
      </trkpt>
      <trkpt lat="43.82757" lon="2.9572">
        <ele>471.18</ele>
        <time>2016-04-24T08:53:17Z</time>
      </trkpt>
      <trkpt lat="43.82672" lon="2.95697">
        <ele>465.42</ele>
        <time>2016-04-24T08:53:23Z</time>
      </trkpt>
      <trkpt lat="43.82659" lon="2.95696">
        <ele>464.45</ele>
        <time>2016-04-24T08:53:24Z</time>
      </trkpt>
      <trkpt lat="43.82591" lon="2.95684">
        <ele>456.28</ele>
        <time>2016-04-24T08:53:31Z</time>
      </trkpt>
      <trkpt lat="43.82516" lon="2.95623">
        <ele>451.96</ele>
        <time>2016-04-24T08:53:38Z</time>
      </trkpt>
      <trkpt lat="43.82506" lon="2.95614">
        <ele>450.52</ele>
        <time>2016-04-24T08:53:39Z</time>
      </trkpt>
      <trkpt lat="43.82499" lon="2.95601">
        <ele>449.55</ele>
        <time>2016-04-24T08:53:40Z</time>
      </trkpt>
      <trkpt lat="43.82491" lon="2.95588">
        <ele>448.59</ele>
        <time>2016-04-24T08:53:41Z</time>
      </trkpt>
      <trkpt lat="43.82476" lon="2.95562">
        <ele>446.19</ele>
        <time>2016-04-24T08:53:43Z</time>
      </trkpt>
      <trkpt lat="43.82466" lon="2.95551">
        <ele>445.23</ele>
        <time>2016-04-24T08:53:44Z</time>
      </trkpt>
      <trkpt lat="43.82456" lon="2.95541">
        <ele>445.23</ele>
        <time>2016-04-24T08:53:45Z</time>
      </trkpt>
      <trkpt lat="43.8242" lon="2.95507">
        <ele>442.34</ele>
        <time>2016-04-24T08:53:49Z</time>
      </trkpt>
      <trkpt lat="43.82413" lon="2.95497">
        <ele>441.38</ele>
        <time>2016-04-24T08:53:50Z</time>
      </trkpt>
      <trkpt lat="43.82408" lon="2.95487">
        <ele>440.9</ele>
        <time>2016-04-24T08:53:51Z</time>
      </trkpt>
      <trkpt lat="43.82406" lon="2.95476">
        <ele>440.42</ele>
        <time>2016-04-24T08:53:52Z</time>
      </trkpt>
      <trkpt lat="43.82408" lon="2.95468">
        <ele>440.9</ele>
        <time>2016-04-24T08:53:53Z</time>
      </trkpt>
      <trkpt lat="43.82414" lon="2.95461">
        <ele>441.86</ele>
        <time>2016-04-24T08:53:54Z</time>
      </trkpt>
      <trkpt lat="43.82421" lon="2.95454">
        <ele>442.82</ele>
        <time>2016-04-24T08:53:55Z</time>
      </trkpt>
      <trkpt lat="43.82428" lon="2.95445">
        <ele>443.31</ele>
        <time>2016-04-24T08:53:56Z</time>
      </trkpt>
      <trkpt lat="43.82475" lon="2.95377">
        <ele>444.75</ele>
        <time>2016-04-24T08:54:02Z</time>
      </trkpt>
      <trkpt lat="43.82485" lon="2.95367">
        <ele>445.23</ele>
        <time>2016-04-24T08:54:03Z</time>
      </trkpt>
      <trkpt lat="43.82496" lon="2.95358">
        <ele>445.23</ele>
        <time>2016-04-24T08:54:04Z</time>
      </trkpt>
      <trkpt lat="43.82508" lon="2.95352">
        <ele>445.71</ele>
        <time>2016-04-24T08:54:05Z</time>
      </trkpt>
      <trkpt lat="43.82522" lon="2.95343">
        <ele>445.71</ele>
        <time>2016-04-24T08:54:06Z</time>
      </trkpt>
      <trkpt lat="43.82567" lon="2.95331">
        <ele>447.63</ele>
        <time>2016-04-24T08:54:10Z</time>
      </trkpt>
      <trkpt lat="43.82577" lon="2.95331">
        <ele>448.59</ele>
        <time>2016-04-24T08:54:11Z</time>
      </trkpt>
      <trkpt lat="43.82586" lon="2.95334">
        <ele>449.55</ele>
        <time>2016-04-24T08:54:12Z</time>
      </trkpt>
      <trkpt lat="43.82596" lon="2.95337">
        <ele>450.03</ele>
        <time>2016-04-24T08:54:13Z</time>
      </trkpt>
      <trkpt lat="43.82607" lon="2.95342">
        <ele>450.52</ele>
        <time>2016-04-24T08:54:14Z</time>
      </trkpt>
      <trkpt lat="43.82617" lon="2.95349">
        <ele>450.52</ele>
        <time>2016-04-24T08:54:15Z</time>
      </trkpt>
      <trkpt lat="43.82628" lon="2.95358">
        <ele>450.52</ele>
        <time>2016-04-24T08:54:16Z</time>
      </trkpt>
      <trkpt lat="43.82718" lon="2.95402">
        <ele>452.44</ele>
        <time>2016-04-24T08:54:22Z</time>
      </trkpt>
      <trkpt lat="43.82926" lon="2.95492">
        <ele>455.8</ele>
        <time>2016-04-24T08:54:34Z</time>
      </trkpt>
      <trkpt lat="43.83092" lon="2.95565">
        <ele>455.32</ele>
        <time>2016-04-24T08:54:44Z</time>
      </trkpt>
      <trkpt lat="43.83106" lon="2.95576">
        <ele>455.32</ele>
        <time>2016-04-24T08:54:45Z</time>
      </trkpt>
      <trkpt lat="43.83161" lon="2.95614">
        <ele>454.84</ele>
        <time>2016-04-24T08:54:49Z</time>
      </trkpt>
      <trkpt lat="43.83179" lon="2.95611">
        <ele>454.36</ele>
        <time>2016-04-24T08:54:50Z</time>
      </trkpt>
      <trkpt lat="43.83197" lon="2.95612">
        <ele>454.36</ele>
        <time>2016-04-24T08:54:51Z</time>
      </trkpt>
      <trkpt lat="43.83214" lon="2.95614">
        <ele>454.36</ele>
        <time>2016-04-24T08:54:52Z</time>
      </trkpt>
      <trkpt lat="43.83231" lon="2.95621">
        <ele>454.36</ele>
        <time>2016-04-24T08:54:53Z</time>
      </trkpt>
      <trkpt lat="43.83246" lon="2.95631">
        <ele>454.84</ele>
        <time>2016-04-24T08:54:54Z</time>
      </trkpt>
      <trkpt lat="43.8326" lon="2.95647">
        <ele>455.32</ele>
        <time>2016-04-24T08:54:55Z</time>
      </trkpt>
      <trkpt lat="43.83273" lon="2.95665">
        <ele>456.28</ele>
        <time>2016-04-24T08:54:56Z</time>
      </trkpt>
      <trkpt lat="43.83285" lon="2.95686">
        <ele>456.76</ele>
        <time>2016-04-24T08:54:57Z</time>
      </trkpt>
      <trkpt lat="43.83347" lon="2.95788">
        <ele>456.76</ele>
        <time>2016-04-24T08:55:03Z</time>
      </trkpt>
      <trkpt lat="43.83354" lon="2.95803">
        <ele>456.76</ele>
        <time>2016-04-24T08:55:04Z</time>
      </trkpt>
      <trkpt lat="43.83357" lon="2.95819">
        <ele>456.76</ele>
        <time>2016-04-24T08:55:05Z</time>
      </trkpt>
      <trkpt lat="43.83359" lon="2.95833">
        <ele>456.76</ele>
        <time>2016-04-24T08:55:06Z</time>
      </trkpt>
      <trkpt lat="43.83359" lon="2.95843">
        <ele>456.76</ele>
        <time>2016-04-24T08:55:07Z</time>
      </trkpt>
      <trkpt lat="43.83366" lon="2.95876">
        <ele>456.28</ele>
        <time>2016-04-24T08:55:15Z</time>
      </trkpt>
      <trkpt lat="43.83373" lon="2.95896">
        <ele>457.72</ele>
        <time>2016-04-24T08:55:28Z</time>
      </trkpt>
      <trkpt lat="43.83372" lon="2.95897">
        <ele>458.21</ele>
        <time>2016-04-24T08:55:40Z</time>
      </trkpt>
      <trkpt lat="43.83375" lon="2.95898">
        <ele>458.21</ele>
        <time>2016-04-24T08:55:41Z</time>
      </trkpt>
      <trkpt lat="43.83377" lon="2.95899">
        <ele>458.69</ele>
        <time>2016-04-24T08:55:42Z</time>
      </trkpt>
      <trkpt lat="43.83379" lon="2.95897">
        <ele>459.17</ele>
        <time>2016-04-24T08:55:56Z</time>
      </trkpt>
      <trkpt lat="43.8338" lon="2.95896">
        <ele>463.49</ele>
        <time>2016-04-24T08:56:21Z</time>
      </trkpt>
      <trkpt lat="43.83376" lon="2.95891">
        <ele>462.05</ele>
        <time>2016-04-24T09:28:23Z</time>
      </trkpt>
      <trkpt lat="43.83381" lon="2.95891">
        <ele>468.78</ele>
        <time>2016-04-24T09:29:09Z</time>
      </trkpt>
      <trkpt lat="43.83379" lon="2.95895">
        <ele>464.45</ele>
        <time>2016-04-24T09:33:50Z</time>
      </trkpt>
      <trkpt lat="43.8338" lon="2.95896">
        <ele>464.45</ele>
        <time>2016-04-24T09:35:31Z</time>
      </trkpt>
      <trkpt lat="43.83382" lon="2.95897">
        <ele>463.49</ele>
        <time>2016-04-24T09:37:04Z</time>
      </trkpt>
      <trkpt lat="43.83388" lon="2.95908">
        <ele>463.49</ele>
        <time>2016-04-24T09:37:07Z</time>
      </trkpt>
      <trkpt lat="43.83418" lon="2.95982">
        <ele>465.42</ele>
        <time>2016-04-24T09:37:17Z</time>
      </trkpt>
      <trkpt lat="43.83449" lon="2.96077">
        <ele>468.3</ele>
        <time>2016-04-24T09:37:26Z</time>
      </trkpt>
      <trkpt lat="43.83487" lon="2.962">
        <ele>471.18</ele>
        <time>2016-04-24T09:37:36Z</time>
      </trkpt>
      <trkpt lat="43.83492" lon="2.9627">
        <ele>469.74</ele>
        <time>2016-04-24T09:37:41Z</time>
      </trkpt>
      <trkpt lat="43.8349" lon="2.96285">
        <ele>469.26</ele>
        <time>2016-04-24T09:37:42Z</time>
      </trkpt>
      <trkpt lat="43.83486" lon="2.96301">
        <ele>468.78</ele>
        <time>2016-04-24T09:37:43Z</time>
      </trkpt>
      <trkpt lat="43.83472" lon="2.96375">
        <ele>466.86</ele>
        <time>2016-04-24T09:37:48Z</time>
      </trkpt>
      <trkpt lat="43.83468" lon="2.96388">
        <ele>466.38</ele>
        <time>2016-04-24T09:37:49Z</time>
      </trkpt>
      <trkpt lat="43.83464" lon="2.96401">
        <ele>466.38</ele>
        <time>2016-04-24T09:37:50Z</time>
      </trkpt>
      <trkpt lat="43.83462" lon="2.96414">
        <ele>465.9</ele>
        <time>2016-04-24T09:37:51Z</time>
      </trkpt>
      <trkpt lat="43.83462" lon="2.96428">
        <ele>465.42</ele>
        <time>2016-04-24T09:37:52Z</time>
      </trkpt>
      <trkpt lat="43.83465" lon="2.96443">
        <ele>464.93</ele>
        <time>2016-04-24T09:37:53Z</time>
      </trkpt>
      <trkpt lat="43.8347" lon="2.96459">
        <ele>465.42</ele>
        <time>2016-04-24T09:37:54Z</time>
      </trkpt>
      <trkpt lat="43.83476" lon="2.96475">
        <ele>465.42</ele>
        <time>2016-04-24T09:37:55Z</time>
      </trkpt>
      <trkpt lat="43.83504" lon="2.96528">
        <ele>467.34</ele>
        <time>2016-04-24T09:37:58Z</time>
      </trkpt>
      <trkpt lat="43.83588" lon="2.96645">
        <ele>473.11</ele>
        <time>2016-04-24T09:38:06Z</time>
      </trkpt>
      <trkpt lat="43.83679" lon="2.96799">
        <ele>475.99</ele>
        <time>2016-04-24T09:38:17Z</time>
      </trkpt>
      <trkpt lat="43.83687" lon="2.96812">
        <ele>476.47</ele>
        <time>2016-04-24T09:38:18Z</time>
      </trkpt>
      <trkpt lat="43.83697" lon="2.96823">
        <ele>476.95</ele>
        <time>2016-04-24T09:38:19Z</time>
      </trkpt>
      <trkpt lat="43.83709" lon="2.9683">
        <ele>477.43</ele>
        <time>2016-04-24T09:38:20Z</time>
      </trkpt>
      <trkpt lat="43.83721" lon="2.96836">
        <ele>478.39</ele>
        <time>2016-04-24T09:38:21Z</time>
      </trkpt>
      <trkpt lat="43.83732" lon="2.96841">
        <ele>479.35</ele>
        <time>2016-04-24T09:38:22Z</time>
      </trkpt>
      <trkpt lat="43.83744" lon="2.9685">
        <ele>480.32</ele>
        <time>2016-04-24T09:38:23Z</time>
      </trkpt>
      <trkpt lat="43.83755" lon="2.96859">
        <ele>481.76</ele>
        <time>2016-04-24T09:38:24Z</time>
      </trkpt>
      <trkpt lat="43.83767" lon="2.96869">
        <ele>482.72</ele>
        <time>2016-04-24T09:38:25Z</time>
      </trkpt>
      <trkpt lat="43.83777" lon="2.9688">
        <ele>483.68</ele>
        <time>2016-04-24T09:38:26Z</time>
      </trkpt>
      <trkpt lat="43.83787" lon="2.96892">
        <ele>484.64</ele>
        <time>2016-04-24T09:38:27Z</time>
      </trkpt>
      <trkpt lat="43.83796" lon="2.96904">
        <ele>485.12</ele>
        <time>2016-04-24T09:38:28Z</time>
      </trkpt>
      <trkpt lat="43.83806" lon="2.96913">
        <ele>486.08</ele>
        <time>2016-04-24T09:38:29Z</time>
      </trkpt>
      <trkpt lat="43.83818" lon="2.9692">
        <ele>487.05</ele>
        <time>2016-04-24T09:38:30Z</time>
      </trkpt>
      <trkpt lat="43.8383" lon="2.96924">
        <ele>488.01</ele>
        <time>2016-04-24T09:38:31Z</time>
      </trkpt>
      <trkpt lat="43.83843" lon="2.96926">
        <ele>488.49</ele>
        <time>2016-04-24T09:38:32Z</time>
      </trkpt>
      <trkpt lat="43.83856" lon="2.96924">
        <ele>489.45</ele>
        <time>2016-04-24T09:38:33Z</time>
      </trkpt>
      <trkpt lat="43.8387" lon="2.96921">
        <ele>489.93</ele>
        <time>2016-04-24T09:38:34Z</time>
      </trkpt>
      <trkpt lat="43.83884" lon="2.96916">
        <ele>489.93</ele>
        <time>2016-04-24T09:38:35Z</time>
      </trkpt>
      <trkpt lat="43.83897" lon="2.96905">
        <ele>490.41</ele>
        <time>2016-04-24T09:38:36Z</time>
      </trkpt>
      <trkpt lat="43.8391" lon="2.96896">
        <ele>490.41</ele>
        <time>2016-04-24T09:38:37Z</time>
      </trkpt>
      <trkpt lat="43.84012" lon="2.96844">
        <ele>488.97</ele>
        <time>2016-04-24T09:38:45Z</time>
      </trkpt>
      <trkpt lat="43.84025" lon="2.96843">
        <ele>488.97</ele>
        <time>2016-04-24T09:38:46Z</time>
      </trkpt>
      <trkpt lat="43.84038" lon="2.96846">
        <ele>488.49</ele>
        <time>2016-04-24T09:38:47Z</time>
      </trkpt>
      <trkpt lat="43.84052" lon="2.96851">
        <ele>488.01</ele>
        <time>2016-04-24T09:38:48Z</time>
      </trkpt>
      <trkpt lat="43.84065" lon="2.96859">
        <ele>488.01</ele>
        <time>2016-04-24T09:38:49Z</time>
      </trkpt>
      <trkpt lat="43.84079" lon="2.96868">
        <ele>487.05</ele>
        <time>2016-04-24T09:38:50Z</time>
      </trkpt>
      <trkpt lat="43.84092" lon="2.96877">
        <ele>487.05</ele>
        <time>2016-04-24T09:38:51Z</time>
      </trkpt>
      <trkpt lat="43.84115" lon="2.96892">
        <ele>486.56</ele>
        <time>2016-04-24T09:38:53Z</time>
      </trkpt>
      <trkpt lat="43.84124" lon="2.96895">
        <ele>485.6</ele>
        <time>2016-04-24T09:38:54Z</time>
      </trkpt>
      <trkpt lat="43.84132" lon="2.9689">
        <ele>485.12</ele>
        <time>2016-04-24T09:38:55Z</time>
      </trkpt>
      <trkpt lat="43.84139" lon="2.96883">
        <ele>485.12</ele>
        <time>2016-04-24T09:38:56Z</time>
      </trkpt>
      <trkpt lat="43.84148" lon="2.96875">
        <ele>484.64</ele>
        <time>2016-04-24T09:38:57Z</time>
      </trkpt>
      <trkpt lat="43.84161" lon="2.96868">
        <ele>483.2</ele>
        <time>2016-04-24T09:38:58Z</time>
      </trkpt>
      <trkpt lat="43.84176" lon="2.96867">
        <ele>482.72</ele>
        <time>2016-04-24T09:38:59Z</time>
      </trkpt>
      <trkpt lat="43.84192" lon="2.96868">
        <ele>483.2</ele>
        <time>2016-04-24T09:39:00Z</time>
      </trkpt>
      <trkpt lat="43.84207" lon="2.96871">
        <ele>484.16</ele>
        <time>2016-04-24T09:39:01Z</time>
      </trkpt>
      <trkpt lat="43.84253" lon="2.96887">
        <ele>485.6</ele>
        <time>2016-04-24T09:39:04Z</time>
      </trkpt>
      <trkpt lat="43.84266" lon="2.96895">
        <ele>486.08</ele>
        <time>2016-04-24T09:39:05Z</time>
      </trkpt>
      <trkpt lat="43.84278" lon="2.96906">
        <ele>486.56</ele>
        <time>2016-04-24T09:39:06Z</time>
      </trkpt>
      <trkpt lat="43.8429" lon="2.96918">
        <ele>487.05</ele>
        <time>2016-04-24T09:39:07Z</time>
      </trkpt>
      <trkpt lat="43.843" lon="2.96931">
        <ele>487.53</ele>
        <time>2016-04-24T09:39:08Z</time>
      </trkpt>
      <trkpt lat="43.84309" lon="2.96945">
        <ele>488.01</ele>
        <time>2016-04-24T09:39:09Z</time>
      </trkpt>
      <trkpt lat="43.84327" lon="2.96968">
        <ele>488.97</ele>
        <time>2016-04-24T09:39:11Z</time>
      </trkpt>
      <trkpt lat="43.84336" lon="2.96977">
        <ele>489.45</ele>
        <time>2016-04-24T09:39:12Z</time>
      </trkpt>
      <trkpt lat="43.84345" lon="2.96981">
        <ele>490.41</ele>
        <time>2016-04-24T09:39:13Z</time>
      </trkpt>
      <trkpt lat="43.84357" lon="2.96979">
        <ele>491.37</ele>
        <time>2016-04-24T09:39:14Z</time>
      </trkpt>
      <trkpt lat="43.8437" lon="2.96974">
        <ele>491.85</ele>
        <time>2016-04-24T09:39:15Z</time>
      </trkpt>
      <trkpt lat="43.84384" lon="2.96966">
        <ele>491.85</ele>
        <time>2016-04-24T09:39:16Z</time>
      </trkpt>
      <trkpt lat="43.84398" lon="2.96953">
        <ele>493.77</ele>
        <time>2016-04-24T09:39:17Z</time>
      </trkpt>
      <trkpt lat="43.8441" lon="2.96939">
        <ele>494.74</ele>
        <time>2016-04-24T09:39:18Z</time>
      </trkpt>
      <trkpt lat="43.8442" lon="2.96927">
        <ele>495.7</ele>
        <time>2016-04-24T09:39:19Z</time>
      </trkpt>
      <trkpt lat="43.8446" lon="2.96879">
        <ele>499.06</ele>
        <time>2016-04-24T09:39:23Z</time>
      </trkpt>
      <trkpt lat="43.84484" lon="2.96862">
        <ele>501.95</ele>
        <time>2016-04-24T09:39:25Z</time>
      </trkpt>
      <trkpt lat="43.8453" lon="2.96834">
        <ele>505.79</ele>
        <time>2016-04-24T09:39:28Z</time>
      </trkpt>
      <trkpt lat="43.84545" lon="2.96823">
        <ele>506.27</ele>
        <time>2016-04-24T09:39:29Z</time>
      </trkpt>
      <trkpt lat="43.84559" lon="2.96813">
        <ele>506.75</ele>
        <time>2016-04-24T09:39:30Z</time>
      </trkpt>
      <trkpt lat="43.84573" lon="2.96806">
        <ele>507.23</ele>
        <time>2016-04-24T09:39:31Z</time>
      </trkpt>
      <trkpt lat="43.84588" lon="2.96801">
        <ele>508.19</ele>
        <time>2016-04-24T09:39:32Z</time>
      </trkpt>
      <trkpt lat="43.84602" lon="2.96798">
        <ele>509.64</ele>
        <time>2016-04-24T09:39:33Z</time>
      </trkpt>
      <trkpt lat="43.84614" lon="2.96798">
        <ele>511.08</ele>
        <time>2016-04-24T09:39:34Z</time>
      </trkpt>
      <trkpt lat="43.84628" lon="2.96804">
        <ele>511.08</ele>
        <time>2016-04-24T09:39:35Z</time>
      </trkpt>
      <trkpt lat="43.84641" lon="2.96814">
        <ele>511.56</ele>
        <time>2016-04-24T09:39:36Z</time>
      </trkpt>
      <trkpt lat="43.84654" lon="2.96823">
        <ele>511.08</ele>
        <time>2016-04-24T09:39:37Z</time>
      </trkpt>
      <trkpt lat="43.84668" lon="2.96831">
        <ele>511.56</ele>
        <time>2016-04-24T09:39:38Z</time>
      </trkpt>
      <trkpt lat="43.84683" lon="2.96841">
        <ele>512.04</ele>
        <time>2016-04-24T09:39:39Z</time>
      </trkpt>
      <trkpt lat="43.84697" lon="2.96847">
        <ele>513.48</ele>
        <time>2016-04-24T09:39:40Z</time>
      </trkpt>
      <trkpt lat="43.84711" lon="2.96851">
        <ele>514.44</ele>
        <time>2016-04-24T09:39:41Z</time>
      </trkpt>
      <trkpt lat="43.84727" lon="2.96854">
        <ele>515.4</ele>
        <time>2016-04-24T09:39:42Z</time>
      </trkpt>
      <trkpt lat="43.84848" lon="2.9684">
        <ele>521.65</ele>
        <time>2016-04-24T09:39:50Z</time>
      </trkpt>
      <trkpt lat="43.84864" lon="2.96846">
        <ele>521.65</ele>
        <time>2016-04-24T09:39:51Z</time>
      </trkpt>
      <trkpt lat="43.8488" lon="2.96851">
        <ele>521.65</ele>
        <time>2016-04-24T09:39:52Z</time>
      </trkpt>
      <trkpt lat="43.84898" lon="2.96853">
        <ele>522.13</ele>
        <time>2016-04-24T09:39:53Z</time>
      </trkpt>
      <trkpt lat="43.84991" lon="2.96865">
        <ele>525.02</ele>
        <time>2016-04-24T09:39:59Z</time>
      </trkpt>
      <trkpt lat="43.85002" lon="2.96856">
        <ele>525.5</ele>
        <time>2016-04-24T09:40:00Z</time>
      </trkpt>
      <trkpt lat="43.8501" lon="2.96841">
        <ele>526.46</ele>
        <time>2016-04-24T09:40:01Z</time>
      </trkpt>
      <trkpt lat="43.8502" lon="2.96825">
        <ele>527.42</ele>
        <time>2016-04-24T09:40:02Z</time>
      </trkpt>
      <trkpt lat="43.85028" lon="2.96805">
        <ele>527.9</ele>
        <time>2016-04-24T09:40:03Z</time>
      </trkpt>
      <trkpt lat="43.85035" lon="2.96787">
        <ele>528.38</ele>
        <time>2016-04-24T09:40:04Z</time>
      </trkpt>
      <trkpt lat="43.85039" lon="2.96769">
        <ele>528.86</ele>
        <time>2016-04-24T09:40:05Z</time>
      </trkpt>
      <trkpt lat="43.85042" lon="2.96753">
        <ele>529.34</ele>
        <time>2016-04-24T09:40:06Z</time>
      </trkpt>
      <trkpt lat="43.85046" lon="2.96737">
        <ele>529.82</ele>
        <time>2016-04-24T09:40:07Z</time>
      </trkpt>
      <trkpt lat="43.85051" lon="2.96723">
        <ele>530.3</ele>
        <time>2016-04-24T09:40:08Z</time>
      </trkpt>
      <trkpt lat="43.85059" lon="2.9671">
        <ele>530.79</ele>
        <time>2016-04-24T09:40:09Z</time>
      </trkpt>
      <trkpt lat="43.85069" lon="2.96699">
        <ele>531.27</ele>
        <time>2016-04-24T09:40:10Z</time>
      </trkpt>
      <trkpt lat="43.85081" lon="2.96691">
        <ele>532.23</ele>
        <time>2016-04-24T09:40:11Z</time>
      </trkpt>
      <trkpt lat="43.85092" lon="2.96684">
        <ele>533.19</ele>
        <time>2016-04-24T09:40:12Z</time>
      </trkpt>
      <trkpt lat="43.85105" lon="2.96678">
        <ele>533.67</ele>
        <time>2016-04-24T09:40:13Z</time>
      </trkpt>
      <trkpt lat="43.85118" lon="2.96674">
        <ele>534.63</ele>
        <time>2016-04-24T09:40:14Z</time>
      </trkpt>
      <trkpt lat="43.85132" lon="2.96672">
        <ele>535.59</ele>
        <time>2016-04-24T09:40:15Z</time>
      </trkpt>
      <trkpt lat="43.85229" lon="2.96672">
        <ele>539.44</ele>
        <time>2016-04-24T09:40:22Z</time>
      </trkpt>
      <trkpt lat="43.8524" lon="2.96677">
        <ele>539.92</ele>
        <time>2016-04-24T09:40:23Z</time>
      </trkpt>
      <trkpt lat="43.8525" lon="2.96686">
        <ele>540.4</ele>
        <time>2016-04-24T09:40:24Z</time>
      </trkpt>
      <trkpt lat="43.8526" lon="2.96696">
        <ele>540.88</ele>
        <time>2016-04-24T09:40:25Z</time>
      </trkpt>
      <trkpt lat="43.8527" lon="2.96707">
        <ele>541.84</ele>
        <time>2016-04-24T09:40:26Z</time>
      </trkpt>
      <trkpt lat="43.85279" lon="2.96721">
        <ele>541.84</ele>
        <time>2016-04-24T09:40:27Z</time>
      </trkpt>
      <trkpt lat="43.85283" lon="2.96742">
        <ele>542.32</ele>
        <time>2016-04-24T09:40:28Z</time>
      </trkpt>
      <trkpt lat="43.85284" lon="2.96762">
        <ele>543.28</ele>
        <time>2016-04-24T09:40:29Z</time>
      </trkpt>
      <trkpt lat="43.85282" lon="2.96782">
        <ele>543.76</ele>
        <time>2016-04-24T09:40:30Z</time>
      </trkpt>
      <trkpt lat="43.85282" lon="2.96804">
        <ele>544.24</ele>
        <time>2016-04-24T09:40:31Z</time>
      </trkpt>
      <trkpt lat="43.85283" lon="2.96825">
        <ele>544.72</ele>
        <time>2016-04-24T09:40:32Z</time>
      </trkpt>
      <trkpt lat="43.85285" lon="2.96847">
        <ele>545.69</ele>
        <time>2016-04-24T09:40:33Z</time>
      </trkpt>
      <trkpt lat="43.85289" lon="2.96869">
        <ele>546.65</ele>
        <time>2016-04-24T09:40:34Z</time>
      </trkpt>
      <trkpt lat="43.85302" lon="2.96936">
        <ele>550.01</ele>
        <time>2016-04-24T09:40:38Z</time>
      </trkpt>
      <trkpt lat="43.85308" lon="2.96948">
        <ele>550.49</ele>
        <time>2016-04-24T09:40:39Z</time>
      </trkpt>
      <trkpt lat="43.85315" lon="2.96952">
        <ele>550.97</ele>
        <time>2016-04-24T09:40:40Z</time>
      </trkpt>
      <trkpt lat="43.85324" lon="2.96952">
        <ele>551.93</ele>
        <time>2016-04-24T09:40:41Z</time>
      </trkpt>
      <trkpt lat="43.85338" lon="2.96945">
        <ele>552.41</ele>
        <time>2016-04-24T09:40:42Z</time>
      </trkpt>
      <trkpt lat="43.85353" lon="2.96936">
        <ele>552.9</ele>
        <time>2016-04-24T09:40:43Z</time>
      </trkpt>
      <trkpt lat="43.85368" lon="2.96932">
        <ele>553.38</ele>
        <time>2016-04-24T09:40:44Z</time>
      </trkpt>
      <trkpt lat="43.85384" lon="2.96932">
        <ele>553.86</ele>
        <time>2016-04-24T09:40:45Z</time>
      </trkpt>
      <trkpt lat="43.85399" lon="2.96934">
        <ele>554.34</ele>
        <time>2016-04-24T09:40:46Z</time>
      </trkpt>
      <trkpt lat="43.85412" lon="2.96934">
        <ele>554.82</ele>
        <time>2016-04-24T09:40:47Z</time>
      </trkpt>
      <trkpt lat="43.85423" lon="2.96927">
        <ele>555.3</ele>
        <time>2016-04-24T09:40:48Z</time>
      </trkpt>
      <trkpt lat="43.85425" lon="2.96916">
        <ele>555.78</ele>
        <time>2016-04-24T09:40:49Z</time>
      </trkpt>
      <trkpt lat="43.85428" lon="2.96903">
        <ele>555.78</ele>
        <time>2016-04-24T09:40:50Z</time>
      </trkpt>
      <trkpt lat="43.85428" lon="2.96886">
        <ele>556.26</ele>
        <time>2016-04-24T09:40:51Z</time>
      </trkpt>
      <trkpt lat="43.85427" lon="2.96869">
        <ele>557.22</ele>
        <time>2016-04-24T09:40:52Z</time>
      </trkpt>
      <trkpt lat="43.85431" lon="2.96831">
        <ele>559.14</ele>
        <time>2016-04-24T09:40:54Z</time>
      </trkpt>
      <trkpt lat="43.85436" lon="2.96814">
        <ele>560.11</ele>
        <time>2016-04-24T09:40:55Z</time>
      </trkpt>
      <trkpt lat="43.85442" lon="2.96798">
        <ele>561.07</ele>
        <time>2016-04-24T09:40:56Z</time>
      </trkpt>
      <trkpt lat="43.8545" lon="2.96784">
        <ele>562.03</ele>
        <time>2016-04-24T09:40:57Z</time>
      </trkpt>
      <trkpt lat="43.85458" lon="2.96772">
        <ele>562.51</ele>
        <time>2016-04-24T09:40:58Z</time>
      </trkpt>
      <trkpt lat="43.85467" lon="2.9676">
        <ele>562.99</ele>
        <time>2016-04-24T09:40:59Z</time>
      </trkpt>
      <trkpt lat="43.85566" lon="2.96669">
        <ele>568.28</ele>
        <time>2016-04-24T09:41:08Z</time>
      </trkpt>
      <trkpt lat="43.85576" lon="2.96659">
        <ele>569.24</ele>
        <time>2016-04-24T09:41:09Z</time>
      </trkpt>
      <trkpt lat="43.85586" lon="2.96648">
        <ele>569.72</ele>
        <time>2016-04-24T09:41:10Z</time>
      </trkpt>
      <trkpt lat="43.85595" lon="2.96634">
        <ele>570.68</ele>
        <time>2016-04-24T09:41:11Z</time>
      </trkpt>
      <trkpt lat="43.85612" lon="2.96607">
        <ele>572.12</ele>
        <time>2016-04-24T09:41:13Z</time>
      </trkpt>
      <trkpt lat="43.85622" lon="2.96596">
        <ele>573.08</ele>
        <time>2016-04-24T09:41:14Z</time>
      </trkpt>
      <trkpt lat="43.85633" lon="2.96587">
        <ele>573.56</ele>
        <time>2016-04-24T09:41:15Z</time>
      </trkpt>
      <trkpt lat="43.85644" lon="2.9658">
        <ele>573.56</ele>
        <time>2016-04-24T09:41:16Z</time>
      </trkpt>
      <trkpt lat="43.85657" lon="2.96575">
        <ele>574.53</ele>
        <time>2016-04-24T09:41:17Z</time>
      </trkpt>
      <trkpt lat="43.85671" lon="2.96575">
        <ele>575.49</ele>
        <time>2016-04-24T09:41:18Z</time>
      </trkpt>
      <trkpt lat="43.85685" lon="2.96577">
        <ele>576.45</ele>
        <time>2016-04-24T09:41:19Z</time>
      </trkpt>
      <trkpt lat="43.85698" lon="2.96581">
        <ele>576.93</ele>
        <time>2016-04-24T09:41:20Z</time>
      </trkpt>
      <trkpt lat="43.85712" lon="2.96591">
        <ele>575.97</ele>
        <time>2016-04-24T09:41:21Z</time>
      </trkpt>
      <trkpt lat="43.85722" lon="2.9661">
        <ele>576.45</ele>
        <time>2016-04-24T09:41:22Z</time>
      </trkpt>
      <trkpt lat="43.85733" lon="2.96628">
        <ele>576.45</ele>
        <time>2016-04-24T09:41:23Z</time>
      </trkpt>
      <trkpt lat="43.85743" lon="2.96648">
        <ele>576.45</ele>
        <time>2016-04-24T09:41:24Z</time>
      </trkpt>
      <trkpt lat="43.85752" lon="2.96668">
        <ele>576.45</ele>
        <time>2016-04-24T09:41:25Z</time>
      </trkpt>
      <trkpt lat="43.85759" lon="2.96688">
        <ele>576.45</ele>
        <time>2016-04-24T09:41:26Z</time>
      </trkpt>
      <trkpt lat="43.85764" lon="2.96708">
        <ele>576.93</ele>
        <time>2016-04-24T09:41:27Z</time>
      </trkpt>
      <trkpt lat="43.85766" lon="2.96728">
        <ele>576.93</ele>
        <time>2016-04-24T09:41:28Z</time>
      </trkpt>
      <trkpt lat="43.85762" lon="2.96746">
        <ele>576.93</ele>
        <time>2016-04-24T09:41:29Z</time>
      </trkpt>
      <trkpt lat="43.85759" lon="2.96763">
        <ele>576.93</ele>
        <time>2016-04-24T09:41:30Z</time>
      </trkpt>
      <trkpt lat="43.85758" lon="2.96779">
        <ele>576.93</ele>
        <time>2016-04-24T09:41:31Z</time>
      </trkpt>
      <trkpt lat="43.85759" lon="2.96793">
        <ele>576.93</ele>
        <time>2016-04-24T09:41:32Z</time>
      </trkpt>
      <trkpt lat="43.85763" lon="2.96804">
        <ele>576.93</ele>
        <time>2016-04-24T09:41:33Z</time>
      </trkpt>
      <trkpt lat="43.85769" lon="2.96813">
        <ele>576.93</ele>
        <time>2016-04-24T09:41:34Z</time>
      </trkpt>
      <trkpt lat="43.85777" lon="2.9682">
        <ele>576.93</ele>
        <time>2016-04-24T09:41:35Z</time>
      </trkpt>
      <trkpt lat="43.85788" lon="2.96829">
        <ele>576.93</ele>
        <time>2016-04-24T09:41:36Z</time>
      </trkpt>
      <trkpt lat="43.85797" lon="2.96842">
        <ele>576.93</ele>
        <time>2016-04-24T09:41:37Z</time>
      </trkpt>
      <trkpt lat="43.85807" lon="2.96856">
        <ele>576.93</ele>
        <time>2016-04-24T09:41:38Z</time>
      </trkpt>
      <trkpt lat="43.85813" lon="2.96872">
        <ele>576.93</ele>
        <time>2016-04-24T09:41:39Z</time>
      </trkpt>
      <trkpt lat="43.85817" lon="2.96889">
        <ele>576.93</ele>
        <time>2016-04-24T09:41:40Z</time>
      </trkpt>
      <trkpt lat="43.85816" lon="2.96904">
        <ele>576.93</ele>
        <time>2016-04-24T09:41:41Z</time>
      </trkpt>
      <trkpt lat="43.85816" lon="2.96916">
        <ele>577.41</ele>
        <time>2016-04-24T09:41:42Z</time>
      </trkpt>
      <trkpt lat="43.85817" lon="2.96926">
        <ele>576.93</ele>
        <time>2016-04-24T09:41:43Z</time>
      </trkpt>
      <trkpt lat="43.85821" lon="2.96934">
        <ele>576.45</ele>
        <time>2016-04-24T09:41:44Z</time>
      </trkpt>
      <trkpt lat="43.85829" lon="2.96931">
        <ele>576.45</ele>
        <time>2016-04-24T09:41:45Z</time>
      </trkpt>
      <trkpt lat="43.85838" lon="2.96923">
        <ele>575.97</ele>
        <time>2016-04-24T09:41:46Z</time>
      </trkpt>
      <trkpt lat="43.85848" lon="2.9691">
        <ele>575.97</ele>
        <time>2016-04-24T09:41:47Z</time>
      </trkpt>
      <trkpt lat="43.85859" lon="2.96896">
        <ele>575.97</ele>
        <time>2016-04-24T09:41:48Z</time>
      </trkpt>
      <trkpt lat="43.85871" lon="2.96885">
        <ele>575.97</ele>
        <time>2016-04-24T09:41:49Z</time>
      </trkpt>
      <trkpt lat="43.85884" lon="2.96874">
        <ele>576.45</ele>
        <time>2016-04-24T09:41:50Z</time>
      </trkpt>
      <trkpt lat="43.85897" lon="2.96866">
        <ele>576.45</ele>
        <time>2016-04-24T09:41:51Z</time>
      </trkpt>
      <trkpt lat="43.85909" lon="2.96859">
        <ele>576.93</ele>
        <time>2016-04-24T09:41:52Z</time>
      </trkpt>
      <trkpt lat="43.85922" lon="2.96853">
        <ele>576.93</ele>
        <time>2016-04-24T09:41:53Z</time>
      </trkpt>
      <trkpt lat="43.85937" lon="2.9685">
        <ele>577.41</ele>
        <time>2016-04-24T09:41:54Z</time>
      </trkpt>
      <trkpt lat="43.85951" lon="2.96853">
        <ele>576.45</ele>
        <time>2016-04-24T09:41:55Z</time>
      </trkpt>
      <trkpt lat="43.85963" lon="2.96858">
        <ele>576.93</ele>
        <time>2016-04-24T09:41:56Z</time>
      </trkpt>
      <trkpt lat="43.85974" lon="2.96863">
        <ele>577.41</ele>
        <time>2016-04-24T09:41:57Z</time>
      </trkpt>
      <trkpt lat="43.85983" lon="2.96869">
        <ele>576.93</ele>
        <time>2016-04-24T09:41:58Z</time>
      </trkpt>
      <trkpt lat="43.8599" lon="2.96878">
        <ele>576.93</ele>
        <time>2016-04-24T09:41:59Z</time>
      </trkpt>
      <trkpt lat="43.85996" lon="2.96891">
        <ele>576.45</ele>
        <time>2016-04-24T09:42:00Z</time>
      </trkpt>
      <trkpt lat="43.85999" lon="2.96908">
        <ele>576.45</ele>
        <time>2016-04-24T09:42:01Z</time>
      </trkpt>
      <trkpt lat="43.85999" lon="2.96926">
        <ele>576.93</ele>
        <time>2016-04-24T09:42:02Z</time>
      </trkpt>
      <trkpt lat="43.85996" lon="2.96945">
        <ele>576.45</ele>
        <time>2016-04-24T09:42:03Z</time>
      </trkpt>
      <trkpt lat="43.85992" lon="2.96962">
        <ele>576.45</ele>
        <time>2016-04-24T09:42:04Z</time>
      </trkpt>
      <trkpt lat="43.85987" lon="2.96977">
        <ele>576.93</ele>
        <time>2016-04-24T09:42:05Z</time>
      </trkpt>
      <trkpt lat="43.85982" lon="2.96989">
        <ele>577.41</ele>
        <time>2016-04-24T09:42:06Z</time>
      </trkpt>
      <trkpt lat="43.85978" lon="2.97">
        <ele>577.89</ele>
        <time>2016-04-24T09:42:07Z</time>
      </trkpt>
      <trkpt lat="43.85976" lon="2.97012">
        <ele>577.89</ele>
        <time>2016-04-24T09:42:08Z</time>
      </trkpt>
      <trkpt lat="43.85978" lon="2.97024">
        <ele>577.89</ele>
        <time>2016-04-24T09:42:09Z</time>
      </trkpt>
      <trkpt lat="43.85981" lon="2.97032">
        <ele>577.41</ele>
        <time>2016-04-24T09:42:10Z</time>
      </trkpt>
      <trkpt lat="43.85989" lon="2.97038">
        <ele>577.41</ele>
        <time>2016-04-24T09:42:11Z</time>
      </trkpt>
      <trkpt lat="43.85999" lon="2.97041">
        <ele>577.89</ele>
        <time>2016-04-24T09:42:12Z</time>
      </trkpt>
      <trkpt lat="43.86013" lon="2.97042">
        <ele>577.41</ele>
        <time>2016-04-24T09:42:13Z</time>
      </trkpt>
      <trkpt lat="43.86026" lon="2.97043">
        <ele>577.89</ele>
        <time>2016-04-24T09:42:14Z</time>
      </trkpt>
      <trkpt lat="43.86061" lon="2.97052">
        <ele>578.37</ele>
        <time>2016-04-24T09:42:17Z</time>
      </trkpt>
      <trkpt lat="43.8607" lon="2.97064">
        <ele>578.37</ele>
        <time>2016-04-24T09:42:18Z</time>
      </trkpt>
      <trkpt lat="43.86074" lon="2.9708">
        <ele>579.33</ele>
        <time>2016-04-24T09:42:19Z</time>
      </trkpt>
      <trkpt lat="43.86077" lon="2.97098">
        <ele>579.33</ele>
        <time>2016-04-24T09:42:20Z</time>
      </trkpt>
      <trkpt lat="43.86079" lon="2.97115">
        <ele>579.33</ele>
        <time>2016-04-24T09:42:21Z</time>
      </trkpt>
      <trkpt lat="43.8608" lon="2.97131">
        <ele>579.33</ele>
        <time>2016-04-24T09:42:22Z</time>
      </trkpt>
      <trkpt lat="43.86079" lon="2.97148">
        <ele>579.33</ele>
        <time>2016-04-24T09:42:23Z</time>
      </trkpt>
      <trkpt lat="43.86075" lon="2.97163">
        <ele>579.81</ele>
        <time>2016-04-24T09:42:24Z</time>
      </trkpt>
      <trkpt lat="43.86068" lon="2.97176">
        <ele>580.29</ele>
        <time>2016-04-24T09:42:25Z</time>
      </trkpt>
      <trkpt lat="43.86062" lon="2.97187">
        <ele>580.77</ele>
        <time>2016-04-24T09:42:26Z</time>
      </trkpt>
      <trkpt lat="43.86057" lon="2.97198">
        <ele>581.25</ele>
        <time>2016-04-24T09:42:27Z</time>
      </trkpt>
      <trkpt lat="43.86054" lon="2.97212">
        <ele>581.25</ele>
        <time>2016-04-24T09:42:28Z</time>
      </trkpt>
      <trkpt lat="43.86056" lon="2.97225">
        <ele>581.25</ele>
        <time>2016-04-24T09:42:29Z</time>
      </trkpt>
      <trkpt lat="43.8606" lon="2.97241">
        <ele>581.25</ele>
        <time>2016-04-24T09:42:30Z</time>
      </trkpt>
      <trkpt lat="43.86066" lon="2.97257">
        <ele>581.73</ele>
        <time>2016-04-24T09:42:31Z</time>
      </trkpt>
      <trkpt lat="43.86073" lon="2.97273">
        <ele>582.22</ele>
        <time>2016-04-24T09:42:32Z</time>
      </trkpt>
      <trkpt lat="43.86082" lon="2.97286">
        <ele>582.7</ele>
        <time>2016-04-24T09:42:33Z</time>
      </trkpt>
      <trkpt lat="43.86092" lon="2.97297">
        <ele>583.18</ele>
        <time>2016-04-24T09:42:34Z</time>
      </trkpt>
      <trkpt lat="43.86103" lon="2.97306">
        <ele>583.66</ele>
        <time>2016-04-24T09:42:35Z</time>
      </trkpt>
      <trkpt lat="43.86114" lon="2.97314">
        <ele>583.66</ele>
        <time>2016-04-24T09:42:36Z</time>
      </trkpt>
      <trkpt lat="43.86125" lon="2.9732">
        <ele>584.14</ele>
        <time>2016-04-24T09:42:37Z</time>
      </trkpt>
      <trkpt lat="43.86136" lon="2.97323">
        <ele>584.62</ele>
        <time>2016-04-24T09:42:38Z</time>
      </trkpt>
      <trkpt lat="43.86148" lon="2.97318">
        <ele>584.62</ele>
        <time>2016-04-24T09:42:39Z</time>
      </trkpt>
      <trkpt lat="43.8616" lon="2.97313">
        <ele>584.62</ele>
        <time>2016-04-24T09:42:40Z</time>
      </trkpt>
      <trkpt lat="43.86173" lon="2.97306">
        <ele>585.1</ele>
        <time>2016-04-24T09:42:41Z</time>
      </trkpt>
      <trkpt lat="43.86185" lon="2.97301">
        <ele>585.58</ele>
        <time>2016-04-24T09:42:42Z</time>
      </trkpt>
      <trkpt lat="43.86197" lon="2.97299">
        <ele>585.58</ele>
        <time>2016-04-24T09:42:43Z</time>
      </trkpt>
      <trkpt lat="43.86209" lon="2.97299">
        <ele>586.06</ele>
        <time>2016-04-24T09:42:44Z</time>
      </trkpt>
      <trkpt lat="43.86221" lon="2.97304">
        <ele>586.06</ele>
        <time>2016-04-24T09:42:45Z</time>
      </trkpt>
      <trkpt lat="43.86232" lon="2.97315">
        <ele>586.06</ele>
        <time>2016-04-24T09:42:46Z</time>
      </trkpt>
      <trkpt lat="43.86241" lon="2.97331">
        <ele>586.54</ele>
        <time>2016-04-24T09:42:47Z</time>
      </trkpt>
      <trkpt lat="43.86247" lon="2.9735">
        <ele>587.02</ele>
        <time>2016-04-24T09:42:48Z</time>
      </trkpt>
      <trkpt lat="43.86252" lon="2.97369">
        <ele>587.02</ele>
        <time>2016-04-24T09:42:49Z</time>
      </trkpt>
      <trkpt lat="43.86256" lon="2.9739">
        <ele>587.02</ele>
        <time>2016-04-24T09:42:50Z</time>
      </trkpt>
      <trkpt lat="43.86258" lon="2.97411">
        <ele>587.5</ele>
        <time>2016-04-24T09:42:51Z</time>
      </trkpt>
      <trkpt lat="43.86257" lon="2.97432">
        <ele>587.98</ele>
        <time>2016-04-24T09:42:52Z</time>
      </trkpt>
      <trkpt lat="43.86253" lon="2.97453">
        <ele>588.46</ele>
        <time>2016-04-24T09:42:53Z</time>
      </trkpt>
      <trkpt lat="43.86245" lon="2.97471">
        <ele>588.46</ele>
        <time>2016-04-24T09:42:54Z</time>
      </trkpt>
      <trkpt lat="43.86235" lon="2.97487">
        <ele>588.95</ele>
        <time>2016-04-24T09:42:55Z</time>
      </trkpt>
      <trkpt lat="43.86227" lon="2.97502">
        <ele>589.91</ele>
        <time>2016-04-24T09:42:56Z</time>
      </trkpt>
      <trkpt lat="43.8622" lon="2.97517">
        <ele>590.39</ele>
        <time>2016-04-24T09:42:57Z</time>
      </trkpt>
      <trkpt lat="43.86214" lon="2.97532">
        <ele>590.87</ele>
        <time>2016-04-24T09:42:58Z</time>
      </trkpt>
      <trkpt lat="43.86211" lon="2.97547">
        <ele>591.35</ele>
        <time>2016-04-24T09:42:59Z</time>
      </trkpt>
      <trkpt lat="43.86209" lon="2.97564">
        <ele>591.83</ele>
        <time>2016-04-24T09:43:00Z</time>
      </trkpt>
      <trkpt lat="43.86211" lon="2.97582">
        <ele>592.31</ele>
        <time>2016-04-24T09:43:01Z</time>
      </trkpt>
      <trkpt lat="43.86217" lon="2.97599">
        <ele>592.31</ele>
        <time>2016-04-24T09:43:02Z</time>
      </trkpt>
      <trkpt lat="43.86225" lon="2.97617">
        <ele>592.31</ele>
        <time>2016-04-24T09:43:03Z</time>
      </trkpt>
      <trkpt lat="43.86235" lon="2.97635">
        <ele>592.79</ele>
        <time>2016-04-24T09:43:04Z</time>
      </trkpt>
      <trkpt lat="43.86244" lon="2.97652">
        <ele>592.79</ele>
        <time>2016-04-24T09:43:05Z</time>
      </trkpt>
      <trkpt lat="43.86267" lon="2.97702">
        <ele>593.27</ele>
        <time>2016-04-24T09:43:08Z</time>
      </trkpt>
      <trkpt lat="43.86271" lon="2.97719">
        <ele>593.27</ele>
        <time>2016-04-24T09:43:09Z</time>
      </trkpt>
      <trkpt lat="43.86274" lon="2.97735">
        <ele>593.75</ele>
        <time>2016-04-24T09:43:10Z</time>
      </trkpt>
      <trkpt lat="43.86276" lon="2.9775">
        <ele>593.75</ele>
        <time>2016-04-24T09:43:11Z</time>
      </trkpt>
      <trkpt lat="43.86277" lon="2.97764">
        <ele>593.75</ele>
        <time>2016-04-24T09:43:12Z</time>
      </trkpt>
      <trkpt lat="43.86281" lon="2.97799">
        <ele>594.71</ele>
        <time>2016-04-24T09:43:15Z</time>
      </trkpt>
      <trkpt lat="43.86285" lon="2.97811">
        <ele>594.71</ele>
        <time>2016-04-24T09:43:16Z</time>
      </trkpt>
      <trkpt lat="43.86291" lon="2.97822">
        <ele>594.23</ele>
        <time>2016-04-24T09:43:17Z</time>
      </trkpt>
      <trkpt lat="43.86298" lon="2.97832">
        <ele>594.23</ele>
        <time>2016-04-24T09:43:18Z</time>
      </trkpt>
      <trkpt lat="43.86307" lon="2.97839">
        <ele>593.75</ele>
        <time>2016-04-24T09:43:19Z</time>
      </trkpt>
      <trkpt lat="43.86319" lon="2.97839">
        <ele>593.27</ele>
        <time>2016-04-24T09:43:20Z</time>
      </trkpt>
      <trkpt lat="43.86333" lon="2.9784">
        <ele>592.79</ele>
        <time>2016-04-24T09:43:21Z</time>
      </trkpt>
      <trkpt lat="43.86348" lon="2.97846">
        <ele>592.31</ele>
        <time>2016-04-24T09:43:22Z</time>
      </trkpt>
      <trkpt lat="43.86361" lon="2.97857">
        <ele>591.83</ele>
        <time>2016-04-24T09:43:23Z</time>
      </trkpt>
      <trkpt lat="43.86372" lon="2.9787">
        <ele>591.35</ele>
        <time>2016-04-24T09:43:24Z</time>
      </trkpt>
      <trkpt lat="43.86382" lon="2.97884">
        <ele>590.87</ele>
        <time>2016-04-24T09:43:25Z</time>
      </trkpt>
      <trkpt lat="43.8639" lon="2.97898">
        <ele>590.39</ele>
        <time>2016-04-24T09:43:26Z</time>
      </trkpt>
      <trkpt lat="43.86408" lon="2.97923">
        <ele>589.43</ele>
        <time>2016-04-24T09:43:28Z</time>
      </trkpt>
      <trkpt lat="43.86417" lon="2.97931">
        <ele>588.95</ele>
        <time>2016-04-24T09:43:29Z</time>
      </trkpt>
      <trkpt lat="43.86429" lon="2.97937">
        <ele>588.46</ele>
        <time>2016-04-24T09:43:30Z</time>
      </trkpt>
      <trkpt lat="43.86459" lon="2.97949">
        <ele>586.54</ele>
        <time>2016-04-24T09:43:32Z</time>
      </trkpt>
      <trkpt lat="43.86472" lon="2.9796">
        <ele>585.58</ele>
        <time>2016-04-24T09:43:33Z</time>
      </trkpt>
      <trkpt lat="43.86484" lon="2.97973">
        <ele>584.62</ele>
        <time>2016-04-24T09:43:34Z</time>
      </trkpt>
      <trkpt lat="43.86493" lon="2.97989">
        <ele>583.66</ele>
        <time>2016-04-24T09:43:35Z</time>
      </trkpt>
      <trkpt lat="43.865" lon="2.98006">
        <ele>582.22</ele>
        <time>2016-04-24T09:43:36Z</time>
      </trkpt>
      <trkpt lat="43.86506" lon="2.98022">
        <ele>581.25</ele>
        <time>2016-04-24T09:43:37Z</time>
      </trkpt>
      <trkpt lat="43.86535" lon="2.98098">
        <ele>576.45</ele>
        <time>2016-04-24T09:43:42Z</time>
      </trkpt>
      <trkpt lat="43.86542" lon="2.9811">
        <ele>575.49</ele>
        <time>2016-04-24T09:43:43Z</time>
      </trkpt>
      <trkpt lat="43.86551" lon="2.98121">
        <ele>575.01</ele>
        <time>2016-04-24T09:43:44Z</time>
      </trkpt>
      <trkpt lat="43.86563" lon="2.9813">
        <ele>574.04</ele>
        <time>2016-04-24T09:43:45Z</time>
      </trkpt>
      <trkpt lat="43.86576" lon="2.98138">
        <ele>573.08</ele>
        <time>2016-04-24T09:43:46Z</time>
      </trkpt>
      <trkpt lat="43.86589" lon="2.98147">
        <ele>571.64</ele>
        <time>2016-04-24T09:43:47Z</time>
      </trkpt>
      <trkpt lat="43.86617" lon="2.98161">
        <ele>569.72</ele>
        <time>2016-04-24T09:43:49Z</time>
      </trkpt>
      <trkpt lat="43.86631" lon="2.98166">
        <ele>568.76</ele>
        <time>2016-04-24T09:43:50Z</time>
      </trkpt>
      <trkpt lat="43.86655" lon="2.98174">
        <ele>567.32</ele>
        <time>2016-04-24T09:43:52Z</time>
      </trkpt>
      <trkpt lat="43.86667" lon="2.98182">
        <ele>566.35</ele>
        <time>2016-04-24T09:43:53Z</time>
      </trkpt>
      <trkpt lat="43.86673" lon="2.98195">
        <ele>565.87</ele>
        <time>2016-04-24T09:43:54Z</time>
      </trkpt>
      <trkpt lat="43.86686" lon="2.9822">
        <ele>564.43</ele>
        <time>2016-04-24T09:43:56Z</time>
      </trkpt>
      <trkpt lat="43.86693" lon="2.9823">
        <ele>562.99</ele>
        <time>2016-04-24T09:43:57Z</time>
      </trkpt>
      <trkpt lat="43.86702" lon="2.98236">
        <ele>562.51</ele>
        <time>2016-04-24T09:43:58Z</time>
      </trkpt>
      <trkpt lat="43.86713" lon="2.98239">
        <ele>561.07</ele>
        <time>2016-04-24T09:43:59Z</time>
      </trkpt>
      <trkpt lat="43.86727" lon="2.98239">
        <ele>560.11</ele>
        <time>2016-04-24T09:44:00Z</time>
      </trkpt>
      <trkpt lat="43.8674" lon="2.98239">
        <ele>559.14</ele>
        <time>2016-04-24T09:44:01Z</time>
      </trkpt>
      <trkpt lat="43.86779" lon="2.98254">
        <ele>556.74</ele>
        <time>2016-04-24T09:44:04Z</time>
      </trkpt>
      <trkpt lat="43.8679" lon="2.98268">
        <ele>555.78</ele>
        <time>2016-04-24T09:44:05Z</time>
      </trkpt>
      <trkpt lat="43.86799" lon="2.98287">
        <ele>555.3</ele>
        <time>2016-04-24T09:44:06Z</time>
      </trkpt>
      <trkpt lat="43.86806" lon="2.98306">
        <ele>554.34</ele>
        <time>2016-04-24T09:44:07Z</time>
      </trkpt>
      <trkpt lat="43.86812" lon="2.98325">
        <ele>553.38</ele>
        <time>2016-04-24T09:44:08Z</time>
      </trkpt>
      <trkpt lat="43.86818" lon="2.98343">
        <ele>552.41</ele>
        <time>2016-04-24T09:44:09Z</time>
      </trkpt>
      <trkpt lat="43.86842" lon="2.98405">
        <ele>548.57</ele>
        <time>2016-04-24T09:44:13Z</time>
      </trkpt>
      <trkpt lat="43.86849" lon="2.98417">
        <ele>547.13</ele>
        <time>2016-04-24T09:44:14Z</time>
      </trkpt>
      <trkpt lat="43.86859" lon="2.98422">
        <ele>546.17</ele>
        <time>2016-04-24T09:44:15Z</time>
      </trkpt>
      <trkpt lat="43.8687" lon="2.98426">
        <ele>545.69</ele>
        <time>2016-04-24T09:44:16Z</time>
      </trkpt>
      <trkpt lat="43.86885" lon="2.98429">
        <ele>544.72</ele>
        <time>2016-04-24T09:44:17Z</time>
      </trkpt>
      <trkpt lat="43.86897" lon="2.98431">
        <ele>544.24</ele>
        <time>2016-04-24T09:44:18Z</time>
      </trkpt>
      <trkpt lat="43.86923" lon="2.98437">
        <ele>542.32</ele>
        <time>2016-04-24T09:44:20Z</time>
      </trkpt>
      <trkpt lat="43.86936" lon="2.98435">
        <ele>541.36</ele>
        <time>2016-04-24T09:44:21Z</time>
      </trkpt>
      <trkpt lat="43.8695" lon="2.98431">
        <ele>540.4</ele>
        <time>2016-04-24T09:44:22Z</time>
      </trkpt>
      <trkpt lat="43.86965" lon="2.98427">
        <ele>539.92</ele>
        <time>2016-04-24T09:44:23Z</time>
      </trkpt>
      <trkpt lat="43.8698" lon="2.98424">
        <ele>538.96</ele>
        <time>2016-04-24T09:44:24Z</time>
      </trkpt>
      <trkpt lat="43.8706" lon="2.98429">
        <ele>533.19</ele>
        <time>2016-04-24T09:44:31Z</time>
      </trkpt>
      <trkpt lat="43.87067" lon="2.98436">
        <ele>532.23</ele>
        <time>2016-04-24T09:44:32Z</time>
      </trkpt>
      <trkpt lat="43.87069" lon="2.98448">
        <ele>531.75</ele>
        <time>2016-04-24T09:44:33Z</time>
      </trkpt>
      <trkpt lat="43.87062" lon="2.98473">
        <ele>531.27</ele>
        <time>2016-04-24T09:44:35Z</time>
      </trkpt>
      <trkpt lat="43.87056" lon="2.98485">
        <ele>530.79</ele>
        <time>2016-04-24T09:44:36Z</time>
      </trkpt>
      <trkpt lat="43.87043" lon="2.985">
        <ele>530.3</ele>
        <time>2016-04-24T09:44:37Z</time>
      </trkpt>
      <trkpt lat="43.87033" lon="2.98514">
        <ele>529.82</ele>
        <time>2016-04-24T09:44:38Z</time>
      </trkpt>
      <trkpt lat="43.87025" lon="2.98528">
        <ele>529.34</ele>
        <time>2016-04-24T09:44:39Z</time>
      </trkpt>
      <trkpt lat="43.8702" lon="2.98543">
        <ele>528.38</ele>
        <time>2016-04-24T09:44:40Z</time>
      </trkpt>
      <trkpt lat="43.87019" lon="2.9856">
        <ele>526.46</ele>
        <time>2016-04-24T09:44:41Z</time>
      </trkpt>
      <trkpt lat="43.87022" lon="2.98578">
        <ele>525.02</ele>
        <time>2016-04-24T09:44:42Z</time>
      </trkpt>
      <trkpt lat="43.87025" lon="2.98597">
        <ele>523.58</ele>
        <time>2016-04-24T09:44:43Z</time>
      </trkpt>
      <trkpt lat="43.87027" lon="2.98616">
        <ele>522.61</ele>
        <time>2016-04-24T09:44:44Z</time>
      </trkpt>
      <trkpt lat="43.87032" lon="2.98669">
        <ele>519.73</ele>
        <time>2016-04-24T09:44:47Z</time>
      </trkpt>
      <trkpt lat="43.87036" lon="2.98685">
        <ele>519.25</ele>
        <time>2016-04-24T09:44:48Z</time>
      </trkpt>
      <trkpt lat="43.87042" lon="2.987">
        <ele>518.29</ele>
        <time>2016-04-24T09:44:49Z</time>
      </trkpt>
      <trkpt lat="43.87054" lon="2.98714">
        <ele>517.33</ele>
        <time>2016-04-24T09:44:50Z</time>
      </trkpt>
      <trkpt lat="43.87065" lon="2.98728">
        <ele>516.37</ele>
        <time>2016-04-24T09:44:51Z</time>
      </trkpt>
      <trkpt lat="43.87076" lon="2.98742">
        <ele>515.4</ele>
        <time>2016-04-24T09:44:52Z</time>
      </trkpt>
      <trkpt lat="43.87086" lon="2.98756">
        <ele>514.44</ele>
        <time>2016-04-24T09:44:53Z</time>
      </trkpt>
      <trkpt lat="43.87094" lon="2.98773">
        <ele>513.48</ele>
        <time>2016-04-24T09:44:54Z</time>
      </trkpt>
      <trkpt lat="43.87099" lon="2.98791">
        <ele>513</ele>
        <time>2016-04-24T09:44:55Z</time>
      </trkpt>
      <trkpt lat="43.87102" lon="2.9881">
        <ele>511.56</ele>
        <time>2016-04-24T09:44:56Z</time>
      </trkpt>
      <trkpt lat="43.87104" lon="2.98829">
        <ele>510.6</ele>
        <time>2016-04-24T09:44:57Z</time>
      </trkpt>
      <trkpt lat="43.87111" lon="2.98866">
        <ele>509.16</ele>
        <time>2016-04-24T09:44:59Z</time>
      </trkpt>
      <trkpt lat="43.87116" lon="2.98884">
        <ele>508.19</ele>
        <time>2016-04-24T09:45:00Z</time>
      </trkpt>
      <trkpt lat="43.8713" lon="2.98939">
        <ele>505.31</ele>
        <time>2016-04-24T09:45:03Z</time>
      </trkpt>
      <trkpt lat="43.87131" lon="2.98958">
        <ele>504.35</ele>
        <time>2016-04-24T09:45:04Z</time>
      </trkpt>
      <trkpt lat="43.87132" lon="2.98977">
        <ele>503.39</ele>
        <time>2016-04-24T09:45:05Z</time>
      </trkpt>
      <trkpt lat="43.87135" lon="2.9906">
        <ele>499.06</ele>
        <time>2016-04-24T09:45:10Z</time>
      </trkpt>
      <trkpt lat="43.87133" lon="2.99074">
        <ele>498.1</ele>
        <time>2016-04-24T09:45:11Z</time>
      </trkpt>
      <trkpt lat="43.87128" lon="2.99083">
        <ele>496.66</ele>
        <time>2016-04-24T09:45:12Z</time>
      </trkpt>
      <trkpt lat="43.87121" lon="2.99086">
        <ele>495.7</ele>
        <time>2016-04-24T09:45:13Z</time>
      </trkpt>
      <trkpt lat="43.87106" lon="2.99069">
        <ele>493.77</ele>
        <time>2016-04-24T09:45:15Z</time>
      </trkpt>
      <trkpt lat="43.87099" lon="2.9906">
        <ele>492.81</ele>
        <time>2016-04-24T09:45:16Z</time>
      </trkpt>
      <trkpt lat="43.87089" lon="2.99051">
        <ele>494.26</ele>
        <time>2016-04-24T09:45:17Z</time>
      </trkpt>
      <trkpt lat="43.87077" lon="2.99045">
        <ele>494.26</ele>
        <time>2016-04-24T09:45:18Z</time>
      </trkpt>
      <trkpt lat="43.87066" lon="2.9904">
        <ele>494.26</ele>
        <time>2016-04-24T09:45:19Z</time>
      </trkpt>
      <trkpt lat="43.87056" lon="2.99034">
        <ele>493.77</ele>
        <time>2016-04-24T09:45:20Z</time>
      </trkpt>
      <trkpt lat="43.87049" lon="2.99027">
        <ele>493.29</ele>
        <time>2016-04-24T09:45:21Z</time>
      </trkpt>
      <trkpt lat="43.87045" lon="2.99017">
        <ele>492.33</ele>
        <time>2016-04-24T09:45:22Z</time>
      </trkpt>
      <trkpt lat="43.87047" lon="2.99003">
        <ele>491.85</ele>
        <time>2016-04-24T09:45:23Z</time>
      </trkpt>
      <trkpt lat="43.87053" lon="2.98993">
        <ele>491.37</ele>
        <time>2016-04-24T09:45:24Z</time>
      </trkpt>
      <trkpt lat="43.87061" lon="2.98984">
        <ele>491.37</ele>
        <time>2016-04-24T09:45:25Z</time>
      </trkpt>
      <trkpt lat="43.87067" lon="2.98974">
        <ele>490.89</ele>
        <time>2016-04-24T09:45:26Z</time>
      </trkpt>
      <trkpt lat="43.87072" lon="2.98964">
        <ele>490.41</ele>
        <time>2016-04-24T09:45:27Z</time>
      </trkpt>
      <trkpt lat="43.87073" lon="2.98953">
        <ele>489.93</ele>
        <time>2016-04-24T09:45:28Z</time>
      </trkpt>
      <trkpt lat="43.87072" lon="2.98942">
        <ele>489.45</ele>
        <time>2016-04-24T09:45:29Z</time>
      </trkpt>
      <trkpt lat="43.87066" lon="2.98933">
        <ele>488.49</ele>
        <time>2016-04-24T09:45:30Z</time>
      </trkpt>
      <trkpt lat="43.87056" lon="2.98933">
        <ele>487.53</ele>
        <time>2016-04-24T09:45:31Z</time>
      </trkpt>
      <trkpt lat="43.87048" lon="2.9894">
        <ele>486.56</ele>
        <time>2016-04-24T09:45:32Z</time>
      </trkpt>
      <trkpt lat="43.87041" lon="2.98951">
        <ele>485.6</ele>
        <time>2016-04-24T09:45:33Z</time>
      </trkpt>
      <trkpt lat="43.87031" lon="2.98964">
        <ele>485.12</ele>
        <time>2016-04-24T09:45:34Z</time>
      </trkpt>
      <trkpt lat="43.87022" lon="2.98979">
        <ele>484.64</ele>
        <time>2016-04-24T09:45:35Z</time>
      </trkpt>
      <trkpt lat="43.87013" lon="2.98994">
        <ele>483.2</ele>
        <time>2016-04-24T09:45:36Z</time>
      </trkpt>
      <trkpt lat="43.86972" lon="2.99063">
        <ele>478.87</ele>
        <time>2016-04-24T09:45:41Z</time>
      </trkpt>
      <trkpt lat="43.86963" lon="2.99072">
        <ele>477.91</ele>
        <time>2016-04-24T09:45:42Z</time>
      </trkpt>
      <trkpt lat="43.86948" lon="2.99088">
        <ele>475.99</ele>
        <time>2016-04-24T09:45:44Z</time>
      </trkpt>
      <trkpt lat="43.86943" lon="2.99096">
        <ele>475.51</ele>
        <time>2016-04-24T09:45:45Z</time>
      </trkpt>
      <trkpt lat="43.86943" lon="2.99105">
        <ele>475.03</ele>
        <time>2016-04-24T09:45:46Z</time>
      </trkpt>
      <trkpt lat="43.86945" lon="2.99113">
        <ele>474.55</ele>
        <time>2016-04-24T09:45:47Z</time>
      </trkpt>
      <trkpt lat="43.86949" lon="2.99119">
        <ele>474.07</ele>
        <time>2016-04-24T09:45:48Z</time>
      </trkpt>
      <trkpt lat="43.86961" lon="2.99119">
        <ele>473.11</ele>
        <time>2016-04-24T09:45:49Z</time>
      </trkpt>
      <trkpt lat="43.86971" lon="2.99123">
        <ele>472.63</ele>
        <time>2016-04-24T09:45:50Z</time>
      </trkpt>
      <trkpt lat="43.86981" lon="2.99132">
        <ele>471.66</ele>
        <time>2016-04-24T09:45:51Z</time>
      </trkpt>
      <trkpt lat="43.86986" lon="2.99143">
        <ele>470.7</ele>
        <time>2016-04-24T09:45:52Z</time>
      </trkpt>
      <trkpt lat="43.86987" lon="2.99155">
        <ele>470.22</ele>
        <time>2016-04-24T09:45:53Z</time>
      </trkpt>
      <trkpt lat="43.86986" lon="2.9917">
        <ele>468.78</ele>
        <time>2016-04-24T09:45:54Z</time>
      </trkpt>
      <trkpt lat="43.86981" lon="2.99185">
        <ele>468.3</ele>
        <time>2016-04-24T09:45:55Z</time>
      </trkpt>
      <trkpt lat="43.86975" lon="2.99201">
        <ele>467.34</ele>
        <time>2016-04-24T09:45:56Z</time>
      </trkpt>
      <trkpt lat="43.86972" lon="2.99218">
        <ele>465.9</ele>
        <time>2016-04-24T09:45:57Z</time>
      </trkpt>
      <trkpt lat="43.86972" lon="2.99236">
        <ele>464.45</ele>
        <time>2016-04-24T09:45:58Z</time>
      </trkpt>
      <trkpt lat="43.86974" lon="2.99256">
        <ele>463.49</ele>
        <time>2016-04-24T09:45:59Z</time>
      </trkpt>
      <trkpt lat="43.86979" lon="2.99275">
        <ele>462.53</ele>
        <time>2016-04-24T09:46:00Z</time>
      </trkpt>
      <trkpt lat="43.86986" lon="2.99293">
        <ele>461.57</ele>
        <time>2016-04-24T09:46:01Z</time>
      </trkpt>
      <trkpt lat="43.86992" lon="2.9931">
        <ele>460.61</ele>
        <time>2016-04-24T09:46:02Z</time>
      </trkpt>
      <trkpt lat="43.87012" lon="2.99358">
        <ele>457.72</ele>
        <time>2016-04-24T09:46:05Z</time>
      </trkpt>
      <trkpt lat="43.87021" lon="2.99372">
        <ele>457.24</ele>
        <time>2016-04-24T09:46:06Z</time>
      </trkpt>
      <trkpt lat="43.87033" lon="2.99385">
        <ele>456.28</ele>
        <time>2016-04-24T09:46:07Z</time>
      </trkpt>
      <trkpt lat="43.87045" lon="2.99397">
        <ele>454.84</ele>
        <time>2016-04-24T09:46:08Z</time>
      </trkpt>
      <trkpt lat="43.87056" lon="2.99408">
        <ele>453.88</ele>
        <time>2016-04-24T09:46:09Z</time>
      </trkpt>
      <trkpt lat="43.87067" lon="2.99418">
        <ele>452.92</ele>
        <time>2016-04-24T09:46:10Z</time>
      </trkpt>
      <trkpt lat="43.87079" lon="2.99426">
        <ele>451.96</ele>
        <time>2016-04-24T09:46:11Z</time>
      </trkpt>
      <trkpt lat="43.87093" lon="2.99432">
        <ele>451</ele>
        <time>2016-04-24T09:46:12Z</time>
      </trkpt>
      <trkpt lat="43.87107" lon="2.99437">
        <ele>450.03</ele>
        <time>2016-04-24T09:46:13Z</time>
      </trkpt>
      <trkpt lat="43.87215" lon="2.99473">
        <ele>441.86</ele>
        <time>2016-04-24T09:46:20Z</time>
      </trkpt>
      <trkpt lat="43.8723" lon="2.99484">
        <ele>440.9</ele>
        <time>2016-04-24T09:46:21Z</time>
      </trkpt>
      <trkpt lat="43.87244" lon="2.99496">
        <ele>440.42</ele>
        <time>2016-04-24T09:46:22Z</time>
      </trkpt>
      <trkpt lat="43.87256" lon="2.9951">
        <ele>439.46</ele>
        <time>2016-04-24T09:46:23Z</time>
      </trkpt>
      <trkpt lat="43.87268" lon="2.99524">
        <ele>438.5</ele>
        <time>2016-04-24T09:46:24Z</time>
      </trkpt>
      <trkpt lat="43.87278" lon="2.99538">
        <ele>437.54</ele>
        <time>2016-04-24T09:46:25Z</time>
      </trkpt>
      <trkpt lat="43.87309" lon="2.99574">
        <ele>434.17</ele>
        <time>2016-04-24T09:46:28Z</time>
      </trkpt>
      <trkpt lat="43.87321" lon="2.99582">
        <ele>433.21</ele>
        <time>2016-04-24T09:46:29Z</time>
      </trkpt>
      <trkpt lat="43.87336" lon="2.99587">
        <ele>432.73</ele>
        <time>2016-04-24T09:46:30Z</time>
      </trkpt>
      <trkpt lat="43.8735" lon="2.99589">
        <ele>431.77</ele>
        <time>2016-04-24T09:46:31Z</time>
      </trkpt>
      <trkpt lat="43.87366" lon="2.99588">
        <ele>430.33</ele>
        <time>2016-04-24T09:46:32Z</time>
      </trkpt>
      <trkpt lat="43.87384" lon="2.99587">
        <ele>429.37</ele>
        <time>2016-04-24T09:46:33Z</time>
      </trkpt>
      <trkpt lat="43.87401" lon="2.99587">
        <ele>428.4</ele>
        <time>2016-04-24T09:46:34Z</time>
      </trkpt>
      <trkpt lat="43.87419" lon="2.9959">
        <ele>427.92</ele>
        <time>2016-04-24T09:46:35Z</time>
      </trkpt>
      <trkpt lat="43.87437" lon="2.99596">
        <ele>426</ele>
        <time>2016-04-24T09:46:36Z</time>
      </trkpt>
      <trkpt lat="43.87576" lon="2.99629">
        <ele>416.87</ele>
        <time>2016-04-24T09:46:45Z</time>
      </trkpt>
      <trkpt lat="43.87599" lon="2.99624">
        <ele>414.95</ele>
        <time>2016-04-24T09:46:47Z</time>
      </trkpt>
      <trkpt lat="43.87609" lon="2.99615">
        <ele>413.5</ele>
        <time>2016-04-24T09:46:48Z</time>
      </trkpt>
      <trkpt lat="43.87616" lon="2.99601">
        <ele>412.06</ele>
        <time>2016-04-24T09:46:49Z</time>
      </trkpt>
      <trkpt lat="43.87621" lon="2.99582">
        <ele>411.1</ele>
        <time>2016-04-24T09:46:50Z</time>
      </trkpt>
      <trkpt lat="43.87627" lon="2.99563">
        <ele>410.14</ele>
        <time>2016-04-24T09:46:51Z</time>
      </trkpt>
      <trkpt lat="43.8763" lon="2.99542">
        <ele>409.18</ele>
        <time>2016-04-24T09:46:52Z</time>
      </trkpt>
      <trkpt lat="43.87633" lon="2.99522">
        <ele>408.22</ele>
        <time>2016-04-24T09:46:53Z</time>
      </trkpt>
      <trkpt lat="43.87635" lon="2.99502">
        <ele>408.22</ele>
        <time>2016-04-24T09:46:54Z</time>
      </trkpt>
      <trkpt lat="43.87642" lon="2.99406">
        <ele>405.33</ele>
        <time>2016-04-24T09:47:01Z</time>
      </trkpt>
      <trkpt lat="43.87643" lon="2.99399">
        <ele>404.37</ele>
        <time>2016-04-24T09:47:02Z</time>
      </trkpt>
      <trkpt lat="43.87645" lon="2.99394">
        <ele>403.41</ele>
        <time>2016-04-24T09:47:03Z</time>
      </trkpt>
      <trkpt lat="43.87647" lon="2.99391">
        <ele>403.41</ele>
        <time>2016-04-24T09:47:04Z</time>
      </trkpt>
      <trkpt lat="43.87649" lon="2.99388">
        <ele>402.93</ele>
        <time>2016-04-24T09:47:05Z</time>
      </trkpt>
      <trkpt lat="43.87651" lon="2.99387">
        <ele>402.93</ele>
        <time>2016-04-24T09:47:06Z</time>
      </trkpt>
      <trkpt lat="43.87653" lon="2.99385">
        <ele>402.93</ele>
        <time>2016-04-24T09:47:07Z</time>
      </trkpt>
      <trkpt lat="43.87655" lon="2.99382">
        <ele>402.93</ele>
        <time>2016-04-24T09:47:08Z</time>
      </trkpt>
      <trkpt lat="43.87658" lon="2.99373">
        <ele>403.41</ele>
        <time>2016-04-24T09:47:09Z</time>
      </trkpt>
      <trkpt lat="43.87661" lon="2.99358">
        <ele>403.89</ele>
        <time>2016-04-24T09:47:10Z</time>
      </trkpt>
      <trkpt lat="43.87667" lon="2.99344">
        <ele>403.89</ele>
        <time>2016-04-24T09:47:11Z</time>
      </trkpt>
      <trkpt lat="43.87675" lon="2.99328">
        <ele>403.41</ele>
        <time>2016-04-24T09:47:12Z</time>
      </trkpt>
      <trkpt lat="43.87687" lon="2.99311">
        <ele>402.93</ele>
        <time>2016-04-24T09:47:13Z</time>
      </trkpt>
      <trkpt lat="43.87698" lon="2.99296">
        <ele>402.93</ele>
        <time>2016-04-24T09:47:14Z</time>
      </trkpt>
      <trkpt lat="43.87819" lon="2.99154">
        <ele>399.08</ele>
        <time>2016-04-24T09:47:25Z</time>
      </trkpt>
      <trkpt lat="43.87836" lon="2.99131">
        <ele>398.6</ele>
        <time>2016-04-24T09:47:27Z</time>
      </trkpt>
      <trkpt lat="43.87844" lon="2.99116">
        <ele>398.12</ele>
        <time>2016-04-24T09:47:28Z</time>
      </trkpt>
      <trkpt lat="43.87851" lon="2.991">
        <ele>398.12</ele>
        <time>2016-04-24T09:47:29Z</time>
      </trkpt>
      <trkpt lat="43.87857" lon="2.99082">
        <ele>398.12</ele>
        <time>2016-04-24T09:47:30Z</time>
      </trkpt>
      <trkpt lat="43.87862" lon="2.99066">
        <ele>398.6</ele>
        <time>2016-04-24T09:47:31Z</time>
      </trkpt>
      <trkpt lat="43.87888" lon="2.98983">
        <ele>399.08</ele>
        <time>2016-04-24T09:47:38Z</time>
      </trkpt>
      <trkpt lat="43.87893" lon="2.98975">
        <ele>399.08</ele>
        <time>2016-04-24T09:47:39Z</time>
      </trkpt>
      <trkpt lat="43.879" lon="2.98973">
        <ele>398.6</ele>
        <time>2016-04-24T09:47:40Z</time>
      </trkpt>
      <trkpt lat="43.8791" lon="2.98977">
        <ele>398.12</ele>
        <time>2016-04-24T09:47:41Z</time>
      </trkpt>
      <trkpt lat="43.87918" lon="2.98983">
        <ele>398.6</ele>
        <time>2016-04-24T09:47:42Z</time>
      </trkpt>
      <trkpt lat="43.87929" lon="2.9899">
        <ele>398.6</ele>
        <time>2016-04-24T09:47:43Z</time>
      </trkpt>
      <trkpt lat="43.87974" lon="2.99013">
        <ele>397.64</ele>
        <time>2016-04-24T09:47:47Z</time>
      </trkpt>
      <trkpt lat="43.87985" lon="2.99012">
        <ele>397.64</ele>
        <time>2016-04-24T09:47:48Z</time>
      </trkpt>
      <trkpt lat="43.87998" lon="2.99009">
        <ele>398.12</ele>
        <time>2016-04-24T09:47:49Z</time>
      </trkpt>
      <trkpt lat="43.88011" lon="2.99005">
        <ele>398.6</ele>
        <time>2016-04-24T09:47:50Z</time>
      </trkpt>
      <trkpt lat="43.88023" lon="2.99">
        <ele>398.6</ele>
        <time>2016-04-24T09:47:51Z</time>
      </trkpt>
      <trkpt lat="43.88114" lon="2.98968">
        <ele>405.33</ele>
        <time>2016-04-24T09:48:01Z</time>
      </trkpt>
      <trkpt lat="43.88137" lon="2.98963">
        <ele>408.7</ele>
        <time>2016-04-24T09:48:10Z</time>
      </trkpt>
      <trkpt lat="43.88145" lon="2.98965">
        <ele>409.18</ele>
        <time>2016-04-24T09:48:16Z</time>
      </trkpt>
      <trkpt lat="43.88149" lon="2.98961">
        <ele>409.18</ele>
        <time>2016-04-24T09:48:17Z</time>
      </trkpt>
      <trkpt lat="43.88155" lon="2.98953">
        <ele>409.18</ele>
        <time>2016-04-24T09:48:18Z</time>
      </trkpt>
      <trkpt lat="43.88217" lon="2.98845">
        <ele>409.18</ele>
        <time>2016-04-24T09:48:27Z</time>
      </trkpt>
      <trkpt lat="43.88276" lon="2.98719">
        <ele>413.02</ele>
        <time>2016-04-24T09:48:38Z</time>
      </trkpt>
      <trkpt lat="43.88316" lon="2.98635">
        <ele>414.95</ele>
        <time>2016-04-24T09:48:47Z</time>
      </trkpt>
      <trkpt lat="43.88355" lon="2.98485">
        <ele>418.31</ele>
        <time>2016-04-24T09:48:58Z</time>
      </trkpt>
      <trkpt lat="43.88365" lon="2.98393">
        <ele>418.79</ele>
        <time>2016-04-24T09:49:04Z</time>
      </trkpt>
      <trkpt lat="43.88369" lon="2.98378">
        <ele>418.79</ele>
        <time>2016-04-24T09:49:05Z</time>
      </trkpt>
      <trkpt lat="43.88374" lon="2.98364">
        <ele>419.27</ele>
        <time>2016-04-24T09:49:06Z</time>
      </trkpt>
      <trkpt lat="43.88404" lon="2.9828">
        <ele>420.23</ele>
        <time>2016-04-24T09:49:11Z</time>
      </trkpt>
      <trkpt lat="43.88408" lon="2.9826">
        <ele>420.23</ele>
        <time>2016-04-24T09:49:12Z</time>
      </trkpt>
      <trkpt lat="43.88424" lon="2.98093">
        <ele>421.19</ele>
        <time>2016-04-24T09:49:21Z</time>
      </trkpt>
      <trkpt lat="43.88423" lon="2.98076">
        <ele>421.19</ele>
        <time>2016-04-24T09:49:22Z</time>
      </trkpt>
      <trkpt lat="43.8842" lon="2.9806">
        <ele>421.19</ele>
        <time>2016-04-24T09:49:23Z</time>
      </trkpt>
      <trkpt lat="43.88415" lon="2.98044">
        <ele>420.71</ele>
        <time>2016-04-24T09:49:24Z</time>
      </trkpt>
      <trkpt lat="43.88409" lon="2.98027">
        <ele>420.71</ele>
        <time>2016-04-24T09:49:25Z</time>
      </trkpt>
      <trkpt lat="43.88405" lon="2.98008">
        <ele>420.71</ele>
        <time>2016-04-24T09:49:26Z</time>
      </trkpt>
      <trkpt lat="43.88403" lon="2.97989">
        <ele>420.71</ele>
        <time>2016-04-24T09:49:27Z</time>
      </trkpt>
      <trkpt lat="43.88403" lon="2.97969">
        <ele>420.71</ele>
        <time>2016-04-24T09:49:28Z</time>
      </trkpt>
      <trkpt lat="43.88408" lon="2.97949">
        <ele>419.75</ele>
        <time>2016-04-24T09:49:29Z</time>
      </trkpt>
      <trkpt lat="43.88418" lon="2.97929">
        <ele>418.31</ele>
        <time>2016-04-24T09:49:30Z</time>
      </trkpt>
      <trkpt lat="43.88433" lon="2.9791">
        <ele>417.83</ele>
        <time>2016-04-24T09:49:31Z</time>
      </trkpt>
      <trkpt lat="43.88446" lon="2.97891">
        <ele>417.83</ele>
        <time>2016-04-24T09:49:32Z</time>
      </trkpt>
      <trkpt lat="43.88483" lon="2.97832">
        <ele>415.91</ele>
        <time>2016-04-24T09:49:35Z</time>
      </trkpt>
      <trkpt lat="43.88491" lon="2.97812">
        <ele>415.91</ele>
        <time>2016-04-24T09:49:36Z</time>
      </trkpt>
      <trkpt lat="43.88505" lon="2.97771">
        <ele>415.43</ele>
        <time>2016-04-24T09:49:38Z</time>
      </trkpt>
      <trkpt lat="43.88515" lon="2.97754">
        <ele>415.91</ele>
        <time>2016-04-24T09:49:39Z</time>
      </trkpt>
      <trkpt lat="43.88528" lon="2.9774">
        <ele>415.91</ele>
        <time>2016-04-24T09:49:40Z</time>
      </trkpt>
      <trkpt lat="43.88544" lon="2.9773">
        <ele>415.91</ele>
        <time>2016-04-24T09:49:41Z</time>
      </trkpt>
      <trkpt lat="43.8856" lon="2.97723">
        <ele>415.91</ele>
        <time>2016-04-24T09:49:42Z</time>
      </trkpt>
      <trkpt lat="43.88575" lon="2.97714">
        <ele>415.91</ele>
        <time>2016-04-24T09:49:43Z</time>
      </trkpt>
      <trkpt lat="43.88588" lon="2.97704">
        <ele>415.43</ele>
        <time>2016-04-24T09:49:44Z</time>
      </trkpt>
      <trkpt lat="43.88598" lon="2.97689">
        <ele>414.95</ele>
        <time>2016-04-24T09:49:45Z</time>
      </trkpt>
      <trkpt lat="43.88606" lon="2.97671">
        <ele>414.47</ele>
        <time>2016-04-24T09:49:46Z</time>
      </trkpt>
      <trkpt lat="43.88611" lon="2.97652">
        <ele>412.06</ele>
        <time>2016-04-24T09:49:47Z</time>
      </trkpt>
      <trkpt lat="43.88611" lon="2.97631">
        <ele>409.18</ele>
        <time>2016-04-24T09:49:48Z</time>
      </trkpt>
      <trkpt lat="43.8861" lon="2.97611">
        <ele>408.22</ele>
        <time>2016-04-24T09:49:49Z</time>
      </trkpt>
      <trkpt lat="43.88604" lon="2.97593">
        <ele>407.74</ele>
        <time>2016-04-24T09:49:50Z</time>
      </trkpt>
      <trkpt lat="43.88593" lon="2.9758">
        <ele>407.26</ele>
        <time>2016-04-24T09:49:51Z</time>
      </trkpt>
      <trkpt lat="43.88578" lon="2.97571">
        <ele>407.26</ele>
        <time>2016-04-24T09:49:52Z</time>
      </trkpt>
      <trkpt lat="43.88564" lon="2.97565">
        <ele>406.77</ele>
        <time>2016-04-24T09:49:53Z</time>
      </trkpt>
      <trkpt lat="43.88551" lon="2.97558">
        <ele>406.77</ele>
        <time>2016-04-24T09:49:54Z</time>
      </trkpt>
      <trkpt lat="43.88538" lon="2.97548">
        <ele>406.29</ele>
        <time>2016-04-24T09:49:55Z</time>
      </trkpt>
      <trkpt lat="43.88529" lon="2.97532">
        <ele>405.81</ele>
        <time>2016-04-24T09:49:56Z</time>
      </trkpt>
      <trkpt lat="43.88522" lon="2.97513">
        <ele>405.81</ele>
        <time>2016-04-24T09:49:57Z</time>
      </trkpt>
      <trkpt lat="43.88521" lon="2.97489">
        <ele>406.29</ele>
        <time>2016-04-24T09:49:58Z</time>
      </trkpt>
      <trkpt lat="43.88521" lon="2.97464">
        <ele>407.26</ele>
        <time>2016-04-24T09:49:59Z</time>
      </trkpt>
      <trkpt lat="43.88522" lon="2.97438">
        <ele>407.26</ele>
        <time>2016-04-24T09:50:00Z</time>
      </trkpt>
      <trkpt lat="43.88522" lon="2.97413">
        <ele>407.26</ele>
        <time>2016-04-24T09:50:01Z</time>
      </trkpt>
      <trkpt lat="43.88525" lon="2.97369">
        <ele>407.74</ele>
        <time>2016-04-24T09:50:03Z</time>
      </trkpt>
      <trkpt lat="43.88533" lon="2.97349">
        <ele>407.74</ele>
        <time>2016-04-24T09:50:04Z</time>
      </trkpt>
      <trkpt lat="43.88542" lon="2.97329">
        <ele>407.74</ele>
        <time>2016-04-24T09:50:05Z</time>
      </trkpt>
      <trkpt lat="43.88552" lon="2.97307">
        <ele>407.74</ele>
        <time>2016-04-24T09:50:06Z</time>
      </trkpt>
      <trkpt lat="43.88558" lon="2.97282">
        <ele>407.74</ele>
        <time>2016-04-24T09:50:07Z</time>
      </trkpt>
      <trkpt lat="43.88562" lon="2.97256">
        <ele>407.26</ele>
        <time>2016-04-24T09:50:08Z</time>
      </trkpt>
      <trkpt lat="43.88565" lon="2.9723">
        <ele>407.26</ele>
        <time>2016-04-24T09:50:09Z</time>
      </trkpt>
      <trkpt lat="43.8861" lon="2.97035">
        <ele>406.29</ele>
        <time>2016-04-24T09:50:17Z</time>
      </trkpt>
      <trkpt lat="43.88628" lon="2.96937">
        <ele>405.33</ele>
        <time>2016-04-24T09:50:21Z</time>
      </trkpt>
      <trkpt lat="43.88628" lon="2.96909">
        <ele>405.33</ele>
        <time>2016-04-24T09:50:22Z</time>
      </trkpt>
      <trkpt lat="43.88626" lon="2.96881">
        <ele>404.85</ele>
        <time>2016-04-24T09:50:23Z</time>
      </trkpt>
      <trkpt lat="43.88583" lon="2.96642">
        <ele>403.89</ele>
        <time>2016-04-24T09:50:32Z</time>
      </trkpt>
      <trkpt lat="43.88573" lon="2.96623">
        <ele>403.41</ele>
        <time>2016-04-24T09:50:33Z</time>
      </trkpt>
      <trkpt lat="43.88562" lon="2.96609">
        <ele>402.93</ele>
        <time>2016-04-24T09:50:34Z</time>
      </trkpt>
      <trkpt lat="43.8854" lon="2.96583">
        <ele>401.49</ele>
        <time>2016-04-24T09:50:36Z</time>
      </trkpt>
      <trkpt lat="43.88532" lon="2.96568">
        <ele>401.01</ele>
        <time>2016-04-24T09:50:37Z</time>
      </trkpt>
      <trkpt lat="43.88528" lon="2.9655">
        <ele>401.01</ele>
        <time>2016-04-24T09:50:38Z</time>
      </trkpt>
      <trkpt lat="43.8853" lon="2.96532">
        <ele>400.53</ele>
        <time>2016-04-24T09:50:39Z</time>
      </trkpt>
      <trkpt lat="43.88539" lon="2.96519">
        <ele>399.57</ele>
        <time>2016-04-24T09:50:40Z</time>
      </trkpt>
      <trkpt lat="43.88551" lon="2.96507">
        <ele>400.05</ele>
        <time>2016-04-24T09:50:41Z</time>
      </trkpt>
      <trkpt lat="43.88567" lon="2.96501">
        <ele>400.53</ele>
        <time>2016-04-24T09:50:42Z</time>
      </trkpt>
      <trkpt lat="43.88584" lon="2.96496">
        <ele>400.53</ele>
        <time>2016-04-24T09:50:43Z</time>
      </trkpt>
      <trkpt lat="43.88605" lon="2.9649">
        <ele>401.01</ele>
        <time>2016-04-24T09:50:44Z</time>
      </trkpt>
      <trkpt lat="43.88627" lon="2.96476">
        <ele>400.53</ele>
        <time>2016-04-24T09:50:45Z</time>
      </trkpt>
      <trkpt lat="43.88647" lon="2.96456">
        <ele>400.53</ele>
        <time>2016-04-24T09:50:46Z</time>
      </trkpt>
      <trkpt lat="43.88665" lon="2.96433">
        <ele>400.53</ele>
        <time>2016-04-24T09:50:47Z</time>
      </trkpt>
      <trkpt lat="43.88681" lon="2.96409">
        <ele>400.05</ele>
        <time>2016-04-24T09:50:48Z</time>
      </trkpt>
      <trkpt lat="43.88722" lon="2.96343">
        <ele>398.6</ele>
        <time>2016-04-24T09:50:51Z</time>
      </trkpt>
      <trkpt lat="43.88732" lon="2.9632">
        <ele>397.64</ele>
        <time>2016-04-24T09:50:52Z</time>
      </trkpt>
      <trkpt lat="43.88738" lon="2.96295">
        <ele>397.16</ele>
        <time>2016-04-24T09:50:53Z</time>
      </trkpt>
      <trkpt lat="43.8874" lon="2.96267">
        <ele>396.68</ele>
        <time>2016-04-24T09:50:54Z</time>
      </trkpt>
      <trkpt lat="43.88737" lon="2.96235">
        <ele>395.72</ele>
        <time>2016-04-24T09:50:55Z</time>
      </trkpt>
      <trkpt lat="43.88733" lon="2.96204">
        <ele>395.24</ele>
        <time>2016-04-24T09:50:56Z</time>
      </trkpt>
      <trkpt lat="43.88729" lon="2.96174">
        <ele>395.24</ele>
        <time>2016-04-24T09:50:57Z</time>
      </trkpt>
      <trkpt lat="43.88706" lon="2.96028">
        <ele>394.28</ele>
        <time>2016-04-24T09:51:03Z</time>
      </trkpt>
      <trkpt lat="43.887" lon="2.95993">
        <ele>393.8</ele>
        <time>2016-04-24T09:51:05Z</time>
      </trkpt>
      <trkpt lat="43.887" lon="2.95977">
        <ele>393.32</ele>
        <time>2016-04-24T09:51:06Z</time>
      </trkpt>
      <trkpt lat="43.88706" lon="2.95962">
        <ele>393.32</ele>
        <time>2016-04-24T09:51:07Z</time>
      </trkpt>
      <trkpt lat="43.88716" lon="2.9595">
        <ele>392.36</ele>
        <time>2016-04-24T09:51:08Z</time>
      </trkpt>
      <trkpt lat="43.88728" lon="2.95937">
        <ele>392.36</ele>
        <time>2016-04-24T09:51:09Z</time>
      </trkpt>
      <trkpt lat="43.8874" lon="2.95923">
        <ele>392.36</ele>
        <time>2016-04-24T09:51:10Z</time>
      </trkpt>
      <trkpt lat="43.88751" lon="2.95907">
        <ele>391.87</ele>
        <time>2016-04-24T09:51:11Z</time>
      </trkpt>
      <trkpt lat="43.88757" lon="2.95887">
        <ele>391.39</ele>
        <time>2016-04-24T09:51:12Z</time>
      </trkpt>
      <trkpt lat="43.88761" lon="2.95865">
        <ele>391.87</ele>
        <time>2016-04-24T09:51:13Z</time>
      </trkpt>
      <trkpt lat="43.88763" lon="2.95843">
        <ele>391.87</ele>
        <time>2016-04-24T09:51:14Z</time>
      </trkpt>
      <trkpt lat="43.88768" lon="2.95822">
        <ele>391.39</ele>
        <time>2016-04-24T09:51:15Z</time>
      </trkpt>
      <trkpt lat="43.88776" lon="2.95802">
        <ele>390.91</ele>
        <time>2016-04-24T09:51:16Z</time>
      </trkpt>
      <trkpt lat="43.88786" lon="2.95782">
        <ele>390.43</ele>
        <time>2016-04-24T09:51:17Z</time>
      </trkpt>
      <trkpt lat="43.88798" lon="2.95761">
        <ele>389.95</ele>
        <time>2016-04-24T09:51:18Z</time>
      </trkpt>
      <trkpt lat="43.88871" lon="2.95578">
        <ele>387.55</ele>
        <time>2016-04-24T09:51:26Z</time>
      </trkpt>
      <trkpt lat="43.88884" lon="2.9546">
        <ele>386.59</ele>
        <time>2016-04-24T09:51:31Z</time>
      </trkpt>
      <trkpt lat="43.88889" lon="2.95438">
        <ele>386.59</ele>
        <time>2016-04-24T09:51:32Z</time>
      </trkpt>
      <trkpt lat="43.88896" lon="2.95417">
        <ele>386.11</ele>
        <time>2016-04-24T09:51:33Z</time>
      </trkpt>
      <trkpt lat="43.88927" lon="2.95322">
        <ele>386.11</ele>
        <time>2016-04-24T09:51:38Z</time>
      </trkpt>
      <trkpt lat="43.8893" lon="2.95304">
        <ele>386.11</ele>
        <time>2016-04-24T09:51:39Z</time>
      </trkpt>
      <trkpt lat="43.88931" lon="2.95286">
        <ele>386.11</ele>
        <time>2016-04-24T09:51:40Z</time>
      </trkpt>
      <trkpt lat="43.88931" lon="2.95269">
        <ele>386.11</ele>
        <time>2016-04-24T09:51:41Z</time>
      </trkpt>
      <trkpt lat="43.88931" lon="2.95251">
        <ele>386.11</ele>
        <time>2016-04-24T09:51:42Z</time>
      </trkpt>
      <trkpt lat="43.88934" lon="2.95145">
        <ele>385.15</ele>
        <time>2016-04-24T09:51:48Z</time>
      </trkpt>
      <trkpt lat="43.88937" lon="2.95125">
        <ele>385.15</ele>
        <time>2016-04-24T09:51:49Z</time>
      </trkpt>
      <trkpt lat="43.88987" lon="2.94961">
        <ele>384.18</ele>
        <time>2016-04-24T09:51:57Z</time>
      </trkpt>
      <trkpt lat="43.89066" lon="2.94805">
        <ele>379.86</ele>
        <time>2016-04-24T09:52:05Z</time>
      </trkpt>
      <trkpt lat="43.89164" lon="2.94716">
        <ele>379.38</ele>
        <time>2016-04-24T09:52:12Z</time>
      </trkpt>
      <trkpt lat="43.89289" lon="2.94605">
        <ele>379.38</ele>
        <time>2016-04-24T09:52:24Z</time>
      </trkpt>
      <trkpt lat="43.89369" lon="2.94504">
        <ele>379.86</ele>
        <time>2016-04-24T09:52:35Z</time>
      </trkpt>
      <trkpt lat="43.89376" lon="2.94493">
        <ele>380.34</ele>
        <time>2016-04-24T09:52:36Z</time>
      </trkpt>
      <trkpt lat="43.89428" lon="2.9438">
        <ele>380.82</ele>
        <time>2016-04-24T09:52:46Z</time>
      </trkpt>
      <trkpt lat="43.89472" lon="2.94286">
        <ele>378.42</ele>
        <time>2016-04-24T09:52:54Z</time>
      </trkpt>
      <trkpt lat="43.89475" lon="2.9427">
        <ele>377.94</ele>
        <time>2016-04-24T09:52:55Z</time>
      </trkpt>
      <trkpt lat="43.89477" lon="2.94253">
        <ele>376.97</ele>
        <time>2016-04-24T09:52:56Z</time>
      </trkpt>
      <trkpt lat="43.89493" lon="2.94098">
        <ele>375.53</ele>
        <time>2016-04-24T09:53:03Z</time>
      </trkpt>
      <trkpt lat="43.89509" lon="2.93851">
        <ele>374.57</ele>
        <time>2016-04-24T09:53:12Z</time>
      </trkpt>
      <trkpt lat="43.89501" lon="2.93669">
        <ele>374.57</ele>
        <time>2016-04-24T09:53:19Z</time>
      </trkpt>
      <trkpt lat="43.89546" lon="2.93466">
        <ele>374.09</ele>
        <time>2016-04-24T09:53:27Z</time>
      </trkpt>
      <trkpt lat="43.89607" lon="2.93274">
        <ele>369.28</ele>
        <time>2016-04-24T09:53:36Z</time>
      </trkpt>
      <trkpt lat="43.89682" lon="2.9303">
        <ele>367.84</ele>
        <time>2016-04-24T09:53:46Z</time>
      </trkpt>
      <trkpt lat="43.89757" lon="2.92783">
        <ele>366.88</ele>
        <time>2016-04-24T09:53:56Z</time>
      </trkpt>
      <trkpt lat="43.89813" lon="2.92599">
        <ele>366.4</ele>
        <time>2016-04-24T09:54:05Z</time>
      </trkpt>
      <trkpt lat="43.89908" lon="2.92334">
        <ele>365.44</ele>
        <time>2016-04-24T09:54:16Z</time>
      </trkpt>
      <trkpt lat="43.89975" lon="2.92194">
        <ele>366.4</ele>
        <time>2016-04-24T09:54:22Z</time>
      </trkpt>
      <trkpt lat="43.89981" lon="2.92166">
        <ele>366.88</ele>
        <time>2016-04-24T09:54:23Z</time>
      </trkpt>
      <trkpt lat="43.89984" lon="2.92138">
        <ele>366.88</ele>
        <time>2016-04-24T09:54:24Z</time>
      </trkpt>
      <trkpt lat="43.90007" lon="2.91956">
        <ele>366.88</ele>
        <time>2016-04-24T09:54:30Z</time>
      </trkpt>
      <trkpt lat="43.90008" lon="2.91921">
        <ele>367.36</ele>
        <time>2016-04-24T09:54:31Z</time>
      </trkpt>
      <trkpt lat="43.90004" lon="2.91732">
        <ele>369.28</ele>
        <time>2016-04-24T09:54:37Z</time>
      </trkpt>
      <trkpt lat="43.89998" lon="2.91705">
        <ele>369.76</ele>
        <time>2016-04-24T09:54:38Z</time>
      </trkpt>
      <trkpt lat="43.8999" lon="2.91679">
        <ele>370.24</ele>
        <time>2016-04-24T09:54:39Z</time>
      </trkpt>
      <trkpt lat="43.8996" lon="2.91601">
        <ele>371.69</ele>
        <time>2016-04-24T09:54:43Z</time>
      </trkpt>
      <trkpt lat="43.89952" lon="2.91587">
        <ele>372.17</ele>
        <time>2016-04-24T09:54:44Z</time>
      </trkpt>
      <trkpt lat="43.89938" lon="2.9156">
        <ele>372.17</ele>
        <time>2016-04-24T09:54:46Z</time>
      </trkpt>
      <trkpt lat="43.89933" lon="2.91543">
        <ele>372.17</ele>
        <time>2016-04-24T09:54:47Z</time>
      </trkpt>
      <trkpt lat="43.8993" lon="2.91526">
        <ele>372.17</ele>
        <time>2016-04-24T09:54:48Z</time>
      </trkpt>
      <trkpt lat="43.8993" lon="2.91506">
        <ele>371.69</ele>
        <time>2016-04-24T09:54:49Z</time>
      </trkpt>
      <trkpt lat="43.89932" lon="2.91486">
        <ele>371.69</ele>
        <time>2016-04-24T09:54:50Z</time>
      </trkpt>
      <trkpt lat="43.89938" lon="2.91466">
        <ele>371.69</ele>
        <time>2016-04-24T09:54:51Z</time>
      </trkpt>
      <trkpt lat="43.89944" lon="2.91447">
        <ele>371.21</ele>
        <time>2016-04-24T09:54:52Z</time>
      </trkpt>
      <trkpt lat="43.89979" lon="2.91326">
        <ele>369.76</ele>
        <time>2016-04-24T09:55:00Z</time>
      </trkpt>
      <trkpt lat="43.90022" lon="2.91164">
        <ele>365.44</ele>
        <time>2016-04-24T09:55:11Z</time>
      </trkpt>
      <trkpt lat="43.90058" lon="2.90997">
        <ele>364.96</ele>
        <time>2016-04-24T09:55:22Z</time>
      </trkpt>
      <trkpt lat="43.90064" lon="2.90975">
        <ele>364.96</ele>
        <time>2016-04-24T09:55:24Z</time>
      </trkpt>
      <trkpt lat="43.90069" lon="2.90965">
        <ele>364.48</ele>
        <time>2016-04-24T09:55:25Z</time>
      </trkpt>
      <trkpt lat="43.90076" lon="2.90957">
        <ele>364.48</ele>
        <time>2016-04-24T09:55:26Z</time>
      </trkpt>
      <trkpt lat="43.90084" lon="2.90948">
        <ele>364.96</ele>
        <time>2016-04-24T09:55:27Z</time>
      </trkpt>
      <trkpt lat="43.90095" lon="2.90944">
        <ele>364.96</ele>
        <time>2016-04-24T09:55:28Z</time>
      </trkpt>
      <trkpt lat="43.90107" lon="2.9094">
        <ele>364.96</ele>
        <time>2016-04-24T09:55:29Z</time>
      </trkpt>
      <trkpt lat="43.90215" lon="2.90884">
        <ele>365.92</ele>
        <time>2016-04-24T09:55:37Z</time>
      </trkpt>
      <trkpt lat="43.90343" lon="2.9078">
        <ele>364.96</ele>
        <time>2016-04-24T09:55:45Z</time>
      </trkpt>
      <trkpt lat="43.90492" lon="2.90684">
        <ele>364.48</ele>
        <time>2016-04-24T09:55:53Z</time>
      </trkpt>
      <trkpt lat="43.90703" lon="2.90608">
        <ele>363.52</ele>
        <time>2016-04-24T09:56:02Z</time>
      </trkpt>
      <trkpt lat="43.90904" lon="2.90568">
        <ele>360.63</ele>
        <time>2016-04-24T09:56:10Z</time>
      </trkpt>
      <trkpt lat="43.90982" lon="2.90559">
        <ele>358.71</ele>
        <time>2016-04-24T09:56:13Z</time>
      </trkpt>
      <trkpt lat="43.91007" lon="2.90562">
        <ele>357.27</ele>
        <time>2016-04-24T09:56:14Z</time>
      </trkpt>
      <trkpt lat="43.91127" lon="2.90562">
        <ele>355.83</ele>
        <time>2016-04-24T09:56:19Z</time>
      </trkpt>
      <trkpt lat="43.91151" lon="2.9055">
        <ele>355.34</ele>
        <time>2016-04-24T09:56:20Z</time>
      </trkpt>
      <trkpt lat="43.91174" lon="2.90535">
        <ele>354.86</ele>
        <time>2016-04-24T09:56:21Z</time>
      </trkpt>
      <trkpt lat="43.91196" lon="2.90518">
        <ele>355.34</ele>
        <time>2016-04-24T09:56:22Z</time>
      </trkpt>
      <trkpt lat="43.91218" lon="2.905">
        <ele>355.34</ele>
        <time>2016-04-24T09:56:23Z</time>
      </trkpt>
      <trkpt lat="43.91347" lon="2.90406">
        <ele>356.31</ele>
        <time>2016-04-24T09:56:29Z</time>
      </trkpt>
      <trkpt lat="43.91365" lon="2.90383">
        <ele>356.31</ele>
        <time>2016-04-24T09:56:30Z</time>
      </trkpt>
      <trkpt lat="43.91383" lon="2.90357">
        <ele>356.31</ele>
        <time>2016-04-24T09:56:31Z</time>
      </trkpt>
      <trkpt lat="43.91498" lon="2.90222">
        <ele>354.86</ele>
        <time>2016-04-24T09:56:37Z</time>
      </trkpt>
      <trkpt lat="43.91627" lon="2.90098">
        <ele>352.94</ele>
        <time>2016-04-24T09:56:44Z</time>
      </trkpt>
      <trkpt lat="43.91647" lon="2.90087">
        <ele>352.94</ele>
        <time>2016-04-24T09:56:45Z</time>
      </trkpt>
      <trkpt lat="43.91668" lon="2.9008">
        <ele>352.94</ele>
        <time>2016-04-24T09:56:46Z</time>
      </trkpt>
      <trkpt lat="43.91691" lon="2.90076">
        <ele>352.94</ele>
        <time>2016-04-24T09:56:47Z</time>
      </trkpt>
      <trkpt lat="43.91715" lon="2.90076">
        <ele>353.42</ele>
        <time>2016-04-24T09:56:48Z</time>
      </trkpt>
      <trkpt lat="43.91738" lon="2.90079">
        <ele>352.46</ele>
        <time>2016-04-24T09:56:49Z</time>
      </trkpt>
      <trkpt lat="43.9176" lon="2.90085">
        <ele>351.98</ele>
        <time>2016-04-24T09:56:50Z</time>
      </trkpt>
      <trkpt lat="43.91781" lon="2.90095">
        <ele>352.94</ele>
        <time>2016-04-24T09:56:51Z</time>
      </trkpt>
      <trkpt lat="43.918" lon="2.90107">
        <ele>353.9</ele>
        <time>2016-04-24T09:56:52Z</time>
      </trkpt>
      <trkpt lat="43.91815" lon="2.90121">
        <ele>354.86</ele>
        <time>2016-04-24T09:56:53Z</time>
      </trkpt>
      <trkpt lat="43.91829" lon="2.90134">
        <ele>356.31</ele>
        <time>2016-04-24T09:56:54Z</time>
      </trkpt>
      <trkpt lat="43.91859" lon="2.90156">
        <ele>357.75</ele>
        <time>2016-04-24T09:56:56Z</time>
      </trkpt>
      <trkpt lat="43.91877" lon="2.90164">
        <ele>357.75</ele>
        <time>2016-04-24T09:56:57Z</time>
      </trkpt>
      <trkpt lat="43.91895" lon="2.9017">
        <ele>358.23</ele>
        <time>2016-04-24T09:56:58Z</time>
      </trkpt>
      <trkpt lat="43.92062" lon="2.90199">
        <ele>363.04</ele>
        <time>2016-04-24T09:57:06Z</time>
      </trkpt>
      <trkpt lat="43.92247" lon="2.90227">
        <ele>372.17</ele>
        <time>2016-04-24T09:57:15Z</time>
      </trkpt>
      <trkpt lat="43.92401" lon="2.90233">
        <ele>379.86</ele>
        <time>2016-04-24T09:57:23Z</time>
      </trkpt>
      <trkpt lat="43.92476" lon="2.90231">
        <ele>382.74</ele>
        <time>2016-04-24T09:57:28Z</time>
      </trkpt>
      <trkpt lat="43.92489" lon="2.90236">
        <ele>382.74</ele>
        <time>2016-04-24T09:57:29Z</time>
      </trkpt>
      <trkpt lat="43.92502" lon="2.9025">
        <ele>381.3</ele>
        <time>2016-04-24T09:57:30Z</time>
      </trkpt>
      <trkpt lat="43.92515" lon="2.90268">
        <ele>380.34</ele>
        <time>2016-04-24T09:57:31Z</time>
      </trkpt>
      <trkpt lat="43.92526" lon="2.90286">
        <ele>379.38</ele>
        <time>2016-04-24T09:57:32Z</time>
      </trkpt>
      <trkpt lat="43.92535" lon="2.90304">
        <ele>378.9</ele>
        <time>2016-04-24T09:57:33Z</time>
      </trkpt>
      <trkpt lat="43.9257" lon="2.90357">
        <ele>376.01</ele>
        <time>2016-04-24T09:57:37Z</time>
      </trkpt>
      <trkpt lat="43.92585" lon="2.90357">
        <ele>375.05</ele>
        <time>2016-04-24T09:57:38Z</time>
      </trkpt>
      <trkpt lat="43.92599" lon="2.9035">
        <ele>374.57</ele>
        <time>2016-04-24T09:57:39Z</time>
      </trkpt>
      <trkpt lat="43.92614" lon="2.90342">
        <ele>373.61</ele>
        <time>2016-04-24T09:57:40Z</time>
      </trkpt>
      <trkpt lat="43.9263" lon="2.90329">
        <ele>373.13</ele>
        <time>2016-04-24T09:57:41Z</time>
      </trkpt>
      <trkpt lat="43.92645" lon="2.90317">
        <ele>372.65</ele>
        <time>2016-04-24T09:57:42Z</time>
      </trkpt>
      <trkpt lat="43.92717" lon="2.90243">
        <ele>368.32</ele>
        <time>2016-04-24T09:57:49Z</time>
      </trkpt>
      <trkpt lat="43.92721" lon="2.90233">
        <ele>367.84</ele>
        <time>2016-04-24T09:57:50Z</time>
      </trkpt>
      <trkpt lat="43.92721" lon="2.90219">
        <ele>366.88</ele>
        <time>2016-04-24T09:57:51Z</time>
      </trkpt>
      <trkpt lat="43.92718" lon="2.90205">
        <ele>365.44</ele>
        <time>2016-04-24T09:57:52Z</time>
      </trkpt>
      <trkpt lat="43.92712" lon="2.90191">
        <ele>364.48</ele>
        <time>2016-04-24T09:57:53Z</time>
      </trkpt>
      <trkpt lat="43.92703" lon="2.90179">
        <ele>363.04</ele>
        <time>2016-04-24T09:57:54Z</time>
      </trkpt>
      <trkpt lat="43.92694" lon="2.90165">
        <ele>362.07</ele>
        <time>2016-04-24T09:57:55Z</time>
      </trkpt>
      <trkpt lat="43.92687" lon="2.90149">
        <ele>360.63</ele>
        <time>2016-04-24T09:57:56Z</time>
      </trkpt>
      <trkpt lat="43.92681" lon="2.90131">
        <ele>359.67</ele>
        <time>2016-04-24T09:57:57Z</time>
      </trkpt>
      <trkpt lat="43.9268" lon="2.90112">
        <ele>358.71</ele>
        <time>2016-04-24T09:57:58Z</time>
      </trkpt>
      <trkpt lat="43.92685" lon="2.90093">
        <ele>358.23</ele>
        <time>2016-04-24T09:57:59Z</time>
      </trkpt>
      <trkpt lat="43.92695" lon="2.90073">
        <ele>357.75</ele>
        <time>2016-04-24T09:58:00Z</time>
      </trkpt>
      <trkpt lat="43.92709" lon="2.90053">
        <ele>356.79</ele>
        <time>2016-04-24T09:58:01Z</time>
      </trkpt>
      <trkpt lat="43.92722" lon="2.90035">
        <ele>355.83</ele>
        <time>2016-04-24T09:58:02Z</time>
      </trkpt>
      <trkpt lat="43.92737" lon="2.90017">
        <ele>354.86</ele>
        <time>2016-04-24T09:58:03Z</time>
      </trkpt>
      <trkpt lat="43.92752" lon="2.89999">
        <ele>354.38</ele>
        <time>2016-04-24T09:58:04Z</time>
      </trkpt>
      <trkpt lat="43.92908" lon="2.89782">
        <ele>348.62</ele>
        <time>2016-04-24T09:58:15Z</time>
      </trkpt>
      <trkpt lat="43.93006" lon="2.89643">
        <ele>347.65</ele>
        <time>2016-04-24T09:58:22Z</time>
      </trkpt>
      <trkpt lat="43.93076" lon="2.8956">
        <ele>347.65</ele>
        <time>2016-04-24T09:58:27Z</time>
      </trkpt>
      <trkpt lat="43.93092" lon="2.89549">
        <ele>347.65</ele>
        <time>2016-04-24T09:58:28Z</time>
      </trkpt>
      <trkpt lat="43.93108" lon="2.89541">
        <ele>347.65</ele>
        <time>2016-04-24T09:58:29Z</time>
      </trkpt>
      <trkpt lat="43.93124" lon="2.89535">
        <ele>348.13</ele>
        <time>2016-04-24T09:58:30Z</time>
      </trkpt>
      <trkpt lat="43.9314" lon="2.8953">
        <ele>347.65</ele>
        <time>2016-04-24T09:58:31Z</time>
      </trkpt>
      <trkpt lat="43.93256" lon="2.89475">
        <ele>347.65</ele>
        <time>2016-04-24T09:58:37Z</time>
      </trkpt>
      <trkpt lat="43.93334" lon="2.89451">
        <ele>347.65</ele>
        <time>2016-04-24T09:58:40Z</time>
      </trkpt>
      <trkpt lat="43.93361" lon="2.89451">
        <ele>347.65</ele>
        <time>2016-04-24T09:58:41Z</time>
      </trkpt>
      <trkpt lat="43.93387" lon="2.89455">
        <ele>347.65</ele>
        <time>2016-04-24T09:58:42Z</time>
      </trkpt>
      <trkpt lat="43.93517" lon="2.89452">
        <ele>349.1</ele>
        <time>2016-04-24T09:58:48Z</time>
      </trkpt>
      <trkpt lat="43.93616" lon="2.89441">
        <ele>348.13</ele>
        <time>2016-04-24T09:58:55Z</time>
      </trkpt>
      <trkpt lat="43.93759" lon="2.89451">
        <ele>350.06</ele>
        <time>2016-04-24T09:59:07Z</time>
      </trkpt>
      <trkpt lat="43.93858" lon="2.89494">
        <ele>349.1</ele>
        <time>2016-04-24T09:59:14Z</time>
      </trkpt>
      <trkpt lat="43.9397" lon="2.89512">
        <ele>349.1</ele>
        <time>2016-04-24T09:59:22Z</time>
      </trkpt>
      <trkpt lat="43.93985" lon="2.89513">
        <ele>349.1</ele>
        <time>2016-04-24T09:59:23Z</time>
      </trkpt>
      <trkpt lat="43.94001" lon="2.89516">
        <ele>349.1</ele>
        <time>2016-04-24T09:59:24Z</time>
      </trkpt>
      <trkpt lat="43.94018" lon="2.89521">
        <ele>349.58</ele>
        <time>2016-04-24T09:59:25Z</time>
      </trkpt>
      <trkpt lat="43.94034" lon="2.89528">
        <ele>349.58</ele>
        <time>2016-04-24T09:59:26Z</time>
      </trkpt>
      <trkpt lat="43.94051" lon="2.89536">
        <ele>349.1</ele>
        <time>2016-04-24T09:59:27Z</time>
      </trkpt>
      <trkpt lat="43.94125" lon="2.89566">
        <ele>347.17</ele>
        <time>2016-04-24T09:59:32Z</time>
      </trkpt>
      <trkpt lat="43.94136" lon="2.89577">
        <ele>345.73</ele>
        <time>2016-04-24T09:59:33Z</time>
      </trkpt>
      <trkpt lat="43.94148" lon="2.8959">
        <ele>344.29</ele>
        <time>2016-04-24T09:59:34Z</time>
      </trkpt>
      <trkpt lat="43.94243" lon="2.89679">
        <ele>343.81</ele>
        <time>2016-04-24T09:59:41Z</time>
      </trkpt>
      <trkpt lat="43.94384" lon="2.89741">
        <ele>344.29</ele>
        <time>2016-04-24T09:59:51Z</time>
      </trkpt>
      <trkpt lat="43.94541" lon="2.89806">
        <ele>345.25</ele>
        <time>2016-04-24T10:00:03Z</time>
      </trkpt>
      <trkpt lat="43.94676" lon="2.89861">
        <ele>341.89</ele>
        <time>2016-04-24T10:00:14Z</time>
      </trkpt>
      <trkpt lat="43.94685" lon="2.89862">
        <ele>341.41</ele>
        <time>2016-04-24T10:00:15Z</time>
      </trkpt>
      <trkpt lat="43.94693" lon="2.89861">
        <ele>340.92</ele>
        <time>2016-04-24T10:00:16Z</time>
      </trkpt>
      <trkpt lat="43.947" lon="2.89859">
        <ele>340.44</ele>
        <time>2016-04-24T10:00:17Z</time>
      </trkpt>
      <trkpt lat="43.94707" lon="2.89856">
        <ele>340.44</ele>
        <time>2016-04-24T10:00:18Z</time>
      </trkpt>
      <trkpt lat="43.94714" lon="2.89851">
        <ele>340.44</ele>
        <time>2016-04-24T10:00:19Z</time>
      </trkpt>
      <trkpt lat="43.94721" lon="2.89845">
        <ele>339.96</ele>
        <time>2016-04-24T10:00:20Z</time>
      </trkpt>
      <trkpt lat="43.94727" lon="2.89837">
        <ele>339.48</ele>
        <time>2016-04-24T10:00:21Z</time>
      </trkpt>
      <trkpt lat="43.94733" lon="2.89825">
        <ele>339</ele>
        <time>2016-04-24T10:00:22Z</time>
      </trkpt>
      <trkpt lat="43.94737" lon="2.89812">
        <ele>338.52</ele>
        <time>2016-04-24T10:00:23Z</time>
      </trkpt>
      <trkpt lat="43.94741" lon="2.89796">
        <ele>338.04</ele>
        <time>2016-04-24T10:00:24Z</time>
      </trkpt>
      <trkpt lat="43.94745" lon="2.89778">
        <ele>338.04</ele>
        <time>2016-04-24T10:00:25Z</time>
      </trkpt>
      <trkpt lat="43.94755" lon="2.89744">
        <ele>337.08</ele>
        <time>2016-04-24T10:00:27Z</time>
      </trkpt>
      <trkpt lat="43.94761" lon="2.89727">
        <ele>337.08</ele>
        <time>2016-04-24T10:00:28Z</time>
      </trkpt>
      <trkpt lat="43.94799" lon="2.89648">
        <ele>336.6</ele>
        <time>2016-04-24T10:00:33Z</time>
      </trkpt>
      <trkpt lat="43.94809" lon="2.89635">
        <ele>337.08</ele>
        <time>2016-04-24T10:00:34Z</time>
      </trkpt>
      <trkpt lat="43.94819" lon="2.89623">
        <ele>337.08</ele>
        <time>2016-04-24T10:00:35Z</time>
      </trkpt>
      <trkpt lat="43.94831" lon="2.89613">
        <ele>337.08</ele>
        <time>2016-04-24T10:00:36Z</time>
      </trkpt>
      <trkpt lat="43.94842" lon="2.89604">
        <ele>337.08</ele>
        <time>2016-04-24T10:00:37Z</time>
      </trkpt>
      <trkpt lat="43.94854" lon="2.89598">
        <ele>337.56</ele>
        <time>2016-04-24T10:00:38Z</time>
      </trkpt>
      <trkpt lat="43.94866" lon="2.89593">
        <ele>337.56</ele>
        <time>2016-04-24T10:00:39Z</time>
      </trkpt>
      <trkpt lat="43.94877" lon="2.89589">
        <ele>338.04</ele>
        <time>2016-04-24T10:00:40Z</time>
      </trkpt>
      <trkpt lat="43.94887" lon="2.89587">
        <ele>337.56</ele>
        <time>2016-04-24T10:00:41Z</time>
      </trkpt>
      <trkpt lat="43.9499" lon="2.89569">
        <ele>337.08</ele>
        <time>2016-04-24T10:00:53Z</time>
      </trkpt>
      <trkpt lat="43.95073" lon="2.89552">
        <ele>336.6</ele>
        <time>2016-04-24T10:01:03Z</time>
      </trkpt>
      <trkpt lat="43.95104" lon="2.89539">
        <ele>335.64</ele>
        <time>2016-04-24T10:01:11Z</time>
      </trkpt>
      <trkpt lat="43.95108" lon="2.89537">
        <ele>335.64</ele>
        <time>2016-04-24T10:01:23Z</time>
      </trkpt>
      <trkpt lat="43.95145" lon="2.89517">
        <ele>336.6</ele>
        <time>2016-04-24T10:01:30Z</time>
      </trkpt>
      <trkpt lat="43.95242" lon="2.89447">
        <ele>338.04</ele>
        <time>2016-04-24T10:01:45Z</time>
      </trkpt>
      <trkpt lat="43.95338" lon="2.8938">
        <ele>337.56</ele>
        <time>2016-04-24T10:01:57Z</time>
      </trkpt>
      <trkpt lat="43.95431" lon="2.89316">
        <ele>337.56</ele>
        <time>2016-04-24T10:02:11Z</time>
      </trkpt>
      <trkpt lat="43.95469" lon="2.89287">
        <ele>343.33</ele>
        <time>2016-04-24T10:02:19Z</time>
      </trkpt>
      <trkpt lat="43.95474" lon="2.89286">
        <ele>343.33</ele>
        <time>2016-04-24T10:02:20Z</time>
      </trkpt>
      <trkpt lat="43.95479" lon="2.89287">
        <ele>341.41</ele>
        <time>2016-04-24T10:02:21Z</time>
      </trkpt>
      <trkpt lat="43.95485" lon="2.89289">
        <ele>339.96</ele>
        <time>2016-04-24T10:02:22Z</time>
      </trkpt>
      <trkpt lat="43.9549" lon="2.89289">
        <ele>338.52</ele>
        <time>2016-04-24T10:02:23Z</time>
      </trkpt>
      <trkpt lat="43.95494" lon="2.89286">
        <ele>338.52</ele>
        <time>2016-04-24T10:02:24Z</time>
      </trkpt>
      <trkpt lat="43.95498" lon="2.89282">
        <ele>338.04</ele>
        <time>2016-04-24T10:02:25Z</time>
      </trkpt>
      <trkpt lat="43.95501" lon="2.89276">
        <ele>337.56</ele>
        <time>2016-04-24T10:02:26Z</time>
      </trkpt>
      <trkpt lat="43.95505" lon="2.8927">
        <ele>337.08</ele>
        <time>2016-04-24T10:02:27Z</time>
      </trkpt>
      <trkpt lat="43.95508" lon="2.89264">
        <ele>337.08</ele>
        <time>2016-04-24T10:02:28Z</time>
      </trkpt>
      <trkpt lat="43.95513" lon="2.89258">
        <ele>337.56</ele>
        <time>2016-04-24T10:02:29Z</time>
      </trkpt>
      <trkpt lat="43.95579" lon="2.89153">
        <ele>334.2</ele>
        <time>2016-04-24T10:02:42Z</time>
      </trkpt>
      <trkpt lat="43.95649" lon="2.89041">
        <ele>335.64</ele>
        <time>2016-04-24T10:02:53Z</time>
      </trkpt>
      <trkpt lat="43.95687" lon="2.88973">
        <ele>337.56</ele>
        <time>2016-04-24T10:03:03Z</time>
      </trkpt>
      <trkpt lat="43.95732" lon="2.88908">
        <ele>335.64</ele>
        <time>2016-04-24T10:03:16Z</time>
      </trkpt>
      <trkpt lat="43.95787" lon="2.88822">
        <ele>336.6</ele>
        <time>2016-04-24T10:03:31Z</time>
      </trkpt>
      <trkpt lat="43.95825" lon="2.88762">
        <ele>333.23</ele>
        <time>2016-04-24T10:03:42Z</time>
      </trkpt>
      <trkpt lat="43.95828" lon="2.88757">
        <ele>333.23</ele>
        <time>2016-04-24T10:03:43Z</time>
      </trkpt>
      <trkpt lat="43.95874" lon="2.88688">
        <ele>337.08</ele>
        <time>2016-04-24T10:03:58Z</time>
      </trkpt>
      <trkpt lat="43.95879" lon="2.88666">
        <ele>343.33</ele>
        <time>2016-04-24T10:04:14Z</time>
      </trkpt>
      <trkpt lat="43.95884" lon="2.88662">
        <ele>343.33</ele>
        <time>2016-04-24T10:04:15Z</time>
      </trkpt>
      <trkpt lat="43.9589" lon="2.88658">
        <ele>343.33</ele>
        <time>2016-04-24T10:04:16Z</time>
      </trkpt>
      <trkpt lat="43.95895" lon="2.88653">
        <ele>343.33</ele>
        <time>2016-04-24T10:04:17Z</time>
      </trkpt>
      <trkpt lat="43.959" lon="2.88648">
        <ele>342.85</ele>
        <time>2016-04-24T10:04:18Z</time>
      </trkpt>
      <trkpt lat="43.95904" lon="2.88642">
        <ele>342.37</ele>
        <time>2016-04-24T10:04:19Z</time>
      </trkpt>
      <trkpt lat="43.95908" lon="2.88635">
        <ele>341.89</ele>
        <time>2016-04-24T10:04:20Z</time>
      </trkpt>
      <trkpt lat="43.95913" lon="2.88627">
        <ele>341.41</ele>
        <time>2016-04-24T10:04:21Z</time>
      </trkpt>
      <trkpt lat="43.95935" lon="2.88585">
        <ele>343.33</ele>
        <time>2016-04-24T10:04:26Z</time>
      </trkpt>
      <trkpt lat="43.95939" lon="2.88576">
        <ele>343.33</ele>
        <time>2016-04-24T10:04:27Z</time>
      </trkpt>
      <trkpt lat="43.95945" lon="2.88572">
        <ele>343.33</ele>
        <time>2016-04-24T10:04:28Z</time>
      </trkpt>
      <trkpt lat="43.9597" lon="2.88534">
        <ele>342.85</ele>
        <time>2016-04-24T10:04:35Z</time>
      </trkpt>
      <trkpt lat="43.95974" lon="2.8853">
        <ele>342.85</ele>
        <time>2016-04-24T10:04:36Z</time>
      </trkpt>
      <trkpt lat="43.95979" lon="2.88527">
        <ele>342.85</ele>
        <time>2016-04-24T10:04:37Z</time>
      </trkpt>
      <trkpt lat="43.95988" lon="2.88522">
        <ele>342.85</ele>
        <time>2016-04-24T10:04:39Z</time>
      </trkpt>
      <trkpt lat="43.96008" lon="2.88515">
        <ele>345.25</ele>
        <time>2016-04-24T10:04:44Z</time>
      </trkpt>
      <trkpt lat="43.96022" lon="2.88515">
        <ele>346.21</ele>
        <time>2016-04-24T10:04:47Z</time>
      </trkpt>
      <trkpt lat="43.96028" lon="2.88516">
        <ele>346.21</ele>
        <time>2016-04-24T10:04:48Z</time>
      </trkpt>
      <trkpt lat="43.96034" lon="2.88518">
        <ele>346.21</ele>
        <time>2016-04-24T10:04:49Z</time>
      </trkpt>
      <trkpt lat="43.9604" lon="2.88522">
        <ele>346.21</ele>
        <time>2016-04-24T10:04:50Z</time>
      </trkpt>
      <trkpt lat="43.96045" lon="2.88526">
        <ele>345.73</ele>
        <time>2016-04-24T10:04:51Z</time>
      </trkpt>
      <trkpt lat="43.9605" lon="2.88533">
        <ele>343.33</ele>
        <time>2016-04-24T10:04:52Z</time>
      </trkpt>
      <trkpt lat="43.96054" lon="2.88542">
        <ele>342.37</ele>
        <time>2016-04-24T10:04:53Z</time>
      </trkpt>
      <trkpt lat="43.96058" lon="2.8855">
        <ele>342.37</ele>
        <time>2016-04-24T10:04:54Z</time>
      </trkpt>
      <trkpt lat="43.96065" lon="2.88566">
        <ele>342.37</ele>
        <time>2016-04-24T10:04:56Z</time>
      </trkpt>
      <trkpt lat="43.9607" lon="2.88574">
        <ele>342.37</ele>
        <time>2016-04-24T10:04:57Z</time>
      </trkpt>
      <trkpt lat="43.96076" lon="2.88582">
        <ele>342.37</ele>
        <time>2016-04-24T10:04:58Z</time>
      </trkpt>
      <trkpt lat="43.96093" lon="2.88603">
        <ele>341.41</ele>
        <time>2016-04-24T10:05:01Z</time>
      </trkpt>
      <trkpt lat="43.96097" lon="2.88611">
        <ele>341.41</ele>
        <time>2016-04-24T10:05:02Z</time>
      </trkpt>
      <trkpt lat="43.96107" lon="2.88629">
        <ele>340.92</ele>
        <time>2016-04-24T10:05:04Z</time>
      </trkpt>
      <trkpt lat="43.96111" lon="2.8864">
        <ele>340.92</ele>
        <time>2016-04-24T10:05:05Z</time>
      </trkpt>
      <trkpt lat="43.96114" lon="2.88654">
        <ele>340.92</ele>
        <time>2016-04-24T10:05:06Z</time>
      </trkpt>
      <trkpt lat="43.9613" lon="2.88702">
        <ele>339.96</ele>
        <time>2016-04-24T10:05:10Z</time>
      </trkpt>
      <trkpt lat="43.96139" lon="2.88709">
        <ele>340.44</ele>
        <time>2016-04-24T10:05:11Z</time>
      </trkpt>
      <trkpt lat="43.96209" lon="2.8878">
        <ele>347.17</ele>
        <time>2016-04-24T10:05:20Z</time>
      </trkpt>
      <trkpt lat="43.96296" lon="2.88869">
        <ele>357.27</ele>
        <time>2016-04-24T10:05:32Z</time>
      </trkpt>
      <trkpt lat="43.96373" lon="2.88948">
        <ele>362.07</ele>
        <time>2016-04-24T10:05:40Z</time>
      </trkpt>
      <trkpt lat="43.96386" lon="2.88956">
        <ele>363.04</ele>
        <time>2016-04-24T10:05:41Z</time>
      </trkpt>
      <trkpt lat="43.96402" lon="2.88962">
        <ele>364</ele>
        <time>2016-04-24T10:05:42Z</time>
      </trkpt>
      <trkpt lat="43.96418" lon="2.88965">
        <ele>364.96</ele>
        <time>2016-04-24T10:05:43Z</time>
      </trkpt>
      <trkpt lat="43.96435" lon="2.88967">
        <ele>366.4</ele>
        <time>2016-04-24T10:05:44Z</time>
      </trkpt>
      <trkpt lat="43.96564" lon="2.89008">
        <ele>375.53</ele>
        <time>2016-04-24T10:05:52Z</time>
      </trkpt>
      <trkpt lat="43.96596" lon="2.89018">
        <ele>378.9</ele>
        <time>2016-04-24T10:05:54Z</time>
      </trkpt>
      <trkpt lat="43.96612" lon="2.89019">
        <ele>379.86</ele>
        <time>2016-04-24T10:05:55Z</time>
      </trkpt>
      <trkpt lat="43.96628" lon="2.89017">
        <ele>381.3</ele>
        <time>2016-04-24T10:05:56Z</time>
      </trkpt>
      <trkpt lat="43.96643" lon="2.89014">
        <ele>382.74</ele>
        <time>2016-04-24T10:05:57Z</time>
      </trkpt>
      <trkpt lat="43.96657" lon="2.89009">
        <ele>383.7</ele>
        <time>2016-04-24T10:05:58Z</time>
      </trkpt>
      <trkpt lat="43.96669" lon="2.89008">
        <ele>385.15</ele>
        <time>2016-04-24T10:05:59Z</time>
      </trkpt>
      <trkpt lat="43.96679" lon="2.8901">
        <ele>386.11</ele>
        <time>2016-04-24T10:06:00Z</time>
      </trkpt>
      <trkpt lat="43.96688" lon="2.89019">
        <ele>386.59</ele>
        <time>2016-04-24T10:06:01Z</time>
      </trkpt>
      <trkpt lat="43.96698" lon="2.89031">
        <ele>388.03</ele>
        <time>2016-04-24T10:06:02Z</time>
      </trkpt>
      <trkpt lat="43.96705" lon="2.89047">
        <ele>389.47</ele>
        <time>2016-04-24T10:06:03Z</time>
      </trkpt>
      <trkpt lat="43.96715" lon="2.89064">
        <ele>390.91</ele>
        <time>2016-04-24T10:06:04Z</time>
      </trkpt>
      <trkpt lat="43.96741" lon="2.89096">
        <ele>392.36</ele>
        <time>2016-04-24T10:06:06Z</time>
      </trkpt>
      <trkpt lat="43.96756" lon="2.89109">
        <ele>394.28</ele>
        <time>2016-04-24T10:06:07Z</time>
      </trkpt>
      <trkpt lat="43.96771" lon="2.89122">
        <ele>395.24</ele>
        <time>2016-04-24T10:06:08Z</time>
      </trkpt>
      <trkpt lat="43.96813" lon="2.89155">
        <ele>397.64</ele>
        <time>2016-04-24T10:06:11Z</time>
      </trkpt>
      <trkpt lat="43.96823" lon="2.8917">
        <ele>398.6</ele>
        <time>2016-04-24T10:06:12Z</time>
      </trkpt>
      <trkpt lat="43.96833" lon="2.89187">
        <ele>399.57</ele>
        <time>2016-04-24T10:06:13Z</time>
      </trkpt>
      <trkpt lat="43.96853" lon="2.89233">
        <ele>401.01</ele>
        <time>2016-04-24T10:06:16Z</time>
      </trkpt>
      <trkpt lat="43.96855" lon="2.89245">
        <ele>401.97</ele>
        <time>2016-04-24T10:06:17Z</time>
      </trkpt>
      <trkpt lat="43.96851" lon="2.89256">
        <ele>402.45</ele>
        <time>2016-04-24T10:06:18Z</time>
      </trkpt>
      <trkpt lat="43.9683" lon="2.89269">
        <ele>403.89</ele>
        <time>2016-04-24T10:06:20Z</time>
      </trkpt>
      <trkpt lat="43.96817" lon="2.89266">
        <ele>404.37</ele>
        <time>2016-04-24T10:06:21Z</time>
      </trkpt>
      <trkpt lat="43.96805" lon="2.89255">
        <ele>405.81</ele>
        <time>2016-04-24T10:06:22Z</time>
      </trkpt>
      <trkpt lat="43.96793" lon="2.89243">
        <ele>406.29</ele>
        <time>2016-04-24T10:06:23Z</time>
      </trkpt>
      <trkpt lat="43.96781" lon="2.89229">
        <ele>406.77</ele>
        <time>2016-04-24T10:06:24Z</time>
      </trkpt>
      <trkpt lat="43.96737" lon="2.89178">
        <ele>410.14</ele>
        <time>2016-04-24T10:06:30Z</time>
      </trkpt>
      <trkpt lat="43.96731" lon="2.89177">
        <ele>410.62</ele>
        <time>2016-04-24T10:06:31Z</time>
      </trkpt>
      <trkpt lat="43.96726" lon="2.89181">
        <ele>411.1</ele>
        <time>2016-04-24T10:06:32Z</time>
      </trkpt>
      <trkpt lat="43.96723" lon="2.89192">
        <ele>411.58</ele>
        <time>2016-04-24T10:06:33Z</time>
      </trkpt>
      <trkpt lat="43.96721" lon="2.89206">
        <ele>412.06</ele>
        <time>2016-04-24T10:06:34Z</time>
      </trkpt>
      <trkpt lat="43.96721" lon="2.89222">
        <ele>413.02</ele>
        <time>2016-04-24T10:06:35Z</time>
      </trkpt>
      <trkpt lat="43.96721" lon="2.8924">
        <ele>413.98</ele>
        <time>2016-04-24T10:06:36Z</time>
      </trkpt>
      <trkpt lat="43.9672" lon="2.89258">
        <ele>414.47</ele>
        <time>2016-04-24T10:06:37Z</time>
      </trkpt>
      <trkpt lat="43.9672" lon="2.89289">
        <ele>415.43</ele>
        <time>2016-04-24T10:06:39Z</time>
      </trkpt>
      <trkpt lat="43.96725" lon="2.89301">
        <ele>416.39</ele>
        <time>2016-04-24T10:06:40Z</time>
      </trkpt>
      <trkpt lat="43.96733" lon="2.89307">
        <ele>416.87</ele>
        <time>2016-04-24T10:06:41Z</time>
      </trkpt>
      <trkpt lat="43.96741" lon="2.89309">
        <ele>416.87</ele>
        <time>2016-04-24T10:06:42Z</time>
      </trkpt>
      <trkpt lat="43.96754" lon="2.8931">
        <ele>418.31</ele>
        <time>2016-04-24T10:06:43Z</time>
      </trkpt>
      <trkpt lat="43.96766" lon="2.89312">
        <ele>418.79</ele>
        <time>2016-04-24T10:06:44Z</time>
      </trkpt>
      <trkpt lat="43.96778" lon="2.89316">
        <ele>419.75</ele>
        <time>2016-04-24T10:06:45Z</time>
      </trkpt>
      <trkpt lat="43.96787" lon="2.89328">
        <ele>420.71</ele>
        <time>2016-04-24T10:06:46Z</time>
      </trkpt>
      <trkpt lat="43.96795" lon="2.89343">
        <ele>422.16</ele>
        <time>2016-04-24T10:06:47Z</time>
      </trkpt>
      <trkpt lat="43.96804" lon="2.89359">
        <ele>423.12</ele>
        <time>2016-04-24T10:06:48Z</time>
      </trkpt>
      <trkpt lat="43.96827" lon="2.89392">
        <ele>425.52</ele>
        <time>2016-04-24T10:06:50Z</time>
      </trkpt>
      <trkpt lat="43.96839" lon="2.89406">
        <ele>426.48</ele>
        <time>2016-04-24T10:06:51Z</time>
      </trkpt>
      <trkpt lat="43.96852" lon="2.89418">
        <ele>427.92</ele>
        <time>2016-04-24T10:06:52Z</time>
      </trkpt>
      <trkpt lat="43.96899" lon="2.89472">
        <ele>433.69</ele>
        <time>2016-04-24T10:06:56Z</time>
      </trkpt>
      <trkpt lat="43.96998" lon="2.89617">
        <ele>445.23</ele>
        <time>2016-04-24T10:07:04Z</time>
      </trkpt>
      <trkpt lat="43.97013" lon="2.89632">
        <ele>446.67</ele>
        <time>2016-04-24T10:07:05Z</time>
      </trkpt>
      <trkpt lat="43.97029" lon="2.89643">
        <ele>447.63</ele>
        <time>2016-04-24T10:07:06Z</time>
      </trkpt>
      <trkpt lat="43.97066" lon="2.89684">
        <ele>451.48</ele>
        <time>2016-04-24T10:07:09Z</time>
      </trkpt>
      <trkpt lat="43.97073" lon="2.89704">
        <ele>451.48</ele>
        <time>2016-04-24T10:07:10Z</time>
      </trkpt>
      <trkpt lat="43.97077" lon="2.89726">
        <ele>451.96</ele>
        <time>2016-04-24T10:07:11Z</time>
      </trkpt>
      <trkpt lat="43.97082" lon="2.89747">
        <ele>452.92</ele>
        <time>2016-04-24T10:07:12Z</time>
      </trkpt>
      <trkpt lat="43.97089" lon="2.89768">
        <ele>454.36</ele>
        <time>2016-04-24T10:07:13Z</time>
      </trkpt>
      <trkpt lat="43.97096" lon="2.89786">
        <ele>455.8</ele>
        <time>2016-04-24T10:07:14Z</time>
      </trkpt>
      <trkpt lat="43.97114" lon="2.89816">
        <ele>457.72</ele>
        <time>2016-04-24T10:07:16Z</time>
      </trkpt>
      <trkpt lat="43.97125" lon="2.89827">
        <ele>458.69</ele>
        <time>2016-04-24T10:07:17Z</time>
      </trkpt>
      <trkpt lat="43.97138" lon="2.89833">
        <ele>459.17</ele>
        <time>2016-04-24T10:07:18Z</time>
      </trkpt>
      <trkpt lat="43.97156" lon="2.89838">
        <ele>461.09</ele>
        <time>2016-04-24T10:07:19Z</time>
      </trkpt>
      <trkpt lat="43.97176" lon="2.89845">
        <ele>462.05</ele>
        <time>2016-04-24T10:07:20Z</time>
      </trkpt>
      <trkpt lat="43.97295" lon="2.89864">
        <ele>470.7</ele>
        <time>2016-04-24T10:07:26Z</time>
      </trkpt>
      <trkpt lat="43.97351" lon="2.89862">
        <ele>474.07</ele>
        <time>2016-04-24T10:07:30Z</time>
      </trkpt>
      <trkpt lat="43.97359" lon="2.89852">
        <ele>474.55</ele>
        <time>2016-04-24T10:07:31Z</time>
      </trkpt>
      <trkpt lat="43.97367" lon="2.89839">
        <ele>475.03</ele>
        <time>2016-04-24T10:07:32Z</time>
      </trkpt>
      <trkpt lat="43.97374" lon="2.89824">
        <ele>475.99</ele>
        <time>2016-04-24T10:07:33Z</time>
      </trkpt>
      <trkpt lat="43.97382" lon="2.89809">
        <ele>476.47</ele>
        <time>2016-04-24T10:07:34Z</time>
      </trkpt>
      <trkpt lat="43.97393" lon="2.89797">
        <ele>475.99</ele>
        <time>2016-04-24T10:07:35Z</time>
      </trkpt>
      <trkpt lat="43.97406" lon="2.8979">
        <ele>476.95</ele>
        <time>2016-04-24T10:07:36Z</time>
      </trkpt>
      <trkpt lat="43.9742" lon="2.89789">
        <ele>477.91</ele>
        <time>2016-04-24T10:07:37Z</time>
      </trkpt>
      <trkpt lat="43.97436" lon="2.89797">
        <ele>476.95</ele>
        <time>2016-04-24T10:07:38Z</time>
      </trkpt>
      <trkpt lat="43.9745" lon="2.89806">
        <ele>477.43</ele>
        <time>2016-04-24T10:07:39Z</time>
      </trkpt>
      <trkpt lat="43.97465" lon="2.89817">
        <ele>477.43</ele>
        <time>2016-04-24T10:07:40Z</time>
      </trkpt>
      <trkpt lat="43.9748" lon="2.89828">
        <ele>477.91</ele>
        <time>2016-04-24T10:07:41Z</time>
      </trkpt>
      <trkpt lat="43.97595" lon="2.89862">
        <ele>482.72</ele>
        <time>2016-04-24T10:07:48Z</time>
      </trkpt>
      <trkpt lat="43.97631" lon="2.89861">
        <ele>484.16</ele>
        <time>2016-04-24T10:07:50Z</time>
      </trkpt>
      <trkpt lat="43.97649" lon="2.89857">
        <ele>484.64</ele>
        <time>2016-04-24T10:07:51Z</time>
      </trkpt>
      <trkpt lat="43.97666" lon="2.8985">
        <ele>485.6</ele>
        <time>2016-04-24T10:07:52Z</time>
      </trkpt>
      <trkpt lat="43.97722" lon="2.89824">
        <ele>486.56</ele>
        <time>2016-04-24T10:07:55Z</time>
      </trkpt>
      <trkpt lat="43.97742" lon="2.8982">
        <ele>487.05</ele>
        <time>2016-04-24T10:07:56Z</time>
      </trkpt>
      <trkpt lat="43.97763" lon="2.8982">
        <ele>486.56</ele>
        <time>2016-04-24T10:07:57Z</time>
      </trkpt>
      <trkpt lat="43.9786" lon="2.89837">
        <ele>487.05</ele>
        <time>2016-04-24T10:08:02Z</time>
      </trkpt>
      <trkpt lat="43.97878" lon="2.89849">
        <ele>486.56</ele>
        <time>2016-04-24T10:08:03Z</time>
      </trkpt>
      <trkpt lat="43.97897" lon="2.89864">
        <ele>486.56</ele>
        <time>2016-04-24T10:08:04Z</time>
      </trkpt>
      <trkpt lat="43.97914" lon="2.89881">
        <ele>487.53</ele>
        <time>2016-04-24T10:08:05Z</time>
      </trkpt>
      <trkpt lat="43.9793" lon="2.899">
        <ele>488.01</ele>
        <time>2016-04-24T10:08:06Z</time>
      </trkpt>
      <trkpt lat="43.97941" lon="2.89919">
        <ele>488.49</ele>
        <time>2016-04-24T10:08:07Z</time>
      </trkpt>
      <trkpt lat="43.97949" lon="2.89937">
        <ele>488.49</ele>
        <time>2016-04-24T10:08:08Z</time>
      </trkpt>
      <trkpt lat="43.9796" lon="2.89951">
        <ele>488.97</ele>
        <time>2016-04-24T10:08:09Z</time>
      </trkpt>
      <trkpt lat="43.97972" lon="2.89961">
        <ele>488.97</ele>
        <time>2016-04-24T10:08:10Z</time>
      </trkpt>
      <trkpt lat="43.97988" lon="2.89969">
        <ele>489.45</ele>
        <time>2016-04-24T10:08:11Z</time>
      </trkpt>
      <trkpt lat="43.98001" lon="2.89979">
        <ele>489.45</ele>
        <time>2016-04-24T10:08:12Z</time>
      </trkpt>
      <trkpt lat="43.98015" lon="2.89994">
        <ele>490.41</ele>
        <time>2016-04-24T10:08:13Z</time>
      </trkpt>
      <trkpt lat="43.98029" lon="2.90013">
        <ele>491.37</ele>
        <time>2016-04-24T10:08:14Z</time>
      </trkpt>
      <trkpt lat="43.9804" lon="2.90031">
        <ele>492.33</ele>
        <time>2016-04-24T10:08:15Z</time>
      </trkpt>
      <trkpt lat="43.98045" lon="2.90051">
        <ele>493.29</ele>
        <time>2016-04-24T10:08:16Z</time>
      </trkpt>
      <trkpt lat="43.98057" lon="2.90084">
        <ele>494.74</ele>
        <time>2016-04-24T10:08:18Z</time>
      </trkpt>
      <trkpt lat="43.98066" lon="2.90095">
        <ele>495.7</ele>
        <time>2016-04-24T10:08:19Z</time>
      </trkpt>
      <trkpt lat="43.98078" lon="2.90101">
        <ele>496.66</ele>
        <time>2016-04-24T10:08:20Z</time>
      </trkpt>
      <trkpt lat="43.98094" lon="2.90105">
        <ele>497.62</ele>
        <time>2016-04-24T10:08:21Z</time>
      </trkpt>
      <trkpt lat="43.9811" lon="2.90109">
        <ele>498.58</ele>
        <time>2016-04-24T10:08:22Z</time>
      </trkpt>
      <trkpt lat="43.98127" lon="2.90117">
        <ele>499.54</ele>
        <time>2016-04-24T10:08:23Z</time>
      </trkpt>
      <trkpt lat="43.98142" lon="2.90128">
        <ele>500.02</ele>
        <time>2016-04-24T10:08:24Z</time>
      </trkpt>
      <trkpt lat="43.98154" lon="2.90141">
        <ele>500.98</ele>
        <time>2016-04-24T10:08:25Z</time>
      </trkpt>
      <trkpt lat="43.98166" lon="2.90156">
        <ele>501.95</ele>
        <time>2016-04-24T10:08:26Z</time>
      </trkpt>
      <trkpt lat="43.98177" lon="2.90173">
        <ele>502.91</ele>
        <time>2016-04-24T10:08:27Z</time>
      </trkpt>
      <trkpt lat="43.98186" lon="2.90192">
        <ele>503.87</ele>
        <time>2016-04-24T10:08:28Z</time>
      </trkpt>
      <trkpt lat="43.98194" lon="2.90212">
        <ele>504.83</ele>
        <time>2016-04-24T10:08:29Z</time>
      </trkpt>
      <trkpt lat="43.98202" lon="2.90232">
        <ele>505.79</ele>
        <time>2016-04-24T10:08:30Z</time>
      </trkpt>
      <trkpt lat="43.98218" lon="2.90268">
        <ele>507.71</ele>
        <time>2016-04-24T10:08:32Z</time>
      </trkpt>
      <trkpt lat="43.98228" lon="2.90284">
        <ele>508.67</ele>
        <time>2016-04-24T10:08:33Z</time>
      </trkpt>
      <trkpt lat="43.9824" lon="2.90299">
        <ele>509.64</ele>
        <time>2016-04-24T10:08:34Z</time>
      </trkpt>
      <trkpt lat="43.98275" lon="2.90341">
        <ele>512.52</ele>
        <time>2016-04-24T10:08:37Z</time>
      </trkpt>
      <trkpt lat="43.98287" lon="2.90347">
        <ele>513.48</ele>
        <time>2016-04-24T10:08:38Z</time>
      </trkpt>
      <trkpt lat="43.983" lon="2.90349">
        <ele>514.44</ele>
        <time>2016-04-24T10:08:39Z</time>
      </trkpt>
      <trkpt lat="43.98315" lon="2.90348">
        <ele>515.88</ele>
        <time>2016-04-24T10:08:40Z</time>
      </trkpt>
      <trkpt lat="43.9833" lon="2.90343">
        <ele>516.85</ele>
        <time>2016-04-24T10:08:41Z</time>
      </trkpt>
      <trkpt lat="43.98344" lon="2.90336">
        <ele>516.85</ele>
        <time>2016-04-24T10:08:42Z</time>
      </trkpt>
      <trkpt lat="43.98357" lon="2.90322">
        <ele>517.33</ele>
        <time>2016-04-24T10:08:43Z</time>
      </trkpt>
      <trkpt lat="43.98372" lon="2.90308">
        <ele>518.29</ele>
        <time>2016-04-24T10:08:44Z</time>
      </trkpt>
      <trkpt lat="43.98474" lon="2.90245">
        <ele>525.5</ele>
        <time>2016-04-24T10:08:50Z</time>
      </trkpt>
      <trkpt lat="43.98488" lon="2.90237">
        <ele>526.46</ele>
        <time>2016-04-24T10:08:51Z</time>
      </trkpt>
      <trkpt lat="43.98503" lon="2.90233">
        <ele>527.42</ele>
        <time>2016-04-24T10:08:52Z</time>
      </trkpt>
      <trkpt lat="43.98517" lon="2.90232">
        <ele>528.38</ele>
        <time>2016-04-24T10:08:53Z</time>
      </trkpt>
      <trkpt lat="43.9853" lon="2.90232">
        <ele>528.86</ele>
        <time>2016-04-24T10:08:54Z</time>
      </trkpt>
      <trkpt lat="43.98543" lon="2.9023">
        <ele>529.82</ele>
        <time>2016-04-24T10:08:55Z</time>
      </trkpt>
      <trkpt lat="43.98557" lon="2.90225">
        <ele>530.79</ele>
        <time>2016-04-24T10:08:56Z</time>
      </trkpt>
      <trkpt lat="43.98571" lon="2.90216">
        <ele>532.23</ele>
        <time>2016-04-24T10:08:57Z</time>
      </trkpt>
      <trkpt lat="43.98586" lon="2.90204">
        <ele>533.19</ele>
        <time>2016-04-24T10:08:58Z</time>
      </trkpt>
      <trkpt lat="43.98601" lon="2.90195">
        <ele>534.15</ele>
        <time>2016-04-24T10:08:59Z</time>
      </trkpt>
      <trkpt lat="43.98617" lon="2.90188">
        <ele>535.59</ele>
        <time>2016-04-24T10:09:00Z</time>
      </trkpt>
      <trkpt lat="43.98633" lon="2.90185">
        <ele>537.03</ele>
        <time>2016-04-24T10:09:01Z</time>
      </trkpt>
      <trkpt lat="43.98648" lon="2.90185">
        <ele>538.48</ele>
        <time>2016-04-24T10:09:02Z</time>
      </trkpt>
      <trkpt lat="43.98663" lon="2.90187">
        <ele>539.44</ele>
        <time>2016-04-24T10:09:03Z</time>
      </trkpt>
      <trkpt lat="43.98767" lon="2.90178">
        <ele>544.72</ele>
        <time>2016-04-24T10:09:09Z</time>
      </trkpt>
      <trkpt lat="43.98799" lon="2.90171">
        <ele>546.65</ele>
        <time>2016-04-24T10:09:11Z</time>
      </trkpt>
      <trkpt lat="43.98816" lon="2.90171">
        <ele>548.09</ele>
        <time>2016-04-24T10:09:12Z</time>
      </trkpt>
      <trkpt lat="43.98848" lon="2.90169">
        <ele>549.53</ele>
        <time>2016-04-24T10:09:14Z</time>
      </trkpt>
      <trkpt lat="43.98865" lon="2.90166">
        <ele>550.49</ele>
        <time>2016-04-24T10:09:15Z</time>
      </trkpt>
      <trkpt lat="43.98882" lon="2.9016">
        <ele>551.45</ele>
        <time>2016-04-24T10:09:16Z</time>
      </trkpt>
      <trkpt lat="43.98979" lon="2.90114">
        <ele>557.22</ele>
        <time>2016-04-24T10:09:22Z</time>
      </trkpt>
      <trkpt lat="43.98995" lon="2.90102">
        <ele>557.7</ele>
        <time>2016-04-24T10:09:23Z</time>
      </trkpt>
      <trkpt lat="43.9901" lon="2.90086">
        <ele>558.18</ele>
        <time>2016-04-24T10:09:24Z</time>
      </trkpt>
      <trkpt lat="43.99105" lon="2.8995">
        <ele>565.87</ele>
        <time>2016-04-24T10:09:32Z</time>
      </trkpt>
      <trkpt lat="43.99124" lon="2.89923">
        <ele>567.32</ele>
        <time>2016-04-24T10:09:34Z</time>
      </trkpt>
      <trkpt lat="43.99135" lon="2.89912">
        <ele>568.28</ele>
        <time>2016-04-24T10:09:35Z</time>
      </trkpt>
      <trkpt lat="43.99149" lon="2.89908">
        <ele>568.76</ele>
        <time>2016-04-24T10:09:36Z</time>
      </trkpt>
      <trkpt lat="43.99163" lon="2.8991">
        <ele>569.72</ele>
        <time>2016-04-24T10:09:37Z</time>
      </trkpt>
      <trkpt lat="43.99177" lon="2.8991">
        <ele>570.2</ele>
        <time>2016-04-24T10:09:38Z</time>
      </trkpt>
      <trkpt lat="43.99207" lon="2.89914">
        <ele>571.64</ele>
        <time>2016-04-24T10:09:40Z</time>
      </trkpt>
      <trkpt lat="43.99222" lon="2.89923">
        <ele>572.12</ele>
        <time>2016-04-24T10:09:41Z</time>
      </trkpt>
      <trkpt lat="43.99235" lon="2.89933">
        <ele>573.08</ele>
        <time>2016-04-24T10:09:42Z</time>
      </trkpt>
      <trkpt lat="43.99257" lon="2.89948">
        <ele>574.53</ele>
        <time>2016-04-24T10:09:44Z</time>
      </trkpt>
      <trkpt lat="43.99265" lon="2.89948">
        <ele>575.01</ele>
        <time>2016-04-24T10:09:45Z</time>
      </trkpt>
      <trkpt lat="43.99279" lon="2.89943">
        <ele>575.49</ele>
        <time>2016-04-24T10:09:46Z</time>
      </trkpt>
      <trkpt lat="43.99293" lon="2.89936">
        <ele>576.45</ele>
        <time>2016-04-24T10:09:47Z</time>
      </trkpt>
      <trkpt lat="43.9931" lon="2.89927">
        <ele>577.89</ele>
        <time>2016-04-24T10:09:48Z</time>
      </trkpt>
      <trkpt lat="43.99418" lon="2.89891">
        <ele>584.14</ele>
        <time>2016-04-24T10:09:55Z</time>
      </trkpt>
      <trkpt lat="43.99461" lon="2.89879">
        <ele>587.02</ele>
        <time>2016-04-24T10:09:58Z</time>
      </trkpt>
      <trkpt lat="43.99478" lon="2.89882">
        <ele>587.98</ele>
        <time>2016-04-24T10:09:59Z</time>
      </trkpt>
      <trkpt lat="43.99494" lon="2.89889">
        <ele>588.46</ele>
        <time>2016-04-24T10:10:00Z</time>
      </trkpt>
      <trkpt lat="43.99509" lon="2.89899">
        <ele>589.43</ele>
        <time>2016-04-24T10:10:01Z</time>
      </trkpt>
      <trkpt lat="43.99523" lon="2.8991">
        <ele>589.91</ele>
        <time>2016-04-24T10:10:02Z</time>
      </trkpt>
      <trkpt lat="43.99536" lon="2.89921">
        <ele>590.87</ele>
        <time>2016-04-24T10:10:03Z</time>
      </trkpt>
      <trkpt lat="43.9955" lon="2.89928">
        <ele>590.87</ele>
        <time>2016-04-24T10:10:04Z</time>
      </trkpt>
      <trkpt lat="43.99564" lon="2.89932">
        <ele>591.83</ele>
        <time>2016-04-24T10:10:05Z</time>
      </trkpt>
      <trkpt lat="43.9958" lon="2.89931">
        <ele>592.31</ele>
        <time>2016-04-24T10:10:06Z</time>
      </trkpt>
      <trkpt lat="43.99599" lon="2.89929">
        <ele>593.27</ele>
        <time>2016-04-24T10:10:07Z</time>
      </trkpt>
      <trkpt lat="43.99616" lon="2.89925">
        <ele>594.23</ele>
        <time>2016-04-24T10:10:08Z</time>
      </trkpt>
      <trkpt lat="43.99634" lon="2.89922">
        <ele>595.19</ele>
        <time>2016-04-24T10:10:09Z</time>
      </trkpt>
      <trkpt lat="43.9965" lon="2.89924">
        <ele>596.15</ele>
        <time>2016-04-24T10:10:10Z</time>
      </trkpt>
      <trkpt lat="43.99665" lon="2.89929">
        <ele>596.15</ele>
        <time>2016-04-24T10:10:11Z</time>
      </trkpt>
      <trkpt lat="43.99679" lon="2.89941">
        <ele>597.6</ele>
        <time>2016-04-24T10:10:12Z</time>
      </trkpt>
      <trkpt lat="43.99691" lon="2.89951">
        <ele>599.52</ele>
        <time>2016-04-24T10:10:13Z</time>
      </trkpt>
      <trkpt lat="43.99698" lon="2.89963">
        <ele>600.48</ele>
        <time>2016-04-24T10:10:14Z</time>
      </trkpt>
      <trkpt lat="43.99708" lon="2.89971">
        <ele>600.48</ele>
        <time>2016-04-24T10:10:15Z</time>
      </trkpt>
      <trkpt lat="43.9972" lon="2.89971">
        <ele>601.44</ele>
        <time>2016-04-24T10:10:16Z</time>
      </trkpt>
      <trkpt lat="43.99732" lon="2.89965">
        <ele>601.92</ele>
        <time>2016-04-24T10:10:17Z</time>
      </trkpt>
      <trkpt lat="43.99745" lon="2.89954">
        <ele>602.88</ele>
        <time>2016-04-24T10:10:18Z</time>
      </trkpt>
      <trkpt lat="43.99759" lon="2.89942">
        <ele>604.33</ele>
        <time>2016-04-24T10:10:19Z</time>
      </trkpt>
      <trkpt lat="43.99773" lon="2.89933">
        <ele>605.29</ele>
        <time>2016-04-24T10:10:20Z</time>
      </trkpt>
      <trkpt lat="43.99789" lon="2.89929">
        <ele>606.25</ele>
        <time>2016-04-24T10:10:21Z</time>
      </trkpt>
      <trkpt lat="43.99804" lon="2.89928">
        <ele>607.21</ele>
        <time>2016-04-24T10:10:22Z</time>
      </trkpt>
      <trkpt lat="43.99819" lon="2.89928">
        <ele>607.69</ele>
        <time>2016-04-24T10:10:23Z</time>
      </trkpt>
      <trkpt lat="43.99833" lon="2.89922">
        <ele>608.65</ele>
        <time>2016-04-24T10:10:24Z</time>
      </trkpt>
      <trkpt lat="43.99846" lon="2.8991">
        <ele>609.61</ele>
        <time>2016-04-24T10:10:25Z</time>
      </trkpt>
      <trkpt lat="43.99859" lon="2.89896">
        <ele>610.57</ele>
        <time>2016-04-24T10:10:26Z</time>
      </trkpt>
      <trkpt lat="43.99872" lon="2.8988">
        <ele>612.02</ele>
        <time>2016-04-24T10:10:27Z</time>
      </trkpt>
      <trkpt lat="43.99884" lon="2.89864">
        <ele>612.98</ele>
        <time>2016-04-24T10:10:28Z</time>
      </trkpt>
      <trkpt lat="43.99983" lon="2.89726">
        <ele>623.07</ele>
        <time>2016-04-24T10:10:36Z</time>
      </trkpt>
      <trkpt lat="43.99997" lon="2.89713">
        <ele>624.03</ele>
        <time>2016-04-24T10:10:37Z</time>
      </trkpt>
      <trkpt lat="44.00134" lon="2.89586">
        <ele>633.65</ele>
        <time>2016-04-24T10:10:46Z</time>
      </trkpt>
      <trkpt lat="44.00181" lon="2.89543">
        <ele>636.53</ele>
        <time>2016-04-24T10:10:50Z</time>
      </trkpt>
      <trkpt lat="44.00194" lon="2.89538">
        <ele>637.49</ele>
        <time>2016-04-24T10:10:51Z</time>
      </trkpt>
      <trkpt lat="44.00208" lon="2.8954">
        <ele>638.45</ele>
        <time>2016-04-24T10:10:52Z</time>
      </trkpt>
      <trkpt lat="44.00223" lon="2.89543">
        <ele>639.41</ele>
        <time>2016-04-24T10:10:53Z</time>
      </trkpt>
      <trkpt lat="44.00238" lon="2.89548">
        <ele>639.89</ele>
        <time>2016-04-24T10:10:54Z</time>
      </trkpt>
      <trkpt lat="44.00253" lon="2.89553">
        <ele>640.86</ele>
        <time>2016-04-24T10:10:55Z</time>
      </trkpt>
      <trkpt lat="44.00329" lon="2.89577">
        <ele>645.18</ele>
        <time>2016-04-24T10:11:02Z</time>
      </trkpt>
      <trkpt lat="44.00347" lon="2.89583">
        <ele>646.62</ele>
        <time>2016-04-24T10:11:08Z</time>
      </trkpt>
      <trkpt lat="44.00362" lon="2.89587">
        <ele>648.55</ele>
        <time>2016-04-24T10:11:13Z</time>
      </trkpt>
      <trkpt lat="44.00366" lon="2.89579">
        <ele>648.55</ele>
        <time>2016-04-24T10:11:14Z</time>
      </trkpt>
      <trkpt lat="44.00369" lon="2.89565">
        <ele>648.55</ele>
        <time>2016-04-24T10:11:15Z</time>
      </trkpt>
      <trkpt lat="44.00372" lon="2.89546">
        <ele>649.03</ele>
        <time>2016-04-24T10:11:16Z</time>
      </trkpt>
      <trkpt lat="44.00374" lon="2.89525">
        <ele>649.51</ele>
        <time>2016-04-24T10:11:17Z</time>
      </trkpt>
      <trkpt lat="44.00401" lon="2.89333">
        <ele>653.83</ele>
        <time>2016-04-24T10:11:26Z</time>
      </trkpt>
      <trkpt lat="44.00423" lon="2.89146">
        <ele>657.68</ele>
        <time>2016-04-24T10:11:33Z</time>
      </trkpt>
      <trkpt lat="44.00422" lon="2.89118">
        <ele>658.16</ele>
        <time>2016-04-24T10:11:34Z</time>
      </trkpt>
      <trkpt lat="44.00419" lon="2.89088">
        <ele>658.64</ele>
        <time>2016-04-24T10:11:35Z</time>
      </trkpt>
      <trkpt lat="44.00394" lon="2.88919">
        <ele>661.04</ele>
        <time>2016-04-24T10:11:41Z</time>
      </trkpt>
      <trkpt lat="44.00394" lon="2.88891">
        <ele>661.52</ele>
        <time>2016-04-24T10:11:42Z</time>
      </trkpt>
      <trkpt lat="44.004" lon="2.88861">
        <ele>662.01</ele>
        <time>2016-04-24T10:11:43Z</time>
      </trkpt>
      <trkpt lat="44.00411" lon="2.88834">
        <ele>662.49</ele>
        <time>2016-04-24T10:11:44Z</time>
      </trkpt>
      <trkpt lat="44.00424" lon="2.88806">
        <ele>662.49</ele>
        <time>2016-04-24T10:11:45Z</time>
      </trkpt>
      <trkpt lat="44.00439" lon="2.88778">
        <ele>662.97</ele>
        <time>2016-04-24T10:11:46Z</time>
      </trkpt>
      <trkpt lat="44.00456" lon="2.8875">
        <ele>662.97</ele>
        <time>2016-04-24T10:11:47Z</time>
      </trkpt>
      <trkpt lat="44.00476" lon="2.88721">
        <ele>662.49</ele>
        <time>2016-04-24T10:11:48Z</time>
      </trkpt>
      <trkpt lat="44.00498" lon="2.88693">
        <ele>662.01</ele>
        <time>2016-04-24T10:11:49Z</time>
      </trkpt>
      <trkpt lat="44.00521" lon="2.88666">
        <ele>661.52</ele>
        <time>2016-04-24T10:11:50Z</time>
      </trkpt>
      <trkpt lat="44.00617" lon="2.88519">
        <ele>655.28</ele>
        <time>2016-04-24T10:11:55Z</time>
      </trkpt>
      <trkpt lat="44.00636" lon="2.88497">
        <ele>653.83</ele>
        <time>2016-04-24T10:11:56Z</time>
      </trkpt>
      <trkpt lat="44.00658" lon="2.88479">
        <ele>652.87</ele>
        <time>2016-04-24T10:11:57Z</time>
      </trkpt>
      <trkpt lat="44.0068" lon="2.88465">
        <ele>651.91</ele>
        <time>2016-04-24T10:11:58Z</time>
      </trkpt>
      <trkpt lat="44.00703" lon="2.88452">
        <ele>650.95</ele>
        <time>2016-04-24T10:11:59Z</time>
      </trkpt>
      <trkpt lat="44.00725" lon="2.88441">
        <ele>649.99</ele>
        <time>2016-04-24T10:12:00Z</time>
      </trkpt>
      <trkpt lat="44.00985" lon="2.88345">
        <ele>640.86</ele>
        <time>2016-04-24T10:12:11Z</time>
      </trkpt>
      <trkpt lat="44.01213" lon="2.88297">
        <ele>641.82</ele>
        <time>2016-04-24T10:12:21Z</time>
      </trkpt>
      <trkpt lat="44.01255" lon="2.88282">
        <ele>641.82</ele>
        <time>2016-04-24T10:12:23Z</time>
      </trkpt>
      <trkpt lat="44.01275" lon="2.88268">
        <ele>641.82</ele>
        <time>2016-04-24T10:12:24Z</time>
      </trkpt>
      <trkpt lat="44.01293" lon="2.88249">
        <ele>641.82</ele>
        <time>2016-04-24T10:12:25Z</time>
      </trkpt>
      <trkpt lat="44.01309" lon="2.88227">
        <ele>641.82</ele>
        <time>2016-04-24T10:12:26Z</time>
      </trkpt>
      <trkpt lat="44.01324" lon="2.88201">
        <ele>642.3</ele>
        <time>2016-04-24T10:12:27Z</time>
      </trkpt>
      <trkpt lat="44.01337" lon="2.88174">
        <ele>642.78</ele>
        <time>2016-04-24T10:12:28Z</time>
      </trkpt>
      <trkpt lat="44.01349" lon="2.88145">
        <ele>643.74</ele>
        <time>2016-04-24T10:12:29Z</time>
      </trkpt>
      <trkpt lat="44.01496" lon="2.87791">
        <ele>652.87</ele>
        <time>2016-04-24T10:12:42Z</time>
      </trkpt>
      <trkpt lat="44.01541" lon="2.87698">
        <ele>651.91</ele>
        <time>2016-04-24T10:12:46Z</time>
      </trkpt>
      <trkpt lat="44.01556" lon="2.87676">
        <ele>651.43</ele>
        <time>2016-04-24T10:12:47Z</time>
      </trkpt>
      <trkpt lat="44.01572" lon="2.87655">
        <ele>650.95</ele>
        <time>2016-04-24T10:12:48Z</time>
      </trkpt>
      <trkpt lat="44.01707" lon="2.87497">
        <ele>652.87</ele>
        <time>2016-04-24T10:12:56Z</time>
      </trkpt>
      <trkpt lat="44.01784" lon="2.87434">
        <ele>651.91</ele>
        <time>2016-04-24T10:13:02Z</time>
      </trkpt>
      <trkpt lat="44.01849" lon="2.87398">
        <ele>650.47</ele>
        <time>2016-04-24T10:13:08Z</time>
      </trkpt>
      <trkpt lat="44.01859" lon="2.87395">
        <ele>649.99</ele>
        <time>2016-04-24T10:13:09Z</time>
      </trkpt>
      <trkpt lat="44.01871" lon="2.87395">
        <ele>649.99</ele>
        <time>2016-04-24T10:13:10Z</time>
      </trkpt>
      <trkpt lat="44.01914" lon="2.8739">
        <ele>648.07</ele>
        <time>2016-04-24T10:13:14Z</time>
      </trkpt>
      <trkpt lat="44.01925" lon="2.87385">
        <ele>647.1</ele>
        <time>2016-04-24T10:13:15Z</time>
      </trkpt>
      <trkpt lat="44.01946" lon="2.87371">
        <ele>645.66</ele>
        <time>2016-04-24T10:13:17Z</time>
      </trkpt>
      <trkpt lat="44.01958" lon="2.87366">
        <ele>644.7</ele>
        <time>2016-04-24T10:13:18Z</time>
      </trkpt>
      <trkpt lat="44.01973" lon="2.87369">
        <ele>643.74</ele>
        <time>2016-04-24T10:13:19Z</time>
      </trkpt>
      <trkpt lat="44.01987" lon="2.87376">
        <ele>642.3</ele>
        <time>2016-04-24T10:13:20Z</time>
      </trkpt>
      <trkpt lat="44.02" lon="2.87389">
        <ele>641.34</ele>
        <time>2016-04-24T10:13:21Z</time>
      </trkpt>
      <trkpt lat="44.02014" lon="2.87404">
        <ele>640.86</ele>
        <time>2016-04-24T10:13:22Z</time>
      </trkpt>
      <trkpt lat="44.02025" lon="2.87419">
        <ele>639.41</ele>
        <time>2016-04-24T10:13:23Z</time>
      </trkpt>
      <trkpt lat="44.02037" lon="2.87435">
        <ele>637.97</ele>
        <time>2016-04-24T10:13:24Z</time>
      </trkpt>
      <trkpt lat="44.02052" lon="2.87449">
        <ele>636.05</ele>
        <time>2016-04-24T10:13:25Z</time>
      </trkpt>
      <trkpt lat="44.02097" lon="2.87487">
        <ele>632.2</ele>
        <time>2016-04-24T10:13:28Z</time>
      </trkpt>
      <trkpt lat="44.02113" lon="2.87496">
        <ele>631.24</ele>
        <time>2016-04-24T10:13:29Z</time>
      </trkpt>
      <trkpt lat="44.0213" lon="2.87503">
        <ele>630.28</ele>
        <time>2016-04-24T10:13:30Z</time>
      </trkpt>
      <trkpt lat="44.02227" lon="2.87528">
        <ele>625.96</ele>
        <time>2016-04-24T10:13:36Z</time>
      </trkpt>
      <trkpt lat="44.02243" lon="2.87526">
        <ele>624.51</ele>
        <time>2016-04-24T10:13:37Z</time>
      </trkpt>
      <trkpt lat="44.02258" lon="2.87522">
        <ele>624.03</ele>
        <time>2016-04-24T10:13:38Z</time>
      </trkpt>
      <trkpt lat="44.02271" lon="2.87516">
        <ele>623.55</ele>
        <time>2016-04-24T10:13:39Z</time>
      </trkpt>
      <trkpt lat="44.02284" lon="2.87509">
        <ele>623.07</ele>
        <time>2016-04-24T10:13:40Z</time>
      </trkpt>
      <trkpt lat="44.02295" lon="2.87503">
        <ele>622.59</ele>
        <time>2016-04-24T10:13:41Z</time>
      </trkpt>
      <trkpt lat="44.02345" lon="2.87481">
        <ele>622.11</ele>
        <time>2016-04-24T10:13:45Z</time>
      </trkpt>
      <trkpt lat="44.0236" lon="2.87479">
        <ele>622.11</ele>
        <time>2016-04-24T10:13:46Z</time>
      </trkpt>
      <trkpt lat="44.0243" lon="2.87486">
        <ele>622.59</ele>
        <time>2016-04-24T10:13:51Z</time>
      </trkpt>
      <trkpt lat="44.02441" lon="2.87492">
        <ele>622.59</ele>
        <time>2016-04-24T10:13:52Z</time>
      </trkpt>
      <trkpt lat="44.02451" lon="2.87499">
        <ele>623.07</ele>
        <time>2016-04-24T10:13:53Z</time>
      </trkpt>
      <trkpt lat="44.02476" lon="2.87522">
        <ele>623.07</ele>
        <time>2016-04-24T10:13:56Z</time>
      </trkpt>
      <trkpt lat="44.0248" lon="2.87534">
        <ele>622.59</ele>
        <time>2016-04-24T10:13:57Z</time>
      </trkpt>
      <trkpt lat="44.02481" lon="2.87546">
        <ele>622.59</ele>
        <time>2016-04-24T10:13:58Z</time>
      </trkpt>
      <trkpt lat="44.0248" lon="2.87558">
        <ele>622.11</ele>
        <time>2016-04-24T10:13:59Z</time>
      </trkpt>
      <trkpt lat="44.02476" lon="2.87568">
        <ele>621.63</ele>
        <time>2016-04-24T10:14:00Z</time>
      </trkpt>
      <trkpt lat="44.02472" lon="2.87577">
        <ele>621.63</ele>
        <time>2016-04-24T10:14:01Z</time>
      </trkpt>
      <trkpt lat="44.02468" lon="2.87585">
        <ele>620.67</ele>
        <time>2016-04-24T10:14:02Z</time>
      </trkpt>
      <trkpt lat="44.02465" lon="2.87594">
        <ele>620.19</ele>
        <time>2016-04-24T10:14:03Z</time>
      </trkpt>
      <trkpt lat="44.02466" lon="2.87603">
        <ele>619.71</ele>
        <time>2016-04-24T10:14:04Z</time>
      </trkpt>
      <trkpt lat="44.02469" lon="2.8761">
        <ele>619.23</ele>
        <time>2016-04-24T10:14:05Z</time>
      </trkpt>
      <trkpt lat="44.02474" lon="2.87615">
        <ele>618.75</ele>
        <time>2016-04-24T10:14:06Z</time>
      </trkpt>
      <trkpt lat="44.02483" lon="2.87619">
        <ele>617.78</ele>
        <time>2016-04-24T10:14:07Z</time>
      </trkpt>
      <trkpt lat="44.02492" lon="2.87622">
        <ele>617.3</ele>
        <time>2016-04-24T10:14:08Z</time>
      </trkpt>
      <trkpt lat="44.02503" lon="2.8762">
        <ele>616.82</ele>
        <time>2016-04-24T10:14:09Z</time>
      </trkpt>
      <trkpt lat="44.02513" lon="2.87621">
        <ele>616.34</ele>
        <time>2016-04-24T10:14:10Z</time>
      </trkpt>
      <trkpt lat="44.02545" lon="2.87622">
        <ele>614.42</ele>
        <time>2016-04-24T10:14:13Z</time>
      </trkpt>
      <trkpt lat="44.02557" lon="2.8762">
        <ele>612.98</ele>
        <time>2016-04-24T10:14:14Z</time>
      </trkpt>
      <trkpt lat="44.02568" lon="2.87617">
        <ele>612.5</ele>
        <time>2016-04-24T10:14:15Z</time>
      </trkpt>
      <trkpt lat="44.02579" lon="2.87617">
        <ele>611.54</ele>
        <time>2016-04-24T10:14:16Z</time>
      </trkpt>
      <trkpt lat="44.02591" lon="2.87622">
        <ele>610.57</ele>
        <time>2016-04-24T10:14:17Z</time>
      </trkpt>
      <trkpt lat="44.02603" lon="2.8763">
        <ele>610.09</ele>
        <time>2016-04-24T10:14:18Z</time>
      </trkpt>
      <trkpt lat="44.02613" lon="2.8764">
        <ele>609.13</ele>
        <time>2016-04-24T10:14:19Z</time>
      </trkpt>
      <trkpt lat="44.02623" lon="2.8765">
        <ele>608.17</ele>
        <time>2016-04-24T10:14:20Z</time>
      </trkpt>
      <trkpt lat="44.02657" lon="2.87678">
        <ele>604.81</ele>
        <time>2016-04-24T10:14:23Z</time>
      </trkpt>
      <trkpt lat="44.0267" lon="2.87679">
        <ele>603.85</ele>
        <time>2016-04-24T10:14:24Z</time>
      </trkpt>
      <trkpt lat="44.02684" lon="2.87675">
        <ele>602.88</ele>
        <time>2016-04-24T10:14:25Z</time>
      </trkpt>
      <trkpt lat="44.02699" lon="2.87672">
        <ele>601.92</ele>
        <time>2016-04-24T10:14:26Z</time>
      </trkpt>
      <trkpt lat="44.02715" lon="2.87665">
        <ele>600.96</ele>
        <time>2016-04-24T10:14:27Z</time>
      </trkpt>
      <trkpt lat="44.02732" lon="2.8766">
        <ele>599.52</ele>
        <time>2016-04-24T10:14:28Z</time>
      </trkpt>
      <trkpt lat="44.02776" lon="2.87644">
        <ele>595.19</ele>
        <time>2016-04-24T10:14:31Z</time>
      </trkpt>
      <trkpt lat="44.02789" lon="2.87635">
        <ele>593.75</ele>
        <time>2016-04-24T10:14:32Z</time>
      </trkpt>
      <trkpt lat="44.02801" lon="2.87624">
        <ele>592.79</ele>
        <time>2016-04-24T10:14:33Z</time>
      </trkpt>
      <trkpt lat="44.02847" lon="2.87576">
        <ele>588.46</ele>
        <time>2016-04-24T10:14:37Z</time>
      </trkpt>
      <trkpt lat="44.02862" lon="2.8757">
        <ele>587.02</ele>
        <time>2016-04-24T10:14:38Z</time>
      </trkpt>
      <trkpt lat="44.02878" lon="2.87568">
        <ele>586.06</ele>
        <time>2016-04-24T10:14:39Z</time>
      </trkpt>
      <trkpt lat="44.02923" lon="2.87566">
        <ele>582.22</ele>
        <time>2016-04-24T10:14:42Z</time>
      </trkpt>
      <trkpt lat="44.02936" lon="2.87562">
        <ele>581.25</ele>
        <time>2016-04-24T10:14:43Z</time>
      </trkpt>
      <trkpt lat="44.02966" lon="2.87552">
        <ele>578.85</ele>
        <time>2016-04-24T10:14:47Z</time>
      </trkpt>
      <trkpt lat="44.0297" lon="2.87557">
        <ele>578.37</ele>
        <time>2016-04-24T10:14:48Z</time>
      </trkpt>
      <trkpt lat="44.0297" lon="2.87563">
        <ele>577.41</ele>
        <time>2016-04-24T10:14:49Z</time>
      </trkpt>
      <trkpt lat="44.02968" lon="2.8757">
        <ele>576.45</ele>
        <time>2016-04-24T10:14:50Z</time>
      </trkpt>
      <trkpt lat="44.02961" lon="2.87576">
        <ele>576.45</ele>
        <time>2016-04-24T10:14:51Z</time>
      </trkpt>
      <trkpt lat="44.02952" lon="2.87581">
        <ele>575.97</ele>
        <time>2016-04-24T10:14:52Z</time>
      </trkpt>
      <trkpt lat="44.02942" lon="2.87588">
        <ele>575.01</ele>
        <time>2016-04-24T10:14:53Z</time>
      </trkpt>
      <trkpt lat="44.02895" lon="2.87631">
        <ele>570.68</ele>
        <time>2016-04-24T10:14:58Z</time>
      </trkpt>
      <trkpt lat="44.02888" lon="2.87641">
        <ele>570.2</ele>
        <time>2016-04-24T10:14:59Z</time>
      </trkpt>
      <trkpt lat="44.02885" lon="2.87653">
        <ele>568.76</ele>
        <time>2016-04-24T10:15:00Z</time>
      </trkpt>
      <trkpt lat="44.02884" lon="2.87664">
        <ele>567.8</ele>
        <time>2016-04-24T10:15:01Z</time>
      </trkpt>
      <trkpt lat="44.02888" lon="2.87675">
        <ele>567.8</ele>
        <time>2016-04-24T10:15:02Z</time>
      </trkpt>
      <trkpt lat="44.02897" lon="2.87685">
        <ele>567.32</ele>
        <time>2016-04-24T10:15:03Z</time>
      </trkpt>
      <trkpt lat="44.02906" lon="2.87688">
        <ele>565.87</ele>
        <time>2016-04-24T10:15:04Z</time>
      </trkpt>
      <trkpt lat="44.02916" lon="2.87688">
        <ele>564.91</ele>
        <time>2016-04-24T10:15:05Z</time>
      </trkpt>
      <trkpt lat="44.02929" lon="2.87683">
        <ele>564.43</ele>
        <time>2016-04-24T10:15:06Z</time>
      </trkpt>
      <trkpt lat="44.02943" lon="2.87679">
        <ele>563.95</ele>
        <time>2016-04-24T10:15:07Z</time>
      </trkpt>
      <trkpt lat="44.03072" lon="2.87635">
        <ele>554.34</ele>
        <time>2016-04-24T10:15:16Z</time>
      </trkpt>
      <trkpt lat="44.03087" lon="2.87632">
        <ele>552.9</ele>
        <time>2016-04-24T10:15:17Z</time>
      </trkpt>
      <trkpt lat="44.03101" lon="2.87631">
        <ele>551.93</ele>
        <time>2016-04-24T10:15:18Z</time>
      </trkpt>
      <trkpt lat="44.03116" lon="2.87632">
        <ele>550.97</ele>
        <time>2016-04-24T10:15:19Z</time>
      </trkpt>
      <trkpt lat="44.03161" lon="2.87634">
        <ele>547.61</ele>
        <time>2016-04-24T10:15:22Z</time>
      </trkpt>
      <trkpt lat="44.03176" lon="2.87631">
        <ele>546.65</ele>
        <time>2016-04-24T10:15:23Z</time>
      </trkpt>
      <trkpt lat="44.0319" lon="2.87623">
        <ele>545.2</ele>
        <time>2016-04-24T10:15:24Z</time>
      </trkpt>
      <trkpt lat="44.03204" lon="2.87613">
        <ele>543.76</ele>
        <time>2016-04-24T10:15:25Z</time>
      </trkpt>
      <trkpt lat="44.03218" lon="2.87603">
        <ele>542.8</ele>
        <time>2016-04-24T10:15:26Z</time>
      </trkpt>
      <trkpt lat="44.0326" lon="2.87577">
        <ele>538.96</ele>
        <time>2016-04-24T10:15:29Z</time>
      </trkpt>
      <trkpt lat="44.03276" lon="2.87572">
        <ele>537.99</ele>
        <time>2016-04-24T10:15:30Z</time>
      </trkpt>
      <trkpt lat="44.03292" lon="2.87569">
        <ele>536.55</ele>
        <time>2016-04-24T10:15:31Z</time>
      </trkpt>
      <trkpt lat="44.03308" lon="2.87568">
        <ele>535.59</ele>
        <time>2016-04-24T10:15:32Z</time>
      </trkpt>
      <trkpt lat="44.03324" lon="2.87569">
        <ele>534.15</ele>
        <time>2016-04-24T10:15:33Z</time>
      </trkpt>
      <trkpt lat="44.0334" lon="2.87572">
        <ele>532.71</ele>
        <time>2016-04-24T10:15:34Z</time>
      </trkpt>
      <trkpt lat="44.03357" lon="2.87577">
        <ele>530.79</ele>
        <time>2016-04-24T10:15:35Z</time>
      </trkpt>
      <trkpt lat="44.03374" lon="2.87582">
        <ele>529.34</ele>
        <time>2016-04-24T10:15:36Z</time>
      </trkpt>
      <trkpt lat="44.03498" lon="2.876">
        <ele>519.73</ele>
        <time>2016-04-24T10:15:43Z</time>
      </trkpt>
      <trkpt lat="44.03512" lon="2.87608">
        <ele>518.29</ele>
        <time>2016-04-24T10:15:44Z</time>
      </trkpt>
      <trkpt lat="44.03525" lon="2.87618">
        <ele>517.33</ele>
        <time>2016-04-24T10:15:45Z</time>
      </trkpt>
      <trkpt lat="44.03566" lon="2.87658">
        <ele>513.96</ele>
        <time>2016-04-24T10:15:48Z</time>
      </trkpt>
      <trkpt lat="44.03578" lon="2.87674">
        <ele>512.52</ele>
        <time>2016-04-24T10:15:49Z</time>
      </trkpt>
      <trkpt lat="44.03587" lon="2.87692">
        <ele>510.6</ele>
        <time>2016-04-24T10:15:50Z</time>
      </trkpt>
      <trkpt lat="44.03605" lon="2.87726">
        <ele>508.67</ele>
        <time>2016-04-24T10:15:52Z</time>
      </trkpt>
      <trkpt lat="44.03616" lon="2.87741">
        <ele>507.23</ele>
        <time>2016-04-24T10:15:53Z</time>
      </trkpt>
      <trkpt lat="44.0363" lon="2.87754">
        <ele>506.75</ele>
        <time>2016-04-24T10:15:54Z</time>
      </trkpt>
      <trkpt lat="44.03648" lon="2.87766">
        <ele>505.79</ele>
        <time>2016-04-24T10:15:55Z</time>
      </trkpt>
      <trkpt lat="44.03667" lon="2.87776">
        <ele>504.35</ele>
        <time>2016-04-24T10:15:56Z</time>
      </trkpt>
      <trkpt lat="44.03827" lon="2.87857">
        <ele>488.01</ele>
        <time>2016-04-24T10:16:05Z</time>
      </trkpt>
      <trkpt lat="44.03935" lon="2.87898">
        <ele>477.43</ele>
        <time>2016-04-24T10:16:11Z</time>
      </trkpt>
      <trkpt lat="44.03953" lon="2.8791">
        <ele>475.51</ele>
        <time>2016-04-24T10:16:12Z</time>
      </trkpt>
      <trkpt lat="44.04038" lon="2.87979">
        <ele>465.9</ele>
        <time>2016-04-24T10:16:17Z</time>
      </trkpt>
      <trkpt lat="44.04053" lon="2.87996">
        <ele>463.97</ele>
        <time>2016-04-24T10:16:18Z</time>
      </trkpt>
      <trkpt lat="44.04067" lon="2.88012">
        <ele>461.57</ele>
        <time>2016-04-24T10:16:19Z</time>
      </trkpt>
      <trkpt lat="44.04083" lon="2.88027">
        <ele>459.65</ele>
        <time>2016-04-24T10:16:20Z</time>
      </trkpt>
      <trkpt lat="44.04101" lon="2.88039">
        <ele>457.72</ele>
        <time>2016-04-24T10:16:21Z</time>
      </trkpt>
      <trkpt lat="44.0412" lon="2.88049">
        <ele>455.32</ele>
        <time>2016-04-24T10:16:22Z</time>
      </trkpt>
      <trkpt lat="44.0414" lon="2.88059">
        <ele>453.4</ele>
        <time>2016-04-24T10:16:23Z</time>
      </trkpt>
      <trkpt lat="44.04291" lon="2.88151">
        <ele>437.06</ele>
        <time>2016-04-24T10:16:31Z</time>
      </trkpt>
      <trkpt lat="44.04375" lon="2.8819">
        <ele>429.37</ele>
        <time>2016-04-24T10:16:36Z</time>
      </trkpt>
      <trkpt lat="44.04392" lon="2.88194">
        <ele>427.92</ele>
        <time>2016-04-24T10:16:37Z</time>
      </trkpt>
      <trkpt lat="44.04426" lon="2.88203">
        <ele>425.52</ele>
        <time>2016-04-24T10:16:39Z</time>
      </trkpt>
      <trkpt lat="44.04441" lon="2.8821">
        <ele>424.56</ele>
        <time>2016-04-24T10:16:40Z</time>
      </trkpt>
      <trkpt lat="44.04469" lon="2.88223">
        <ele>422.16</ele>
        <time>2016-04-24T10:16:42Z</time>
      </trkpt>
      <trkpt lat="44.04484" lon="2.88226">
        <ele>421.19</ele>
        <time>2016-04-24T10:16:43Z</time>
      </trkpt>
      <trkpt lat="44.04497" lon="2.88227">
        <ele>420.23</ele>
        <time>2016-04-24T10:16:44Z</time>
      </trkpt>
      <trkpt lat="44.04509" lon="2.88227">
        <ele>418.79</ele>
        <time>2016-04-24T10:16:45Z</time>
      </trkpt>
      <trkpt lat="44.04519" lon="2.88225">
        <ele>417.83</ele>
        <time>2016-04-24T10:16:46Z</time>
      </trkpt>
      <trkpt lat="44.04527" lon="2.88224">
        <ele>416.87</ele>
        <time>2016-04-24T10:16:47Z</time>
      </trkpt>
      <trkpt lat="44.04534" lon="2.88225">
        <ele>416.39</ele>
        <time>2016-04-24T10:16:48Z</time>
      </trkpt>
      <trkpt lat="44.04539" lon="2.8823">
        <ele>415.43</ele>
        <time>2016-04-24T10:16:49Z</time>
      </trkpt>
      <trkpt lat="44.04541" lon="2.8824">
        <ele>414.47</ele>
        <time>2016-04-24T10:16:50Z</time>
      </trkpt>
      <trkpt lat="44.04542" lon="2.88252">
        <ele>413.5</ele>
        <time>2016-04-24T10:16:51Z</time>
      </trkpt>
      <trkpt lat="44.0454" lon="2.88267">
        <ele>412.54</ele>
        <time>2016-04-24T10:16:52Z</time>
      </trkpt>
      <trkpt lat="44.04538" lon="2.88284">
        <ele>411.58</ele>
        <time>2016-04-24T10:16:53Z</time>
      </trkpt>
      <trkpt lat="44.04535" lon="2.88302">
        <ele>410.14</ele>
        <time>2016-04-24T10:16:54Z</time>
      </trkpt>
      <trkpt lat="44.04531" lon="2.88321">
        <ele>408.7</ele>
        <time>2016-04-24T10:16:55Z</time>
      </trkpt>
      <trkpt lat="44.04527" lon="2.8834">
        <ele>407.74</ele>
        <time>2016-04-24T10:16:56Z</time>
      </trkpt>
      <trkpt lat="44.04522" lon="2.88358">
        <ele>406.77</ele>
        <time>2016-04-24T10:16:57Z</time>
      </trkpt>
      <trkpt lat="44.045" lon="2.88446">
        <ele>401.49</ele>
        <time>2016-04-24T10:17:02Z</time>
      </trkpt>
      <trkpt lat="44.045" lon="2.88466">
        <ele>400.05</ele>
        <time>2016-04-24T10:17:03Z</time>
      </trkpt>
      <trkpt lat="44.045" lon="2.88504">
        <ele>398.6</ele>
        <time>2016-04-24T10:17:05Z</time>
      </trkpt>
      <trkpt lat="44.04501" lon="2.88522">
        <ele>397.64</ele>
        <time>2016-04-24T10:17:06Z</time>
      </trkpt>
      <trkpt lat="44.04501" lon="2.88539">
        <ele>396.68</ele>
        <time>2016-04-24T10:17:07Z</time>
      </trkpt>
      <trkpt lat="44.04501" lon="2.88556">
        <ele>395.72</ele>
        <time>2016-04-24T10:17:08Z</time>
      </trkpt>
      <trkpt lat="44.045" lon="2.88573">
        <ele>394.76</ele>
        <time>2016-04-24T10:17:09Z</time>
      </trkpt>
      <trkpt lat="44.04499" lon="2.88591">
        <ele>393.8</ele>
        <time>2016-04-24T10:17:10Z</time>
      </trkpt>
      <trkpt lat="44.045" lon="2.88608">
        <ele>393.32</ele>
        <time>2016-04-24T10:17:11Z</time>
      </trkpt>
      <trkpt lat="44.04503" lon="2.88623">
        <ele>392.36</ele>
        <time>2016-04-24T10:17:12Z</time>
      </trkpt>
      <trkpt lat="44.04508" lon="2.88638">
        <ele>391.39</ele>
        <time>2016-04-24T10:17:13Z</time>
      </trkpt>
      <trkpt lat="44.04515" lon="2.8865">
        <ele>390.43</ele>
        <time>2016-04-24T10:17:14Z</time>
      </trkpt>
      <trkpt lat="44.04521" lon="2.88664">
        <ele>389.47</ele>
        <time>2016-04-24T10:17:15Z</time>
      </trkpt>
      <trkpt lat="44.04526" lon="2.88678">
        <ele>388.51</ele>
        <time>2016-04-24T10:17:16Z</time>
      </trkpt>
      <trkpt lat="44.04528" lon="2.88694">
        <ele>387.55</ele>
        <time>2016-04-24T10:17:17Z</time>
      </trkpt>
      <trkpt lat="44.04529" lon="2.88711">
        <ele>386.59</ele>
        <time>2016-04-24T10:17:18Z</time>
      </trkpt>
      <trkpt lat="44.04527" lon="2.88728">
        <ele>385.63</ele>
        <time>2016-04-24T10:17:19Z</time>
      </trkpt>
      <trkpt lat="44.04522" lon="2.88745">
        <ele>384.18</ele>
        <time>2016-04-24T10:17:20Z</time>
      </trkpt>
      <trkpt lat="44.04517" lon="2.88762">
        <ele>383.22</ele>
        <time>2016-04-24T10:17:21Z</time>
      </trkpt>
      <trkpt lat="44.04509" lon="2.88777">
        <ele>382.26</ele>
        <time>2016-04-24T10:17:22Z</time>
      </trkpt>
      <trkpt lat="44.045" lon="2.88788">
        <ele>381.3</ele>
        <time>2016-04-24T10:17:23Z</time>
      </trkpt>
      <trkpt lat="44.04489" lon="2.88798">
        <ele>379.86</ele>
        <time>2016-04-24T10:17:24Z</time>
      </trkpt>
      <trkpt lat="44.04479" lon="2.88808">
        <ele>378.9</ele>
        <time>2016-04-24T10:17:25Z</time>
      </trkpt>
      <trkpt lat="44.0447" lon="2.88819">
        <ele>377.94</ele>
        <time>2016-04-24T10:17:26Z</time>
      </trkpt>
      <trkpt lat="44.04464" lon="2.88833">
        <ele>376.97</ele>
        <time>2016-04-24T10:17:27Z</time>
      </trkpt>
      <trkpt lat="44.04459" lon="2.88848">
        <ele>376.49</ele>
        <time>2016-04-24T10:17:28Z</time>
      </trkpt>
      <trkpt lat="44.04455" lon="2.88863">
        <ele>375.05</ele>
        <time>2016-04-24T10:17:29Z</time>
      </trkpt>
      <trkpt lat="44.04449" lon="2.88879">
        <ele>374.09</ele>
        <time>2016-04-24T10:17:30Z</time>
      </trkpt>
      <trkpt lat="44.04442" lon="2.88893">
        <ele>373.13</ele>
        <time>2016-04-24T10:17:31Z</time>
      </trkpt>
      <trkpt lat="44.04434" lon="2.88907">
        <ele>372.17</ele>
        <time>2016-04-24T10:17:32Z</time>
      </trkpt>
      <trkpt lat="44.04427" lon="2.88923">
        <ele>370.73</ele>
        <time>2016-04-24T10:17:33Z</time>
      </trkpt>
      <trkpt lat="44.0442" lon="2.8894">
        <ele>369.76</ele>
        <time>2016-04-24T10:17:34Z</time>
      </trkpt>
      <trkpt lat="44.04403" lon="2.88972">
        <ele>368.32</ele>
        <time>2016-04-24T10:17:36Z</time>
      </trkpt>
      <trkpt lat="44.04393" lon="2.88985">
        <ele>367.36</ele>
        <time>2016-04-24T10:17:37Z</time>
      </trkpt>
      <trkpt lat="44.04383" lon="2.88995">
        <ele>366.88</ele>
        <time>2016-04-24T10:17:38Z</time>
      </trkpt>
      <trkpt lat="44.04341" lon="2.89042">
        <ele>362.55</ele>
        <time>2016-04-24T10:17:44Z</time>
      </trkpt>
      <trkpt lat="44.04357" lon="2.89037">
        <ele>358.23</ele>
        <time>2016-04-24T10:17:50Z</time>
      </trkpt>
      <trkpt lat="44.04363" lon="2.89028">
        <ele>357.27</ele>
        <time>2016-04-24T10:17:51Z</time>
      </trkpt>
      <trkpt lat="44.04372" lon="2.8902">
        <ele>356.79</ele>
        <time>2016-04-24T10:17:52Z</time>
      </trkpt>
      <trkpt lat="44.04381" lon="2.89014">
        <ele>357.27</ele>
        <time>2016-04-24T10:17:53Z</time>
      </trkpt>
      <trkpt lat="44.0439" lon="2.8901">
        <ele>356.79</ele>
        <time>2016-04-24T10:17:54Z</time>
      </trkpt>
      <trkpt lat="44.04399" lon="2.89006">
        <ele>356.31</ele>
        <time>2016-04-24T10:17:55Z</time>
      </trkpt>
      <trkpt lat="44.04408" lon="2.89">
        <ele>355.34</ele>
        <time>2016-04-24T10:17:56Z</time>
      </trkpt>
      <trkpt lat="44.04417" lon="2.88992">
        <ele>354.38</ele>
        <time>2016-04-24T10:17:57Z</time>
      </trkpt>
      <trkpt lat="44.04427" lon="2.88982">
        <ele>353.42</ele>
        <time>2016-04-24T10:17:58Z</time>
      </trkpt>
      <trkpt lat="44.045" lon="2.88907">
        <ele>346.69</ele>
        <time>2016-04-24T10:18:07Z</time>
      </trkpt>
      <trkpt lat="44.0452" lon="2.88896">
        <ele>345.25</ele>
        <time>2016-04-24T10:18:10Z</time>
      </trkpt>
      <trkpt lat="44.04526" lon="2.88896">
        <ele>344.29</ele>
        <time>2016-04-24T10:18:11Z</time>
      </trkpt>
      <trkpt lat="44.04532" lon="2.88898">
        <ele>344.29</ele>
        <time>2016-04-24T10:18:12Z</time>
      </trkpt>
      <trkpt lat="44.04537" lon="2.88903">
        <ele>344.29</ele>
        <time>2016-04-24T10:18:13Z</time>
      </trkpt>
      <trkpt lat="44.04541" lon="2.88909">
        <ele>344.29</ele>
        <time>2016-04-24T10:18:14Z</time>
      </trkpt>
      <trkpt lat="44.04544" lon="2.88916">
        <ele>344.29</ele>
        <time>2016-04-24T10:18:15Z</time>
      </trkpt>
      <trkpt lat="44.04549" lon="2.88923">
        <ele>344.29</ele>
        <time>2016-04-24T10:18:16Z</time>
      </trkpt>
      <trkpt lat="44.04556" lon="2.88929">
        <ele>344.29</ele>
        <time>2016-04-24T10:18:17Z</time>
      </trkpt>
      <trkpt lat="44.04564" lon="2.88931">
        <ele>344.29</ele>
        <time>2016-04-24T10:18:18Z</time>
      </trkpt>
      <trkpt lat="44.04574" lon="2.88931">
        <ele>344.77</ele>
        <time>2016-04-24T10:18:19Z</time>
      </trkpt>
      <trkpt lat="44.04584" lon="2.88931">
        <ele>345.73</ele>
        <time>2016-04-24T10:18:20Z</time>
      </trkpt>
      <trkpt lat="44.04611" lon="2.88932">
        <ele>347.17</ele>
        <time>2016-04-24T10:18:23Z</time>
      </trkpt>
      <trkpt lat="44.04619" lon="2.88937">
        <ele>347.65</ele>
        <time>2016-04-24T10:18:24Z</time>
      </trkpt>
      <trkpt lat="44.04627" lon="2.88946">
        <ele>348.62</ele>
        <time>2016-04-24T10:18:25Z</time>
      </trkpt>
      <trkpt lat="44.04634" lon="2.88957">
        <ele>349.58</ele>
        <time>2016-04-24T10:18:26Z</time>
      </trkpt>
      <trkpt lat="44.0464" lon="2.8897">
        <ele>350.06</ele>
        <time>2016-04-24T10:18:27Z</time>
      </trkpt>
      <trkpt lat="44.04645" lon="2.88985">
        <ele>351.02</ele>
        <time>2016-04-24T10:18:28Z</time>
      </trkpt>
      <trkpt lat="44.0465" lon="2.89">
        <ele>351.98</ele>
        <time>2016-04-24T10:18:29Z</time>
      </trkpt>
      <trkpt lat="44.04655" lon="2.89016">
        <ele>352.46</ele>
        <time>2016-04-24T10:18:30Z</time>
      </trkpt>
      <trkpt lat="44.04704" lon="2.89138">
        <ele>359.67</ele>
        <time>2016-04-24T10:18:40Z</time>
      </trkpt>
      <trkpt lat="44.04787" lon="2.89296">
        <ele>369.76</ele>
        <time>2016-04-24T10:18:54Z</time>
      </trkpt>
      <trkpt lat="44.04877" lon="2.89487">
        <ele>382.74</ele>
        <time>2016-04-24T10:19:09Z</time>
      </trkpt>
      <trkpt lat="44.04881" lon="2.89499">
        <ele>383.22</ele>
        <time>2016-04-24T10:19:10Z</time>
      </trkpt>
      <trkpt lat="44.04884" lon="2.89511">
        <ele>384.18</ele>
        <time>2016-04-24T10:19:11Z</time>
      </trkpt>
      <trkpt lat="44.04884" lon="2.89522">
        <ele>385.15</ele>
        <time>2016-04-24T10:19:12Z</time>
      </trkpt>
      <trkpt lat="44.04883" lon="2.89533">
        <ele>385.63</ele>
        <time>2016-04-24T10:19:13Z</time>
      </trkpt>
      <trkpt lat="44.0488" lon="2.89542">
        <ele>386.11</ele>
        <time>2016-04-24T10:19:14Z</time>
      </trkpt>
      <trkpt lat="44.04878" lon="2.8955">
        <ele>387.07</ele>
        <time>2016-04-24T10:19:15Z</time>
      </trkpt>
      <trkpt lat="44.04875" lon="2.89558">
        <ele>387.55</ele>
        <time>2016-04-24T10:19:16Z</time>
      </trkpt>
      <trkpt lat="44.04872" lon="2.89564">
        <ele>388.99</ele>
        <time>2016-04-24T10:19:17Z</time>
      </trkpt>
      <trkpt lat="44.0487" lon="2.89569">
        <ele>389.95</ele>
        <time>2016-04-24T10:19:18Z</time>
      </trkpt>
      <trkpt lat="44.04866" lon="2.89574">
        <ele>390.91</ele>
        <time>2016-04-24T10:19:19Z</time>
      </trkpt>
      <trkpt lat="44.04862" lon="2.89579">
        <ele>391.39</ele>
        <time>2016-04-24T10:19:20Z</time>
      </trkpt>
      <trkpt lat="44.04836" lon="2.89612">
        <ele>393.32</ele>
        <time>2016-04-24T10:19:26Z</time>
      </trkpt>
      <trkpt lat="44.04833" lon="2.8962">
        <ele>393.32</ele>
        <time>2016-04-24T10:19:27Z</time>
      </trkpt>
      <trkpt lat="44.04811" lon="2.89691">
        <ele>395.24</ele>
        <time>2016-04-24T10:19:35Z</time>
      </trkpt>
      <trkpt lat="44.04808" lon="2.89699">
        <ele>395.72</ele>
        <time>2016-04-24T10:19:36Z</time>
      </trkpt>
      <trkpt lat="44.04762" lon="2.89784">
        <ele>399.08</ele>
        <time>2016-04-24T10:19:45Z</time>
      </trkpt>
      <trkpt lat="44.04758" lon="2.89793">
        <ele>399.08</ele>
        <time>2016-04-24T10:19:46Z</time>
      </trkpt>
      <trkpt lat="44.04755" lon="2.89802">
        <ele>399.08</ele>
        <time>2016-04-24T10:19:47Z</time>
      </trkpt>
      <trkpt lat="44.04754" lon="2.89811">
        <ele>399.57</ele>
        <time>2016-04-24T10:19:48Z</time>
      </trkpt>
      <trkpt lat="44.04755" lon="2.8982">
        <ele>400.05</ele>
        <time>2016-04-24T10:19:49Z</time>
      </trkpt>
      <trkpt lat="44.04759" lon="2.89826">
        <ele>400.53</ele>
        <time>2016-04-24T10:19:50Z</time>
      </trkpt>
      <trkpt lat="44.04765" lon="2.89831">
        <ele>401.49</ele>
        <time>2016-04-24T10:19:51Z</time>
      </trkpt>
      <trkpt lat="44.04771" lon="2.89834">
        <ele>401.01</ele>
        <time>2016-04-24T10:19:52Z</time>
      </trkpt>
      <trkpt lat="44.04783" lon="2.89839">
        <ele>401.01</ele>
        <time>2016-04-24T10:19:54Z</time>
      </trkpt>
      <trkpt lat="44.04789" lon="2.89839">
        <ele>401.49</ele>
        <time>2016-04-24T10:19:55Z</time>
      </trkpt>
      <trkpt lat="44.04793" lon="2.89838">
        <ele>402.45</ele>
        <time>2016-04-24T10:19:56Z</time>
      </trkpt>
      <trkpt lat="44.04799" lon="2.89837">
        <ele>402.93</ele>
        <time>2016-04-24T10:19:57Z</time>
      </trkpt>
      <trkpt lat="44.04803" lon="2.89835">
        <ele>402.93</ele>
        <time>2016-04-24T10:19:58Z</time>
      </trkpt>
      <trkpt lat="44.04816" lon="2.8983">
        <ele>403.41</ele>
        <time>2016-04-24T10:20:00Z</time>
      </trkpt>
      <trkpt lat="44.0482" lon="2.89825">
        <ele>402.93</ele>
        <time>2016-04-24T10:20:01Z</time>
      </trkpt>
      <trkpt lat="44.04827" lon="2.89817">
        <ele>401.49</ele>
        <time>2016-04-24T10:20:03Z</time>
      </trkpt>
      <trkpt lat="44.04836" lon="2.89806">
        <ele>401.97</ele>
        <time>2016-04-24T10:20:05Z</time>
      </trkpt>
      <trkpt lat="44.04848" lon="2.89792">
        <ele>402.93</ele>
        <time>2016-04-24T10:20:07Z</time>
      </trkpt>
      <trkpt lat="44.0487" lon="2.89753">
        <ele>404.85</ele>
        <time>2016-04-24T10:20:13Z</time>
      </trkpt>
      <trkpt lat="44.04873" lon="2.89749">
        <ele>404.85</ele>
        <time>2016-04-24T10:20:14Z</time>
      </trkpt>
      <trkpt lat="44.04877" lon="2.89747">
        <ele>405.33</ele>
        <time>2016-04-24T10:20:15Z</time>
      </trkpt>
      <trkpt lat="44.04879" lon="2.89745">
        <ele>404.85</ele>
        <time>2016-04-24T10:20:16Z</time>
      </trkpt>
      <trkpt lat="44.04881" lon="2.89743">
        <ele>405.81</ele>
        <time>2016-04-24T10:20:17Z</time>
      </trkpt>
      <trkpt lat="44.04883" lon="2.89743">
        <ele>404.85</ele>
        <time>2016-04-24T10:20:19Z</time>
      </trkpt>
      <trkpt lat="44.04881" lon="2.89744">
        <ele>403.41</ele>
        <time>2016-04-24T10:20:42Z</time>
      </trkpt>
      <trkpt lat="44.04883" lon="2.89747">
        <ele>404.85</ele>
        <time>2016-04-24T10:21:09Z</time>
      </trkpt>
      <trkpt lat="44.04901" lon="2.89765">
        <ele>403.89</ele>
        <time>2016-04-24T10:21:18Z</time>
      </trkpt>
      <trkpt lat="44.04945" lon="2.89806">
        <ele>402.93</ele>
        <time>2016-04-24T10:21:24Z</time>
      </trkpt>
      <trkpt lat="44.04954" lon="2.89811">
        <ele>403.41</ele>
        <time>2016-04-24T10:21:25Z</time>
      </trkpt>
      <trkpt lat="44.05052" lon="2.89868">
        <ele>396.2</ele>
        <time>2016-04-24T10:21:33Z</time>
      </trkpt>
      <trkpt lat="44.05164" lon="2.89942">
        <ele>386.11</ele>
        <time>2016-04-24T10:21:42Z</time>
      </trkpt>
      <trkpt lat="44.05301" lon="2.89988">
        <ele>376.01</ele>
        <time>2016-04-24T10:21:52Z</time>
      </trkpt>
      <trkpt lat="44.05392" lon="2.90029">
        <ele>369.76</ele>
        <time>2016-04-24T10:21:58Z</time>
      </trkpt>
      <trkpt lat="44.05407" lon="2.90032">
        <ele>368.32</ele>
        <time>2016-04-24T10:21:59Z</time>
      </trkpt>
      <trkpt lat="44.05422" lon="2.90033">
        <ele>367.36</ele>
        <time>2016-04-24T10:22:00Z</time>
      </trkpt>
      <trkpt lat="44.05469" lon="2.90038">
        <ele>363.52</ele>
        <time>2016-04-24T10:22:03Z</time>
      </trkpt>
      <trkpt lat="44.05485" lon="2.90044">
        <ele>361.59</ele>
        <time>2016-04-24T10:22:04Z</time>
      </trkpt>
      <trkpt lat="44.05667" lon="2.9013">
        <ele>344.77</ele>
        <time>2016-04-24T10:22:15Z</time>
      </trkpt>
      <trkpt lat="44.05681" lon="2.90141">
        <ele>343.33</ele>
        <time>2016-04-24T10:22:16Z</time>
      </trkpt>
      <trkpt lat="44.05693" lon="2.90154">
        <ele>341.89</ele>
        <time>2016-04-24T10:22:17Z</time>
      </trkpt>
      <trkpt lat="44.05703" lon="2.9017">
        <ele>340.92</ele>
        <time>2016-04-24T10:22:18Z</time>
      </trkpt>
      <trkpt lat="44.05711" lon="2.90186">
        <ele>339.96</ele>
        <time>2016-04-24T10:22:19Z</time>
      </trkpt>
      <trkpt lat="44.05718" lon="2.90203">
        <ele>339.48</ele>
        <time>2016-04-24T10:22:20Z</time>
      </trkpt>
      <trkpt lat="44.05725" lon="2.9022">
        <ele>338.52</ele>
        <time>2016-04-24T10:22:21Z</time>
      </trkpt>
      <trkpt lat="44.05732" lon="2.90234">
        <ele>337.56</ele>
        <time>2016-04-24T10:22:22Z</time>
      </trkpt>
      <trkpt lat="44.05739" lon="2.90245">
        <ele>336.6</ele>
        <time>2016-04-24T10:22:23Z</time>
      </trkpt>
      <trkpt lat="44.05748" lon="2.9025">
        <ele>335.64</ele>
        <time>2016-04-24T10:22:24Z</time>
      </trkpt>
      <trkpt lat="44.05758" lon="2.90249">
        <ele>334.68</ele>
        <time>2016-04-24T10:22:25Z</time>
      </trkpt>
      <trkpt lat="44.05768" lon="2.90248">
        <ele>334.2</ele>
        <time>2016-04-24T10:22:26Z</time>
      </trkpt>
      <trkpt lat="44.05778" lon="2.90245">
        <ele>334.68</ele>
        <time>2016-04-24T10:22:27Z</time>
      </trkpt>
      <trkpt lat="44.05788" lon="2.90241">
        <ele>335.16</ele>
        <time>2016-04-24T10:22:28Z</time>
      </trkpt>
      <trkpt lat="44.05867" lon="2.90213">
        <ele>337.56</ele>
        <time>2016-04-24T10:22:37Z</time>
      </trkpt>
      <trkpt lat="44.05875" lon="2.90212">
        <ele>337.56</ele>
        <time>2016-04-24T10:22:38Z</time>
      </trkpt>
      <trkpt lat="44.05882" lon="2.90214">
        <ele>337.56</ele>
        <time>2016-04-24T10:22:39Z</time>
      </trkpt>
      <trkpt lat="44.05887" lon="2.90215">
        <ele>337.56</ele>
        <time>2016-04-24T10:22:40Z</time>
      </trkpt>
      <trkpt lat="44.05892" lon="2.90212">
        <ele>337.56</ele>
        <time>2016-04-24T10:22:41Z</time>
      </trkpt>
      <trkpt lat="44.05896" lon="2.90204">
        <ele>337.56</ele>
        <time>2016-04-24T10:22:42Z</time>
      </trkpt>
      <trkpt lat="44.05899" lon="2.90195">
        <ele>337.56</ele>
        <time>2016-04-24T10:22:43Z</time>
      </trkpt>
      <trkpt lat="44.05901" lon="2.90183">
        <ele>337.56</ele>
        <time>2016-04-24T10:22:44Z</time>
      </trkpt>
      <trkpt lat="44.05899" lon="2.90171">
        <ele>337.56</ele>
        <time>2016-04-24T10:22:45Z</time>
      </trkpt>
      <trkpt lat="44.05896" lon="2.90158">
        <ele>337.08</ele>
        <time>2016-04-24T10:22:46Z</time>
      </trkpt>
      <trkpt lat="44.0589" lon="2.90145">
        <ele>337.08</ele>
        <time>2016-04-24T10:22:47Z</time>
      </trkpt>
      <trkpt lat="44.05884" lon="2.9013">
        <ele>337.08</ele>
        <time>2016-04-24T10:22:48Z</time>
      </trkpt>
      <trkpt lat="44.0583" lon="2.89988">
        <ele>337.56</ele>
        <time>2016-04-24T10:22:55Z</time>
      </trkpt>
      <trkpt lat="44.05744" lon="2.89872">
        <ele>337.56</ele>
        <time>2016-04-24T10:23:01Z</time>
      </trkpt>
      <trkpt lat="44.05626" lon="2.89792">
        <ele>336.6</ele>
        <time>2016-04-24T10:23:08Z</time>
      </trkpt>
      <trkpt lat="44.05405" lon="2.89691">
        <ele>335.16</ele>
        <time>2016-04-24T10:23:20Z</time>
      </trkpt>
      <trkpt lat="44.05285" lon="2.89565">
        <ele>334.68</ele>
        <time>2016-04-24T10:23:28Z</time>
      </trkpt>
      <trkpt lat="44.05231" lon="2.89472">
        <ele>333.23</ele>
        <time>2016-04-24T10:23:33Z</time>
      </trkpt>
      <trkpt lat="44.05224" lon="2.89451">
        <ele>333.23</ele>
        <time>2016-04-24T10:23:34Z</time>
      </trkpt>
      <trkpt lat="44.05165" lon="2.89269">
        <ele>334.68</ele>
        <time>2016-04-24T10:23:44Z</time>
      </trkpt>
      <trkpt lat="44.05104" lon="2.89141">
        <ele>335.16</ele>
        <time>2016-04-24T10:23:53Z</time>
      </trkpt>
      <trkpt lat="44.0499" lon="2.88975">
        <ele>333.71</ele>
        <time>2016-04-24T10:24:04Z</time>
      </trkpt>
      <trkpt lat="44.04921" lon="2.88857">
        <ele>331.31</ele>
        <time>2016-04-24T10:24:12Z</time>
      </trkpt>
      <trkpt lat="44.04891" lon="2.88775">
        <ele>328.91</ele>
        <time>2016-04-24T10:24:16Z</time>
      </trkpt>
      <trkpt lat="44.04887" lon="2.88752">
        <ele>328.43</ele>
        <time>2016-04-24T10:24:17Z</time>
      </trkpt>
      <trkpt lat="44.04885" lon="2.88729">
        <ele>328.43</ele>
        <time>2016-04-24T10:24:18Z</time>
      </trkpt>
      <trkpt lat="44.04886" lon="2.88707">
        <ele>327.95</ele>
        <time>2016-04-24T10:24:19Z</time>
      </trkpt>
      <trkpt lat="44.04888" lon="2.88686">
        <ele>328.91</ele>
        <time>2016-04-24T10:24:20Z</time>
      </trkpt>
      <trkpt lat="44.0489" lon="2.88525">
        <ele>330.83</ele>
        <time>2016-04-24T10:24:28Z</time>
      </trkpt>
      <trkpt lat="44.04893" lon="2.88504">
        <ele>330.35</ele>
        <time>2016-04-24T10:24:29Z</time>
      </trkpt>
      <trkpt lat="44.04898" lon="2.88483">
        <ele>330.35</ele>
        <time>2016-04-24T10:24:30Z</time>
      </trkpt>
      <trkpt lat="44.04905" lon="2.88463">
        <ele>329.87</ele>
        <time>2016-04-24T10:24:31Z</time>
      </trkpt>
      <trkpt lat="44.04912" lon="2.88443">
        <ele>329.87</ele>
        <time>2016-04-24T10:24:32Z</time>
      </trkpt>
      <trkpt lat="44.0492" lon="2.88425">
        <ele>329.39</ele>
        <time>2016-04-24T10:24:33Z</time>
      </trkpt>
      <trkpt lat="44.04929" lon="2.88408">
        <ele>329.39</ele>
        <time>2016-04-24T10:24:34Z</time>
      </trkpt>
      <trkpt lat="44.04939" lon="2.88392">
        <ele>328.91</ele>
        <time>2016-04-24T10:24:35Z</time>
      </trkpt>
      <trkpt lat="44.04951" lon="2.88376">
        <ele>328.91</ele>
        <time>2016-04-24T10:24:36Z</time>
      </trkpt>
      <trkpt lat="44.04963" lon="2.88362">
        <ele>328.91</ele>
        <time>2016-04-24T10:24:37Z</time>
      </trkpt>
      <trkpt lat="44.04976" lon="2.88347">
        <ele>329.39</ele>
        <time>2016-04-24T10:24:38Z</time>
      </trkpt>
      <trkpt lat="44.05101" lon="2.88249">
        <ele>329.39</ele>
        <time>2016-04-24T10:24:46Z</time>
      </trkpt>
      <trkpt lat="44.05236" lon="2.88198">
        <ele>329.87</ele>
        <time>2016-04-24T10:24:54Z</time>
      </trkpt>
      <trkpt lat="44.05361" lon="2.88104">
        <ele>328.91</ele>
        <time>2016-04-24T10:25:01Z</time>
      </trkpt>
      <trkpt lat="44.05454" lon="2.8798">
        <ele>327.47</ele>
        <time>2016-04-24T10:25:08Z</time>
      </trkpt>
      <trkpt lat="44.055" lon="2.8785">
        <ele>326.5</ele>
        <time>2016-04-24T10:25:15Z</time>
      </trkpt>
      <trkpt lat="44.05538" lon="2.87635">
        <ele>326.99</ele>
        <time>2016-04-24T10:25:24Z</time>
      </trkpt>
      <trkpt lat="44.05595" lon="2.87441">
        <ele>330.35</ele>
        <time>2016-04-24T10:25:32Z</time>
      </trkpt>
      <trkpt lat="44.05675" lon="2.87257">
        <ele>335.64</ele>
        <time>2016-04-24T10:25:41Z</time>
      </trkpt>
      <trkpt lat="44.05735" lon="2.87152">
        <ele>339.48</ele>
        <time>2016-04-24T10:25:49Z</time>
      </trkpt>
      <trkpt lat="44.05756" lon="2.8712">
        <ele>341.41</ele>
        <time>2016-04-24T10:25:55Z</time>
      </trkpt>
      <trkpt lat="44.05764" lon="2.8711">
        <ele>342.37</ele>
        <time>2016-04-24T10:25:59Z</time>
      </trkpt>
      <trkpt lat="44.05767" lon="2.87104">
        <ele>342.85</ele>
        <time>2016-04-24T10:26:00Z</time>
      </trkpt>
      <trkpt lat="44.0577" lon="2.87098">
        <ele>342.85</ele>
        <time>2016-04-24T10:26:01Z</time>
      </trkpt>
      <trkpt lat="44.05774" lon="2.87092">
        <ele>342.85</ele>
        <time>2016-04-24T10:26:02Z</time>
      </trkpt>
      <trkpt lat="44.0578" lon="2.87088">
        <ele>342.85</ele>
        <time>2016-04-24T10:26:03Z</time>
      </trkpt>
      <trkpt lat="44.05788" lon="2.87085">
        <ele>342.85</ele>
        <time>2016-04-24T10:26:04Z</time>
      </trkpt>
      <trkpt lat="44.05796" lon="2.87083">
        <ele>342.37</ele>
        <time>2016-04-24T10:26:05Z</time>
      </trkpt>
      <trkpt lat="44.05806" lon="2.87082">
        <ele>341.89</ele>
        <time>2016-04-24T10:26:06Z</time>
      </trkpt>
      <trkpt lat="44.05853" lon="2.87072">
        <ele>337.08</ele>
        <time>2016-04-24T10:26:11Z</time>
      </trkpt>
      <trkpt lat="44.05863" lon="2.87073">
        <ele>336.12</ele>
        <time>2016-04-24T10:26:12Z</time>
      </trkpt>
      <trkpt lat="44.05873" lon="2.87076">
        <ele>334.68</ele>
        <time>2016-04-24T10:26:13Z</time>
      </trkpt>
      <trkpt lat="44.05893" lon="2.8708">
        <ele>332.27</ele>
        <time>2016-04-24T10:26:15Z</time>
      </trkpt>
      <trkpt lat="44.05903" lon="2.87077">
        <ele>331.79</ele>
        <time>2016-04-24T10:26:16Z</time>
      </trkpt>
      <trkpt lat="44.05909" lon="2.87069">
        <ele>330.35</ele>
        <time>2016-04-24T10:26:17Z</time>
      </trkpt>
      <trkpt lat="44.0591" lon="2.87056">
        <ele>328.91</ele>
        <time>2016-04-24T10:26:18Z</time>
      </trkpt>
      <trkpt lat="44.05912" lon="2.87043">
        <ele>328.91</ele>
        <time>2016-04-24T10:26:19Z</time>
      </trkpt>
      <trkpt lat="44.05913" lon="2.8703">
        <ele>328.91</ele>
        <time>2016-04-24T10:26:20Z</time>
      </trkpt>
      <trkpt lat="44.05912" lon="2.87018">
        <ele>329.39</ele>
        <time>2016-04-24T10:26:21Z</time>
      </trkpt>
      <trkpt lat="44.05911" lon="2.86995">
        <ele>328.91</ele>
        <time>2016-04-24T10:26:23Z</time>
      </trkpt>
      <trkpt lat="44.05908" lon="2.86986">
        <ele>328.43</ele>
        <time>2016-04-24T10:26:24Z</time>
      </trkpt>
      <trkpt lat="44.05901" lon="2.86982">
        <ele>327.47</ele>
        <time>2016-04-24T10:26:25Z</time>
      </trkpt>
      <trkpt lat="44.05893" lon="2.86982">
        <ele>327.47</ele>
        <time>2016-04-24T10:26:26Z</time>
      </trkpt>
      <trkpt lat="44.05883" lon="2.86983">
        <ele>327.47</ele>
        <time>2016-04-24T10:26:27Z</time>
      </trkpt>
      <trkpt lat="44.05873" lon="2.86984">
        <ele>326.99</ele>
        <time>2016-04-24T10:26:28Z</time>
      </trkpt>
      <trkpt lat="44.05863" lon="2.86984">
        <ele>326.99</ele>
        <time>2016-04-24T10:26:29Z</time>
      </trkpt>
      <trkpt lat="44.05853" lon="2.86982">
        <ele>326.99</ele>
        <time>2016-04-24T10:26:30Z</time>
      </trkpt>
      <trkpt lat="44.05845" lon="2.86977">
        <ele>326.99</ele>
        <time>2016-04-24T10:26:31Z</time>
      </trkpt>
      <trkpt lat="44.05837" lon="2.86972">
        <ele>326.99</ele>
        <time>2016-04-24T10:26:32Z</time>
      </trkpt>
      <trkpt lat="44.0583" lon="2.86967">
        <ele>326.99</ele>
        <time>2016-04-24T10:26:33Z</time>
      </trkpt>
      <trkpt lat="44.05801" lon="2.86958">
        <ele>326.5</ele>
        <time>2016-04-24T10:26:41Z</time>
      </trkpt>
      <trkpt lat="44.05783" lon="2.86988">
        <ele>325.54</ele>
        <time>2016-04-24T10:26:55Z</time>
      </trkpt>
      <trkpt lat="44.05785" lon="2.86998">
        <ele>326.02</ele>
        <time>2016-04-24T10:27:02Z</time>
      </trkpt>
      <trkpt lat="44.05794" lon="2.86997">
        <ele>326.02</ele>
        <time>2016-04-24T10:27:09Z</time>
      </trkpt>
      <trkpt lat="44.05797" lon="2.86994">
        <ele>326.02</ele>
        <time>2016-04-24T10:27:25Z</time>
      </trkpt>
      <trkpt lat="44.05797" lon="2.86993">
        <ele>326.99</ele>
        <time>2016-04-24T10:28:07Z</time>
      </trkpt>
      <trkpt lat="44.05796" lon="2.86994">
        <ele>315.45</ele>
        <time>2016-04-24T10:58:54Z</time>
      </trkpt>
      <trkpt lat="44.05797" lon="2.86993">
        <ele>319.78</ele>
        <time>2016-04-24T11:01:36Z</time>
      </trkpt>
      <trkpt lat="44.05799" lon="2.86964">
        <ele>320.74</ele>
        <time>2016-04-24T11:01:45Z</time>
      </trkpt>
      <trkpt lat="44.05794" lon="2.86946">
        <ele>321.7</ele>
        <time>2016-04-24T11:01:49Z</time>
      </trkpt>
      <trkpt lat="44.05782" lon="2.86925">
        <ele>323.14</ele>
        <time>2016-04-24T11:01:53Z</time>
      </trkpt>
      <trkpt lat="44.05781" lon="2.86919">
        <ele>324.1</ele>
        <time>2016-04-24T11:01:54Z</time>
      </trkpt>
      <trkpt lat="44.0578" lon="2.86911">
        <ele>324.58</ele>
        <time>2016-04-24T11:01:55Z</time>
      </trkpt>
      <trkpt lat="44.0578" lon="2.86902">
        <ele>324.58</ele>
        <time>2016-04-24T11:01:56Z</time>
      </trkpt>
      <trkpt lat="44.05781" lon="2.86893">
        <ele>324.58</ele>
        <time>2016-04-24T11:01:57Z</time>
      </trkpt>
      <trkpt lat="44.05783" lon="2.86876">
        <ele>324.58</ele>
        <time>2016-04-24T11:01:59Z</time>
      </trkpt>
      <trkpt lat="44.05785" lon="2.86866">
        <ele>324.58</ele>
        <time>2016-04-24T11:02:00Z</time>
      </trkpt>
      <trkpt lat="44.05788" lon="2.86856">
        <ele>324.58</ele>
        <time>2016-04-24T11:02:01Z</time>
      </trkpt>
      <trkpt lat="44.05791" lon="2.86846">
        <ele>324.58</ele>
        <time>2016-04-24T11:02:02Z</time>
      </trkpt>
      <trkpt lat="44.05796" lon="2.86836">
        <ele>324.58</ele>
        <time>2016-04-24T11:02:03Z</time>
      </trkpt>
      <trkpt lat="44.058" lon="2.86827">
        <ele>324.58</ele>
        <time>2016-04-24T11:02:04Z</time>
      </trkpt>
      <trkpt lat="44.05805" lon="2.86818">
        <ele>324.58</ele>
        <time>2016-04-24T11:02:05Z</time>
      </trkpt>
      <trkpt lat="44.05841" lon="2.86758">
        <ele>325.06</ele>
        <time>2016-04-24T11:02:13Z</time>
      </trkpt>
      <trkpt lat="44.05847" lon="2.86752">
        <ele>325.06</ele>
        <time>2016-04-24T11:02:14Z</time>
      </trkpt>
      <trkpt lat="44.05854" lon="2.86746">
        <ele>325.54</ele>
        <time>2016-04-24T11:02:15Z</time>
      </trkpt>
      <trkpt lat="44.05863" lon="2.86742">
        <ele>326.02</ele>
        <time>2016-04-24T11:02:16Z</time>
      </trkpt>
      <trkpt lat="44.05873" lon="2.86736">
        <ele>326.99</ele>
        <time>2016-04-24T11:02:17Z</time>
      </trkpt>
      <trkpt lat="44.05883" lon="2.86729">
        <ele>327.47</ele>
        <time>2016-04-24T11:02:18Z</time>
      </trkpt>
      <trkpt lat="44.05891" lon="2.8672">
        <ele>328.43</ele>
        <time>2016-04-24T11:02:19Z</time>
      </trkpt>
      <trkpt lat="44.05899" lon="2.86711">
        <ele>329.39</ele>
        <time>2016-04-24T11:02:20Z</time>
      </trkpt>
      <trkpt lat="44.05942" lon="2.86662">
        <ele>334.2</ele>
        <time>2016-04-24T11:02:26Z</time>
      </trkpt>
      <trkpt lat="44.0595" lon="2.86655">
        <ele>335.16</ele>
        <time>2016-04-24T11:02:27Z</time>
      </trkpt>
      <trkpt lat="44.05959" lon="2.86649">
        <ele>336.6</ele>
        <time>2016-04-24T11:02:28Z</time>
      </trkpt>
      <trkpt lat="44.06089" lon="2.86563">
        <ele>353.9</ele>
        <time>2016-04-24T11:02:42Z</time>
      </trkpt>
      <trkpt lat="44.06157" lon="2.86453">
        <ele>365.44</ele>
        <time>2016-04-24T11:02:52Z</time>
      </trkpt>
      <trkpt lat="44.06164" lon="2.86442">
        <ele>366.4</ele>
        <time>2016-04-24T11:02:53Z</time>
      </trkpt>
      <trkpt lat="44.06172" lon="2.86433">
        <ele>367.36</ele>
        <time>2016-04-24T11:02:54Z</time>
      </trkpt>
      <trkpt lat="44.06181" lon="2.86426">
        <ele>368.8</ele>
        <time>2016-04-24T11:02:55Z</time>
      </trkpt>
      <trkpt lat="44.06191" lon="2.86421">
        <ele>369.76</ele>
        <time>2016-04-24T11:02:56Z</time>
      </trkpt>
      <trkpt lat="44.06201" lon="2.86419">
        <ele>371.21</ele>
        <time>2016-04-24T11:02:57Z</time>
      </trkpt>
      <trkpt lat="44.06213" lon="2.86417">
        <ele>372.65</ele>
        <time>2016-04-24T11:02:58Z</time>
      </trkpt>
      <trkpt lat="44.06224" lon="2.86417">
        <ele>373.61</ele>
        <time>2016-04-24T11:02:59Z</time>
      </trkpt>
      <trkpt lat="44.06306" lon="2.86404">
        <ele>380.34</ele>
        <time>2016-04-24T11:03:06Z</time>
      </trkpt>
      <trkpt lat="44.06315" lon="2.86398">
        <ele>380.82</ele>
        <time>2016-04-24T11:03:07Z</time>
      </trkpt>
      <trkpt lat="44.06323" lon="2.86389">
        <ele>381.3</ele>
        <time>2016-04-24T11:03:08Z</time>
      </trkpt>
      <trkpt lat="44.06331" lon="2.86379">
        <ele>381.3</ele>
        <time>2016-04-24T11:03:09Z</time>
      </trkpt>
      <trkpt lat="44.06337" lon="2.86368">
        <ele>381.3</ele>
        <time>2016-04-24T11:03:10Z</time>
      </trkpt>
      <trkpt lat="44.06344" lon="2.86356">
        <ele>381.3</ele>
        <time>2016-04-24T11:03:11Z</time>
      </trkpt>
      <trkpt lat="44.06375" lon="2.86311">
        <ele>382.74</ele>
        <time>2016-04-24T11:03:15Z</time>
      </trkpt>
      <trkpt lat="44.06384" lon="2.86303">
        <ele>383.22</ele>
        <time>2016-04-24T11:03:16Z</time>
      </trkpt>
      <trkpt lat="44.06394" lon="2.86296">
        <ele>383.7</ele>
        <time>2016-04-24T11:03:17Z</time>
      </trkpt>
      <trkpt lat="44.06404" lon="2.86291">
        <ele>384.18</ele>
        <time>2016-04-24T11:03:18Z</time>
      </trkpt>
      <trkpt lat="44.06415" lon="2.86288">
        <ele>384.66</ele>
        <time>2016-04-24T11:03:19Z</time>
      </trkpt>
      <trkpt lat="44.06426" lon="2.86287">
        <ele>385.15</ele>
        <time>2016-04-24T11:03:20Z</time>
      </trkpt>
      <trkpt lat="44.06438" lon="2.86288">
        <ele>385.15</ele>
        <time>2016-04-24T11:03:21Z</time>
      </trkpt>
      <trkpt lat="44.0645" lon="2.86289">
        <ele>385.63</ele>
        <time>2016-04-24T11:03:22Z</time>
      </trkpt>
      <trkpt lat="44.06527" lon="2.86298">
        <ele>388.51</ele>
        <time>2016-04-24T11:03:29Z</time>
      </trkpt>
      <trkpt lat="44.06537" lon="2.86295">
        <ele>388.51</ele>
        <time>2016-04-24T11:03:30Z</time>
      </trkpt>
      <trkpt lat="44.06545" lon="2.86288">
        <ele>388.51</ele>
        <time>2016-04-24T11:03:31Z</time>
      </trkpt>
      <trkpt lat="44.0655" lon="2.86276">
        <ele>388.99</ele>
        <time>2016-04-24T11:03:32Z</time>
      </trkpt>
      <trkpt lat="44.06554" lon="2.86265">
        <ele>388.99</ele>
        <time>2016-04-24T11:03:33Z</time>
      </trkpt>
      <trkpt lat="44.06555" lon="2.86252">
        <ele>389.47</ele>
        <time>2016-04-24T11:03:34Z</time>
      </trkpt>
      <trkpt lat="44.06554" lon="2.86238">
        <ele>389.95</ele>
        <time>2016-04-24T11:03:35Z</time>
      </trkpt>
      <trkpt lat="44.0655" lon="2.86226">
        <ele>389.95</ele>
        <time>2016-04-24T11:03:36Z</time>
      </trkpt>
      <trkpt lat="44.06545" lon="2.86215">
        <ele>390.43</ele>
        <time>2016-04-24T11:03:37Z</time>
      </trkpt>
      <trkpt lat="44.06539" lon="2.86205">
        <ele>390.43</ele>
        <time>2016-04-24T11:03:38Z</time>
      </trkpt>
      <trkpt lat="44.06531" lon="2.86195">
        <ele>390.91</ele>
        <time>2016-04-24T11:03:39Z</time>
      </trkpt>
      <trkpt lat="44.06523" lon="2.86185">
        <ele>391.39</ele>
        <time>2016-04-24T11:03:40Z</time>
      </trkpt>
      <trkpt lat="44.06515" lon="2.86174">
        <ele>391.87</ele>
        <time>2016-04-24T11:03:41Z</time>
      </trkpt>
      <trkpt lat="44.0651" lon="2.8616">
        <ele>392.36</ele>
        <time>2016-04-24T11:03:42Z</time>
      </trkpt>
      <trkpt lat="44.06508" lon="2.86147">
        <ele>393.32</ele>
        <time>2016-04-24T11:03:43Z</time>
      </trkpt>
      <trkpt lat="44.06508" lon="2.86133">
        <ele>394.28</ele>
        <time>2016-04-24T11:03:44Z</time>
      </trkpt>
      <trkpt lat="44.06513" lon="2.8612">
        <ele>395.24</ele>
        <time>2016-04-24T11:03:45Z</time>
      </trkpt>
      <trkpt lat="44.0652" lon="2.86109">
        <ele>395.72</ele>
        <time>2016-04-24T11:03:46Z</time>
      </trkpt>
      <trkpt lat="44.06531" lon="2.86101">
        <ele>396.2</ele>
        <time>2016-04-24T11:03:47Z</time>
      </trkpt>
      <trkpt lat="44.06544" lon="2.86095">
        <ele>397.16</ele>
        <time>2016-04-24T11:03:48Z</time>
      </trkpt>
      <trkpt lat="44.06559" lon="2.86088">
        <ele>397.64</ele>
        <time>2016-04-24T11:03:49Z</time>
      </trkpt>
      <trkpt lat="44.06622" lon="2.86048">
        <ele>399.57</ele>
        <time>2016-04-24T11:03:54Z</time>
      </trkpt>
      <trkpt lat="44.06631" lon="2.86035">
        <ele>399.57</ele>
        <time>2016-04-24T11:03:55Z</time>
      </trkpt>
      <trkpt lat="44.06638" lon="2.86021">
        <ele>399.57</ele>
        <time>2016-04-24T11:03:56Z</time>
      </trkpt>
      <trkpt lat="44.06643" lon="2.86006">
        <ele>400.05</ele>
        <time>2016-04-24T11:03:57Z</time>
      </trkpt>
      <trkpt lat="44.06644" lon="2.8599">
        <ele>400.53</ele>
        <time>2016-04-24T11:03:58Z</time>
      </trkpt>
      <trkpt lat="44.06643" lon="2.85974">
        <ele>401.49</ele>
        <time>2016-04-24T11:03:59Z</time>
      </trkpt>
      <trkpt lat="44.0664" lon="2.85959">
        <ele>401.97</ele>
        <time>2016-04-24T11:04:00Z</time>
      </trkpt>
      <trkpt lat="44.06638" lon="2.85943">
        <ele>402.93</ele>
        <time>2016-04-24T11:04:01Z</time>
      </trkpt>
      <trkpt lat="44.06637" lon="2.85928">
        <ele>403.89</ele>
        <time>2016-04-24T11:04:02Z</time>
      </trkpt>
      <trkpt lat="44.06637" lon="2.85911">
        <ele>404.85</ele>
        <time>2016-04-24T11:04:03Z</time>
      </trkpt>
      <trkpt lat="44.06638" lon="2.85894">
        <ele>405.33</ele>
        <time>2016-04-24T11:04:04Z</time>
      </trkpt>
      <trkpt lat="44.06635" lon="2.85748">
        <ele>411.58</ele>
        <time>2016-04-24T11:04:12Z</time>
      </trkpt>
      <trkpt lat="44.06627" lon="2.85687">
        <ele>414.47</ele>
        <time>2016-04-24T11:04:16Z</time>
      </trkpt>
      <trkpt lat="44.06628" lon="2.85671">
        <ele>414.95</ele>
        <time>2016-04-24T11:04:17Z</time>
      </trkpt>
      <trkpt lat="44.0663" lon="2.85655">
        <ele>415.43</ele>
        <time>2016-04-24T11:04:18Z</time>
      </trkpt>
      <trkpt lat="44.0664" lon="2.85604">
        <ele>416.87</ele>
        <time>2016-04-24T11:04:21Z</time>
      </trkpt>
      <trkpt lat="44.06641" lon="2.85586">
        <ele>417.35</ele>
        <time>2016-04-24T11:04:22Z</time>
      </trkpt>
      <trkpt lat="44.06641" lon="2.85567">
        <ele>417.83</ele>
        <time>2016-04-24T11:04:23Z</time>
      </trkpt>
      <trkpt lat="44.0664" lon="2.85531">
        <ele>419.27</ele>
        <time>2016-04-24T11:04:25Z</time>
      </trkpt>
      <trkpt lat="44.06641" lon="2.85514">
        <ele>419.27</ele>
        <time>2016-04-24T11:04:26Z</time>
      </trkpt>
      <trkpt lat="44.06643" lon="2.85498">
        <ele>419.27</ele>
        <time>2016-04-24T11:04:27Z</time>
      </trkpt>
      <trkpt lat="44.06653" lon="2.8545">
        <ele>417.83</ele>
        <time>2016-04-24T11:04:30Z</time>
      </trkpt>
      <trkpt lat="44.06696" lon="2.85292">
        <ele>410.62</ele>
        <time>2016-04-24T11:04:39Z</time>
      </trkpt>
      <trkpt lat="44.06704" lon="2.85256">
        <ele>409.18</ele>
        <time>2016-04-24T11:04:41Z</time>
      </trkpt>
      <trkpt lat="44.0671" lon="2.85239">
        <ele>408.22</ele>
        <time>2016-04-24T11:04:42Z</time>
      </trkpt>
      <trkpt lat="44.06718" lon="2.85223">
        <ele>407.26</ele>
        <time>2016-04-24T11:04:43Z</time>
      </trkpt>
      <trkpt lat="44.06727" lon="2.85209">
        <ele>406.29</ele>
        <time>2016-04-24T11:04:44Z</time>
      </trkpt>
      <trkpt lat="44.06736" lon="2.85196">
        <ele>405.33</ele>
        <time>2016-04-24T11:04:45Z</time>
      </trkpt>
      <trkpt lat="44.06782" lon="2.85137">
        <ele>400.53</ele>
        <time>2016-04-24T11:04:50Z</time>
      </trkpt>
      <trkpt lat="44.06794" lon="2.85127">
        <ele>399.57</ele>
        <time>2016-04-24T11:04:51Z</time>
      </trkpt>
      <trkpt lat="44.06807" lon="2.85118">
        <ele>398.6</ele>
        <time>2016-04-24T11:04:52Z</time>
      </trkpt>
      <trkpt lat="44.0692" lon="2.85033">
        <ele>391.39</ele>
        <time>2016-04-24T11:05:02Z</time>
      </trkpt>
      <trkpt lat="44.06927" lon="2.85022">
        <ele>390.91</ele>
        <time>2016-04-24T11:05:03Z</time>
      </trkpt>
      <trkpt lat="44.06932" lon="2.8501">
        <ele>390.43</ele>
        <time>2016-04-24T11:05:04Z</time>
      </trkpt>
      <trkpt lat="44.06934" lon="2.84998">
        <ele>389.47</ele>
        <time>2016-04-24T11:05:05Z</time>
      </trkpt>
      <trkpt lat="44.06932" lon="2.84984">
        <ele>389.47</ele>
        <time>2016-04-24T11:05:06Z</time>
      </trkpt>
      <trkpt lat="44.06928" lon="2.84972">
        <ele>388.99</ele>
        <time>2016-04-24T11:05:07Z</time>
      </trkpt>
      <trkpt lat="44.06919" lon="2.84962">
        <ele>388.99</ele>
        <time>2016-04-24T11:05:08Z</time>
      </trkpt>
      <trkpt lat="44.06907" lon="2.84955">
        <ele>389.47</ele>
        <time>2016-04-24T11:05:09Z</time>
      </trkpt>
      <trkpt lat="44.06893" lon="2.8495">
        <ele>389.47</ele>
        <time>2016-04-24T11:05:10Z</time>
      </trkpt>
      <trkpt lat="44.06878" lon="2.84948">
        <ele>389.95</ele>
        <time>2016-04-24T11:05:11Z</time>
      </trkpt>
      <trkpt lat="44.06864" lon="2.84947">
        <ele>390.91</ele>
        <time>2016-04-24T11:05:12Z</time>
      </trkpt>
      <trkpt lat="44.06851" lon="2.84949">
        <ele>392.84</ele>
        <time>2016-04-24T11:05:13Z</time>
      </trkpt>
      <trkpt lat="44.06839" lon="2.84952">
        <ele>393.8</ele>
        <time>2016-04-24T11:05:14Z</time>
      </trkpt>
      <trkpt lat="44.06828" lon="2.84955">
        <ele>395.24</ele>
        <time>2016-04-24T11:05:15Z</time>
      </trkpt>
      <trkpt lat="44.06816" lon="2.84957">
        <ele>396.68</ele>
        <time>2016-04-24T11:05:16Z</time>
      </trkpt>
      <trkpt lat="44.06803" lon="2.84957">
        <ele>397.64</ele>
        <time>2016-04-24T11:05:17Z</time>
      </trkpt>
      <trkpt lat="44.0679" lon="2.84955">
        <ele>398.6</ele>
        <time>2016-04-24T11:05:18Z</time>
      </trkpt>
      <trkpt lat="44.06777" lon="2.84952">
        <ele>400.53</ele>
        <time>2016-04-24T11:05:19Z</time>
      </trkpt>
      <trkpt lat="44.06763" lon="2.84947">
        <ele>401.01</ele>
        <time>2016-04-24T11:05:20Z</time>
      </trkpt>
      <trkpt lat="44.0675" lon="2.84941">
        <ele>402.45</ele>
        <time>2016-04-24T11:05:21Z</time>
      </trkpt>
      <trkpt lat="44.06726" lon="2.84927">
        <ele>404.85</ele>
        <time>2016-04-24T11:05:23Z</time>
      </trkpt>
      <trkpt lat="44.06715" lon="2.84918">
        <ele>406.29</ele>
        <time>2016-04-24T11:05:24Z</time>
      </trkpt>
      <trkpt lat="44.06706" lon="2.84906">
        <ele>407.26</ele>
        <time>2016-04-24T11:05:25Z</time>
      </trkpt>
      <trkpt lat="44.06699" lon="2.84891">
        <ele>408.7</ele>
        <time>2016-04-24T11:05:26Z</time>
      </trkpt>
      <trkpt lat="44.06695" lon="2.84875">
        <ele>410.14</ele>
        <time>2016-04-24T11:05:27Z</time>
      </trkpt>
      <trkpt lat="44.06693" lon="2.84857">
        <ele>411.58</ele>
        <time>2016-04-24T11:05:28Z</time>
      </trkpt>
      <trkpt lat="44.06691" lon="2.84839">
        <ele>412.54</ele>
        <time>2016-04-24T11:05:29Z</time>
      </trkpt>
      <trkpt lat="44.06688" lon="2.84823">
        <ele>413.98</ele>
        <time>2016-04-24T11:05:30Z</time>
      </trkpt>
      <trkpt lat="44.06683" lon="2.84808">
        <ele>415.43</ele>
        <time>2016-04-24T11:05:31Z</time>
      </trkpt>
      <trkpt lat="44.06676" lon="2.84796">
        <ele>416.87</ele>
        <time>2016-04-24T11:05:32Z</time>
      </trkpt>
      <trkpt lat="44.06667" lon="2.84786">
        <ele>418.31</ele>
        <time>2016-04-24T11:05:33Z</time>
      </trkpt>
      <trkpt lat="44.06656" lon="2.84779">
        <ele>419.75</ele>
        <time>2016-04-24T11:05:34Z</time>
      </trkpt>
      <trkpt lat="44.06645" lon="2.84773">
        <ele>421.19</ele>
        <time>2016-04-24T11:05:35Z</time>
      </trkpt>
      <trkpt lat="44.06635" lon="2.84768">
        <ele>422.16</ele>
        <time>2016-04-24T11:05:36Z</time>
      </trkpt>
      <trkpt lat="44.06624" lon="2.84764">
        <ele>423.12</ele>
        <time>2016-04-24T11:05:37Z</time>
      </trkpt>
      <trkpt lat="44.06605" lon="2.84756">
        <ele>425.52</ele>
        <time>2016-04-24T11:05:39Z</time>
      </trkpt>
      <trkpt lat="44.06597" lon="2.84749">
        <ele>426.48</ele>
        <time>2016-04-24T11:05:40Z</time>
      </trkpt>
      <trkpt lat="44.0659" lon="2.84738">
        <ele>427.44</ele>
        <time>2016-04-24T11:05:41Z</time>
      </trkpt>
      <trkpt lat="44.06584" lon="2.84724">
        <ele>428.89</ele>
        <time>2016-04-24T11:05:42Z</time>
      </trkpt>
      <trkpt lat="44.0658" lon="2.84709">
        <ele>429.85</ele>
        <time>2016-04-24T11:05:43Z</time>
      </trkpt>
      <trkpt lat="44.06576" lon="2.84694">
        <ele>431.29</ele>
        <time>2016-04-24T11:05:44Z</time>
      </trkpt>
      <trkpt lat="44.06566" lon="2.84665">
        <ele>433.69</ele>
        <time>2016-04-24T11:05:46Z</time>
      </trkpt>
      <trkpt lat="44.06559" lon="2.84652">
        <ele>434.65</ele>
        <time>2016-04-24T11:05:47Z</time>
      </trkpt>
      <trkpt lat="44.06551" lon="2.84643">
        <ele>435.61</ele>
        <time>2016-04-24T11:05:48Z</time>
      </trkpt>
      <trkpt lat="44.0654" lon="2.84635">
        <ele>437.54</ele>
        <time>2016-04-24T11:05:49Z</time>
      </trkpt>
      <trkpt lat="44.06529" lon="2.84629">
        <ele>438.98</ele>
        <time>2016-04-24T11:05:50Z</time>
      </trkpt>
      <trkpt lat="44.06453" lon="2.84588">
        <ele>449.07</ele>
        <time>2016-04-24T11:05:57Z</time>
      </trkpt>
      <trkpt lat="44.06444" lon="2.84579">
        <ele>450.52</ele>
        <time>2016-04-24T11:05:58Z</time>
      </trkpt>
      <trkpt lat="44.06436" lon="2.84567">
        <ele>451.48</ele>
        <time>2016-04-24T11:05:59Z</time>
      </trkpt>
      <trkpt lat="44.0643" lon="2.84552">
        <ele>452.92</ele>
        <time>2016-04-24T11:06:00Z</time>
      </trkpt>
      <trkpt lat="44.06425" lon="2.84537">
        <ele>454.36</ele>
        <time>2016-04-24T11:06:01Z</time>
      </trkpt>
      <trkpt lat="44.06419" lon="2.84523">
        <ele>455.8</ele>
        <time>2016-04-24T11:06:02Z</time>
      </trkpt>
      <trkpt lat="44.06411" lon="2.8451">
        <ele>456.76</ele>
        <time>2016-04-24T11:06:03Z</time>
      </trkpt>
      <trkpt lat="44.06402" lon="2.845">
        <ele>458.21</ele>
        <time>2016-04-24T11:06:04Z</time>
      </trkpt>
      <trkpt lat="44.06386" lon="2.84481">
        <ele>460.61</ele>
        <time>2016-04-24T11:06:06Z</time>
      </trkpt>
      <trkpt lat="44.06381" lon="2.84468">
        <ele>461.57</ele>
        <time>2016-04-24T11:06:07Z</time>
      </trkpt>
      <trkpt lat="44.06378" lon="2.84454">
        <ele>463.01</ele>
        <time>2016-04-24T11:06:08Z</time>
      </trkpt>
      <trkpt lat="44.0638" lon="2.84437">
        <ele>463.97</ele>
        <time>2016-04-24T11:06:09Z</time>
      </trkpt>
      <trkpt lat="44.06386" lon="2.8442">
        <ele>464.93</ele>
        <time>2016-04-24T11:06:10Z</time>
      </trkpt>
      <trkpt lat="44.06393" lon="2.84403">
        <ele>466.38</ele>
        <time>2016-04-24T11:06:11Z</time>
      </trkpt>
      <trkpt lat="44.064" lon="2.84386">
        <ele>467.82</ele>
        <time>2016-04-24T11:06:12Z</time>
      </trkpt>
      <trkpt lat="44.06454" lon="2.84248">
        <ele>479.84</ele>
        <time>2016-04-24T11:06:21Z</time>
      </trkpt>
      <trkpt lat="44.06459" lon="2.84235">
        <ele>480.8</ele>
        <time>2016-04-24T11:06:22Z</time>
      </trkpt>
      <trkpt lat="44.06466" lon="2.84223">
        <ele>482.24</ele>
        <time>2016-04-24T11:06:23Z</time>
      </trkpt>
      <trkpt lat="44.06475" lon="2.84213">
        <ele>483.68</ele>
        <time>2016-04-24T11:06:24Z</time>
      </trkpt>
      <trkpt lat="44.06484" lon="2.84207">
        <ele>485.12</ele>
        <time>2016-04-24T11:06:25Z</time>
      </trkpt>
      <trkpt lat="44.06497" lon="2.84204">
        <ele>485.6</ele>
        <time>2016-04-24T11:06:26Z</time>
      </trkpt>
      <trkpt lat="44.06508" lon="2.84202">
        <ele>485.6</ele>
        <time>2016-04-24T11:06:27Z</time>
      </trkpt>
      <trkpt lat="44.06519" lon="2.84196">
        <ele>486.08</ele>
        <time>2016-04-24T11:06:28Z</time>
      </trkpt>
      <trkpt lat="44.06528" lon="2.84187">
        <ele>486.56</ele>
        <time>2016-04-24T11:06:29Z</time>
      </trkpt>
      <trkpt lat="44.06535" lon="2.84176">
        <ele>487.05</ele>
        <time>2016-04-24T11:06:30Z</time>
      </trkpt>
      <trkpt lat="44.0654" lon="2.84162">
        <ele>487.53</ele>
        <time>2016-04-24T11:06:31Z</time>
      </trkpt>
      <trkpt lat="44.06545" lon="2.84147">
        <ele>487.53</ele>
        <time>2016-04-24T11:06:32Z</time>
      </trkpt>
      <trkpt lat="44.06549" lon="2.84131">
        <ele>487.53</ele>
        <time>2016-04-24T11:06:33Z</time>
      </trkpt>
      <trkpt lat="44.06574" lon="2.84003">
        <ele>485.12</ele>
        <time>2016-04-24T11:06:41Z</time>
      </trkpt>
      <trkpt lat="44.06574" lon="2.83962">
        <ele>483.68</ele>
        <time>2016-04-24T11:06:44Z</time>
      </trkpt>
      <trkpt lat="44.06576" lon="2.83948">
        <ele>483.2</ele>
        <time>2016-04-24T11:06:45Z</time>
      </trkpt>
      <trkpt lat="44.06579" lon="2.83935">
        <ele>482.72</ele>
        <time>2016-04-24T11:06:46Z</time>
      </trkpt>
      <trkpt lat="44.06584" lon="2.83921">
        <ele>481.76</ele>
        <time>2016-04-24T11:06:47Z</time>
      </trkpt>
      <trkpt lat="44.06591" lon="2.83907">
        <ele>480.8</ele>
        <time>2016-04-24T11:06:48Z</time>
      </trkpt>
      <trkpt lat="44.06599" lon="2.83893">
        <ele>479.84</ele>
        <time>2016-04-24T11:06:49Z</time>
      </trkpt>
      <trkpt lat="44.06624" lon="2.83827">
        <ele>474.55</ele>
        <time>2016-04-24T11:06:53Z</time>
      </trkpt>
      <trkpt lat="44.06651" lon="2.83719">
        <ele>466.86</ele>
        <time>2016-04-24T11:06:59Z</time>
      </trkpt>
      <trkpt lat="44.06658" lon="2.83702">
        <ele>465.42</ele>
        <time>2016-04-24T11:07:00Z</time>
      </trkpt>
      <trkpt lat="44.06667" lon="2.83686">
        <ele>463.97</ele>
        <time>2016-04-24T11:07:01Z</time>
      </trkpt>
      <trkpt lat="44.06677" lon="2.83673">
        <ele>462.53</ele>
        <time>2016-04-24T11:07:02Z</time>
      </trkpt>
      <trkpt lat="44.06687" lon="2.83663">
        <ele>461.57</ele>
        <time>2016-04-24T11:07:03Z</time>
      </trkpt>
      <trkpt lat="44.06699" lon="2.83656">
        <ele>460.13</ele>
        <time>2016-04-24T11:07:04Z</time>
      </trkpt>
      <trkpt lat="44.06712" lon="2.83654">
        <ele>459.17</ele>
        <time>2016-04-24T11:07:05Z</time>
      </trkpt>
      <trkpt lat="44.06726" lon="2.83654">
        <ele>458.21</ele>
        <time>2016-04-24T11:07:06Z</time>
      </trkpt>
      <trkpt lat="44.06739" lon="2.83654">
        <ele>456.76</ele>
        <time>2016-04-24T11:07:07Z</time>
      </trkpt>
      <trkpt lat="44.06767" lon="2.83651">
        <ele>454.36</ele>
        <time>2016-04-24T11:07:09Z</time>
      </trkpt>
      <trkpt lat="44.0678" lon="2.83647">
        <ele>452.92</ele>
        <time>2016-04-24T11:07:10Z</time>
      </trkpt>
      <trkpt lat="44.06792" lon="2.83639">
        <ele>451.48</ele>
        <time>2016-04-24T11:07:11Z</time>
      </trkpt>
      <trkpt lat="44.06802" lon="2.83627">
        <ele>449.55</ele>
        <time>2016-04-24T11:07:12Z</time>
      </trkpt>
      <trkpt lat="44.06809" lon="2.83611">
        <ele>448.11</ele>
        <time>2016-04-24T11:07:13Z</time>
      </trkpt>
      <trkpt lat="44.06811" lon="2.83591">
        <ele>447.15</ele>
        <time>2016-04-24T11:07:14Z</time>
      </trkpt>
      <trkpt lat="44.06811" lon="2.83572">
        <ele>445.23</ele>
        <time>2016-04-24T11:07:15Z</time>
      </trkpt>
      <trkpt lat="44.06809" lon="2.83552">
        <ele>443.79</ele>
        <time>2016-04-24T11:07:16Z</time>
      </trkpt>
      <trkpt lat="44.06807" lon="2.83532">
        <ele>441.86</ele>
        <time>2016-04-24T11:07:17Z</time>
      </trkpt>
      <trkpt lat="44.06772" lon="2.8334">
        <ele>426.96</ele>
        <time>2016-04-24T11:07:27Z</time>
      </trkpt>
      <trkpt lat="44.06773" lon="2.83325">
        <ele>425.52</ele>
        <time>2016-04-24T11:07:28Z</time>
      </trkpt>
      <trkpt lat="44.06777" lon="2.83311">
        <ele>424.56</ele>
        <time>2016-04-24T11:07:29Z</time>
      </trkpt>
      <trkpt lat="44.06784" lon="2.83301">
        <ele>423.6</ele>
        <time>2016-04-24T11:07:30Z</time>
      </trkpt>
      <trkpt lat="44.06793" lon="2.83293">
        <ele>422.64</ele>
        <time>2016-04-24T11:07:31Z</time>
      </trkpt>
      <trkpt lat="44.06804" lon="2.83288">
        <ele>421.68</ele>
        <time>2016-04-24T11:07:32Z</time>
      </trkpt>
      <trkpt lat="44.06817" lon="2.83283">
        <ele>420.71</ele>
        <time>2016-04-24T11:07:33Z</time>
      </trkpt>
      <trkpt lat="44.0683" lon="2.83275">
        <ele>419.75</ele>
        <time>2016-04-24T11:07:34Z</time>
      </trkpt>
      <trkpt lat="44.06843" lon="2.83266">
        <ele>418.79</ele>
        <time>2016-04-24T11:07:35Z</time>
      </trkpt>
      <trkpt lat="44.06856" lon="2.83254">
        <ele>417.35</ele>
        <time>2016-04-24T11:07:36Z</time>
      </trkpt>
      <trkpt lat="44.06927" lon="2.83178">
        <ele>408.22</ele>
        <time>2016-04-24T11:07:42Z</time>
      </trkpt>
      <trkpt lat="44.06936" lon="2.83162">
        <ele>406.29</ele>
        <time>2016-04-24T11:07:43Z</time>
      </trkpt>
      <trkpt lat="44.06943" lon="2.83143">
        <ele>404.85</ele>
        <time>2016-04-24T11:07:44Z</time>
      </trkpt>
      <trkpt lat="44.0695" lon="2.83124">
        <ele>403.41</ele>
        <time>2016-04-24T11:07:45Z</time>
      </trkpt>
      <trkpt lat="44.06955" lon="2.83104">
        <ele>401.97</ele>
        <time>2016-04-24T11:07:46Z</time>
      </trkpt>
      <trkpt lat="44.06971" lon="2.83026">
        <ele>396.2</ele>
        <time>2016-04-24T11:07:50Z</time>
      </trkpt>
      <trkpt lat="44.06972" lon="2.83005">
        <ele>394.28</ele>
        <time>2016-04-24T11:07:51Z</time>
      </trkpt>
      <trkpt lat="44.06967" lon="2.828">
        <ele>379.38</ele>
        <time>2016-04-24T11:08:00Z</time>
      </trkpt>
      <trkpt lat="44.06944" lon="2.82677">
        <ele>370.73</ele>
        <time>2016-04-24T11:08:06Z</time>
      </trkpt>
      <trkpt lat="44.06936" lon="2.82658">
        <ele>369.28</ele>
        <time>2016-04-24T11:08:07Z</time>
      </trkpt>
      <trkpt lat="44.06926" lon="2.8264">
        <ele>367.36</ele>
        <time>2016-04-24T11:08:08Z</time>
      </trkpt>
      <trkpt lat="44.06857" lon="2.82505">
        <ele>359.67</ele>
        <time>2016-04-24T11:08:16Z</time>
      </trkpt>
      <trkpt lat="44.06853" lon="2.82486">
        <ele>358.71</ele>
        <time>2016-04-24T11:08:17Z</time>
      </trkpt>
      <trkpt lat="44.06851" lon="2.82467">
        <ele>358.23</ele>
        <time>2016-04-24T11:08:18Z</time>
      </trkpt>
      <trkpt lat="44.06851" lon="2.82448">
        <ele>357.75</ele>
        <time>2016-04-24T11:08:19Z</time>
      </trkpt>
      <trkpt lat="44.06853" lon="2.82428">
        <ele>356.79</ele>
        <time>2016-04-24T11:08:20Z</time>
      </trkpt>
      <trkpt lat="44.06855" lon="2.82408">
        <ele>355.83</ele>
        <time>2016-04-24T11:08:21Z</time>
      </trkpt>
      <trkpt lat="44.06868" lon="2.82259">
        <ele>350.06</ele>
        <time>2016-04-24T11:08:28Z</time>
      </trkpt>
      <trkpt lat="44.06863" lon="2.82175">
        <ele>345.73</ele>
        <time>2016-04-24T11:08:32Z</time>
      </trkpt>
      <trkpt lat="44.06864" lon="2.82155">
        <ele>344.77</ele>
        <time>2016-04-24T11:08:33Z</time>
      </trkpt>
      <trkpt lat="44.06867" lon="2.82116">
        <ele>342.85</ele>
        <time>2016-04-24T11:08:35Z</time>
      </trkpt>
      <trkpt lat="44.06866" lon="2.82095">
        <ele>342.37</ele>
        <time>2016-04-24T11:08:36Z</time>
      </trkpt>
      <trkpt lat="44.06862" lon="2.82074">
        <ele>341.41</ele>
        <time>2016-04-24T11:08:37Z</time>
      </trkpt>
      <trkpt lat="44.06833" lon="2.81866">
        <ele>337.08</ele>
        <time>2016-04-24T11:08:47Z</time>
      </trkpt>
      <trkpt lat="44.06833" lon="2.81848">
        <ele>337.08</ele>
        <time>2016-04-24T11:08:48Z</time>
      </trkpt>
      <trkpt lat="44.06835" lon="2.81829">
        <ele>337.08</ele>
        <time>2016-04-24T11:08:49Z</time>
      </trkpt>
      <trkpt lat="44.0684" lon="2.81813">
        <ele>337.08</ele>
        <time>2016-04-24T11:08:50Z</time>
      </trkpt>
      <trkpt lat="44.06848" lon="2.81797">
        <ele>337.08</ele>
        <time>2016-04-24T11:08:51Z</time>
      </trkpt>
      <trkpt lat="44.06857" lon="2.81784">
        <ele>337.08</ele>
        <time>2016-04-24T11:08:52Z</time>
      </trkpt>
      <trkpt lat="44.06868" lon="2.81772">
        <ele>337.08</ele>
        <time>2016-04-24T11:08:53Z</time>
      </trkpt>
      <trkpt lat="44.06878" lon="2.8176">
        <ele>337.08</ele>
        <time>2016-04-24T11:08:54Z</time>
      </trkpt>
      <trkpt lat="44.06894" lon="2.81733">
        <ele>336.12</ele>
        <time>2016-04-24T11:08:56Z</time>
      </trkpt>
      <trkpt lat="44.06898" lon="2.81719">
        <ele>335.16</ele>
        <time>2016-04-24T11:08:57Z</time>
      </trkpt>
      <trkpt lat="44.06895" lon="2.81704">
        <ele>333.71</ele>
        <time>2016-04-24T11:08:58Z</time>
      </trkpt>
      <trkpt lat="44.0689" lon="2.81687">
        <ele>332.75</ele>
        <time>2016-04-24T11:08:59Z</time>
      </trkpt>
      <trkpt lat="44.06885" lon="2.81674">
        <ele>331.79</ele>
        <time>2016-04-24T11:09:00Z</time>
      </trkpt>
      <trkpt lat="44.06875" lon="2.81659">
        <ele>331.31</ele>
        <time>2016-04-24T11:09:01Z</time>
      </trkpt>
      <trkpt lat="44.06868" lon="2.8164">
        <ele>331.31</ele>
        <time>2016-04-24T11:09:02Z</time>
      </trkpt>
      <trkpt lat="44.06859" lon="2.81599">
        <ele>330.35</ele>
        <time>2016-04-24T11:09:04Z</time>
      </trkpt>
      <trkpt lat="44.06855" lon="2.81558">
        <ele>330.35</ele>
        <time>2016-04-24T11:09:06Z</time>
      </trkpt>
      <trkpt lat="44.06858" lon="2.8154">
        <ele>329.87</ele>
        <time>2016-04-24T11:09:07Z</time>
      </trkpt>
      <trkpt lat="44.06865" lon="2.81522">
        <ele>329.87</ele>
        <time>2016-04-24T11:09:08Z</time>
      </trkpt>
      <trkpt lat="44.06874" lon="2.81507">
        <ele>329.87</ele>
        <time>2016-04-24T11:09:09Z</time>
      </trkpt>
      <trkpt lat="44.06887" lon="2.81495">
        <ele>330.35</ele>
        <time>2016-04-24T11:09:10Z</time>
      </trkpt>
      <trkpt lat="44.06897" lon="2.81481">
        <ele>330.35</ele>
        <time>2016-04-24T11:09:11Z</time>
      </trkpt>
      <trkpt lat="44.06906" lon="2.81465">
        <ele>330.83</ele>
        <time>2016-04-24T11:09:12Z</time>
      </trkpt>
      <trkpt lat="44.06913" lon="2.81449">
        <ele>330.83</ele>
        <time>2016-04-24T11:09:13Z</time>
      </trkpt>
      <trkpt lat="44.0698" lon="2.81343">
        <ele>330.83</ele>
        <time>2016-04-24T11:09:21Z</time>
      </trkpt>
      <trkpt lat="44.07019" lon="2.81284">
        <ele>328.43</ele>
        <time>2016-04-24T11:09:26Z</time>
      </trkpt>
      <trkpt lat="44.07025" lon="2.8127">
        <ele>328.43</ele>
        <time>2016-04-24T11:09:27Z</time>
      </trkpt>
      <trkpt lat="44.07031" lon="2.81256">
        <ele>327.95</ele>
        <time>2016-04-24T11:09:28Z</time>
      </trkpt>
      <trkpt lat="44.07037" lon="2.81244">
        <ele>327.47</ele>
        <time>2016-04-24T11:09:29Z</time>
      </trkpt>
      <trkpt lat="44.07045" lon="2.81233">
        <ele>326.99</ele>
        <time>2016-04-24T11:09:30Z</time>
      </trkpt>
      <trkpt lat="44.07052" lon="2.81226">
        <ele>326.5</ele>
        <time>2016-04-24T11:09:31Z</time>
      </trkpt>
      <trkpt lat="44.0706" lon="2.81224">
        <ele>326.5</ele>
        <time>2016-04-24T11:09:32Z</time>
      </trkpt>
      <trkpt lat="44.0707" lon="2.81225">
        <ele>326.5</ele>
        <time>2016-04-24T11:09:33Z</time>
      </trkpt>
      <trkpt lat="44.07082" lon="2.81231">
        <ele>326.5</ele>
        <time>2016-04-24T11:09:34Z</time>
      </trkpt>
      <trkpt lat="44.07094" lon="2.81236">
        <ele>326.5</ele>
        <time>2016-04-24T11:09:35Z</time>
      </trkpt>
      <trkpt lat="44.07106" lon="2.81239">
        <ele>326.5</ele>
        <time>2016-04-24T11:09:36Z</time>
      </trkpt>
      <trkpt lat="44.07118" lon="2.8124">
        <ele>326.5</ele>
        <time>2016-04-24T11:09:37Z</time>
      </trkpt>
      <trkpt lat="44.0713" lon="2.81239">
        <ele>326.5</ele>
        <time>2016-04-24T11:09:38Z</time>
      </trkpt>
      <trkpt lat="44.07141" lon="2.81235">
        <ele>326.02</ele>
        <time>2016-04-24T11:09:39Z</time>
      </trkpt>
      <trkpt lat="44.0715" lon="2.81229">
        <ele>326.02</ele>
        <time>2016-04-24T11:09:40Z</time>
      </trkpt>
      <trkpt lat="44.07158" lon="2.81219">
        <ele>326.02</ele>
        <time>2016-04-24T11:09:41Z</time>
      </trkpt>
      <trkpt lat="44.07164" lon="2.81207">
        <ele>326.02</ele>
        <time>2016-04-24T11:09:42Z</time>
      </trkpt>
      <trkpt lat="44.07171" lon="2.81195">
        <ele>326.02</ele>
        <time>2016-04-24T11:09:43Z</time>
      </trkpt>
      <trkpt lat="44.07242" lon="2.81091">
        <ele>326.99</ele>
        <time>2016-04-24T11:09:52Z</time>
      </trkpt>
      <trkpt lat="44.07261" lon="2.81075">
        <ele>327.47</ele>
        <time>2016-04-24T11:09:54Z</time>
      </trkpt>
      <trkpt lat="44.07271" lon="2.81069">
        <ele>327.95</ele>
        <time>2016-04-24T11:09:55Z</time>
      </trkpt>
      <trkpt lat="44.07281" lon="2.81065">
        <ele>327.95</ele>
        <time>2016-04-24T11:09:56Z</time>
      </trkpt>
      <trkpt lat="44.07291" lon="2.81065">
        <ele>328.43</ele>
        <time>2016-04-24T11:09:57Z</time>
      </trkpt>
      <trkpt lat="44.073" lon="2.81065">
        <ele>328.43</ele>
        <time>2016-04-24T11:09:58Z</time>
      </trkpt>
      <trkpt lat="44.07308" lon="2.81067">
        <ele>328.43</ele>
        <time>2016-04-24T11:09:59Z</time>
      </trkpt>
      <trkpt lat="44.07315" lon="2.81067">
        <ele>328.43</ele>
        <time>2016-04-24T11:10:00Z</time>
      </trkpt>
      <trkpt lat="44.07322" lon="2.81066">
        <ele>328.43</ele>
        <time>2016-04-24T11:10:01Z</time>
      </trkpt>
      <trkpt lat="44.07327" lon="2.81061">
        <ele>328.91</ele>
        <time>2016-04-24T11:10:02Z</time>
      </trkpt>
      <trkpt lat="44.07331" lon="2.81053">
        <ele>329.87</ele>
        <time>2016-04-24T11:10:03Z</time>
      </trkpt>
      <trkpt lat="44.07335" lon="2.81044">
        <ele>331.31</ele>
        <time>2016-04-24T11:10:04Z</time>
      </trkpt>
      <trkpt lat="44.07339" lon="2.81035">
        <ele>331.79</ele>
        <time>2016-04-24T11:10:05Z</time>
      </trkpt>
      <trkpt lat="44.07341" lon="2.81024">
        <ele>332.27</ele>
        <time>2016-04-24T11:10:06Z</time>
      </trkpt>
      <trkpt lat="44.07342" lon="2.81012">
        <ele>332.75</ele>
        <time>2016-04-24T11:10:07Z</time>
      </trkpt>
      <trkpt lat="44.07341" lon="2.81002">
        <ele>332.75</ele>
        <time>2016-04-24T11:10:08Z</time>
      </trkpt>
      <trkpt lat="44.07337" lon="2.80992">
        <ele>333.23</ele>
        <time>2016-04-24T11:10:09Z</time>
      </trkpt>
      <trkpt lat="44.07333" lon="2.80983">
        <ele>333.23</ele>
        <time>2016-04-24T11:10:10Z</time>
      </trkpt>
      <trkpt lat="44.07327" lon="2.80975">
        <ele>333.71</ele>
        <time>2016-04-24T11:10:11Z</time>
      </trkpt>
      <trkpt lat="44.07321" lon="2.80967">
        <ele>334.2</ele>
        <time>2016-04-24T11:10:12Z</time>
      </trkpt>
      <trkpt lat="44.07314" lon="2.80961">
        <ele>335.64</ele>
        <time>2016-04-24T11:10:13Z</time>
      </trkpt>
      <trkpt lat="44.07308" lon="2.80957">
        <ele>336.6</ele>
        <time>2016-04-24T11:10:14Z</time>
      </trkpt>
      <trkpt lat="44.07268" lon="2.80937">
        <ele>343.81</ele>
        <time>2016-04-24T11:10:23Z</time>
      </trkpt>
      <trkpt lat="44.07262" lon="2.80939">
        <ele>343.81</ele>
        <time>2016-04-24T11:10:24Z</time>
      </trkpt>
      <trkpt lat="44.07256" lon="2.80943">
        <ele>344.29</ele>
        <time>2016-04-24T11:10:25Z</time>
      </trkpt>
      <trkpt lat="44.07249" lon="2.80949">
        <ele>343.81</ele>
        <time>2016-04-24T11:10:26Z</time>
      </trkpt>
      <trkpt lat="44.07242" lon="2.80956">
        <ele>343.81</ele>
        <time>2016-04-24T11:10:27Z</time>
      </trkpt>
      <trkpt lat="44.07236" lon="2.80962">
        <ele>343.33</ele>
        <time>2016-04-24T11:10:28Z</time>
      </trkpt>
      <trkpt lat="44.07218" lon="2.80985">
        <ele>342.37</ele>
        <time>2016-04-24T11:10:31Z</time>
      </trkpt>
      <trkpt lat="44.07196" lon="2.8102">
        <ele>340.44</ele>
        <time>2016-04-24T11:10:35Z</time>
      </trkpt>
      <trkpt lat="44.07189" lon="2.81027">
        <ele>339.96</ele>
        <time>2016-04-24T11:10:36Z</time>
      </trkpt>
      <trkpt lat="44.07132" lon="2.81088">
        <ele>337.56</ele>
        <time>2016-04-24T11:10:46Z</time>
      </trkpt>
      <trkpt lat="44.07125" lon="2.81095">
        <ele>337.08</ele>
        <time>2016-04-24T11:10:56Z</time>
      </trkpt>
      <trkpt lat="44.07107" lon="2.81104">
        <ele>335.16</ele>
        <time>2016-04-24T11:11:05Z</time>
      </trkpt>
      <trkpt lat="44.07091" lon="2.81097">
        <ele>332.27</ele>
        <time>2016-04-24T11:11:18Z</time>
      </trkpt>
      <trkpt lat="44.07091" lon="2.81097">
        <ele>331.31</ele>
        <time>2016-04-24T11:11:34Z</time>
      </trkpt>
      <trkpt lat="44.0709" lon="2.81095">
        <ele>330.83</ele>
        <time>2016-04-24T11:11:52Z</time>
      </trkpt>
      <trkpt lat="44.07091" lon="2.81096">
        <ele>329.39</ele>
        <time>2016-04-24T11:12:19Z</time>
      </trkpt>
      <trkpt lat="44.07043" lon="2.8061">
        <ele>304.88</ele>
        <time>2016-04-24T11:17:14Z</time>
      </trkpt>
      <trkpt lat="44.07039" lon="2.80607">
        <ele>306.32</ele>
        <time>2016-04-24T11:17:39Z</time>
      </trkpt>
      <trkpt lat="44.07038" lon="2.80604">
        <ele>306.32</ele>
        <time>2016-04-24T11:17:55Z</time>
      </trkpt>
      <trkpt lat="44.07041" lon="2.80594">
        <ele>304.39</ele>
        <time>2016-04-24T11:18:08Z</time>
      </trkpt>
      <trkpt lat="44.07044" lon="2.80587">
        <ele>307.28</ele>
        <time>2016-04-24T11:18:33Z</time>
      </trkpt>
      <trkpt lat="44.07045" lon="2.80575">
        <ele>306.32</ele>
        <time>2016-04-24T11:18:40Z</time>
      </trkpt>
      <trkpt lat="44.07044" lon="2.80576">
        <ele>309.68</ele>
        <time>2016-04-24T11:18:51Z</time>
      </trkpt>
      <trkpt lat="44.07041" lon="2.80593">
        <ele>310.64</ele>
        <time>2016-04-24T11:18:55Z</time>
      </trkpt>
      <trkpt lat="44.07041" lon="2.80601">
        <ele>310.16</ele>
        <time>2016-04-24T11:18:56Z</time>
      </trkpt>
      <trkpt lat="44.07043" lon="2.8061">
        <ele>310.16</ele>
        <time>2016-04-24T11:18:57Z</time>
      </trkpt>
      <trkpt lat="44.07046" lon="2.80618">
        <ele>310.16</ele>
        <time>2016-04-24T11:18:58Z</time>
      </trkpt>
      <trkpt lat="44.07049" lon="2.80626">
        <ele>310.16</ele>
        <time>2016-04-24T11:18:59Z</time>
      </trkpt>
      <trkpt lat="44.07057" lon="2.80648">
        <ele>310.64</ele>
        <time>2016-04-24T11:19:02Z</time>
      </trkpt>
      <trkpt lat="44.07057" lon="2.80655">
        <ele>310.64</ele>
        <time>2016-04-24T11:19:03Z</time>
      </trkpt>
      <trkpt lat="44.07056" lon="2.80663">
        <ele>311.12</ele>
        <time>2016-04-24T11:19:04Z</time>
      </trkpt>
      <trkpt lat="44.07055" lon="2.80672">
        <ele>311.12</ele>
        <time>2016-04-24T11:19:05Z</time>
      </trkpt>
      <trkpt lat="44.07052" lon="2.80682">
        <ele>312.09</ele>
        <time>2016-04-24T11:19:06Z</time>
      </trkpt>
      <trkpt lat="44.07048" lon="2.80693">
        <ele>312.57</ele>
        <time>2016-04-24T11:19:07Z</time>
      </trkpt>
      <trkpt lat="44.07044" lon="2.80704">
        <ele>313.53</ele>
        <time>2016-04-24T11:19:08Z</time>
      </trkpt>
      <trkpt lat="44.0704" lon="2.80716">
        <ele>314.49</ele>
        <time>2016-04-24T11:19:09Z</time>
      </trkpt>
      <trkpt lat="44.07037" lon="2.80729">
        <ele>314.97</ele>
        <time>2016-04-24T11:19:10Z</time>
      </trkpt>
      <trkpt lat="44.07024" lon="2.80799">
        <ele>319.78</ele>
        <time>2016-04-24T11:19:16Z</time>
      </trkpt>
      <trkpt lat="44.07" lon="2.80863">
        <ele>326.02</ele>
        <time>2016-04-24T11:19:24Z</time>
      </trkpt>
      <trkpt lat="44.06997" lon="2.80865">
        <ele>326.02</ele>
        <time>2016-04-24T11:19:25Z</time>
      </trkpt>
      <trkpt lat="44.06996" lon="2.80851">
        <ele>326.5</ele>
        <time>2016-04-24T11:19:30Z</time>
      </trkpt>
      <trkpt lat="44.06999" lon="2.80845">
        <ele>325.54</ele>
        <time>2016-04-24T11:19:31Z</time>
      </trkpt>
      <trkpt lat="44.07003" lon="2.80832">
        <ele>325.54</ele>
        <time>2016-04-24T11:19:32Z</time>
      </trkpt>
      <trkpt lat="44.07009" lon="2.80819">
        <ele>325.06</ele>
        <time>2016-04-24T11:19:33Z</time>
      </trkpt>
      <trkpt lat="44.07012" lon="2.80806">
        <ele>325.06</ele>
        <time>2016-04-24T11:19:34Z</time>
      </trkpt>
      <trkpt lat="44.07015" lon="2.80792">
        <ele>325.06</ele>
        <time>2016-04-24T11:19:35Z</time>
      </trkpt>
      <trkpt lat="44.07017" lon="2.80779">
        <ele>325.54</ele>
        <time>2016-04-24T11:19:36Z</time>
      </trkpt>
      <trkpt lat="44.07018" lon="2.80764">
        <ele>325.54</ele>
        <time>2016-04-24T11:19:37Z</time>
      </trkpt>
      <trkpt lat="44.07023" lon="2.80698">
        <ele>326.02</ele>
        <time>2016-04-24T11:19:42Z</time>
      </trkpt>
      <trkpt lat="44.07023" lon="2.80686">
        <ele>326.5</ele>
        <time>2016-04-24T11:19:43Z</time>
      </trkpt>
      <trkpt lat="44.07021" lon="2.80673">
        <ele>326.99</ele>
        <time>2016-04-24T11:19:44Z</time>
      </trkpt>
      <trkpt lat="44.07017" lon="2.80661">
        <ele>326.99</ele>
        <time>2016-04-24T11:19:45Z</time>
      </trkpt>
      <trkpt lat="44.07014" lon="2.80649">
        <ele>326.99</ele>
        <time>2016-04-24T11:19:46Z</time>
      </trkpt>
      <trkpt lat="44.0701" lon="2.80639">
        <ele>326.99</ele>
        <time>2016-04-24T11:19:47Z</time>
      </trkpt>
      <trkpt lat="44.06993" lon="2.80586">
        <ele>329.39</ele>
        <time>2016-04-24T11:19:52Z</time>
      </trkpt>
      <trkpt lat="44.06987" lon="2.80577">
        <ele>329.39</ele>
        <time>2016-04-24T11:19:53Z</time>
      </trkpt>
      <trkpt lat="44.06979" lon="2.80569">
        <ele>329.39</ele>
        <time>2016-04-24T11:19:54Z</time>
      </trkpt>
      <trkpt lat="44.06926" lon="2.80514">
        <ele>330.35</ele>
        <time>2016-04-24T11:20:01Z</time>
      </trkpt>
      <trkpt lat="44.06917" lon="2.80508">
        <ele>329.87</ele>
        <time>2016-04-24T11:20:02Z</time>
      </trkpt>
      <trkpt lat="44.06908" lon="2.80502">
        <ele>329.39</ele>
        <time>2016-04-24T11:20:03Z</time>
      </trkpt>
      <trkpt lat="44.06897" lon="2.80498">
        <ele>329.39</ele>
        <time>2016-04-24T11:20:04Z</time>
      </trkpt>
      <trkpt lat="44.06885" lon="2.80494">
        <ele>328.91</ele>
        <time>2016-04-24T11:20:05Z</time>
      </trkpt>
      <trkpt lat="44.06871" lon="2.80492">
        <ele>328.43</ele>
        <time>2016-04-24T11:20:06Z</time>
      </trkpt>
      <trkpt lat="44.06857" lon="2.80492">
        <ele>327.95</ele>
        <time>2016-04-24T11:20:07Z</time>
      </trkpt>
      <trkpt lat="44.06843" lon="2.80492">
        <ele>328.43</ele>
        <time>2016-04-24T11:20:08Z</time>
      </trkpt>
      <trkpt lat="44.06817" lon="2.80495">
        <ele>329.39</ele>
        <time>2016-04-24T11:20:10Z</time>
      </trkpt>
      <trkpt lat="44.06806" lon="2.80499">
        <ele>329.87</ele>
        <time>2016-04-24T11:20:11Z</time>
      </trkpt>
      <trkpt lat="44.06782" lon="2.80509">
        <ele>331.31</ele>
        <time>2016-04-24T11:20:13Z</time>
      </trkpt>
      <trkpt lat="44.0677" lon="2.80512">
        <ele>331.79</ele>
        <time>2016-04-24T11:20:14Z</time>
      </trkpt>
      <trkpt lat="44.06694" lon="2.8055">
        <ele>337.08</ele>
        <time>2016-04-24T11:20:21Z</time>
      </trkpt>
      <trkpt lat="44.06687" lon="2.8056">
        <ele>338.04</ele>
        <time>2016-04-24T11:20:22Z</time>
      </trkpt>
      <trkpt lat="44.06683" lon="2.8057">
        <ele>339</ele>
        <time>2016-04-24T11:20:23Z</time>
      </trkpt>
      <trkpt lat="44.06677" lon="2.80576">
        <ele>339.48</ele>
        <time>2016-04-24T11:20:24Z</time>
      </trkpt>
      <trkpt lat="44.06671" lon="2.80576">
        <ele>339.96</ele>
        <time>2016-04-24T11:20:25Z</time>
      </trkpt>
      <trkpt lat="44.06664" lon="2.80574">
        <ele>339.96</ele>
        <time>2016-04-24T11:20:26Z</time>
      </trkpt>
      <trkpt lat="44.06657" lon="2.80573">
        <ele>339.96</ele>
        <time>2016-04-24T11:20:27Z</time>
      </trkpt>
      <trkpt lat="44.06648" lon="2.80575">
        <ele>340.44</ele>
        <time>2016-04-24T11:20:28Z</time>
      </trkpt>
      <trkpt lat="44.0664" lon="2.80582">
        <ele>341.41</ele>
        <time>2016-04-24T11:20:29Z</time>
      </trkpt>
      <trkpt lat="44.06632" lon="2.80591">
        <ele>341.89</ele>
        <time>2016-04-24T11:20:30Z</time>
      </trkpt>
      <trkpt lat="44.06623" lon="2.80601">
        <ele>342.85</ele>
        <time>2016-04-24T11:20:31Z</time>
      </trkpt>
      <trkpt lat="44.06614" lon="2.8061">
        <ele>343.81</ele>
        <time>2016-04-24T11:20:32Z</time>
      </trkpt>
      <trkpt lat="44.06604" lon="2.80618">
        <ele>344.29</ele>
        <time>2016-04-24T11:20:33Z</time>
      </trkpt>
      <trkpt lat="44.06592" lon="2.80622">
        <ele>344.77</ele>
        <time>2016-04-24T11:20:34Z</time>
      </trkpt>
      <trkpt lat="44.06581" lon="2.80626">
        <ele>345.73</ele>
        <time>2016-04-24T11:20:35Z</time>
      </trkpt>
      <trkpt lat="44.06568" lon="2.80629">
        <ele>346.21</ele>
        <time>2016-04-24T11:20:36Z</time>
      </trkpt>
      <trkpt lat="44.06515" lon="2.80638">
        <ele>348.62</ele>
        <time>2016-04-24T11:20:40Z</time>
      </trkpt>
      <trkpt lat="44.06501" lon="2.80644">
        <ele>349.1</ele>
        <time>2016-04-24T11:20:41Z</time>
      </trkpt>
      <trkpt lat="44.06489" lon="2.80653">
        <ele>349.58</ele>
        <time>2016-04-24T11:20:42Z</time>
      </trkpt>
      <trkpt lat="44.06477" lon="2.80664">
        <ele>350.06</ele>
        <time>2016-04-24T11:20:43Z</time>
      </trkpt>
      <trkpt lat="44.06466" lon="2.80677">
        <ele>350.54</ele>
        <time>2016-04-24T11:20:44Z</time>
      </trkpt>
      <trkpt lat="44.06457" lon="2.80691">
        <ele>351.02</ele>
        <time>2016-04-24T11:20:45Z</time>
      </trkpt>
      <trkpt lat="44.06448" lon="2.80705">
        <ele>352.46</ele>
        <time>2016-04-24T11:20:46Z</time>
      </trkpt>
      <trkpt lat="44.06438" lon="2.80735">
        <ele>352.46</ele>
        <time>2016-04-24T11:20:48Z</time>
      </trkpt>
      <trkpt lat="44.06435" lon="2.80749">
        <ele>353.9</ele>
        <time>2016-04-24T11:20:49Z</time>
      </trkpt>
      <trkpt lat="44.06421" lon="2.80783">
        <ele>357.27</ele>
        <time>2016-04-24T11:20:53Z</time>
      </trkpt>
      <trkpt lat="44.06411" lon="2.80783">
        <ele>357.75</ele>
        <time>2016-04-24T11:20:54Z</time>
      </trkpt>
      <trkpt lat="44.064" lon="2.80778">
        <ele>358.23</ele>
        <time>2016-04-24T11:20:55Z</time>
      </trkpt>
      <trkpt lat="44.06392" lon="2.80767">
        <ele>358.23</ele>
        <time>2016-04-24T11:20:56Z</time>
      </trkpt>
      <trkpt lat="44.06386" lon="2.8075">
        <ele>359.19</ele>
        <time>2016-04-24T11:20:57Z</time>
      </trkpt>
      <trkpt lat="44.06382" lon="2.80745">
        <ele>359.19</ele>
        <time>2016-04-24T11:20:58Z</time>
      </trkpt>
      <trkpt lat="44.06378" lon="2.80735">
        <ele>358.71</ele>
        <time>2016-04-24T11:20:59Z</time>
      </trkpt>
      <trkpt lat="44.0637" lon="2.80721">
        <ele>361.11</ele>
        <time>2016-04-24T11:21:00Z</time>
      </trkpt>
      <trkpt lat="44.06364" lon="2.80711">
        <ele>361.59</ele>
        <time>2016-04-24T11:21:01Z</time>
      </trkpt>
      <trkpt lat="44.06357" lon="2.807">
        <ele>362.55</ele>
        <time>2016-04-24T11:21:02Z</time>
      </trkpt>
      <trkpt lat="44.06352" lon="2.80687">
        <ele>363.52</ele>
        <time>2016-04-24T11:21:03Z</time>
      </trkpt>
      <trkpt lat="44.06351" lon="2.80674">
        <ele>364.48</ele>
        <time>2016-04-24T11:21:04Z</time>
      </trkpt>
      <trkpt lat="44.06352" lon="2.80661">
        <ele>364</ele>
        <time>2016-04-24T11:21:05Z</time>
      </trkpt>
      <trkpt lat="44.06356" lon="2.80649">
        <ele>364</ele>
        <time>2016-04-24T11:21:06Z</time>
      </trkpt>
      <trkpt lat="44.06358" lon="2.80637">
        <ele>364</ele>
        <time>2016-04-24T11:21:07Z</time>
      </trkpt>
      <trkpt lat="44.06359" lon="2.80625">
        <ele>364.48</ele>
        <time>2016-04-24T11:21:08Z</time>
      </trkpt>
      <trkpt lat="44.06357" lon="2.80614">
        <ele>364</ele>
        <time>2016-04-24T11:21:09Z</time>
      </trkpt>
      <trkpt lat="44.06352" lon="2.80603">
        <ele>363.04</ele>
        <time>2016-04-24T11:21:10Z</time>
      </trkpt>
      <trkpt lat="44.06344" lon="2.80595">
        <ele>363.04</ele>
        <time>2016-04-24T11:21:11Z</time>
      </trkpt>
      <trkpt lat="44.06333" lon="2.80587">
        <ele>364</ele>
        <time>2016-04-24T11:21:12Z</time>
      </trkpt>
      <trkpt lat="44.06323" lon="2.8058">
        <ele>364</ele>
        <time>2016-04-24T11:21:13Z</time>
      </trkpt>
      <trkpt lat="44.06289" lon="2.80557">
        <ele>365.44</ele>
        <time>2016-04-24T11:21:16Z</time>
      </trkpt>
      <trkpt lat="44.06281" lon="2.80547">
        <ele>365.44</ele>
        <time>2016-04-24T11:21:17Z</time>
      </trkpt>
      <trkpt lat="44.06264" lon="2.80528">
        <ele>365.92</ele>
        <time>2016-04-24T11:21:19Z</time>
      </trkpt>
      <trkpt lat="44.06254" lon="2.8052">
        <ele>366.88</ele>
        <time>2016-04-24T11:21:20Z</time>
      </trkpt>
      <trkpt lat="44.06245" lon="2.80515">
        <ele>367.36</ele>
        <time>2016-04-24T11:21:21Z</time>
      </trkpt>
      <trkpt lat="44.06236" lon="2.80515">
        <ele>367.84</ele>
        <time>2016-04-24T11:21:22Z</time>
      </trkpt>
      <trkpt lat="44.06227" lon="2.80512">
        <ele>368.8</ele>
        <time>2016-04-24T11:21:23Z</time>
      </trkpt>
      <trkpt lat="44.06219" lon="2.80511">
        <ele>369.28</ele>
        <time>2016-04-24T11:21:24Z</time>
      </trkpt>
      <trkpt lat="44.06208" lon="2.80497">
        <ele>371.69</ele>
        <time>2016-04-24T11:21:26Z</time>
      </trkpt>
      <trkpt lat="44.06206" lon="2.80487">
        <ele>371.69</ele>
        <time>2016-04-24T11:21:27Z</time>
      </trkpt>
      <trkpt lat="44.06202" lon="2.80475">
        <ele>372.17</ele>
        <time>2016-04-24T11:21:28Z</time>
      </trkpt>
      <trkpt lat="44.06197" lon="2.80464">
        <ele>372.17</ele>
        <time>2016-04-24T11:21:29Z</time>
      </trkpt>
      <trkpt lat="44.06191" lon="2.80456">
        <ele>372.17</ele>
        <time>2016-04-24T11:21:30Z</time>
      </trkpt>
      <trkpt lat="44.06184" lon="2.8045">
        <ele>372.17</ele>
        <time>2016-04-24T11:21:31Z</time>
      </trkpt>
      <trkpt lat="44.06177" lon="2.80445">
        <ele>373.13</ele>
        <time>2016-04-24T11:21:32Z</time>
      </trkpt>
      <trkpt lat="44.06171" lon="2.80442">
        <ele>374.09</ele>
        <time>2016-04-24T11:21:33Z</time>
      </trkpt>
      <trkpt lat="44.06152" lon="2.80428">
        <ele>377.45</ele>
        <time>2016-04-24T11:21:41Z</time>
      </trkpt>
      <trkpt lat="44.06145" lon="2.8041">
        <ele>377.45</ele>
        <time>2016-04-24T11:21:44Z</time>
      </trkpt>
      <trkpt lat="44.06142" lon="2.80403">
        <ele>376.49</ele>
        <time>2016-04-24T11:21:45Z</time>
      </trkpt>
      <trkpt lat="44.06126" lon="2.80347">
        <ele>375.53</ele>
        <time>2016-04-24T11:21:50Z</time>
      </trkpt>
      <trkpt lat="44.0612" lon="2.80335">
        <ele>374.57</ele>
        <time>2016-04-24T11:21:51Z</time>
      </trkpt>
      <trkpt lat="44.06112" lon="2.80323">
        <ele>373.61</ele>
        <time>2016-04-24T11:21:52Z</time>
      </trkpt>
      <trkpt lat="44.06087" lon="2.80288">
        <ele>371.69</ele>
        <time>2016-04-24T11:21:55Z</time>
      </trkpt>
      <trkpt lat="44.0608" lon="2.80274">
        <ele>371.21</ele>
        <time>2016-04-24T11:21:56Z</time>
      </trkpt>
      <trkpt lat="44.06076" lon="2.80258">
        <ele>370.73</ele>
        <time>2016-04-24T11:21:57Z</time>
      </trkpt>
      <trkpt lat="44.06075" lon="2.80239">
        <ele>369.76</ele>
        <time>2016-04-24T11:21:58Z</time>
      </trkpt>
      <trkpt lat="44.06075" lon="2.8022">
        <ele>368.32</ele>
        <time>2016-04-24T11:21:59Z</time>
      </trkpt>
      <trkpt lat="44.06076" lon="2.802">
        <ele>366.88</ele>
        <time>2016-04-24T11:22:00Z</time>
      </trkpt>
      <trkpt lat="44.06066" lon="2.80114">
        <ele>362.07</ele>
        <time>2016-04-24T11:22:04Z</time>
      </trkpt>
      <trkpt lat="44.06046" lon="2.79958">
        <ele>352.46</ele>
        <time>2016-04-24T11:22:11Z</time>
      </trkpt>
      <trkpt lat="44.06048" lon="2.79916">
        <ele>350.06</ele>
        <time>2016-04-24T11:22:13Z</time>
      </trkpt>
      <trkpt lat="44.06047" lon="2.79895">
        <ele>348.62</ele>
        <time>2016-04-24T11:22:14Z</time>
      </trkpt>
      <trkpt lat="44.06044" lon="2.79874">
        <ele>346.69</ele>
        <time>2016-04-24T11:22:15Z</time>
      </trkpt>
      <trkpt lat="44.06038" lon="2.79853">
        <ele>344.77</ele>
        <time>2016-04-24T11:22:16Z</time>
      </trkpt>
      <trkpt lat="44.06031" lon="2.79833">
        <ele>343.33</ele>
        <time>2016-04-24T11:22:17Z</time>
      </trkpt>
      <trkpt lat="44.06021" lon="2.79815">
        <ele>341.89</ele>
        <time>2016-04-24T11:22:18Z</time>
      </trkpt>
      <trkpt lat="44.0601" lon="2.79799">
        <ele>340.44</ele>
        <time>2016-04-24T11:22:19Z</time>
      </trkpt>
      <trkpt lat="44.05998" lon="2.79784">
        <ele>339</ele>
        <time>2016-04-24T11:22:20Z</time>
      </trkpt>
      <trkpt lat="44.05976" lon="2.79754">
        <ele>336.12</ele>
        <time>2016-04-24T11:22:22Z</time>
      </trkpt>
      <trkpt lat="44.05967" lon="2.79736">
        <ele>334.68</ele>
        <time>2016-04-24T11:22:23Z</time>
      </trkpt>
      <trkpt lat="44.05961" lon="2.79718">
        <ele>333.23</ele>
        <time>2016-04-24T11:22:24Z</time>
      </trkpt>
      <trkpt lat="44.05955" lon="2.79699">
        <ele>331.79</ele>
        <time>2016-04-24T11:22:25Z</time>
      </trkpt>
      <trkpt lat="44.05951" lon="2.79681">
        <ele>330.83</ele>
        <time>2016-04-24T11:22:26Z</time>
      </trkpt>
      <trkpt lat="44.05939" lon="2.79645">
        <ele>328.43</ele>
        <time>2016-04-24T11:22:28Z</time>
      </trkpt>
      <trkpt lat="44.05931" lon="2.79627">
        <ele>326.99</ele>
        <time>2016-04-24T11:22:29Z</time>
      </trkpt>
      <trkpt lat="44.05923" lon="2.79611">
        <ele>326.02</ele>
        <time>2016-04-24T11:22:30Z</time>
      </trkpt>
      <trkpt lat="44.05913" lon="2.79596">
        <ele>324.58</ele>
        <time>2016-04-24T11:22:31Z</time>
      </trkpt>
      <trkpt lat="44.05903" lon="2.79582">
        <ele>323.62</ele>
        <time>2016-04-24T11:22:32Z</time>
      </trkpt>
      <trkpt lat="44.05893" lon="2.79571">
        <ele>322.66</ele>
        <time>2016-04-24T11:22:33Z</time>
      </trkpt>
      <trkpt lat="44.05882" lon="2.7956">
        <ele>321.7</ele>
        <time>2016-04-24T11:22:34Z</time>
      </trkpt>
      <trkpt lat="44.05872" lon="2.79549">
        <ele>320.26</ele>
        <time>2016-04-24T11:22:35Z</time>
      </trkpt>
      <trkpt lat="44.05863" lon="2.79535">
        <ele>319.3</ele>
        <time>2016-04-24T11:22:36Z</time>
      </trkpt>
      <trkpt lat="44.05856" lon="2.79519">
        <ele>318.33</ele>
        <time>2016-04-24T11:22:37Z</time>
      </trkpt>
      <trkpt lat="44.05854" lon="2.795">
        <ele>316.41</ele>
        <time>2016-04-24T11:22:38Z</time>
      </trkpt>
      <trkpt lat="44.05855" lon="2.7948">
        <ele>315.45</ele>
        <time>2016-04-24T11:22:39Z</time>
      </trkpt>
      <trkpt lat="44.0586" lon="2.79463">
        <ele>314.01</ele>
        <time>2016-04-24T11:22:40Z</time>
      </trkpt>
      <trkpt lat="44.05866" lon="2.79447">
        <ele>313.05</ele>
        <time>2016-04-24T11:22:41Z</time>
      </trkpt>
      <trkpt lat="44.05873" lon="2.7943">
        <ele>312.09</ele>
        <time>2016-04-24T11:22:42Z</time>
      </trkpt>
      <trkpt lat="44.05878" lon="2.79412">
        <ele>310.64</ele>
        <time>2016-04-24T11:22:43Z</time>
      </trkpt>
      <trkpt lat="44.05882" lon="2.79392">
        <ele>309.68</ele>
        <time>2016-04-24T11:22:44Z</time>
      </trkpt>
      <trkpt lat="44.05883" lon="2.79371">
        <ele>308.72</ele>
        <time>2016-04-24T11:22:45Z</time>
      </trkpt>
      <trkpt lat="44.05883" lon="2.7935">
        <ele>307.76</ele>
        <time>2016-04-24T11:22:46Z</time>
      </trkpt>
      <trkpt lat="44.05879" lon="2.79327">
        <ele>306.32</ele>
        <time>2016-04-24T11:22:47Z</time>
      </trkpt>
      <trkpt lat="44.05876" lon="2.79304">
        <ele>304.88</ele>
        <time>2016-04-24T11:22:48Z</time>
      </trkpt>
      <trkpt lat="44.05844" lon="2.7911">
        <ele>295.74</ele>
        <time>2016-04-24T11:22:58Z</time>
      </trkpt>
      <trkpt lat="44.05831" lon="2.79069">
        <ele>294.78</ele>
        <time>2016-04-24T11:23:01Z</time>
      </trkpt>
      <trkpt lat="44.05825" lon="2.79056">
        <ele>294.3</ele>
        <time>2016-04-24T11:23:02Z</time>
      </trkpt>
      <trkpt lat="44.05798" lon="2.79006">
        <ele>293.34</ele>
        <time>2016-04-24T11:23:06Z</time>
      </trkpt>
      <trkpt lat="44.05792" lon="2.78992">
        <ele>293.34</ele>
        <time>2016-04-24T11:23:07Z</time>
      </trkpt>
      <trkpt lat="44.05788" lon="2.78977">
        <ele>293.34</ele>
        <time>2016-04-24T11:23:08Z</time>
      </trkpt>
      <trkpt lat="44.05785" lon="2.78962">
        <ele>293.34</ele>
        <time>2016-04-24T11:23:09Z</time>
      </trkpt>
      <trkpt lat="44.05783" lon="2.78946">
        <ele>293.34</ele>
        <time>2016-04-24T11:23:10Z</time>
      </trkpt>
      <trkpt lat="44.05782" lon="2.78929">
        <ele>293.82</ele>
        <time>2016-04-24T11:23:11Z</time>
      </trkpt>
      <trkpt lat="44.05781" lon="2.78913">
        <ele>294.3</ele>
        <time>2016-04-24T11:23:12Z</time>
      </trkpt>
      <trkpt lat="44.05781" lon="2.78897">
        <ele>294.3</ele>
        <time>2016-04-24T11:23:13Z</time>
      </trkpt>
      <trkpt lat="44.05784" lon="2.7885">
        <ele>296.22</ele>
        <time>2016-04-24T11:23:19Z</time>
      </trkpt>
      <trkpt lat="44.05786" lon="2.78831">
        <ele>298.63</ele>
        <time>2016-04-24T11:23:32Z</time>
      </trkpt>
      <trkpt lat="44.05791" lon="2.78805">
        <ele>299.59</ele>
        <time>2016-04-24T11:23:36Z</time>
      </trkpt>
      <trkpt lat="44.058" lon="2.78765">
        <ele>300.55</ele>
        <time>2016-04-24T11:23:41Z</time>
      </trkpt>
      <trkpt lat="44.058" lon="2.78752">
        <ele>301.03</ele>
        <time>2016-04-24T11:23:42Z</time>
      </trkpt>
      <trkpt lat="44.058" lon="2.78682">
        <ele>301.51</ele>
        <time>2016-04-24T11:23:46Z</time>
      </trkpt>
      <trkpt lat="44.05803" lon="2.78665">
        <ele>301.51</ele>
        <time>2016-04-24T11:23:47Z</time>
      </trkpt>
      <trkpt lat="44.05806" lon="2.78648">
        <ele>301.51</ele>
        <time>2016-04-24T11:23:48Z</time>
      </trkpt>
      <trkpt lat="44.05812" lon="2.78635">
        <ele>301.99</ele>
        <time>2016-04-24T11:23:49Z</time>
      </trkpt>
      <trkpt lat="44.05822" lon="2.78622">
        <ele>302.95</ele>
        <time>2016-04-24T11:23:50Z</time>
      </trkpt>
      <trkpt lat="44.05836" lon="2.78609">
        <ele>303.91</ele>
        <time>2016-04-24T11:23:51Z</time>
      </trkpt>
      <trkpt lat="44.05848" lon="2.78596">
        <ele>303.91</ele>
        <time>2016-04-24T11:23:52Z</time>
      </trkpt>
      <trkpt lat="44.0589" lon="2.78545">
        <ele>305.84</ele>
        <time>2016-04-24T11:23:56Z</time>
      </trkpt>
      <trkpt lat="44.05902" lon="2.78537">
        <ele>306.32</ele>
        <time>2016-04-24T11:23:57Z</time>
      </trkpt>
      <trkpt lat="44.05914" lon="2.78531">
        <ele>307.28</ele>
        <time>2016-04-24T11:23:58Z</time>
      </trkpt>
      <trkpt lat="44.05927" lon="2.78527">
        <ele>307.28</ele>
        <time>2016-04-24T11:23:59Z</time>
      </trkpt>
      <trkpt lat="44.0594" lon="2.78524">
        <ele>308.24</ele>
        <time>2016-04-24T11:24:00Z</time>
      </trkpt>
      <trkpt lat="44.05953" lon="2.78523">
        <ele>309.2</ele>
        <time>2016-04-24T11:24:01Z</time>
      </trkpt>
      <trkpt lat="44.05967" lon="2.78523">
        <ele>310.16</ele>
        <time>2016-04-24T11:24:02Z</time>
      </trkpt>
      <trkpt lat="44.05981" lon="2.78526">
        <ele>310.64</ele>
        <time>2016-04-24T11:24:03Z</time>
      </trkpt>
      <trkpt lat="44.05994" lon="2.78531">
        <ele>311.12</ele>
        <time>2016-04-24T11:24:04Z</time>
      </trkpt>
      <trkpt lat="44.06005" lon="2.78537">
        <ele>310.64</ele>
        <time>2016-04-24T11:24:05Z</time>
      </trkpt>
      <trkpt lat="44.06017" lon="2.78547">
        <ele>312.09</ele>
        <time>2016-04-24T11:24:06Z</time>
      </trkpt>
      <trkpt lat="44.06028" lon="2.78558">
        <ele>311.6</ele>
        <time>2016-04-24T11:24:07Z</time>
      </trkpt>
      <trkpt lat="44.0604" lon="2.78571">
        <ele>311.12</ele>
        <time>2016-04-24T11:24:08Z</time>
      </trkpt>
      <trkpt lat="44.06117" lon="2.78671">
        <ele>309.2</ele>
        <time>2016-04-24T11:24:15Z</time>
      </trkpt>
      <trkpt lat="44.06127" lon="2.78678">
        <ele>308.72</ele>
        <time>2016-04-24T11:24:16Z</time>
      </trkpt>
      <trkpt lat="44.06137" lon="2.78683">
        <ele>306.8</ele>
        <time>2016-04-24T11:24:17Z</time>
      </trkpt>
      <trkpt lat="44.06148" lon="2.78685">
        <ele>305.36</ele>
        <time>2016-04-24T11:24:18Z</time>
      </trkpt>
      <trkpt lat="44.06159" lon="2.78683">
        <ele>305.36</ele>
        <time>2016-04-24T11:24:19Z</time>
      </trkpt>
      <trkpt lat="44.06169" lon="2.78678">
        <ele>305.36</ele>
        <time>2016-04-24T11:24:20Z</time>
      </trkpt>
      <trkpt lat="44.0618" lon="2.7867">
        <ele>305.36</ele>
        <time>2016-04-24T11:24:21Z</time>
      </trkpt>
      <trkpt lat="44.06191" lon="2.78661">
        <ele>304.88</ele>
        <time>2016-04-24T11:24:22Z</time>
      </trkpt>
      <trkpt lat="44.06287" lon="2.78587">
        <ele>305.36</ele>
        <time>2016-04-24T11:24:29Z</time>
      </trkpt>
      <trkpt lat="44.0631" lon="2.78559">
        <ele>305.36</ele>
        <time>2016-04-24T11:24:31Z</time>
      </trkpt>
      <trkpt lat="44.0632" lon="2.78542">
        <ele>305.84</ele>
        <time>2016-04-24T11:24:32Z</time>
      </trkpt>
      <trkpt lat="44.06328" lon="2.78522">
        <ele>305.36</ele>
        <time>2016-04-24T11:24:33Z</time>
      </trkpt>
      <trkpt lat="44.06336" lon="2.78502">
        <ele>303.91</ele>
        <time>2016-04-24T11:24:34Z</time>
      </trkpt>
      <trkpt lat="44.06342" lon="2.78482">
        <ele>302.47</ele>
        <time>2016-04-24T11:24:35Z</time>
      </trkpt>
      <trkpt lat="44.06348" lon="2.7846">
        <ele>302.47</ele>
        <time>2016-04-24T11:24:36Z</time>
      </trkpt>
      <trkpt lat="44.06354" lon="2.78438">
        <ele>302.95</ele>
        <time>2016-04-24T11:24:37Z</time>
      </trkpt>
      <trkpt lat="44.0637" lon="2.7828">
        <ele>305.36</ele>
        <time>2016-04-24T11:24:44Z</time>
      </trkpt>
      <trkpt lat="44.06367" lon="2.78259">
        <ele>305.84</ele>
        <time>2016-04-24T11:24:45Z</time>
      </trkpt>
      <trkpt lat="44.06364" lon="2.78239">
        <ele>306.32</ele>
        <time>2016-04-24T11:24:46Z</time>
      </trkpt>
      <trkpt lat="44.06359" lon="2.7822">
        <ele>306.32</ele>
        <time>2016-04-24T11:24:47Z</time>
      </trkpt>
      <trkpt lat="44.06353" lon="2.78201">
        <ele>305.84</ele>
        <time>2016-04-24T11:24:48Z</time>
      </trkpt>
      <trkpt lat="44.06346" lon="2.78182">
        <ele>305.36</ele>
        <time>2016-04-24T11:24:49Z</time>
      </trkpt>
      <trkpt lat="44.06337" lon="2.78163">
        <ele>304.88</ele>
        <time>2016-04-24T11:24:50Z</time>
      </trkpt>
      <trkpt lat="44.06328" lon="2.78145">
        <ele>303.91</ele>
        <time>2016-04-24T11:24:51Z</time>
      </trkpt>
      <trkpt lat="44.06317" lon="2.78127">
        <ele>302.47</ele>
        <time>2016-04-24T11:24:52Z</time>
      </trkpt>
      <trkpt lat="44.06305" lon="2.7811">
        <ele>301.03</ele>
        <time>2016-04-24T11:24:53Z</time>
      </trkpt>
      <trkpt lat="44.06238" lon="2.78004">
        <ele>296.7</ele>
        <time>2016-04-24T11:24:59Z</time>
      </trkpt>
      <trkpt lat="44.06224" lon="2.77995">
        <ele>295.74</ele>
        <time>2016-04-24T11:25:00Z</time>
      </trkpt>
      <trkpt lat="44.06198" lon="2.77979">
        <ele>295.26</ele>
        <time>2016-04-24T11:25:02Z</time>
      </trkpt>
      <trkpt lat="44.06184" lon="2.77974">
        <ele>295.74</ele>
        <time>2016-04-24T11:25:03Z</time>
      </trkpt>
      <trkpt lat="44.06158" lon="2.77966">
        <ele>295.74</ele>
        <time>2016-04-24T11:25:05Z</time>
      </trkpt>
      <trkpt lat="44.06146" lon="2.7796">
        <ele>294.78</ele>
        <time>2016-04-24T11:25:06Z</time>
      </trkpt>
      <trkpt lat="44.06135" lon="2.77947">
        <ele>295.26</ele>
        <time>2016-04-24T11:25:07Z</time>
      </trkpt>
      <trkpt lat="44.06125" lon="2.77931">
        <ele>296.22</ele>
        <time>2016-04-24T11:25:08Z</time>
      </trkpt>
      <trkpt lat="44.06116" lon="2.77913">
        <ele>297.18</ele>
        <time>2016-04-24T11:25:09Z</time>
      </trkpt>
      <trkpt lat="44.06105" lon="2.77894">
        <ele>299.11</ele>
        <time>2016-04-24T11:25:10Z</time>
      </trkpt>
      <trkpt lat="44.06044" lon="2.77796">
        <ele>301.51</ele>
        <time>2016-04-24T11:25:16Z</time>
      </trkpt>
      <trkpt lat="44.06037" lon="2.77777">
        <ele>302.47</ele>
        <time>2016-04-24T11:25:17Z</time>
      </trkpt>
      <trkpt lat="44.06033" lon="2.77758">
        <ele>302.95</ele>
        <time>2016-04-24T11:25:18Z</time>
      </trkpt>
      <trkpt lat="44.0603" lon="2.77738">
        <ele>303.43</ele>
        <time>2016-04-24T11:25:19Z</time>
      </trkpt>
      <trkpt lat="44.06029" lon="2.77719">
        <ele>303.91</ele>
        <time>2016-04-24T11:25:20Z</time>
      </trkpt>
      <trkpt lat="44.06029" lon="2.77701">
        <ele>304.39</ele>
        <time>2016-04-24T11:25:21Z</time>
      </trkpt>
      <trkpt lat="44.0603" lon="2.77683">
        <ele>304.88</ele>
        <time>2016-04-24T11:25:22Z</time>
      </trkpt>
      <trkpt lat="44.06034" lon="2.77666">
        <ele>305.84</ele>
        <time>2016-04-24T11:25:23Z</time>
      </trkpt>
      <trkpt lat="44.06042" lon="2.77649">
        <ele>306.32</ele>
        <time>2016-04-24T11:25:24Z</time>
      </trkpt>
      <trkpt lat="44.0605" lon="2.77631">
        <ele>307.28</ele>
        <time>2016-04-24T11:25:25Z</time>
      </trkpt>
      <trkpt lat="44.0606" lon="2.77612">
        <ele>308.72</ele>
        <time>2016-04-24T11:25:26Z</time>
      </trkpt>
      <trkpt lat="44.06071" lon="2.77594">
        <ele>310.16</ele>
        <time>2016-04-24T11:25:27Z</time>
      </trkpt>
      <trkpt lat="44.06082" lon="2.77575">
        <ele>310.64</ele>
        <time>2016-04-24T11:25:28Z</time>
      </trkpt>
      <trkpt lat="44.06102" lon="2.77535">
        <ele>311.12</ele>
        <time>2016-04-24T11:25:30Z</time>
      </trkpt>
      <trkpt lat="44.06111" lon="2.77511">
        <ele>311.12</ele>
        <time>2016-04-24T11:25:31Z</time>
      </trkpt>
      <trkpt lat="44.06118" lon="2.77485">
        <ele>311.12</ele>
        <time>2016-04-24T11:25:32Z</time>
      </trkpt>
      <trkpt lat="44.06153" lon="2.77322">
        <ele>311.12</ele>
        <time>2016-04-24T11:25:38Z</time>
      </trkpt>
      <trkpt lat="44.06154" lon="2.77297">
        <ele>311.12</ele>
        <time>2016-04-24T11:25:39Z</time>
      </trkpt>
      <trkpt lat="44.06154" lon="2.77273">
        <ele>311.6</ele>
        <time>2016-04-24T11:25:40Z</time>
      </trkpt>
      <trkpt lat="44.06152" lon="2.77248">
        <ele>312.09</ele>
        <time>2016-04-24T11:25:41Z</time>
      </trkpt>
      <trkpt lat="44.06149" lon="2.77224">
        <ele>312.57</ele>
        <time>2016-04-24T11:25:42Z</time>
      </trkpt>
      <trkpt lat="44.06144" lon="2.772">
        <ele>313.05</ele>
        <time>2016-04-24T11:25:43Z</time>
      </trkpt>
      <trkpt lat="44.06118" lon="2.77103">
        <ele>316.41</ele>
        <time>2016-04-24T11:25:48Z</time>
      </trkpt>
      <trkpt lat="44.06111" lon="2.77092">
        <ele>317.37</ele>
        <time>2016-04-24T11:25:49Z</time>
      </trkpt>
      <trkpt lat="44.06099" lon="2.77088">
        <ele>317.85</ele>
        <time>2016-04-24T11:25:50Z</time>
      </trkpt>
      <trkpt lat="44.06086" lon="2.77087">
        <ele>318.33</ele>
        <time>2016-04-24T11:25:51Z</time>
      </trkpt>
      <trkpt lat="44.06071" lon="2.77087">
        <ele>318.33</ele>
        <time>2016-04-24T11:25:52Z</time>
      </trkpt>
      <trkpt lat="44.06041" lon="2.77081">
        <ele>317.85</ele>
        <time>2016-04-24T11:25:54Z</time>
      </trkpt>
      <trkpt lat="44.06026" lon="2.77075">
        <ele>317.37</ele>
        <time>2016-04-24T11:25:55Z</time>
      </trkpt>
      <trkpt lat="44.05997" lon="2.77064">
        <ele>316.41</ele>
        <time>2016-04-24T11:25:57Z</time>
      </trkpt>
      <trkpt lat="44.0598" lon="2.77065">
        <ele>316.41</ele>
        <time>2016-04-24T11:25:58Z</time>
      </trkpt>
      <trkpt lat="44.05964" lon="2.77068">
        <ele>315.93</ele>
        <time>2016-04-24T11:25:59Z</time>
      </trkpt>
      <trkpt lat="44.05948" lon="2.7707">
        <ele>314.97</ele>
        <time>2016-04-24T11:26:00Z</time>
      </trkpt>
      <trkpt lat="44.05932" lon="2.77067">
        <ele>314.01</ele>
        <time>2016-04-24T11:26:01Z</time>
      </trkpt>
      <trkpt lat="44.05917" lon="2.7706">
        <ele>312.57</ele>
        <time>2016-04-24T11:26:02Z</time>
      </trkpt>
      <trkpt lat="44.05904" lon="2.77049">
        <ele>311.6</ele>
        <time>2016-04-24T11:26:03Z</time>
      </trkpt>
      <trkpt lat="44.05891" lon="2.77037">
        <ele>310.64</ele>
        <time>2016-04-24T11:26:04Z</time>
      </trkpt>
      <trkpt lat="44.0588" lon="2.77023">
        <ele>309.2</ele>
        <time>2016-04-24T11:26:05Z</time>
      </trkpt>
      <trkpt lat="44.0587" lon="2.77009">
        <ele>307.28</ele>
        <time>2016-04-24T11:26:06Z</time>
      </trkpt>
      <trkpt lat="44.0575" lon="2.76865">
        <ele>288.53</ele>
        <time>2016-04-24T11:26:16Z</time>
      </trkpt>
      <trkpt lat="44.05681" lon="2.76768">
        <ele>278.92</ele>
        <time>2016-04-24T11:26:22Z</time>
      </trkpt>
      <trkpt lat="44.05661" lon="2.76736">
        <ele>276.52</ele>
        <time>2016-04-24T11:26:24Z</time>
      </trkpt>
      <trkpt lat="44.0565" lon="2.76722">
        <ele>275.56</ele>
        <time>2016-04-24T11:26:25Z</time>
      </trkpt>
      <trkpt lat="44.05637" lon="2.76712">
        <ele>274.59</ele>
        <time>2016-04-24T11:26:26Z</time>
      </trkpt>
      <trkpt lat="44.05622" lon="2.76705">
        <ele>273.63</ele>
        <time>2016-04-24T11:26:27Z</time>
      </trkpt>
      <trkpt lat="44.05605" lon="2.767">
        <ele>273.15</ele>
        <time>2016-04-24T11:26:28Z</time>
      </trkpt>
      <trkpt lat="44.05587" lon="2.76693">
        <ele>272.67</ele>
        <time>2016-04-24T11:26:29Z</time>
      </trkpt>
      <trkpt lat="44.05464" lon="2.76604">
        <ele>272.19</ele>
        <time>2016-04-24T11:26:36Z</time>
      </trkpt>
      <trkpt lat="44.05321" lon="2.76499">
        <ele>272.19</ele>
        <time>2016-04-24T11:26:45Z</time>
      </trkpt>
      <trkpt lat="44.05222" lon="2.7646">
        <ele>273.63</ele>
        <time>2016-04-24T11:26:52Z</time>
      </trkpt>
      <trkpt lat="44.05162" lon="2.7645">
        <ele>275.56</ele>
        <time>2016-04-24T11:26:58Z</time>
      </trkpt>
      <trkpt lat="44.05125" lon="2.76448">
        <ele>276.52</ele>
        <time>2016-04-24T11:27:03Z</time>
      </trkpt>
      <trkpt lat="44.05083" lon="2.7644">
        <ele>277</ele>
        <time>2016-04-24T11:27:06Z</time>
      </trkpt>
      <trkpt lat="44.05065" lon="2.76437">
        <ele>277</ele>
        <time>2016-04-24T11:27:07Z</time>
      </trkpt>
      <trkpt lat="44.05047" lon="2.76431">
        <ele>277</ele>
        <time>2016-04-24T11:27:08Z</time>
      </trkpt>
      <trkpt lat="44.05028" lon="2.76423">
        <ele>276.52</ele>
        <time>2016-04-24T11:27:09Z</time>
      </trkpt>
      <trkpt lat="44.05011" lon="2.76413">
        <ele>277</ele>
        <time>2016-04-24T11:27:10Z</time>
      </trkpt>
      <trkpt lat="44.04996" lon="2.76404">
        <ele>277.48</ele>
        <time>2016-04-24T11:27:11Z</time>
      </trkpt>
      <trkpt lat="44.04919" lon="2.76332">
        <ele>277.48</ele>
        <time>2016-04-24T11:27:18Z</time>
      </trkpt>
      <trkpt lat="44.04914" lon="2.7632">
        <ele>277.48</ele>
        <time>2016-04-24T11:27:19Z</time>
      </trkpt>
      <trkpt lat="44.04911" lon="2.76307">
        <ele>277.48</ele>
        <time>2016-04-24T11:27:20Z</time>
      </trkpt>
      <trkpt lat="44.04911" lon="2.76294">
        <ele>277</ele>
        <time>2016-04-24T11:27:21Z</time>
      </trkpt>
      <trkpt lat="44.04915" lon="2.76283">
        <ele>276.52</ele>
        <time>2016-04-24T11:27:22Z</time>
      </trkpt>
      <trkpt lat="44.0492" lon="2.76274">
        <ele>276.52</ele>
        <time>2016-04-24T11:27:23Z</time>
      </trkpt>
      <trkpt lat="44.04925" lon="2.76267">
        <ele>276.04</ele>
        <time>2016-04-24T11:27:24Z</time>
      </trkpt>
      <trkpt lat="44.04931" lon="2.76259">
        <ele>276.04</ele>
        <time>2016-04-24T11:27:25Z</time>
      </trkpt>
      <trkpt lat="44.04987" lon="2.76167">
        <ele>275.07</ele>
        <time>2016-04-24T11:27:37Z</time>
      </trkpt>
      <trkpt lat="44.04989" lon="2.76159">
        <ele>275.07</ele>
        <time>2016-04-24T11:27:38Z</time>
      </trkpt>
      <trkpt lat="44.04989" lon="2.7615">
        <ele>275.07</ele>
        <time>2016-04-24T11:27:39Z</time>
      </trkpt>
      <trkpt lat="44.04987" lon="2.76141">
        <ele>274.59</ele>
        <time>2016-04-24T11:27:40Z</time>
      </trkpt>
      <trkpt lat="44.04984" lon="2.76133">
        <ele>274.59</ele>
        <time>2016-04-24T11:27:41Z</time>
      </trkpt>
      <trkpt lat="44.04979" lon="2.76124">
        <ele>274.59</ele>
        <time>2016-04-24T11:27:42Z</time>
      </trkpt>
      <trkpt lat="44.0492" lon="2.75991">
        <ele>270.27</ele>
        <time>2016-04-24T11:27:57Z</time>
      </trkpt>
      <trkpt lat="44.04907" lon="2.75878">
        <ele>268.83</ele>
        <time>2016-04-24T11:28:07Z</time>
      </trkpt>
      <trkpt lat="44.04917" lon="2.75746">
        <ele>268.83</ele>
        <time>2016-04-24T11:28:18Z</time>
      </trkpt>
      <trkpt lat="44.04909" lon="2.75639">
        <ele>269.31</ele>
        <time>2016-04-24T11:28:27Z</time>
      </trkpt>
      <trkpt lat="44.04905" lon="2.75605">
        <ele>269.79</ele>
        <time>2016-04-24T11:28:30Z</time>
      </trkpt>
      <trkpt lat="44.04902" lon="2.75592">
        <ele>270.27</ele>
        <time>2016-04-24T11:28:31Z</time>
      </trkpt>
      <trkpt lat="44.04898" lon="2.7558">
        <ele>270.27</ele>
        <time>2016-04-24T11:28:32Z</time>
      </trkpt>
      <trkpt lat="44.04892" lon="2.75568">
        <ele>270.75</ele>
        <time>2016-04-24T11:28:33Z</time>
      </trkpt>
      <trkpt lat="44.04887" lon="2.75558">
        <ele>271.23</ele>
        <time>2016-04-24T11:28:34Z</time>
      </trkpt>
      <trkpt lat="44.04873" lon="2.75519">
        <ele>273.15</ele>
        <time>2016-04-24T11:28:41Z</time>
      </trkpt>
      <trkpt lat="44.04868" lon="2.75497">
        <ele>274.11</ele>
        <time>2016-04-24T11:28:51Z</time>
      </trkpt>
      <trkpt lat="44.04867" lon="2.75495">
        <ele>274.11</ele>
        <time>2016-04-24T11:28:52Z</time>
      </trkpt>
      <trkpt lat="44.04866" lon="2.75495">
        <ele>274.11</ele>
        <time>2016-04-24T11:28:53Z</time>
      </trkpt>
      <trkpt lat="44.04865" lon="2.75495">
        <ele>274.11</ele>
        <time>2016-04-24T11:28:54Z</time>
      </trkpt>
      <trkpt lat="44.04863" lon="2.75495">
        <ele>273.63</ele>
        <time>2016-04-24T11:28:55Z</time>
      </trkpt>
      <trkpt lat="44.04862" lon="2.75497">
        <ele>273.63</ele>
        <time>2016-04-24T11:28:56Z</time>
      </trkpt>
      <trkpt lat="44.04861" lon="2.75499">
        <ele>273.15</ele>
        <time>2016-04-24T11:28:57Z</time>
      </trkpt>
      <trkpt lat="44.04862" lon="2.75502">
        <ele>273.15</ele>
        <time>2016-04-24T11:28:58Z</time>
      </trkpt>
      <trkpt lat="44.04862" lon="2.75504">
        <ele>273.15</ele>
        <time>2016-04-24T11:28:59Z</time>
      </trkpt>
      <trkpt lat="44.04863" lon="2.75506">
        <ele>273.15</ele>
        <time>2016-04-24T11:29:00Z</time>
      </trkpt>
      <trkpt lat="44.04865" lon="2.75508">
        <ele>273.15</ele>
        <time>2016-04-24T11:29:01Z</time>
      </trkpt>
      <trkpt lat="44.04867" lon="2.7551">
        <ele>272.67</ele>
        <time>2016-04-24T11:29:02Z</time>
      </trkpt>
      <trkpt lat="44.04879" lon="2.7551">
        <ele>273.15</ele>
        <time>2016-04-24T11:29:10Z</time>
      </trkpt>
      <trkpt lat="44.04879" lon="2.75511">
        <ele>273.15</ele>
        <time>2016-04-24T11:29:25Z</time>
      </trkpt>
      <trkpt lat="44.04882" lon="2.7551">
        <ele>261.62</ele>
        <time>2016-04-24T12:04:52Z</time>
      </trkpt>
      <trkpt lat="44.04879" lon="2.7551">
        <ele>263.54</ele>
        <time>2016-04-24T12:05:37Z</time>
      </trkpt>
      <trkpt lat="44.04881" lon="2.75508">
        <ele>260.65</ele>
        <time>2016-04-24T12:07:14Z</time>
      </trkpt>
      <trkpt lat="44.04877" lon="2.75514">
        <ele>268.83</ele>
        <time>2016-04-24T12:07:38Z</time>
      </trkpt>
      <trkpt lat="44.04876" lon="2.75518">
        <ele>269.31</ele>
        <time>2016-04-24T12:08:48Z</time>
      </trkpt>
      <trkpt lat="44.04874" lon="2.75516">
        <ele>274.11</ele>
        <time>2016-04-24T12:11:36Z</time>
      </trkpt>
      <trkpt lat="44.04869" lon="2.75474">
        <ele>275.07</ele>
        <time>2016-04-24T12:11:46Z</time>
      </trkpt>
      <trkpt lat="44.04868" lon="2.75468">
        <ele>274.59</ele>
        <time>2016-04-24T12:11:47Z</time>
      </trkpt>
      <trkpt lat="44.04862" lon="2.75448">
        <ele>273.63</ele>
        <time>2016-04-24T12:11:50Z</time>
      </trkpt>
      <trkpt lat="44.04859" lon="2.75441">
        <ele>273.63</ele>
        <time>2016-04-24T12:11:51Z</time>
      </trkpt>
      <trkpt lat="44.04855" lon="2.75436">
        <ele>273.15</ele>
        <time>2016-04-24T12:11:52Z</time>
      </trkpt>
      <trkpt lat="44.04849" lon="2.75432">
        <ele>272.67</ele>
        <time>2016-04-24T12:11:53Z</time>
      </trkpt>
      <trkpt lat="44.04843" lon="2.75429">
        <ele>272.19</ele>
        <time>2016-04-24T12:11:54Z</time>
      </trkpt>
      <trkpt lat="44.04833" lon="2.75422">
        <ele>272.19</ele>
        <time>2016-04-24T12:11:56Z</time>
      </trkpt>
      <trkpt lat="44.04828" lon="2.75418">
        <ele>271.71</ele>
        <time>2016-04-24T12:11:57Z</time>
      </trkpt>
      <trkpt lat="44.04824" lon="2.75412">
        <ele>271.71</ele>
        <time>2016-04-24T12:11:58Z</time>
      </trkpt>
      <trkpt lat="44.0482" lon="2.75406">
        <ele>271.23</ele>
        <time>2016-04-24T12:11:59Z</time>
      </trkpt>
      <trkpt lat="44.04816" lon="2.75398">
        <ele>271.23</ele>
        <time>2016-04-24T12:12:00Z</time>
      </trkpt>
      <trkpt lat="44.04813" lon="2.75389">
        <ele>270.75</ele>
        <time>2016-04-24T12:12:01Z</time>
      </trkpt>
      <trkpt lat="44.0481" lon="2.7538">
        <ele>270.75</ele>
        <time>2016-04-24T12:12:02Z</time>
      </trkpt>
      <trkpt lat="44.04777" lon="2.75241">
        <ele>269.79</ele>
        <time>2016-04-24T12:12:17Z</time>
      </trkpt>
      <trkpt lat="44.04747" lon="2.7507">
        <ele>269.79</ele>
        <time>2016-04-24T12:12:33Z</time>
      </trkpt>
      <trkpt lat="44.04715" lon="2.74926">
        <ele>269.31</ele>
        <time>2016-04-24T12:12:45Z</time>
      </trkpt>
      <trkpt lat="44.04691" lon="2.74843">
        <ele>269.79</ele>
        <time>2016-04-24T12:12:54Z</time>
      </trkpt>
      <trkpt lat="44.04649" lon="2.74722">
        <ele>269.79</ele>
        <time>2016-04-24T12:13:01Z</time>
      </trkpt>
      <trkpt lat="44.04589" lon="2.74595">
        <ele>270.27</ele>
        <time>2016-04-24T12:13:09Z</time>
      </trkpt>
      <trkpt lat="44.0452" lon="2.74434">
        <ele>270.27</ele>
        <time>2016-04-24T12:13:18Z</time>
      </trkpt>
      <trkpt lat="44.04435" lon="2.74294">
        <ele>270.75</ele>
        <time>2016-04-24T12:13:25Z</time>
      </trkpt>
      <trkpt lat="44.04327" lon="2.7416">
        <ele>274.59</ele>
        <time>2016-04-24T12:13:32Z</time>
      </trkpt>
      <trkpt lat="44.04219" lon="2.73974">
        <ele>276.04</ele>
        <time>2016-04-24T12:13:41Z</time>
      </trkpt>
      <trkpt lat="44.04109" lon="2.73788">
        <ele>273.63</ele>
        <time>2016-04-24T12:13:49Z</time>
      </trkpt>
      <trkpt lat="44.03949" lon="2.73544">
        <ele>273.63</ele>
        <time>2016-04-24T12:14:00Z</time>
      </trkpt>
      <trkpt lat="44.03801" lon="2.73354">
        <ele>273.15</ele>
        <time>2016-04-24T12:14:10Z</time>
      </trkpt>
      <trkpt lat="44.03627" lon="2.73154">
        <ele>272.19</ele>
        <time>2016-04-24T12:14:22Z</time>
      </trkpt>
      <trkpt lat="44.03609" lon="2.73142">
        <ele>272.19</ele>
        <time>2016-04-24T12:14:23Z</time>
      </trkpt>
      <trkpt lat="44.03591" lon="2.73133">
        <ele>271.71</ele>
        <time>2016-04-24T12:14:24Z</time>
      </trkpt>
      <trkpt lat="44.03573" lon="2.73126">
        <ele>271.71</ele>
        <time>2016-04-24T12:14:25Z</time>
      </trkpt>
      <trkpt lat="44.03555" lon="2.73121">
        <ele>270.75</ele>
        <time>2016-04-24T12:14:26Z</time>
      </trkpt>
      <trkpt lat="44.03537" lon="2.73118">
        <ele>270.27</ele>
        <time>2016-04-24T12:14:27Z</time>
      </trkpt>
      <trkpt lat="44.03414" lon="2.73072">
        <ele>269.79</ele>
        <time>2016-04-24T12:14:34Z</time>
      </trkpt>
      <trkpt lat="44.034" lon="2.73058">
        <ele>272.19</ele>
        <time>2016-04-24T12:14:35Z</time>
      </trkpt>
      <trkpt lat="44.03388" lon="2.73042">
        <ele>272.67</ele>
        <time>2016-04-24T12:14:36Z</time>
      </trkpt>
      <trkpt lat="44.03378" lon="2.73024">
        <ele>273.15</ele>
        <time>2016-04-24T12:14:37Z</time>
      </trkpt>
      <trkpt lat="44.03369" lon="2.73004">
        <ele>273.15</ele>
        <time>2016-04-24T12:14:38Z</time>
      </trkpt>
      <trkpt lat="44.03361" lon="2.72984">
        <ele>273.63</ele>
        <time>2016-04-24T12:14:39Z</time>
      </trkpt>
      <trkpt lat="44.0334" lon="2.72927">
        <ele>274.59</ele>
        <time>2016-04-24T12:14:42Z</time>
      </trkpt>
      <trkpt lat="44.03335" lon="2.72905">
        <ele>274.11</ele>
        <time>2016-04-24T12:14:43Z</time>
      </trkpt>
      <trkpt lat="44.03331" lon="2.72882">
        <ele>273.63</ele>
        <time>2016-04-24T12:14:44Z</time>
      </trkpt>
      <trkpt lat="44.03319" lon="2.72683">
        <ele>272.67</ele>
        <time>2016-04-24T12:14:51Z</time>
      </trkpt>
      <trkpt lat="44.03285" lon="2.724">
        <ele>273.15</ele>
        <time>2016-04-24T12:15:00Z</time>
      </trkpt>
      <trkpt lat="44.03276" lon="2.72372">
        <ele>273.15</ele>
        <time>2016-04-24T12:15:01Z</time>
      </trkpt>
      <trkpt lat="44.03265" lon="2.72344">
        <ele>272.67</ele>
        <time>2016-04-24T12:15:02Z</time>
      </trkpt>
      <trkpt lat="44.03253" lon="2.72318">
        <ele>272.67</ele>
        <time>2016-04-24T12:15:03Z</time>
      </trkpt>
      <trkpt lat="44.03239" lon="2.72293">
        <ele>272.19</ele>
        <time>2016-04-24T12:15:04Z</time>
      </trkpt>
      <trkpt lat="44.03224" lon="2.72269">
        <ele>272.19</ele>
        <time>2016-04-24T12:15:05Z</time>
      </trkpt>
      <trkpt lat="44.03206" lon="2.72246">
        <ele>272.19</ele>
        <time>2016-04-24T12:15:06Z</time>
      </trkpt>
      <trkpt lat="44.03189" lon="2.72223">
        <ele>272.19</ele>
        <time>2016-04-24T12:15:07Z</time>
      </trkpt>
      <trkpt lat="44.03049" lon="2.72046">
        <ele>272.19</ele>
        <time>2016-04-24T12:15:15Z</time>
      </trkpt>
      <trkpt lat="44.02959" lon="2.71979">
        <ele>271.23</ele>
        <time>2016-04-24T12:15:20Z</time>
      </trkpt>
      <trkpt lat="44.02939" lon="2.71973">
        <ele>270.27</ele>
        <time>2016-04-24T12:15:21Z</time>
      </trkpt>
      <trkpt lat="44.02919" lon="2.71969">
        <ele>269.79</ele>
        <time>2016-04-24T12:15:22Z</time>
      </trkpt>
      <trkpt lat="44.02898" lon="2.71966">
        <ele>269.79</ele>
        <time>2016-04-24T12:15:23Z</time>
      </trkpt>
      <trkpt lat="44.02877" lon="2.7196">
        <ele>269.31</ele>
        <time>2016-04-24T12:15:24Z</time>
      </trkpt>
      <trkpt lat="44.02857" lon="2.71952">
        <ele>269.31</ele>
        <time>2016-04-24T12:15:25Z</time>
      </trkpt>
      <trkpt lat="44.02729" lon="2.71907">
        <ele>269.31</ele>
        <time>2016-04-24T12:15:32Z</time>
      </trkpt>
      <trkpt lat="44.02698" lon="2.71884">
        <ele>268.83</ele>
        <time>2016-04-24T12:15:34Z</time>
      </trkpt>
      <trkpt lat="44.02683" lon="2.7187">
        <ele>269.31</ele>
        <time>2016-04-24T12:15:35Z</time>
      </trkpt>
      <trkpt lat="44.02656" lon="2.71841">
        <ele>269.31</ele>
        <time>2016-04-24T12:15:37Z</time>
      </trkpt>
      <trkpt lat="44.02646" lon="2.71824">
        <ele>269.31</ele>
        <time>2016-04-24T12:15:38Z</time>
      </trkpt>
      <trkpt lat="44.02637" lon="2.71806">
        <ele>269.31</ele>
        <time>2016-04-24T12:15:39Z</time>
      </trkpt>
      <trkpt lat="44.02632" lon="2.71787">
        <ele>269.31</ele>
        <time>2016-04-24T12:15:40Z</time>
      </trkpt>
      <trkpt lat="44.02629" lon="2.71768">
        <ele>269.31</ele>
        <time>2016-04-24T12:15:41Z</time>
      </trkpt>
      <trkpt lat="44.02628" lon="2.71749">
        <ele>269.79</ele>
        <time>2016-04-24T12:15:42Z</time>
      </trkpt>
      <trkpt lat="44.02626" lon="2.7173">
        <ele>269.79</ele>
        <time>2016-04-24T12:15:43Z</time>
      </trkpt>
      <trkpt lat="44.02621" lon="2.71711">
        <ele>269.79</ele>
        <time>2016-04-24T12:15:44Z</time>
      </trkpt>
      <trkpt lat="44.02615" lon="2.71694">
        <ele>269.79</ele>
        <time>2016-04-24T12:15:45Z</time>
      </trkpt>
      <trkpt lat="44.02605" lon="2.71679">
        <ele>269.79</ele>
        <time>2016-04-24T12:15:46Z</time>
      </trkpt>
      <trkpt lat="44.02594" lon="2.71663">
        <ele>270.27</ele>
        <time>2016-04-24T12:15:47Z</time>
      </trkpt>
      <trkpt lat="44.02583" lon="2.71646">
        <ele>270.27</ele>
        <time>2016-04-24T12:15:48Z</time>
      </trkpt>
      <trkpt lat="44.02574" lon="2.71626">
        <ele>269.79</ele>
        <time>2016-04-24T12:15:49Z</time>
      </trkpt>
      <trkpt lat="44.02519" lon="2.71526">
        <ele>270.27</ele>
        <time>2016-04-24T12:15:54Z</time>
      </trkpt>
      <trkpt lat="44.02504" lon="2.71509">
        <ele>270.27</ele>
        <time>2016-04-24T12:15:55Z</time>
      </trkpt>
      <trkpt lat="44.02488" lon="2.71496">
        <ele>270.27</ele>
        <time>2016-04-24T12:15:56Z</time>
      </trkpt>
      <trkpt lat="44.02471" lon="2.71488">
        <ele>269.79</ele>
        <time>2016-04-24T12:15:57Z</time>
      </trkpt>
      <trkpt lat="44.02454" lon="2.71485">
        <ele>269.31</ele>
        <time>2016-04-24T12:15:58Z</time>
      </trkpt>
      <trkpt lat="44.02437" lon="2.71486">
        <ele>269.31</ele>
        <time>2016-04-24T12:15:59Z</time>
      </trkpt>
      <trkpt lat="44.02421" lon="2.71488">
        <ele>269.31</ele>
        <time>2016-04-24T12:16:00Z</time>
      </trkpt>
      <trkpt lat="44.02405" lon="2.71488">
        <ele>268.83</ele>
        <time>2016-04-24T12:16:01Z</time>
      </trkpt>
      <trkpt lat="44.02389" lon="2.71484">
        <ele>268.83</ele>
        <time>2016-04-24T12:16:02Z</time>
      </trkpt>
      <trkpt lat="44.02373" lon="2.71477">
        <ele>268.83</ele>
        <time>2016-04-24T12:16:03Z</time>
      </trkpt>
      <trkpt lat="44.0234" lon="2.71463">
        <ele>268.83</ele>
        <time>2016-04-24T12:16:05Z</time>
      </trkpt>
      <trkpt lat="44.02322" lon="2.71459">
        <ele>268.35</ele>
        <time>2016-04-24T12:16:06Z</time>
      </trkpt>
      <trkpt lat="44.02303" lon="2.71456">
        <ele>268.35</ele>
        <time>2016-04-24T12:16:07Z</time>
      </trkpt>
      <trkpt lat="44.02146" lon="2.7143">
        <ele>272.67</ele>
        <time>2016-04-24T12:16:15Z</time>
      </trkpt>
      <trkpt lat="44.02043" lon="2.71376">
        <ele>278.92</ele>
        <time>2016-04-24T12:16:22Z</time>
      </trkpt>
      <trkpt lat="44.0202" lon="2.71358">
        <ele>281.32</ele>
        <time>2016-04-24T12:16:24Z</time>
      </trkpt>
      <trkpt lat="44.02011" lon="2.71345">
        <ele>282.77</ele>
        <time>2016-04-24T12:16:25Z</time>
      </trkpt>
      <trkpt lat="44.02004" lon="2.71331">
        <ele>284.21</ele>
        <time>2016-04-24T12:16:26Z</time>
      </trkpt>
      <trkpt lat="44.01999" lon="2.71315">
        <ele>285.65</ele>
        <time>2016-04-24T12:16:27Z</time>
      </trkpt>
      <trkpt lat="44.01993" lon="2.71302">
        <ele>287.09</ele>
        <time>2016-04-24T12:16:28Z</time>
      </trkpt>
      <trkpt lat="44.01985" lon="2.71291">
        <ele>287.57</ele>
        <time>2016-04-24T12:16:29Z</time>
      </trkpt>
      <trkpt lat="44.01976" lon="2.71286">
        <ele>288.53</ele>
        <time>2016-04-24T12:16:30Z</time>
      </trkpt>
      <trkpt lat="44.01965" lon="2.71288">
        <ele>289.01</ele>
        <time>2016-04-24T12:16:31Z</time>
      </trkpt>
      <trkpt lat="44.01954" lon="2.71293">
        <ele>289.49</ele>
        <time>2016-04-24T12:16:32Z</time>
      </trkpt>
      <trkpt lat="44.01943" lon="2.71299">
        <ele>290.46</ele>
        <time>2016-04-24T12:16:33Z</time>
      </trkpt>
      <trkpt lat="44.01932" lon="2.71302">
        <ele>291.42</ele>
        <time>2016-04-24T12:16:34Z</time>
      </trkpt>
      <trkpt lat="44.0192" lon="2.71296">
        <ele>291.9</ele>
        <time>2016-04-24T12:16:35Z</time>
      </trkpt>
      <trkpt lat="44.01909" lon="2.71287">
        <ele>292.86</ele>
        <time>2016-04-24T12:16:36Z</time>
      </trkpt>
      <trkpt lat="44.01898" lon="2.71275">
        <ele>293.82</ele>
        <time>2016-04-24T12:16:37Z</time>
      </trkpt>
      <trkpt lat="44.01888" lon="2.71264">
        <ele>294.3</ele>
        <time>2016-04-24T12:16:38Z</time>
      </trkpt>
      <trkpt lat="44.01836" lon="2.71218">
        <ele>294.78</ele>
        <time>2016-04-24T12:16:43Z</time>
      </trkpt>
      <trkpt lat="44.01824" lon="2.71213">
        <ele>294.3</ele>
        <time>2016-04-24T12:16:44Z</time>
      </trkpt>
      <trkpt lat="44.01812" lon="2.71209">
        <ele>293.34</ele>
        <time>2016-04-24T12:16:45Z</time>
      </trkpt>
      <trkpt lat="44.01799" lon="2.71207">
        <ele>292.38</ele>
        <time>2016-04-24T12:16:46Z</time>
      </trkpt>
      <trkpt lat="44.01785" lon="2.71207">
        <ele>291.42</ele>
        <time>2016-04-24T12:16:47Z</time>
      </trkpt>
      <trkpt lat="44.01698" lon="2.71195">
        <ele>281.32</ele>
        <time>2016-04-24T12:16:54Z</time>
      </trkpt>
      <trkpt lat="44.0169" lon="2.71188">
        <ele>280.36</ele>
        <time>2016-04-24T12:16:55Z</time>
      </trkpt>
      <trkpt lat="44.01683" lon="2.71178">
        <ele>279.4</ele>
        <time>2016-04-24T12:16:56Z</time>
      </trkpt>
      <trkpt lat="44.0168" lon="2.71163">
        <ele>275.56</ele>
        <time>2016-04-24T12:16:57Z</time>
      </trkpt>
      <trkpt lat="44.01681" lon="2.71147">
        <ele>274.59</ele>
        <time>2016-04-24T12:16:58Z</time>
      </trkpt>
      <trkpt lat="44.01686" lon="2.71129">
        <ele>274.11</ele>
        <time>2016-04-24T12:16:59Z</time>
      </trkpt>
      <trkpt lat="44.01687" lon="2.71115">
        <ele>272.67</ele>
        <time>2016-04-24T12:17:00Z</time>
      </trkpt>
      <trkpt lat="44.01683" lon="2.71105">
        <ele>272.19</ele>
        <time>2016-04-24T12:17:01Z</time>
      </trkpt>
      <trkpt lat="44.01668" lon="2.71101">
        <ele>269.31</ele>
        <time>2016-04-24T12:17:03Z</time>
      </trkpt>
      <trkpt lat="44.01659" lon="2.71108">
        <ele>266.42</ele>
        <time>2016-04-24T12:17:04Z</time>
      </trkpt>
      <trkpt lat="44.01649" lon="2.7113">
        <ele>262.58</ele>
        <time>2016-04-24T12:17:06Z</time>
      </trkpt>
      <trkpt lat="44.01648" lon="2.71144">
        <ele>260.17</ele>
        <time>2016-04-24T12:17:07Z</time>
      </trkpt>
      <trkpt lat="44.01641" lon="2.71165">
        <ele>257.77</ele>
        <time>2016-04-24T12:17:08Z</time>
      </trkpt>
      <trkpt lat="44.01635" lon="2.71181">
        <ele>255.85</ele>
        <time>2016-04-24T12:17:09Z</time>
      </trkpt>
      <trkpt lat="44.01624" lon="2.71197">
        <ele>254.41</ele>
        <time>2016-04-24T12:17:10Z</time>
      </trkpt>
      <trkpt lat="44.0161" lon="2.71206">
        <ele>253.44</ele>
        <time>2016-04-24T12:17:11Z</time>
      </trkpt>
      <trkpt lat="44.01595" lon="2.71211">
        <ele>252.48</ele>
        <time>2016-04-24T12:17:12Z</time>
      </trkpt>
      <trkpt lat="44.01579" lon="2.71214">
        <ele>252.48</ele>
        <time>2016-04-24T12:17:13Z</time>
      </trkpt>
      <trkpt lat="44.01563" lon="2.71214">
        <ele>252.48</ele>
        <time>2016-04-24T12:17:14Z</time>
      </trkpt>
      <trkpt lat="44.01549" lon="2.71213">
        <ele>252.96</ele>
        <time>2016-04-24T12:17:15Z</time>
      </trkpt>
      <trkpt lat="44.01492" lon="2.71213">
        <ele>255.37</ele>
        <time>2016-04-24T12:17:21Z</time>
      </trkpt>
      <trkpt lat="44.0139" lon="2.71226">
        <ele>257.77</ele>
        <time>2016-04-24T12:17:30Z</time>
      </trkpt>
      <trkpt lat="44.01309" lon="2.71234">
        <ele>257.29</ele>
        <time>2016-04-24T12:17:35Z</time>
      </trkpt>
      <trkpt lat="44.01293" lon="2.7123">
        <ele>256.81</ele>
        <time>2016-04-24T12:17:36Z</time>
      </trkpt>
      <trkpt lat="44.01277" lon="2.71223">
        <ele>256.81</ele>
        <time>2016-04-24T12:17:37Z</time>
      </trkpt>
      <trkpt lat="44.01139" lon="2.71146">
        <ele>260.65</ele>
        <time>2016-04-24T12:17:47Z</time>
      </trkpt>
      <trkpt lat="44.01085" lon="2.71121">
        <ele>263.54</ele>
        <time>2016-04-24T12:17:52Z</time>
      </trkpt>
      <trkpt lat="44.01074" lon="2.71123">
        <ele>264.5</ele>
        <time>2016-04-24T12:17:53Z</time>
      </trkpt>
      <trkpt lat="44.01063" lon="2.71128">
        <ele>264.98</ele>
        <time>2016-04-24T12:17:54Z</time>
      </trkpt>
      <trkpt lat="44.01052" lon="2.71135">
        <ele>265.46</ele>
        <time>2016-04-24T12:17:55Z</time>
      </trkpt>
      <trkpt lat="44.0104" lon="2.71142">
        <ele>265.94</ele>
        <time>2016-04-24T12:17:56Z</time>
      </trkpt>
      <trkpt lat="44.01028" lon="2.71147">
        <ele>266.42</ele>
        <time>2016-04-24T12:17:57Z</time>
      </trkpt>
      <trkpt lat="44.01015" lon="2.71146">
        <ele>266.42</ele>
        <time>2016-04-24T12:17:58Z</time>
      </trkpt>
      <trkpt lat="44.01005" lon="2.7114">
        <ele>266.42</ele>
        <time>2016-04-24T12:17:59Z</time>
      </trkpt>
      <trkpt lat="44.00997" lon="2.7113">
        <ele>266.9</ele>
        <time>2016-04-24T12:18:00Z</time>
      </trkpt>
      <trkpt lat="44.00993" lon="2.71117">
        <ele>267.38</ele>
        <time>2016-04-24T12:18:01Z</time>
      </trkpt>
      <trkpt lat="44.0099" lon="2.71101">
        <ele>270.27</ele>
        <time>2016-04-24T12:18:02Z</time>
      </trkpt>
      <trkpt lat="44.00986" lon="2.71085">
        <ele>272.19</ele>
        <time>2016-04-24T12:18:03Z</time>
      </trkpt>
      <trkpt lat="44.0098" lon="2.7107">
        <ele>272.67</ele>
        <time>2016-04-24T12:18:04Z</time>
      </trkpt>
      <trkpt lat="44.00972" lon="2.71059">
        <ele>272.67</ele>
        <time>2016-04-24T12:18:05Z</time>
      </trkpt>
      <trkpt lat="44.00962" lon="2.71051">
        <ele>272.67</ele>
        <time>2016-04-24T12:18:06Z</time>
      </trkpt>
      <trkpt lat="44.00949" lon="2.71046">
        <ele>272.67</ele>
        <time>2016-04-24T12:18:07Z</time>
      </trkpt>
      <trkpt lat="44.00936" lon="2.71041">
        <ele>273.63</ele>
        <time>2016-04-24T12:18:08Z</time>
      </trkpt>
      <trkpt lat="44.00884" lon="2.71016">
        <ele>276.04</ele>
        <time>2016-04-24T12:18:12Z</time>
      </trkpt>
      <trkpt lat="44.00872" lon="2.71006">
        <ele>277</ele>
        <time>2016-04-24T12:18:13Z</time>
      </trkpt>
      <trkpt lat="44.00757" lon="2.70911">
        <ele>283.73</ele>
        <time>2016-04-24T12:18:21Z</time>
      </trkpt>
      <trkpt lat="44.00702" lon="2.70873">
        <ele>287.09</ele>
        <time>2016-04-24T12:18:25Z</time>
      </trkpt>
      <trkpt lat="44.00692" lon="2.7086">
        <ele>288.53</ele>
        <time>2016-04-24T12:18:26Z</time>
      </trkpt>
      <trkpt lat="44.00683" lon="2.70844">
        <ele>289.97</ele>
        <time>2016-04-24T12:18:27Z</time>
      </trkpt>
      <trkpt lat="44.00666" lon="2.70811">
        <ele>291.9</ele>
        <time>2016-04-24T12:18:29Z</time>
      </trkpt>
      <trkpt lat="44.00654" lon="2.70797">
        <ele>293.34</ele>
        <time>2016-04-24T12:18:30Z</time>
      </trkpt>
      <trkpt lat="44.00632" lon="2.70767">
        <ele>295.74</ele>
        <time>2016-04-24T12:18:32Z</time>
      </trkpt>
      <trkpt lat="44.00623" lon="2.7075">
        <ele>296.7</ele>
        <time>2016-04-24T12:18:33Z</time>
      </trkpt>
      <trkpt lat="44.00586" lon="2.70672">
        <ele>300.07</ele>
        <time>2016-04-24T12:18:38Z</time>
      </trkpt>
      <trkpt lat="44.00577" lon="2.70661">
        <ele>301.03</ele>
        <time>2016-04-24T12:18:39Z</time>
      </trkpt>
      <trkpt lat="44.00568" lon="2.70654">
        <ele>301.51</ele>
        <time>2016-04-24T12:18:40Z</time>
      </trkpt>
      <trkpt lat="44.00558" lon="2.70651">
        <ele>301.99</ele>
        <time>2016-04-24T12:18:41Z</time>
      </trkpt>
      <trkpt lat="44.00548" lon="2.70649">
        <ele>301.99</ele>
        <time>2016-04-24T12:18:42Z</time>
      </trkpt>
      <trkpt lat="44.00538" lon="2.70645">
        <ele>301.99</ele>
        <time>2016-04-24T12:18:43Z</time>
      </trkpt>
      <trkpt lat="44.0053" lon="2.7064">
        <ele>302.95</ele>
        <time>2016-04-24T12:18:44Z</time>
      </trkpt>
      <trkpt lat="44.00525" lon="2.70635">
        <ele>303.91</ele>
        <time>2016-04-24T12:18:45Z</time>
      </trkpt>
      <trkpt lat="44.00521" lon="2.70629">
        <ele>304.88</ele>
        <time>2016-04-24T12:18:46Z</time>
      </trkpt>
      <trkpt lat="44.00518" lon="2.70624">
        <ele>305.36</ele>
        <time>2016-04-24T12:18:47Z</time>
      </trkpt>
      <trkpt lat="44.00498" lon="2.70587">
        <ele>309.2</ele>
        <time>2016-04-24T12:18:57Z</time>
      </trkpt>
      <trkpt lat="44.00495" lon="2.70584">
        <ele>309.2</ele>
        <time>2016-04-24T12:18:58Z</time>
      </trkpt>
      <trkpt lat="44.0049" lon="2.70583">
        <ele>309.2</ele>
        <time>2016-04-24T12:18:59Z</time>
      </trkpt>
      <trkpt lat="44.00484" lon="2.70581">
        <ele>309.2</ele>
        <time>2016-04-24T12:19:00Z</time>
      </trkpt>
      <trkpt lat="44.00479" lon="2.70575">
        <ele>308.72</ele>
        <time>2016-04-24T12:19:01Z</time>
      </trkpt>
      <trkpt lat="44.00472" lon="2.70565">
        <ele>308.24</ele>
        <time>2016-04-24T12:19:02Z</time>
      </trkpt>
      <trkpt lat="44.00466" lon="2.70553">
        <ele>307.76</ele>
        <time>2016-04-24T12:19:03Z</time>
      </trkpt>
      <trkpt lat="44.0046" lon="2.7054">
        <ele>306.8</ele>
        <time>2016-04-24T12:19:04Z</time>
      </trkpt>
      <trkpt lat="44.00413" lon="2.7045">
        <ele>301.03</ele>
        <time>2016-04-24T12:19:12Z</time>
      </trkpt>
      <trkpt lat="44.0041" lon="2.70438">
        <ele>300.55</ele>
        <time>2016-04-24T12:19:13Z</time>
      </trkpt>
      <trkpt lat="44.0041" lon="2.70427">
        <ele>300.07</ele>
        <time>2016-04-24T12:19:14Z</time>
      </trkpt>
      <trkpt lat="44.00413" lon="2.70416">
        <ele>299.11</ele>
        <time>2016-04-24T12:19:15Z</time>
      </trkpt>
      <trkpt lat="44.00418" lon="2.70404">
        <ele>298.15</ele>
        <time>2016-04-24T12:19:16Z</time>
      </trkpt>
      <trkpt lat="44.00424" lon="2.70392">
        <ele>297.67</ele>
        <time>2016-04-24T12:19:17Z</time>
      </trkpt>
      <trkpt lat="44.0045" lon="2.70337">
        <ele>294.3</ele>
        <time>2016-04-24T12:19:21Z</time>
      </trkpt>
      <trkpt lat="44.00458" lon="2.70324">
        <ele>293.34</ele>
        <time>2016-04-24T12:19:22Z</time>
      </trkpt>
      <trkpt lat="44.00495" lon="2.70269">
        <ele>289.01</ele>
        <time>2016-04-24T12:19:27Z</time>
      </trkpt>
      <trkpt lat="44.00499" lon="2.70258">
        <ele>288.05</ele>
        <time>2016-04-24T12:19:28Z</time>
      </trkpt>
      <trkpt lat="44.00502" lon="2.70249">
        <ele>287.57</ele>
        <time>2016-04-24T12:19:29Z</time>
      </trkpt>
      <trkpt lat="44.00502" lon="2.70241">
        <ele>286.61</ele>
        <time>2016-04-24T12:19:30Z</time>
      </trkpt>
      <trkpt lat="44.00495" lon="2.70232">
        <ele>285.65</ele>
        <time>2016-04-24T12:19:31Z</time>
      </trkpt>
      <trkpt lat="44.00486" lon="2.70231">
        <ele>285.17</ele>
        <time>2016-04-24T12:19:32Z</time>
      </trkpt>
      <trkpt lat="44.00477" lon="2.70234">
        <ele>284.21</ele>
        <time>2016-04-24T12:19:33Z</time>
      </trkpt>
      <trkpt lat="44.00469" lon="2.70242">
        <ele>282.77</ele>
        <time>2016-04-24T12:19:34Z</time>
      </trkpt>
      <trkpt lat="44.0046" lon="2.70252">
        <ele>281.8</ele>
        <time>2016-04-24T12:19:35Z</time>
      </trkpt>
      <trkpt lat="44.00436" lon="2.70272">
        <ele>280.36</ele>
        <time>2016-04-24T12:19:37Z</time>
      </trkpt>
      <trkpt lat="44.0042" lon="2.70279">
        <ele>279.88</ele>
        <time>2016-04-24T12:19:38Z</time>
      </trkpt>
      <trkpt lat="44.00349" lon="2.70313">
        <ele>274.11</ele>
        <time>2016-04-24T12:19:43Z</time>
      </trkpt>
      <trkpt lat="44.00337" lon="2.70324">
        <ele>273.15</ele>
        <time>2016-04-24T12:19:44Z</time>
      </trkpt>
      <trkpt lat="44.00326" lon="2.70336">
        <ele>271.71</ele>
        <time>2016-04-24T12:19:45Z</time>
      </trkpt>
      <trkpt lat="44.00281" lon="2.70393">
        <ele>266.9</ele>
        <time>2016-04-24T12:19:50Z</time>
      </trkpt>
      <trkpt lat="44.00275" lon="2.70406">
        <ele>265.94</ele>
        <time>2016-04-24T12:19:51Z</time>
      </trkpt>
      <trkpt lat="44.00269" lon="2.7042">
        <ele>265.46</ele>
        <time>2016-04-24T12:19:52Z</time>
      </trkpt>
      <trkpt lat="44.00253" lon="2.7046">
        <ele>263.54</ele>
        <time>2016-04-24T12:19:55Z</time>
      </trkpt>
      <trkpt lat="44.00246" lon="2.70471">
        <ele>263.06</ele>
        <time>2016-04-24T12:19:56Z</time>
      </trkpt>
      <trkpt lat="44.00238" lon="2.7048">
        <ele>262.58</ele>
        <time>2016-04-24T12:19:57Z</time>
      </trkpt>
      <trkpt lat="44.00229" lon="2.70486">
        <ele>261.62</ele>
        <time>2016-04-24T12:19:58Z</time>
      </trkpt>
      <trkpt lat="44.0022" lon="2.70489">
        <ele>260.65</ele>
        <time>2016-04-24T12:19:59Z</time>
      </trkpt>
      <trkpt lat="44.0021" lon="2.70494">
        <ele>261.62</ele>
        <time>2016-04-24T12:20:00Z</time>
      </trkpt>
      <trkpt lat="44.00201" lon="2.70499">
        <ele>261.14</ele>
        <time>2016-04-24T12:20:01Z</time>
      </trkpt>
      <trkpt lat="44.00193" lon="2.70508">
        <ele>260.17</ele>
        <time>2016-04-24T12:20:02Z</time>
      </trkpt>
      <trkpt lat="44.00185" lon="2.70519">
        <ele>259.69</ele>
        <time>2016-04-24T12:20:03Z</time>
      </trkpt>
      <trkpt lat="44.00177" lon="2.70531">
        <ele>259.21</ele>
        <time>2016-04-24T12:20:04Z</time>
      </trkpt>
      <trkpt lat="44.0009" lon="2.70664">
        <ele>260.65</ele>
        <time>2016-04-24T12:20:14Z</time>
      </trkpt>
      <trkpt lat="44.00084" lon="2.70672">
        <ele>260.65</ele>
        <time>2016-04-24T12:20:15Z</time>
      </trkpt>
      <trkpt lat="44.00077" lon="2.70674">
        <ele>260.17</ele>
        <time>2016-04-24T12:20:16Z</time>
      </trkpt>
      <trkpt lat="44.00072" lon="2.70671">
        <ele>259.69</ele>
        <time>2016-04-24T12:20:17Z</time>
      </trkpt>
      <trkpt lat="44.00067" lon="2.70663">
        <ele>259.69</ele>
        <time>2016-04-24T12:20:18Z</time>
      </trkpt>
      <trkpt lat="44.00063" lon="2.7065">
        <ele>259.69</ele>
        <time>2016-04-24T12:20:19Z</time>
      </trkpt>
      <trkpt lat="44.00057" lon="2.70635">
        <ele>259.69</ele>
        <time>2016-04-24T12:20:20Z</time>
      </trkpt>
      <trkpt lat="44.00049" lon="2.70619">
        <ele>259.69</ele>
        <time>2016-04-24T12:20:21Z</time>
      </trkpt>
      <trkpt lat="43.99971" lon="2.70459">
        <ele>261.14</ele>
        <time>2016-04-24T12:20:29Z</time>
      </trkpt>
      <trkpt lat="43.99873" lon="2.70205">
        <ele>261.62</ele>
        <time>2016-04-24T12:20:40Z</time>
      </trkpt>
      <trkpt lat="43.99867" lon="2.70182">
        <ele>261.62</ele>
        <time>2016-04-24T12:20:41Z</time>
      </trkpt>
      <trkpt lat="43.99864" lon="2.70158">
        <ele>261.62</ele>
        <time>2016-04-24T12:20:42Z</time>
      </trkpt>
      <trkpt lat="43.99863" lon="2.70134">
        <ele>261.62</ele>
        <time>2016-04-24T12:20:43Z</time>
      </trkpt>
      <trkpt lat="43.99863" lon="2.70109">
        <ele>261.62</ele>
        <time>2016-04-24T12:20:44Z</time>
      </trkpt>
      <trkpt lat="43.99863" lon="2.70085">
        <ele>261.62</ele>
        <time>2016-04-24T12:20:45Z</time>
      </trkpt>
      <trkpt lat="43.99846" lon="2.69843">
        <ele>258.25</ele>
        <time>2016-04-24T12:20:54Z</time>
      </trkpt>
      <trkpt lat="43.99835" lon="2.69815">
        <ele>258.25</ele>
        <time>2016-04-24T12:20:55Z</time>
      </trkpt>
      <trkpt lat="43.99785" lon="2.69603">
        <ele>256.33</ele>
        <time>2016-04-24T12:21:02Z</time>
      </trkpt>
      <trkpt lat="43.99762" lon="2.69327">
        <ele>252.96</ele>
        <time>2016-04-24T12:21:11Z</time>
      </trkpt>
      <trkpt lat="43.99723" lon="2.69055">
        <ele>252.48</ele>
        <time>2016-04-24T12:21:20Z</time>
      </trkpt>
      <trkpt lat="43.99689" lon="2.68852">
        <ele>253.44</ele>
        <time>2016-04-24T12:21:28Z</time>
      </trkpt>
      <trkpt lat="43.99662" lon="2.68765">
        <ele>253.93</ele>
        <time>2016-04-24T12:21:32Z</time>
      </trkpt>
      <trkpt lat="43.99654" lon="2.68747">
        <ele>254.41</ele>
        <time>2016-04-24T12:21:33Z</time>
      </trkpt>
      <trkpt lat="43.99643" lon="2.68735">
        <ele>254.41</ele>
        <time>2016-04-24T12:21:34Z</time>
      </trkpt>
      <trkpt lat="43.99629" lon="2.68727">
        <ele>254.41</ele>
        <time>2016-04-24T12:21:35Z</time>
      </trkpt>
      <trkpt lat="43.99614" lon="2.68721">
        <ele>254.89</ele>
        <time>2016-04-24T12:21:36Z</time>
      </trkpt>
      <trkpt lat="43.99597" lon="2.68724">
        <ele>254.89</ele>
        <time>2016-04-24T12:21:37Z</time>
      </trkpt>
      <trkpt lat="43.99581" lon="2.68731">
        <ele>254.89</ele>
        <time>2016-04-24T12:21:38Z</time>
      </trkpt>
      <trkpt lat="43.99565" lon="2.68742">
        <ele>254.89</ele>
        <time>2016-04-24T12:21:39Z</time>
      </trkpt>
      <trkpt lat="43.9955" lon="2.68757">
        <ele>255.37</ele>
        <time>2016-04-24T12:21:40Z</time>
      </trkpt>
      <trkpt lat="43.99535" lon="2.68774">
        <ele>255.85</ele>
        <time>2016-04-24T12:21:41Z</time>
      </trkpt>
      <trkpt lat="43.99519" lon="2.68794">
        <ele>255.85</ele>
        <time>2016-04-24T12:21:42Z</time>
      </trkpt>
      <trkpt lat="43.99399" lon="2.68926">
        <ele>256.81</ele>
        <time>2016-04-24T12:21:48Z</time>
      </trkpt>
      <trkpt lat="43.99289" lon="2.69024">
        <ele>256.33</ele>
        <time>2016-04-24T12:21:54Z</time>
      </trkpt>
      <trkpt lat="43.99234" lon="2.69101">
        <ele>254.41</ele>
        <time>2016-04-24T12:21:59Z</time>
      </trkpt>
      <trkpt lat="43.99226" lon="2.6912">
        <ele>253.44</ele>
        <time>2016-04-24T12:22:00Z</time>
      </trkpt>
      <trkpt lat="43.99219" lon="2.69142">
        <ele>252.96</ele>
        <time>2016-04-24T12:22:01Z</time>
      </trkpt>
      <trkpt lat="43.99216" lon="2.69163">
        <ele>252.48</ele>
        <time>2016-04-24T12:22:02Z</time>
      </trkpt>
      <trkpt lat="43.99216" lon="2.69186">
        <ele>252</ele>
        <time>2016-04-24T12:22:03Z</time>
      </trkpt>
      <trkpt lat="43.99218" lon="2.69209">
        <ele>251.52</ele>
        <time>2016-04-24T12:22:04Z</time>
      </trkpt>
      <trkpt lat="43.99222" lon="2.69232">
        <ele>251.52</ele>
        <time>2016-04-24T12:22:05Z</time>
      </trkpt>
      <trkpt lat="43.99227" lon="2.69255">
        <ele>251.04</ele>
        <time>2016-04-24T12:22:06Z</time>
      </trkpt>
      <trkpt lat="43.99234" lon="2.6928">
        <ele>250.56</ele>
        <time>2016-04-24T12:22:07Z</time>
      </trkpt>
      <trkpt lat="43.99297" lon="2.69476">
        <ele>249.6</ele>
        <time>2016-04-24T12:22:14Z</time>
      </trkpt>
      <trkpt lat="43.99336" lon="2.69702">
        <ele>251.04</ele>
        <time>2016-04-24T12:22:21Z</time>
      </trkpt>
      <trkpt lat="43.99315" lon="2.69949">
        <ele>254.89</ele>
        <time>2016-04-24T12:22:29Z</time>
      </trkpt>
      <trkpt lat="43.99261" lon="2.70103">
        <ele>256.81</ele>
        <time>2016-04-24T12:22:35Z</time>
      </trkpt>
      <trkpt lat="43.99249" lon="2.70122">
        <ele>256.81</ele>
        <time>2016-04-24T12:22:36Z</time>
      </trkpt>
      <trkpt lat="43.99237" lon="2.70138">
        <ele>257.29</ele>
        <time>2016-04-24T12:22:37Z</time>
      </trkpt>
      <trkpt lat="43.99224" lon="2.70152">
        <ele>257.29</ele>
        <time>2016-04-24T12:22:38Z</time>
      </trkpt>
      <trkpt lat="43.99212" lon="2.70164">
        <ele>257.29</ele>
        <time>2016-04-24T12:22:39Z</time>
      </trkpt>
      <trkpt lat="43.99198" lon="2.70174">
        <ele>257.77</ele>
        <time>2016-04-24T12:22:40Z</time>
      </trkpt>
      <trkpt lat="43.99184" lon="2.70182">
        <ele>257.77</ele>
        <time>2016-04-24T12:22:41Z</time>
      </trkpt>
      <trkpt lat="43.99169" lon="2.70188">
        <ele>257.77</ele>
        <time>2016-04-24T12:22:42Z</time>
      </trkpt>
      <trkpt lat="43.99108" lon="2.70209">
        <ele>258.25</ele>
        <time>2016-04-24T12:22:46Z</time>
      </trkpt>
      <trkpt lat="43.99093" lon="2.70209">
        <ele>258.73</ele>
        <time>2016-04-24T12:22:47Z</time>
      </trkpt>
      <trkpt lat="43.99077" lon="2.70206">
        <ele>258.73</ele>
        <time>2016-04-24T12:22:48Z</time>
      </trkpt>
      <trkpt lat="43.99062" lon="2.70201">
        <ele>259.69</ele>
        <time>2016-04-24T12:22:49Z</time>
      </trkpt>
      <trkpt lat="43.99047" lon="2.70195">
        <ele>260.17</ele>
        <time>2016-04-24T12:22:50Z</time>
      </trkpt>
      <trkpt lat="43.98945" lon="2.70137">
        <ele>263.54</ele>
        <time>2016-04-24T12:22:56Z</time>
      </trkpt>
      <trkpt lat="43.98911" lon="2.70114">
        <ele>264.5</ele>
        <time>2016-04-24T12:22:58Z</time>
      </trkpt>
      <trkpt lat="43.98896" lon="2.70108">
        <ele>264.98</ele>
        <time>2016-04-24T12:22:59Z</time>
      </trkpt>
      <trkpt lat="43.98881" lon="2.70105">
        <ele>265.46</ele>
        <time>2016-04-24T12:23:00Z</time>
      </trkpt>
      <trkpt lat="43.98854" lon="2.70103">
        <ele>266.42</ele>
        <time>2016-04-24T12:23:02Z</time>
      </trkpt>
      <trkpt lat="43.9884" lon="2.70098">
        <ele>266.9</ele>
        <time>2016-04-24T12:23:03Z</time>
      </trkpt>
      <trkpt lat="43.98826" lon="2.70091">
        <ele>267.38</ele>
        <time>2016-04-24T12:23:04Z</time>
      </trkpt>
      <trkpt lat="43.98813" lon="2.70082">
        <ele>267.38</ele>
        <time>2016-04-24T12:23:05Z</time>
      </trkpt>
      <trkpt lat="43.98801" lon="2.7007">
        <ele>267.86</ele>
        <time>2016-04-24T12:23:06Z</time>
      </trkpt>
      <trkpt lat="43.98789" lon="2.70057">
        <ele>268.35</ele>
        <time>2016-04-24T12:23:07Z</time>
      </trkpt>
      <trkpt lat="43.98778" lon="2.70043">
        <ele>268.83</ele>
        <time>2016-04-24T12:23:08Z</time>
      </trkpt>
      <trkpt lat="43.98756" lon="2.70021">
        <ele>269.31</ele>
        <time>2016-04-24T12:23:10Z</time>
      </trkpt>
      <trkpt lat="43.98746" lon="2.70013">
        <ele>269.79</ele>
        <time>2016-04-24T12:23:11Z</time>
      </trkpt>
      <trkpt lat="43.98735" lon="2.70008">
        <ele>269.79</ele>
        <time>2016-04-24T12:23:12Z</time>
      </trkpt>
      <trkpt lat="43.98725" lon="2.70005">
        <ele>270.27</ele>
        <time>2016-04-24T12:23:13Z</time>
      </trkpt>
      <trkpt lat="43.98715" lon="2.70004">
        <ele>270.27</ele>
        <time>2016-04-24T12:23:14Z</time>
      </trkpt>
      <trkpt lat="43.98706" lon="2.70005">
        <ele>270.27</ele>
        <time>2016-04-24T12:23:15Z</time>
      </trkpt>
      <trkpt lat="43.98696" lon="2.70008">
        <ele>270.27</ele>
        <time>2016-04-24T12:23:16Z</time>
      </trkpt>
      <trkpt lat="43.98686" lon="2.70013">
        <ele>270.27</ele>
        <time>2016-04-24T12:23:17Z</time>
      </trkpt>
      <trkpt lat="43.98675" lon="2.70021">
        <ele>270.27</ele>
        <time>2016-04-24T12:23:18Z</time>
      </trkpt>
      <trkpt lat="43.98665" lon="2.70032">
        <ele>270.27</ele>
        <time>2016-04-24T12:23:19Z</time>
      </trkpt>
      <trkpt lat="43.98655" lon="2.70046">
        <ele>269.79</ele>
        <time>2016-04-24T12:23:20Z</time>
      </trkpt>
      <trkpt lat="43.98645" lon="2.70062">
        <ele>269.31</ele>
        <time>2016-04-24T12:23:21Z</time>
      </trkpt>
      <trkpt lat="43.98562" lon="2.70186">
        <ele>266.42</ele>
        <time>2016-04-24T12:23:27Z</time>
      </trkpt>
      <trkpt lat="43.98503" lon="2.70278">
        <ele>263.54</ele>
        <time>2016-04-24T12:23:31Z</time>
      </trkpt>
      <trkpt lat="43.98491" lon="2.70306">
        <ele>262.58</ele>
        <time>2016-04-24T12:23:32Z</time>
      </trkpt>
      <trkpt lat="43.98374" lon="2.706">
        <ele>257.77</ele>
        <time>2016-04-24T12:23:42Z</time>
      </trkpt>
      <trkpt lat="43.98293" lon="2.7087">
        <ele>258.25</ele>
        <time>2016-04-24T12:23:51Z</time>
      </trkpt>
      <trkpt lat="43.98258" lon="2.71059">
        <ele>259.69</ele>
        <time>2016-04-24T12:23:58Z</time>
      </trkpt>
      <trkpt lat="43.98254" lon="2.71282">
        <ele>258.73</ele>
        <time>2016-04-24T12:24:06Z</time>
      </trkpt>
      <trkpt lat="43.98258" lon="2.71306">
        <ele>258.25</ele>
        <time>2016-04-24T12:24:07Z</time>
      </trkpt>
      <trkpt lat="43.98264" lon="2.71329">
        <ele>258.25</ele>
        <time>2016-04-24T12:24:08Z</time>
      </trkpt>
      <trkpt lat="43.98327" lon="2.71523">
        <ele>257.77</ele>
        <time>2016-04-24T12:24:15Z</time>
      </trkpt>
      <trkpt lat="43.98376" lon="2.71734">
        <ele>257.77</ele>
        <time>2016-04-24T12:24:21Z</time>
      </trkpt>
      <trkpt lat="43.98388" lon="2.71821">
        <ele>259.21</ele>
        <time>2016-04-24T12:24:24Z</time>
      </trkpt>
      <trkpt lat="43.98388" lon="2.71847">
        <ele>259.21</ele>
        <time>2016-04-24T12:24:25Z</time>
      </trkpt>
      <trkpt lat="43.98386" lon="2.71871">
        <ele>259.69</ele>
        <time>2016-04-24T12:24:26Z</time>
      </trkpt>
      <trkpt lat="43.98346" lon="2.72064">
        <ele>258.73</ele>
        <time>2016-04-24T12:24:33Z</time>
      </trkpt>
      <trkpt lat="43.98249" lon="2.72373">
        <ele>258.25</ele>
        <time>2016-04-24T12:24:44Z</time>
      </trkpt>
      <trkpt lat="43.98167" lon="2.72532">
        <ele>260.17</ele>
        <time>2016-04-24T12:24:51Z</time>
      </trkpt>
      <trkpt lat="43.98099" lon="2.72614">
        <ele>262.58</ele>
        <time>2016-04-24T12:24:56Z</time>
      </trkpt>
      <trkpt lat="43.98085" lon="2.72624">
        <ele>263.06</ele>
        <time>2016-04-24T12:24:57Z</time>
      </trkpt>
      <trkpt lat="43.98071" lon="2.72631">
        <ele>263.54</ele>
        <time>2016-04-24T12:24:58Z</time>
      </trkpt>
      <trkpt lat="43.98057" lon="2.72635">
        <ele>264.02</ele>
        <time>2016-04-24T12:24:59Z</time>
      </trkpt>
      <trkpt lat="43.98041" lon="2.72638">
        <ele>264.5</ele>
        <time>2016-04-24T12:25:00Z</time>
      </trkpt>
      <trkpt lat="43.97973" lon="2.72669">
        <ele>266.42</ele>
        <time>2016-04-24T12:25:04Z</time>
      </trkpt>
      <trkpt lat="43.97958" lon="2.72682">
        <ele>266.42</ele>
        <time>2016-04-24T12:25:05Z</time>
      </trkpt>
      <trkpt lat="43.97912" lon="2.72723">
        <ele>265.46</ele>
        <time>2016-04-24T12:25:08Z</time>
      </trkpt>
      <trkpt lat="43.97895" lon="2.72733">
        <ele>264.98</ele>
        <time>2016-04-24T12:25:09Z</time>
      </trkpt>
      <trkpt lat="43.97804" lon="2.72767">
        <ele>263.06</ele>
        <time>2016-04-24T12:25:14Z</time>
      </trkpt>
      <trkpt lat="43.97787" lon="2.72768">
        <ele>263.06</ele>
        <time>2016-04-24T12:25:15Z</time>
      </trkpt>
      <trkpt lat="43.97771" lon="2.72766">
        <ele>263.06</ele>
        <time>2016-04-24T12:25:16Z</time>
      </trkpt>
      <trkpt lat="43.97756" lon="2.72762">
        <ele>263.06</ele>
        <time>2016-04-24T12:25:17Z</time>
      </trkpt>
      <trkpt lat="43.97741" lon="2.72755">
        <ele>263.06</ele>
        <time>2016-04-24T12:25:18Z</time>
      </trkpt>
      <trkpt lat="43.97726" lon="2.72746">
        <ele>263.06</ele>
        <time>2016-04-24T12:25:19Z</time>
      </trkpt>
      <trkpt lat="43.9771" lon="2.72735">
        <ele>263.06</ele>
        <time>2016-04-24T12:25:20Z</time>
      </trkpt>
      <trkpt lat="43.97597" lon="2.72664">
        <ele>264.02</ele>
        <time>2016-04-24T12:25:26Z</time>
      </trkpt>
      <trkpt lat="43.9758" lon="2.72649">
        <ele>264.02</ele>
        <time>2016-04-24T12:25:27Z</time>
      </trkpt>
      <trkpt lat="43.97565" lon="2.72632">
        <ele>264.02</ele>
        <time>2016-04-24T12:25:28Z</time>
      </trkpt>
      <trkpt lat="43.97552" lon="2.72614">
        <ele>264.5</ele>
        <time>2016-04-24T12:25:29Z</time>
      </trkpt>
      <trkpt lat="43.97432" lon="2.72441">
        <ele>266.42</ele>
        <time>2016-04-24T12:25:37Z</time>
      </trkpt>
      <trkpt lat="43.97371" lon="2.72334">
        <ele>266.9</ele>
        <time>2016-04-24T12:25:43Z</time>
      </trkpt>
      <trkpt lat="43.97346" lon="2.72252">
        <ele>266.42</ele>
        <time>2016-04-24T12:25:50Z</time>
      </trkpt>
      <trkpt lat="43.97334" lon="2.72198">
        <ele>264.98</ele>
        <time>2016-04-24T12:25:56Z</time>
      </trkpt>
      <trkpt lat="43.97331" lon="2.72188">
        <ele>264.98</ele>
        <time>2016-04-24T12:25:57Z</time>
      </trkpt>
      <trkpt lat="43.97315" lon="2.72133">
        <ele>264.98</ele>
        <time>2016-04-24T12:26:02Z</time>
      </trkpt>
      <trkpt lat="43.9731" lon="2.72121">
        <ele>265.46</ele>
        <time>2016-04-24T12:26:03Z</time>
      </trkpt>
      <trkpt lat="43.97304" lon="2.7211">
        <ele>265.46</ele>
        <time>2016-04-24T12:26:04Z</time>
      </trkpt>
      <trkpt lat="43.97297" lon="2.72098">
        <ele>265.46</ele>
        <time>2016-04-24T12:26:05Z</time>
      </trkpt>
      <trkpt lat="43.97289" lon="2.72087">
        <ele>265.46</ele>
        <time>2016-04-24T12:26:06Z</time>
      </trkpt>
      <trkpt lat="43.97188" lon="2.71984">
        <ele>268.35</ele>
        <time>2016-04-24T12:26:16Z</time>
      </trkpt>
      <trkpt lat="43.97175" lon="2.71977">
        <ele>268.83</ele>
        <time>2016-04-24T12:26:17Z</time>
      </trkpt>
      <trkpt lat="43.97163" lon="2.71973">
        <ele>268.83</ele>
        <time>2016-04-24T12:26:18Z</time>
      </trkpt>
      <trkpt lat="43.9715" lon="2.71971">
        <ele>269.31</ele>
        <time>2016-04-24T12:26:19Z</time>
      </trkpt>
      <trkpt lat="43.97138" lon="2.71972">
        <ele>269.31</ele>
        <time>2016-04-24T12:26:20Z</time>
      </trkpt>
      <trkpt lat="43.97127" lon="2.71976">
        <ele>269.31</ele>
        <time>2016-04-24T12:26:21Z</time>
      </trkpt>
      <trkpt lat="43.97117" lon="2.71987">
        <ele>268.83</ele>
        <time>2016-04-24T12:26:22Z</time>
      </trkpt>
      <trkpt lat="43.97107" lon="2.72">
        <ele>268.83</ele>
        <time>2016-04-24T12:26:23Z</time>
      </trkpt>
      <trkpt lat="43.97099" lon="2.72015">
        <ele>268.83</ele>
        <time>2016-04-24T12:26:24Z</time>
      </trkpt>
      <trkpt lat="43.97091" lon="2.72033">
        <ele>268.83</ele>
        <time>2016-04-24T12:26:25Z</time>
      </trkpt>
      <trkpt lat="43.97084" lon="2.72052">
        <ele>268.35</ele>
        <time>2016-04-24T12:26:26Z</time>
      </trkpt>
      <trkpt lat="43.97079" lon="2.72073">
        <ele>268.35</ele>
        <time>2016-04-24T12:26:27Z</time>
      </trkpt>
      <trkpt lat="43.97075" lon="2.72097">
        <ele>267.86</ele>
        <time>2016-04-24T12:26:28Z</time>
      </trkpt>
      <trkpt lat="43.97072" lon="2.72121">
        <ele>267.86</ele>
        <time>2016-04-24T12:26:29Z</time>
      </trkpt>
      <trkpt lat="43.9707" lon="2.72145">
        <ele>267.86</ele>
        <time>2016-04-24T12:26:30Z</time>
      </trkpt>
      <trkpt lat="43.9707" lon="2.72194">
        <ele>268.35</ele>
        <time>2016-04-24T12:26:32Z</time>
      </trkpt>
      <trkpt lat="43.97073" lon="2.72221">
        <ele>268.35</ele>
        <time>2016-04-24T12:26:33Z</time>
      </trkpt>
      <trkpt lat="43.97077" lon="2.72247">
        <ele>267.86</ele>
        <time>2016-04-24T12:26:34Z</time>
      </trkpt>
      <trkpt lat="43.97083" lon="2.72274">
        <ele>267.86</ele>
        <time>2016-04-24T12:26:35Z</time>
      </trkpt>
      <trkpt lat="43.97091" lon="2.72301">
        <ele>267.86</ele>
        <time>2016-04-24T12:26:36Z</time>
      </trkpt>
      <trkpt lat="43.97101" lon="2.72329">
        <ele>267.86</ele>
        <time>2016-04-24T12:26:37Z</time>
      </trkpt>
      <trkpt lat="43.97172" lon="2.72497">
        <ele>267.86</ele>
        <time>2016-04-24T12:26:44Z</time>
      </trkpt>
      <trkpt lat="43.97179" lon="2.72518">
        <ele>267.86</ele>
        <time>2016-04-24T12:26:45Z</time>
      </trkpt>
      <trkpt lat="43.97183" lon="2.7254">
        <ele>267.86</ele>
        <time>2016-04-24T12:26:46Z</time>
      </trkpt>
      <trkpt lat="43.97186" lon="2.72563">
        <ele>267.86</ele>
        <time>2016-04-24T12:26:47Z</time>
      </trkpt>
      <trkpt lat="43.97201" lon="2.72763">
        <ele>267.38</ele>
        <time>2016-04-24T12:26:55Z</time>
      </trkpt>
      <trkpt lat="43.9724" lon="2.72939">
        <ele>266.42</ele>
        <time>2016-04-24T12:27:02Z</time>
      </trkpt>
      <trkpt lat="43.97298" lon="2.73225">
        <ele>265.94</ele>
        <time>2016-04-24T12:27:12Z</time>
      </trkpt>
      <trkpt lat="43.97368" lon="2.73475">
        <ele>266.9</ele>
        <time>2016-04-24T12:27:21Z</time>
      </trkpt>
      <trkpt lat="43.97394" lon="2.73567">
        <ele>267.38</ele>
        <time>2016-04-24T12:27:24Z</time>
      </trkpt>
      <trkpt lat="43.97398" lon="2.73598">
        <ele>267.38</ele>
        <time>2016-04-24T12:27:25Z</time>
      </trkpt>
      <trkpt lat="43.97401" lon="2.7363">
        <ele>267.86</ele>
        <time>2016-04-24T12:27:26Z</time>
      </trkpt>
      <trkpt lat="43.974" lon="2.73725">
        <ele>267.86</ele>
        <time>2016-04-24T12:27:29Z</time>
      </trkpt>
      <trkpt lat="43.97396" lon="2.73756">
        <ele>267.86</ele>
        <time>2016-04-24T12:27:30Z</time>
      </trkpt>
      <trkpt lat="43.97389" lon="2.73787">
        <ele>267.86</ele>
        <time>2016-04-24T12:27:31Z</time>
      </trkpt>
      <trkpt lat="43.97381" lon="2.73815">
        <ele>267.86</ele>
        <time>2016-04-24T12:27:32Z</time>
      </trkpt>
      <trkpt lat="43.97371" lon="2.73843">
        <ele>267.86</ele>
        <time>2016-04-24T12:27:33Z</time>
      </trkpt>
      <trkpt lat="43.9736" lon="2.73868">
        <ele>267.86</ele>
        <time>2016-04-24T12:27:34Z</time>
      </trkpt>
      <trkpt lat="43.97348" lon="2.73893">
        <ele>267.86</ele>
        <time>2016-04-24T12:27:35Z</time>
      </trkpt>
      <trkpt lat="43.97334" lon="2.73916">
        <ele>267.86</ele>
        <time>2016-04-24T12:27:36Z</time>
      </trkpt>
      <trkpt lat="43.9732" lon="2.73939">
        <ele>267.86</ele>
        <time>2016-04-24T12:27:37Z</time>
      </trkpt>
      <trkpt lat="43.97226" lon="2.74069">
        <ele>268.35</ele>
        <time>2016-04-24T12:27:43Z</time>
      </trkpt>
      <trkpt lat="43.97209" lon="2.74084">
        <ele>268.83</ele>
        <time>2016-04-24T12:27:44Z</time>
      </trkpt>
      <trkpt lat="43.97122" lon="2.74146">
        <ele>270.75</ele>
        <time>2016-04-24T12:27:49Z</time>
      </trkpt>
      <trkpt lat="43.97103" lon="2.74154">
        <ele>271.23</ele>
        <time>2016-04-24T12:27:50Z</time>
      </trkpt>
      <trkpt lat="43.97084" lon="2.7416">
        <ele>271.71</ele>
        <time>2016-04-24T12:27:51Z</time>
      </trkpt>
      <trkpt lat="43.97066" lon="2.74163">
        <ele>272.19</ele>
        <time>2016-04-24T12:27:52Z</time>
      </trkpt>
      <trkpt lat="43.97046" lon="2.74164">
        <ele>272.19</ele>
        <time>2016-04-24T12:27:53Z</time>
      </trkpt>
      <trkpt lat="43.97025" lon="2.74162">
        <ele>272.19</ele>
        <time>2016-04-24T12:27:54Z</time>
      </trkpt>
      <trkpt lat="43.96872" lon="2.74152">
        <ele>273.15</ele>
        <time>2016-04-24T12:28:00Z</time>
      </trkpt>
      <trkpt lat="43.9675" lon="2.74135">
        <ele>273.63</ele>
        <time>2016-04-24T12:28:05Z</time>
      </trkpt>
      <trkpt lat="43.96729" lon="2.74125">
        <ele>274.11</ele>
        <time>2016-04-24T12:28:06Z</time>
      </trkpt>
      <trkpt lat="43.96709" lon="2.74113">
        <ele>274.11</ele>
        <time>2016-04-24T12:28:07Z</time>
      </trkpt>
      <trkpt lat="43.96487" lon="2.73972">
        <ele>276.52</ele>
        <time>2016-04-24T12:28:17Z</time>
      </trkpt>
      <trkpt lat="43.96304" lon="2.73856">
        <ele>279.4</ele>
        <time>2016-04-24T12:28:26Z</time>
      </trkpt>
      <trkpt lat="43.96227" lon="2.73811">
        <ele>280.84</ele>
        <time>2016-04-24T12:28:31Z</time>
      </trkpt>
      <trkpt lat="43.96211" lon="2.73807">
        <ele>281.32</ele>
        <time>2016-04-24T12:28:32Z</time>
      </trkpt>
      <trkpt lat="43.96197" lon="2.7381">
        <ele>281.8</ele>
        <time>2016-04-24T12:28:33Z</time>
      </trkpt>
      <trkpt lat="43.96183" lon="2.73815">
        <ele>281.8</ele>
        <time>2016-04-24T12:28:34Z</time>
      </trkpt>
      <trkpt lat="43.96171" lon="2.73825">
        <ele>282.28</ele>
        <time>2016-04-24T12:28:35Z</time>
      </trkpt>
      <trkpt lat="43.96161" lon="2.7384">
        <ele>281.8</ele>
        <time>2016-04-24T12:28:36Z</time>
      </trkpt>
      <trkpt lat="43.96151" lon="2.73857">
        <ele>281.8</ele>
        <time>2016-04-24T12:28:37Z</time>
      </trkpt>
      <trkpt lat="43.96141" lon="2.73875">
        <ele>281.8</ele>
        <time>2016-04-24T12:28:38Z</time>
      </trkpt>
      <trkpt lat="43.96117" lon="2.73911">
        <ele>282.28</ele>
        <time>2016-04-24T12:28:40Z</time>
      </trkpt>
      <trkpt lat="43.96104" lon="2.73925">
        <ele>282.28</ele>
        <time>2016-04-24T12:28:41Z</time>
      </trkpt>
      <trkpt lat="43.96089" lon="2.73937">
        <ele>282.77</ele>
        <time>2016-04-24T12:28:42Z</time>
      </trkpt>
      <trkpt lat="43.96074" lon="2.73946">
        <ele>282.77</ele>
        <time>2016-04-24T12:28:43Z</time>
      </trkpt>
      <trkpt lat="43.96059" lon="2.73951">
        <ele>282.77</ele>
        <time>2016-04-24T12:28:44Z</time>
      </trkpt>
      <trkpt lat="43.96045" lon="2.73953">
        <ele>282.77</ele>
        <time>2016-04-24T12:28:45Z</time>
      </trkpt>
      <trkpt lat="43.9603" lon="2.73953">
        <ele>282.77</ele>
        <time>2016-04-24T12:28:46Z</time>
      </trkpt>
      <trkpt lat="43.96015" lon="2.7395">
        <ele>282.77</ele>
        <time>2016-04-24T12:28:47Z</time>
      </trkpt>
      <trkpt lat="43.96" lon="2.73944">
        <ele>282.77</ele>
        <time>2016-04-24T12:28:48Z</time>
      </trkpt>
      <trkpt lat="43.95985" lon="2.73936">
        <ele>282.28</ele>
        <time>2016-04-24T12:28:49Z</time>
      </trkpt>
      <trkpt lat="43.95971" lon="2.73927">
        <ele>282.77</ele>
        <time>2016-04-24T12:28:50Z</time>
      </trkpt>
      <trkpt lat="43.95927" lon="2.73906">
        <ele>282.77</ele>
        <time>2016-04-24T12:28:53Z</time>
      </trkpt>
      <trkpt lat="43.95912" lon="2.73903">
        <ele>282.77</ele>
        <time>2016-04-24T12:28:54Z</time>
      </trkpt>
      <trkpt lat="43.95897" lon="2.73906">
        <ele>283.25</ele>
        <time>2016-04-24T12:28:55Z</time>
      </trkpt>
      <trkpt lat="43.95882" lon="2.73911">
        <ele>283.25</ele>
        <time>2016-04-24T12:28:56Z</time>
      </trkpt>
      <trkpt lat="43.95867" lon="2.73918">
        <ele>283.25</ele>
        <time>2016-04-24T12:28:57Z</time>
      </trkpt>
      <trkpt lat="43.95833" lon="2.73937">
        <ele>283.25</ele>
        <time>2016-04-24T12:28:59Z</time>
      </trkpt>
      <trkpt lat="43.95816" lon="2.73951">
        <ele>282.77</ele>
        <time>2016-04-24T12:29:00Z</time>
      </trkpt>
      <trkpt lat="43.95647" lon="2.74112">
        <ele>284.21</ele>
        <time>2016-04-24T12:29:10Z</time>
      </trkpt>
      <trkpt lat="43.95532" lon="2.74255">
        <ele>285.17</ele>
        <time>2016-04-24T12:29:17Z</time>
      </trkpt>
      <trkpt lat="43.95521" lon="2.74277">
        <ele>285.17</ele>
        <time>2016-04-24T12:29:18Z</time>
      </trkpt>
      <trkpt lat="43.95513" lon="2.74299">
        <ele>284.69</ele>
        <time>2016-04-24T12:29:19Z</time>
      </trkpt>
      <trkpt lat="43.95511" lon="2.74327">
        <ele>284.69</ele>
        <time>2016-04-24T12:29:20Z</time>
      </trkpt>
      <trkpt lat="43.9551" lon="2.74353">
        <ele>284.69</ele>
        <time>2016-04-24T12:29:21Z</time>
      </trkpt>
      <trkpt lat="43.95512" lon="2.7438">
        <ele>284.69</ele>
        <time>2016-04-24T12:29:22Z</time>
      </trkpt>
      <trkpt lat="43.95516" lon="2.74407">
        <ele>284.69</ele>
        <time>2016-04-24T12:29:23Z</time>
      </trkpt>
      <trkpt lat="43.95522" lon="2.74434">
        <ele>284.21</ele>
        <time>2016-04-24T12:29:24Z</time>
      </trkpt>
      <trkpt lat="43.9553" lon="2.74459">
        <ele>284.21</ele>
        <time>2016-04-24T12:29:25Z</time>
      </trkpt>
      <trkpt lat="43.95539" lon="2.74483">
        <ele>283.73</ele>
        <time>2016-04-24T12:29:26Z</time>
      </trkpt>
      <trkpt lat="43.9555" lon="2.74507">
        <ele>283.73</ele>
        <time>2016-04-24T12:29:27Z</time>
      </trkpt>
      <trkpt lat="43.95628" lon="2.74658">
        <ele>284.21</ele>
        <time>2016-04-24T12:29:34Z</time>
      </trkpt>
      <trkpt lat="43.9574" lon="2.74741">
        <ele>286.13</ele>
        <time>2016-04-24T12:29:41Z</time>
      </trkpt>
      <trkpt lat="43.95799" lon="2.74778">
        <ele>286.13</ele>
        <time>2016-04-24T12:29:45Z</time>
      </trkpt>
      <trkpt lat="43.95811" lon="2.7479">
        <ele>286.13</ele>
        <time>2016-04-24T12:29:46Z</time>
      </trkpt>
      <trkpt lat="43.95821" lon="2.74803">
        <ele>286.13</ele>
        <time>2016-04-24T12:29:47Z</time>
      </trkpt>
      <trkpt lat="43.9583" lon="2.74818">
        <ele>286.13</ele>
        <time>2016-04-24T12:29:48Z</time>
      </trkpt>
      <trkpt lat="43.95838" lon="2.74834">
        <ele>285.65</ele>
        <time>2016-04-24T12:29:49Z</time>
      </trkpt>
      <trkpt lat="43.95845" lon="2.74852">
        <ele>285.65</ele>
        <time>2016-04-24T12:29:50Z</time>
      </trkpt>
      <trkpt lat="43.95852" lon="2.74872">
        <ele>286.13</ele>
        <time>2016-04-24T12:29:51Z</time>
      </trkpt>
      <trkpt lat="43.95879" lon="2.74935">
        <ele>285.65</ele>
        <time>2016-04-24T12:29:54Z</time>
      </trkpt>
      <trkpt lat="43.95891" lon="2.74955">
        <ele>286.13</ele>
        <time>2016-04-24T12:29:55Z</time>
      </trkpt>
      <trkpt lat="43.95947" lon="2.75047">
        <ele>286.13</ele>
        <time>2016-04-24T12:30:00Z</time>
      </trkpt>
      <trkpt lat="43.95954" lon="2.75065">
        <ele>286.13</ele>
        <time>2016-04-24T12:30:01Z</time>
      </trkpt>
      <trkpt lat="43.95959" lon="2.75084">
        <ele>286.13</ele>
        <time>2016-04-24T12:30:02Z</time>
      </trkpt>
      <trkpt lat="43.95962" lon="2.75104">
        <ele>286.13</ele>
        <time>2016-04-24T12:30:03Z</time>
      </trkpt>
      <trkpt lat="43.95963" lon="2.75124">
        <ele>286.13</ele>
        <time>2016-04-24T12:30:04Z</time>
      </trkpt>
      <trkpt lat="43.95963" lon="2.75147">
        <ele>286.13</ele>
        <time>2016-04-24T12:30:05Z</time>
      </trkpt>
      <trkpt lat="43.95961" lon="2.75172">
        <ele>286.13</ele>
        <time>2016-04-24T12:30:06Z</time>
      </trkpt>
      <trkpt lat="43.95958" lon="2.75199">
        <ele>286.13</ele>
        <time>2016-04-24T12:30:07Z</time>
      </trkpt>
      <trkpt lat="43.95934" lon="2.75377">
        <ele>286.13</ele>
        <time>2016-04-24T12:30:14Z</time>
      </trkpt>
      <trkpt lat="43.95926" lon="2.754">
        <ele>286.13</ele>
        <time>2016-04-24T12:30:15Z</time>
      </trkpt>
      <trkpt lat="43.95917" lon="2.75421">
        <ele>286.13</ele>
        <time>2016-04-24T12:30:16Z</time>
      </trkpt>
      <trkpt lat="43.95906" lon="2.7544">
        <ele>285.65</ele>
        <time>2016-04-24T12:30:17Z</time>
      </trkpt>
      <trkpt lat="43.95894" lon="2.75459">
        <ele>285.17</ele>
        <time>2016-04-24T12:30:18Z</time>
      </trkpt>
      <trkpt lat="43.95869" lon="2.75495">
        <ele>284.69</ele>
        <time>2016-04-24T12:30:20Z</time>
      </trkpt>
      <trkpt lat="43.95855" lon="2.7551">
        <ele>284.69</ele>
        <time>2016-04-24T12:30:21Z</time>
      </trkpt>
      <trkpt lat="43.95839" lon="2.75521">
        <ele>284.21</ele>
        <time>2016-04-24T12:30:22Z</time>
      </trkpt>
      <trkpt lat="43.95823" lon="2.75531">
        <ele>285.17</ele>
        <time>2016-04-24T12:30:23Z</time>
      </trkpt>
      <trkpt lat="43.95806" lon="2.75539">
        <ele>285.17</ele>
        <time>2016-04-24T12:30:24Z</time>
      </trkpt>
      <trkpt lat="43.95754" lon="2.75561">
        <ele>286.13</ele>
        <time>2016-04-24T12:30:27Z</time>
      </trkpt>
      <trkpt lat="43.95738" lon="2.75573">
        <ele>286.13</ele>
        <time>2016-04-24T12:30:28Z</time>
      </trkpt>
      <trkpt lat="43.95721" lon="2.75587">
        <ele>285.65</ele>
        <time>2016-04-24T12:30:29Z</time>
      </trkpt>
      <trkpt lat="43.95704" lon="2.75608">
        <ele>285.65</ele>
        <time>2016-04-24T12:30:30Z</time>
      </trkpt>
      <trkpt lat="43.95686" lon="2.75633">
        <ele>286.13</ele>
        <time>2016-04-24T12:30:31Z</time>
      </trkpt>
      <trkpt lat="43.95591" lon="2.75753">
        <ele>288.53</ele>
        <time>2016-04-24T12:30:36Z</time>
      </trkpt>
      <trkpt lat="43.95569" lon="2.75771">
        <ele>288.53</ele>
        <time>2016-04-24T12:30:37Z</time>
      </trkpt>
      <trkpt lat="43.95545" lon="2.75785">
        <ele>289.49</ele>
        <time>2016-04-24T12:30:38Z</time>
      </trkpt>
      <trkpt lat="43.95416" lon="2.7589">
        <ele>292.86</ele>
        <time>2016-04-24T12:30:43Z</time>
      </trkpt>
      <trkpt lat="43.95347" lon="2.75949">
        <ele>294.78</ele>
        <time>2016-04-24T12:30:46Z</time>
      </trkpt>
      <trkpt lat="43.95325" lon="2.7596">
        <ele>295.26</ele>
        <time>2016-04-24T12:30:47Z</time>
      </trkpt>
      <trkpt lat="43.95211" lon="2.76011">
        <ele>299.11</ele>
        <time>2016-04-24T12:30:53Z</time>
      </trkpt>
      <trkpt lat="43.95195" lon="2.76024">
        <ele>299.11</ele>
        <time>2016-04-24T12:30:54Z</time>
      </trkpt>
      <trkpt lat="43.9518" lon="2.7604">
        <ele>299.59</ele>
        <time>2016-04-24T12:30:55Z</time>
      </trkpt>
      <trkpt lat="43.95167" lon="2.7606">
        <ele>300.07</ele>
        <time>2016-04-24T12:30:56Z</time>
      </trkpt>
      <trkpt lat="43.95153" lon="2.76082">
        <ele>301.03</ele>
        <time>2016-04-24T12:30:57Z</time>
      </trkpt>
      <trkpt lat="43.95139" lon="2.76108">
        <ele>301.99</ele>
        <time>2016-04-24T12:30:58Z</time>
      </trkpt>
      <trkpt lat="43.95044" lon="2.76277">
        <ele>310.64</ele>
        <time>2016-04-24T12:31:04Z</time>
      </trkpt>
      <trkpt lat="43.94993" lon="2.76371">
        <ele>315.93</ele>
        <time>2016-04-24T12:31:08Z</time>
      </trkpt>
      <trkpt lat="43.94985" lon="2.76396">
        <ele>316.89</ele>
        <time>2016-04-24T12:31:09Z</time>
      </trkpt>
      <trkpt lat="43.9498" lon="2.76423">
        <ele>317.37</ele>
        <time>2016-04-24T12:31:10Z</time>
      </trkpt>
      <trkpt lat="43.94978" lon="2.76453">
        <ele>318.33</ele>
        <time>2016-04-24T12:31:11Z</time>
      </trkpt>
      <trkpt lat="43.94976" lon="2.76483">
        <ele>318.81</ele>
        <time>2016-04-24T12:31:12Z</time>
      </trkpt>
      <trkpt lat="43.94979" lon="2.76575">
        <ele>318.81</ele>
        <time>2016-04-24T12:31:15Z</time>
      </trkpt>
      <trkpt lat="43.94987" lon="2.76603">
        <ele>318.33</ele>
        <time>2016-04-24T12:31:16Z</time>
      </trkpt>
      <trkpt lat="43.94998" lon="2.76628">
        <ele>317.85</ele>
        <time>2016-04-24T12:31:17Z</time>
      </trkpt>
      <trkpt lat="43.95011" lon="2.76649">
        <ele>317.37</ele>
        <time>2016-04-24T12:31:18Z</time>
      </trkpt>
      <trkpt lat="43.95026" lon="2.76668">
        <ele>317.37</ele>
        <time>2016-04-24T12:31:19Z</time>
      </trkpt>
      <trkpt lat="43.95043" lon="2.76685">
        <ele>317.37</ele>
        <time>2016-04-24T12:31:20Z</time>
      </trkpt>
      <trkpt lat="43.95062" lon="2.767">
        <ele>316.89</ele>
        <time>2016-04-24T12:31:21Z</time>
      </trkpt>
      <trkpt lat="43.95082" lon="2.76713">
        <ele>316.89</ele>
        <time>2016-04-24T12:31:22Z</time>
      </trkpt>
      <trkpt lat="43.9512" lon="2.76735">
        <ele>316.41</ele>
        <time>2016-04-24T12:31:24Z</time>
      </trkpt>
      <trkpt lat="43.95139" lon="2.76737">
        <ele>315.93</ele>
        <time>2016-04-24T12:31:25Z</time>
      </trkpt>
      <trkpt lat="43.95158" lon="2.76738">
        <ele>315.45</ele>
        <time>2016-04-24T12:31:26Z</time>
      </trkpt>
      <trkpt lat="43.95177" lon="2.76734">
        <ele>315.45</ele>
        <time>2016-04-24T12:31:27Z</time>
      </trkpt>
      <trkpt lat="43.95197" lon="2.76722">
        <ele>315.45</ele>
        <time>2016-04-24T12:31:28Z</time>
      </trkpt>
      <trkpt lat="43.95216" lon="2.76706">
        <ele>315.45</ele>
        <time>2016-04-24T12:31:29Z</time>
      </trkpt>
      <trkpt lat="43.95237" lon="2.76688">
        <ele>314.97</ele>
        <time>2016-04-24T12:31:30Z</time>
      </trkpt>
      <trkpt lat="43.9526" lon="2.76667">
        <ele>314.49</ele>
        <time>2016-04-24T12:31:31Z</time>
      </trkpt>
      <trkpt lat="43.95414" lon="2.76569">
        <ele>310.64</ele>
        <time>2016-04-24T12:31:37Z</time>
      </trkpt>
      <trkpt lat="43.956" lon="2.7654">
        <ele>304.39</ele>
        <time>2016-04-24T12:31:44Z</time>
      </trkpt>
      <trkpt lat="43.95778" lon="2.766">
        <ele>299.11</ele>
        <time>2016-04-24T12:31:50Z</time>
      </trkpt>
      <trkpt lat="43.95941" lon="2.76694">
        <ele>295.74</ele>
        <time>2016-04-24T12:31:55Z</time>
      </trkpt>
      <trkpt lat="43.96033" lon="2.76764">
        <ele>295.26</ele>
        <time>2016-04-24T12:31:59Z</time>
      </trkpt>
      <trkpt lat="43.9605" lon="2.76786">
        <ele>294.78</ele>
        <time>2016-04-24T12:32:00Z</time>
      </trkpt>
      <trkpt lat="43.96065" lon="2.76811">
        <ele>294.3</ele>
        <time>2016-04-24T12:32:01Z</time>
      </trkpt>
      <trkpt lat="43.96078" lon="2.76838">
        <ele>294.3</ele>
        <time>2016-04-24T12:32:02Z</time>
      </trkpt>
      <trkpt lat="43.96089" lon="2.76867">
        <ele>293.82</ele>
        <time>2016-04-24T12:32:03Z</time>
      </trkpt>
      <trkpt lat="43.96098" lon="2.76897">
        <ele>293.34</ele>
        <time>2016-04-24T12:32:04Z</time>
      </trkpt>
      <trkpt lat="43.96105" lon="2.7693">
        <ele>293.34</ele>
        <time>2016-04-24T12:32:05Z</time>
      </trkpt>
      <trkpt lat="43.9611" lon="2.76963">
        <ele>292.86</ele>
        <time>2016-04-24T12:32:06Z</time>
      </trkpt>
      <trkpt lat="43.9611" lon="2.76997">
        <ele>293.82</ele>
        <time>2016-04-24T12:32:07Z</time>
      </trkpt>
      <trkpt lat="43.96109" lon="2.77031">
        <ele>293.34</ele>
        <time>2016-04-24T12:32:08Z</time>
      </trkpt>
      <trkpt lat="43.96106" lon="2.77064">
        <ele>293.34</ele>
        <time>2016-04-24T12:32:09Z</time>
      </trkpt>
      <trkpt lat="43.96099" lon="2.77098">
        <ele>293.34</ele>
        <time>2016-04-24T12:32:10Z</time>
      </trkpt>
      <trkpt lat="43.96091" lon="2.77131">
        <ele>292.38</ele>
        <time>2016-04-24T12:32:11Z</time>
      </trkpt>
      <trkpt lat="43.96082" lon="2.77166">
        <ele>291.42</ele>
        <time>2016-04-24T12:32:12Z</time>
      </trkpt>
      <trkpt lat="43.96012" lon="2.77476">
        <ele>287.09</ele>
        <time>2016-04-24T12:32:20Z</time>
      </trkpt>
      <trkpt lat="43.96006" lon="2.77664">
        <ele>287.09</ele>
        <time>2016-04-24T12:32:25Z</time>
      </trkpt>
      <trkpt lat="43.96012" lon="2.77697">
        <ele>286.61</ele>
        <time>2016-04-24T12:32:26Z</time>
      </trkpt>
      <trkpt lat="43.9602" lon="2.77729">
        <ele>286.61</ele>
        <time>2016-04-24T12:32:27Z</time>
      </trkpt>
      <trkpt lat="43.9603" lon="2.77758">
        <ele>286.13</ele>
        <time>2016-04-24T12:32:28Z</time>
      </trkpt>
      <trkpt lat="43.96042" lon="2.77787">
        <ele>286.13</ele>
        <time>2016-04-24T12:32:29Z</time>
      </trkpt>
      <trkpt lat="43.96057" lon="2.77815">
        <ele>286.13</ele>
        <time>2016-04-24T12:32:30Z</time>
      </trkpt>
      <trkpt lat="43.96073" lon="2.77845">
        <ele>286.13</ele>
        <time>2016-04-24T12:32:31Z</time>
      </trkpt>
      <trkpt lat="43.96184" lon="2.78038">
        <ele>286.61</ele>
        <time>2016-04-24T12:32:38Z</time>
      </trkpt>
      <trkpt lat="43.9627" lon="2.78185">
        <ele>287.09</ele>
        <time>2016-04-24T12:32:46Z</time>
      </trkpt>
      <trkpt lat="43.96289" lon="2.78223">
        <ele>287.09</ele>
        <time>2016-04-24T12:32:48Z</time>
      </trkpt>
      <trkpt lat="43.96295" lon="2.78242">
        <ele>287.57</ele>
        <time>2016-04-24T12:32:49Z</time>
      </trkpt>
      <trkpt lat="43.96298" lon="2.78263">
        <ele>287.57</ele>
        <time>2016-04-24T12:32:50Z</time>
      </trkpt>
      <trkpt lat="43.96299" lon="2.78284">
        <ele>288.05</ele>
        <time>2016-04-24T12:32:51Z</time>
      </trkpt>
      <trkpt lat="43.96296" lon="2.78306">
        <ele>288.05</ele>
        <time>2016-04-24T12:32:52Z</time>
      </trkpt>
      <trkpt lat="43.9629" lon="2.78327">
        <ele>288.05</ele>
        <time>2016-04-24T12:32:53Z</time>
      </trkpt>
      <trkpt lat="43.96283" lon="2.78347">
        <ele>288.05</ele>
        <time>2016-04-24T12:32:54Z</time>
      </trkpt>
      <trkpt lat="43.96274" lon="2.78367">
        <ele>288.53</ele>
        <time>2016-04-24T12:32:55Z</time>
      </trkpt>
      <trkpt lat="43.9622" lon="2.7849">
        <ele>291.9</ele>
        <time>2016-04-24T12:33:03Z</time>
      </trkpt>
      <trkpt lat="43.96194" lon="2.78552">
        <ele>293.34</ele>
        <time>2016-04-24T12:33:09Z</time>
      </trkpt>
      <trkpt lat="43.96193" lon="2.78563">
        <ele>293.82</ele>
        <time>2016-04-24T12:33:10Z</time>
      </trkpt>
      <trkpt lat="43.96196" lon="2.78574">
        <ele>293.82</ele>
        <time>2016-04-24T12:33:11Z</time>
      </trkpt>
      <trkpt lat="43.96202" lon="2.78585">
        <ele>293.82</ele>
        <time>2016-04-24T12:33:12Z</time>
      </trkpt>
      <trkpt lat="43.96211" lon="2.78596">
        <ele>294.3</ele>
        <time>2016-04-24T12:33:13Z</time>
      </trkpt>
      <trkpt lat="43.96221" lon="2.78608">
        <ele>294.78</ele>
        <time>2016-04-24T12:33:14Z</time>
      </trkpt>
      <trkpt lat="43.96329" lon="2.7871">
        <ele>302.47</ele>
        <time>2016-04-24T12:33:22Z</time>
      </trkpt>
      <trkpt lat="43.96434" lon="2.78794">
        <ele>311.12</ele>
        <time>2016-04-24T12:33:31Z</time>
      </trkpt>
      <trkpt lat="43.96442" lon="2.78806">
        <ele>312.09</ele>
        <time>2016-04-24T12:33:32Z</time>
      </trkpt>
      <trkpt lat="43.96449" lon="2.78821">
        <ele>313.05</ele>
        <time>2016-04-24T12:33:33Z</time>
      </trkpt>
      <trkpt lat="43.96472" lon="2.78881">
        <ele>315.93</ele>
        <time>2016-04-24T12:33:37Z</time>
      </trkpt>
      <trkpt lat="43.96474" lon="2.78894">
        <ele>316.41</ele>
        <time>2016-04-24T12:33:38Z</time>
      </trkpt>
      <trkpt lat="43.96473" lon="2.78905">
        <ele>316.89</ele>
        <time>2016-04-24T12:33:39Z</time>
      </trkpt>
      <trkpt lat="43.9647" lon="2.78916">
        <ele>317.37</ele>
        <time>2016-04-24T12:33:40Z</time>
      </trkpt>
      <trkpt lat="43.96466" lon="2.78926">
        <ele>317.85</ele>
        <time>2016-04-24T12:33:41Z</time>
      </trkpt>
      <trkpt lat="43.9646" lon="2.78937">
        <ele>317.85</ele>
        <time>2016-04-24T12:33:42Z</time>
      </trkpt>
      <trkpt lat="43.96453" lon="2.7895">
        <ele>318.33</ele>
        <time>2016-04-24T12:33:43Z</time>
      </trkpt>
      <trkpt lat="43.96386" lon="2.79066">
        <ele>315.93</ele>
        <time>2016-04-24T12:33:50Z</time>
      </trkpt>
      <trkpt lat="43.96311" lon="2.79233">
        <ele>311.12</ele>
        <time>2016-04-24T12:33:59Z</time>
      </trkpt>
      <trkpt lat="43.96281" lon="2.79321">
        <ele>309.2</ele>
        <time>2016-04-24T12:34:03Z</time>
      </trkpt>
      <trkpt lat="43.96269" lon="2.79341">
        <ele>308.72</ele>
        <time>2016-04-24T12:34:04Z</time>
      </trkpt>
      <trkpt lat="43.96184" lon="2.79479">
        <ele>307.76</ele>
        <time>2016-04-24T12:34:11Z</time>
      </trkpt>
      <trkpt lat="43.9617" lon="2.79495">
        <ele>307.28</ele>
        <time>2016-04-24T12:34:12Z</time>
      </trkpt>
      <trkpt lat="43.96066" lon="2.79613">
        <ele>308.24</ele>
        <time>2016-04-24T12:34:19Z</time>
      </trkpt>
      <trkpt lat="43.95957" lon="2.79769">
        <ele>305.84</ele>
        <time>2016-04-24T12:34:25Z</time>
      </trkpt>
      <trkpt lat="43.95834" lon="2.79945">
        <ele>302.47</ele>
        <time>2016-04-24T12:34:32Z</time>
      </trkpt>
      <trkpt lat="43.95812" lon="2.79986">
        <ele>301.99</ele>
        <time>2016-04-24T12:34:34Z</time>
      </trkpt>
      <trkpt lat="43.95804" lon="2.80007">
        <ele>301.51</ele>
        <time>2016-04-24T12:34:35Z</time>
      </trkpt>
      <trkpt lat="43.95799" lon="2.8003">
        <ele>301.03</ele>
        <time>2016-04-24T12:34:36Z</time>
      </trkpt>
      <trkpt lat="43.95796" lon="2.80054">
        <ele>301.03</ele>
        <time>2016-04-24T12:34:37Z</time>
      </trkpt>
      <trkpt lat="43.95796" lon="2.8008">
        <ele>300.55</ele>
        <time>2016-04-24T12:34:38Z</time>
      </trkpt>
      <trkpt lat="43.95799" lon="2.80106">
        <ele>300.07</ele>
        <time>2016-04-24T12:34:39Z</time>
      </trkpt>
      <trkpt lat="43.95803" lon="2.80133">
        <ele>300.07</ele>
        <time>2016-04-24T12:34:40Z</time>
      </trkpt>
      <trkpt lat="43.95809" lon="2.80162">
        <ele>299.59</ele>
        <time>2016-04-24T12:34:41Z</time>
      </trkpt>
      <trkpt lat="43.95839" lon="2.80385">
        <ele>300.07</ele>
        <time>2016-04-24T12:34:48Z</time>
      </trkpt>
      <trkpt lat="43.95836" lon="2.80772">
        <ele>300.07</ele>
        <time>2016-04-24T12:34:58Z</time>
      </trkpt>
      <trkpt lat="43.95809" lon="2.81206">
        <ele>301.03</ele>
        <time>2016-04-24T12:35:09Z</time>
      </trkpt>
      <trkpt lat="43.95765" lon="2.81722">
        <ele>301.51</ele>
        <time>2016-04-24T12:35:22Z</time>
      </trkpt>
      <trkpt lat="43.95676" lon="2.82219">
        <ele>303.43</ele>
        <time>2016-04-24T12:35:36Z</time>
      </trkpt>
      <trkpt lat="43.95624" lon="2.8253">
        <ele>305.84</ele>
        <time>2016-04-24T12:35:45Z</time>
      </trkpt>
      <trkpt lat="43.95624" lon="2.82562">
        <ele>305.84</ele>
        <time>2016-04-24T12:35:46Z</time>
      </trkpt>
      <trkpt lat="43.95626" lon="2.82595">
        <ele>305.84</ele>
        <time>2016-04-24T12:35:47Z</time>
      </trkpt>
      <trkpt lat="43.95638" lon="2.82821">
        <ele>307.76</ele>
        <time>2016-04-24T12:35:54Z</time>
      </trkpt>
      <trkpt lat="43.95599" lon="2.82971">
        <ele>309.68</ele>
        <time>2016-04-24T12:35:59Z</time>
      </trkpt>
      <trkpt lat="43.95551" lon="2.83043">
        <ele>310.64</ele>
        <time>2016-04-24T12:36:02Z</time>
      </trkpt>
      <trkpt lat="43.95426" lon="2.83225">
        <ele>312.57</ele>
        <time>2016-04-24T12:36:09Z</time>
      </trkpt>
      <trkpt lat="43.9535" lon="2.83418">
        <ele>311.6</ele>
        <time>2016-04-24T12:36:16Z</time>
      </trkpt>
      <trkpt lat="43.95263" lon="2.83561">
        <ele>311.12</ele>
        <time>2016-04-24T12:36:23Z</time>
      </trkpt>
      <trkpt lat="43.95176" lon="2.83696">
        <ele>311.12</ele>
        <time>2016-04-24T12:36:31Z</time>
      </trkpt>
      <trkpt lat="43.95168" lon="2.83708">
        <ele>311.12</ele>
        <time>2016-04-24T12:36:32Z</time>
      </trkpt>
      <trkpt lat="43.95159" lon="2.83717">
        <ele>311.12</ele>
        <time>2016-04-24T12:36:33Z</time>
      </trkpt>
      <trkpt lat="43.95149" lon="2.83723">
        <ele>311.6</ele>
        <time>2016-04-24T12:36:34Z</time>
      </trkpt>
      <trkpt lat="43.95137" lon="2.83725">
        <ele>311.6</ele>
        <time>2016-04-24T12:36:35Z</time>
      </trkpt>
      <trkpt lat="43.95125" lon="2.83727">
        <ele>312.09</ele>
        <time>2016-04-24T12:36:36Z</time>
      </trkpt>
      <trkpt lat="43.95059" lon="2.8373">
        <ele>312.57</ele>
        <time>2016-04-24T12:36:43Z</time>
      </trkpt>
      <trkpt lat="43.94946" lon="2.83737">
        <ele>313.53</ele>
        <time>2016-04-24T12:36:54Z</time>
      </trkpt>
      <trkpt lat="43.94841" lon="2.83721">
        <ele>312.09</ele>
        <time>2016-04-24T12:37:03Z</time>
      </trkpt>
      <trkpt lat="43.94734" lon="2.83702">
        <ele>311.12</ele>
        <time>2016-04-24T12:37:13Z</time>
      </trkpt>
      <trkpt lat="43.94699" lon="2.8369">
        <ele>311.12</ele>
        <time>2016-04-24T12:37:20Z</time>
      </trkpt>
      <trkpt lat="43.94687" lon="2.8368">
        <ele>311.6</ele>
        <time>2016-04-24T12:37:25Z</time>
      </trkpt>
      <trkpt lat="43.94682" lon="2.83681">
        <ele>311.6</ele>
        <time>2016-04-24T12:37:26Z</time>
      </trkpt>
      <trkpt lat="43.94674" lon="2.83686">
        <ele>311.6</ele>
        <time>2016-04-24T12:37:27Z</time>
      </trkpt>
      <trkpt lat="43.94618" lon="2.83722">
        <ele>312.09</ele>
        <time>2016-04-24T12:37:36Z</time>
      </trkpt>
      <trkpt lat="43.9458" lon="2.83747">
        <ele>311.12</ele>
        <time>2016-04-24T12:37:42Z</time>
      </trkpt>
      <trkpt lat="43.94577" lon="2.83757">
        <ele>310.64</ele>
        <time>2016-04-24T12:37:43Z</time>
      </trkpt>
      <trkpt lat="43.94578" lon="2.83768">
        <ele>310.64</ele>
        <time>2016-04-24T12:37:44Z</time>
      </trkpt>
      <trkpt lat="43.94581" lon="2.8378">
        <ele>310.16</ele>
        <time>2016-04-24T12:37:45Z</time>
      </trkpt>
      <trkpt lat="43.94588" lon="2.8379">
        <ele>309.68</ele>
        <time>2016-04-24T12:37:46Z</time>
      </trkpt>
      <trkpt lat="43.94596" lon="2.83801">
        <ele>309.68</ele>
        <time>2016-04-24T12:37:47Z</time>
      </trkpt>
      <trkpt lat="43.94605" lon="2.83812">
        <ele>309.2</ele>
        <time>2016-04-24T12:37:48Z</time>
      </trkpt>
      <trkpt lat="43.94711" lon="2.83927">
        <ele>308.24</ele>
        <time>2016-04-24T12:37:58Z</time>
      </trkpt>
      <trkpt lat="43.94826" lon="2.84043">
        <ele>308.72</ele>
        <time>2016-04-24T12:38:07Z</time>
      </trkpt>
      <trkpt lat="43.9498" lon="2.84204">
        <ele>312.09</ele>
        <time>2016-04-24T12:38:19Z</time>
      </trkpt>
      <trkpt lat="43.95143" lon="2.84381">
        <ele>313.05</ele>
        <time>2016-04-24T12:38:31Z</time>
      </trkpt>
      <trkpt lat="43.95208" lon="2.84523">
        <ele>313.05</ele>
        <time>2016-04-24T12:38:39Z</time>
      </trkpt>
      <trkpt lat="43.95256" lon="2.84702">
        <ele>313.53</ele>
        <time>2016-04-24T12:38:48Z</time>
      </trkpt>
      <trkpt lat="43.95271" lon="2.84764">
        <ele>314.01</ele>
        <time>2016-04-24T12:38:53Z</time>
      </trkpt>
      <trkpt lat="43.95275" lon="2.84774">
        <ele>314.49</ele>
        <time>2016-04-24T12:38:54Z</time>
      </trkpt>
      <trkpt lat="43.95281" lon="2.84783">
        <ele>314.01</ele>
        <time>2016-04-24T12:38:55Z</time>
      </trkpt>
      <trkpt lat="43.95292" lon="2.84801">
        <ele>314.01</ele>
        <time>2016-04-24T12:38:57Z</time>
      </trkpt>
      <trkpt lat="43.95297" lon="2.84812">
        <ele>314.01</ele>
        <time>2016-04-24T12:38:58Z</time>
      </trkpt>
      <trkpt lat="43.953" lon="2.84826">
        <ele>314.01</ele>
        <time>2016-04-24T12:38:59Z</time>
      </trkpt>
      <trkpt lat="43.95337" lon="2.84996">
        <ele>315.45</ele>
        <time>2016-04-24T12:39:08Z</time>
      </trkpt>
      <trkpt lat="43.95386" lon="2.85187">
        <ele>314.01</ele>
        <time>2016-04-24T12:39:16Z</time>
      </trkpt>
      <trkpt lat="43.95434" lon="2.85378">
        <ele>313.05</ele>
        <time>2016-04-24T12:39:24Z</time>
      </trkpt>
      <trkpt lat="43.95513" lon="2.85683">
        <ele>314.01</ele>
        <time>2016-04-24T12:39:37Z</time>
      </trkpt>
      <trkpt lat="43.95565" lon="2.8589">
        <ele>314.97</ele>
        <time>2016-04-24T12:39:47Z</time>
      </trkpt>
      <trkpt lat="43.95636" lon="2.86208">
        <ele>314.49</ele>
        <time>2016-04-24T12:40:01Z</time>
      </trkpt>
      <trkpt lat="43.95645" lon="2.86385">
        <ele>313.53</ele>
        <time>2016-04-24T12:40:10Z</time>
      </trkpt>
      <trkpt lat="43.95638" lon="2.86587">
        <ele>316.41</ele>
        <time>2016-04-24T12:40:20Z</time>
      </trkpt>
      <trkpt lat="43.95664" lon="2.86738">
        <ele>316.41</ele>
        <time>2016-04-24T12:40:28Z</time>
      </trkpt>
      <trkpt lat="43.95702" lon="2.86956">
        <ele>317.37</ele>
        <time>2016-04-24T12:40:40Z</time>
      </trkpt>
      <trkpt lat="43.95736" lon="2.87137">
        <ele>317.85</ele>
        <time>2016-04-24T12:40:50Z</time>
      </trkpt>
      <trkpt lat="43.95748" lon="2.87337">
        <ele>320.74</ele>
        <time>2016-04-24T12:41:00Z</time>
      </trkpt>
      <trkpt lat="43.95723" lon="2.8753">
        <ele>320.26</ele>
        <time>2016-04-24T12:41:11Z</time>
      </trkpt>
      <trkpt lat="43.957" lon="2.87731">
        <ele>320.26</ele>
        <time>2016-04-24T12:41:22Z</time>
      </trkpt>
      <trkpt lat="43.95709" lon="2.87888">
        <ele>321.7</ele>
        <time>2016-04-24T12:41:30Z</time>
      </trkpt>
      <trkpt lat="43.95757" lon="2.88125">
        <ele>322.18</ele>
        <time>2016-04-24T12:41:43Z</time>
      </trkpt>
      <trkpt lat="43.95758" lon="2.88137">
        <ele>322.18</ele>
        <time>2016-04-24T12:41:44Z</time>
      </trkpt>
      <trkpt lat="43.95756" lon="2.88144">
        <ele>322.18</ele>
        <time>2016-04-24T12:41:45Z</time>
      </trkpt>
      <trkpt lat="43.95753" lon="2.88151">
        <ele>322.18</ele>
        <time>2016-04-24T12:41:46Z</time>
      </trkpt>
      <trkpt lat="43.95748" lon="2.88155">
        <ele>322.18</ele>
        <time>2016-04-24T12:41:47Z</time>
      </trkpt>
      <trkpt lat="43.95742" lon="2.88155">
        <ele>322.18</ele>
        <time>2016-04-24T12:41:48Z</time>
      </trkpt>
      <trkpt lat="43.95737" lon="2.88157">
        <ele>322.18</ele>
        <time>2016-04-24T12:41:49Z</time>
      </trkpt>
      <trkpt lat="43.95663" lon="2.88189">
        <ele>325.54</ele>
        <time>2016-04-24T12:42:00Z</time>
      </trkpt>
      <trkpt lat="43.95612" lon="2.88211">
        <ele>327.47</ele>
        <time>2016-04-24T12:42:07Z</time>
      </trkpt>
      <trkpt lat="43.95605" lon="2.88216">
        <ele>327.47</ele>
        <time>2016-04-24T12:42:08Z</time>
      </trkpt>
      <trkpt lat="43.956" lon="2.88224">
        <ele>327.47</ele>
        <time>2016-04-24T12:42:09Z</time>
      </trkpt>
      <trkpt lat="43.95594" lon="2.88232">
        <ele>326.99</ele>
        <time>2016-04-24T12:42:10Z</time>
      </trkpt>
      <trkpt lat="43.95591" lon="2.88243">
        <ele>327.47</ele>
        <time>2016-04-24T12:42:11Z</time>
      </trkpt>
      <trkpt lat="43.95589" lon="2.88255">
        <ele>327.95</ele>
        <time>2016-04-24T12:42:12Z</time>
      </trkpt>
      <trkpt lat="43.95588" lon="2.88267">
        <ele>328.43</ele>
        <time>2016-04-24T12:42:13Z</time>
      </trkpt>
      <trkpt lat="43.95589" lon="2.88278">
        <ele>328.91</ele>
        <time>2016-04-24T12:42:14Z</time>
      </trkpt>
      <trkpt lat="43.95587" lon="2.88289">
        <ele>328.91</ele>
        <time>2016-04-24T12:42:15Z</time>
      </trkpt>
      <trkpt lat="43.95577" lon="2.88421">
        <ele>327.95</ele>
        <time>2016-04-24T12:42:26Z</time>
      </trkpt>
      <trkpt lat="43.95577" lon="2.88434">
        <ele>327.95</ele>
        <time>2016-04-24T12:42:27Z</time>
      </trkpt>
      <trkpt lat="43.95578" lon="2.88449">
        <ele>327.95</ele>
        <time>2016-04-24T12:42:28Z</time>
      </trkpt>
      <trkpt lat="43.95579" lon="2.88463">
        <ele>327.47</ele>
        <time>2016-04-24T12:42:29Z</time>
      </trkpt>
      <trkpt lat="43.95582" lon="2.88476">
        <ele>326.99</ele>
        <time>2016-04-24T12:42:30Z</time>
      </trkpt>
      <trkpt lat="43.95585" lon="2.88489">
        <ele>326.5</ele>
        <time>2016-04-24T12:42:31Z</time>
      </trkpt>
      <trkpt lat="43.95605" lon="2.88571">
        <ele>324.58</ele>
        <time>2016-04-24T12:42:38Z</time>
      </trkpt>
      <trkpt lat="43.9561" lon="2.8858">
        <ele>324.1</ele>
        <time>2016-04-24T12:42:39Z</time>
      </trkpt>
      <trkpt lat="43.95616" lon="2.88587">
        <ele>324.1</ele>
        <time>2016-04-24T12:42:40Z</time>
      </trkpt>
      <trkpt lat="43.95655" lon="2.88632">
        <ele>324.58</ele>
        <time>2016-04-24T12:42:47Z</time>
      </trkpt>
      <trkpt lat="43.95657" lon="2.8864">
        <ele>324.1</ele>
        <time>2016-04-24T12:42:48Z</time>
      </trkpt>
      <trkpt lat="43.95658" lon="2.88648">
        <ele>324.1</ele>
        <time>2016-04-24T12:42:49Z</time>
      </trkpt>
      <trkpt lat="43.95656" lon="2.88654">
        <ele>324.1</ele>
        <time>2016-04-24T12:42:50Z</time>
      </trkpt>
      <trkpt lat="43.95651" lon="2.88663">
        <ele>323.62</ele>
        <time>2016-04-24T12:42:51Z</time>
      </trkpt>
      <trkpt lat="43.95648" lon="2.88674">
        <ele>324.58</ele>
        <time>2016-04-24T12:42:52Z</time>
      </trkpt>
      <trkpt lat="43.95649" lon="2.88685">
        <ele>325.06</ele>
        <time>2016-04-24T12:42:53Z</time>
      </trkpt>
      <trkpt lat="43.95626" lon="2.88727">
        <ele>326.99</ele>
        <time>2016-04-24T12:42:57Z</time>
      </trkpt>
      <trkpt lat="43.95621" lon="2.88751">
        <ele>326.5</ele>
        <time>2016-04-24T12:42:59Z</time>
      </trkpt>
      <trkpt lat="43.9562" lon="2.88762">
        <ele>326.5</ele>
        <time>2016-04-24T12:43:00Z</time>
      </trkpt>
      <trkpt lat="43.95613" lon="2.88833">
        <ele>325.54</ele>
        <time>2016-04-24T12:43:06Z</time>
      </trkpt>
      <trkpt lat="43.9561" lon="2.88847">
        <ele>324.58</ele>
        <time>2016-04-24T12:43:07Z</time>
      </trkpt>
      <trkpt lat="43.95578" lon="2.88962">
        <ele>324.58</ele>
        <time>2016-04-24T12:43:17Z</time>
      </trkpt>
      <trkpt lat="43.95566" lon="2.88998">
        <ele>325.54</ele>
        <time>2016-04-24T12:43:20Z</time>
      </trkpt>
      <trkpt lat="43.95559" lon="2.89008">
        <ele>326.02</ele>
        <time>2016-04-24T12:43:21Z</time>
      </trkpt>
      <trkpt lat="43.95552" lon="2.89018">
        <ele>326.5</ele>
        <time>2016-04-24T12:43:22Z</time>
      </trkpt>
      <trkpt lat="43.95544" lon="2.89025">
        <ele>326.5</ele>
        <time>2016-04-24T12:43:23Z</time>
      </trkpt>
      <trkpt lat="43.95536" lon="2.89031">
        <ele>326.99</ele>
        <time>2016-04-24T12:43:24Z</time>
      </trkpt>
      <trkpt lat="43.95528" lon="2.89035">
        <ele>327.47</ele>
        <time>2016-04-24T12:43:25Z</time>
      </trkpt>
      <trkpt lat="43.95519" lon="2.89038">
        <ele>327.47</ele>
        <time>2016-04-24T12:43:26Z</time>
      </trkpt>
      <trkpt lat="43.95511" lon="2.89041">
        <ele>327.47</ele>
        <time>2016-04-24T12:43:27Z</time>
      </trkpt>
      <trkpt lat="43.9543" lon="2.8909">
        <ele>328.43</ele>
        <time>2016-04-24T12:43:37Z</time>
      </trkpt>
      <trkpt lat="43.95327" lon="2.89163">
        <ele>327.95</ele>
        <time>2016-04-24T12:43:48Z</time>
      </trkpt>
      <trkpt lat="43.95202" lon="2.8926">
        <ele>328.91</ele>
        <time>2016-04-24T12:44:00Z</time>
      </trkpt>
      <trkpt lat="43.95132" lon="2.89333">
        <ele>329.39</ele>
        <time>2016-04-24T12:44:09Z</time>
      </trkpt>
      <trkpt lat="43.95123" lon="2.8934">
        <ele>329.39</ele>
        <time>2016-04-24T12:44:10Z</time>
      </trkpt>
      <trkpt lat="43.95101" lon="2.89356">
        <ele>329.87</ele>
        <time>2016-04-24T12:44:13Z</time>
      </trkpt>
      <trkpt lat="43.95096" lon="2.89362">
        <ele>329.87</ele>
        <time>2016-04-24T12:44:14Z</time>
      </trkpt>
      <trkpt lat="43.95092" lon="2.8937">
        <ele>330.35</ele>
        <time>2016-04-24T12:44:15Z</time>
      </trkpt>
      <trkpt lat="43.95091" lon="2.89379">
        <ele>330.35</ele>
        <time>2016-04-24T12:44:16Z</time>
      </trkpt>
      <trkpt lat="43.95093" lon="2.89388">
        <ele>330.35</ele>
        <time>2016-04-24T12:44:17Z</time>
      </trkpt>
      <trkpt lat="43.95098" lon="2.89398">
        <ele>329.87</ele>
        <time>2016-04-24T12:44:18Z</time>
      </trkpt>
      <trkpt lat="43.95102" lon="2.89408">
        <ele>329.87</ele>
        <time>2016-04-24T12:44:19Z</time>
      </trkpt>
      <trkpt lat="43.95131" lon="2.89492">
        <ele>332.27</ele>
        <time>2016-04-24T12:44:29Z</time>
      </trkpt>
      <trkpt lat="43.95141" lon="2.89539">
        <ele>333.71</ele>
        <time>2016-04-24T12:44:33Z</time>
      </trkpt>
      <trkpt lat="43.95142" lon="2.89553">
        <ele>334.2</ele>
        <time>2016-04-24T12:44:34Z</time>
      </trkpt>
      <trkpt lat="43.95141" lon="2.89568">
        <ele>334.68</ele>
        <time>2016-04-24T12:44:35Z</time>
      </trkpt>
      <trkpt lat="43.95139" lon="2.89584">
        <ele>335.16</ele>
        <time>2016-04-24T12:44:36Z</time>
      </trkpt>
      <trkpt lat="43.95135" lon="2.896">
        <ele>335.64</ele>
        <time>2016-04-24T12:44:37Z</time>
      </trkpt>
      <trkpt lat="43.9513" lon="2.89616">
        <ele>336.6</ele>
        <time>2016-04-24T12:44:38Z</time>
      </trkpt>
      <trkpt lat="43.9511" lon="2.89678">
        <ele>339.96</ele>
        <time>2016-04-24T12:44:42Z</time>
      </trkpt>
      <trkpt lat="43.95104" lon="2.89691">
        <ele>340.92</ele>
        <time>2016-04-24T12:44:43Z</time>
      </trkpt>
      <trkpt lat="43.95098" lon="2.89702">
        <ele>341.89</ele>
        <time>2016-04-24T12:44:44Z</time>
      </trkpt>
      <trkpt lat="43.9509" lon="2.89712">
        <ele>343.33</ele>
        <time>2016-04-24T12:44:45Z</time>
      </trkpt>
      <trkpt lat="43.95083" lon="2.89722">
        <ele>344.29</ele>
        <time>2016-04-24T12:44:46Z</time>
      </trkpt>
      <trkpt lat="43.95074" lon="2.89732">
        <ele>344.77</ele>
        <time>2016-04-24T12:44:47Z</time>
      </trkpt>
      <trkpt lat="43.95063" lon="2.89742">
        <ele>345.25</ele>
        <time>2016-04-24T12:44:48Z</time>
      </trkpt>
      <trkpt lat="43.95053" lon="2.89751">
        <ele>345.73</ele>
        <time>2016-04-24T12:44:49Z</time>
      </trkpt>
      <trkpt lat="43.94941" lon="2.89834">
        <ele>350.06</ele>
        <time>2016-04-24T12:44:59Z</time>
      </trkpt>
      <trkpt lat="43.94897" lon="2.8987">
        <ele>351.98</ele>
        <time>2016-04-24T12:45:03Z</time>
      </trkpt>
      <trkpt lat="43.94886" lon="2.89883">
        <ele>352.46</ele>
        <time>2016-04-24T12:45:04Z</time>
      </trkpt>
      <trkpt lat="43.94876" lon="2.89899">
        <ele>352.94</ele>
        <time>2016-04-24T12:45:05Z</time>
      </trkpt>
      <trkpt lat="43.94867" lon="2.89917">
        <ele>353.42</ele>
        <time>2016-04-24T12:45:06Z</time>
      </trkpt>
      <trkpt lat="43.94859" lon="2.89935">
        <ele>353.9</ele>
        <time>2016-04-24T12:45:07Z</time>
      </trkpt>
      <trkpt lat="43.94844" lon="2.89971">
        <ele>354.38</ele>
        <time>2016-04-24T12:45:09Z</time>
      </trkpt>
      <trkpt lat="43.9484" lon="2.89988">
        <ele>354.86</ele>
        <time>2016-04-24T12:45:10Z</time>
      </trkpt>
      <trkpt lat="43.94838" lon="2.90006">
        <ele>355.34</ele>
        <time>2016-04-24T12:45:11Z</time>
      </trkpt>
      <trkpt lat="43.9484" lon="2.90027">
        <ele>355.34</ele>
        <time>2016-04-24T12:45:12Z</time>
      </trkpt>
      <trkpt lat="43.94845" lon="2.90047">
        <ele>355.34</ele>
        <time>2016-04-24T12:45:13Z</time>
      </trkpt>
      <trkpt lat="43.94853" lon="2.90063">
        <ele>355.34</ele>
        <time>2016-04-24T12:45:14Z</time>
      </trkpt>
      <trkpt lat="43.94862" lon="2.90076">
        <ele>355.83</ele>
        <time>2016-04-24T12:45:15Z</time>
      </trkpt>
      <trkpt lat="43.9487" lon="2.90089">
        <ele>355.83</ele>
        <time>2016-04-24T12:45:16Z</time>
      </trkpt>
      <trkpt lat="43.94875" lon="2.90104">
        <ele>355.83</ele>
        <time>2016-04-24T12:45:17Z</time>
      </trkpt>
      <trkpt lat="43.94876" lon="2.90119">
        <ele>356.31</ele>
        <time>2016-04-24T12:45:18Z</time>
      </trkpt>
      <trkpt lat="43.94873" lon="2.90136">
        <ele>356.31</ele>
        <time>2016-04-24T12:45:19Z</time>
      </trkpt>
      <trkpt lat="43.94865" lon="2.90152">
        <ele>356.31</ele>
        <time>2016-04-24T12:45:20Z</time>
      </trkpt>
      <trkpt lat="43.94857" lon="2.90168">
        <ele>356.31</ele>
        <time>2016-04-24T12:45:21Z</time>
      </trkpt>
      <trkpt lat="43.94847" lon="2.90184">
        <ele>356.79</ele>
        <time>2016-04-24T12:45:22Z</time>
      </trkpt>
      <trkpt lat="43.94837" lon="2.902">
        <ele>357.75</ele>
        <time>2016-04-24T12:45:23Z</time>
      </trkpt>
      <trkpt lat="43.94784" lon="2.90332">
        <ele>361.11</ele>
        <time>2016-04-24T12:45:29Z</time>
      </trkpt>
      <trkpt lat="43.94772" lon="2.90351">
        <ele>361.59</ele>
        <time>2016-04-24T12:45:30Z</time>
      </trkpt>
      <trkpt lat="43.94759" lon="2.90363">
        <ele>362.07</ele>
        <time>2016-04-24T12:45:31Z</time>
      </trkpt>
      <trkpt lat="43.94744" lon="2.90371">
        <ele>362.55</ele>
        <time>2016-04-24T12:45:32Z</time>
      </trkpt>
      <trkpt lat="43.9473" lon="2.90373">
        <ele>362.55</ele>
        <time>2016-04-24T12:45:33Z</time>
      </trkpt>
      <trkpt lat="43.94716" lon="2.90373">
        <ele>363.04</ele>
        <time>2016-04-24T12:45:34Z</time>
      </trkpt>
      <trkpt lat="43.947" lon="2.90368">
        <ele>363.52</ele>
        <time>2016-04-24T12:45:35Z</time>
      </trkpt>
      <trkpt lat="43.94686" lon="2.90361">
        <ele>364.48</ele>
        <time>2016-04-24T12:45:36Z</time>
      </trkpt>
      <trkpt lat="43.94671" lon="2.90356">
        <ele>364.96</ele>
        <time>2016-04-24T12:45:37Z</time>
      </trkpt>
      <trkpt lat="43.94657" lon="2.90354">
        <ele>364.96</ele>
        <time>2016-04-24T12:45:38Z</time>
      </trkpt>
      <trkpt lat="43.94647" lon="2.90358">
        <ele>364.96</ele>
        <time>2016-04-24T12:45:39Z</time>
      </trkpt>
      <trkpt lat="43.94637" lon="2.90368">
        <ele>364.48</ele>
        <time>2016-04-24T12:45:40Z</time>
      </trkpt>
      <trkpt lat="43.94629" lon="2.90386">
        <ele>364.48</ele>
        <time>2016-04-24T12:45:41Z</time>
      </trkpt>
      <trkpt lat="43.94625" lon="2.90407">
        <ele>364.48</ele>
        <time>2016-04-24T12:45:42Z</time>
      </trkpt>
      <trkpt lat="43.94623" lon="2.90427">
        <ele>364.96</ele>
        <time>2016-04-24T12:45:43Z</time>
      </trkpt>
      <trkpt lat="43.94623" lon="2.90448">
        <ele>365.44</ele>
        <time>2016-04-24T12:45:44Z</time>
      </trkpt>
      <trkpt lat="43.94622" lon="2.90468">
        <ele>365.92</ele>
        <time>2016-04-24T12:45:45Z</time>
      </trkpt>
      <trkpt lat="43.94628" lon="2.90607">
        <ele>368.32</ele>
        <time>2016-04-24T12:45:51Z</time>
      </trkpt>
      <trkpt lat="43.94634" lon="2.90634">
        <ele>368.8</ele>
        <time>2016-04-24T12:45:52Z</time>
      </trkpt>
      <trkpt lat="43.94691" lon="2.90847">
        <ele>372.17</ele>
        <time>2016-04-24T12:45:59Z</time>
      </trkpt>
      <trkpt lat="43.94724" lon="2.91014">
        <ele>375.05</ele>
        <time>2016-04-24T12:46:05Z</time>
      </trkpt>
      <trkpt lat="43.94741" lon="2.9108">
        <ele>376.97</ele>
        <time>2016-04-24T12:46:08Z</time>
      </trkpt>
      <trkpt lat="43.9475" lon="2.911">
        <ele>377.45</ele>
        <time>2016-04-24T12:46:09Z</time>
      </trkpt>
      <trkpt lat="43.94763" lon="2.91119">
        <ele>377.94</ele>
        <time>2016-04-24T12:46:10Z</time>
      </trkpt>
      <trkpt lat="43.94777" lon="2.91136">
        <ele>378.42</ele>
        <time>2016-04-24T12:46:11Z</time>
      </trkpt>
      <trkpt lat="43.94792" lon="2.91153">
        <ele>378.9</ele>
        <time>2016-04-24T12:46:12Z</time>
      </trkpt>
      <trkpt lat="43.94941" lon="2.91301">
        <ele>384.66</ele>
        <time>2016-04-24T12:46:21Z</time>
      </trkpt>
      <trkpt lat="43.95055" lon="2.91477">
        <ele>389.47</ele>
        <time>2016-04-24T12:46:29Z</time>
      </trkpt>
      <trkpt lat="43.95156" lon="2.91742">
        <ele>394.76</ele>
        <time>2016-04-24T12:46:38Z</time>
      </trkpt>
      <trkpt lat="43.9525" lon="2.92039">
        <ele>400.05</ele>
        <time>2016-04-24T12:46:47Z</time>
      </trkpt>
      <trkpt lat="43.95283" lon="2.92243">
        <ele>403.89</ele>
        <time>2016-04-24T12:46:53Z</time>
      </trkpt>
      <trkpt lat="43.95292" lon="2.92274">
        <ele>404.37</ele>
        <time>2016-04-24T12:46:54Z</time>
      </trkpt>
      <trkpt lat="43.95304" lon="2.92304">
        <ele>404.85</ele>
        <time>2016-04-24T12:46:55Z</time>
      </trkpt>
      <trkpt lat="43.95318" lon="2.92334">
        <ele>405.33</ele>
        <time>2016-04-24T12:46:56Z</time>
      </trkpt>
      <trkpt lat="43.95334" lon="2.92364">
        <ele>406.29</ele>
        <time>2016-04-24T12:46:57Z</time>
      </trkpt>
      <trkpt lat="43.95425" lon="2.92543">
        <ele>410.14</ele>
        <time>2016-04-24T12:47:03Z</time>
      </trkpt>
      <trkpt lat="43.95436" lon="2.92577">
        <ele>410.62</ele>
        <time>2016-04-24T12:47:04Z</time>
      </trkpt>
      <trkpt lat="43.95445" lon="2.92613">
        <ele>411.1</ele>
        <time>2016-04-24T12:47:05Z</time>
      </trkpt>
      <trkpt lat="43.95475" lon="2.92786">
        <ele>414.47</ele>
        <time>2016-04-24T12:47:10Z</time>
      </trkpt>
      <trkpt lat="43.95476" lon="2.9282">
        <ele>414.95</ele>
        <time>2016-04-24T12:47:11Z</time>
      </trkpt>
      <trkpt lat="43.95474" lon="2.92855">
        <ele>415.43</ele>
        <time>2016-04-24T12:47:12Z</time>
      </trkpt>
      <trkpt lat="43.95471" lon="2.92891">
        <ele>415.91</ele>
        <time>2016-04-24T12:47:13Z</time>
      </trkpt>
      <trkpt lat="43.95465" lon="2.92927">
        <ele>416.39</ele>
        <time>2016-04-24T12:47:14Z</time>
      </trkpt>
      <trkpt lat="43.95444" lon="2.93232">
        <ele>421.68</ele>
        <time>2016-04-24T12:47:22Z</time>
      </trkpt>
      <trkpt lat="43.95487" lon="2.93572">
        <ele>428.89</ele>
        <time>2016-04-24T12:47:31Z</time>
      </trkpt>
      <trkpt lat="43.95497" lon="2.93606">
        <ele>429.37</ele>
        <time>2016-04-24T12:47:32Z</time>
      </trkpt>
      <trkpt lat="43.95543" lon="2.93739">
        <ele>431.77</ele>
        <time>2016-04-24T12:47:36Z</time>
      </trkpt>
      <trkpt lat="43.9555" lon="2.93772">
        <ele>432.25</ele>
        <time>2016-04-24T12:47:37Z</time>
      </trkpt>
      <trkpt lat="43.95556" lon="2.93835">
        <ele>433.69</ele>
        <time>2016-04-24T12:47:39Z</time>
      </trkpt>
      <trkpt lat="43.95548" lon="2.93865">
        <ele>434.17</ele>
        <time>2016-04-24T12:47:40Z</time>
      </trkpt>
      <trkpt lat="43.95535" lon="2.93894">
        <ele>435.13</ele>
        <time>2016-04-24T12:47:41Z</time>
      </trkpt>
      <trkpt lat="43.9552" lon="2.93922">
        <ele>435.61</ele>
        <time>2016-04-24T12:47:42Z</time>
      </trkpt>
      <trkpt lat="43.95504" lon="2.93947">
        <ele>436.1</ele>
        <time>2016-04-24T12:47:43Z</time>
      </trkpt>
      <trkpt lat="43.95488" lon="2.93972">
        <ele>437.06</ele>
        <time>2016-04-24T12:47:44Z</time>
      </trkpt>
      <trkpt lat="43.95473" lon="2.93998">
        <ele>438.02</ele>
        <time>2016-04-24T12:47:45Z</time>
      </trkpt>
      <trkpt lat="43.95462" lon="2.94027">
        <ele>438.98</ele>
        <time>2016-04-24T12:47:46Z</time>
      </trkpt>
      <trkpt lat="43.95454" lon="2.94059">
        <ele>439.94</ele>
        <time>2016-04-24T12:47:47Z</time>
      </trkpt>
      <trkpt lat="43.95452" lon="2.9409">
        <ele>439.94</ele>
        <time>2016-04-24T12:47:48Z</time>
      </trkpt>
      <trkpt lat="43.95452" lon="2.94124">
        <ele>440.42</ele>
        <time>2016-04-24T12:47:49Z</time>
      </trkpt>
      <trkpt lat="43.95459" lon="2.94153">
        <ele>440.42</ele>
        <time>2016-04-24T12:47:50Z</time>
      </trkpt>
      <trkpt lat="43.95471" lon="2.9418">
        <ele>441.38</ele>
        <time>2016-04-24T12:47:51Z</time>
      </trkpt>
      <trkpt lat="43.95481" lon="2.9421">
        <ele>442.34</ele>
        <time>2016-04-24T12:47:52Z</time>
      </trkpt>
      <trkpt lat="43.95498" lon="2.94275">
        <ele>444.75</ele>
        <time>2016-04-24T12:47:54Z</time>
      </trkpt>
      <trkpt lat="43.95503" lon="2.94309">
        <ele>445.23</ele>
        <time>2016-04-24T12:47:55Z</time>
      </trkpt>
      <trkpt lat="43.95505" lon="2.94345">
        <ele>446.19</ele>
        <time>2016-04-24T12:47:56Z</time>
      </trkpt>
      <trkpt lat="43.9552" lon="2.94486">
        <ele>449.55</ele>
        <time>2016-04-24T12:48:00Z</time>
      </trkpt>
      <trkpt lat="43.95532" lon="2.94521">
        <ele>450.03</ele>
        <time>2016-04-24T12:48:01Z</time>
      </trkpt>
      <trkpt lat="43.95546" lon="2.94555">
        <ele>451</ele>
        <time>2016-04-24T12:48:02Z</time>
      </trkpt>
      <trkpt lat="43.95669" lon="2.94803">
        <ele>458.21</ele>
        <time>2016-04-24T12:48:10Z</time>
      </trkpt>
      <trkpt lat="43.95693" lon="2.94885">
        <ele>460.61</ele>
        <time>2016-04-24T12:48:13Z</time>
      </trkpt>
      <trkpt lat="43.95691" lon="2.94915">
        <ele>461.57</ele>
        <time>2016-04-24T12:48:14Z</time>
      </trkpt>
      <trkpt lat="43.95685" lon="2.94943">
        <ele>462.05</ele>
        <time>2016-04-24T12:48:15Z</time>
      </trkpt>
      <trkpt lat="43.95674" lon="2.94971">
        <ele>463.01</ele>
        <time>2016-04-24T12:48:16Z</time>
      </trkpt>
      <trkpt lat="43.95659" lon="2.94997">
        <ele>463.97</ele>
        <time>2016-04-24T12:48:17Z</time>
      </trkpt>
      <trkpt lat="43.95644" lon="2.95024">
        <ele>464.45</ele>
        <time>2016-04-24T12:48:18Z</time>
      </trkpt>
      <trkpt lat="43.95628" lon="2.95048">
        <ele>465.42</ele>
        <time>2016-04-24T12:48:19Z</time>
      </trkpt>
      <trkpt lat="43.95611" lon="2.95069">
        <ele>467.34</ele>
        <time>2016-04-24T12:48:20Z</time>
      </trkpt>
      <trkpt lat="43.95595" lon="2.95092">
        <ele>468.3</ele>
        <time>2016-04-24T12:48:21Z</time>
      </trkpt>
      <trkpt lat="43.95581" lon="2.95118">
        <ele>469.26</ele>
        <time>2016-04-24T12:48:22Z</time>
      </trkpt>
      <trkpt lat="43.95571" lon="2.95148">
        <ele>470.22</ele>
        <time>2016-04-24T12:48:23Z</time>
      </trkpt>
      <trkpt lat="43.95566" lon="2.95181">
        <ele>471.18</ele>
        <time>2016-04-24T12:48:24Z</time>
      </trkpt>
      <trkpt lat="43.95564" lon="2.95216">
        <ele>473.11</ele>
        <time>2016-04-24T12:48:25Z</time>
      </trkpt>
      <trkpt lat="43.95566" lon="2.95252">
        <ele>474.07</ele>
        <time>2016-04-24T12:48:26Z</time>
      </trkpt>
      <trkpt lat="43.9558" lon="2.95283">
        <ele>474.55</ele>
        <time>2016-04-24T12:48:27Z</time>
      </trkpt>
      <trkpt lat="43.95595" lon="2.95314">
        <ele>475.51</ele>
        <time>2016-04-24T12:48:28Z</time>
      </trkpt>
      <trkpt lat="43.95612" lon="2.95343">
        <ele>476.95</ele>
        <time>2016-04-24T12:48:29Z</time>
      </trkpt>
      <trkpt lat="43.95631" lon="2.9537">
        <ele>477.91</ele>
        <time>2016-04-24T12:48:30Z</time>
      </trkpt>
      <trkpt lat="43.95724" lon="2.95566">
        <ele>484.16</ele>
        <time>2016-04-24T12:48:36Z</time>
      </trkpt>
      <trkpt lat="43.95736" lon="2.95647">
        <ele>485.6</ele>
        <time>2016-04-24T12:48:38Z</time>
      </trkpt>
      <trkpt lat="43.95783" lon="2.95929">
        <ele>493.29</ele>
        <time>2016-04-24T12:48:45Z</time>
      </trkpt>
      <trkpt lat="43.95798" lon="2.95963">
        <ele>494.26</ele>
        <time>2016-04-24T12:48:46Z</time>
      </trkpt>
      <trkpt lat="43.95891" lon="2.96157">
        <ele>500.02</ele>
        <time>2016-04-24T12:48:52Z</time>
      </trkpt>
      <trkpt lat="43.95901" lon="2.9619">
        <ele>500.98</ele>
        <time>2016-04-24T12:48:53Z</time>
      </trkpt>
      <trkpt lat="43.95906" lon="2.9622">
        <ele>501.95</ele>
        <time>2016-04-24T12:48:54Z</time>
      </trkpt>
      <trkpt lat="43.95911" lon="2.96252">
        <ele>502.91</ele>
        <time>2016-04-24T12:48:55Z</time>
      </trkpt>
      <trkpt lat="43.95919" lon="2.96281">
        <ele>503.87</ele>
        <time>2016-04-24T12:48:56Z</time>
      </trkpt>
      <trkpt lat="43.95931" lon="2.96308">
        <ele>504.35</ele>
        <time>2016-04-24T12:48:57Z</time>
      </trkpt>
      <trkpt lat="43.95946" lon="2.96333">
        <ele>505.31</ele>
        <time>2016-04-24T12:48:58Z</time>
      </trkpt>
      <trkpt lat="43.95965" lon="2.96354">
        <ele>506.27</ele>
        <time>2016-04-24T12:48:59Z</time>
      </trkpt>
      <trkpt lat="43.95986" lon="2.96371">
        <ele>506.27</ele>
        <time>2016-04-24T12:49:00Z</time>
      </trkpt>
      <trkpt lat="43.96008" lon="2.96384">
        <ele>506.75</ele>
        <time>2016-04-24T12:49:01Z</time>
      </trkpt>
      <trkpt lat="43.96032" lon="2.96392">
        <ele>507.23</ele>
        <time>2016-04-24T12:49:02Z</time>
      </trkpt>
      <trkpt lat="43.96058" lon="2.96396">
        <ele>508.19</ele>
        <time>2016-04-24T12:49:03Z</time>
      </trkpt>
      <trkpt lat="43.96084" lon="2.96402">
        <ele>508.67</ele>
        <time>2016-04-24T12:49:04Z</time>
      </trkpt>
      <trkpt lat="43.96393" lon="2.96478">
        <ele>511.56</ele>
        <time>2016-04-24T12:49:16Z</time>
      </trkpt>
      <trkpt lat="43.96461" lon="2.9649">
        <ele>511.56</ele>
        <time>2016-04-24T12:49:19Z</time>
      </trkpt>
      <trkpt lat="43.96483" lon="2.96486">
        <ele>511.08</ele>
        <time>2016-04-24T12:49:20Z</time>
      </trkpt>
      <trkpt lat="43.96507" lon="2.96478">
        <ele>510.6</ele>
        <time>2016-04-24T12:49:21Z</time>
      </trkpt>
      <trkpt lat="43.9653" lon="2.96466">
        <ele>510.12</ele>
        <time>2016-04-24T12:49:22Z</time>
      </trkpt>
      <trkpt lat="43.96554" lon="2.96451">
        <ele>509.64</ele>
        <time>2016-04-24T12:49:23Z</time>
      </trkpt>
      <trkpt lat="43.96577" lon="2.96434">
        <ele>508.67</ele>
        <time>2016-04-24T12:49:24Z</time>
      </trkpt>
      <trkpt lat="43.96601" lon="2.96415">
        <ele>507.71</ele>
        <time>2016-04-24T12:49:25Z</time>
      </trkpt>
      <trkpt lat="43.96775" lon="2.96277">
        <ele>499.54</ele>
        <time>2016-04-24T12:49:33Z</time>
      </trkpt>
      <trkpt lat="43.96966" lon="2.96145">
        <ele>490.89</ele>
        <time>2016-04-24T12:49:43Z</time>
      </trkpt>
      <trkpt lat="43.97082" lon="2.96144">
        <ele>485.6</ele>
        <time>2016-04-24T12:49:49Z</time>
      </trkpt>
      <trkpt lat="43.97174" lon="2.96162">
        <ele>481.28</ele>
        <time>2016-04-24T12:49:56Z</time>
      </trkpt>
      <trkpt lat="43.97233" lon="2.9617">
        <ele>478.87</ele>
        <time>2016-04-24T12:50:00Z</time>
      </trkpt>
      <trkpt lat="43.97248" lon="2.96168">
        <ele>478.39</ele>
        <time>2016-04-24T12:50:01Z</time>
      </trkpt>
      <trkpt lat="43.97263" lon="2.96164">
        <ele>477.43</ele>
        <time>2016-04-24T12:50:02Z</time>
      </trkpt>
      <trkpt lat="43.97277" lon="2.96157">
        <ele>476.95</ele>
        <time>2016-04-24T12:50:03Z</time>
      </trkpt>
      <trkpt lat="43.9729" lon="2.9615">
        <ele>475.99</ele>
        <time>2016-04-24T12:50:04Z</time>
      </trkpt>
      <trkpt lat="43.97302" lon="2.96142">
        <ele>475.51</ele>
        <time>2016-04-24T12:50:05Z</time>
      </trkpt>
      <trkpt lat="43.9734" lon="2.96121">
        <ele>473.11</ele>
        <time>2016-04-24T12:50:08Z</time>
      </trkpt>
      <trkpt lat="43.97352" lon="2.96117">
        <ele>472.63</ele>
        <time>2016-04-24T12:50:09Z</time>
      </trkpt>
      <trkpt lat="43.97365" lon="2.96116">
        <ele>472.14</ele>
        <time>2016-04-24T12:50:10Z</time>
      </trkpt>
      <trkpt lat="43.97378" lon="2.96117">
        <ele>472.14</ele>
        <time>2016-04-24T12:50:11Z</time>
      </trkpt>
      <trkpt lat="43.97391" lon="2.9612">
        <ele>471.66</ele>
        <time>2016-04-24T12:50:12Z</time>
      </trkpt>
      <trkpt lat="43.97405" lon="2.96124">
        <ele>471.18</ele>
        <time>2016-04-24T12:50:13Z</time>
      </trkpt>
      <trkpt lat="43.97524" lon="2.9616">
        <ele>470.22</ele>
        <time>2016-04-24T12:50:23Z</time>
      </trkpt>
      <trkpt lat="43.97547" lon="2.96176">
        <ele>468.78</ele>
        <time>2016-04-24T12:50:29Z</time>
      </trkpt>
      <trkpt lat="43.9755" lon="2.96181">
        <ele>468.3</ele>
        <time>2016-04-24T12:50:30Z</time>
      </trkpt>
      <trkpt lat="43.97554" lon="2.96188">
        <ele>468.3</ele>
        <time>2016-04-24T12:50:31Z</time>
      </trkpt>
      <trkpt lat="43.97561" lon="2.96204">
        <ele>467.82</ele>
        <time>2016-04-24T12:50:33Z</time>
      </trkpt>
      <trkpt lat="43.97568" lon="2.96209">
        <ele>467.82</ele>
        <time>2016-04-24T12:50:34Z</time>
      </trkpt>
      <trkpt lat="43.97575" lon="2.96211">
        <ele>467.34</ele>
        <time>2016-04-24T12:50:35Z</time>
      </trkpt>
      <trkpt lat="43.97583" lon="2.9621">
        <ele>467.34</ele>
        <time>2016-04-24T12:50:36Z</time>
      </trkpt>
      <trkpt lat="43.97592" lon="2.9621">
        <ele>466.86</ele>
        <time>2016-04-24T12:50:37Z</time>
      </trkpt>
      <trkpt lat="43.97601" lon="2.96211">
        <ele>466.86</ele>
        <time>2016-04-24T12:50:38Z</time>
      </trkpt>
      <trkpt lat="43.97613" lon="2.96217">
        <ele>466.38</ele>
        <time>2016-04-24T12:50:39Z</time>
      </trkpt>
      <trkpt lat="43.97627" lon="2.96224">
        <ele>465.9</ele>
        <time>2016-04-24T12:50:40Z</time>
      </trkpt>
      <trkpt lat="43.9776" lon="2.96318">
        <ele>460.13</ele>
        <time>2016-04-24T12:50:49Z</time>
      </trkpt>
      <trkpt lat="43.97776" lon="2.96337">
        <ele>459.65</ele>
        <time>2016-04-24T12:50:50Z</time>
      </trkpt>
      <trkpt lat="43.97792" lon="2.96358">
        <ele>458.69</ele>
        <time>2016-04-24T12:50:51Z</time>
      </trkpt>
      <trkpt lat="43.97805" lon="2.96382">
        <ele>458.21</ele>
        <time>2016-04-24T12:50:52Z</time>
      </trkpt>
      <trkpt lat="43.97872" lon="2.96497">
        <ele>456.28</ele>
        <time>2016-04-24T12:50:57Z</time>
      </trkpt>
      <trkpt lat="43.9789" lon="2.96516">
        <ele>455.8</ele>
        <time>2016-04-24T12:50:58Z</time>
      </trkpt>
      <trkpt lat="43.9791" lon="2.96533">
        <ele>454.84</ele>
        <time>2016-04-24T12:50:59Z</time>
      </trkpt>
      <trkpt lat="43.97931" lon="2.96548">
        <ele>454.36</ele>
        <time>2016-04-24T12:51:00Z</time>
      </trkpt>
      <trkpt lat="43.97954" lon="2.9656">
        <ele>453.88</ele>
        <time>2016-04-24T12:51:01Z</time>
      </trkpt>
      <trkpt lat="43.97978" lon="2.96568">
        <ele>453.4</ele>
        <time>2016-04-24T12:51:02Z</time>
      </trkpt>
      <trkpt lat="43.98005" lon="2.96573">
        <ele>452.92</ele>
        <time>2016-04-24T12:51:03Z</time>
      </trkpt>
      <trkpt lat="43.98032" lon="2.96576">
        <ele>452.44</ele>
        <time>2016-04-24T12:51:04Z</time>
      </trkpt>
      <trkpt lat="43.98226" lon="2.96596">
        <ele>445.23</ele>
        <time>2016-04-24T12:51:12Z</time>
      </trkpt>
      <trkpt lat="43.98402" lon="2.96644">
        <ele>439.94</ele>
        <time>2016-04-24T12:51:20Z</time>
      </trkpt>
      <trkpt lat="43.98524" lon="2.96695">
        <ele>438.02</ele>
        <time>2016-04-24T12:51:25Z</time>
      </trkpt>
      <trkpt lat="43.9855" lon="2.96692">
        <ele>437.54</ele>
        <time>2016-04-24T12:51:26Z</time>
      </trkpt>
      <trkpt lat="43.98581" lon="2.96685">
        <ele>437.06</ele>
        <time>2016-04-24T12:51:27Z</time>
      </trkpt>
      <trkpt lat="43.9861" lon="2.96676">
        <ele>436.58</ele>
        <time>2016-04-24T12:51:28Z</time>
      </trkpt>
      <trkpt lat="43.98639" lon="2.9667">
        <ele>435.61</ele>
        <time>2016-04-24T12:51:29Z</time>
      </trkpt>
      <trkpt lat="43.98669" lon="2.96669">
        <ele>435.13</ele>
        <time>2016-04-24T12:51:30Z</time>
      </trkpt>
      <trkpt lat="43.98699" lon="2.96673">
        <ele>434.17</ele>
        <time>2016-04-24T12:51:31Z</time>
      </trkpt>
      <trkpt lat="43.9873" lon="2.96678">
        <ele>433.21</ele>
        <time>2016-04-24T12:51:32Z</time>
      </trkpt>
      <trkpt lat="43.99082" lon="2.96739">
        <ele>424.08</ele>
        <time>2016-04-24T12:51:44Z</time>
      </trkpt>
      <trkpt lat="43.99354" lon="2.96786">
        <ele>420.23</ele>
        <time>2016-04-24T12:51:54Z</time>
      </trkpt>
      <trkpt lat="43.99486" lon="2.96868">
        <ele>417.35</ele>
        <time>2016-04-24T12:51:59Z</time>
      </trkpt>
      <trkpt lat="43.99666" lon="2.96937">
        <ele>414.95</ele>
        <time>2016-04-24T12:52:05Z</time>
      </trkpt>
      <trkpt lat="43.9985" lon="2.9699">
        <ele>413.5</ele>
        <time>2016-04-24T12:52:12Z</time>
      </trkpt>
      <trkpt lat="43.99928" lon="2.96982">
        <ele>413.5</ele>
        <time>2016-04-24T12:52:15Z</time>
      </trkpt>
      <trkpt lat="43.99952" lon="2.96968">
        <ele>413.02</ele>
        <time>2016-04-24T12:52:16Z</time>
      </trkpt>
      <trkpt lat="43.99976" lon="2.96949">
        <ele>412.06</ele>
        <time>2016-04-24T12:52:17Z</time>
      </trkpt>
      <trkpt lat="44.00001" lon="2.9693">
        <ele>411.58</ele>
        <time>2016-04-24T12:52:18Z</time>
      </trkpt>
      <trkpt lat="44.00023" lon="2.96908">
        <ele>411.58</ele>
        <time>2016-04-24T12:52:19Z</time>
      </trkpt>
      <trkpt lat="44.00044" lon="2.96882">
        <ele>411.58</ele>
        <time>2016-04-24T12:52:20Z</time>
      </trkpt>
      <trkpt lat="44.00063" lon="2.96853">
        <ele>411.58</ele>
        <time>2016-04-24T12:52:21Z</time>
      </trkpt>
      <trkpt lat="44.00081" lon="2.96824">
        <ele>411.58</ele>
        <time>2016-04-24T12:52:22Z</time>
      </trkpt>
      <trkpt lat="44.00098" lon="2.96793">
        <ele>412.06</ele>
        <time>2016-04-24T12:52:23Z</time>
      </trkpt>
      <trkpt lat="44.00235" lon="2.96601">
        <ele>412.06</ele>
        <time>2016-04-24T12:52:30Z</time>
      </trkpt>
      <trkpt lat="44.0036" lon="2.96479">
        <ele>412.06</ele>
        <time>2016-04-24T12:52:36Z</time>
      </trkpt>
      <trkpt lat="44.0038" lon="2.96467">
        <ele>412.06</ele>
        <time>2016-04-24T12:52:37Z</time>
      </trkpt>
      <trkpt lat="44.00401" lon="2.96457">
        <ele>412.06</ele>
        <time>2016-04-24T12:52:38Z</time>
      </trkpt>
      <trkpt lat="44.00518" lon="2.9641">
        <ele>411.58</ele>
        <time>2016-04-24T12:52:45Z</time>
      </trkpt>
      <trkpt lat="44.00642" lon="2.96395">
        <ele>411.58</ele>
        <time>2016-04-24T12:52:52Z</time>
      </trkpt>
      <trkpt lat="44.00785" lon="2.9638">
        <ele>410.14</ele>
        <time>2016-04-24T12:53:01Z</time>
      </trkpt>
      <trkpt lat="44.00916" lon="2.96338">
        <ele>410.14</ele>
        <time>2016-04-24T12:53:11Z</time>
      </trkpt>
      <trkpt lat="44.01044" lon="2.96322">
        <ele>411.1</ele>
        <time>2016-04-24T12:53:22Z</time>
      </trkpt>
      <trkpt lat="44.01144" lon="2.9633">
        <ele>412.06</ele>
        <time>2016-04-24T12:53:33Z</time>
      </trkpt>
      <trkpt lat="44.01154" lon="2.96336">
        <ele>412.06</ele>
        <time>2016-04-24T12:53:34Z</time>
      </trkpt>
      <trkpt lat="44.01174" lon="2.96351">
        <ele>411.58</ele>
        <time>2016-04-24T12:53:36Z</time>
      </trkpt>
      <trkpt lat="44.01182" lon="2.96361">
        <ele>411.58</ele>
        <time>2016-04-24T12:53:37Z</time>
      </trkpt>
      <trkpt lat="44.01217" lon="2.9641">
        <ele>409.18</ele>
        <time>2016-04-24T12:53:42Z</time>
      </trkpt>
      <trkpt lat="44.01221" lon="2.96421">
        <ele>409.18</ele>
        <time>2016-04-24T12:53:43Z</time>
      </trkpt>
      <trkpt lat="44.01223" lon="2.96445">
        <ele>408.7</ele>
        <time>2016-04-24T12:53:45Z</time>
      </trkpt>
      <trkpt lat="44.01222" lon="2.96455">
        <ele>407.26</ele>
        <time>2016-04-24T12:53:46Z</time>
      </trkpt>
      <trkpt lat="44.01224" lon="2.96465">
        <ele>406.77</ele>
        <time>2016-04-24T12:53:47Z</time>
      </trkpt>
      <trkpt lat="44.01229" lon="2.96473">
        <ele>405.81</ele>
        <time>2016-04-24T12:53:48Z</time>
      </trkpt>
      <trkpt lat="44.01235" lon="2.96479">
        <ele>405.33</ele>
        <time>2016-04-24T12:53:49Z</time>
      </trkpt>
      <trkpt lat="44.0124" lon="2.96484">
        <ele>404.37</ele>
        <time>2016-04-24T12:53:50Z</time>
      </trkpt>
      <trkpt lat="44.01264" lon="2.96497">
        <ele>403.89</ele>
        <time>2016-04-24T12:53:53Z</time>
      </trkpt>
      <trkpt lat="44.01274" lon="2.96502">
        <ele>403.41</ele>
        <time>2016-04-24T12:53:54Z</time>
      </trkpt>
      <trkpt lat="44.01369" lon="2.9655">
        <ele>401.97</ele>
        <time>2016-04-24T12:54:01Z</time>
      </trkpt>
      <trkpt lat="44.0153" lon="2.96637">
        <ele>401.01</ele>
        <time>2016-04-24T12:54:10Z</time>
      </trkpt>
      <trkpt lat="44.0165" lon="2.96698">
        <ele>400.53</ele>
        <time>2016-04-24T12:54:16Z</time>
      </trkpt>
      <trkpt lat="44.01676" lon="2.96697">
        <ele>400.53</ele>
        <time>2016-04-24T12:54:17Z</time>
      </trkpt>
      <trkpt lat="44.017" lon="2.96693">
        <ele>401.01</ele>
        <time>2016-04-24T12:54:18Z</time>
      </trkpt>
      <trkpt lat="44.01722" lon="2.96688">
        <ele>401.01</ele>
        <time>2016-04-24T12:54:19Z</time>
      </trkpt>
      <trkpt lat="44.01743" lon="2.96676">
        <ele>400.53</ele>
        <time>2016-04-24T12:54:20Z</time>
      </trkpt>
      <trkpt lat="44.01766" lon="2.96657">
        <ele>399.57</ele>
        <time>2016-04-24T12:54:21Z</time>
      </trkpt>
      <trkpt lat="44.01789" lon="2.96638">
        <ele>399.57</ele>
        <time>2016-04-24T12:54:22Z</time>
      </trkpt>
      <trkpt lat="44.01812" lon="2.96619">
        <ele>399.57</ele>
        <time>2016-04-24T12:54:23Z</time>
      </trkpt>
      <trkpt lat="44.01964" lon="2.96532">
        <ele>400.05</ele>
        <time>2016-04-24T12:54:29Z</time>
      </trkpt>
      <trkpt lat="44.0222" lon="2.96433">
        <ele>398.12</ele>
        <time>2016-04-24T12:54:39Z</time>
      </trkpt>
      <trkpt lat="44.02396" lon="2.9645">
        <ele>395.72</ele>
        <time>2016-04-24T12:54:45Z</time>
      </trkpt>
      <trkpt lat="44.02672" lon="2.96504">
        <ele>392.36</ele>
        <time>2016-04-24T12:54:55Z</time>
      </trkpt>
      <trkpt lat="44.0281" lon="2.96492">
        <ele>391.87</ele>
        <time>2016-04-24T12:55:01Z</time>
      </trkpt>
      <trkpt lat="44.02973" lon="2.96477">
        <ele>390.91</ele>
        <time>2016-04-24T12:55:08Z</time>
      </trkpt>
      <trkpt lat="44.02997" lon="2.96469">
        <ele>390.43</ele>
        <time>2016-04-24T12:55:09Z</time>
      </trkpt>
      <trkpt lat="44.03019" lon="2.96459">
        <ele>389.47</ele>
        <time>2016-04-24T12:55:10Z</time>
      </trkpt>
      <trkpt lat="44.0304" lon="2.96446">
        <ele>388.99</ele>
        <time>2016-04-24T12:55:11Z</time>
      </trkpt>
      <trkpt lat="44.03062" lon="2.96424">
        <ele>389.47</ele>
        <time>2016-04-24T12:55:12Z</time>
      </trkpt>
      <trkpt lat="44.03082" lon="2.96401">
        <ele>389.47</ele>
        <time>2016-04-24T12:55:13Z</time>
      </trkpt>
      <trkpt lat="44.03101" lon="2.96375">
        <ele>389.95</ele>
        <time>2016-04-24T12:55:14Z</time>
      </trkpt>
      <trkpt lat="44.0312" lon="2.96348">
        <ele>390.43</ele>
        <time>2016-04-24T12:55:15Z</time>
      </trkpt>
      <trkpt lat="44.03241" lon="2.96223">
        <ele>392.84</ele>
        <time>2016-04-24T12:55:21Z</time>
      </trkpt>
      <trkpt lat="44.03378" lon="2.96178">
        <ele>393.8</ele>
        <time>2016-04-24T12:55:26Z</time>
      </trkpt>
      <trkpt lat="44.03556" lon="2.96185">
        <ele>391.39</ele>
        <time>2016-04-24T12:55:33Z</time>
      </trkpt>
      <trkpt lat="44.03579" lon="2.96195">
        <ele>390.91</ele>
        <time>2016-04-24T12:55:34Z</time>
      </trkpt>
      <trkpt lat="44.03599" lon="2.96212">
        <ele>391.87</ele>
        <time>2016-04-24T12:55:35Z</time>
      </trkpt>
      <trkpt lat="44.03619" lon="2.9623">
        <ele>391.39</ele>
        <time>2016-04-24T12:55:36Z</time>
      </trkpt>
      <trkpt lat="44.03636" lon="2.9625">
        <ele>391.39</ele>
        <time>2016-04-24T12:55:37Z</time>
      </trkpt>
      <trkpt lat="44.03651" lon="2.96271">
        <ele>390.91</ele>
        <time>2016-04-24T12:55:38Z</time>
      </trkpt>
      <trkpt lat="44.03665" lon="2.96292">
        <ele>390.43</ele>
        <time>2016-04-24T12:55:39Z</time>
      </trkpt>
      <trkpt lat="44.03678" lon="2.96315">
        <ele>389.95</ele>
        <time>2016-04-24T12:55:40Z</time>
      </trkpt>
      <trkpt lat="44.03797" lon="2.96464">
        <ele>387.07</ele>
        <time>2016-04-24T12:55:48Z</time>
      </trkpt>
      <trkpt lat="44.03986" lon="2.96602">
        <ele>387.55</ele>
        <time>2016-04-24T12:55:58Z</time>
      </trkpt>
      <trkpt lat="44.0415" lon="2.96757">
        <ele>387.55</ele>
        <time>2016-04-24T12:56:07Z</time>
      </trkpt>
      <trkpt lat="44.04309" lon="2.96844">
        <ele>386.59</ele>
        <time>2016-04-24T12:56:15Z</time>
      </trkpt>
      <trkpt lat="44.04364" lon="2.9688">
        <ele>385.63</ele>
        <time>2016-04-24T12:56:18Z</time>
      </trkpt>
      <trkpt lat="44.04381" lon="2.96897">
        <ele>385.63</ele>
        <time>2016-04-24T12:56:19Z</time>
      </trkpt>
      <trkpt lat="44.04397" lon="2.96916">
        <ele>385.63</ele>
        <time>2016-04-24T12:56:20Z</time>
      </trkpt>
      <trkpt lat="44.04482" lon="2.97078">
        <ele>384.18</ele>
        <time>2016-04-24T12:56:27Z</time>
      </trkpt>
      <trkpt lat="44.04511" lon="2.97253">
        <ele>382.74</ele>
        <time>2016-04-24T12:56:33Z</time>
      </trkpt>
      <trkpt lat="44.04541" lon="2.97475">
        <ele>379.86</ele>
        <time>2016-04-24T12:56:41Z</time>
      </trkpt>
      <trkpt lat="44.04553" lon="2.97503">
        <ele>379.38</ele>
        <time>2016-04-24T12:56:42Z</time>
      </trkpt>
      <trkpt lat="44.04566" lon="2.97531">
        <ele>378.9</ele>
        <time>2016-04-24T12:56:43Z</time>
      </trkpt>
      <trkpt lat="44.04583" lon="2.97558">
        <ele>378.42</ele>
        <time>2016-04-24T12:56:44Z</time>
      </trkpt>
      <trkpt lat="44.04601" lon="2.97583">
        <ele>378.42</ele>
        <time>2016-04-24T12:56:45Z</time>
      </trkpt>
      <trkpt lat="44.04622" lon="2.97605">
        <ele>377.94</ele>
        <time>2016-04-24T12:56:46Z</time>
      </trkpt>
      <trkpt lat="44.04645" lon="2.97625">
        <ele>377.45</ele>
        <time>2016-04-24T12:56:47Z</time>
      </trkpt>
      <trkpt lat="44.0467" lon="2.97642">
        <ele>377.45</ele>
        <time>2016-04-24T12:56:48Z</time>
      </trkpt>
      <trkpt lat="44.04696" lon="2.97657">
        <ele>377.45</ele>
        <time>2016-04-24T12:56:49Z</time>
      </trkpt>
      <trkpt lat="44.04964" lon="2.97806">
        <ele>377.94</ele>
        <time>2016-04-24T12:56:59Z</time>
      </trkpt>
      <trkpt lat="44.05171" lon="2.97942">
        <ele>376.49</ele>
        <time>2016-04-24T12:57:08Z</time>
      </trkpt>
      <trkpt lat="44.0524" lon="2.97971">
        <ele>375.05</ele>
        <time>2016-04-24T12:57:11Z</time>
      </trkpt>
      <trkpt lat="44.05266" lon="2.97973">
        <ele>374.57</ele>
        <time>2016-04-24T12:57:12Z</time>
      </trkpt>
      <trkpt lat="44.05292" lon="2.97972">
        <ele>373.61</ele>
        <time>2016-04-24T12:57:13Z</time>
      </trkpt>
      <trkpt lat="44.05319" lon="2.97967">
        <ele>372.17</ele>
        <time>2016-04-24T12:57:14Z</time>
      </trkpt>
      <trkpt lat="44.05348" lon="2.97961">
        <ele>371.21</ele>
        <time>2016-04-24T12:57:15Z</time>
      </trkpt>
      <trkpt lat="44.05525" lon="2.97954">
        <ele>367.36</ele>
        <time>2016-04-24T12:57:21Z</time>
      </trkpt>
      <trkpt lat="44.05636" lon="2.97979">
        <ele>365.44</ele>
        <time>2016-04-24T12:57:25Z</time>
      </trkpt>
      <trkpt lat="44.05662" lon="2.97996">
        <ele>365.44</ele>
        <time>2016-04-24T12:57:26Z</time>
      </trkpt>
      <trkpt lat="44.05685" lon="2.98019">
        <ele>365.44</ele>
        <time>2016-04-24T12:57:27Z</time>
      </trkpt>
      <trkpt lat="44.05707" lon="2.98044">
        <ele>364.48</ele>
        <time>2016-04-24T12:57:28Z</time>
      </trkpt>
      <trkpt lat="44.05729" lon="2.98069">
        <ele>364</ele>
        <time>2016-04-24T12:57:29Z</time>
      </trkpt>
      <trkpt lat="44.05835" lon="2.98186">
        <ele>363.52</ele>
        <time>2016-04-24T12:57:35Z</time>
      </trkpt>
      <trkpt lat="44.05874" lon="2.98207">
        <ele>363.04</ele>
        <time>2016-04-24T12:57:37Z</time>
      </trkpt>
      <trkpt lat="44.05898" lon="2.98212">
        <ele>363.04</ele>
        <time>2016-04-24T12:57:38Z</time>
      </trkpt>
      <trkpt lat="44.05922" lon="2.98212">
        <ele>363.04</ele>
        <time>2016-04-24T12:57:39Z</time>
      </trkpt>
      <trkpt lat="44.05946" lon="2.98212">
        <ele>362.55</ele>
        <time>2016-04-24T12:57:40Z</time>
      </trkpt>
      <trkpt lat="44.05968" lon="2.9821">
        <ele>362.55</ele>
        <time>2016-04-24T12:57:41Z</time>
      </trkpt>
      <trkpt lat="44.06099" lon="2.98211">
        <ele>364.48</ele>
        <time>2016-04-24T12:57:48Z</time>
      </trkpt>
      <trkpt lat="44.06116" lon="2.98217">
        <ele>364.48</ele>
        <time>2016-04-24T12:57:49Z</time>
      </trkpt>
      <trkpt lat="44.06132" lon="2.98225">
        <ele>364.48</ele>
        <time>2016-04-24T12:57:50Z</time>
      </trkpt>
      <trkpt lat="44.06235" lon="2.98282">
        <ele>364.48</ele>
        <time>2016-04-24T12:57:58Z</time>
      </trkpt>
      <trkpt lat="44.06347" lon="2.98327">
        <ele>365.44</ele>
        <time>2016-04-24T12:58:07Z</time>
      </trkpt>
      <trkpt lat="44.06376" lon="2.98341">
        <ele>364</ele>
        <time>2016-04-24T12:58:11Z</time>
      </trkpt>
      <trkpt lat="44.06382" lon="2.98345">
        <ele>363.52</ele>
        <time>2016-04-24T12:58:12Z</time>
      </trkpt>
      <trkpt lat="44.06387" lon="2.98349">
        <ele>363.04</ele>
        <time>2016-04-24T12:58:13Z</time>
      </trkpt>
      <trkpt lat="44.0639" lon="2.98353">
        <ele>362.55</ele>
        <time>2016-04-24T12:58:14Z</time>
      </trkpt>
      <trkpt lat="44.06393" lon="2.98358">
        <ele>362.07</ele>
        <time>2016-04-24T12:58:15Z</time>
      </trkpt>
      <trkpt lat="44.06395" lon="2.98362">
        <ele>362.07</ele>
        <time>2016-04-24T12:58:16Z</time>
      </trkpt>
      <trkpt lat="44.06396" lon="2.98367">
        <ele>362.07</ele>
        <time>2016-04-24T12:58:17Z</time>
      </trkpt>
      <trkpt lat="44.06398" lon="2.98373">
        <ele>362.07</ele>
        <time>2016-04-24T12:58:18Z</time>
      </trkpt>
      <trkpt lat="44.06399" lon="2.98379">
        <ele>361.59</ele>
        <time>2016-04-24T12:58:19Z</time>
      </trkpt>
      <trkpt lat="44.06399" lon="2.98386">
        <ele>361.11</ele>
        <time>2016-04-24T12:58:20Z</time>
      </trkpt>
      <trkpt lat="44.06399" lon="2.98394">
        <ele>361.11</ele>
        <time>2016-04-24T12:58:21Z</time>
      </trkpt>
      <trkpt lat="44.06398" lon="2.98403">
        <ele>361.11</ele>
        <time>2016-04-24T12:58:22Z</time>
      </trkpt>
      <trkpt lat="44.06398" lon="2.98412">
        <ele>361.11</ele>
        <time>2016-04-24T12:58:23Z</time>
      </trkpt>
      <trkpt lat="44.06397" lon="2.98467">
        <ele>360.63</ele>
        <time>2016-04-24T12:58:29Z</time>
      </trkpt>
      <trkpt lat="44.06399" lon="2.98478">
        <ele>360.15</ele>
        <time>2016-04-24T12:58:30Z</time>
      </trkpt>
      <trkpt lat="44.06403" lon="2.98489">
        <ele>360.15</ele>
        <time>2016-04-24T12:58:31Z</time>
      </trkpt>
      <trkpt lat="44.06409" lon="2.98498">
        <ele>360.15</ele>
        <time>2016-04-24T12:58:32Z</time>
      </trkpt>
      <trkpt lat="44.06418" lon="2.98502">
        <ele>360.63</ele>
        <time>2016-04-24T12:58:33Z</time>
      </trkpt>
      <trkpt lat="44.06424" lon="2.98503">
        <ele>360.63</ele>
        <time>2016-04-24T12:58:34Z</time>
      </trkpt>
      <trkpt lat="44.06434" lon="2.98505">
        <ele>361.11</ele>
        <time>2016-04-24T12:58:35Z</time>
      </trkpt>
      <trkpt lat="44.06443" lon="2.98509">
        <ele>361.11</ele>
        <time>2016-04-24T12:58:36Z</time>
      </trkpt>
      <trkpt lat="44.06453" lon="2.98514">
        <ele>361.59</ele>
        <time>2016-04-24T12:58:37Z</time>
      </trkpt>
      <trkpt lat="44.06463" lon="2.98518">
        <ele>360.63</ele>
        <time>2016-04-24T12:58:38Z</time>
      </trkpt>
      <trkpt lat="44.06473" lon="2.98521">
        <ele>361.11</ele>
        <time>2016-04-24T12:58:39Z</time>
      </trkpt>
      <trkpt lat="44.06485" lon="2.98521">
        <ele>363.04</ele>
        <time>2016-04-24T12:58:40Z</time>
      </trkpt>
      <trkpt lat="44.06503" lon="2.98523">
        <ele>364.48</ele>
        <time>2016-04-24T12:58:43Z</time>
      </trkpt>
      <trkpt lat="44.06514" lon="2.98523">
        <ele>369.28</ele>
        <time>2016-04-24T12:58:51Z</time>
      </trkpt>
      <trkpt lat="44.06515" lon="2.98524">
        <ele>369.28</ele>
        <time>2016-04-24T12:58:52Z</time>
      </trkpt>
      <trkpt lat="44.06515" lon="2.98525">
        <ele>368.8</ele>
        <time>2016-04-24T12:58:53Z</time>
      </trkpt>
      <trkpt lat="44.0652" lon="2.98528">
        <ele>368.8</ele>
        <time>2016-04-24T12:58:54Z</time>
      </trkpt>
      <trkpt lat="44.06547" lon="2.98533">
        <ele>367.84</ele>
        <time>2016-04-24T12:58:57Z</time>
      </trkpt>
      <trkpt lat="44.06559" lon="2.98535">
        <ele>367.84</ele>
        <time>2016-04-24T12:58:58Z</time>
      </trkpt>
      <trkpt lat="44.06571" lon="2.98537">
        <ele>367.36</ele>
        <time>2016-04-24T12:58:59Z</time>
      </trkpt>
      <trkpt lat="44.06679" lon="2.98568">
        <ele>365.92</ele>
        <time>2016-04-24T12:59:09Z</time>
      </trkpt>
      <trkpt lat="44.06806" lon="2.98609">
        <ele>361.11</ele>
        <time>2016-04-24T12:59:20Z</time>
      </trkpt>
      <trkpt lat="44.06921" lon="2.98639">
        <ele>359.67</ele>
        <time>2016-04-24T12:59:29Z</time>
      </trkpt>
      <trkpt lat="44.07015" lon="2.98666">
        <ele>360.63</ele>
        <time>2016-04-24T12:59:39Z</time>
      </trkpt>
      <trkpt lat="44.07063" lon="2.98684">
        <ele>363.04</ele>
        <time>2016-04-24T12:59:44Z</time>
      </trkpt>
      <trkpt lat="44.07075" lon="2.98692">
        <ele>363.52</ele>
        <time>2016-04-24T12:59:45Z</time>
      </trkpt>
      <trkpt lat="44.07155" lon="2.98766">
        <ele>368.32</ele>
        <time>2016-04-24T12:59:50Z</time>
      </trkpt>
      <trkpt lat="44.07341" lon="2.98916">
        <ele>382.74</ele>
        <time>2016-04-24T12:59:59Z</time>
      </trkpt>
      <trkpt lat="44.07518" lon="2.98978">
        <ele>395.24</ele>
        <time>2016-04-24T13:00:06Z</time>
      </trkpt>
      <trkpt lat="44.07634" lon="2.99028">
        <ele>404.37</ele>
        <time>2016-04-24T13:00:11Z</time>
      </trkpt>
      <trkpt lat="44.07654" lon="2.99046">
        <ele>406.29</ele>
        <time>2016-04-24T13:00:12Z</time>
      </trkpt>
      <trkpt lat="44.07673" lon="2.99066">
        <ele>407.74</ele>
        <time>2016-04-24T13:00:13Z</time>
      </trkpt>
      <trkpt lat="44.07692" lon="2.99088">
        <ele>409.66</ele>
        <time>2016-04-24T13:00:14Z</time>
      </trkpt>
      <trkpt lat="44.07709" lon="2.99112">
        <ele>411.58</ele>
        <time>2016-04-24T13:00:15Z</time>
      </trkpt>
      <trkpt lat="44.07854" lon="2.99318">
        <ele>424.56</ele>
        <time>2016-04-24T13:00:24Z</time>
      </trkpt>
      <trkpt lat="44.07866" lon="2.99343">
        <ele>426</ele>
        <time>2016-04-24T13:00:25Z</time>
      </trkpt>
      <trkpt lat="44.07876" lon="2.9937">
        <ele>426.96</ele>
        <time>2016-04-24T13:00:26Z</time>
      </trkpt>
      <trkpt lat="44.07885" lon="2.99399">
        <ele>428.4</ele>
        <time>2016-04-24T13:00:27Z</time>
      </trkpt>
      <trkpt lat="44.07893" lon="2.99429">
        <ele>429.85</ele>
        <time>2016-04-24T13:00:28Z</time>
      </trkpt>
      <trkpt lat="44.07899" lon="2.99461">
        <ele>431.29</ele>
        <time>2016-04-24T13:00:29Z</time>
      </trkpt>
      <trkpt lat="44.07994" lon="2.99902">
        <ele>455.32</ele>
        <time>2016-04-24T13:00:43Z</time>
      </trkpt>
      <trkpt lat="44.0801" lon="3.00093">
        <ele>464.93</ele>
        <time>2016-04-24T13:00:49Z</time>
      </trkpt>
      <trkpt lat="44.08007" lon="3.00476">
        <ele>482.72</ele>
        <time>2016-04-24T13:01:00Z</time>
      </trkpt>
      <trkpt lat="44.07999" lon="3.00507">
        <ele>484.64</ele>
        <time>2016-04-24T13:01:01Z</time>
      </trkpt>
      <trkpt lat="44.07989" lon="3.00536">
        <ele>486.56</ele>
        <time>2016-04-24T13:01:02Z</time>
      </trkpt>
      <trkpt lat="44.07978" lon="3.00562">
        <ele>488.97</ele>
        <time>2016-04-24T13:01:03Z</time>
      </trkpt>
      <trkpt lat="44.07965" lon="3.00589">
        <ele>490.41</ele>
        <time>2016-04-24T13:01:04Z</time>
      </trkpt>
      <trkpt lat="44.07953" lon="3.00616">
        <ele>491.85</ele>
        <time>2016-04-24T13:01:05Z</time>
      </trkpt>
      <trkpt lat="44.07928" lon="3.00708">
        <ele>494.26</ele>
        <time>2016-04-24T13:01:08Z</time>
      </trkpt>
      <trkpt lat="44.07929" lon="3.00739">
        <ele>494.74</ele>
        <time>2016-04-24T13:01:09Z</time>
      </trkpt>
      <trkpt lat="44.07932" lon="3.00771">
        <ele>495.7</ele>
        <time>2016-04-24T13:01:10Z</time>
      </trkpt>
      <trkpt lat="44.07938" lon="3.00858">
        <ele>499.06</ele>
        <time>2016-04-24T13:01:13Z</time>
      </trkpt>
      <trkpt lat="44.07935" lon="3.00885">
        <ele>499.54</ele>
        <time>2016-04-24T13:01:14Z</time>
      </trkpt>
      <trkpt lat="44.07928" lon="3.00912">
        <ele>500.5</ele>
        <time>2016-04-24T13:01:15Z</time>
      </trkpt>
      <trkpt lat="44.07918" lon="3.00937">
        <ele>500.98</ele>
        <time>2016-04-24T13:01:16Z</time>
      </trkpt>
      <trkpt lat="44.07905" lon="3.00963">
        <ele>501.46</ele>
        <time>2016-04-24T13:01:17Z</time>
      </trkpt>
      <trkpt lat="44.07891" lon="3.00988">
        <ele>500.98</ele>
        <time>2016-04-24T13:01:18Z</time>
      </trkpt>
      <trkpt lat="44.07864" lon="3.01045">
        <ele>500.98</ele>
        <time>2016-04-24T13:01:20Z</time>
      </trkpt>
      <trkpt lat="44.07854" lon="3.01078">
        <ele>500.5</ele>
        <time>2016-04-24T13:01:21Z</time>
      </trkpt>
      <trkpt lat="44.07846" lon="3.01113">
        <ele>500.5</ele>
        <time>2016-04-24T13:01:22Z</time>
      </trkpt>
      <trkpt lat="44.07797" lon="3.01412">
        <ele>498.1</ele>
        <time>2016-04-24T13:01:30Z</time>
      </trkpt>
      <trkpt lat="44.07795" lon="3.01452">
        <ele>497.62</ele>
        <time>2016-04-24T13:01:31Z</time>
      </trkpt>
      <trkpt lat="44.07797" lon="3.01492">
        <ele>497.14</ele>
        <time>2016-04-24T13:01:32Z</time>
      </trkpt>
      <trkpt lat="44.07801" lon="3.01532">
        <ele>496.66</ele>
        <time>2016-04-24T13:01:33Z</time>
      </trkpt>
      <trkpt lat="44.07807" lon="3.01571">
        <ele>497.14</ele>
        <time>2016-04-24T13:01:34Z</time>
      </trkpt>
      <trkpt lat="44.07843" lon="3.01798">
        <ele>496.18</ele>
        <time>2016-04-24T13:01:41Z</time>
      </trkpt>
      <trkpt lat="44.07853" lon="3.01976">
        <ele>493.29</ele>
        <time>2016-04-24T13:01:48Z</time>
      </trkpt>
      <trkpt lat="44.07857" lon="3.0202">
        <ele>492.81</ele>
        <time>2016-04-24T13:01:50Z</time>
      </trkpt>
      <trkpt lat="44.0786" lon="3.0204">
        <ele>492.33</ele>
        <time>2016-04-24T13:01:51Z</time>
      </trkpt>
      <trkpt lat="44.07865" lon="3.02059">
        <ele>492.33</ele>
        <time>2016-04-24T13:01:52Z</time>
      </trkpt>
      <trkpt lat="44.0787" lon="3.02076">
        <ele>491.85</ele>
        <time>2016-04-24T13:01:53Z</time>
      </trkpt>
      <trkpt lat="44.07876" lon="3.02092">
        <ele>491.85</ele>
        <time>2016-04-24T13:01:54Z</time>
      </trkpt>
      <trkpt lat="44.07891" lon="3.0215">
        <ele>492.81</ele>
        <time>2016-04-24T13:01:59Z</time>
      </trkpt>
      <trkpt lat="44.07891" lon="3.0216">
        <ele>492.81</ele>
        <time>2016-04-24T13:02:00Z</time>
      </trkpt>
      <trkpt lat="44.07891" lon="3.02171">
        <ele>492.81</ele>
        <time>2016-04-24T13:02:01Z</time>
      </trkpt>
      <trkpt lat="44.07893" lon="3.02184">
        <ele>492.81</ele>
        <time>2016-04-24T13:02:02Z</time>
      </trkpt>
      <trkpt lat="44.07898" lon="3.02196">
        <ele>492.81</ele>
        <time>2016-04-24T13:02:03Z</time>
      </trkpt>
      <trkpt lat="44.07905" lon="3.0221">
        <ele>492.81</ele>
        <time>2016-04-24T13:02:04Z</time>
      </trkpt>
      <trkpt lat="44.0791" lon="3.02226">
        <ele>492.81</ele>
        <time>2016-04-24T13:02:05Z</time>
      </trkpt>
      <trkpt lat="44.07913" lon="3.02243">
        <ele>492.81</ele>
        <time>2016-04-24T13:02:06Z</time>
      </trkpt>
      <trkpt lat="44.07916" lon="3.0226">
        <ele>492.81</ele>
        <time>2016-04-24T13:02:07Z</time>
      </trkpt>
      <trkpt lat="44.07965" lon="3.02416">
        <ele>488.97</ele>
        <time>2016-04-24T13:02:16Z</time>
      </trkpt>
      <trkpt lat="44.07982" lon="3.02555">
        <ele>484.16</ele>
        <time>2016-04-24T13:02:23Z</time>
      </trkpt>
      <trkpt lat="44.07978" lon="3.02742">
        <ele>474.07</ele>
        <time>2016-04-24T13:02:30Z</time>
      </trkpt>
      <trkpt lat="44.0797" lon="3.02979">
        <ele>459.17</ele>
        <time>2016-04-24T13:02:40Z</time>
      </trkpt>
      <trkpt lat="44.0797" lon="3.03144">
        <ele>448.59</ele>
        <time>2016-04-24T13:02:46Z</time>
      </trkpt>
      <trkpt lat="44.07996" lon="3.03384">
        <ele>433.21</ele>
        <time>2016-04-24T13:02:54Z</time>
      </trkpt>
      <trkpt lat="44.08064" lon="3.03659">
        <ele>413.5</ele>
        <time>2016-04-24T13:03:02Z</time>
      </trkpt>
      <trkpt lat="44.08108" lon="3.03862">
        <ele>399.08</ele>
        <time>2016-04-24T13:03:09Z</time>
      </trkpt>
      <trkpt lat="44.08147" lon="3.04159">
        <ele>379.86</ele>
        <time>2016-04-24T13:03:21Z</time>
      </trkpt>
      <trkpt lat="44.08153" lon="3.04227">
        <ele>376.49</ele>
        <time>2016-04-24T13:03:25Z</time>
      </trkpt>
      <trkpt lat="44.08152" lon="3.0424">
        <ele>376.49</ele>
        <time>2016-04-24T13:03:26Z</time>
      </trkpt>
      <trkpt lat="44.08151" lon="3.04252">
        <ele>376.01</ele>
        <time>2016-04-24T13:03:27Z</time>
      </trkpt>
      <trkpt lat="44.08151" lon="3.04262">
        <ele>375.53</ele>
        <time>2016-04-24T13:03:28Z</time>
      </trkpt>
      <trkpt lat="44.08155" lon="3.04272">
        <ele>374.57</ele>
        <time>2016-04-24T13:03:29Z</time>
      </trkpt>
      <trkpt lat="44.08161" lon="3.04281">
        <ele>374.57</ele>
        <time>2016-04-24T13:03:30Z</time>
      </trkpt>
      <trkpt lat="44.08167" lon="3.04288">
        <ele>374.09</ele>
        <time>2016-04-24T13:03:31Z</time>
      </trkpt>
      <trkpt lat="44.08171" lon="3.043">
        <ele>373.61</ele>
        <time>2016-04-24T13:03:32Z</time>
      </trkpt>
      <trkpt lat="44.08175" lon="3.04314">
        <ele>372.65</ele>
        <time>2016-04-24T13:03:33Z</time>
      </trkpt>
      <trkpt lat="44.08206" lon="3.0446">
        <ele>367.84</ele>
        <time>2016-04-24T13:03:43Z</time>
      </trkpt>
      <trkpt lat="44.08214" lon="3.0453">
        <ele>365.92</ele>
        <time>2016-04-24T13:03:49Z</time>
      </trkpt>
      <trkpt lat="44.08213" lon="3.0454">
        <ele>365.44</ele>
        <time>2016-04-24T13:03:50Z</time>
      </trkpt>
      <trkpt lat="44.08211" lon="3.0455">
        <ele>365.44</ele>
        <time>2016-04-24T13:03:51Z</time>
      </trkpt>
      <trkpt lat="44.08204" lon="3.04571">
        <ele>364.96</ele>
        <time>2016-04-24T13:03:53Z</time>
      </trkpt>
      <trkpt lat="44.08206" lon="3.04582">
        <ele>364.96</ele>
        <time>2016-04-24T13:03:54Z</time>
      </trkpt>
      <trkpt lat="44.08211" lon="3.04591">
        <ele>364.96</ele>
        <time>2016-04-24T13:03:55Z</time>
      </trkpt>
      <trkpt lat="44.08217" lon="3.04598">
        <ele>364.96</ele>
        <time>2016-04-24T13:03:56Z</time>
      </trkpt>
      <trkpt lat="44.08224" lon="3.04608">
        <ele>364.96</ele>
        <time>2016-04-24T13:03:57Z</time>
      </trkpt>
      <trkpt lat="44.0823" lon="3.0462">
        <ele>364.96</ele>
        <time>2016-04-24T13:03:58Z</time>
      </trkpt>
      <trkpt lat="44.08236" lon="3.04634">
        <ele>364.96</ele>
        <time>2016-04-24T13:03:59Z</time>
      </trkpt>
      <trkpt lat="44.08256" lon="3.04673">
        <ele>366.4</ele>
        <time>2016-04-24T13:04:02Z</time>
      </trkpt>
      <trkpt lat="44.08264" lon="3.04684">
        <ele>366.88</ele>
        <time>2016-04-24T13:04:03Z</time>
      </trkpt>
      <trkpt lat="44.08272" lon="3.04693">
        <ele>367.36</ele>
        <time>2016-04-24T13:04:04Z</time>
      </trkpt>
      <trkpt lat="44.08281" lon="3.047">
        <ele>367.84</ele>
        <time>2016-04-24T13:04:05Z</time>
      </trkpt>
      <trkpt lat="44.08291" lon="3.04708">
        <ele>368.32</ele>
        <time>2016-04-24T13:04:06Z</time>
      </trkpt>
      <trkpt lat="44.08372" lon="3.04773">
        <ele>373.13</ele>
        <time>2016-04-24T13:04:13Z</time>
      </trkpt>
      <trkpt lat="44.08383" lon="3.04787">
        <ele>374.09</ele>
        <time>2016-04-24T13:04:14Z</time>
      </trkpt>
      <trkpt lat="44.08393" lon="3.04803">
        <ele>375.53</ele>
        <time>2016-04-24T13:04:15Z</time>
      </trkpt>
      <trkpt lat="44.08402" lon="3.04822">
        <ele>376.49</ele>
        <time>2016-04-24T13:04:16Z</time>
      </trkpt>
      <trkpt lat="44.08411" lon="3.04842">
        <ele>377.45</ele>
        <time>2016-04-24T13:04:17Z</time>
      </trkpt>
      <trkpt lat="44.085" lon="3.05047">
        <ele>386.11</ele>
        <time>2016-04-24T13:04:27Z</time>
      </trkpt>
      <trkpt lat="44.08526" lon="3.05092">
        <ele>388.03</ele>
        <time>2016-04-24T13:04:30Z</time>
      </trkpt>
      <trkpt lat="44.08532" lon="3.05108">
        <ele>388.51</ele>
        <time>2016-04-24T13:04:31Z</time>
      </trkpt>
      <trkpt lat="44.08536" lon="3.05125">
        <ele>388.51</ele>
        <time>2016-04-24T13:04:32Z</time>
      </trkpt>
      <trkpt lat="44.08537" lon="3.05144">
        <ele>388.51</ele>
        <time>2016-04-24T13:04:33Z</time>
      </trkpt>
      <trkpt lat="44.08537" lon="3.05163">
        <ele>388.51</ele>
        <time>2016-04-24T13:04:34Z</time>
      </trkpt>
      <trkpt lat="44.08533" lon="3.05183">
        <ele>388.99</ele>
        <time>2016-04-24T13:04:35Z</time>
      </trkpt>
      <trkpt lat="44.08527" lon="3.05203">
        <ele>389.95</ele>
        <time>2016-04-24T13:04:36Z</time>
      </trkpt>
      <trkpt lat="44.08519" lon="3.05222">
        <ele>389.95</ele>
        <time>2016-04-24T13:04:37Z</time>
      </trkpt>
      <trkpt lat="44.08512" lon="3.0524">
        <ele>389.95</ele>
        <time>2016-04-24T13:04:38Z</time>
      </trkpt>
      <trkpt lat="44.08452" lon="3.05374">
        <ele>386.11</ele>
        <time>2016-04-24T13:04:47Z</time>
      </trkpt>
      <trkpt lat="44.08416" lon="3.05475">
        <ele>383.22</ele>
        <time>2016-04-24T13:04:53Z</time>
      </trkpt>
      <trkpt lat="44.08414" lon="3.05495">
        <ele>382.74</ele>
        <time>2016-04-24T13:04:54Z</time>
      </trkpt>
      <trkpt lat="44.08414" lon="3.05514">
        <ele>382.74</ele>
        <time>2016-04-24T13:04:55Z</time>
      </trkpt>
      <trkpt lat="44.08416" lon="3.05533">
        <ele>382.74</ele>
        <time>2016-04-24T13:04:56Z</time>
      </trkpt>
      <trkpt lat="44.08418" lon="3.05551">
        <ele>382.74</ele>
        <time>2016-04-24T13:04:57Z</time>
      </trkpt>
      <trkpt lat="44.08436" lon="3.05722">
        <ele>382.26</ele>
        <time>2016-04-24T13:05:06Z</time>
      </trkpt>
      <trkpt lat="44.08438" lon="3.05756">
        <ele>381.78</ele>
        <time>2016-04-24T13:05:08Z</time>
      </trkpt>
      <trkpt lat="44.08441" lon="3.05772">
        <ele>381.78</ele>
        <time>2016-04-24T13:05:09Z</time>
      </trkpt>
      <trkpt lat="44.08446" lon="3.05786">
        <ele>381.3</ele>
        <time>2016-04-24T13:05:10Z</time>
      </trkpt>
      <trkpt lat="44.08451" lon="3.058">
        <ele>381.3</ele>
        <time>2016-04-24T13:05:11Z</time>
      </trkpt>
      <trkpt lat="44.08456" lon="3.05813">
        <ele>381.3</ele>
        <time>2016-04-24T13:05:12Z</time>
      </trkpt>
      <trkpt lat="44.08499" lon="3.05917">
        <ele>380.34</ele>
        <time>2016-04-24T13:05:22Z</time>
      </trkpt>
      <trkpt lat="44.08526" lon="3.06015">
        <ele>380.82</ele>
        <time>2016-04-24T13:05:33Z</time>
      </trkpt>
      <trkpt lat="44.08542" lon="3.06053">
        <ele>381.3</ele>
        <time>2016-04-24T13:05:37Z</time>
      </trkpt>
      <trkpt lat="44.08545" lon="3.06064">
        <ele>381.3</ele>
        <time>2016-04-24T13:05:38Z</time>
      </trkpt>
      <trkpt lat="44.08547" lon="3.06076">
        <ele>380.82</ele>
        <time>2016-04-24T13:05:39Z</time>
      </trkpt>
      <trkpt lat="44.08548" lon="3.06087">
        <ele>380.82</ele>
        <time>2016-04-24T13:05:40Z</time>
      </trkpt>
      <trkpt lat="44.08549" lon="3.06099">
        <ele>379.86</ele>
        <time>2016-04-24T13:05:41Z</time>
      </trkpt>
      <trkpt lat="44.0855" lon="3.06113">
        <ele>379.86</ele>
        <time>2016-04-24T13:05:42Z</time>
      </trkpt>
      <trkpt lat="44.08549" lon="3.06128">
        <ele>380.82</ele>
        <time>2016-04-24T13:05:43Z</time>
      </trkpt>
      <trkpt lat="44.0855" lon="3.06142">
        <ele>380.82</ele>
        <time>2016-04-24T13:05:44Z</time>
      </trkpt>
      <trkpt lat="44.08554" lon="3.06155">
        <ele>380.82</ele>
        <time>2016-04-24T13:05:45Z</time>
      </trkpt>
      <trkpt lat="44.0856" lon="3.06166">
        <ele>380.82</ele>
        <time>2016-04-24T13:05:46Z</time>
      </trkpt>
      <trkpt lat="44.08568" lon="3.06175">
        <ele>381.3</ele>
        <time>2016-04-24T13:05:47Z</time>
      </trkpt>
      <trkpt lat="44.08577" lon="3.06182">
        <ele>381.3</ele>
        <time>2016-04-24T13:05:48Z</time>
      </trkpt>
      <trkpt lat="44.08587" lon="3.06187">
        <ele>381.78</ele>
        <time>2016-04-24T13:05:49Z</time>
      </trkpt>
      <trkpt lat="44.08597" lon="3.06192">
        <ele>381.3</ele>
        <time>2016-04-24T13:05:50Z</time>
      </trkpt>
      <trkpt lat="44.08634" lon="3.06224">
        <ele>380.34</ele>
        <time>2016-04-24T13:05:54Z</time>
      </trkpt>
      <trkpt lat="44.08644" lon="3.06234">
        <ele>379.86</ele>
        <time>2016-04-24T13:05:55Z</time>
      </trkpt>
      <trkpt lat="44.08653" lon="3.06246">
        <ele>378.9</ele>
        <time>2016-04-24T13:05:56Z</time>
      </trkpt>
      <trkpt lat="44.0866" lon="3.06259">
        <ele>377.94</ele>
        <time>2016-04-24T13:05:57Z</time>
      </trkpt>
      <trkpt lat="44.08666" lon="3.06271">
        <ele>376.97</ele>
        <time>2016-04-24T13:05:58Z</time>
      </trkpt>
      <trkpt lat="44.08673" lon="3.06282">
        <ele>376.49</ele>
        <time>2016-04-24T13:05:59Z</time>
      </trkpt>
      <trkpt lat="44.0868" lon="3.06292">
        <ele>376.01</ele>
        <time>2016-04-24T13:06:00Z</time>
      </trkpt>
      <trkpt lat="44.08687" lon="3.06302">
        <ele>374.57</ele>
        <time>2016-04-24T13:06:01Z</time>
      </trkpt>
      <trkpt lat="44.08696" lon="3.0631">
        <ele>374.09</ele>
        <time>2016-04-24T13:06:02Z</time>
      </trkpt>
      <trkpt lat="44.08705" lon="3.06317">
        <ele>373.13</ele>
        <time>2016-04-24T13:06:03Z</time>
      </trkpt>
      <trkpt lat="44.08715" lon="3.06324">
        <ele>372.65</ele>
        <time>2016-04-24T13:06:04Z</time>
      </trkpt>
      <trkpt lat="44.08823" lon="3.06428">
        <ele>367.84</ele>
        <time>2016-04-24T13:06:15Z</time>
      </trkpt>
      <trkpt lat="44.08925" lon="3.06581">
        <ele>368.8</ele>
        <time>2016-04-24T13:06:26Z</time>
      </trkpt>
      <trkpt lat="44.08977" lon="3.06706">
        <ele>367.36</ele>
        <time>2016-04-24T13:06:36Z</time>
      </trkpt>
      <trkpt lat="44.08984" lon="3.06729">
        <ele>366.88</ele>
        <time>2016-04-24T13:06:38Z</time>
      </trkpt>
      <trkpt lat="44.08987" lon="3.0674">
        <ele>366.4</ele>
        <time>2016-04-24T13:06:39Z</time>
      </trkpt>
      <trkpt lat="44.08995" lon="3.06788">
        <ele>365.44</ele>
        <time>2016-04-24T13:06:43Z</time>
      </trkpt>
      <trkpt lat="44.08999" lon="3.06799">
        <ele>365.44</ele>
        <time>2016-04-24T13:06:44Z</time>
      </trkpt>
      <trkpt lat="44.0901" lon="3.06823">
        <ele>364.48</ele>
        <time>2016-04-24T13:06:46Z</time>
      </trkpt>
      <trkpt lat="44.09014" lon="3.06837">
        <ele>364</ele>
        <time>2016-04-24T13:06:47Z</time>
      </trkpt>
      <trkpt lat="44.09034" lon="3.06979">
        <ele>358.71</ele>
        <time>2016-04-24T13:06:55Z</time>
      </trkpt>
      <trkpt lat="44.09051" lon="3.07146">
        <ele>355.83</ele>
        <time>2016-04-24T13:07:04Z</time>
      </trkpt>
      <trkpt lat="44.09088" lon="3.07347">
        <ele>356.31</ele>
        <time>2016-04-24T13:07:15Z</time>
      </trkpt>
      <trkpt lat="44.09089" lon="3.07383">
        <ele>356.79</ele>
        <time>2016-04-24T13:07:17Z</time>
      </trkpt>
      <trkpt lat="44.09088" lon="3.07402">
        <ele>357.27</ele>
        <time>2016-04-24T13:07:18Z</time>
      </trkpt>
      <trkpt lat="44.0908" lon="3.0752">
        <ele>359.19</ele>
        <time>2016-04-24T13:07:25Z</time>
      </trkpt>
      <trkpt lat="44.09077" lon="3.07536">
        <ele>359.19</ele>
        <time>2016-04-24T13:07:26Z</time>
      </trkpt>
      <trkpt lat="44.09052" lon="3.07662">
        <ele>358.71</ele>
        <time>2016-04-24T13:07:36Z</time>
      </trkpt>
      <trkpt lat="44.09052" lon="3.0767">
        <ele>358.71</ele>
        <time>2016-04-24T13:07:37Z</time>
      </trkpt>
      <trkpt lat="44.09053" lon="3.07687">
        <ele>360.63</ele>
        <time>2016-04-24T13:07:39Z</time>
      </trkpt>
      <trkpt lat="44.09052" lon="3.07696">
        <ele>361.11</ele>
        <time>2016-04-24T13:07:40Z</time>
      </trkpt>
      <trkpt lat="44.09048" lon="3.07717">
        <ele>361.59</ele>
        <time>2016-04-24T13:07:42Z</time>
      </trkpt>
      <trkpt lat="44.09048" lon="3.07729">
        <ele>362.07</ele>
        <time>2016-04-24T13:07:43Z</time>
      </trkpt>
      <trkpt lat="44.09047" lon="3.07742">
        <ele>362.07</ele>
        <time>2016-04-24T13:07:44Z</time>
      </trkpt>
      <trkpt lat="44.09045" lon="3.07755">
        <ele>362.55</ele>
        <time>2016-04-24T13:07:45Z</time>
      </trkpt>
      <trkpt lat="44.09039" lon="3.07769">
        <ele>363.04</ele>
        <time>2016-04-24T13:07:46Z</time>
      </trkpt>
      <trkpt lat="44.0903" lon="3.07786">
        <ele>363.04</ele>
        <time>2016-04-24T13:07:47Z</time>
      </trkpt>
      <trkpt lat="44.09024" lon="3.07804">
        <ele>363.52</ele>
        <time>2016-04-24T13:07:48Z</time>
      </trkpt>
      <trkpt lat="44.0902" lon="3.07824">
        <ele>363.52</ele>
        <time>2016-04-24T13:07:49Z</time>
      </trkpt>
      <trkpt lat="44.09018" lon="3.07844">
        <ele>364</ele>
        <time>2016-04-24T13:07:50Z</time>
      </trkpt>
      <trkpt lat="44.09018" lon="3.07865">
        <ele>364</ele>
        <time>2016-04-24T13:07:51Z</time>
      </trkpt>
      <trkpt lat="44.0902" lon="3.07886">
        <ele>364</ele>
        <time>2016-04-24T13:07:52Z</time>
      </trkpt>
      <trkpt lat="44.09025" lon="3.07906">
        <ele>365.44</ele>
        <time>2016-04-24T13:07:53Z</time>
      </trkpt>
      <trkpt lat="44.09031" lon="3.07926">
        <ele>366.4</ele>
        <time>2016-04-24T13:07:54Z</time>
      </trkpt>
      <trkpt lat="44.09037" lon="3.07946">
        <ele>367.36</ele>
        <time>2016-04-24T13:07:55Z</time>
      </trkpt>
      <trkpt lat="44.09076" lon="3.08043">
        <ele>370.73</ele>
        <time>2016-04-24T13:08:02Z</time>
      </trkpt>
      <trkpt lat="44.09099" lon="3.08095">
        <ele>373.61</ele>
        <time>2016-04-24T13:08:08Z</time>
      </trkpt>
      <trkpt lat="44.09101" lon="3.08102">
        <ele>374.09</ele>
        <time>2016-04-24T13:08:09Z</time>
      </trkpt>
      <trkpt lat="44.09101" lon="3.08112">
        <ele>374.57</ele>
        <time>2016-04-24T13:08:10Z</time>
      </trkpt>
      <trkpt lat="44.09102" lon="3.08121">
        <ele>374.57</ele>
        <time>2016-04-24T13:08:11Z</time>
      </trkpt>
      <trkpt lat="44.09104" lon="3.08129">
        <ele>374.57</ele>
        <time>2016-04-24T13:08:12Z</time>
      </trkpt>
      <trkpt lat="44.09109" lon="3.08135">
        <ele>374.57</ele>
        <time>2016-04-24T13:08:13Z</time>
      </trkpt>
      <trkpt lat="44.09115" lon="3.0814">
        <ele>374.57</ele>
        <time>2016-04-24T13:08:14Z</time>
      </trkpt>
      <trkpt lat="44.09122" lon="3.08137">
        <ele>374.57</ele>
        <time>2016-04-24T13:08:15Z</time>
      </trkpt>
      <trkpt lat="44.09128" lon="3.08129">
        <ele>373.61</ele>
        <time>2016-04-24T13:08:16Z</time>
      </trkpt>
      <trkpt lat="44.09133" lon="3.08118">
        <ele>373.13</ele>
        <time>2016-04-24T13:08:17Z</time>
      </trkpt>
      <trkpt lat="44.09138" lon="3.08106">
        <ele>373.13</ele>
        <time>2016-04-24T13:08:18Z</time>
      </trkpt>
      <trkpt lat="44.09144" lon="3.08095">
        <ele>372.65</ele>
        <time>2016-04-24T13:08:19Z</time>
      </trkpt>
      <trkpt lat="44.09153" lon="3.08084">
        <ele>372.65</ele>
        <time>2016-04-24T13:08:20Z</time>
      </trkpt>
      <trkpt lat="44.09164" lon="3.08075">
        <ele>372.17</ele>
        <time>2016-04-24T13:08:21Z</time>
      </trkpt>
      <trkpt lat="44.09176" lon="3.08067">
        <ele>371.69</ele>
        <time>2016-04-24T13:08:22Z</time>
      </trkpt>
      <trkpt lat="44.09188" lon="3.08061">
        <ele>371.21</ele>
        <time>2016-04-24T13:08:23Z</time>
      </trkpt>
      <trkpt lat="44.09215" lon="3.0805">
        <ele>370.24</ele>
        <time>2016-04-24T13:08:25Z</time>
      </trkpt>
      <trkpt lat="44.0923" lon="3.08048">
        <ele>369.28</ele>
        <time>2016-04-24T13:08:26Z</time>
      </trkpt>
      <trkpt lat="44.09245" lon="3.08049">
        <ele>368.8</ele>
        <time>2016-04-24T13:08:27Z</time>
      </trkpt>
      <trkpt lat="44.09259" lon="3.08053">
        <ele>367.84</ele>
        <time>2016-04-24T13:08:28Z</time>
      </trkpt>
      <trkpt lat="44.09274" lon="3.0806">
        <ele>367.36</ele>
        <time>2016-04-24T13:08:29Z</time>
      </trkpt>
      <trkpt lat="44.09287" lon="3.08069">
        <ele>366.4</ele>
        <time>2016-04-24T13:08:30Z</time>
      </trkpt>
      <trkpt lat="44.093" lon="3.0808">
        <ele>366.4</ele>
        <time>2016-04-24T13:08:31Z</time>
      </trkpt>
      <trkpt lat="44.09312" lon="3.08091">
        <ele>365.92</ele>
        <time>2016-04-24T13:08:32Z</time>
      </trkpt>
      <trkpt lat="44.094" lon="3.08213">
        <ele>362.55</ele>
        <time>2016-04-24T13:08:41Z</time>
      </trkpt>
      <trkpt lat="44.09449" lon="3.08351">
        <ele>360.15</ele>
        <time>2016-04-24T13:08:49Z</time>
      </trkpt>
      <trkpt lat="44.09451" lon="3.08366">
        <ele>360.15</ele>
        <time>2016-04-24T13:08:50Z</time>
      </trkpt>
      <trkpt lat="44.09451" lon="3.08381">
        <ele>359.67</ele>
        <time>2016-04-24T13:08:51Z</time>
      </trkpt>
      <trkpt lat="44.0945" lon="3.08395">
        <ele>359.67</ele>
        <time>2016-04-24T13:08:52Z</time>
      </trkpt>
      <trkpt lat="44.09446" lon="3.08408">
        <ele>359.67</ele>
        <time>2016-04-24T13:08:53Z</time>
      </trkpt>
      <trkpt lat="44.0944" lon="3.0842">
        <ele>359.67</ele>
        <time>2016-04-24T13:08:54Z</time>
      </trkpt>
      <trkpt lat="44.09434" lon="3.08431">
        <ele>359.19</ele>
        <time>2016-04-24T13:08:55Z</time>
      </trkpt>
      <trkpt lat="44.09429" lon="3.08443">
        <ele>358.71</ele>
        <time>2016-04-24T13:08:56Z</time>
      </trkpt>
      <trkpt lat="44.09426" lon="3.08457">
        <ele>358.71</ele>
        <time>2016-04-24T13:08:57Z</time>
      </trkpt>
      <trkpt lat="44.09426" lon="3.08471">
        <ele>358.71</ele>
        <time>2016-04-24T13:08:58Z</time>
      </trkpt>
      <trkpt lat="44.09427" lon="3.08486">
        <ele>358.23</ele>
        <time>2016-04-24T13:08:59Z</time>
      </trkpt>
      <trkpt lat="44.0943" lon="3.085">
        <ele>358.23</ele>
        <time>2016-04-24T13:09:00Z</time>
      </trkpt>
      <trkpt lat="44.09434" lon="3.08513">
        <ele>358.23</ele>
        <time>2016-04-24T13:09:01Z</time>
      </trkpt>
      <trkpt lat="44.0944" lon="3.08524">
        <ele>358.71</ele>
        <time>2016-04-24T13:09:02Z</time>
      </trkpt>
      <trkpt lat="44.09445" lon="3.08536">
        <ele>358.23</ele>
        <time>2016-04-24T13:09:03Z</time>
      </trkpt>
      <trkpt lat="44.0951" lon="3.08647">
        <ele>359.67</ele>
        <time>2016-04-24T13:09:12Z</time>
      </trkpt>
      <trkpt lat="44.09526" lon="3.08668">
        <ele>359.67</ele>
        <time>2016-04-24T13:09:14Z</time>
      </trkpt>
      <trkpt lat="44.09536" lon="3.08677">
        <ele>359.67</ele>
        <time>2016-04-24T13:09:15Z</time>
      </trkpt>
      <trkpt lat="44.09546" lon="3.08686">
        <ele>359.67</ele>
        <time>2016-04-24T13:09:16Z</time>
      </trkpt>
      <trkpt lat="44.09666" lon="3.08756">
        <ele>359.19</ele>
        <time>2016-04-24T13:09:26Z</time>
      </trkpt>
      <trkpt lat="44.09694" lon="3.08762">
        <ele>359.19</ele>
        <time>2016-04-24T13:09:28Z</time>
      </trkpt>
      <trkpt lat="44.09838" lon="3.08754">
        <ele>359.19</ele>
        <time>2016-04-24T13:09:38Z</time>
      </trkpt>
      <trkpt lat="44.09928" lon="3.08727">
        <ele>359.67</ele>
        <time>2016-04-24T13:09:47Z</time>
      </trkpt>
      <trkpt lat="44.10026" lon="3.08674">
        <ele>360.15</ele>
        <time>2016-04-24T13:09:57Z</time>
      </trkpt>
      <trkpt lat="44.10122" lon="3.08626">
        <ele>362.07</ele>
        <time>2016-04-24T13:10:06Z</time>
      </trkpt>
      <trkpt lat="44.10163" lon="3.08602">
        <ele>363.04</ele>
        <time>2016-04-24T13:10:13Z</time>
      </trkpt>
      <trkpt lat="44.10183" lon="3.0859">
        <ele>362.55</ele>
        <time>2016-04-24T13:10:23Z</time>
      </trkpt>
      <trkpt lat="44.10193" lon="3.08583">
        <ele>362.55</ele>
        <time>2016-04-24T13:10:24Z</time>
      </trkpt>
      <trkpt lat="44.10205" lon="3.08575">
        <ele>363.04</ele>
        <time>2016-04-24T13:10:25Z</time>
      </trkpt>
      <trkpt lat="44.1023" lon="3.08561">
        <ele>362.55</ele>
        <time>2016-04-24T13:10:27Z</time>
      </trkpt>
      <trkpt lat="44.10243" lon="3.08552">
        <ele>362.55</ele>
        <time>2016-04-24T13:10:28Z</time>
      </trkpt>
      <trkpt lat="44.10391" lon="3.08463">
        <ele>361.11</ele>
        <time>2016-04-24T13:10:38Z</time>
      </trkpt>
      <trkpt lat="44.10489" lon="3.08438">
        <ele>361.11</ele>
        <time>2016-04-24T13:10:45Z</time>
      </trkpt>
      <trkpt lat="44.10576" lon="3.08426">
        <ele>361.59</ele>
        <time>2016-04-24T13:10:52Z</time>
      </trkpt>
      <trkpt lat="44.10647" lon="3.08431">
        <ele>362.55</ele>
        <time>2016-04-24T13:10:58Z</time>
      </trkpt>
      <trkpt lat="44.1066" lon="3.08426">
        <ele>362.55</ele>
        <time>2016-04-24T13:10:59Z</time>
      </trkpt>
      <trkpt lat="44.10672" lon="3.08419">
        <ele>362.55</ele>
        <time>2016-04-24T13:11:00Z</time>
      </trkpt>
      <trkpt lat="44.10682" lon="3.0841">
        <ele>363.04</ele>
        <time>2016-04-24T13:11:01Z</time>
      </trkpt>
      <trkpt lat="44.10691" lon="3.08398">
        <ele>363.04</ele>
        <time>2016-04-24T13:11:02Z</time>
      </trkpt>
      <trkpt lat="44.10697" lon="3.08384">
        <ele>363.04</ele>
        <time>2016-04-24T13:11:03Z</time>
      </trkpt>
      <trkpt lat="44.10702" lon="3.0837">
        <ele>363.04</ele>
        <time>2016-04-24T13:11:04Z</time>
      </trkpt>
      <trkpt lat="44.10705" lon="3.08356">
        <ele>363.04</ele>
        <time>2016-04-24T13:11:05Z</time>
      </trkpt>
      <trkpt lat="44.10706" lon="3.08343">
        <ele>363.04</ele>
        <time>2016-04-24T13:11:06Z</time>
      </trkpt>
      <trkpt lat="44.10707" lon="3.08331">
        <ele>362.55</ele>
        <time>2016-04-24T13:11:07Z</time>
      </trkpt>
      <trkpt lat="44.10713" lon="3.08266">
        <ele>362.07</ele>
        <time>2016-04-24T13:11:16Z</time>
      </trkpt>
      <trkpt lat="44.10713" lon="3.08257">
        <ele>361.11</ele>
        <time>2016-04-24T13:11:26Z</time>
      </trkpt>
      <trkpt lat="44.10711" lon="3.0825">
        <ele>360.63</ele>
        <time>2016-04-24T13:11:28Z</time>
      </trkpt>
      <trkpt lat="44.10709" lon="3.08246">
        <ele>360.63</ele>
        <time>2016-04-24T13:11:29Z</time>
      </trkpt>
      <trkpt lat="44.10706" lon="3.08242">
        <ele>360.63</ele>
        <time>2016-04-24T13:11:30Z</time>
      </trkpt>
      <trkpt lat="44.10692" lon="3.08232">
        <ele>360.63</ele>
        <time>2016-04-24T13:11:36Z</time>
      </trkpt>
      <trkpt lat="44.1069" lon="3.08234">
        <ele>360.63</ele>
        <time>2016-04-24T13:11:37Z</time>
      </trkpt>
      <trkpt lat="44.10689" lon="3.08236">
        <ele>360.63</ele>
        <time>2016-04-24T13:11:38Z</time>
      </trkpt>
      <trkpt lat="44.10689" lon="3.08239">
        <ele>360.63</ele>
        <time>2016-04-24T13:11:39Z</time>
      </trkpt>
      <trkpt lat="44.10689" lon="3.08242">
        <ele>360.63</ele>
        <time>2016-04-24T13:11:40Z</time>
      </trkpt>
      <trkpt lat="44.10689" lon="3.08243">
        <ele>363.04</ele>
        <time>2016-04-24T13:11:54Z</time>
      </trkpt>
      <trkpt lat="44.10689" lon="3.08247">
        <ele>365.44</ele>
        <time>2016-04-24T13:12:45Z</time>
      </trkpt>
      <trkpt lat="44.10688" lon="3.08247">
        <ele>365.92</ele>
        <time>2016-04-24T13:13:58Z</time>
      </trkpt>
      <trkpt lat="44.10686" lon="3.08249">
        <ele>362.55</ele>
        <time>2016-04-24T13:14:35Z</time>
      </trkpt>
      <trkpt lat="44.10693" lon="3.08252">
        <ele>362.55</ele>
        <time>2016-04-24T13:15:07Z</time>
      </trkpt>
      <trkpt lat="44.10284" lon="3.0851">
        <ele>363.04</ele>
        <time>2016-04-24T13:37:45Z</time>
      </trkpt>
      <trkpt lat="44.10223" lon="3.0856">
        <ele>364</ele>
        <time>2016-04-24T13:37:55Z</time>
      </trkpt>
      <trkpt lat="44.10203" lon="3.08572">
        <ele>364</ele>
        <time>2016-04-24T13:37:59Z</time>
      </trkpt>
      <trkpt lat="44.10198" lon="3.08572">
        <ele>363.52</ele>
        <time>2016-04-24T13:38:00Z</time>
      </trkpt>
      <trkpt lat="44.10193" lon="3.08571">
        <ele>363.04</ele>
        <time>2016-04-24T13:38:01Z</time>
      </trkpt>
      <trkpt lat="44.10187" lon="3.08568">
        <ele>363.04</ele>
        <time>2016-04-24T13:38:02Z</time>
      </trkpt>
      <trkpt lat="44.10182" lon="3.08565">
        <ele>363.04</ele>
        <time>2016-04-24T13:38:03Z</time>
      </trkpt>
      <trkpt lat="44.10176" lon="3.08562">
        <ele>363.04</ele>
        <time>2016-04-24T13:38:04Z</time>
      </trkpt>
      <trkpt lat="44.1017" lon="3.08562">
        <ele>363.04</ele>
        <time>2016-04-24T13:38:05Z</time>
      </trkpt>
      <trkpt lat="44.10165" lon="3.08565">
        <ele>363.04</ele>
        <time>2016-04-24T13:38:06Z</time>
      </trkpt>
      <trkpt lat="44.10162" lon="3.08571">
        <ele>363.04</ele>
        <time>2016-04-24T13:38:07Z</time>
      </trkpt>
      <trkpt lat="44.10161" lon="3.08579">
        <ele>362.55</ele>
        <time>2016-04-24T13:38:08Z</time>
      </trkpt>
      <trkpt lat="44.10163" lon="3.08588">
        <ele>362.55</ele>
        <time>2016-04-24T13:38:09Z</time>
      </trkpt>
      <trkpt lat="44.10168" lon="3.08593">
        <ele>362.07</ele>
        <time>2016-04-24T13:38:10Z</time>
      </trkpt>
      <trkpt lat="44.10175" lon="3.08597">
        <ele>361.59</ele>
        <time>2016-04-24T13:38:11Z</time>
      </trkpt>
      <trkpt lat="44.10181" lon="3.086">
        <ele>361.59</ele>
        <time>2016-04-24T13:38:12Z</time>
      </trkpt>
      <trkpt lat="44.10186" lon="3.08605">
        <ele>361.59</ele>
        <time>2016-04-24T13:38:13Z</time>
      </trkpt>
      <trkpt lat="44.10189" lon="3.08613">
        <ele>362.07</ele>
        <time>2016-04-24T13:38:14Z</time>
      </trkpt>
      <trkpt lat="44.10191" lon="3.08621">
        <ele>362.07</ele>
        <time>2016-04-24T13:38:15Z</time>
      </trkpt>
      <trkpt lat="44.10192" lon="3.08628">
        <ele>362.07</ele>
        <time>2016-04-24T13:38:16Z</time>
      </trkpt>
      <trkpt lat="44.10199" lon="3.08705">
        <ele>361.59</ele>
        <time>2016-04-24T13:38:24Z</time>
      </trkpt>
      <trkpt lat="44.10203" lon="3.08716">
        <ele>361.59</ele>
        <time>2016-04-24T13:38:25Z</time>
      </trkpt>
      <trkpt lat="44.10209" lon="3.08725">
        <ele>361.59</ele>
        <time>2016-04-24T13:38:26Z</time>
      </trkpt>
      <trkpt lat="44.10217" lon="3.08733">
        <ele>361.11</ele>
        <time>2016-04-24T13:38:27Z</time>
      </trkpt>
      <trkpt lat="44.10225" lon="3.0874">
        <ele>360.63</ele>
        <time>2016-04-24T13:38:28Z</time>
      </trkpt>
      <trkpt lat="44.10234" lon="3.08747">
        <ele>360.15</ele>
        <time>2016-04-24T13:38:29Z</time>
      </trkpt>
      <trkpt lat="44.10287" lon="3.08818">
        <ele>358.71</ele>
        <time>2016-04-24T13:38:38Z</time>
      </trkpt>
      <trkpt lat="44.10308" lon="3.08861">
        <ele>357.75</ele>
        <time>2016-04-24T13:38:48Z</time>
      </trkpt>
      <trkpt lat="44.1031" lon="3.08867">
        <ele>357.27</ele>
        <time>2016-04-24T13:38:49Z</time>
      </trkpt>
      <trkpt lat="44.10311" lon="3.08875">
        <ele>357.27</ele>
        <time>2016-04-24T13:38:50Z</time>
      </trkpt>
      <trkpt lat="44.10312" lon="3.08885">
        <ele>357.27</ele>
        <time>2016-04-24T13:38:51Z</time>
      </trkpt>
      <trkpt lat="44.10318" lon="3.08926">
        <ele>357.27</ele>
        <time>2016-04-24T13:38:58Z</time>
      </trkpt>
      <trkpt lat="44.10327" lon="3.0898">
        <ele>357.27</ele>
        <time>2016-04-24T13:39:04Z</time>
      </trkpt>
      <trkpt lat="44.10327" lon="3.08994">
        <ele>357.27</ele>
        <time>2016-04-24T13:39:05Z</time>
      </trkpt>
      <trkpt lat="44.10326" lon="3.09008">
        <ele>357.75</ele>
        <time>2016-04-24T13:39:06Z</time>
      </trkpt>
      <trkpt lat="44.10324" lon="3.09021">
        <ele>357.75</ele>
        <time>2016-04-24T13:39:07Z</time>
      </trkpt>
      <trkpt lat="44.10321" lon="3.09034">
        <ele>358.23</ele>
        <time>2016-04-24T13:39:08Z</time>
      </trkpt>
      <trkpt lat="44.10318" lon="3.09046">
        <ele>358.23</ele>
        <time>2016-04-24T13:39:09Z</time>
      </trkpt>
      <trkpt lat="44.10313" lon="3.09057">
        <ele>358.23</ele>
        <time>2016-04-24T13:39:10Z</time>
      </trkpt>
      <trkpt lat="44.10256" lon="3.09178">
        <ele>358.71</ele>
        <time>2016-04-24T13:39:21Z</time>
      </trkpt>
      <trkpt lat="44.10238" lon="3.09206">
        <ele>359.67</ele>
        <time>2016-04-24T13:39:25Z</time>
      </trkpt>
      <trkpt lat="44.10211" lon="3.09241">
        <ele>360.15</ele>
        <time>2016-04-24T13:39:29Z</time>
      </trkpt>
      <trkpt lat="44.10207" lon="3.09255">
        <ele>360.15</ele>
        <time>2016-04-24T13:39:30Z</time>
      </trkpt>
      <trkpt lat="44.10204" lon="3.09272">
        <ele>360.15</ele>
        <time>2016-04-24T13:39:31Z</time>
      </trkpt>
      <trkpt lat="44.10193" lon="3.09416">
        <ele>361.11</ele>
        <time>2016-04-24T13:39:40Z</time>
      </trkpt>
      <trkpt lat="44.10173" lon="3.09551">
        <ele>363.04</ele>
        <time>2016-04-24T13:39:48Z</time>
      </trkpt>
      <trkpt lat="44.10159" lon="3.09597">
        <ele>363.04</ele>
        <time>2016-04-24T13:39:52Z</time>
      </trkpt>
      <trkpt lat="44.10155" lon="3.09605">
        <ele>362.55</ele>
        <time>2016-04-24T13:39:53Z</time>
      </trkpt>
      <trkpt lat="44.10146" lon="3.09617">
        <ele>362.07</ele>
        <time>2016-04-24T13:39:55Z</time>
      </trkpt>
      <trkpt lat="44.10145" lon="3.09625">
        <ele>362.07</ele>
        <time>2016-04-24T13:39:56Z</time>
      </trkpt>
      <trkpt lat="44.10145" lon="3.09636">
        <ele>362.07</ele>
        <time>2016-04-24T13:39:57Z</time>
      </trkpt>
      <trkpt lat="44.10144" lon="3.0965">
        <ele>362.07</ele>
        <time>2016-04-24T13:39:58Z</time>
      </trkpt>
      <trkpt lat="44.10141" lon="3.09665">
        <ele>362.07</ele>
        <time>2016-04-24T13:39:59Z</time>
      </trkpt>
      <trkpt lat="44.10136" lon="3.0968">
        <ele>362.07</ele>
        <time>2016-04-24T13:40:00Z</time>
      </trkpt>
      <trkpt lat="44.10132" lon="3.09696">
        <ele>362.07</ele>
        <time>2016-04-24T13:40:01Z</time>
      </trkpt>
      <trkpt lat="44.10112" lon="3.09776">
        <ele>362.07</ele>
        <time>2016-04-24T13:40:06Z</time>
      </trkpt>
      <trkpt lat="44.101" lon="3.09972">
        <ele>362.07</ele>
        <time>2016-04-24T13:40:17Z</time>
      </trkpt>
      <trkpt lat="44.10093" lon="3.10059">
        <ele>363.52</ele>
        <time>2016-04-24T13:40:23Z</time>
      </trkpt>
      <trkpt lat="44.10093" lon="3.10073">
        <ele>363.04</ele>
        <time>2016-04-24T13:40:24Z</time>
      </trkpt>
      <trkpt lat="44.10092" lon="3.10089">
        <ele>363.52</ele>
        <time>2016-04-24T13:40:25Z</time>
      </trkpt>
      <trkpt lat="44.10082" lon="3.10233">
        <ele>364</ele>
        <time>2016-04-24T13:40:35Z</time>
      </trkpt>
      <trkpt lat="44.10073" lon="3.10364">
        <ele>364.96</ele>
        <time>2016-04-24T13:40:44Z</time>
      </trkpt>
      <trkpt lat="44.10061" lon="3.10503">
        <ele>365.92</ele>
        <time>2016-04-24T13:40:53Z</time>
      </trkpt>
      <trkpt lat="44.10048" lon="3.10741">
        <ele>367.36</ele>
        <time>2016-04-24T13:41:05Z</time>
      </trkpt>
      <trkpt lat="44.10027" lon="3.11035">
        <ele>366.4</ele>
        <time>2016-04-24T13:41:19Z</time>
      </trkpt>
      <trkpt lat="44.1" lon="3.11236">
        <ele>365.44</ele>
        <time>2016-04-24T13:41:29Z</time>
      </trkpt>
      <trkpt lat="44.09999" lon="3.11259">
        <ele>364.96</ele>
        <time>2016-04-24T13:41:30Z</time>
      </trkpt>
      <trkpt lat="44.10001" lon="3.11281">
        <ele>364.96</ele>
        <time>2016-04-24T13:41:31Z</time>
      </trkpt>
      <trkpt lat="44.10004" lon="3.11305">
        <ele>364.96</ele>
        <time>2016-04-24T13:41:32Z</time>
      </trkpt>
      <trkpt lat="44.10008" lon="3.11328">
        <ele>364.96</ele>
        <time>2016-04-24T13:41:33Z</time>
      </trkpt>
      <trkpt lat="44.10028" lon="3.11415">
        <ele>364.96</ele>
        <time>2016-04-24T13:41:37Z</time>
      </trkpt>
      <trkpt lat="44.10037" lon="3.11435">
        <ele>364.96</ele>
        <time>2016-04-24T13:41:38Z</time>
      </trkpt>
      <trkpt lat="44.10049" lon="3.11452">
        <ele>364.48</ele>
        <time>2016-04-24T13:41:39Z</time>
      </trkpt>
      <trkpt lat="44.10065" lon="3.11468">
        <ele>364.48</ele>
        <time>2016-04-24T13:41:40Z</time>
      </trkpt>
      <trkpt lat="44.10082" lon="3.11485">
        <ele>364.48</ele>
        <time>2016-04-24T13:41:41Z</time>
      </trkpt>
      <trkpt lat="44.10114" lon="3.11524">
        <ele>364.96</ele>
        <time>2016-04-24T13:41:43Z</time>
      </trkpt>
      <trkpt lat="44.10127" lon="3.11547">
        <ele>364.96</ele>
        <time>2016-04-24T13:41:44Z</time>
      </trkpt>
      <trkpt lat="44.10139" lon="3.11569">
        <ele>365.44</ele>
        <time>2016-04-24T13:41:45Z</time>
      </trkpt>
      <trkpt lat="44.10148" lon="3.11592">
        <ele>365.44</ele>
        <time>2016-04-24T13:41:46Z</time>
      </trkpt>
      <trkpt lat="44.10154" lon="3.11614">
        <ele>365.44</ele>
        <time>2016-04-24T13:41:47Z</time>
      </trkpt>
      <trkpt lat="44.10156" lon="3.11638">
        <ele>365.92</ele>
        <time>2016-04-24T13:41:48Z</time>
      </trkpt>
      <trkpt lat="44.10154" lon="3.11661">
        <ele>366.4</ele>
        <time>2016-04-24T13:41:49Z</time>
      </trkpt>
      <trkpt lat="44.1015" lon="3.11686">
        <ele>366.88</ele>
        <time>2016-04-24T13:41:50Z</time>
      </trkpt>
      <trkpt lat="44.10142" lon="3.11711">
        <ele>366.88</ele>
        <time>2016-04-24T13:41:51Z</time>
      </trkpt>
      <trkpt lat="44.10137" lon="3.11739">
        <ele>366.88</ele>
        <time>2016-04-24T13:41:52Z</time>
      </trkpt>
      <trkpt lat="44.10132" lon="3.11767">
        <ele>366.88</ele>
        <time>2016-04-24T13:41:53Z</time>
      </trkpt>
      <trkpt lat="44.10129" lon="3.11797">
        <ele>366.4</ele>
        <time>2016-04-24T13:41:54Z</time>
      </trkpt>
      <trkpt lat="44.10115" lon="3.12145">
        <ele>366.4</ele>
        <time>2016-04-24T13:42:05Z</time>
      </trkpt>
      <trkpt lat="44.10121" lon="3.12384">
        <ele>365.92</ele>
        <time>2016-04-24T13:42:13Z</time>
      </trkpt>
      <trkpt lat="44.10125" lon="3.12413">
        <ele>365.92</ele>
        <time>2016-04-24T13:42:14Z</time>
      </trkpt>
      <trkpt lat="44.1017" lon="3.12662">
        <ele>367.36</ele>
        <time>2016-04-24T13:42:23Z</time>
      </trkpt>
      <trkpt lat="44.10192" lon="3.12799">
        <ele>368.8</ele>
        <time>2016-04-24T13:42:30Z</time>
      </trkpt>
      <trkpt lat="44.10216" lon="3.12894">
        <ele>369.76</ele>
        <time>2016-04-24T13:42:38Z</time>
      </trkpt>
      <trkpt lat="44.10229" lon="3.12922">
        <ele>369.76</ele>
        <time>2016-04-24T13:42:40Z</time>
      </trkpt>
      <trkpt lat="44.10239" lon="3.12934">
        <ele>370.24</ele>
        <time>2016-04-24T13:42:41Z</time>
      </trkpt>
      <trkpt lat="44.10252" lon="3.12944">
        <ele>370.73</ele>
        <time>2016-04-24T13:42:42Z</time>
      </trkpt>
      <trkpt lat="44.10266" lon="3.12954">
        <ele>370.73</ele>
        <time>2016-04-24T13:42:43Z</time>
      </trkpt>
      <trkpt lat="44.10281" lon="3.12962">
        <ele>371.21</ele>
        <time>2016-04-24T13:42:44Z</time>
      </trkpt>
      <trkpt lat="44.10295" lon="3.12969">
        <ele>371.69</ele>
        <time>2016-04-24T13:42:45Z</time>
      </trkpt>
      <trkpt lat="44.1031" lon="3.12974">
        <ele>372.17</ele>
        <time>2016-04-24T13:42:46Z</time>
      </trkpt>
      <trkpt lat="44.10326" lon="3.12977">
        <ele>372.65</ele>
        <time>2016-04-24T13:42:47Z</time>
      </trkpt>
      <trkpt lat="44.10342" lon="3.12976">
        <ele>373.13</ele>
        <time>2016-04-24T13:42:48Z</time>
      </trkpt>
      <trkpt lat="44.10358" lon="3.12974">
        <ele>373.61</ele>
        <time>2016-04-24T13:42:49Z</time>
      </trkpt>
      <trkpt lat="44.10373" lon="3.12967">
        <ele>373.61</ele>
        <time>2016-04-24T13:42:50Z</time>
      </trkpt>
      <trkpt lat="44.10388" lon="3.12958">
        <ele>374.09</ele>
        <time>2016-04-24T13:42:51Z</time>
      </trkpt>
      <trkpt lat="44.10403" lon="3.12948">
        <ele>375.05</ele>
        <time>2016-04-24T13:42:52Z</time>
      </trkpt>
      <trkpt lat="44.10417" lon="3.12937">
        <ele>375.53</ele>
        <time>2016-04-24T13:42:53Z</time>
      </trkpt>
      <trkpt lat="44.10543" lon="3.12865">
        <ele>380.34</ele>
        <time>2016-04-24T13:43:02Z</time>
      </trkpt>
      <trkpt lat="44.1071" lon="3.12843">
        <ele>380.82</ele>
        <time>2016-04-24T13:43:12Z</time>
      </trkpt>
      <trkpt lat="44.10815" lon="3.12862">
        <ele>382.74</ele>
        <time>2016-04-24T13:43:18Z</time>
      </trkpt>
      <trkpt lat="44.10831" lon="3.12871">
        <ele>383.22</ele>
        <time>2016-04-24T13:43:19Z</time>
      </trkpt>
      <trkpt lat="44.10846" lon="3.12884">
        <ele>383.7</ele>
        <time>2016-04-24T13:43:20Z</time>
      </trkpt>
      <trkpt lat="44.10861" lon="3.129">
        <ele>383.7</ele>
        <time>2016-04-24T13:43:21Z</time>
      </trkpt>
      <trkpt lat="44.10873" lon="3.12918">
        <ele>383.7</ele>
        <time>2016-04-24T13:43:22Z</time>
      </trkpt>
      <trkpt lat="44.10885" lon="3.12937">
        <ele>383.7</ele>
        <time>2016-04-24T13:43:23Z</time>
      </trkpt>
      <trkpt lat="44.10896" lon="3.12958">
        <ele>383.22</ele>
        <time>2016-04-24T13:43:24Z</time>
      </trkpt>
      <trkpt lat="44.10907" lon="3.12981">
        <ele>382.74</ele>
        <time>2016-04-24T13:43:25Z</time>
      </trkpt>
      <trkpt lat="44.10917" lon="3.13004">
        <ele>382.74</ele>
        <time>2016-04-24T13:43:26Z</time>
      </trkpt>
      <trkpt lat="44.10926" lon="3.13028">
        <ele>382.26</ele>
        <time>2016-04-24T13:43:27Z</time>
      </trkpt>
      <trkpt lat="44.10934" lon="3.13053">
        <ele>382.26</ele>
        <time>2016-04-24T13:43:28Z</time>
      </trkpt>
      <trkpt lat="44.10968" lon="3.13256">
        <ele>380.82</ele>
        <time>2016-04-24T13:43:35Z</time>
      </trkpt>
      <trkpt lat="44.10958" lon="3.13443">
        <ele>381.3</ele>
        <time>2016-04-24T13:43:41Z</time>
      </trkpt>
      <trkpt lat="44.10948" lon="3.13468">
        <ele>381.78</ele>
        <time>2016-04-24T13:43:42Z</time>
      </trkpt>
      <trkpt lat="44.10935" lon="3.1349">
        <ele>382.74</ele>
        <time>2016-04-24T13:43:43Z</time>
      </trkpt>
      <trkpt lat="44.10811" lon="3.13714">
        <ele>386.59</ele>
        <time>2016-04-24T13:43:53Z</time>
      </trkpt>
      <trkpt lat="44.10801" lon="3.13736">
        <ele>387.07</ele>
        <time>2016-04-24T13:43:54Z</time>
      </trkpt>
      <trkpt lat="44.10789" lon="3.13795">
        <ele>388.03</ele>
        <time>2016-04-24T13:43:57Z</time>
      </trkpt>
      <trkpt lat="44.10797" lon="3.13811">
        <ele>387.55</ele>
        <time>2016-04-24T13:43:58Z</time>
      </trkpt>
      <trkpt lat="44.10812" lon="3.13819">
        <ele>386.11</ele>
        <time>2016-04-24T13:43:59Z</time>
      </trkpt>
      <trkpt lat="44.10828" lon="3.13821">
        <ele>385.15</ele>
        <time>2016-04-24T13:44:00Z</time>
      </trkpt>
      <trkpt lat="44.10843" lon="3.13826">
        <ele>385.63</ele>
        <time>2016-04-24T13:44:01Z</time>
      </trkpt>
      <trkpt lat="44.10856" lon="3.13828">
        <ele>385.63</ele>
        <time>2016-04-24T13:44:02Z</time>
      </trkpt>
      <trkpt lat="44.1087" lon="3.1383">
        <ele>387.07</ele>
        <time>2016-04-24T13:44:03Z</time>
      </trkpt>
      <trkpt lat="44.10881" lon="3.13834">
        <ele>386.59</ele>
        <time>2016-04-24T13:44:04Z</time>
      </trkpt>
      <trkpt lat="44.10891" lon="3.13841">
        <ele>387.07</ele>
        <time>2016-04-24T13:44:05Z</time>
      </trkpt>
      <trkpt lat="44.109" lon="3.1385">
        <ele>387.07</ele>
        <time>2016-04-24T13:44:06Z</time>
      </trkpt>
      <trkpt lat="44.10907" lon="3.1386">
        <ele>387.55</ele>
        <time>2016-04-24T13:44:07Z</time>
      </trkpt>
      <trkpt lat="44.10912" lon="3.13874">
        <ele>387.07</ele>
        <time>2016-04-24T13:44:08Z</time>
      </trkpt>
      <trkpt lat="44.10917" lon="3.13889">
        <ele>387.07</ele>
        <time>2016-04-24T13:44:09Z</time>
      </trkpt>
      <trkpt lat="44.10919" lon="3.13906">
        <ele>387.55</ele>
        <time>2016-04-24T13:44:10Z</time>
      </trkpt>
      <trkpt lat="44.10921" lon="3.13924">
        <ele>387.07</ele>
        <time>2016-04-24T13:44:11Z</time>
      </trkpt>
      <trkpt lat="44.10922" lon="3.13941">
        <ele>387.07</ele>
        <time>2016-04-24T13:44:12Z</time>
      </trkpt>
      <trkpt lat="44.10923" lon="3.13957">
        <ele>386.59</ele>
        <time>2016-04-24T13:44:13Z</time>
      </trkpt>
      <trkpt lat="44.10932" lon="3.14015">
        <ele>386.11</ele>
        <time>2016-04-24T13:44:17Z</time>
      </trkpt>
      <trkpt lat="44.10937" lon="3.1403">
        <ele>386.11</ele>
        <time>2016-04-24T13:44:18Z</time>
      </trkpt>
      <trkpt lat="44.10938" lon="3.14049">
        <ele>386.11</ele>
        <time>2016-04-24T13:44:19Z</time>
      </trkpt>
      <trkpt lat="44.10937" lon="3.14069">
        <ele>386.11</ele>
        <time>2016-04-24T13:44:20Z</time>
      </trkpt>
      <trkpt lat="44.10932" lon="3.1409">
        <ele>386.11</ele>
        <time>2016-04-24T13:44:21Z</time>
      </trkpt>
      <trkpt lat="44.10924" lon="3.14111">
        <ele>386.11</ele>
        <time>2016-04-24T13:44:22Z</time>
      </trkpt>
      <trkpt lat="44.10914" lon="3.1413">
        <ele>386.11</ele>
        <time>2016-04-24T13:44:23Z</time>
      </trkpt>
      <trkpt lat="44.10903" lon="3.14151">
        <ele>385.15</ele>
        <time>2016-04-24T13:44:24Z</time>
      </trkpt>
      <trkpt lat="44.1089" lon="3.14172">
        <ele>385.15</ele>
        <time>2016-04-24T13:44:25Z</time>
      </trkpt>
      <trkpt lat="44.10876" lon="3.14193">
        <ele>385.15</ele>
        <time>2016-04-24T13:44:26Z</time>
      </trkpt>
      <trkpt lat="44.10764" lon="3.14397">
        <ele>385.63</ele>
        <time>2016-04-24T13:44:34Z</time>
      </trkpt>
      <trkpt lat="44.10672" lon="3.14584">
        <ele>387.07</ele>
        <time>2016-04-24T13:44:42Z</time>
      </trkpt>
      <trkpt lat="44.1062" lon="3.14755">
        <ele>386.59</ele>
        <time>2016-04-24T13:44:49Z</time>
      </trkpt>
      <trkpt lat="44.10592" lon="3.14948">
        <ele>386.59</ele>
        <time>2016-04-24T13:44:56Z</time>
      </trkpt>
      <trkpt lat="44.10618" lon="3.15138">
        <ele>385.63</ele>
        <time>2016-04-24T13:45:02Z</time>
      </trkpt>
      <trkpt lat="44.10696" lon="3.15347">
        <ele>386.11</ele>
        <time>2016-04-24T13:45:09Z</time>
      </trkpt>
      <trkpt lat="44.108" lon="3.15561">
        <ele>386.11</ele>
        <time>2016-04-24T13:45:17Z</time>
      </trkpt>
      <trkpt lat="44.10833" lon="3.15637">
        <ele>386.59</ele>
        <time>2016-04-24T13:45:20Z</time>
      </trkpt>
      <trkpt lat="44.1084" lon="3.15667">
        <ele>386.59</ele>
        <time>2016-04-24T13:45:21Z</time>
      </trkpt>
      <trkpt lat="44.10844" lon="3.15697">
        <ele>386.59</ele>
        <time>2016-04-24T13:45:22Z</time>
      </trkpt>
      <trkpt lat="44.10846" lon="3.15729">
        <ele>385.63</ele>
        <time>2016-04-24T13:45:23Z</time>
      </trkpt>
      <trkpt lat="44.10845" lon="3.15761">
        <ele>386.11</ele>
        <time>2016-04-24T13:45:24Z</time>
      </trkpt>
      <trkpt lat="44.10843" lon="3.15793">
        <ele>387.07</ele>
        <time>2016-04-24T13:45:25Z</time>
      </trkpt>
      <trkpt lat="44.10838" lon="3.15823">
        <ele>387.07</ele>
        <time>2016-04-24T13:45:26Z</time>
      </trkpt>
      <trkpt lat="44.1083" lon="3.1585">
        <ele>387.55</ele>
        <time>2016-04-24T13:45:27Z</time>
      </trkpt>
      <trkpt lat="44.10819" lon="3.15874">
        <ele>387.07</ele>
        <time>2016-04-24T13:45:28Z</time>
      </trkpt>
      <trkpt lat="44.10809" lon="3.15896">
        <ele>387.07</ele>
        <time>2016-04-24T13:45:29Z</time>
      </trkpt>
      <trkpt lat="44.10802" lon="3.15916">
        <ele>387.07</ele>
        <time>2016-04-24T13:45:30Z</time>
      </trkpt>
      <trkpt lat="44.108" lon="3.15938">
        <ele>387.07</ele>
        <time>2016-04-24T13:45:31Z</time>
      </trkpt>
      <trkpt lat="44.108" lon="3.15961">
        <ele>387.07</ele>
        <time>2016-04-24T13:45:32Z</time>
      </trkpt>
      <trkpt lat="44.10804" lon="3.15985">
        <ele>386.59</ele>
        <time>2016-04-24T13:45:33Z</time>
      </trkpt>
      <trkpt lat="44.10812" lon="3.1601">
        <ele>386.59</ele>
        <time>2016-04-24T13:45:34Z</time>
      </trkpt>
      <trkpt lat="44.10823" lon="3.16034">
        <ele>386.11</ele>
        <time>2016-04-24T13:45:35Z</time>
      </trkpt>
      <trkpt lat="44.10835" lon="3.1606">
        <ele>386.11</ele>
        <time>2016-04-24T13:45:36Z</time>
      </trkpt>
      <trkpt lat="44.10908" lon="3.16182">
        <ele>387.07</ele>
        <time>2016-04-24T13:45:41Z</time>
      </trkpt>
      <trkpt lat="44.10925" lon="3.16203">
        <ele>387.07</ele>
        <time>2016-04-24T13:45:42Z</time>
      </trkpt>
      <trkpt lat="44.11012" lon="3.16344">
        <ele>386.59</ele>
        <time>2016-04-24T13:45:48Z</time>
      </trkpt>
      <trkpt lat="44.11083" lon="3.16504">
        <ele>387.55</ele>
        <time>2016-04-24T13:45:55Z</time>
      </trkpt>
      <trkpt lat="44.11107" lon="3.16541">
        <ele>388.03</ele>
        <time>2016-04-24T13:45:57Z</time>
      </trkpt>
      <trkpt lat="44.11121" lon="3.16558">
        <ele>388.51</ele>
        <time>2016-04-24T13:45:58Z</time>
      </trkpt>
      <trkpt lat="44.11148" lon="3.16593">
        <ele>388.99</ele>
        <time>2016-04-24T13:46:00Z</time>
      </trkpt>
      <trkpt lat="44.11181" lon="3.16644">
        <ele>389.95</ele>
        <time>2016-04-24T13:46:03Z</time>
      </trkpt>
      <trkpt lat="44.11195" lon="3.16658">
        <ele>389.95</ele>
        <time>2016-04-24T13:46:04Z</time>
      </trkpt>
      <trkpt lat="44.1121" lon="3.16671">
        <ele>390.43</ele>
        <time>2016-04-24T13:46:05Z</time>
      </trkpt>
      <trkpt lat="44.11283" lon="3.16715">
        <ele>391.39</ele>
        <time>2016-04-24T13:46:10Z</time>
      </trkpt>
      <trkpt lat="44.11296" lon="3.16719">
        <ele>391.87</ele>
        <time>2016-04-24T13:46:11Z</time>
      </trkpt>
      <trkpt lat="44.11321" lon="3.16725">
        <ele>392.36</ele>
        <time>2016-04-24T13:46:13Z</time>
      </trkpt>
      <trkpt lat="44.11332" lon="3.16731">
        <ele>392.36</ele>
        <time>2016-04-24T13:46:14Z</time>
      </trkpt>
      <trkpt lat="44.11343" lon="3.16739">
        <ele>392.36</ele>
        <time>2016-04-24T13:46:15Z</time>
      </trkpt>
      <trkpt lat="44.11353" lon="3.1675">
        <ele>392.36</ele>
        <time>2016-04-24T13:46:16Z</time>
      </trkpt>
      <trkpt lat="44.11363" lon="3.16764">
        <ele>392.84</ele>
        <time>2016-04-24T13:46:17Z</time>
      </trkpt>
      <trkpt lat="44.11373" lon="3.16778">
        <ele>392.84</ele>
        <time>2016-04-24T13:46:18Z</time>
      </trkpt>
      <trkpt lat="44.11381" lon="3.16794">
        <ele>392.84</ele>
        <time>2016-04-24T13:46:19Z</time>
      </trkpt>
      <trkpt lat="44.11389" lon="3.16812">
        <ele>392.84</ele>
        <time>2016-04-24T13:46:20Z</time>
      </trkpt>
      <trkpt lat="44.11396" lon="3.16831">
        <ele>393.32</ele>
        <time>2016-04-24T13:46:21Z</time>
      </trkpt>
      <trkpt lat="44.11443" lon="3.17003">
        <ele>394.28</ele>
        <time>2016-04-24T13:46:29Z</time>
      </trkpt>
      <trkpt lat="44.11445" lon="3.17025">
        <ele>394.28</ele>
        <time>2016-04-24T13:46:30Z</time>
      </trkpt>
      <trkpt lat="44.11449" lon="3.17227">
        <ele>393.8</ele>
        <time>2016-04-24T13:46:38Z</time>
      </trkpt>
      <trkpt lat="44.11458" lon="3.17332">
        <ele>392.36</ele>
        <time>2016-04-24T13:46:42Z</time>
      </trkpt>
      <trkpt lat="44.11508" lon="3.1753">
        <ele>389.95</ele>
        <time>2016-04-24T13:46:48Z</time>
      </trkpt>
      <trkpt lat="44.11522" lon="3.17563">
        <ele>389.47</ele>
        <time>2016-04-24T13:46:49Z</time>
      </trkpt>
      <trkpt lat="44.11641" lon="3.17812">
        <ele>388.51</ele>
        <time>2016-04-24T13:46:57Z</time>
      </trkpt>
      <trkpt lat="44.11689" lon="3.17879">
        <ele>387.55</ele>
        <time>2016-04-24T13:47:00Z</time>
      </trkpt>
      <trkpt lat="44.11709" lon="3.17895">
        <ele>387.55</ele>
        <time>2016-04-24T13:47:01Z</time>
      </trkpt>
      <trkpt lat="44.11728" lon="3.17913">
        <ele>387.55</ele>
        <time>2016-04-24T13:47:02Z</time>
      </trkpt>
      <trkpt lat="44.11745" lon="3.17934">
        <ele>387.55</ele>
        <time>2016-04-24T13:47:03Z</time>
      </trkpt>
      <trkpt lat="44.11761" lon="3.17958">
        <ele>387.55</ele>
        <time>2016-04-24T13:47:04Z</time>
      </trkpt>
      <trkpt lat="44.11775" lon="3.17984">
        <ele>388.03</ele>
        <time>2016-04-24T13:47:05Z</time>
      </trkpt>
      <trkpt lat="44.11787" lon="3.18011">
        <ele>388.03</ele>
        <time>2016-04-24T13:47:06Z</time>
      </trkpt>
      <trkpt lat="44.11798" lon="3.18038">
        <ele>388.03</ele>
        <time>2016-04-24T13:47:07Z</time>
      </trkpt>
      <trkpt lat="44.11807" lon="3.18065">
        <ele>388.03</ele>
        <time>2016-04-24T13:47:08Z</time>
      </trkpt>
      <trkpt lat="44.11903" lon="3.18234">
        <ele>388.99</ele>
        <time>2016-04-24T13:47:15Z</time>
      </trkpt>
      <trkpt lat="44.11995" lon="3.18416">
        <ele>388.03</ele>
        <time>2016-04-24T13:47:22Z</time>
      </trkpt>
      <trkpt lat="44.12039" lon="3.18575">
        <ele>388.51</ele>
        <time>2016-04-24T13:47:28Z</time>
      </trkpt>
      <trkpt lat="44.12098" lon="3.1874">
        <ele>388.99</ele>
        <time>2016-04-24T13:47:34Z</time>
      </trkpt>
      <trkpt lat="44.12153" lon="3.18919">
        <ele>388.99</ele>
        <time>2016-04-24T13:47:40Z</time>
      </trkpt>
      <trkpt lat="44.12152" lon="3.18951">
        <ele>389.47</ele>
        <time>2016-04-24T13:47:41Z</time>
      </trkpt>
      <trkpt lat="44.12147" lon="3.18984">
        <ele>389.95</ele>
        <time>2016-04-24T13:47:42Z</time>
      </trkpt>
      <trkpt lat="44.1214" lon="3.19015">
        <ele>389.95</ele>
        <time>2016-04-24T13:47:43Z</time>
      </trkpt>
      <trkpt lat="44.12132" lon="3.19044">
        <ele>389.47</ele>
        <time>2016-04-24T13:47:44Z</time>
      </trkpt>
      <trkpt lat="44.12122" lon="3.19069">
        <ele>388.99</ele>
        <time>2016-04-24T13:47:45Z</time>
      </trkpt>
      <trkpt lat="44.12112" lon="3.19091">
        <ele>388.51</ele>
        <time>2016-04-24T13:47:46Z</time>
      </trkpt>
      <trkpt lat="44.12104" lon="3.19113">
        <ele>388.03</ele>
        <time>2016-04-24T13:47:47Z</time>
      </trkpt>
      <trkpt lat="44.12091" lon="3.19155">
        <ele>387.07</ele>
        <time>2016-04-24T13:47:49Z</time>
      </trkpt>
      <trkpt lat="44.12088" lon="3.19178">
        <ele>387.55</ele>
        <time>2016-04-24T13:47:50Z</time>
      </trkpt>
      <trkpt lat="44.12088" lon="3.19203">
        <ele>388.03</ele>
        <time>2016-04-24T13:47:51Z</time>
      </trkpt>
      <trkpt lat="44.12092" lon="3.19228">
        <ele>388.03</ele>
        <time>2016-04-24T13:47:52Z</time>
      </trkpt>
      <trkpt lat="44.12102" lon="3.19252">
        <ele>387.07</ele>
        <time>2016-04-24T13:47:53Z</time>
      </trkpt>
      <trkpt lat="44.12118" lon="3.19272">
        <ele>387.55</ele>
        <time>2016-04-24T13:47:54Z</time>
      </trkpt>
      <trkpt lat="44.12135" lon="3.19291">
        <ele>388.03</ele>
        <time>2016-04-24T13:47:55Z</time>
      </trkpt>
      <trkpt lat="44.1215" lon="3.19313">
        <ele>388.99</ele>
        <time>2016-04-24T13:47:56Z</time>
      </trkpt>
      <trkpt lat="44.12255" lon="3.19529">
        <ele>391.87</ele>
        <time>2016-04-24T13:48:04Z</time>
      </trkpt>
      <trkpt lat="44.12285" lon="3.19749">
        <ele>392.36</ele>
        <time>2016-04-24T13:48:11Z</time>
      </trkpt>
      <trkpt lat="44.12275" lon="3.19814">
        <ele>392.84</ele>
        <time>2016-04-24T13:48:13Z</time>
      </trkpt>
      <trkpt lat="44.12243" lon="3.20125">
        <ele>396.2</ele>
        <time>2016-04-24T13:48:22Z</time>
      </trkpt>
      <trkpt lat="44.12229" lon="3.2032">
        <ele>396.68</ele>
        <time>2016-04-24T13:48:28Z</time>
      </trkpt>
      <trkpt lat="44.1222" lon="3.20349">
        <ele>396.68</ele>
        <time>2016-04-24T13:48:29Z</time>
      </trkpt>
      <trkpt lat="44.1221" lon="3.20377">
        <ele>396.68</ele>
        <time>2016-04-24T13:48:30Z</time>
      </trkpt>
      <trkpt lat="44.12139" lon="3.20582">
        <ele>397.64</ele>
        <time>2016-04-24T13:48:38Z</time>
      </trkpt>
      <trkpt lat="44.12136" lon="3.20608">
        <ele>397.64</ele>
        <time>2016-04-24T13:48:39Z</time>
      </trkpt>
      <trkpt lat="44.12136" lon="3.20636">
        <ele>397.16</ele>
        <time>2016-04-24T13:48:40Z</time>
      </trkpt>
      <trkpt lat="44.1214" lon="3.20666">
        <ele>396.68</ele>
        <time>2016-04-24T13:48:41Z</time>
      </trkpt>
      <trkpt lat="44.12146" lon="3.20696">
        <ele>396.68</ele>
        <time>2016-04-24T13:48:42Z</time>
      </trkpt>
      <trkpt lat="44.12152" lon="3.20725">
        <ele>396.68</ele>
        <time>2016-04-24T13:48:43Z</time>
      </trkpt>
      <trkpt lat="44.1216" lon="3.20753">
        <ele>396.68</ele>
        <time>2016-04-24T13:48:44Z</time>
      </trkpt>
      <trkpt lat="44.12203" lon="3.20982">
        <ele>397.16</ele>
        <time>2016-04-24T13:48:52Z</time>
      </trkpt>
      <trkpt lat="44.12202" lon="3.21127">
        <ele>398.6</ele>
        <time>2016-04-24T13:48:57Z</time>
      </trkpt>
      <trkpt lat="44.12195" lon="3.21155">
        <ele>398.12</ele>
        <time>2016-04-24T13:48:58Z</time>
      </trkpt>
      <trkpt lat="44.12184" lon="3.2118">
        <ele>398.6</ele>
        <time>2016-04-24T13:48:59Z</time>
      </trkpt>
      <trkpt lat="44.1217" lon="3.21201">
        <ele>399.08</ele>
        <time>2016-04-24T13:49:00Z</time>
      </trkpt>
      <trkpt lat="44.12152" lon="3.21218">
        <ele>399.08</ele>
        <time>2016-04-24T13:49:01Z</time>
      </trkpt>
      <trkpt lat="44.12131" lon="3.21229">
        <ele>399.08</ele>
        <time>2016-04-24T13:49:02Z</time>
      </trkpt>
      <trkpt lat="44.12108" lon="3.21236">
        <ele>399.57</ele>
        <time>2016-04-24T13:49:03Z</time>
      </trkpt>
      <trkpt lat="44.12089" lon="3.21246">
        <ele>400.05</ele>
        <time>2016-04-24T13:49:04Z</time>
      </trkpt>
      <trkpt lat="44.11992" lon="3.2132">
        <ele>401.97</ele>
        <time>2016-04-24T13:49:10Z</time>
      </trkpt>
      <trkpt lat="44.11982" lon="3.21338">
        <ele>401.97</ele>
        <time>2016-04-24T13:49:11Z</time>
      </trkpt>
      <trkpt lat="44.11974" lon="3.21357">
        <ele>401.97</ele>
        <time>2016-04-24T13:49:12Z</time>
      </trkpt>
      <trkpt lat="44.11968" lon="3.21379">
        <ele>401.97</ele>
        <time>2016-04-24T13:49:13Z</time>
      </trkpt>
      <trkpt lat="44.11967" lon="3.21403">
        <ele>400.53</ele>
        <time>2016-04-24T13:49:14Z</time>
      </trkpt>
      <trkpt lat="44.11976" lon="3.21433">
        <ele>398.6</ele>
        <time>2016-04-24T13:49:15Z</time>
      </trkpt>
      <trkpt lat="44.11984" lon="3.21459">
        <ele>398.12</ele>
        <time>2016-04-24T13:49:16Z</time>
      </trkpt>
      <trkpt lat="44.11993" lon="3.21485">
        <ele>397.64</ele>
        <time>2016-04-24T13:49:17Z</time>
      </trkpt>
      <trkpt lat="44.12006" lon="3.21508">
        <ele>397.64</ele>
        <time>2016-04-24T13:49:18Z</time>
      </trkpt>
      <trkpt lat="44.12023" lon="3.2153">
        <ele>398.12</ele>
        <time>2016-04-24T13:49:19Z</time>
      </trkpt>
      <trkpt lat="44.12039" lon="3.21553">
        <ele>398.6</ele>
        <time>2016-04-24T13:49:20Z</time>
      </trkpt>
      <trkpt lat="44.12164" lon="3.21713">
        <ele>400.05</ele>
        <time>2016-04-24T13:49:27Z</time>
      </trkpt>
      <trkpt lat="44.12245" lon="3.21847">
        <ele>401.01</ele>
        <time>2016-04-24T13:49:33Z</time>
      </trkpt>
      <trkpt lat="44.12293" lon="3.21957">
        <ele>402.45</ele>
        <time>2016-04-24T13:49:39Z</time>
      </trkpt>
      <trkpt lat="44.12299" lon="3.21975">
        <ele>402.93</ele>
        <time>2016-04-24T13:49:40Z</time>
      </trkpt>
      <trkpt lat="44.12302" lon="3.21993">
        <ele>403.41</ele>
        <time>2016-04-24T13:49:41Z</time>
      </trkpt>
      <trkpt lat="44.12328" lon="3.22148">
        <ele>404.85</ele>
        <time>2016-04-24T13:49:51Z</time>
      </trkpt>
      <trkpt lat="44.12362" lon="3.22243">
        <ele>405.33</ele>
        <time>2016-04-24T13:50:00Z</time>
      </trkpt>
      <trkpt lat="44.12368" lon="3.22251">
        <ele>405.33</ele>
        <time>2016-04-24T13:50:01Z</time>
      </trkpt>
      <trkpt lat="44.12375" lon="3.22259">
        <ele>405.33</ele>
        <time>2016-04-24T13:50:02Z</time>
      </trkpt>
      <trkpt lat="44.12384" lon="3.22264">
        <ele>405.81</ele>
        <time>2016-04-24T13:50:03Z</time>
      </trkpt>
      <trkpt lat="44.12394" lon="3.22267">
        <ele>406.29</ele>
        <time>2016-04-24T13:50:04Z</time>
      </trkpt>
      <trkpt lat="44.12403" lon="3.22268">
        <ele>406.77</ele>
        <time>2016-04-24T13:50:05Z</time>
      </trkpt>
      <trkpt lat="44.12412" lon="3.22269">
        <ele>406.77</ele>
        <time>2016-04-24T13:50:06Z</time>
      </trkpt>
      <trkpt lat="44.12421" lon="3.2227">
        <ele>407.26</ele>
        <time>2016-04-24T13:50:07Z</time>
      </trkpt>
      <trkpt lat="44.1243" lon="3.22273">
        <ele>407.74</ele>
        <time>2016-04-24T13:50:08Z</time>
      </trkpt>
      <trkpt lat="44.12445" lon="3.22285">
        <ele>408.22</ele>
        <time>2016-04-24T13:50:10Z</time>
      </trkpt>
      <trkpt lat="44.12451" lon="3.22294">
        <ele>408.22</ele>
        <time>2016-04-24T13:50:11Z</time>
      </trkpt>
      <trkpt lat="44.12455" lon="3.22307">
        <ele>408.7</ele>
        <time>2016-04-24T13:50:12Z</time>
      </trkpt>
      <trkpt lat="44.12499" lon="3.22385">
        <ele>409.66</ele>
        <time>2016-04-24T13:50:18Z</time>
      </trkpt>
      <trkpt lat="44.12505" lon="3.22401">
        <ele>409.66</ele>
        <time>2016-04-24T13:50:19Z</time>
      </trkpt>
      <trkpt lat="44.1251" lon="3.22417">
        <ele>410.14</ele>
        <time>2016-04-24T13:50:20Z</time>
      </trkpt>
      <trkpt lat="44.12514" lon="3.22435">
        <ele>410.62</ele>
        <time>2016-04-24T13:50:21Z</time>
      </trkpt>
      <trkpt lat="44.12516" lon="3.22454">
        <ele>410.62</ele>
        <time>2016-04-24T13:50:22Z</time>
      </trkpt>
      <trkpt lat="44.12516" lon="3.22474">
        <ele>410.14</ele>
        <time>2016-04-24T13:50:23Z</time>
      </trkpt>
      <trkpt lat="44.1252" lon="3.22566">
        <ele>410.62</ele>
        <time>2016-04-24T13:50:29Z</time>
      </trkpt>
      <trkpt lat="44.12522" lon="3.22674">
        <ele>413.02</ele>
        <time>2016-04-24T13:50:35Z</time>
      </trkpt>
      <trkpt lat="44.1252" lon="3.22694">
        <ele>413.5</ele>
        <time>2016-04-24T13:50:36Z</time>
      </trkpt>
      <trkpt lat="44.12515" lon="3.22715">
        <ele>413.5</ele>
        <time>2016-04-24T13:50:37Z</time>
      </trkpt>
      <trkpt lat="44.1251" lon="3.22736">
        <ele>413.5</ele>
        <time>2016-04-24T13:50:38Z</time>
      </trkpt>
      <trkpt lat="44.12503" lon="3.22759">
        <ele>413.5</ele>
        <time>2016-04-24T13:50:39Z</time>
      </trkpt>
      <trkpt lat="44.12467" lon="3.22845">
        <ele>414.47</ele>
        <time>2016-04-24T13:50:43Z</time>
      </trkpt>
      <trkpt lat="44.12453" lon="3.22864">
        <ele>415.43</ele>
        <time>2016-04-24T13:50:44Z</time>
      </trkpt>
      <trkpt lat="44.12438" lon="3.22882">
        <ele>415.91</ele>
        <time>2016-04-24T13:50:45Z</time>
      </trkpt>
      <trkpt lat="44.12311" lon="3.22987">
        <ele>420.23</ele>
        <time>2016-04-24T13:50:52Z</time>
      </trkpt>
      <trkpt lat="44.12139" lon="3.23083">
        <ele>421.68</ele>
        <time>2016-04-24T13:51:00Z</time>
      </trkpt>
      <trkpt lat="44.12085" lon="3.23129">
        <ele>418.31</ele>
        <time>2016-04-24T13:51:03Z</time>
      </trkpt>
      <trkpt lat="44.11996" lon="3.23239">
        <ele>412.54</ele>
        <time>2016-04-24T13:51:09Z</time>
      </trkpt>
      <trkpt lat="44.11985" lon="3.23265">
        <ele>412.06</ele>
        <time>2016-04-24T13:51:10Z</time>
      </trkpt>
      <trkpt lat="44.11977" lon="3.23292">
        <ele>411.58</ele>
        <time>2016-04-24T13:51:11Z</time>
      </trkpt>
      <trkpt lat="44.11971" lon="3.23323">
        <ele>411.58</ele>
        <time>2016-04-24T13:51:12Z</time>
      </trkpt>
      <trkpt lat="44.11967" lon="3.23355">
        <ele>411.58</ele>
        <time>2016-04-24T13:51:13Z</time>
      </trkpt>
      <trkpt lat="44.11964" lon="3.23388">
        <ele>411.1</ele>
        <time>2016-04-24T13:51:14Z</time>
      </trkpt>
      <trkpt lat="44.11961" lon="3.23421">
        <ele>410.62</ele>
        <time>2016-04-24T13:51:15Z</time>
      </trkpt>
      <trkpt lat="44.11907" lon="3.23657">
        <ele>410.14</ele>
        <time>2016-04-24T13:51:23Z</time>
      </trkpt>
      <trkpt lat="44.11839" lon="3.23799">
        <ele>410.62</ele>
        <time>2016-04-24T13:51:29Z</time>
      </trkpt>
      <trkpt lat="44.11788" lon="3.2389">
        <ele>411.1</ele>
        <time>2016-04-24T13:51:34Z</time>
      </trkpt>
      <trkpt lat="44.11783" lon="3.2391">
        <ele>410.62</ele>
        <time>2016-04-24T13:51:35Z</time>
      </trkpt>
      <trkpt lat="44.11783" lon="3.23934">
        <ele>408.7</ele>
        <time>2016-04-24T13:51:36Z</time>
      </trkpt>
      <trkpt lat="44.11792" lon="3.2396">
        <ele>407.74</ele>
        <time>2016-04-24T13:51:37Z</time>
      </trkpt>
      <trkpt lat="44.11801" lon="3.23984">
        <ele>407.74</ele>
        <time>2016-04-24T13:51:38Z</time>
      </trkpt>
      <trkpt lat="44.11814" lon="3.24006">
        <ele>408.7</ele>
        <time>2016-04-24T13:51:39Z</time>
      </trkpt>
      <trkpt lat="44.11827" lon="3.24026">
        <ele>409.66</ele>
        <time>2016-04-24T13:51:40Z</time>
      </trkpt>
      <trkpt lat="44.11841" lon="3.24046">
        <ele>410.14</ele>
        <time>2016-04-24T13:51:41Z</time>
      </trkpt>
      <trkpt lat="44.11856" lon="3.24065">
        <ele>411.1</ele>
        <time>2016-04-24T13:51:42Z</time>
      </trkpt>
      <trkpt lat="44.11872" lon="3.24083">
        <ele>412.06</ele>
        <time>2016-04-24T13:51:43Z</time>
      </trkpt>
      <trkpt lat="44.11972" lon="3.24237">
        <ele>413.98</ele>
        <time>2016-04-24T13:51:50Z</time>
      </trkpt>
      <trkpt lat="44.11981" lon="3.24265">
        <ele>413.98</ele>
        <time>2016-04-24T13:51:51Z</time>
      </trkpt>
      <trkpt lat="44.11988" lon="3.24293">
        <ele>413.98</ele>
        <time>2016-04-24T13:51:52Z</time>
      </trkpt>
      <trkpt lat="44.11994" lon="3.24322">
        <ele>413.98</ele>
        <time>2016-04-24T13:51:53Z</time>
      </trkpt>
      <trkpt lat="44.11998" lon="3.24351">
        <ele>414.47</ele>
        <time>2016-04-24T13:51:54Z</time>
      </trkpt>
      <trkpt lat="44.12003" lon="3.2441">
        <ele>415.43</ele>
        <time>2016-04-24T13:51:56Z</time>
      </trkpt>
      <trkpt lat="44.12002" lon="3.24439">
        <ele>415.43</ele>
        <time>2016-04-24T13:51:57Z</time>
      </trkpt>
      <trkpt lat="44.11999" lon="3.24467">
        <ele>415.91</ele>
        <time>2016-04-24T13:51:58Z</time>
      </trkpt>
      <trkpt lat="44.11993" lon="3.24492">
        <ele>415.91</ele>
        <time>2016-04-24T13:51:59Z</time>
      </trkpt>
      <trkpt lat="44.11985" lon="3.24514">
        <ele>416.39</ele>
        <time>2016-04-24T13:52:00Z</time>
      </trkpt>
      <trkpt lat="44.11977" lon="3.24535">
        <ele>416.87</ele>
        <time>2016-04-24T13:52:01Z</time>
      </trkpt>
      <trkpt lat="44.11969" lon="3.24554">
        <ele>417.35</ele>
        <time>2016-04-24T13:52:02Z</time>
      </trkpt>
      <trkpt lat="44.11959" lon="3.24572">
        <ele>417.83</ele>
        <time>2016-04-24T13:52:03Z</time>
      </trkpt>
      <trkpt lat="44.11949" lon="3.24587">
        <ele>418.31</ele>
        <time>2016-04-24T13:52:04Z</time>
      </trkpt>
      <trkpt lat="44.11936" lon="3.24598">
        <ele>419.27</ele>
        <time>2016-04-24T13:52:05Z</time>
      </trkpt>
      <trkpt lat="44.11921" lon="3.24606">
        <ele>420.23</ele>
        <time>2016-04-24T13:52:06Z</time>
      </trkpt>
      <trkpt lat="44.11903" lon="3.24611">
        <ele>421.68</ele>
        <time>2016-04-24T13:52:07Z</time>
      </trkpt>
      <trkpt lat="44.11884" lon="3.24615">
        <ele>422.64</ele>
        <time>2016-04-24T13:52:08Z</time>
      </trkpt>
      <trkpt lat="44.11865" lon="3.24618">
        <ele>423.12</ele>
        <time>2016-04-24T13:52:09Z</time>
      </trkpt>
      <trkpt lat="44.11846" lon="3.24621">
        <ele>423.6</ele>
        <time>2016-04-24T13:52:10Z</time>
      </trkpt>
      <trkpt lat="44.11826" lon="3.24622">
        <ele>424.08</ele>
        <time>2016-04-24T13:52:11Z</time>
      </trkpt>
      <trkpt lat="44.11731" lon="3.24651">
        <ele>425.04</ele>
        <time>2016-04-24T13:52:16Z</time>
      </trkpt>
      <trkpt lat="44.11713" lon="3.24665">
        <ele>425.52</ele>
        <time>2016-04-24T13:52:17Z</time>
      </trkpt>
      <trkpt lat="44.1159" lon="3.24798">
        <ele>423.6</ele>
        <time>2016-04-24T13:52:24Z</time>
      </trkpt>
      <trkpt lat="44.11478" lon="3.24947">
        <ele>424.56</ele>
        <time>2016-04-24T13:52:32Z</time>
      </trkpt>
      <trkpt lat="44.11449" lon="3.24969">
        <ele>426.48</ele>
        <time>2016-04-24T13:52:34Z</time>
      </trkpt>
      <trkpt lat="44.11429" lon="3.24974">
        <ele>426</ele>
        <time>2016-04-24T13:52:35Z</time>
      </trkpt>
      <trkpt lat="44.11407" lon="3.24974">
        <ele>425.52</ele>
        <time>2016-04-24T13:52:36Z</time>
      </trkpt>
      <trkpt lat="44.11383" lon="3.24971">
        <ele>424.56</ele>
        <time>2016-04-24T13:52:37Z</time>
      </trkpt>
      <trkpt lat="44.11358" lon="3.24969">
        <ele>423.6</ele>
        <time>2016-04-24T13:52:38Z</time>
      </trkpt>
      <trkpt lat="44.11217" lon="3.24978">
        <ele>422.64</ele>
        <time>2016-04-24T13:52:45Z</time>
      </trkpt>
      <trkpt lat="44.11202" lon="3.24985">
        <ele>422.16</ele>
        <time>2016-04-24T13:52:46Z</time>
      </trkpt>
      <trkpt lat="44.11189" lon="3.24997">
        <ele>419.75</ele>
        <time>2016-04-24T13:52:47Z</time>
      </trkpt>
      <trkpt lat="44.11179" lon="3.25011">
        <ele>417.83</ele>
        <time>2016-04-24T13:52:48Z</time>
      </trkpt>
      <trkpt lat="44.11172" lon="3.25026">
        <ele>417.35</ele>
        <time>2016-04-24T13:52:49Z</time>
      </trkpt>
      <trkpt lat="44.1117" lon="3.25044">
        <ele>416.87</ele>
        <time>2016-04-24T13:52:50Z</time>
      </trkpt>
      <trkpt lat="44.1117" lon="3.25062">
        <ele>417.35</ele>
        <time>2016-04-24T13:52:51Z</time>
      </trkpt>
      <trkpt lat="44.11166" lon="3.25078">
        <ele>416.87</ele>
        <time>2016-04-24T13:52:52Z</time>
      </trkpt>
      <trkpt lat="44.1116" lon="3.25092">
        <ele>416.87</ele>
        <time>2016-04-24T13:52:53Z</time>
      </trkpt>
      <trkpt lat="44.11153" lon="3.25104">
        <ele>416.87</ele>
        <time>2016-04-24T13:52:54Z</time>
      </trkpt>
      <trkpt lat="44.11146" lon="3.25115">
        <ele>416.39</ele>
        <time>2016-04-24T13:52:55Z</time>
      </trkpt>
      <trkpt lat="44.11139" lon="3.25125">
        <ele>416.39</ele>
        <time>2016-04-24T13:52:56Z</time>
      </trkpt>
      <trkpt lat="44.11135" lon="3.25137">
        <ele>416.39</ele>
        <time>2016-04-24T13:52:57Z</time>
      </trkpt>
      <trkpt lat="44.11135" lon="3.25151">
        <ele>415.91</ele>
        <time>2016-04-24T13:52:58Z</time>
      </trkpt>
      <trkpt lat="44.11141" lon="3.25162">
        <ele>415.43</ele>
        <time>2016-04-24T13:52:59Z</time>
      </trkpt>
      <trkpt lat="44.11151" lon="3.2518">
        <ele>414.95</ele>
        <time>2016-04-24T13:53:00Z</time>
      </trkpt>
      <trkpt lat="44.11162" lon="3.25196">
        <ele>414.95</ele>
        <time>2016-04-24T13:53:01Z</time>
      </trkpt>
      <trkpt lat="44.11174" lon="3.25212">
        <ele>414.95</ele>
        <time>2016-04-24T13:53:02Z</time>
      </trkpt>
      <trkpt lat="44.11187" lon="3.25228">
        <ele>415.43</ele>
        <time>2016-04-24T13:53:03Z</time>
      </trkpt>
      <trkpt lat="44.11197" lon="3.25245">
        <ele>415.91</ele>
        <time>2016-04-24T13:53:04Z</time>
      </trkpt>
      <trkpt lat="44.11204" lon="3.25263">
        <ele>415.43</ele>
        <time>2016-04-24T13:53:05Z</time>
      </trkpt>
      <trkpt lat="44.11208" lon="3.25283">
        <ele>415.91</ele>
        <time>2016-04-24T13:53:06Z</time>
      </trkpt>
      <trkpt lat="44.11208" lon="3.25305">
        <ele>415.91</ele>
        <time>2016-04-24T13:53:07Z</time>
      </trkpt>
      <trkpt lat="44.11204" lon="3.2533">
        <ele>415.91</ele>
        <time>2016-04-24T13:53:08Z</time>
      </trkpt>
      <trkpt lat="44.11198" lon="3.25356">
        <ele>415.43</ele>
        <time>2016-04-24T13:53:09Z</time>
      </trkpt>
      <trkpt lat="44.11191" lon="3.2538">
        <ele>415.91</ele>
        <time>2016-04-24T13:53:10Z</time>
      </trkpt>
      <trkpt lat="44.11183" lon="3.25403">
        <ele>416.39</ele>
        <time>2016-04-24T13:53:11Z</time>
      </trkpt>
      <trkpt lat="44.11173" lon="3.25425">
        <ele>416.39</ele>
        <time>2016-04-24T13:53:12Z</time>
      </trkpt>
      <trkpt lat="44.11161" lon="3.25444">
        <ele>417.35</ele>
        <time>2016-04-24T13:53:13Z</time>
      </trkpt>
      <trkpt lat="44.11149" lon="3.25463">
        <ele>417.35</ele>
        <time>2016-04-24T13:53:14Z</time>
      </trkpt>
      <trkpt lat="44.11109" lon="3.25542">
        <ele>417.83</ele>
        <time>2016-04-24T13:53:18Z</time>
      </trkpt>
      <trkpt lat="44.11105" lon="3.25566">
        <ele>418.31</ele>
        <time>2016-04-24T13:53:19Z</time>
      </trkpt>
      <trkpt lat="44.11105" lon="3.25592">
        <ele>418.79</ele>
        <time>2016-04-24T13:53:20Z</time>
      </trkpt>
      <trkpt lat="44.1109" lon="3.25692">
        <ele>421.19</ele>
        <time>2016-04-24T13:53:24Z</time>
      </trkpt>
      <trkpt lat="44.11082" lon="3.25716">
        <ele>421.68</ele>
        <time>2016-04-24T13:53:25Z</time>
      </trkpt>
      <trkpt lat="44.11072" lon="3.25738">
        <ele>422.16</ele>
        <time>2016-04-24T13:53:26Z</time>
      </trkpt>
      <trkpt lat="44.11058" lon="3.25756">
        <ele>422.64</ele>
        <time>2016-04-24T13:53:27Z</time>
      </trkpt>
      <trkpt lat="44.11042" lon="3.2577">
        <ele>423.12</ele>
        <time>2016-04-24T13:53:28Z</time>
      </trkpt>
      <trkpt lat="44.11023" lon="3.25779">
        <ele>423.6</ele>
        <time>2016-04-24T13:53:29Z</time>
      </trkpt>
      <trkpt lat="44.11002" lon="3.25788">
        <ele>424.08</ele>
        <time>2016-04-24T13:53:30Z</time>
      </trkpt>
      <trkpt lat="44.10979" lon="3.25796">
        <ele>424.08</ele>
        <time>2016-04-24T13:53:31Z</time>
      </trkpt>
      <trkpt lat="44.10957" lon="3.25803">
        <ele>424.56</ele>
        <time>2016-04-24T13:53:32Z</time>
      </trkpt>
      <trkpt lat="44.10795" lon="3.2588">
        <ele>426</ele>
        <time>2016-04-24T13:53:40Z</time>
      </trkpt>
      <trkpt lat="44.10779" lon="3.25896">
        <ele>426</ele>
        <time>2016-04-24T13:53:41Z</time>
      </trkpt>
      <trkpt lat="44.10764" lon="3.25914">
        <ele>426.48</ele>
        <time>2016-04-24T13:53:42Z</time>
      </trkpt>
      <trkpt lat="44.1075" lon="3.25935">
        <ele>426.48</ele>
        <time>2016-04-24T13:53:43Z</time>
      </trkpt>
      <trkpt lat="44.10738" lon="3.25957">
        <ele>426.48</ele>
        <time>2016-04-24T13:53:44Z</time>
      </trkpt>
      <trkpt lat="44.10726" lon="3.25981">
        <ele>426.48</ele>
        <time>2016-04-24T13:53:45Z</time>
      </trkpt>
      <trkpt lat="44.10715" lon="3.26005">
        <ele>426.48</ele>
        <time>2016-04-24T13:53:46Z</time>
      </trkpt>
      <trkpt lat="44.10639" lon="3.26156">
        <ele>427.44</ele>
        <time>2016-04-24T13:53:52Z</time>
      </trkpt>
      <trkpt lat="44.10591" lon="3.26251">
        <ele>428.4</ele>
        <time>2016-04-24T13:53:56Z</time>
      </trkpt>
      <trkpt lat="44.10578" lon="3.26271">
        <ele>428.4</ele>
        <time>2016-04-24T13:53:57Z</time>
      </trkpt>
      <trkpt lat="44.10542" lon="3.26319">
        <ele>428.4</ele>
        <time>2016-04-24T13:54:00Z</time>
      </trkpt>
      <trkpt lat="44.10532" lon="3.26326">
        <ele>427.92</ele>
        <time>2016-04-24T13:54:01Z</time>
      </trkpt>
      <trkpt lat="44.10521" lon="3.26328">
        <ele>427.92</ele>
        <time>2016-04-24T13:54:02Z</time>
      </trkpt>
      <trkpt lat="44.10507" lon="3.26326">
        <ele>428.89</ele>
        <time>2016-04-24T13:54:03Z</time>
      </trkpt>
      <trkpt lat="44.10499" lon="3.26315">
        <ele>428.4</ele>
        <time>2016-04-24T13:54:04Z</time>
      </trkpt>
      <trkpt lat="44.10486" lon="3.26305">
        <ele>429.37</ele>
        <time>2016-04-24T13:54:05Z</time>
      </trkpt>
      <trkpt lat="44.10474" lon="3.26291">
        <ele>429.85</ele>
        <time>2016-04-24T13:54:06Z</time>
      </trkpt>
      <trkpt lat="44.10462" lon="3.26273">
        <ele>430.33</ele>
        <time>2016-04-24T13:54:07Z</time>
      </trkpt>
      <trkpt lat="44.10449" lon="3.26255">
        <ele>430.81</ele>
        <time>2016-04-24T13:54:08Z</time>
      </trkpt>
      <trkpt lat="44.10436" lon="3.26239">
        <ele>430.81</ele>
        <time>2016-04-24T13:54:09Z</time>
      </trkpt>
      <trkpt lat="44.10422" lon="3.26224">
        <ele>430.81</ele>
        <time>2016-04-24T13:54:10Z</time>
      </trkpt>
      <trkpt lat="44.10405" lon="3.2621">
        <ele>431.29</ele>
        <time>2016-04-24T13:54:11Z</time>
      </trkpt>
      <trkpt lat="44.10387" lon="3.26199">
        <ele>431.77</ele>
        <time>2016-04-24T13:54:12Z</time>
      </trkpt>
      <trkpt lat="44.10367" lon="3.26189">
        <ele>431.29</ele>
        <time>2016-04-24T13:54:13Z</time>
      </trkpt>
      <trkpt lat="44.10346" lon="3.26183">
        <ele>431.77</ele>
        <time>2016-04-24T13:54:14Z</time>
      </trkpt>
      <trkpt lat="44.10324" lon="3.26177">
        <ele>431.77</ele>
        <time>2016-04-24T13:54:15Z</time>
      </trkpt>
      <trkpt lat="44.10185" lon="3.26175">
        <ele>433.69</ele>
        <time>2016-04-24T13:54:21Z</time>
      </trkpt>
      <trkpt lat="44.10143" lon="3.2619">
        <ele>435.13</ele>
        <time>2016-04-24T13:54:23Z</time>
      </trkpt>
      <trkpt lat="44.10123" lon="3.26202">
        <ele>434.65</ele>
        <time>2016-04-24T13:54:24Z</time>
      </trkpt>
      <trkpt lat="44.10105" lon="3.26215">
        <ele>434.17</ele>
        <time>2016-04-24T13:54:25Z</time>
      </trkpt>
      <trkpt lat="44.10088" lon="3.2623">
        <ele>434.17</ele>
        <time>2016-04-24T13:54:26Z</time>
      </trkpt>
      <trkpt lat="44.10073" lon="3.26247">
        <ele>433.69</ele>
        <time>2016-04-24T13:54:27Z</time>
      </trkpt>
      <trkpt lat="44.10059" lon="3.26271">
        <ele>433.21</ele>
        <time>2016-04-24T13:54:28Z</time>
      </trkpt>
      <trkpt lat="44.10048" lon="3.26295">
        <ele>433.21</ele>
        <time>2016-04-24T13:54:29Z</time>
      </trkpt>
      <trkpt lat="44.10037" lon="3.2632">
        <ele>433.21</ele>
        <time>2016-04-24T13:54:30Z</time>
      </trkpt>
      <trkpt lat="44.10027" lon="3.26345">
        <ele>433.21</ele>
        <time>2016-04-24T13:54:31Z</time>
      </trkpt>
      <trkpt lat="44.09984" lon="3.26517">
        <ele>432.73</ele>
        <time>2016-04-24T13:54:37Z</time>
      </trkpt>
      <trkpt lat="44.09949" lon="3.2666">
        <ele>432.73</ele>
        <time>2016-04-24T13:54:42Z</time>
      </trkpt>
      <trkpt lat="44.09938" lon="3.26684">
        <ele>433.21</ele>
        <time>2016-04-24T13:54:43Z</time>
      </trkpt>
      <trkpt lat="44.09835" lon="3.26865">
        <ele>432.73</ele>
        <time>2016-04-24T13:54:51Z</time>
      </trkpt>
      <trkpt lat="44.09817" lon="3.26881">
        <ele>432.25</ele>
        <time>2016-04-24T13:54:52Z</time>
      </trkpt>
      <trkpt lat="44.09798" lon="3.26896">
        <ele>432.25</ele>
        <time>2016-04-24T13:54:53Z</time>
      </trkpt>
      <trkpt lat="44.09778" lon="3.26907">
        <ele>432.25</ele>
        <time>2016-04-24T13:54:54Z</time>
      </trkpt>
      <trkpt lat="44.09759" lon="3.26918">
        <ele>432.25</ele>
        <time>2016-04-24T13:54:55Z</time>
      </trkpt>
      <trkpt lat="44.0969" lon="3.2694">
        <ele>429.85</ele>
        <time>2016-04-24T13:54:59Z</time>
      </trkpt>
      <trkpt lat="44.09673" lon="3.26934">
        <ele>429.85</ele>
        <time>2016-04-24T13:55:00Z</time>
      </trkpt>
      <trkpt lat="44.09655" lon="3.26923">
        <ele>430.33</ele>
        <time>2016-04-24T13:55:01Z</time>
      </trkpt>
      <trkpt lat="44.09603" lon="3.26891">
        <ele>431.77</ele>
        <time>2016-04-24T13:55:04Z</time>
      </trkpt>
      <trkpt lat="44.09586" lon="3.26875">
        <ele>432.25</ele>
        <time>2016-04-24T13:55:05Z</time>
      </trkpt>
      <trkpt lat="44.09571" lon="3.26856">
        <ele>432.25</ele>
        <time>2016-04-24T13:55:06Z</time>
      </trkpt>
      <trkpt lat="44.09558" lon="3.26834">
        <ele>432.25</ele>
        <time>2016-04-24T13:55:07Z</time>
      </trkpt>
      <trkpt lat="44.09547" lon="3.26809">
        <ele>432.25</ele>
        <time>2016-04-24T13:55:08Z</time>
      </trkpt>
      <trkpt lat="44.09539" lon="3.26781">
        <ele>431.77</ele>
        <time>2016-04-24T13:55:09Z</time>
      </trkpt>
      <trkpt lat="44.09535" lon="3.26752">
        <ele>431.77</ele>
        <time>2016-04-24T13:55:10Z</time>
      </trkpt>
      <trkpt lat="44.09534" lon="3.26721">
        <ele>431.29</ele>
        <time>2016-04-24T13:55:11Z</time>
      </trkpt>
      <trkpt lat="44.09532" lon="3.2669">
        <ele>431.29</ele>
        <time>2016-04-24T13:55:12Z</time>
      </trkpt>
      <trkpt lat="44.09498" lon="3.2647">
        <ele>430.81</ele>
        <time>2016-04-24T13:55:19Z</time>
      </trkpt>
      <trkpt lat="44.09444" lon="3.26216">
        <ele>433.21</ele>
        <time>2016-04-24T13:55:28Z</time>
      </trkpt>
      <trkpt lat="44.09433" lon="3.26198">
        <ele>433.21</ele>
        <time>2016-04-24T13:55:29Z</time>
      </trkpt>
      <trkpt lat="44.09419" lon="3.26178">
        <ele>433.21</ele>
        <time>2016-04-24T13:55:30Z</time>
      </trkpt>
      <trkpt lat="44.09405" lon="3.26161">
        <ele>432.73</ele>
        <time>2016-04-24T13:55:31Z</time>
      </trkpt>
      <trkpt lat="44.09388" lon="3.26148">
        <ele>432.73</ele>
        <time>2016-04-24T13:55:32Z</time>
      </trkpt>
      <trkpt lat="44.09369" lon="3.26138">
        <ele>432.73</ele>
        <time>2016-04-24T13:55:33Z</time>
      </trkpt>
      <trkpt lat="44.0935" lon="3.26132">
        <ele>432.73</ele>
        <time>2016-04-24T13:55:34Z</time>
      </trkpt>
      <trkpt lat="44.09333" lon="3.26131">
        <ele>432.73</ele>
        <time>2016-04-24T13:55:35Z</time>
      </trkpt>
      <trkpt lat="44.09317" lon="3.26136">
        <ele>432.73</ele>
        <time>2016-04-24T13:55:36Z</time>
      </trkpt>
      <trkpt lat="44.09298" lon="3.26153">
        <ele>435.13</ele>
        <time>2016-04-24T13:55:37Z</time>
      </trkpt>
      <trkpt lat="44.09283" lon="3.26164">
        <ele>435.13</ele>
        <time>2016-04-24T13:55:38Z</time>
      </trkpt>
      <trkpt lat="44.09267" lon="3.26181">
        <ele>435.13</ele>
        <time>2016-04-24T13:55:39Z</time>
      </trkpt>
      <trkpt lat="44.09253" lon="3.26198">
        <ele>435.13</ele>
        <time>2016-04-24T13:55:40Z</time>
      </trkpt>
      <trkpt lat="44.09181" lon="3.26279">
        <ele>436.1</ele>
        <time>2016-04-24T13:55:45Z</time>
      </trkpt>
      <trkpt lat="44.09169" lon="3.26298">
        <ele>436.1</ele>
        <time>2016-04-24T13:55:46Z</time>
      </trkpt>
      <trkpt lat="44.09157" lon="3.26316">
        <ele>436.1</ele>
        <time>2016-04-24T13:55:47Z</time>
      </trkpt>
      <trkpt lat="44.09129" lon="3.26347">
        <ele>436.1</ele>
        <time>2016-04-24T13:55:49Z</time>
      </trkpt>
      <trkpt lat="44.091" lon="3.26381">
        <ele>436.58</ele>
        <time>2016-04-24T13:55:51Z</time>
      </trkpt>
      <trkpt lat="44.08975" lon="3.26518">
        <ele>436.1</ele>
        <time>2016-04-24T13:55:59Z</time>
      </trkpt>
      <trkpt lat="44.08832" lon="3.26693">
        <ele>435.61</ele>
        <time>2016-04-24T13:56:09Z</time>
      </trkpt>
      <trkpt lat="44.08754" lon="3.26871">
        <ele>436.1</ele>
        <time>2016-04-24T13:56:16Z</time>
      </trkpt>
      <trkpt lat="44.0874" lon="3.26918">
        <ele>436.58</ele>
        <time>2016-04-24T13:56:18Z</time>
      </trkpt>
      <trkpt lat="44.08736" lon="3.26943">
        <ele>436.58</ele>
        <time>2016-04-24T13:56:19Z</time>
      </trkpt>
      <trkpt lat="44.0872" lon="3.27126">
        <ele>438.5</ele>
        <time>2016-04-24T13:56:26Z</time>
      </trkpt>
      <trkpt lat="44.08724" lon="3.27154">
        <ele>438.5</ele>
        <time>2016-04-24T13:56:27Z</time>
      </trkpt>
      <trkpt lat="44.08753" lon="3.27414">
        <ele>439.94</ele>
        <time>2016-04-24T13:56:36Z</time>
      </trkpt>
      <trkpt lat="44.08725" lon="3.27593">
        <ele>443.31</ele>
        <time>2016-04-24T13:56:43Z</time>
      </trkpt>
      <trkpt lat="44.08709" lon="3.27632">
        <ele>444.75</ele>
        <time>2016-04-24T13:56:45Z</time>
      </trkpt>
      <trkpt lat="44.08687" lon="3.27663">
        <ele>444.75</ele>
        <time>2016-04-24T13:56:48Z</time>
      </trkpt>
      <trkpt lat="44.08676" lon="3.27662">
        <ele>444.75</ele>
        <time>2016-04-24T13:56:49Z</time>
      </trkpt>
      <trkpt lat="44.08665" lon="3.27653">
        <ele>444.75</ele>
        <time>2016-04-24T13:56:50Z</time>
      </trkpt>
      <trkpt lat="44.08651" lon="3.27643">
        <ele>446.19</ele>
        <time>2016-04-24T13:56:51Z</time>
      </trkpt>
      <trkpt lat="44.08638" lon="3.27627">
        <ele>448.59</ele>
        <time>2016-04-24T13:56:52Z</time>
      </trkpt>
      <trkpt lat="44.08625" lon="3.27607">
        <ele>451</ele>
        <time>2016-04-24T13:56:53Z</time>
      </trkpt>
      <trkpt lat="44.08613" lon="3.2759">
        <ele>451.48</ele>
        <time>2016-04-24T13:56:54Z</time>
      </trkpt>
      <trkpt lat="44.08506" lon="3.27486">
        <ele>454.36</ele>
        <time>2016-04-24T13:57:01Z</time>
      </trkpt>
      <trkpt lat="44.08471" lon="3.27472">
        <ele>454.36</ele>
        <time>2016-04-24T13:57:03Z</time>
      </trkpt>
      <trkpt lat="44.08453" lon="3.27469">
        <ele>454.36</ele>
        <time>2016-04-24T13:57:04Z</time>
      </trkpt>
      <trkpt lat="44.08434" lon="3.27469">
        <ele>454.84</ele>
        <time>2016-04-24T13:57:05Z</time>
      </trkpt>
      <trkpt lat="44.08414" lon="3.27472">
        <ele>454.36</ele>
        <time>2016-04-24T13:57:06Z</time>
      </trkpt>
      <trkpt lat="44.08394" lon="3.27476">
        <ele>453.88</ele>
        <time>2016-04-24T13:57:07Z</time>
      </trkpt>
      <trkpt lat="44.08374" lon="3.27483">
        <ele>453.88</ele>
        <time>2016-04-24T13:57:08Z</time>
      </trkpt>
      <trkpt lat="44.08355" lon="3.27493">
        <ele>453.88</ele>
        <time>2016-04-24T13:57:09Z</time>
      </trkpt>
      <trkpt lat="44.08335" lon="3.27503">
        <ele>453.4</ele>
        <time>2016-04-24T13:57:10Z</time>
      </trkpt>
      <trkpt lat="44.08317" lon="3.27514">
        <ele>453.4</ele>
        <time>2016-04-24T13:57:11Z</time>
      </trkpt>
      <trkpt lat="44.08299" lon="3.27528">
        <ele>452.92</ele>
        <time>2016-04-24T13:57:12Z</time>
      </trkpt>
      <trkpt lat="44.08282" lon="3.27541">
        <ele>452.92</ele>
        <time>2016-04-24T13:57:13Z</time>
      </trkpt>
      <trkpt lat="44.08237" lon="3.27588">
        <ele>451.96</ele>
        <time>2016-04-24T13:57:16Z</time>
      </trkpt>
      <trkpt lat="44.08224" lon="3.27608">
        <ele>451.48</ele>
        <time>2016-04-24T13:57:17Z</time>
      </trkpt>
      <trkpt lat="44.08213" lon="3.2763">
        <ele>451.96</ele>
        <time>2016-04-24T13:57:18Z</time>
      </trkpt>
      <trkpt lat="44.08206" lon="3.27653">
        <ele>451.96</ele>
        <time>2016-04-24T13:57:19Z</time>
      </trkpt>
      <trkpt lat="44.08197" lon="3.27677">
        <ele>452.44</ele>
        <time>2016-04-24T13:57:20Z</time>
      </trkpt>
      <trkpt lat="44.08132" lon="3.27846">
        <ele>453.4</ele>
        <time>2016-04-24T13:57:27Z</time>
      </trkpt>
      <trkpt lat="44.08117" lon="3.27865">
        <ele>453.4</ele>
        <time>2016-04-24T13:57:28Z</time>
      </trkpt>
      <trkpt lat="44.08098" lon="3.27882">
        <ele>453.88</ele>
        <time>2016-04-24T13:57:29Z</time>
      </trkpt>
      <trkpt lat="44.08079" lon="3.27899">
        <ele>454.36</ele>
        <time>2016-04-24T13:57:30Z</time>
      </trkpt>
      <trkpt lat="44.08061" lon="3.27917">
        <ele>454.84</ele>
        <time>2016-04-24T13:57:31Z</time>
      </trkpt>
      <trkpt lat="44.07917" lon="3.27999">
        <ele>456.28</ele>
        <time>2016-04-24T13:57:38Z</time>
      </trkpt>
      <trkpt lat="44.078" lon="3.28029">
        <ele>457.72</ele>
        <time>2016-04-24T13:57:44Z</time>
      </trkpt>
      <trkpt lat="44.07784" lon="3.2804">
        <ele>457.24</ele>
        <time>2016-04-24T13:57:45Z</time>
      </trkpt>
      <trkpt lat="44.07767" lon="3.28055">
        <ele>457.24</ele>
        <time>2016-04-24T13:57:46Z</time>
      </trkpt>
      <trkpt lat="44.07751" lon="3.28073">
        <ele>457.72</ele>
        <time>2016-04-24T13:57:47Z</time>
      </trkpt>
      <trkpt lat="44.07737" lon="3.28092">
        <ele>457.72</ele>
        <time>2016-04-24T13:57:48Z</time>
      </trkpt>
      <trkpt lat="44.07724" lon="3.28113">
        <ele>457.72</ele>
        <time>2016-04-24T13:57:49Z</time>
      </trkpt>
      <trkpt lat="44.07711" lon="3.28134">
        <ele>457.72</ele>
        <time>2016-04-24T13:57:50Z</time>
      </trkpt>
      <trkpt lat="44.07702" lon="3.28158">
        <ele>457.72</ele>
        <time>2016-04-24T13:57:51Z</time>
      </trkpt>
      <trkpt lat="44.07695" lon="3.28185">
        <ele>457.24</ele>
        <time>2016-04-24T13:57:52Z</time>
      </trkpt>
      <trkpt lat="44.07689" lon="3.28213">
        <ele>457.24</ele>
        <time>2016-04-24T13:57:53Z</time>
      </trkpt>
      <trkpt lat="44.07683" lon="3.28242">
        <ele>457.24</ele>
        <time>2016-04-24T13:57:54Z</time>
      </trkpt>
      <trkpt lat="44.07648" lon="3.28373">
        <ele>457.24</ele>
        <time>2016-04-24T13:57:59Z</time>
      </trkpt>
      <trkpt lat="44.07636" lon="3.28395">
        <ele>457.72</ele>
        <time>2016-04-24T13:58:00Z</time>
      </trkpt>
      <trkpt lat="44.07622" lon="3.28416">
        <ele>457.72</ele>
        <time>2016-04-24T13:58:01Z</time>
      </trkpt>
      <trkpt lat="44.07607" lon="3.28434">
        <ele>457.72</ele>
        <time>2016-04-24T13:58:02Z</time>
      </trkpt>
      <trkpt lat="44.07592" lon="3.28451">
        <ele>458.21</ele>
        <time>2016-04-24T13:58:03Z</time>
      </trkpt>
      <trkpt lat="44.07576" lon="3.28465">
        <ele>458.21</ele>
        <time>2016-04-24T13:58:04Z</time>
      </trkpt>
      <trkpt lat="44.0756" lon="3.28479">
        <ele>458.21</ele>
        <time>2016-04-24T13:58:05Z</time>
      </trkpt>
      <trkpt lat="44.07505" lon="3.28522">
        <ele>459.65</ele>
        <time>2016-04-24T13:58:09Z</time>
      </trkpt>
      <trkpt lat="44.07493" lon="3.28524">
        <ele>459.65</ele>
        <time>2016-04-24T13:58:10Z</time>
      </trkpt>
      <trkpt lat="44.07481" lon="3.28521">
        <ele>460.13</ele>
        <time>2016-04-24T13:58:11Z</time>
      </trkpt>
      <trkpt lat="44.07468" lon="3.28516">
        <ele>460.61</ele>
        <time>2016-04-24T13:58:12Z</time>
      </trkpt>
      <trkpt lat="44.07456" lon="3.28511">
        <ele>460.61</ele>
        <time>2016-04-24T13:58:13Z</time>
      </trkpt>
      <trkpt lat="44.07443" lon="3.28506">
        <ele>461.57</ele>
        <time>2016-04-24T13:58:14Z</time>
      </trkpt>
      <trkpt lat="44.0743" lon="3.28505">
        <ele>461.57</ele>
        <time>2016-04-24T13:58:15Z</time>
      </trkpt>
      <trkpt lat="44.07416" lon="3.2851">
        <ele>462.53</ele>
        <time>2016-04-24T13:58:16Z</time>
      </trkpt>
      <trkpt lat="44.07402" lon="3.28519">
        <ele>462.53</ele>
        <time>2016-04-24T13:58:17Z</time>
      </trkpt>
      <trkpt lat="44.07389" lon="3.28532">
        <ele>463.01</ele>
        <time>2016-04-24T13:58:18Z</time>
      </trkpt>
      <trkpt lat="44.07377" lon="3.28549">
        <ele>463.49</ele>
        <time>2016-04-24T13:58:19Z</time>
      </trkpt>
      <trkpt lat="44.07366" lon="3.28569">
        <ele>463.49</ele>
        <time>2016-04-24T13:58:20Z</time>
      </trkpt>
      <trkpt lat="44.07356" lon="3.2859">
        <ele>463.97</ele>
        <time>2016-04-24T13:58:21Z</time>
      </trkpt>
      <trkpt lat="44.07346" lon="3.28612">
        <ele>464.93</ele>
        <time>2016-04-24T13:58:22Z</time>
      </trkpt>
      <trkpt lat="44.07239" lon="3.28786">
        <ele>468.78</ele>
        <time>2016-04-24T13:58:30Z</time>
      </trkpt>
      <trkpt lat="44.07156" lon="3.28876">
        <ele>471.18</ele>
        <time>2016-04-24T13:58:35Z</time>
      </trkpt>
      <trkpt lat="44.07143" lon="3.28896">
        <ele>471.66</ele>
        <time>2016-04-24T13:58:36Z</time>
      </trkpt>
      <trkpt lat="44.07131" lon="3.28917">
        <ele>472.14</ele>
        <time>2016-04-24T13:58:37Z</time>
      </trkpt>
      <trkpt lat="44.0712" lon="3.28937">
        <ele>472.63</ele>
        <time>2016-04-24T13:58:38Z</time>
      </trkpt>
      <trkpt lat="44.07111" lon="3.28957">
        <ele>473.11</ele>
        <time>2016-04-24T13:58:39Z</time>
      </trkpt>
      <trkpt lat="44.07104" lon="3.28977">
        <ele>473.59</ele>
        <time>2016-04-24T13:58:40Z</time>
      </trkpt>
      <trkpt lat="44.071" lon="3.28998">
        <ele>473.59</ele>
        <time>2016-04-24T13:58:41Z</time>
      </trkpt>
      <trkpt lat="44.07097" lon="3.29021">
        <ele>473.59</ele>
        <time>2016-04-24T13:58:42Z</time>
      </trkpt>
      <trkpt lat="44.07096" lon="3.29045">
        <ele>473.59</ele>
        <time>2016-04-24T13:58:43Z</time>
      </trkpt>
      <trkpt lat="44.07098" lon="3.2907">
        <ele>473.59</ele>
        <time>2016-04-24T13:58:44Z</time>
      </trkpt>
      <trkpt lat="44.07102" lon="3.29096">
        <ele>474.07</ele>
        <time>2016-04-24T13:58:45Z</time>
      </trkpt>
      <trkpt lat="44.07107" lon="3.29122">
        <ele>474.07</ele>
        <time>2016-04-24T13:58:46Z</time>
      </trkpt>
      <trkpt lat="44.07127" lon="3.29244">
        <ele>475.51</ele>
        <time>2016-04-24T13:58:51Z</time>
      </trkpt>
      <trkpt lat="44.07127" lon="3.29266">
        <ele>475.99</ele>
        <time>2016-04-24T13:58:52Z</time>
      </trkpt>
      <trkpt lat="44.07126" lon="3.29285">
        <ele>476.47</ele>
        <time>2016-04-24T13:58:53Z</time>
      </trkpt>
      <trkpt lat="44.07122" lon="3.29303">
        <ele>476.47</ele>
        <time>2016-04-24T13:58:54Z</time>
      </trkpt>
      <trkpt lat="44.07116" lon="3.29317">
        <ele>476.95</ele>
        <time>2016-04-24T13:58:55Z</time>
      </trkpt>
      <trkpt lat="44.07109" lon="3.29329">
        <ele>476.95</ele>
        <time>2016-04-24T13:58:56Z</time>
      </trkpt>
      <trkpt lat="44.07101" lon="3.29334">
        <ele>476.95</ele>
        <time>2016-04-24T13:58:57Z</time>
      </trkpt>
      <trkpt lat="44.07093" lon="3.29335">
        <ele>476.95</ele>
        <time>2016-04-24T13:58:58Z</time>
      </trkpt>
      <trkpt lat="44.07079" lon="3.2933">
        <ele>477.91</ele>
        <time>2016-04-24T13:58:59Z</time>
      </trkpt>
      <trkpt lat="44.07067" lon="3.29321">
        <ele>478.39</ele>
        <time>2016-04-24T13:59:00Z</time>
      </trkpt>
      <trkpt lat="44.07054" lon="3.2931">
        <ele>479.35</ele>
        <time>2016-04-24T13:59:01Z</time>
      </trkpt>
      <trkpt lat="44.07039" lon="3.29297">
        <ele>480.32</ele>
        <time>2016-04-24T13:59:02Z</time>
      </trkpt>
      <trkpt lat="44.07024" lon="3.29285">
        <ele>480.8</ele>
        <time>2016-04-24T13:59:03Z</time>
      </trkpt>
      <trkpt lat="44.07008" lon="3.29276">
        <ele>481.28</ele>
        <time>2016-04-24T13:59:04Z</time>
      </trkpt>
      <trkpt lat="44.06991" lon="3.29268">
        <ele>481.28</ele>
        <time>2016-04-24T13:59:05Z</time>
      </trkpt>
      <trkpt lat="44.06973" lon="3.29261">
        <ele>481.76</ele>
        <time>2016-04-24T13:59:06Z</time>
      </trkpt>
      <trkpt lat="44.06868" lon="3.29236">
        <ele>483.68</ele>
        <time>2016-04-24T13:59:12Z</time>
      </trkpt>
      <trkpt lat="44.06852" lon="3.2924">
        <ele>483.68</ele>
        <time>2016-04-24T13:59:13Z</time>
      </trkpt>
      <trkpt lat="44.06837" lon="3.29249">
        <ele>484.16</ele>
        <time>2016-04-24T13:59:14Z</time>
      </trkpt>
      <trkpt lat="44.06824" lon="3.29258">
        <ele>484.16</ele>
        <time>2016-04-24T13:59:15Z</time>
      </trkpt>
      <trkpt lat="44.06811" lon="3.29265">
        <ele>484.64</ele>
        <time>2016-04-24T13:59:16Z</time>
      </trkpt>
      <trkpt lat="44.06797" lon="3.29265">
        <ele>484.64</ele>
        <time>2016-04-24T13:59:17Z</time>
      </trkpt>
      <trkpt lat="44.06785" lon="3.29263">
        <ele>483.68</ele>
        <time>2016-04-24T13:59:18Z</time>
      </trkpt>
      <trkpt lat="44.06769" lon="3.2926">
        <ele>483.2</ele>
        <time>2016-04-24T13:59:19Z</time>
      </trkpt>
      <trkpt lat="44.06755" lon="3.29264">
        <ele>482.72</ele>
        <time>2016-04-24T13:59:20Z</time>
      </trkpt>
      <trkpt lat="44.06741" lon="3.29277">
        <ele>483.2</ele>
        <time>2016-04-24T13:59:21Z</time>
      </trkpt>
      <trkpt lat="44.06727" lon="3.29293">
        <ele>482.24</ele>
        <time>2016-04-24T13:59:22Z</time>
      </trkpt>
      <trkpt lat="44.06714" lon="3.29312">
        <ele>481.76</ele>
        <time>2016-04-24T13:59:23Z</time>
      </trkpt>
      <trkpt lat="44.06702" lon="3.29334">
        <ele>481.28</ele>
        <time>2016-04-24T13:59:24Z</time>
      </trkpt>
      <trkpt lat="44.06692" lon="3.29357">
        <ele>480.8</ele>
        <time>2016-04-24T13:59:25Z</time>
      </trkpt>
      <trkpt lat="44.06684" lon="3.29382">
        <ele>480.32</ele>
        <time>2016-04-24T13:59:26Z</time>
      </trkpt>
      <trkpt lat="44.06676" lon="3.29409">
        <ele>479.84</ele>
        <time>2016-04-24T13:59:27Z</time>
      </trkpt>
      <trkpt lat="44.06615" lon="3.29678">
        <ele>475.03</ele>
        <time>2016-04-24T13:59:36Z</time>
      </trkpt>
      <trkpt lat="44.0659" lon="3.29766">
        <ele>472.63</ele>
        <time>2016-04-24T13:59:39Z</time>
      </trkpt>
      <trkpt lat="44.06579" lon="3.29792">
        <ele>471.66</ele>
        <time>2016-04-24T13:59:40Z</time>
      </trkpt>
      <trkpt lat="44.06566" lon="3.29816">
        <ele>470.7</ele>
        <time>2016-04-24T13:59:41Z</time>
      </trkpt>
      <trkpt lat="44.06551" lon="3.29839">
        <ele>469.74</ele>
        <time>2016-04-24T13:59:42Z</time>
      </trkpt>
      <trkpt lat="44.06536" lon="3.29863">
        <ele>469.26</ele>
        <time>2016-04-24T13:59:43Z</time>
      </trkpt>
      <trkpt lat="44.06494" lon="3.29928">
        <ele>466.38</ele>
        <time>2016-04-24T13:59:46Z</time>
      </trkpt>
      <trkpt lat="44.06478" lon="3.29944">
        <ele>465.42</ele>
        <time>2016-04-24T13:59:47Z</time>
      </trkpt>
      <trkpt lat="44.06461" lon="3.29959">
        <ele>464.93</ele>
        <time>2016-04-24T13:59:48Z</time>
      </trkpt>
      <trkpt lat="44.06442" lon="3.29968">
        <ele>464.45</ele>
        <time>2016-04-24T13:59:49Z</time>
      </trkpt>
      <trkpt lat="44.06421" lon="3.29979">
        <ele>463.97</ele>
        <time>2016-04-24T13:59:50Z</time>
      </trkpt>
      <trkpt lat="44.06303" lon="3.3003">
        <ele>455.32</ele>
        <time>2016-04-24T13:59:56Z</time>
      </trkpt>
      <trkpt lat="44.06282" lon="3.30031">
        <ele>456.28</ele>
        <time>2016-04-24T13:59:57Z</time>
      </trkpt>
      <trkpt lat="44.06102" lon="3.30052">
        <ele>466.38</ele>
        <time>2016-04-24T14:00:05Z</time>
      </trkpt>
      <trkpt lat="44.06003" lon="3.30048">
        <ele>469.74</ele>
        <time>2016-04-24T14:00:10Z</time>
      </trkpt>
      <trkpt lat="44.05984" lon="3.30039">
        <ele>470.7</ele>
        <time>2016-04-24T14:00:11Z</time>
      </trkpt>
      <trkpt lat="44.05827" lon="3.29976">
        <ele>474.07</ele>
        <time>2016-04-24T14:00:19Z</time>
      </trkpt>
      <trkpt lat="44.05807" lon="3.29975">
        <ele>474.55</ele>
        <time>2016-04-24T14:00:20Z</time>
      </trkpt>
      <trkpt lat="44.05786" lon="3.29977">
        <ele>474.55</ele>
        <time>2016-04-24T14:00:21Z</time>
      </trkpt>
      <trkpt lat="44.05764" lon="3.29982">
        <ele>475.03</ele>
        <time>2016-04-24T14:00:22Z</time>
      </trkpt>
      <trkpt lat="44.05741" lon="3.29989">
        <ele>475.51</ele>
        <time>2016-04-24T14:00:23Z</time>
      </trkpt>
      <trkpt lat="44.05699" lon="3.30005">
        <ele>475.51</ele>
        <time>2016-04-24T14:00:25Z</time>
      </trkpt>
      <trkpt lat="44.05679" lon="3.30018">
        <ele>475.99</ele>
        <time>2016-04-24T14:00:26Z</time>
      </trkpt>
      <trkpt lat="44.05659" lon="3.30033">
        <ele>475.99</ele>
        <time>2016-04-24T14:00:27Z</time>
      </trkpt>
      <trkpt lat="44.0564" lon="3.30051">
        <ele>476.47</ele>
        <time>2016-04-24T14:00:28Z</time>
      </trkpt>
      <trkpt lat="44.05621" lon="3.3007">
        <ele>476.95</ele>
        <time>2016-04-24T14:00:29Z</time>
      </trkpt>
      <trkpt lat="44.05589" lon="3.3011">
        <ele>477.43</ele>
        <time>2016-04-24T14:00:31Z</time>
      </trkpt>
      <trkpt lat="44.05576" lon="3.30132">
        <ele>477.91</ele>
        <time>2016-04-24T14:00:32Z</time>
      </trkpt>
      <trkpt lat="44.05523" lon="3.30212">
        <ele>478.39</ele>
        <time>2016-04-24T14:00:36Z</time>
      </trkpt>
      <trkpt lat="44.05508" lon="3.30225">
        <ele>478.87</ele>
        <time>2016-04-24T14:00:37Z</time>
      </trkpt>
      <trkpt lat="44.05492" lon="3.30233">
        <ele>478.87</ele>
        <time>2016-04-24T14:00:38Z</time>
      </trkpt>
      <trkpt lat="44.05477" lon="3.30237">
        <ele>478.87</ele>
        <time>2016-04-24T14:00:39Z</time>
      </trkpt>
      <trkpt lat="44.05461" lon="3.30235">
        <ele>478.39</ele>
        <time>2016-04-24T14:00:40Z</time>
      </trkpt>
      <trkpt lat="44.05444" lon="3.30228">
        <ele>479.35</ele>
        <time>2016-04-24T14:00:41Z</time>
      </trkpt>
      <trkpt lat="44.05428" lon="3.30216">
        <ele>479.84</ele>
        <time>2016-04-24T14:00:42Z</time>
      </trkpt>
      <trkpt lat="44.05414" lon="3.30203">
        <ele>480.32</ele>
        <time>2016-04-24T14:00:43Z</time>
      </trkpt>
      <trkpt lat="44.054" lon="3.30187">
        <ele>480.8</ele>
        <time>2016-04-24T14:00:44Z</time>
      </trkpt>
      <trkpt lat="44.05386" lon="3.30171">
        <ele>481.28</ele>
        <time>2016-04-24T14:00:45Z</time>
      </trkpt>
      <trkpt lat="44.05358" lon="3.30139">
        <ele>482.24</ele>
        <time>2016-04-24T14:00:47Z</time>
      </trkpt>
      <trkpt lat="44.05342" lon="3.30127">
        <ele>482.24</ele>
        <time>2016-04-24T14:00:48Z</time>
      </trkpt>
      <trkpt lat="44.05326" lon="3.30116">
        <ele>482.72</ele>
        <time>2016-04-24T14:00:49Z</time>
      </trkpt>
      <trkpt lat="44.0531" lon="3.30108">
        <ele>482.72</ele>
        <time>2016-04-24T14:00:50Z</time>
      </trkpt>
      <trkpt lat="44.05294" lon="3.30103">
        <ele>482.72</ele>
        <time>2016-04-24T14:00:51Z</time>
      </trkpt>
      <trkpt lat="44.05278" lon="3.301">
        <ele>482.72</ele>
        <time>2016-04-24T14:00:52Z</time>
      </trkpt>
      <trkpt lat="44.0526" lon="3.30098">
        <ele>483.2</ele>
        <time>2016-04-24T14:00:53Z</time>
      </trkpt>
      <trkpt lat="44.0524" lon="3.30098">
        <ele>483.68</ele>
        <time>2016-04-24T14:00:54Z</time>
      </trkpt>
      <trkpt lat="44.05134" lon="3.30089">
        <ele>485.6</ele>
        <time>2016-04-24T14:00:59Z</time>
      </trkpt>
      <trkpt lat="44.05112" lon="3.30081">
        <ele>486.56</ele>
        <time>2016-04-24T14:01:00Z</time>
      </trkpt>
      <trkpt lat="44.04932" lon="3.30004">
        <ele>490.41</ele>
        <time>2016-04-24T14:01:08Z</time>
      </trkpt>
      <trkpt lat="44.04872" lon="3.29953">
        <ele>491.85</ele>
        <time>2016-04-24T14:01:11Z</time>
      </trkpt>
      <trkpt lat="44.04855" lon="3.29932">
        <ele>492.33</ele>
        <time>2016-04-24T14:01:12Z</time>
      </trkpt>
      <trkpt lat="44.0482" lon="3.29892">
        <ele>493.29</ele>
        <time>2016-04-24T14:01:14Z</time>
      </trkpt>
      <trkpt lat="44.04803" lon="3.29874">
        <ele>493.77</ele>
        <time>2016-04-24T14:01:15Z</time>
      </trkpt>
      <trkpt lat="44.04742" lon="3.29797">
        <ele>496.18</ele>
        <time>2016-04-24T14:01:19Z</time>
      </trkpt>
      <trkpt lat="44.04734" lon="3.29773">
        <ele>496.18</ele>
        <time>2016-04-24T14:01:20Z</time>
      </trkpt>
      <trkpt lat="44.04729" lon="3.29751">
        <ele>496.18</ele>
        <time>2016-04-24T14:01:21Z</time>
      </trkpt>
      <trkpt lat="44.04728" lon="3.29727">
        <ele>496.66</ele>
        <time>2016-04-24T14:01:22Z</time>
      </trkpt>
      <trkpt lat="44.04732" lon="3.29706">
        <ele>496.66</ele>
        <time>2016-04-24T14:01:23Z</time>
      </trkpt>
      <trkpt lat="44.04735" lon="3.29684">
        <ele>496.66</ele>
        <time>2016-04-24T14:01:24Z</time>
      </trkpt>
      <trkpt lat="44.04738" lon="3.29664">
        <ele>497.14</ele>
        <time>2016-04-24T14:01:25Z</time>
      </trkpt>
      <trkpt lat="44.04737" lon="3.29647">
        <ele>497.14</ele>
        <time>2016-04-24T14:01:26Z</time>
      </trkpt>
      <trkpt lat="44.04734" lon="3.29635">
        <ele>497.62</ele>
        <time>2016-04-24T14:01:27Z</time>
      </trkpt>
      <trkpt lat="44.04724" lon="3.29628">
        <ele>497.62</ele>
        <time>2016-04-24T14:01:28Z</time>
      </trkpt>
      <trkpt lat="44.04714" lon="3.29626">
        <ele>497.62</ele>
        <time>2016-04-24T14:01:29Z</time>
      </trkpt>
      <trkpt lat="44.047" lon="3.29629">
        <ele>498.1</ele>
        <time>2016-04-24T14:01:30Z</time>
      </trkpt>
      <trkpt lat="44.04687" lon="3.29629">
        <ele>498.1</ele>
        <time>2016-04-24T14:01:31Z</time>
      </trkpt>
      <trkpt lat="44.04671" lon="3.29635">
        <ele>499.06</ele>
        <time>2016-04-24T14:01:32Z</time>
      </trkpt>
      <trkpt lat="44.04655" lon="3.29635">
        <ele>499.06</ele>
        <time>2016-04-24T14:01:33Z</time>
      </trkpt>
      <trkpt lat="44.04638" lon="3.2963">
        <ele>499.54</ele>
        <time>2016-04-24T14:01:34Z</time>
      </trkpt>
      <trkpt lat="44.04621" lon="3.29623">
        <ele>500.98</ele>
        <time>2016-04-24T14:01:35Z</time>
      </trkpt>
      <trkpt lat="44.04604" lon="3.29614">
        <ele>501.95</ele>
        <time>2016-04-24T14:01:36Z</time>
      </trkpt>
      <trkpt lat="44.04585" lon="3.29603">
        <ele>502.91</ele>
        <time>2016-04-24T14:01:37Z</time>
      </trkpt>
      <trkpt lat="44.04411" lon="3.29529">
        <ele>506.75</ele>
        <time>2016-04-24T14:01:45Z</time>
      </trkpt>
      <trkpt lat="44.0431" lon="3.29476">
        <ele>508.67</ele>
        <time>2016-04-24T14:01:50Z</time>
      </trkpt>
      <trkpt lat="44.04291" lon="3.29473">
        <ele>509.16</ele>
        <time>2016-04-24T14:01:51Z</time>
      </trkpt>
      <trkpt lat="44.04272" lon="3.2947">
        <ele>509.64</ele>
        <time>2016-04-24T14:01:52Z</time>
      </trkpt>
      <trkpt lat="44.04252" lon="3.29464">
        <ele>510.12</ele>
        <time>2016-04-24T14:01:53Z</time>
      </trkpt>
      <trkpt lat="44.04232" lon="3.29455">
        <ele>510.6</ele>
        <time>2016-04-24T14:01:54Z</time>
      </trkpt>
      <trkpt lat="44.04213" lon="3.29445">
        <ele>511.08</ele>
        <time>2016-04-24T14:01:55Z</time>
      </trkpt>
      <trkpt lat="44.04177" lon="3.29421">
        <ele>511.56</ele>
        <time>2016-04-24T14:01:57Z</time>
      </trkpt>
      <trkpt lat="44.04161" lon="3.29403">
        <ele>512.04</ele>
        <time>2016-04-24T14:01:58Z</time>
      </trkpt>
      <trkpt lat="44.04147" lon="3.29383">
        <ele>512.52</ele>
        <time>2016-04-24T14:01:59Z</time>
      </trkpt>
      <trkpt lat="44.04131" lon="3.29366">
        <ele>513</ele>
        <time>2016-04-24T14:02:00Z</time>
      </trkpt>
      <trkpt lat="44.04115" lon="3.29349">
        <ele>513.48</ele>
        <time>2016-04-24T14:02:01Z</time>
      </trkpt>
      <trkpt lat="44.04097" lon="3.29333">
        <ele>513.96</ele>
        <time>2016-04-24T14:02:02Z</time>
      </trkpt>
      <trkpt lat="44.04079" lon="3.2932">
        <ele>514.44</ele>
        <time>2016-04-24T14:02:03Z</time>
      </trkpt>
      <trkpt lat="44.0394" lon="3.29222">
        <ele>518.29</ele>
        <time>2016-04-24T14:02:12Z</time>
      </trkpt>
      <trkpt lat="44.03914" lon="3.292">
        <ele>519.25</ele>
        <time>2016-04-24T14:02:14Z</time>
      </trkpt>
      <trkpt lat="44.03903" lon="3.29184">
        <ele>519.25</ele>
        <time>2016-04-24T14:02:15Z</time>
      </trkpt>
      <trkpt lat="44.03895" lon="3.29164">
        <ele>519.73</ele>
        <time>2016-04-24T14:02:16Z</time>
      </trkpt>
      <trkpt lat="44.03889" lon="3.29143">
        <ele>519.73</ele>
        <time>2016-04-24T14:02:17Z</time>
      </trkpt>
      <trkpt lat="44.03887" lon="3.29122">
        <ele>519.73</ele>
        <time>2016-04-24T14:02:18Z</time>
      </trkpt>
      <trkpt lat="44.03886" lon="3.291">
        <ele>520.21</ele>
        <time>2016-04-24T14:02:19Z</time>
      </trkpt>
      <trkpt lat="44.03886" lon="3.2908">
        <ele>520.69</ele>
        <time>2016-04-24T14:02:20Z</time>
      </trkpt>
      <trkpt lat="44.03883" lon="3.2904">
        <ele>520.69</ele>
        <time>2016-04-24T14:02:22Z</time>
      </trkpt>
      <trkpt lat="44.03878" lon="3.29022">
        <ele>521.17</ele>
        <time>2016-04-24T14:02:23Z</time>
      </trkpt>
      <trkpt lat="44.03872" lon="3.29006">
        <ele>521.17</ele>
        <time>2016-04-24T14:02:24Z</time>
      </trkpt>
      <trkpt lat="44.03865" lon="3.28992">
        <ele>521.17</ele>
        <time>2016-04-24T14:02:25Z</time>
      </trkpt>
      <trkpt lat="44.03856" lon="3.28981">
        <ele>521.17</ele>
        <time>2016-04-24T14:02:26Z</time>
      </trkpt>
      <trkpt lat="44.03846" lon="3.28975">
        <ele>521.17</ele>
        <time>2016-04-24T14:02:27Z</time>
      </trkpt>
      <trkpt lat="44.03834" lon="3.28972">
        <ele>521.17</ele>
        <time>2016-04-24T14:02:28Z</time>
      </trkpt>
      <trkpt lat="44.03822" lon="3.28975">
        <ele>520.69</ele>
        <time>2016-04-24T14:02:29Z</time>
      </trkpt>
      <trkpt lat="44.0381" lon="3.28983">
        <ele>520.69</ele>
        <time>2016-04-24T14:02:30Z</time>
      </trkpt>
      <trkpt lat="44.038" lon="3.28994">
        <ele>520.69</ele>
        <time>2016-04-24T14:02:31Z</time>
      </trkpt>
      <trkpt lat="44.03792" lon="3.29008">
        <ele>520.69</ele>
        <time>2016-04-24T14:02:32Z</time>
      </trkpt>
      <trkpt lat="44.03788" lon="3.29023">
        <ele>520.21</ele>
        <time>2016-04-24T14:02:33Z</time>
      </trkpt>
      <trkpt lat="44.03784" lon="3.29038">
        <ele>520.21</ele>
        <time>2016-04-24T14:02:34Z</time>
      </trkpt>
      <trkpt lat="44.0378" lon="3.29053">
        <ele>520.69</ele>
        <time>2016-04-24T14:02:35Z</time>
      </trkpt>
      <trkpt lat="44.03771" lon="3.2908">
        <ele>520.69</ele>
        <time>2016-04-24T14:02:37Z</time>
      </trkpt>
      <trkpt lat="44.03765" lon="3.2909">
        <ele>520.69</ele>
        <time>2016-04-24T14:02:38Z</time>
      </trkpt>
      <trkpt lat="44.03758" lon="3.29098">
        <ele>520.69</ele>
        <time>2016-04-24T14:02:39Z</time>
      </trkpt>
      <trkpt lat="44.0375" lon="3.29104">
        <ele>520.21</ele>
        <time>2016-04-24T14:02:40Z</time>
      </trkpt>
      <trkpt lat="44.03742" lon="3.29106">
        <ele>520.21</ele>
        <time>2016-04-24T14:02:41Z</time>
      </trkpt>
      <trkpt lat="44.03733" lon="3.29102">
        <ele>520.21</ele>
        <time>2016-04-24T14:02:42Z</time>
      </trkpt>
      <trkpt lat="44.03724" lon="3.29093">
        <ele>520.21</ele>
        <time>2016-04-24T14:02:43Z</time>
      </trkpt>
      <trkpt lat="44.03717" lon="3.29082">
        <ele>520.21</ele>
        <time>2016-04-24T14:02:44Z</time>
      </trkpt>
      <trkpt lat="44.03709" lon="3.29068">
        <ele>520.21</ele>
        <time>2016-04-24T14:02:45Z</time>
      </trkpt>
      <trkpt lat="44.03702" lon="3.29053">
        <ele>519.73</ele>
        <time>2016-04-24T14:02:46Z</time>
      </trkpt>
      <trkpt lat="44.03671" lon="3.29006">
        <ele>519.25</ele>
        <time>2016-04-24T14:02:49Z</time>
      </trkpt>
      <trkpt lat="44.03657" lon="3.28991">
        <ele>518.29</ele>
        <time>2016-04-24T14:02:50Z</time>
      </trkpt>
      <trkpt lat="44.03641" lon="3.2898">
        <ele>518.29</ele>
        <time>2016-04-24T14:02:51Z</time>
      </trkpt>
      <trkpt lat="44.03624" lon="3.28969">
        <ele>517.81</ele>
        <time>2016-04-24T14:02:52Z</time>
      </trkpt>
      <trkpt lat="44.03606" lon="3.28958">
        <ele>517.33</ele>
        <time>2016-04-24T14:02:53Z</time>
      </trkpt>
      <trkpt lat="44.03549" lon="3.28932">
        <ele>515.88</ele>
        <time>2016-04-24T14:02:56Z</time>
      </trkpt>
      <trkpt lat="44.03527" lon="3.28928">
        <ele>515.4</ele>
        <time>2016-04-24T14:02:57Z</time>
      </trkpt>
      <trkpt lat="44.03507" lon="3.28927">
        <ele>515.4</ele>
        <time>2016-04-24T14:02:58Z</time>
      </trkpt>
      <trkpt lat="44.03414" lon="3.28909">
        <ele>513</ele>
        <time>2016-04-24T14:03:03Z</time>
      </trkpt>
      <trkpt lat="44.03399" lon="3.289">
        <ele>512.52</ele>
        <time>2016-04-24T14:03:04Z</time>
      </trkpt>
      <trkpt lat="44.03386" lon="3.28885">
        <ele>512.04</ele>
        <time>2016-04-24T14:03:05Z</time>
      </trkpt>
      <trkpt lat="44.03375" lon="3.28866">
        <ele>511.56</ele>
        <time>2016-04-24T14:03:06Z</time>
      </trkpt>
      <trkpt lat="44.03365" lon="3.28848">
        <ele>511.56</ele>
        <time>2016-04-24T14:03:07Z</time>
      </trkpt>
      <trkpt lat="44.03356" lon="3.2883">
        <ele>511.56</ele>
        <time>2016-04-24T14:03:08Z</time>
      </trkpt>
      <trkpt lat="44.03345" lon="3.28814">
        <ele>511.56</ele>
        <time>2016-04-24T14:03:09Z</time>
      </trkpt>
      <trkpt lat="44.03333" lon="3.28799">
        <ele>511.08</ele>
        <time>2016-04-24T14:03:10Z</time>
      </trkpt>
      <trkpt lat="44.0332" lon="3.28786">
        <ele>510.6</ele>
        <time>2016-04-24T14:03:11Z</time>
      </trkpt>
      <trkpt lat="44.03306" lon="3.28775">
        <ele>510.6</ele>
        <time>2016-04-24T14:03:12Z</time>
      </trkpt>
      <trkpt lat="44.03291" lon="3.28765">
        <ele>510.6</ele>
        <time>2016-04-24T14:03:13Z</time>
      </trkpt>
      <trkpt lat="44.03277" lon="3.2876">
        <ele>510.12</ele>
        <time>2016-04-24T14:03:14Z</time>
      </trkpt>
      <trkpt lat="44.0326" lon="3.28755">
        <ele>509.64</ele>
        <time>2016-04-24T14:03:15Z</time>
      </trkpt>
      <trkpt lat="44.03244" lon="3.28753">
        <ele>509.64</ele>
        <time>2016-04-24T14:03:16Z</time>
      </trkpt>
      <trkpt lat="44.03226" lon="3.28754">
        <ele>509.64</ele>
        <time>2016-04-24T14:03:17Z</time>
      </trkpt>
      <trkpt lat="44.03208" lon="3.28756">
        <ele>509.64</ele>
        <time>2016-04-24T14:03:18Z</time>
      </trkpt>
      <trkpt lat="44.03191" lon="3.28761">
        <ele>509.16</ele>
        <time>2016-04-24T14:03:19Z</time>
      </trkpt>
      <trkpt lat="44.03174" lon="3.28767">
        <ele>509.16</ele>
        <time>2016-04-24T14:03:20Z</time>
      </trkpt>
      <trkpt lat="44.03159" lon="3.28775">
        <ele>508.67</ele>
        <time>2016-04-24T14:03:21Z</time>
      </trkpt>
      <trkpt lat="44.03145" lon="3.28785">
        <ele>507.71</ele>
        <time>2016-04-24T14:03:22Z</time>
      </trkpt>
      <trkpt lat="44.03132" lon="3.288">
        <ele>507.23</ele>
        <time>2016-04-24T14:03:23Z</time>
      </trkpt>
      <trkpt lat="44.03122" lon="3.28821">
        <ele>506.27</ele>
        <time>2016-04-24T14:03:24Z</time>
      </trkpt>
      <trkpt lat="44.03111" lon="3.28842">
        <ele>505.79</ele>
        <time>2016-04-24T14:03:25Z</time>
      </trkpt>
      <trkpt lat="44.03012" lon="3.28969">
        <ele>501.95</ele>
        <time>2016-04-24T14:03:32Z</time>
      </trkpt>
      <trkpt lat="44.02998" lon="3.28988">
        <ele>501.46</ele>
        <time>2016-04-24T14:03:33Z</time>
      </trkpt>
      <trkpt lat="44.02986" lon="3.29008">
        <ele>500.98</ele>
        <time>2016-04-24T14:03:34Z</time>
      </trkpt>
      <trkpt lat="44.02976" lon="3.29029">
        <ele>500.5</ele>
        <time>2016-04-24T14:03:35Z</time>
      </trkpt>
      <trkpt lat="44.02967" lon="3.29052">
        <ele>500.02</ele>
        <time>2016-04-24T14:03:36Z</time>
      </trkpt>
      <trkpt lat="44.02959" lon="3.29076">
        <ele>499.54</ele>
        <time>2016-04-24T14:03:37Z</time>
      </trkpt>
      <trkpt lat="44.02953" lon="3.29102">
        <ele>498.58</ele>
        <time>2016-04-24T14:03:38Z</time>
      </trkpt>
      <trkpt lat="44.02949" lon="3.29133">
        <ele>498.1</ele>
        <time>2016-04-24T14:03:39Z</time>
      </trkpt>
      <trkpt lat="44.02946" lon="3.2917">
        <ele>497.14</ele>
        <time>2016-04-24T14:03:40Z</time>
      </trkpt>
      <trkpt lat="44.02931" lon="3.29377">
        <ele>491.85</ele>
        <time>2016-04-24T14:03:46Z</time>
      </trkpt>
      <trkpt lat="44.02936" lon="3.29404">
        <ele>490.89</ele>
        <time>2016-04-24T14:03:47Z</time>
      </trkpt>
      <trkpt lat="44.02939" lon="3.2943">
        <ele>490.41</ele>
        <time>2016-04-24T14:03:48Z</time>
      </trkpt>
      <trkpt lat="44.02938" lon="3.29458">
        <ele>489.93</ele>
        <time>2016-04-24T14:03:49Z</time>
      </trkpt>
      <trkpt lat="44.02933" lon="3.29485">
        <ele>488.97</ele>
        <time>2016-04-24T14:03:50Z</time>
      </trkpt>
      <trkpt lat="44.02925" lon="3.29511">
        <ele>488.49</ele>
        <time>2016-04-24T14:03:51Z</time>
      </trkpt>
      <trkpt lat="44.02913" lon="3.29536">
        <ele>488.01</ele>
        <time>2016-04-24T14:03:52Z</time>
      </trkpt>
      <trkpt lat="44.02896" lon="3.29558">
        <ele>488.01</ele>
        <time>2016-04-24T14:03:53Z</time>
      </trkpt>
      <trkpt lat="44.02876" lon="3.29578">
        <ele>487.53</ele>
        <time>2016-04-24T14:03:54Z</time>
      </trkpt>
      <trkpt lat="44.02856" lon="3.29598">
        <ele>487.53</ele>
        <time>2016-04-24T14:03:55Z</time>
      </trkpt>
      <trkpt lat="44.02835" lon="3.29619">
        <ele>487.53</ele>
        <time>2016-04-24T14:03:56Z</time>
      </trkpt>
      <trkpt lat="44.02663" lon="3.29763">
        <ele>488.49</ele>
        <time>2016-04-24T14:04:04Z</time>
      </trkpt>
      <trkpt lat="44.02524" lon="3.29884">
        <ele>490.41</ele>
        <time>2016-04-24T14:04:12Z</time>
      </trkpt>
      <trkpt lat="44.02433" lon="3.29964">
        <ele>492.33</ele>
        <time>2016-04-24T14:04:20Z</time>
      </trkpt>
      <trkpt lat="44.02379" lon="3.30014">
        <ele>495.22</ele>
        <time>2016-04-24T14:04:26Z</time>
      </trkpt>
      <trkpt lat="44.02372" lon="3.30026">
        <ele>495.7</ele>
        <time>2016-04-24T14:04:27Z</time>
      </trkpt>
      <trkpt lat="44.02367" lon="3.30039">
        <ele>495.7</ele>
        <time>2016-04-24T14:04:28Z</time>
      </trkpt>
      <trkpt lat="44.02364" lon="3.30052">
        <ele>495.7</ele>
        <time>2016-04-24T14:04:29Z</time>
      </trkpt>
      <trkpt lat="44.02362" lon="3.30066">
        <ele>495.22</ele>
        <time>2016-04-24T14:04:30Z</time>
      </trkpt>
      <trkpt lat="44.02362" lon="3.30079">
        <ele>494.74</ele>
        <time>2016-04-24T14:04:31Z</time>
      </trkpt>
      <trkpt lat="44.02362" lon="3.30091">
        <ele>494.74</ele>
        <time>2016-04-24T14:04:32Z</time>
      </trkpt>
      <trkpt lat="44.02362" lon="3.30102">
        <ele>494.74</ele>
        <time>2016-04-24T14:04:33Z</time>
      </trkpt>
      <trkpt lat="44.0236" lon="3.30113">
        <ele>494.74</ele>
        <time>2016-04-24T14:04:34Z</time>
      </trkpt>
      <trkpt lat="44.02356" lon="3.30123">
        <ele>494.74</ele>
        <time>2016-04-24T14:04:35Z</time>
      </trkpt>
      <trkpt lat="44.0235" lon="3.30131">
        <ele>495.22</ele>
        <time>2016-04-24T14:04:36Z</time>
      </trkpt>
      <trkpt lat="44.02343" lon="3.30136">
        <ele>495.7</ele>
        <time>2016-04-24T14:04:37Z</time>
      </trkpt>
      <trkpt lat="44.02337" lon="3.30141">
        <ele>495.7</ele>
        <time>2016-04-24T14:04:38Z</time>
      </trkpt>
      <trkpt lat="44.0233" lon="3.30145">
        <ele>495.22</ele>
        <time>2016-04-24T14:04:39Z</time>
      </trkpt>
      <trkpt lat="44.02323" lon="3.30149">
        <ele>495.7</ele>
        <time>2016-04-24T14:04:40Z</time>
      </trkpt>
      <trkpt lat="44.02275" lon="3.30175">
        <ele>497.62</ele>
        <time>2016-04-24T14:04:49Z</time>
      </trkpt>
      <trkpt lat="44.02247" lon="3.30186">
        <ele>498.1</ele>
        <time>2016-04-24T14:04:56Z</time>
      </trkpt>
      <trkpt lat="44.02248" lon="3.30181">
        <ele>497.62</ele>
        <time>2016-04-24T14:04:57Z</time>
      </trkpt>
      <trkpt lat="44.02249" lon="3.30177">
        <ele>497.62</ele>
        <time>2016-04-24T14:04:58Z</time>
      </trkpt>
      <trkpt lat="44.02249" lon="3.30173">
        <ele>497.62</ele>
        <time>2016-04-24T14:04:59Z</time>
      </trkpt>
      <trkpt lat="44.02249" lon="3.30169">
        <ele>497.62</ele>
        <time>2016-04-24T14:05:00Z</time>
      </trkpt>
      <trkpt lat="44.02252" lon="3.30158">
        <ele>497.14</ele>
        <time>2016-04-24T14:05:03Z</time>
      </trkpt>
      <trkpt lat="44.02255" lon="3.30156">
        <ele>497.14</ele>
        <time>2016-04-24T14:05:04Z</time>
      </trkpt>
      <trkpt lat="44.02257" lon="3.30154">
        <ele>496.66</ele>
        <time>2016-04-24T14:05:05Z</time>
      </trkpt>
      <trkpt lat="44.02268" lon="3.30141">
        <ele>495.22</ele>
        <time>2016-04-24T14:05:15Z</time>
      </trkpt>
      <trkpt lat="44.02266" lon="3.30139">
        <ele>495.7</ele>
        <time>2016-04-24T14:05:26Z</time>
      </trkpt>
      <trkpt lat="44.02265" lon="3.3014">
        <ele>495.7</ele>
        <time>2016-04-24T14:05:27Z</time>
      </trkpt>
      <trkpt lat="44.02263" lon="3.30143">
        <ele>502.43</ele>
        <time>2016-04-24T14:05:43Z</time>
      </trkpt>
      <trkpt lat="44.02264" lon="3.30143">
        <ele>501.46</ele>
        <time>2016-04-24T14:06:11Z</time>
      </trkpt>
      <trkpt lat="44.02263" lon="3.30144">
        <ele>503.39</ele>
        <time>2016-04-24T14:06:35Z</time>
      </trkpt>
      <trkpt lat="44.02263" lon="3.30143">
        <ele>500.98</ele>
        <time>2016-04-24T14:07:00Z</time>
      </trkpt>
      <trkpt lat="44.0226" lon="3.30143">
        <ele>499.06</ele>
        <time>2016-04-24T14:08:01Z</time>
      </trkpt>
      <trkpt lat="44.02263" lon="3.30142">
        <ele>495.22</ele>
        <time>2016-04-24T14:52:48Z</time>
      </trkpt>
      <trkpt lat="44.02258" lon="3.3014">
        <ele>510.6</ele>
        <time>2016-04-24T14:54:56Z</time>
      </trkpt>
      <trkpt lat="44.02245" lon="3.3016">
        <ele>505.79</ele>
        <time>2016-04-24T14:55:23Z</time>
      </trkpt>
      <trkpt lat="44.02243" lon="3.30165">
        <ele>504.83</ele>
        <time>2016-04-24T14:55:24Z</time>
      </trkpt>
      <trkpt lat="44.02242" lon="3.30171">
        <ele>504.35</ele>
        <time>2016-04-24T14:55:25Z</time>
      </trkpt>
      <trkpt lat="44.02236" lon="3.30192">
        <ele>503.39</ele>
        <time>2016-04-24T14:55:28Z</time>
      </trkpt>
      <trkpt lat="44.02233" lon="3.30199">
        <ele>503.39</ele>
        <time>2016-04-24T14:55:29Z</time>
      </trkpt>
      <trkpt lat="44.02229" lon="3.30205">
        <ele>502.91</ele>
        <time>2016-04-24T14:55:30Z</time>
      </trkpt>
      <trkpt lat="44.0222" lon="3.30221">
        <ele>500.98</ele>
        <time>2016-04-24T14:55:32Z</time>
      </trkpt>
      <trkpt lat="44.02217" lon="3.3023">
        <ele>500.5</ele>
        <time>2016-04-24T14:55:33Z</time>
      </trkpt>
      <trkpt lat="44.02199" lon="3.30289">
        <ele>498.1</ele>
        <time>2016-04-24T14:55:39Z</time>
      </trkpt>
      <trkpt lat="44.02195" lon="3.30295">
        <ele>497.62</ele>
        <time>2016-04-24T14:55:40Z</time>
      </trkpt>
      <trkpt lat="44.02191" lon="3.30299">
        <ele>497.62</ele>
        <time>2016-04-24T14:55:41Z</time>
      </trkpt>
      <trkpt lat="44.02188" lon="3.30298">
        <ele>497.62</ele>
        <time>2016-04-24T14:55:42Z</time>
      </trkpt>
      <trkpt lat="44.02183" lon="3.30299">
        <ele>498.58</ele>
        <time>2016-04-24T14:55:43Z</time>
      </trkpt>
      <trkpt lat="44.02177" lon="3.30298">
        <ele>499.06</ele>
        <time>2016-04-24T14:55:44Z</time>
      </trkpt>
      <trkpt lat="44.0217" lon="3.30301">
        <ele>499.06</ele>
        <time>2016-04-24T14:55:45Z</time>
      </trkpt>
      <trkpt lat="44.02164" lon="3.30306">
        <ele>499.06</ele>
        <time>2016-04-24T14:55:46Z</time>
      </trkpt>
      <trkpt lat="44.02159" lon="3.30313">
        <ele>498.1</ele>
        <time>2016-04-24T14:55:47Z</time>
      </trkpt>
      <trkpt lat="44.02147" lon="3.30324">
        <ele>496.66</ele>
        <time>2016-04-24T14:55:49Z</time>
      </trkpt>
      <trkpt lat="44.02141" lon="3.30333">
        <ele>496.18</ele>
        <time>2016-04-24T14:55:50Z</time>
      </trkpt>
      <trkpt lat="44.02068" lon="3.30418">
        <ele>492.33</ele>
        <time>2016-04-24T14:56:00Z</time>
      </trkpt>
      <trkpt lat="44.02036" lon="3.3044">
        <ele>493.29</ele>
        <time>2016-04-24T14:56:04Z</time>
      </trkpt>
      <trkpt lat="44.02028" lon="3.30442">
        <ele>493.29</ele>
        <time>2016-04-24T14:56:05Z</time>
      </trkpt>
      <trkpt lat="44.01923" lon="3.30461">
        <ele>492.81</ele>
        <time>2016-04-24T14:56:17Z</time>
      </trkpt>
      <trkpt lat="44.01844" lon="3.30463">
        <ele>491.85</ele>
        <time>2016-04-24T14:56:27Z</time>
      </trkpt>
      <trkpt lat="44.01754" lon="3.30467">
        <ele>491.37</ele>
        <time>2016-04-24T14:56:37Z</time>
      </trkpt>
      <trkpt lat="44.01655" lon="3.30468">
        <ele>492.81</ele>
        <time>2016-04-24T14:56:48Z</time>
      </trkpt>
      <trkpt lat="44.01527" lon="3.30472">
        <ele>491.37</ele>
        <time>2016-04-24T14:57:00Z</time>
      </trkpt>
      <trkpt lat="44.01379" lon="3.30478">
        <ele>490.89</ele>
        <time>2016-04-24T14:57:12Z</time>
      </trkpt>
      <trkpt lat="44.01323" lon="3.30489">
        <ele>490.89</ele>
        <time>2016-04-24T14:57:17Z</time>
      </trkpt>
      <trkpt lat="44.01311" lon="3.30496">
        <ele>490.89</ele>
        <time>2016-04-24T14:57:18Z</time>
      </trkpt>
      <trkpt lat="44.01299" lon="3.30505">
        <ele>490.41</ele>
        <time>2016-04-24T14:57:19Z</time>
      </trkpt>
      <trkpt lat="44.01287" lon="3.30516">
        <ele>489.93</ele>
        <time>2016-04-24T14:57:20Z</time>
      </trkpt>
      <trkpt lat="44.01275" lon="3.30531">
        <ele>489.45</ele>
        <time>2016-04-24T14:57:21Z</time>
      </trkpt>
      <trkpt lat="44.01266" lon="3.30549">
        <ele>488.97</ele>
        <time>2016-04-24T14:57:22Z</time>
      </trkpt>
      <trkpt lat="44.01257" lon="3.3057">
        <ele>488.01</ele>
        <time>2016-04-24T14:57:23Z</time>
      </trkpt>
      <trkpt lat="44.01249" lon="3.30592">
        <ele>487.05</ele>
        <time>2016-04-24T14:57:24Z</time>
      </trkpt>
      <trkpt lat="44.01165" lon="3.30801">
        <ele>486.08</ele>
        <time>2016-04-24T14:57:35Z</time>
      </trkpt>
      <trkpt lat="44.01076" lon="3.31015">
        <ele>489.45</ele>
        <time>2016-04-24T14:57:47Z</time>
      </trkpt>
      <trkpt lat="44.01064" lon="3.31057">
        <ele>489.45</ele>
        <time>2016-04-24T14:57:49Z</time>
      </trkpt>
      <trkpt lat="44.01061" lon="3.3108">
        <ele>489.93</ele>
        <time>2016-04-24T14:57:50Z</time>
      </trkpt>
      <trkpt lat="44.01059" lon="3.31104">
        <ele>489.93</ele>
        <time>2016-04-24T14:57:51Z</time>
      </trkpt>
      <trkpt lat="44.01053" lon="3.31328">
        <ele>491.37</ele>
        <time>2016-04-24T14:58:00Z</time>
      </trkpt>
      <trkpt lat="44.01057" lon="3.31351">
        <ele>491.37</ele>
        <time>2016-04-24T14:58:01Z</time>
      </trkpt>
      <trkpt lat="44.01062" lon="3.31375">
        <ele>491.85</ele>
        <time>2016-04-24T14:58:02Z</time>
      </trkpt>
      <trkpt lat="44.01141" lon="3.31685">
        <ele>495.22</ele>
        <time>2016-04-24T14:58:15Z</time>
      </trkpt>
      <trkpt lat="44.0122" lon="3.3198">
        <ele>496.66</ele>
        <time>2016-04-24T14:58:28Z</time>
      </trkpt>
      <trkpt lat="44.01229" lon="3.32001">
        <ele>496.66</ele>
        <time>2016-04-24T14:58:29Z</time>
      </trkpt>
      <trkpt lat="44.0124" lon="3.32022">
        <ele>496.18</ele>
        <time>2016-04-24T14:58:30Z</time>
      </trkpt>
      <trkpt lat="44.01251" lon="3.32041">
        <ele>496.18</ele>
        <time>2016-04-24T14:58:31Z</time>
      </trkpt>
      <trkpt lat="44.01264" lon="3.32059">
        <ele>496.18</ele>
        <time>2016-04-24T14:58:32Z</time>
      </trkpt>
      <trkpt lat="44.01279" lon="3.32075">
        <ele>496.66</ele>
        <time>2016-04-24T14:58:33Z</time>
      </trkpt>
      <trkpt lat="44.01294" lon="3.32091">
        <ele>497.14</ele>
        <time>2016-04-24T14:58:34Z</time>
      </trkpt>
      <trkpt lat="44.01525" lon="3.32346">
        <ele>502.91</ele>
        <time>2016-04-24T14:58:50Z</time>
      </trkpt>
      <trkpt lat="44.01659" lon="3.32495">
        <ele>504.35</ele>
        <time>2016-04-24T14:59:00Z</time>
      </trkpt>
      <trkpt lat="44.01848" lon="3.32687">
        <ele>500.98</ele>
        <time>2016-04-24T14:59:13Z</time>
      </trkpt>
      <trkpt lat="44.01885" lon="3.32705">
        <ele>499.54</ele>
        <time>2016-04-24T14:59:15Z</time>
      </trkpt>
      <trkpt lat="44.01901" lon="3.32723">
        <ele>499.54</ele>
        <time>2016-04-24T14:59:16Z</time>
      </trkpt>
      <trkpt lat="44.01917" lon="3.32741">
        <ele>499.06</ele>
        <time>2016-04-24T14:59:17Z</time>
      </trkpt>
      <trkpt lat="44.02076" lon="3.32963">
        <ele>500.02</ele>
        <time>2016-04-24T14:59:29Z</time>
      </trkpt>
      <trkpt lat="44.02214" lon="3.33158">
        <ele>501.95</ele>
        <time>2016-04-24T14:59:40Z</time>
      </trkpt>
      <trkpt lat="44.02224" lon="3.33176">
        <ele>501.95</ele>
        <time>2016-04-24T14:59:41Z</time>
      </trkpt>
      <trkpt lat="44.02232" lon="3.33196">
        <ele>501.95</ele>
        <time>2016-04-24T14:59:42Z</time>
      </trkpt>
      <trkpt lat="44.02236" lon="3.33219">
        <ele>501.95</ele>
        <time>2016-04-24T14:59:43Z</time>
      </trkpt>
      <trkpt lat="44.02238" lon="3.33243">
        <ele>501.95</ele>
        <time>2016-04-24T14:59:44Z</time>
      </trkpt>
      <trkpt lat="44.02237" lon="3.33269">
        <ele>502.43</ele>
        <time>2016-04-24T14:59:45Z</time>
      </trkpt>
      <trkpt lat="44.02233" lon="3.33295">
        <ele>502.43</ele>
        <time>2016-04-24T14:59:46Z</time>
      </trkpt>
      <trkpt lat="44.02223" lon="3.33321">
        <ele>502.91</ele>
        <time>2016-04-24T14:59:47Z</time>
      </trkpt>
      <trkpt lat="44.02212" lon="3.33343">
        <ele>503.39</ele>
        <time>2016-04-24T14:59:48Z</time>
      </trkpt>
      <trkpt lat="44.02198" lon="3.33363">
        <ele>503.39</ele>
        <time>2016-04-24T14:59:49Z</time>
      </trkpt>
      <trkpt lat="44.02181" lon="3.33378">
        <ele>503.87</ele>
        <time>2016-04-24T14:59:50Z</time>
      </trkpt>
      <trkpt lat="44.02164" lon="3.33392">
        <ele>504.35</ele>
        <time>2016-04-24T14:59:51Z</time>
      </trkpt>
      <trkpt lat="44.02148" lon="3.33404">
        <ele>504.35</ele>
        <time>2016-04-24T14:59:52Z</time>
      </trkpt>
      <trkpt lat="44.02132" lon="3.33416">
        <ele>504.35</ele>
        <time>2016-04-24T14:59:53Z</time>
      </trkpt>
      <trkpt lat="44.01882" lon="3.33625">
        <ele>506.75</ele>
        <time>2016-04-24T15:00:09Z</time>
      </trkpt>
      <trkpt lat="44.01855" lon="3.33666">
        <ele>507.23</ele>
        <time>2016-04-24T15:00:11Z</time>
      </trkpt>
      <trkpt lat="44.01843" lon="3.3369">
        <ele>507.23</ele>
        <time>2016-04-24T15:00:12Z</time>
      </trkpt>
      <trkpt lat="44.01832" lon="3.33714">
        <ele>508.19</ele>
        <time>2016-04-24T15:00:13Z</time>
      </trkpt>
      <trkpt lat="44.0178" lon="3.33874">
        <ele>510.6</ele>
        <time>2016-04-24T15:00:20Z</time>
      </trkpt>
      <trkpt lat="44.01779" lon="3.33899">
        <ele>510.12</ele>
        <time>2016-04-24T15:00:21Z</time>
      </trkpt>
      <trkpt lat="44.01783" lon="3.33924">
        <ele>509.64</ele>
        <time>2016-04-24T15:00:22Z</time>
      </trkpt>
      <trkpt lat="44.01789" lon="3.33951">
        <ele>509.64</ele>
        <time>2016-04-24T15:00:23Z</time>
      </trkpt>
      <trkpt lat="44.01797" lon="3.33978">
        <ele>509.16</ele>
        <time>2016-04-24T15:00:24Z</time>
      </trkpt>
      <trkpt lat="44.01871" lon="3.34239">
        <ele>513</ele>
        <time>2016-04-24T15:00:33Z</time>
      </trkpt>
      <trkpt lat="44.01961" lon="3.34585">
        <ele>516.37</ele>
        <time>2016-04-24T15:00:46Z</time>
      </trkpt>
      <trkpt lat="44.02039" lon="3.34884">
        <ele>518.29</ele>
        <time>2016-04-24T15:00:57Z</time>
      </trkpt>
      <trkpt lat="44.02106" lon="3.35145">
        <ele>520.21</ele>
        <time>2016-04-24T15:01:07Z</time>
      </trkpt>
      <trkpt lat="44.02138" lon="3.35265">
        <ele>523.58</ele>
        <time>2016-04-24T15:01:12Z</time>
      </trkpt>
      <trkpt lat="44.02148" lon="3.35283">
        <ele>524.06</ele>
        <time>2016-04-24T15:01:13Z</time>
      </trkpt>
      <trkpt lat="44.02161" lon="3.35294">
        <ele>524.54</ele>
        <time>2016-04-24T15:01:14Z</time>
      </trkpt>
      <trkpt lat="44.02176" lon="3.35303">
        <ele>525.02</ele>
        <time>2016-04-24T15:01:15Z</time>
      </trkpt>
      <trkpt lat="44.02195" lon="3.35311">
        <ele>525.5</ele>
        <time>2016-04-24T15:01:16Z</time>
      </trkpt>
      <trkpt lat="44.02213" lon="3.35317">
        <ele>525.98</ele>
        <time>2016-04-24T15:01:17Z</time>
      </trkpt>
      <trkpt lat="44.02231" lon="3.35322">
        <ele>525.98</ele>
        <time>2016-04-24T15:01:18Z</time>
      </trkpt>
      <trkpt lat="44.0225" lon="3.35324">
        <ele>525.98</ele>
        <time>2016-04-24T15:01:19Z</time>
      </trkpt>
      <trkpt lat="44.0227" lon="3.35325">
        <ele>525.98</ele>
        <time>2016-04-24T15:01:20Z</time>
      </trkpt>
      <trkpt lat="44.0229" lon="3.35324">
        <ele>526.46</ele>
        <time>2016-04-24T15:01:21Z</time>
      </trkpt>
      <trkpt lat="44.02309" lon="3.35323">
        <ele>526.46</ele>
        <time>2016-04-24T15:01:22Z</time>
      </trkpt>
      <trkpt lat="44.02343" lon="3.35328">
        <ele>526.94</ele>
        <time>2016-04-24T15:01:24Z</time>
      </trkpt>
      <trkpt lat="44.02357" lon="3.35336">
        <ele>526.94</ele>
        <time>2016-04-24T15:01:25Z</time>
      </trkpt>
      <trkpt lat="44.02373" lon="3.35346">
        <ele>527.42</ele>
        <time>2016-04-24T15:01:26Z</time>
      </trkpt>
      <trkpt lat="44.02387" lon="3.3536">
        <ele>526.94</ele>
        <time>2016-04-24T15:01:27Z</time>
      </trkpt>
      <trkpt lat="44.02397" lon="3.3538">
        <ele>526.94</ele>
        <time>2016-04-24T15:01:28Z</time>
      </trkpt>
      <trkpt lat="44.02402" lon="3.354">
        <ele>527.42</ele>
        <time>2016-04-24T15:01:29Z</time>
      </trkpt>
      <trkpt lat="44.02407" lon="3.35422">
        <ele>527.9</ele>
        <time>2016-04-24T15:01:30Z</time>
      </trkpt>
      <trkpt lat="44.0241" lon="3.35443">
        <ele>527.9</ele>
        <time>2016-04-24T15:01:31Z</time>
      </trkpt>
      <trkpt lat="44.02414" lon="3.35464">
        <ele>527.9</ele>
        <time>2016-04-24T15:01:32Z</time>
      </trkpt>
      <trkpt lat="44.02451" lon="3.35631">
        <ele>523.58</ele>
        <time>2016-04-24T15:01:41Z</time>
      </trkpt>
      <trkpt lat="44.02447" lon="3.35741">
        <ele>521.65</ele>
        <time>2016-04-24T15:01:48Z</time>
      </trkpt>
      <trkpt lat="44.0244" lon="3.35752">
        <ele>521.65</ele>
        <time>2016-04-24T15:01:49Z</time>
      </trkpt>
      <trkpt lat="44.02432" lon="3.35762">
        <ele>522.13</ele>
        <time>2016-04-24T15:01:50Z</time>
      </trkpt>
      <trkpt lat="44.02423" lon="3.3577">
        <ele>522.61</ele>
        <time>2016-04-24T15:01:51Z</time>
      </trkpt>
      <trkpt lat="44.02414" lon="3.35776">
        <ele>523.58</ele>
        <time>2016-04-24T15:01:52Z</time>
      </trkpt>
      <trkpt lat="44.02405" lon="3.35778">
        <ele>523.58</ele>
        <time>2016-04-24T15:01:53Z</time>
      </trkpt>
      <trkpt lat="44.02395" lon="3.35781">
        <ele>523.09</ele>
        <time>2016-04-24T15:01:54Z</time>
      </trkpt>
      <trkpt lat="44.02386" lon="3.35786">
        <ele>522.61</ele>
        <time>2016-04-24T15:01:55Z</time>
      </trkpt>
      <trkpt lat="44.02377" lon="3.35794">
        <ele>522.61</ele>
        <time>2016-04-24T15:01:56Z</time>
      </trkpt>
      <trkpt lat="44.02369" lon="3.35803">
        <ele>522.61</ele>
        <time>2016-04-24T15:01:57Z</time>
      </trkpt>
      <trkpt lat="44.02328" lon="3.35877">
        <ele>522.13</ele>
        <time>2016-04-24T15:02:04Z</time>
      </trkpt>
      <trkpt lat="44.02326" lon="3.35889">
        <ele>521.17</ele>
        <time>2016-04-24T15:02:05Z</time>
      </trkpt>
      <trkpt lat="44.02315" lon="3.35951">
        <ele>521.65</ele>
        <time>2016-04-24T15:02:11Z</time>
      </trkpt>
      <trkpt lat="44.02311" lon="3.35964">
        <ele>522.61</ele>
        <time>2016-04-24T15:02:12Z</time>
      </trkpt>
      <trkpt lat="44.02247" lon="3.36031">
        <ele>525.98</ele>
        <time>2016-04-24T15:02:22Z</time>
      </trkpt>
      <trkpt lat="44.02207" lon="3.36074">
        <ele>525.5</ele>
        <time>2016-04-24T15:02:27Z</time>
      </trkpt>
      <trkpt lat="44.0212" lon="3.36173">
        <ele>526.94</ele>
        <time>2016-04-24T15:02:37Z</time>
      </trkpt>
      <trkpt lat="44.02062" lon="3.36225">
        <ele>531.27</ele>
        <time>2016-04-24T15:02:45Z</time>
      </trkpt>
      <trkpt lat="44.01998" lon="3.36289">
        <ele>533.19</ele>
        <time>2016-04-24T15:02:52Z</time>
      </trkpt>
      <trkpt lat="44.01888" lon="3.3634">
        <ele>538.96</ele>
        <time>2016-04-24T15:02:59Z</time>
      </trkpt>
      <trkpt lat="44.01856" lon="3.36344">
        <ele>541.36</ele>
        <time>2016-04-24T15:03:01Z</time>
      </trkpt>
      <trkpt lat="44.01839" lon="3.36344">
        <ele>543.28</ele>
        <time>2016-04-24T15:03:02Z</time>
      </trkpt>
      <trkpt lat="44.01822" lon="3.36342">
        <ele>544.72</ele>
        <time>2016-04-24T15:03:03Z</time>
      </trkpt>
      <trkpt lat="44.01652" lon="3.36346">
        <ele>560.11</ele>
        <time>2016-04-24T15:03:12Z</time>
      </trkpt>
      <trkpt lat="44.01457" lon="3.36376">
        <ele>570.68</ele>
        <time>2016-04-24T15:03:21Z</time>
      </trkpt>
      <trkpt lat="44.01239" lon="3.36435">
        <ele>588.46</ele>
        <time>2016-04-24T15:03:30Z</time>
      </trkpt>
      <trkpt lat="44.01176" lon="3.36442">
        <ele>592.79</ele>
        <time>2016-04-24T15:03:33Z</time>
      </trkpt>
      <trkpt lat="44.01156" lon="3.3644">
        <ele>594.71</ele>
        <time>2016-04-24T15:03:34Z</time>
      </trkpt>
      <trkpt lat="44.01138" lon="3.36435">
        <ele>596.15</ele>
        <time>2016-04-24T15:03:35Z</time>
      </trkpt>
      <trkpt lat="44.0112" lon="3.36435">
        <ele>598.08</ele>
        <time>2016-04-24T15:03:36Z</time>
      </trkpt>
      <trkpt lat="44.01101" lon="3.36437">
        <ele>600</ele>
        <time>2016-04-24T15:03:37Z</time>
      </trkpt>
      <trkpt lat="44.01083" lon="3.36438">
        <ele>601.92</ele>
        <time>2016-04-24T15:03:38Z</time>
      </trkpt>
      <trkpt lat="44.01065" lon="3.36434">
        <ele>603.85</ele>
        <time>2016-04-24T15:03:39Z</time>
      </trkpt>
      <trkpt lat="44.01046" lon="3.36426">
        <ele>606.25</ele>
        <time>2016-04-24T15:03:40Z</time>
      </trkpt>
      <trkpt lat="44.01026" lon="3.36417">
        <ele>607.69</ele>
        <time>2016-04-24T15:03:41Z</time>
      </trkpt>
      <trkpt lat="44.00943" lon="3.36384">
        <ele>616.34</ele>
        <time>2016-04-24T15:03:45Z</time>
      </trkpt>
      <trkpt lat="44.00926" lon="3.36368">
        <ele>618.26</ele>
        <time>2016-04-24T15:03:46Z</time>
      </trkpt>
      <trkpt lat="44.00912" lon="3.36351">
        <ele>620.19</ele>
        <time>2016-04-24T15:03:47Z</time>
      </trkpt>
      <trkpt lat="44.00882" lon="3.36321">
        <ele>623.55</ele>
        <time>2016-04-24T15:03:49Z</time>
      </trkpt>
      <trkpt lat="44.00865" lon="3.36313">
        <ele>624.51</ele>
        <time>2016-04-24T15:03:50Z</time>
      </trkpt>
      <trkpt lat="44.00847" lon="3.36308">
        <ele>624.99</ele>
        <time>2016-04-24T15:03:51Z</time>
      </trkpt>
      <trkpt lat="44.00787" lon="3.36276">
        <ele>629.32</ele>
        <time>2016-04-24T15:03:54Z</time>
      </trkpt>
      <trkpt lat="44.00769" lon="3.36261">
        <ele>631.24</ele>
        <time>2016-04-24T15:03:55Z</time>
      </trkpt>
      <trkpt lat="44.00721" lon="3.36236">
        <ele>635.57</ele>
        <time>2016-04-24T15:03:58Z</time>
      </trkpt>
      <trkpt lat="44.00702" lon="3.36233">
        <ele>638.93</ele>
        <time>2016-04-24T15:03:59Z</time>
      </trkpt>
      <trkpt lat="44.00577" lon="3.36227">
        <ele>651.43</ele>
        <time>2016-04-24T15:04:05Z</time>
      </trkpt>
      <trkpt lat="44.00555" lon="3.36234">
        <ele>653.35</ele>
        <time>2016-04-24T15:04:06Z</time>
      </trkpt>
      <trkpt lat="44.00446" lon="3.36243">
        <ele>661.04</ele>
        <time>2016-04-24T15:04:12Z</time>
      </trkpt>
      <trkpt lat="44.00428" lon="3.36248">
        <ele>661.04</ele>
        <time>2016-04-24T15:04:13Z</time>
      </trkpt>
      <trkpt lat="44.00407" lon="3.36259">
        <ele>662.01</ele>
        <time>2016-04-24T15:04:14Z</time>
      </trkpt>
      <trkpt lat="44.00296" lon="3.36303">
        <ele>666.81</ele>
        <time>2016-04-24T15:04:19Z</time>
      </trkpt>
      <trkpt lat="44.00274" lon="3.36316">
        <ele>668.25</ele>
        <time>2016-04-24T15:04:20Z</time>
      </trkpt>
      <trkpt lat="44.0011" lon="3.36402">
        <ele>680.75</ele>
        <time>2016-04-24T15:04:28Z</time>
      </trkpt>
      <trkpt lat="44.00096" lon="3.36414">
        <ele>682.19</ele>
        <time>2016-04-24T15:04:29Z</time>
      </trkpt>
      <trkpt lat="44.00083" lon="3.36428">
        <ele>683.63</ele>
        <time>2016-04-24T15:04:30Z</time>
      </trkpt>
      <trkpt lat="44.00073" lon="3.36443">
        <ele>685.08</ele>
        <time>2016-04-24T15:04:31Z</time>
      </trkpt>
      <trkpt lat="44.00066" lon="3.36458">
        <ele>686.04</ele>
        <time>2016-04-24T15:04:32Z</time>
      </trkpt>
      <trkpt lat="44.00062" lon="3.36469">
        <ele>686.04</ele>
        <time>2016-04-24T15:04:33Z</time>
      </trkpt>
      <trkpt lat="44.00059" lon="3.36476">
        <ele>687</ele>
        <time>2016-04-24T15:04:34Z</time>
      </trkpt>
      <trkpt lat="44.00049" lon="3.3647">
        <ele>688.92</ele>
        <time>2016-04-24T15:04:36Z</time>
      </trkpt>
      <trkpt lat="44.00054" lon="3.36443">
        <ele>688.92</ele>
        <time>2016-04-24T15:04:38Z</time>
      </trkpt>
      <trkpt lat="44.00061" lon="3.36426">
        <ele>689.4</ele>
        <time>2016-04-24T15:04:39Z</time>
      </trkpt>
      <trkpt lat="44.00074" lon="3.36408">
        <ele>690.36</ele>
        <time>2016-04-24T15:04:40Z</time>
      </trkpt>
      <trkpt lat="44.00086" lon="3.36391">
        <ele>690.84</ele>
        <time>2016-04-24T15:04:41Z</time>
      </trkpt>
      <trkpt lat="44.00098" lon="3.36374">
        <ele>691.81</ele>
        <time>2016-04-24T15:04:42Z</time>
      </trkpt>
      <trkpt lat="44.00135" lon="3.36339">
        <ele>694.21</ele>
        <time>2016-04-24T15:04:45Z</time>
      </trkpt>
      <trkpt lat="44.00164" lon="3.36315">
        <ele>696.61</ele>
        <time>2016-04-24T15:04:48Z</time>
      </trkpt>
      <trkpt lat="44.00168" lon="3.36304">
        <ele>697.57</ele>
        <time>2016-04-24T15:04:49Z</time>
      </trkpt>
      <trkpt lat="44.00165" lon="3.36293">
        <ele>697.57</ele>
        <time>2016-04-24T15:04:50Z</time>
      </trkpt>
      <trkpt lat="44.00161" lon="3.36287">
        <ele>697.09</ele>
        <time>2016-04-24T15:04:51Z</time>
      </trkpt>
      <trkpt lat="44.00153" lon="3.36287">
        <ele>697.09</ele>
        <time>2016-04-24T15:04:52Z</time>
      </trkpt>
      <trkpt lat="44.00138" lon="3.36296">
        <ele>697.57</ele>
        <time>2016-04-24T15:04:53Z</time>
      </trkpt>
      <trkpt lat="44.00124" lon="3.36306">
        <ele>698.53</ele>
        <time>2016-04-24T15:04:54Z</time>
      </trkpt>
      <trkpt lat="44.00033" lon="3.36338">
        <ele>702.86</ele>
        <time>2016-04-24T15:04:59Z</time>
      </trkpt>
      <trkpt lat="43.99998" lon="3.36342">
        <ele>704.78</ele>
        <time>2016-04-24T15:05:01Z</time>
      </trkpt>
      <trkpt lat="43.99981" lon="3.36349">
        <ele>705.75</ele>
        <time>2016-04-24T15:05:02Z</time>
      </trkpt>
      <trkpt lat="43.99965" lon="3.3636">
        <ele>706.71</ele>
        <time>2016-04-24T15:05:03Z</time>
      </trkpt>
      <trkpt lat="43.99951" lon="3.36371">
        <ele>707.67</ele>
        <time>2016-04-24T15:05:04Z</time>
      </trkpt>
      <trkpt lat="43.99938" lon="3.36381">
        <ele>708.63</ele>
        <time>2016-04-24T15:05:05Z</time>
      </trkpt>
      <trkpt lat="43.99925" lon="3.36391">
        <ele>710.07</ele>
        <time>2016-04-24T15:05:06Z</time>
      </trkpt>
      <trkpt lat="43.99912" lon="3.364">
        <ele>711.99</ele>
        <time>2016-04-24T15:05:07Z</time>
      </trkpt>
      <trkpt lat="43.99898" lon="3.36406">
        <ele>712.95</ele>
        <time>2016-04-24T15:05:08Z</time>
      </trkpt>
      <trkpt lat="43.99879" lon="3.36411">
        <ele>713.92</ele>
        <time>2016-04-24T15:05:09Z</time>
      </trkpt>
      <trkpt lat="43.99858" lon="3.36405">
        <ele>716.8</ele>
        <time>2016-04-24T15:05:10Z</time>
      </trkpt>
      <trkpt lat="43.99835" lon="3.36407">
        <ele>719.2</ele>
        <time>2016-04-24T15:05:11Z</time>
      </trkpt>
      <trkpt lat="43.99705" lon="3.36413">
        <ele>728.34</ele>
        <time>2016-04-24T15:05:16Z</time>
      </trkpt>
      <trkpt lat="43.99629" lon="3.36432">
        <ele>731.7</ele>
        <time>2016-04-24T15:05:20Z</time>
      </trkpt>
      <trkpt lat="43.9961" lon="3.36452">
        <ele>733.14</ele>
        <time>2016-04-24T15:05:21Z</time>
      </trkpt>
      <trkpt lat="43.99592" lon="3.36472">
        <ele>733.62</ele>
        <time>2016-04-24T15:05:22Z</time>
      </trkpt>
      <trkpt lat="43.99575" lon="3.36492">
        <ele>734.58</ele>
        <time>2016-04-24T15:05:23Z</time>
      </trkpt>
      <trkpt lat="43.99559" lon="3.36514">
        <ele>735.55</ele>
        <time>2016-04-24T15:05:24Z</time>
      </trkpt>
      <trkpt lat="43.99545" lon="3.36538">
        <ele>736.03</ele>
        <time>2016-04-24T15:05:25Z</time>
      </trkpt>
      <trkpt lat="43.99532" lon="3.36563">
        <ele>736.99</ele>
        <time>2016-04-24T15:05:26Z</time>
      </trkpt>
      <trkpt lat="43.9952" lon="3.36589">
        <ele>737.95</ele>
        <time>2016-04-24T15:05:27Z</time>
      </trkpt>
      <trkpt lat="43.99458" lon="3.36664">
        <ele>744.2</ele>
        <time>2016-04-24T15:05:32Z</time>
      </trkpt>
      <trkpt lat="43.99442" lon="3.3667">
        <ele>745.64</ele>
        <time>2016-04-24T15:05:33Z</time>
      </trkpt>
      <trkpt lat="43.99423" lon="3.3667">
        <ele>747.08</ele>
        <time>2016-04-24T15:05:34Z</time>
      </trkpt>
      <trkpt lat="43.99403" lon="3.36666">
        <ele>749</ele>
        <time>2016-04-24T15:05:35Z</time>
      </trkpt>
      <trkpt lat="43.99382" lon="3.36656">
        <ele>750.45</ele>
        <time>2016-04-24T15:05:36Z</time>
      </trkpt>
      <trkpt lat="43.99362" lon="3.3665">
        <ele>750.93</ele>
        <time>2016-04-24T15:05:37Z</time>
      </trkpt>
      <trkpt lat="43.99342" lon="3.36644">
        <ele>751.89</ele>
        <time>2016-04-24T15:05:38Z</time>
      </trkpt>
      <trkpt lat="43.99286" lon="3.36647">
        <ele>755.73</ele>
        <time>2016-04-24T15:05:42Z</time>
      </trkpt>
      <trkpt lat="43.99278" lon="3.36663">
        <ele>756.69</ele>
        <time>2016-04-24T15:05:43Z</time>
      </trkpt>
      <trkpt lat="43.99272" lon="3.36683">
        <ele>757.66</ele>
        <time>2016-04-24T15:05:44Z</time>
      </trkpt>
      <trkpt lat="43.99272" lon="3.3671">
        <ele>758.14</ele>
        <time>2016-04-24T15:05:45Z</time>
      </trkpt>
      <trkpt lat="43.99273" lon="3.36733">
        <ele>759.1</ele>
        <time>2016-04-24T15:05:46Z</time>
      </trkpt>
      <trkpt lat="43.99273" lon="3.36757">
        <ele>760.06</ele>
        <time>2016-04-24T15:05:47Z</time>
      </trkpt>
      <trkpt lat="43.99258" lon="3.3687">
        <ele>766.31</ele>
        <time>2016-04-24T15:05:53Z</time>
      </trkpt>
      <trkpt lat="43.99257" lon="3.36886">
        <ele>766.79</ele>
        <time>2016-04-24T15:05:54Z</time>
      </trkpt>
      <trkpt lat="43.99258" lon="3.36901">
        <ele>766.31</ele>
        <time>2016-04-24T15:05:55Z</time>
      </trkpt>
      <trkpt lat="43.99261" lon="3.36915">
        <ele>766.79</ele>
        <time>2016-04-24T15:05:56Z</time>
      </trkpt>
      <trkpt lat="43.99267" lon="3.36927">
        <ele>767.75</ele>
        <time>2016-04-24T15:05:57Z</time>
      </trkpt>
      <trkpt lat="43.99276" lon="3.3694">
        <ele>768.23</ele>
        <time>2016-04-24T15:05:58Z</time>
      </trkpt>
      <trkpt lat="43.99283" lon="3.36954">
        <ele>768.71</ele>
        <time>2016-04-24T15:05:59Z</time>
      </trkpt>
      <trkpt lat="43.99288" lon="3.36971">
        <ele>768.71</ele>
        <time>2016-04-24T15:06:00Z</time>
      </trkpt>
      <trkpt lat="43.9929" lon="3.3699">
        <ele>769.67</ele>
        <time>2016-04-24T15:06:01Z</time>
      </trkpt>
      <trkpt lat="43.9929" lon="3.3701">
        <ele>770.15</ele>
        <time>2016-04-24T15:06:02Z</time>
      </trkpt>
      <trkpt lat="43.99288" lon="3.37031">
        <ele>770.63</ele>
        <time>2016-04-24T15:06:03Z</time>
      </trkpt>
      <trkpt lat="43.99282" lon="3.37051">
        <ele>772.08</ele>
        <time>2016-04-24T15:06:04Z</time>
      </trkpt>
      <trkpt lat="43.99274" lon="3.37071">
        <ele>773.52</ele>
        <time>2016-04-24T15:06:05Z</time>
      </trkpt>
      <trkpt lat="43.99263" lon="3.37091">
        <ele>774.96</ele>
        <time>2016-04-24T15:06:06Z</time>
      </trkpt>
      <trkpt lat="43.99249" lon="3.37113">
        <ele>776.88</ele>
        <time>2016-04-24T15:06:07Z</time>
      </trkpt>
      <trkpt lat="43.99232" lon="3.37134">
        <ele>777.36</ele>
        <time>2016-04-24T15:06:08Z</time>
      </trkpt>
      <trkpt lat="43.99216" lon="3.37155">
        <ele>777.84</ele>
        <time>2016-04-24T15:06:09Z</time>
      </trkpt>
      <trkpt lat="43.99148" lon="3.37205">
        <ele>782.65</ele>
        <time>2016-04-24T15:06:13Z</time>
      </trkpt>
      <trkpt lat="43.9913" lon="3.37209">
        <ele>782.17</ele>
        <time>2016-04-24T15:06:14Z</time>
      </trkpt>
      <trkpt lat="43.99111" lon="3.37213">
        <ele>782.17</ele>
        <time>2016-04-24T15:06:15Z</time>
      </trkpt>
      <trkpt lat="43.99002" lon="3.3726">
        <ele>784.57</ele>
        <time>2016-04-24T15:06:20Z</time>
      </trkpt>
      <trkpt lat="43.98897" lon="3.3732">
        <ele>785.53</ele>
        <time>2016-04-24T15:06:25Z</time>
      </trkpt>
      <trkpt lat="43.98879" lon="3.37356">
        <ele>786.5</ele>
        <time>2016-04-24T15:06:27Z</time>
      </trkpt>
      <trkpt lat="43.98874" lon="3.37375">
        <ele>787.94</ele>
        <time>2016-04-24T15:06:28Z</time>
      </trkpt>
      <trkpt lat="43.98864" lon="3.37389">
        <ele>787.94</ele>
        <time>2016-04-24T15:06:29Z</time>
      </trkpt>
      <trkpt lat="43.9885" lon="3.37395">
        <ele>787.94</ele>
        <time>2016-04-24T15:06:30Z</time>
      </trkpt>
      <trkpt lat="43.98837" lon="3.37402">
        <ele>788.9</ele>
        <time>2016-04-24T15:06:31Z</time>
      </trkpt>
      <trkpt lat="43.98822" lon="3.37407">
        <ele>788.9</ele>
        <time>2016-04-24T15:06:32Z</time>
      </trkpt>
      <trkpt lat="43.98804" lon="3.37418">
        <ele>788.9</ele>
        <time>2016-04-24T15:06:33Z</time>
      </trkpt>
      <trkpt lat="43.98757" lon="3.37412">
        <ele>791.3</ele>
        <time>2016-04-24T15:06:36Z</time>
      </trkpt>
      <trkpt lat="43.9874" lon="3.374">
        <ele>793.22</ele>
        <time>2016-04-24T15:06:37Z</time>
      </trkpt>
      <trkpt lat="43.98727" lon="3.37388">
        <ele>794.67</ele>
        <time>2016-04-24T15:06:38Z</time>
      </trkpt>
      <trkpt lat="43.98699" lon="3.37371">
        <ele>796.59</ele>
        <time>2016-04-24T15:06:40Z</time>
      </trkpt>
      <trkpt lat="43.98684" lon="3.37369">
        <ele>797.07</ele>
        <time>2016-04-24T15:06:41Z</time>
      </trkpt>
      <trkpt lat="43.98667" lon="3.37377">
        <ele>797.55</ele>
        <time>2016-04-24T15:06:42Z</time>
      </trkpt>
      <trkpt lat="43.9865" lon="3.37389">
        <ele>798.51</ele>
        <time>2016-04-24T15:06:43Z</time>
      </trkpt>
      <trkpt lat="43.98634" lon="3.37402">
        <ele>798.51</ele>
        <time>2016-04-24T15:06:44Z</time>
      </trkpt>
      <trkpt lat="43.98618" lon="3.37413">
        <ele>798.99</ele>
        <time>2016-04-24T15:06:45Z</time>
      </trkpt>
      <trkpt lat="43.98602" lon="3.37421">
        <ele>800.44</ele>
        <time>2016-04-24T15:06:46Z</time>
      </trkpt>
      <trkpt lat="43.98586" lon="3.37424">
        <ele>800.92</ele>
        <time>2016-04-24T15:06:47Z</time>
      </trkpt>
      <trkpt lat="43.9857" lon="3.37422">
        <ele>800.92</ele>
        <time>2016-04-24T15:06:48Z</time>
      </trkpt>
      <trkpt lat="43.98555" lon="3.37417">
        <ele>801.4</ele>
        <time>2016-04-24T15:06:49Z</time>
      </trkpt>
      <trkpt lat="43.98542" lon="3.37407">
        <ele>800.92</ele>
        <time>2016-04-24T15:06:50Z</time>
      </trkpt>
      <trkpt lat="43.9853" lon="3.37392">
        <ele>800.92</ele>
        <time>2016-04-24T15:06:51Z</time>
      </trkpt>
      <trkpt lat="43.98519" lon="3.37372">
        <ele>800.92</ele>
        <time>2016-04-24T15:06:52Z</time>
      </trkpt>
      <trkpt lat="43.98508" lon="3.3735">
        <ele>800.92</ele>
        <time>2016-04-24T15:06:53Z</time>
      </trkpt>
      <trkpt lat="43.98497" lon="3.37326">
        <ele>799.47</ele>
        <time>2016-04-24T15:06:54Z</time>
      </trkpt>
      <trkpt lat="43.98448" lon="3.37244">
        <ele>794.67</ele>
        <time>2016-04-24T15:06:58Z</time>
      </trkpt>
      <trkpt lat="43.98433" lon="3.37235">
        <ele>793.22</ele>
        <time>2016-04-24T15:06:59Z</time>
      </trkpt>
      <trkpt lat="43.98416" lon="3.3723">
        <ele>791.78</ele>
        <time>2016-04-24T15:07:00Z</time>
      </trkpt>
      <trkpt lat="43.98397" lon="3.3723">
        <ele>790.34</ele>
        <time>2016-04-24T15:07:01Z</time>
      </trkpt>
      <trkpt lat="43.98375" lon="3.3723">
        <ele>788.9</ele>
        <time>2016-04-24T15:07:02Z</time>
      </trkpt>
      <trkpt lat="43.98353" lon="3.37229">
        <ele>787.46</ele>
        <time>2016-04-24T15:07:03Z</time>
      </trkpt>
      <trkpt lat="43.98331" lon="3.37226">
        <ele>786.02</ele>
        <time>2016-04-24T15:07:04Z</time>
      </trkpt>
      <trkpt lat="43.98307" lon="3.37217">
        <ele>785.05</ele>
        <time>2016-04-24T15:07:05Z</time>
      </trkpt>
      <trkpt lat="43.98284" lon="3.37202">
        <ele>784.09</ele>
        <time>2016-04-24T15:07:06Z</time>
      </trkpt>
      <trkpt lat="43.98262" lon="3.37186">
        <ele>783.61</ele>
        <time>2016-04-24T15:07:07Z</time>
      </trkpt>
      <trkpt lat="43.98242" lon="3.37169">
        <ele>783.13</ele>
        <time>2016-04-24T15:07:08Z</time>
      </trkpt>
      <trkpt lat="43.98169" lon="3.37119">
        <ele>779.77</ele>
        <time>2016-04-24T15:07:12Z</time>
      </trkpt>
      <trkpt lat="43.9815" lon="3.37116">
        <ele>777.84</ele>
        <time>2016-04-24T15:07:13Z</time>
      </trkpt>
      <trkpt lat="43.98129" lon="3.37117">
        <ele>776.4</ele>
        <time>2016-04-24T15:07:14Z</time>
      </trkpt>
      <trkpt lat="43.98107" lon="3.37123">
        <ele>774.96</ele>
        <time>2016-04-24T15:07:15Z</time>
      </trkpt>
      <trkpt lat="43.98084" lon="3.3713">
        <ele>773.52</ele>
        <time>2016-04-24T15:07:16Z</time>
      </trkpt>
      <trkpt lat="43.97962" lon="3.37149">
        <ele>767.27</ele>
        <time>2016-04-24T15:07:22Z</time>
      </trkpt>
      <trkpt lat="43.97948" lon="3.37137">
        <ele>765.35</ele>
        <time>2016-04-24T15:07:23Z</time>
      </trkpt>
      <trkpt lat="43.97932" lon="3.37122">
        <ele>763.9</ele>
        <time>2016-04-24T15:07:24Z</time>
      </trkpt>
      <trkpt lat="43.97795" lon="3.36996">
        <ele>754.29</ele>
        <time>2016-04-24T15:07:31Z</time>
      </trkpt>
      <trkpt lat="43.97681" lon="3.36893">
        <ele>744.2</ele>
        <time>2016-04-24T15:07:38Z</time>
      </trkpt>
      <trkpt lat="43.97663" lon="3.36887">
        <ele>743.24</ele>
        <time>2016-04-24T15:07:39Z</time>
      </trkpt>
      <trkpt lat="43.97544" lon="3.36851">
        <ele>736.51</ele>
        <time>2016-04-24T15:07:46Z</time>
      </trkpt>
      <trkpt lat="43.97531" lon="3.36845">
        <ele>736.03</ele>
        <time>2016-04-24T15:07:47Z</time>
      </trkpt>
      <trkpt lat="43.97519" lon="3.36839">
        <ele>735.55</ele>
        <time>2016-04-24T15:07:48Z</time>
      </trkpt>
      <trkpt lat="43.9745" lon="3.36801">
        <ele>730.74</ele>
        <time>2016-04-24T15:07:56Z</time>
      </trkpt>
      <trkpt lat="43.97444" lon="3.36799">
        <ele>729.3</ele>
        <time>2016-04-24T15:08:03Z</time>
      </trkpt>
      <trkpt lat="43.97439" lon="3.36798">
        <ele>729.3</ele>
        <time>2016-04-24T15:08:06Z</time>
      </trkpt>
      <trkpt lat="43.97434" lon="3.36802">
        <ele>728.82</ele>
        <time>2016-04-24T15:08:07Z</time>
      </trkpt>
      <trkpt lat="43.97428" lon="3.36812">
        <ele>727.86</ele>
        <time>2016-04-24T15:08:08Z</time>
      </trkpt>
      <trkpt lat="43.97422" lon="3.36825">
        <ele>727.86</ele>
        <time>2016-04-24T15:08:09Z</time>
      </trkpt>
      <trkpt lat="43.97414" lon="3.36838">
        <ele>727.86</ele>
        <time>2016-04-24T15:08:10Z</time>
      </trkpt>
      <trkpt lat="43.97405" lon="3.3685">
        <ele>727.37</ele>
        <time>2016-04-24T15:08:11Z</time>
      </trkpt>
      <trkpt lat="43.97336" lon="3.36951">
        <ele>727.37</ele>
        <time>2016-04-24T15:08:19Z</time>
      </trkpt>
      <trkpt lat="43.97329" lon="3.36968">
        <ele>727.37</ele>
        <time>2016-04-24T15:08:20Z</time>
      </trkpt>
      <trkpt lat="43.97322" lon="3.36985">
        <ele>727.86</ele>
        <time>2016-04-24T15:08:21Z</time>
      </trkpt>
      <trkpt lat="43.97317" lon="3.37005">
        <ele>728.82</ele>
        <time>2016-04-24T15:08:22Z</time>
      </trkpt>
      <trkpt lat="43.97313" lon="3.37025">
        <ele>729.3</ele>
        <time>2016-04-24T15:08:23Z</time>
      </trkpt>
      <trkpt lat="43.9731" lon="3.37046">
        <ele>729.78</ele>
        <time>2016-04-24T15:08:24Z</time>
      </trkpt>
      <trkpt lat="43.97293" lon="3.37135">
        <ele>731.7</ele>
        <time>2016-04-24T15:08:28Z</time>
      </trkpt>
      <trkpt lat="43.97285" lon="3.37156">
        <ele>732.18</ele>
        <time>2016-04-24T15:08:29Z</time>
      </trkpt>
      <trkpt lat="43.97236" lon="3.37329">
        <ele>734.1</ele>
        <time>2016-04-24T15:08:36Z</time>
      </trkpt>
      <trkpt lat="43.97236" lon="3.37359">
        <ele>735.07</ele>
        <time>2016-04-24T15:08:37Z</time>
      </trkpt>
      <trkpt lat="43.97237" lon="3.3739">
        <ele>735.55</ele>
        <time>2016-04-24T15:08:38Z</time>
      </trkpt>
      <trkpt lat="43.97249" lon="3.37541">
        <ele>736.99</ele>
        <time>2016-04-24T15:08:43Z</time>
      </trkpt>
      <trkpt lat="43.97255" lon="3.37569">
        <ele>736.99</ele>
        <time>2016-04-24T15:08:44Z</time>
      </trkpt>
      <trkpt lat="43.97265" lon="3.37597">
        <ele>737.47</ele>
        <time>2016-04-24T15:08:45Z</time>
      </trkpt>
      <trkpt lat="43.97275" lon="3.37625">
        <ele>737.47</ele>
        <time>2016-04-24T15:08:46Z</time>
      </trkpt>
      <trkpt lat="43.97283" lon="3.37655">
        <ele>737.47</ele>
        <time>2016-04-24T15:08:47Z</time>
      </trkpt>
      <trkpt lat="43.97289" lon="3.37689">
        <ele>737.95</ele>
        <time>2016-04-24T15:08:48Z</time>
      </trkpt>
      <trkpt lat="43.97293" lon="3.37721">
        <ele>738.43</ele>
        <time>2016-04-24T15:08:49Z</time>
      </trkpt>
      <trkpt lat="43.97331" lon="3.38056">
        <ele>740.83</ele>
        <time>2016-04-24T15:08:59Z</time>
      </trkpt>
      <trkpt lat="43.97346" lon="3.38151">
        <ele>741.79</ele>
        <time>2016-04-24T15:09:03Z</time>
      </trkpt>
      <trkpt lat="43.97345" lon="3.38169">
        <ele>742.28</ele>
        <time>2016-04-24T15:09:04Z</time>
      </trkpt>
      <trkpt lat="43.97342" lon="3.38186">
        <ele>742.76</ele>
        <time>2016-04-24T15:09:05Z</time>
      </trkpt>
      <trkpt lat="43.97333" lon="3.38197">
        <ele>742.76</ele>
        <time>2016-04-24T15:09:06Z</time>
      </trkpt>
      <trkpt lat="43.9732" lon="3.38206">
        <ele>742.76</ele>
        <time>2016-04-24T15:09:07Z</time>
      </trkpt>
      <trkpt lat="43.97306" lon="3.38212">
        <ele>743.24</ele>
        <time>2016-04-24T15:09:08Z</time>
      </trkpt>
      <trkpt lat="43.97292" lon="3.38216">
        <ele>742.76</ele>
        <time>2016-04-24T15:09:09Z</time>
      </trkpt>
      <trkpt lat="43.97278" lon="3.3822">
        <ele>743.24</ele>
        <time>2016-04-24T15:09:10Z</time>
      </trkpt>
      <trkpt lat="43.97265" lon="3.38227">
        <ele>743.24</ele>
        <time>2016-04-24T15:09:11Z</time>
      </trkpt>
      <trkpt lat="43.97256" lon="3.38241">
        <ele>743.24</ele>
        <time>2016-04-24T15:09:12Z</time>
      </trkpt>
      <trkpt lat="43.97249" lon="3.38262">
        <ele>743.72</ele>
        <time>2016-04-24T15:09:13Z</time>
      </trkpt>
      <trkpt lat="43.97247" lon="3.38286">
        <ele>743.24</ele>
        <time>2016-04-24T15:09:14Z</time>
      </trkpt>
      <trkpt lat="43.97245" lon="3.38313">
        <ele>743.72</ele>
        <time>2016-04-24T15:09:15Z</time>
      </trkpt>
      <trkpt lat="43.97243" lon="3.38339">
        <ele>744.2</ele>
        <time>2016-04-24T15:09:16Z</time>
      </trkpt>
      <trkpt lat="43.97241" lon="3.38534">
        <ele>746.6</ele>
        <time>2016-04-24T15:09:23Z</time>
      </trkpt>
      <trkpt lat="43.97235" lon="3.38558">
        <ele>747.08</ele>
        <time>2016-04-24T15:09:24Z</time>
      </trkpt>
      <trkpt lat="43.97228" lon="3.38583">
        <ele>747.56</ele>
        <time>2016-04-24T15:09:25Z</time>
      </trkpt>
      <trkpt lat="43.97218" lon="3.38608">
        <ele>748.52</ele>
        <time>2016-04-24T15:09:26Z</time>
      </trkpt>
      <trkpt lat="43.97207" lon="3.38634">
        <ele>749.49</ele>
        <time>2016-04-24T15:09:27Z</time>
      </trkpt>
      <trkpt lat="43.97127" lon="3.38829">
        <ele>754.29</ele>
        <time>2016-04-24T15:09:34Z</time>
      </trkpt>
      <trkpt lat="43.97096" lon="3.38895">
        <ele>756.21</ele>
        <time>2016-04-24T15:09:37Z</time>
      </trkpt>
      <trkpt lat="43.97082" lon="3.38905">
        <ele>756.69</ele>
        <time>2016-04-24T15:09:38Z</time>
      </trkpt>
      <trkpt lat="43.97065" lon="3.38909">
        <ele>757.18</ele>
        <time>2016-04-24T15:09:39Z</time>
      </trkpt>
      <trkpt lat="43.97049" lon="3.38915">
        <ele>758.14</ele>
        <time>2016-04-24T15:09:40Z</time>
      </trkpt>
      <trkpt lat="43.97033" lon="3.38921">
        <ele>758.14</ele>
        <time>2016-04-24T15:09:41Z</time>
      </trkpt>
      <trkpt lat="43.97017" lon="3.38931">
        <ele>759.1</ele>
        <time>2016-04-24T15:09:42Z</time>
      </trkpt>
      <trkpt lat="43.97005" lon="3.38948">
        <ele>760.06</ele>
        <time>2016-04-24T15:09:43Z</time>
      </trkpt>
      <trkpt lat="43.96995" lon="3.3897">
        <ele>760.54</ele>
        <time>2016-04-24T15:09:44Z</time>
      </trkpt>
      <trkpt lat="43.96988" lon="3.38993">
        <ele>761.98</ele>
        <time>2016-04-24T15:09:45Z</time>
      </trkpt>
      <trkpt lat="43.96985" lon="3.39021">
        <ele>762.46</ele>
        <time>2016-04-24T15:09:46Z</time>
      </trkpt>
      <trkpt lat="43.96984" lon="3.3905">
        <ele>764.39</ele>
        <time>2016-04-24T15:09:47Z</time>
      </trkpt>
      <trkpt lat="43.96987" lon="3.39079">
        <ele>765.35</ele>
        <time>2016-04-24T15:09:48Z</time>
      </trkpt>
      <trkpt lat="43.9699" lon="3.39109">
        <ele>766.79</ele>
        <time>2016-04-24T15:09:49Z</time>
      </trkpt>
      <trkpt lat="43.97012" lon="3.39271">
        <ele>773.52</ele>
        <time>2016-04-24T15:09:55Z</time>
      </trkpt>
      <trkpt lat="43.97012" lon="3.39294">
        <ele>774.48</ele>
        <time>2016-04-24T15:09:56Z</time>
      </trkpt>
      <trkpt lat="43.97009" lon="3.39318">
        <ele>775.92</ele>
        <time>2016-04-24T15:09:57Z</time>
      </trkpt>
      <trkpt lat="43.97003" lon="3.39344">
        <ele>777.36</ele>
        <time>2016-04-24T15:09:58Z</time>
      </trkpt>
      <trkpt lat="43.96997" lon="3.39371">
        <ele>778.81</ele>
        <time>2016-04-24T15:09:59Z</time>
      </trkpt>
      <trkpt lat="43.96935" lon="3.39648">
        <ele>793.22</ele>
        <time>2016-04-24T15:10:09Z</time>
      </trkpt>
      <trkpt lat="43.96924" lon="3.39666">
        <ele>794.19</ele>
        <time>2016-04-24T15:10:10Z</time>
      </trkpt>
      <trkpt lat="43.96907" lon="3.3968">
        <ele>795.15</ele>
        <time>2016-04-24T15:10:11Z</time>
      </trkpt>
      <trkpt lat="43.96891" lon="3.39696">
        <ele>796.11</ele>
        <time>2016-04-24T15:10:12Z</time>
      </trkpt>
      <trkpt lat="43.96877" lon="3.39714">
        <ele>797.07</ele>
        <time>2016-04-24T15:10:13Z</time>
      </trkpt>
      <trkpt lat="43.96865" lon="3.39738">
        <ele>798.51</ele>
        <time>2016-04-24T15:10:14Z</time>
      </trkpt>
      <trkpt lat="43.96854" lon="3.39762">
        <ele>799.47</ele>
        <time>2016-04-24T15:10:15Z</time>
      </trkpt>
      <trkpt lat="43.96844" lon="3.39783">
        <ele>800.92</ele>
        <time>2016-04-24T15:10:16Z</time>
      </trkpt>
      <trkpt lat="43.96832" lon="3.39802">
        <ele>801.4</ele>
        <time>2016-04-24T15:10:17Z</time>
      </trkpt>
      <trkpt lat="43.96818" lon="3.39816">
        <ele>803.32</ele>
        <time>2016-04-24T15:10:18Z</time>
      </trkpt>
      <trkpt lat="43.96804" lon="3.39831">
        <ele>804.28</ele>
        <time>2016-04-24T15:10:19Z</time>
      </trkpt>
      <trkpt lat="43.96794" lon="3.39847">
        <ele>805.24</ele>
        <time>2016-04-24T15:10:20Z</time>
      </trkpt>
      <trkpt lat="43.96785" lon="3.39868">
        <ele>806.68</ele>
        <time>2016-04-24T15:10:21Z</time>
      </trkpt>
      <trkpt lat="43.96782" lon="3.39892">
        <ele>807.16</ele>
        <time>2016-04-24T15:10:22Z</time>
      </trkpt>
      <trkpt lat="43.96734" lon="3.40067">
        <ele>813.41</ele>
        <time>2016-04-24T15:10:29Z</time>
      </trkpt>
      <trkpt lat="43.96705" lon="3.40166">
        <ele>813.41</ele>
        <time>2016-04-24T15:10:33Z</time>
      </trkpt>
      <trkpt lat="43.96695" lon="3.40188">
        <ele>813.89</ele>
        <time>2016-04-24T15:10:34Z</time>
      </trkpt>
      <trkpt lat="43.96683" lon="3.40208">
        <ele>813.89</ele>
        <time>2016-04-24T15:10:35Z</time>
      </trkpt>
      <trkpt lat="43.96671" lon="3.40228">
        <ele>813.89</ele>
        <time>2016-04-24T15:10:36Z</time>
      </trkpt>
      <trkpt lat="43.96662" lon="3.4025">
        <ele>813.89</ele>
        <time>2016-04-24T15:10:37Z</time>
      </trkpt>
      <trkpt lat="43.96659" lon="3.40272">
        <ele>813.89</ele>
        <time>2016-04-24T15:10:38Z</time>
      </trkpt>
      <trkpt lat="43.96663" lon="3.40296">
        <ele>813.41</ele>
        <time>2016-04-24T15:10:39Z</time>
      </trkpt>
      <trkpt lat="43.96667" lon="3.40321">
        <ele>813.41</ele>
        <time>2016-04-24T15:10:40Z</time>
      </trkpt>
      <trkpt lat="43.96672" lon="3.40348">
        <ele>813.41</ele>
        <time>2016-04-24T15:10:41Z</time>
      </trkpt>
      <trkpt lat="43.96718" lon="3.40601">
        <ele>809.57</ele>
        <time>2016-04-24T15:10:50Z</time>
      </trkpt>
      <trkpt lat="43.96732" lon="3.40647">
        <ele>808.13</ele>
        <time>2016-04-24T15:10:52Z</time>
      </trkpt>
      <trkpt lat="43.96741" lon="3.40667">
        <ele>807.64</ele>
        <time>2016-04-24T15:10:53Z</time>
      </trkpt>
      <trkpt lat="43.96752" lon="3.40684">
        <ele>806.68</ele>
        <time>2016-04-24T15:10:54Z</time>
      </trkpt>
      <trkpt lat="43.96768" lon="3.40694">
        <ele>805.72</ele>
        <time>2016-04-24T15:10:55Z</time>
      </trkpt>
      <trkpt lat="43.96785" lon="3.40701">
        <ele>804.76</ele>
        <time>2016-04-24T15:10:56Z</time>
      </trkpt>
      <trkpt lat="43.96802" lon="3.40707">
        <ele>804.28</ele>
        <time>2016-04-24T15:10:57Z</time>
      </trkpt>
      <trkpt lat="43.96821" lon="3.40712">
        <ele>803.32</ele>
        <time>2016-04-24T15:10:58Z</time>
      </trkpt>
      <trkpt lat="43.96839" lon="3.40713">
        <ele>802.36</ele>
        <time>2016-04-24T15:10:59Z</time>
      </trkpt>
      <trkpt lat="43.96857" lon="3.40714">
        <ele>801.88</ele>
        <time>2016-04-24T15:11:00Z</time>
      </trkpt>
      <trkpt lat="43.96885" lon="3.4072">
        <ele>799.95</ele>
        <time>2016-04-24T15:11:02Z</time>
      </trkpt>
      <trkpt lat="43.96897" lon="3.4073">
        <ele>798.99</ele>
        <time>2016-04-24T15:11:03Z</time>
      </trkpt>
      <trkpt lat="43.96905" lon="3.40746">
        <ele>798.51</ele>
        <time>2016-04-24T15:11:04Z</time>
      </trkpt>
      <trkpt lat="43.96912" lon="3.40764">
        <ele>797.55</ele>
        <time>2016-04-24T15:11:05Z</time>
      </trkpt>
      <trkpt lat="43.96917" lon="3.40782">
        <ele>797.55</ele>
        <time>2016-04-24T15:11:06Z</time>
      </trkpt>
      <trkpt lat="43.96925" lon="3.40796">
        <ele>797.07</ele>
        <time>2016-04-24T15:11:07Z</time>
      </trkpt>
      <trkpt lat="43.96934" lon="3.40807">
        <ele>796.59</ele>
        <time>2016-04-24T15:11:08Z</time>
      </trkpt>
      <trkpt lat="43.96945" lon="3.40813">
        <ele>796.11</ele>
        <time>2016-04-24T15:11:09Z</time>
      </trkpt>
      <trkpt lat="43.9696" lon="3.40813">
        <ele>794.67</ele>
        <time>2016-04-24T15:11:10Z</time>
      </trkpt>
      <trkpt lat="43.96972" lon="3.40805">
        <ele>793.22</ele>
        <time>2016-04-24T15:11:11Z</time>
      </trkpt>
      <trkpt lat="43.96982" lon="3.40795">
        <ele>792.26</ele>
        <time>2016-04-24T15:11:12Z</time>
      </trkpt>
      <trkpt lat="43.9699" lon="3.40783">
        <ele>791.3</ele>
        <time>2016-04-24T15:11:13Z</time>
      </trkpt>
      <trkpt lat="43.96997" lon="3.40768">
        <ele>791.78</ele>
        <time>2016-04-24T15:11:14Z</time>
      </trkpt>
      <trkpt lat="43.97004" lon="3.40758">
        <ele>791.3</ele>
        <time>2016-04-24T15:11:15Z</time>
      </trkpt>
      <trkpt lat="43.97016" lon="3.40755">
        <ele>790.34</ele>
        <time>2016-04-24T15:11:16Z</time>
      </trkpt>
      <trkpt lat="43.97028" lon="3.4076">
        <ele>788.9</ele>
        <time>2016-04-24T15:11:17Z</time>
      </trkpt>
      <trkpt lat="43.9704" lon="3.40773">
        <ele>787.46</ele>
        <time>2016-04-24T15:11:18Z</time>
      </trkpt>
      <trkpt lat="43.97051" lon="3.40786">
        <ele>787.46</ele>
        <time>2016-04-24T15:11:19Z</time>
      </trkpt>
      <trkpt lat="43.97063" lon="3.40798">
        <ele>786.02</ele>
        <time>2016-04-24T15:11:20Z</time>
      </trkpt>
      <trkpt lat="43.97076" lon="3.40806">
        <ele>785.53</ele>
        <time>2016-04-24T15:11:21Z</time>
      </trkpt>
      <trkpt lat="43.97089" lon="3.40809">
        <ele>785.05</ele>
        <time>2016-04-24T15:11:22Z</time>
      </trkpt>
      <trkpt lat="43.97105" lon="3.40809">
        <ele>784.57</ele>
        <time>2016-04-24T15:11:23Z</time>
      </trkpt>
      <trkpt lat="43.9712" lon="3.40808">
        <ele>784.09</ele>
        <time>2016-04-24T15:11:24Z</time>
      </trkpt>
      <trkpt lat="43.97135" lon="3.40803">
        <ele>783.61</ele>
        <time>2016-04-24T15:11:25Z</time>
      </trkpt>
      <trkpt lat="43.97146" lon="3.40802">
        <ele>784.09</ele>
        <time>2016-04-24T15:11:26Z</time>
      </trkpt>
      <trkpt lat="43.97157" lon="3.40801">
        <ele>784.09</ele>
        <time>2016-04-24T15:11:27Z</time>
      </trkpt>
      <trkpt lat="43.97167" lon="3.40805">
        <ele>783.61</ele>
        <time>2016-04-24T15:11:28Z</time>
      </trkpt>
      <trkpt lat="43.97175" lon="3.40819">
        <ele>781.21</ele>
        <time>2016-04-24T15:11:29Z</time>
      </trkpt>
      <trkpt lat="43.9718" lon="3.40839">
        <ele>781.21</ele>
        <time>2016-04-24T15:11:30Z</time>
      </trkpt>
      <trkpt lat="43.97185" lon="3.40862">
        <ele>780.73</ele>
        <time>2016-04-24T15:11:31Z</time>
      </trkpt>
      <trkpt lat="43.97188" lon="3.40886">
        <ele>780.25</ele>
        <time>2016-04-24T15:11:32Z</time>
      </trkpt>
      <trkpt lat="43.9719" lon="3.40912">
        <ele>779.29</ele>
        <time>2016-04-24T15:11:33Z</time>
      </trkpt>
      <trkpt lat="43.9719" lon="3.40938">
        <ele>778.81</ele>
        <time>2016-04-24T15:11:34Z</time>
      </trkpt>
      <trkpt lat="43.97188" lon="3.40965">
        <ele>778.32</ele>
        <time>2016-04-24T15:11:35Z</time>
      </trkpt>
      <trkpt lat="43.97187" lon="3.41053">
        <ele>776.4</ele>
        <time>2016-04-24T15:11:39Z</time>
      </trkpt>
      <trkpt lat="43.97192" lon="3.41068">
        <ele>775.92</ele>
        <time>2016-04-24T15:11:40Z</time>
      </trkpt>
      <trkpt lat="43.97199" lon="3.41079">
        <ele>775.44</ele>
        <time>2016-04-24T15:11:41Z</time>
      </trkpt>
      <trkpt lat="43.9721" lon="3.41085">
        <ele>774.96</ele>
        <time>2016-04-24T15:11:42Z</time>
      </trkpt>
      <trkpt lat="43.97224" lon="3.41082">
        <ele>774</ele>
        <time>2016-04-24T15:11:43Z</time>
      </trkpt>
      <trkpt lat="43.9724" lon="3.41075">
        <ele>773.52</ele>
        <time>2016-04-24T15:11:44Z</time>
      </trkpt>
      <trkpt lat="43.97263" lon="3.41067">
        <ele>774.96</ele>
        <time>2016-04-24T15:11:45Z</time>
      </trkpt>
      <trkpt lat="43.97283" lon="3.41059">
        <ele>774.96</ele>
        <time>2016-04-24T15:11:46Z</time>
      </trkpt>
      <trkpt lat="43.97354" lon="3.41071">
        <ele>774</ele>
        <time>2016-04-24T15:11:51Z</time>
      </trkpt>
      <trkpt lat="43.97359" lon="3.41085">
        <ele>772.56</ele>
        <time>2016-04-24T15:11:52Z</time>
      </trkpt>
      <trkpt lat="43.9736" lon="3.41105">
        <ele>772.56</ele>
        <time>2016-04-24T15:11:53Z</time>
      </trkpt>
      <trkpt lat="43.97362" lon="3.41122">
        <ele>771.6</ele>
        <time>2016-04-24T15:11:54Z</time>
      </trkpt>
      <trkpt lat="43.97367" lon="3.41137">
        <ele>770.15</ele>
        <time>2016-04-24T15:11:55Z</time>
      </trkpt>
      <trkpt lat="43.97376" lon="3.41147">
        <ele>768.23</ele>
        <time>2016-04-24T15:11:56Z</time>
      </trkpt>
      <trkpt lat="43.97388" lon="3.41152">
        <ele>766.79</ele>
        <time>2016-04-24T15:11:57Z</time>
      </trkpt>
      <trkpt lat="43.97401" lon="3.4115">
        <ele>765.35</ele>
        <time>2016-04-24T15:11:58Z</time>
      </trkpt>
      <trkpt lat="43.97416" lon="3.41148">
        <ele>764.39</ele>
        <time>2016-04-24T15:11:59Z</time>
      </trkpt>
      <trkpt lat="43.97432" lon="3.41141">
        <ele>762.94</ele>
        <time>2016-04-24T15:12:00Z</time>
      </trkpt>
      <trkpt lat="43.97448" lon="3.41134">
        <ele>762.94</ele>
        <time>2016-04-24T15:12:01Z</time>
      </trkpt>
      <trkpt lat="43.97463" lon="3.41129">
        <ele>763.9</ele>
        <time>2016-04-24T15:12:02Z</time>
      </trkpt>
      <trkpt lat="43.97477" lon="3.41126">
        <ele>763.42</ele>
        <time>2016-04-24T15:12:03Z</time>
      </trkpt>
      <trkpt lat="43.9749" lon="3.41127">
        <ele>762.94</ele>
        <time>2016-04-24T15:12:04Z</time>
      </trkpt>
      <trkpt lat="43.97499" lon="3.41135">
        <ele>762.46</ele>
        <time>2016-04-24T15:12:05Z</time>
      </trkpt>
      <trkpt lat="43.97503" lon="3.41149">
        <ele>761.5</ele>
        <time>2016-04-24T15:12:06Z</time>
      </trkpt>
      <trkpt lat="43.97503" lon="3.41165">
        <ele>760.54</ele>
        <time>2016-04-24T15:12:07Z</time>
      </trkpt>
      <trkpt lat="43.97501" lon="3.4118">
        <ele>759.1</ele>
        <time>2016-04-24T15:12:08Z</time>
      </trkpt>
      <trkpt lat="43.97494" lon="3.41198">
        <ele>759.1</ele>
        <time>2016-04-24T15:12:09Z</time>
      </trkpt>
      <trkpt lat="43.97492" lon="3.41217">
        <ele>758.14</ele>
        <time>2016-04-24T15:12:10Z</time>
      </trkpt>
      <trkpt lat="43.97493" lon="3.41236">
        <ele>756.69</ele>
        <time>2016-04-24T15:12:11Z</time>
      </trkpt>
      <trkpt lat="43.97496" lon="3.41255">
        <ele>755.73</ele>
        <time>2016-04-24T15:12:12Z</time>
      </trkpt>
      <trkpt lat="43.97504" lon="3.41272">
        <ele>751.89</ele>
        <time>2016-04-24T15:12:13Z</time>
      </trkpt>
      <trkpt lat="43.97516" lon="3.41288">
        <ele>750.45</ele>
        <time>2016-04-24T15:12:14Z</time>
      </trkpt>
      <trkpt lat="43.9753" lon="3.41303">
        <ele>749.49</ele>
        <time>2016-04-24T15:12:15Z</time>
      </trkpt>
      <trkpt lat="43.97546" lon="3.41318">
        <ele>749</ele>
        <time>2016-04-24T15:12:16Z</time>
      </trkpt>
      <trkpt lat="43.97562" lon="3.41334">
        <ele>748.04</ele>
        <time>2016-04-24T15:12:17Z</time>
      </trkpt>
      <trkpt lat="43.97576" lon="3.41354">
        <ele>747.56</ele>
        <time>2016-04-24T15:12:18Z</time>
      </trkpt>
      <trkpt lat="43.97638" lon="3.41425">
        <ele>743.24</ele>
        <time>2016-04-24T15:12:22Z</time>
      </trkpt>
      <trkpt lat="43.97656" lon="3.41438">
        <ele>742.76</ele>
        <time>2016-04-24T15:12:23Z</time>
      </trkpt>
      <trkpt lat="43.97673" lon="3.41452">
        <ele>741.79</ele>
        <time>2016-04-24T15:12:24Z</time>
      </trkpt>
      <trkpt lat="43.9769" lon="3.41468">
        <ele>740.83</ele>
        <time>2016-04-24T15:12:25Z</time>
      </trkpt>
      <trkpt lat="43.97704" lon="3.41487">
        <ele>739.39</ele>
        <time>2016-04-24T15:12:26Z</time>
      </trkpt>
      <trkpt lat="43.97719" lon="3.41507">
        <ele>738.43</ele>
        <time>2016-04-24T15:12:27Z</time>
      </trkpt>
      <trkpt lat="43.97807" lon="3.41609">
        <ele>735.07</ele>
        <time>2016-04-24T15:12:33Z</time>
      </trkpt>
      <trkpt lat="43.97821" lon="3.41617">
        <ele>734.58</ele>
        <time>2016-04-24T15:12:34Z</time>
      </trkpt>
      <trkpt lat="43.97837" lon="3.41621">
        <ele>734.58</ele>
        <time>2016-04-24T15:12:35Z</time>
      </trkpt>
      <trkpt lat="43.97851" lon="3.41623">
        <ele>734.58</ele>
        <time>2016-04-24T15:12:36Z</time>
      </trkpt>
      <trkpt lat="43.97864" lon="3.41627">
        <ele>734.58</ele>
        <time>2016-04-24T15:12:37Z</time>
      </trkpt>
      <trkpt lat="43.97874" lon="3.41632">
        <ele>734.1</ele>
        <time>2016-04-24T15:12:38Z</time>
      </trkpt>
      <trkpt lat="43.97882" lon="3.41646">
        <ele>733.62</ele>
        <time>2016-04-24T15:12:39Z</time>
      </trkpt>
      <trkpt lat="43.97887" lon="3.41662">
        <ele>733.62</ele>
        <time>2016-04-24T15:12:40Z</time>
      </trkpt>
      <trkpt lat="43.97882" lon="3.41683">
        <ele>733.62</ele>
        <time>2016-04-24T15:12:41Z</time>
      </trkpt>
      <trkpt lat="43.97874" lon="3.41699">
        <ele>733.62</ele>
        <time>2016-04-24T15:12:42Z</time>
      </trkpt>
      <trkpt lat="43.97861" lon="3.41712">
        <ele>734.1</ele>
        <time>2016-04-24T15:12:43Z</time>
      </trkpt>
      <trkpt lat="43.97847" lon="3.41717">
        <ele>733.62</ele>
        <time>2016-04-24T15:12:44Z</time>
      </trkpt>
      <trkpt lat="43.97831" lon="3.41716">
        <ele>733.14</ele>
        <time>2016-04-24T15:12:45Z</time>
      </trkpt>
      <trkpt lat="43.97811" lon="3.41708">
        <ele>732.66</ele>
        <time>2016-04-24T15:12:46Z</time>
      </trkpt>
      <trkpt lat="43.97793" lon="3.41699">
        <ele>732.66</ele>
        <time>2016-04-24T15:12:47Z</time>
      </trkpt>
      <trkpt lat="43.97721" lon="3.41649">
        <ele>730.74</ele>
        <time>2016-04-24T15:12:51Z</time>
      </trkpt>
      <trkpt lat="43.97702" lon="3.41628">
        <ele>730.74</ele>
        <time>2016-04-24T15:12:52Z</time>
      </trkpt>
      <trkpt lat="43.97683" lon="3.41608">
        <ele>730.74</ele>
        <time>2016-04-24T15:12:53Z</time>
      </trkpt>
      <trkpt lat="43.97663" lon="3.41591">
        <ele>731.22</ele>
        <time>2016-04-24T15:12:54Z</time>
      </trkpt>
      <trkpt lat="43.97643" lon="3.41577">
        <ele>730.74</ele>
        <time>2016-04-24T15:12:55Z</time>
      </trkpt>
      <trkpt lat="43.97621" lon="3.41566">
        <ele>731.22</ele>
        <time>2016-04-24T15:12:56Z</time>
      </trkpt>
      <trkpt lat="43.97598" lon="3.41557">
        <ele>731.7</ele>
        <time>2016-04-24T15:12:57Z</time>
      </trkpt>
      <trkpt lat="43.9753" lon="3.41518">
        <ele>731.7</ele>
        <time>2016-04-24T15:13:00Z</time>
      </trkpt>
      <trkpt lat="43.97378" lon="3.41411">
        <ele>728.34</ele>
        <time>2016-04-24T15:13:07Z</time>
      </trkpt>
      <trkpt lat="43.97335" lon="3.41401">
        <ele>727.86</ele>
        <time>2016-04-24T15:13:09Z</time>
      </trkpt>
      <trkpt lat="43.97313" lon="3.41405">
        <ele>726.89</ele>
        <time>2016-04-24T15:13:10Z</time>
      </trkpt>
      <trkpt lat="43.97295" lon="3.41414">
        <ele>725.93</ele>
        <time>2016-04-24T15:13:11Z</time>
      </trkpt>
      <trkpt lat="43.97273" lon="3.41422">
        <ele>725.45</ele>
        <time>2016-04-24T15:13:12Z</time>
      </trkpt>
      <trkpt lat="43.97253" lon="3.41433">
        <ele>724.49</ele>
        <time>2016-04-24T15:13:13Z</time>
      </trkpt>
      <trkpt lat="43.97229" lon="3.41447">
        <ele>724.97</ele>
        <time>2016-04-24T15:13:14Z</time>
      </trkpt>
      <trkpt lat="43.97155" lon="3.41465">
        <ele>724.01</ele>
        <time>2016-04-24T15:13:17Z</time>
      </trkpt>
      <trkpt lat="43.9713" lon="3.41463">
        <ele>723.05</ele>
        <time>2016-04-24T15:13:18Z</time>
      </trkpt>
      <trkpt lat="43.97106" lon="3.4146">
        <ele>722.09</ele>
        <time>2016-04-24T15:13:19Z</time>
      </trkpt>
      <trkpt lat="43.97019" lon="3.41459">
        <ele>720.16</ele>
        <time>2016-04-24T15:13:24Z</time>
      </trkpt>
      <trkpt lat="43.97008" lon="3.41469">
        <ele>720.16</ele>
        <time>2016-04-24T15:13:25Z</time>
      </trkpt>
      <trkpt lat="43.96987" lon="3.41481">
        <ele>718.72</ele>
        <time>2016-04-24T15:13:27Z</time>
      </trkpt>
      <trkpt lat="43.96975" lon="3.41474">
        <ele>718.72</ele>
        <time>2016-04-24T15:13:28Z</time>
      </trkpt>
      <trkpt lat="43.96964" lon="3.41459">
        <ele>717.76</ele>
        <time>2016-04-24T15:13:29Z</time>
      </trkpt>
      <trkpt lat="43.96955" lon="3.41442">
        <ele>717.28</ele>
        <time>2016-04-24T15:13:30Z</time>
      </trkpt>
      <trkpt lat="43.96948" lon="3.41424">
        <ele>715.84</ele>
        <time>2016-04-24T15:13:31Z</time>
      </trkpt>
      <trkpt lat="43.96939" lon="3.41407">
        <ele>714.88</ele>
        <time>2016-04-24T15:13:32Z</time>
      </trkpt>
      <trkpt lat="43.96929" lon="3.41394">
        <ele>713.44</ele>
        <time>2016-04-24T15:13:33Z</time>
      </trkpt>
      <trkpt lat="43.96916" lon="3.41386">
        <ele>712.47</ele>
        <time>2016-04-24T15:13:34Z</time>
      </trkpt>
      <trkpt lat="43.969" lon="3.41382">
        <ele>711.99</ele>
        <time>2016-04-24T15:13:35Z</time>
      </trkpt>
      <trkpt lat="43.96883" lon="3.41381">
        <ele>711.03</ele>
        <time>2016-04-24T15:13:36Z</time>
      </trkpt>
      <trkpt lat="43.96866" lon="3.41383">
        <ele>709.59</ele>
        <time>2016-04-24T15:13:37Z</time>
      </trkpt>
      <trkpt lat="43.96852" lon="3.41393">
        <ele>708.15</ele>
        <time>2016-04-24T15:13:38Z</time>
      </trkpt>
      <trkpt lat="43.9684" lon="3.41406">
        <ele>706.71</ele>
        <time>2016-04-24T15:13:39Z</time>
      </trkpt>
      <trkpt lat="43.96829" lon="3.41423">
        <ele>706.23</ele>
        <time>2016-04-24T15:13:40Z</time>
      </trkpt>
      <trkpt lat="43.96821" lon="3.41443">
        <ele>705.75</ele>
        <time>2016-04-24T15:13:41Z</time>
      </trkpt>
      <trkpt lat="43.96819" lon="3.41464">
        <ele>703.82</ele>
        <time>2016-04-24T15:13:42Z</time>
      </trkpt>
      <trkpt lat="43.96819" lon="3.41485">
        <ele>702.86</ele>
        <time>2016-04-24T15:13:43Z</time>
      </trkpt>
      <trkpt lat="43.96825" lon="3.41506">
        <ele>701.9</ele>
        <time>2016-04-24T15:13:44Z</time>
      </trkpt>
      <trkpt lat="43.96833" lon="3.41525">
        <ele>701.9</ele>
        <time>2016-04-24T15:13:45Z</time>
      </trkpt>
      <trkpt lat="43.96841" lon="3.4154">
        <ele>701.42</ele>
        <time>2016-04-24T15:13:46Z</time>
      </trkpt>
      <trkpt lat="43.96856" lon="3.41552">
        <ele>700.94</ele>
        <time>2016-04-24T15:13:47Z</time>
      </trkpt>
      <trkpt lat="43.96871" lon="3.41567">
        <ele>700.46</ele>
        <time>2016-04-24T15:13:48Z</time>
      </trkpt>
      <trkpt lat="43.96893" lon="3.41609">
        <ele>698.53</ele>
        <time>2016-04-24T15:13:50Z</time>
      </trkpt>
      <trkpt lat="43.96902" lon="3.41633">
        <ele>698.53</ele>
        <time>2016-04-24T15:13:51Z</time>
      </trkpt>
      <trkpt lat="43.96913" lon="3.41655">
        <ele>698.05</ele>
        <time>2016-04-24T15:13:52Z</time>
      </trkpt>
      <trkpt lat="43.96925" lon="3.41675">
        <ele>698.05</ele>
        <time>2016-04-24T15:13:53Z</time>
      </trkpt>
      <trkpt lat="43.9694" lon="3.4169">
        <ele>697.09</ele>
        <time>2016-04-24T15:13:54Z</time>
      </trkpt>
      <trkpt lat="43.96956" lon="3.41701">
        <ele>696.61</ele>
        <time>2016-04-24T15:13:55Z</time>
      </trkpt>
      <trkpt lat="43.96971" lon="3.41704">
        <ele>695.65</ele>
        <time>2016-04-24T15:13:56Z</time>
      </trkpt>
      <trkpt lat="43.96983" lon="3.41712">
        <ele>695.17</ele>
        <time>2016-04-24T15:13:57Z</time>
      </trkpt>
      <trkpt lat="43.96992" lon="3.4172">
        <ele>694.69</ele>
        <time>2016-04-24T15:13:58Z</time>
      </trkpt>
      <trkpt lat="43.96996" lon="3.41732">
        <ele>694.21</ele>
        <time>2016-04-24T15:13:59Z</time>
      </trkpt>
      <trkpt lat="43.96994" lon="3.41745">
        <ele>693.73</ele>
        <time>2016-04-24T15:14:00Z</time>
      </trkpt>
      <trkpt lat="43.96989" lon="3.4176">
        <ele>692.77</ele>
        <time>2016-04-24T15:14:01Z</time>
      </trkpt>
      <trkpt lat="43.9698" lon="3.41771">
        <ele>691.33</ele>
        <time>2016-04-24T15:14:02Z</time>
      </trkpt>
      <trkpt lat="43.96965" lon="3.41778">
        <ele>690.36</ele>
        <time>2016-04-24T15:14:03Z</time>
      </trkpt>
      <trkpt lat="43.96948" lon="3.41781">
        <ele>691.33</ele>
        <time>2016-04-24T15:14:04Z</time>
      </trkpt>
      <trkpt lat="43.96932" lon="3.41785">
        <ele>691.33</ele>
        <time>2016-04-24T15:14:05Z</time>
      </trkpt>
      <trkpt lat="43.96913" lon="3.41787">
        <ele>691.33</ele>
        <time>2016-04-24T15:14:06Z</time>
      </trkpt>
      <trkpt lat="43.96893" lon="3.41786">
        <ele>690.84</ele>
        <time>2016-04-24T15:14:07Z</time>
      </trkpt>
      <trkpt lat="43.96875" lon="3.41783">
        <ele>689.88</ele>
        <time>2016-04-24T15:14:08Z</time>
      </trkpt>
      <trkpt lat="43.96856" lon="3.41779">
        <ele>690.36</ele>
        <time>2016-04-24T15:14:09Z</time>
      </trkpt>
      <trkpt lat="43.96836" lon="3.41773">
        <ele>690.36</ele>
        <time>2016-04-24T15:14:10Z</time>
      </trkpt>
      <trkpt lat="43.96737" lon="3.41782">
        <ele>687.96</ele>
        <time>2016-04-24T15:14:15Z</time>
      </trkpt>
      <trkpt lat="43.96719" lon="3.41795">
        <ele>686.52</ele>
        <time>2016-04-24T15:14:16Z</time>
      </trkpt>
      <trkpt lat="43.96653" lon="3.41852">
        <ele>682.67</ele>
        <time>2016-04-24T15:14:20Z</time>
      </trkpt>
      <trkpt lat="43.96645" lon="3.41868">
        <ele>680.27</ele>
        <time>2016-04-24T15:14:21Z</time>
      </trkpt>
      <trkpt lat="43.96641" lon="3.41889">
        <ele>679.31</ele>
        <time>2016-04-24T15:14:22Z</time>
      </trkpt>
      <trkpt lat="43.96643" lon="3.41913">
        <ele>677.39</ele>
        <time>2016-04-24T15:14:23Z</time>
      </trkpt>
      <trkpt lat="43.96645" lon="3.41939">
        <ele>676.91</ele>
        <time>2016-04-24T15:14:24Z</time>
      </trkpt>
      <trkpt lat="43.96645" lon="3.41968">
        <ele>675.46</ele>
        <time>2016-04-24T15:14:25Z</time>
      </trkpt>
      <trkpt lat="43.96641" lon="3.41996">
        <ele>674.5</ele>
        <time>2016-04-24T15:14:26Z</time>
      </trkpt>
      <trkpt lat="43.96634" lon="3.42024">
        <ele>673.54</ele>
        <time>2016-04-24T15:14:27Z</time>
      </trkpt>
      <trkpt lat="43.96626" lon="3.42051">
        <ele>672.58</ele>
        <time>2016-04-24T15:14:28Z</time>
      </trkpt>
      <trkpt lat="43.96618" lon="3.42076">
        <ele>672.1</ele>
        <time>2016-04-24T15:14:29Z</time>
      </trkpt>
      <trkpt lat="43.96598" lon="3.42126">
        <ele>671.62</ele>
        <time>2016-04-24T15:14:31Z</time>
      </trkpt>
      <trkpt lat="43.96586" lon="3.42148">
        <ele>671.14</ele>
        <time>2016-04-24T15:14:32Z</time>
      </trkpt>
      <trkpt lat="43.96564" lon="3.42193">
        <ele>669.22</ele>
        <time>2016-04-24T15:14:34Z</time>
      </trkpt>
      <trkpt lat="43.96557" lon="3.42218">
        <ele>668.73</ele>
        <time>2016-04-24T15:14:35Z</time>
      </trkpt>
      <trkpt lat="43.96554" lon="3.42243">
        <ele>667.77</ele>
        <time>2016-04-24T15:14:36Z</time>
      </trkpt>
      <trkpt lat="43.96557" lon="3.42267">
        <ele>667.29</ele>
        <time>2016-04-24T15:14:37Z</time>
      </trkpt>
      <trkpt lat="43.96564" lon="3.42291">
        <ele>666.81</ele>
        <time>2016-04-24T15:14:38Z</time>
      </trkpt>
      <trkpt lat="43.9657" lon="3.42315">
        <ele>665.85</ele>
        <time>2016-04-24T15:14:39Z</time>
      </trkpt>
      <trkpt lat="43.96584" lon="3.42335">
        <ele>665.37</ele>
        <time>2016-04-24T15:14:40Z</time>
      </trkpt>
      <trkpt lat="43.96593" lon="3.4236">
        <ele>663.93</ele>
        <time>2016-04-24T15:14:41Z</time>
      </trkpt>
      <trkpt lat="43.966" lon="3.42386">
        <ele>662.97</ele>
        <time>2016-04-24T15:14:42Z</time>
      </trkpt>
      <trkpt lat="43.96604" lon="3.42415">
        <ele>661.52</ele>
        <time>2016-04-24T15:14:43Z</time>
      </trkpt>
      <trkpt lat="43.96613" lon="3.42567">
        <ele>656.72</ele>
        <time>2016-04-24T15:14:48Z</time>
      </trkpt>
      <trkpt lat="43.96609" lon="3.42598">
        <ele>655.76</ele>
        <time>2016-04-24T15:14:49Z</time>
      </trkpt>
      <trkpt lat="43.96603" lon="3.42629">
        <ele>655.28</ele>
        <time>2016-04-24T15:14:50Z</time>
      </trkpt>
      <trkpt lat="43.96592" lon="3.42752">
        <ele>650.95</ele>
        <time>2016-04-24T15:14:54Z</time>
      </trkpt>
      <trkpt lat="43.96596" lon="3.4278">
        <ele>649.51</ele>
        <time>2016-04-24T15:14:55Z</time>
      </trkpt>
      <trkpt lat="43.96601" lon="3.42806">
        <ele>648.55</ele>
        <time>2016-04-24T15:14:56Z</time>
      </trkpt>
      <trkpt lat="43.96605" lon="3.42831">
        <ele>647.59</ele>
        <time>2016-04-24T15:14:57Z</time>
      </trkpt>
      <trkpt lat="43.96609" lon="3.4285">
        <ele>646.62</ele>
        <time>2016-04-24T15:14:58Z</time>
      </trkpt>
      <trkpt lat="43.96617" lon="3.42875">
        <ele>646.14</ele>
        <time>2016-04-24T15:15:00Z</time>
      </trkpt>
      <trkpt lat="43.96625" lon="3.42882">
        <ele>644.7</ele>
        <time>2016-04-24T15:15:01Z</time>
      </trkpt>
      <trkpt lat="43.96636" lon="3.42889">
        <ele>644.22</ele>
        <time>2016-04-24T15:15:02Z</time>
      </trkpt>
      <trkpt lat="43.96651" lon="3.42893">
        <ele>643.74</ele>
        <time>2016-04-24T15:15:03Z</time>
      </trkpt>
      <trkpt lat="43.96667" lon="3.42897">
        <ele>643.74</ele>
        <time>2016-04-24T15:15:04Z</time>
      </trkpt>
      <trkpt lat="43.96683" lon="3.42905">
        <ele>642.78</ele>
        <time>2016-04-24T15:15:05Z</time>
      </trkpt>
      <trkpt lat="43.96697" lon="3.42916">
        <ele>642.3</ele>
        <time>2016-04-24T15:15:06Z</time>
      </trkpt>
      <trkpt lat="43.96709" lon="3.42928">
        <ele>641.34</ele>
        <time>2016-04-24T15:15:07Z</time>
      </trkpt>
      <trkpt lat="43.9672" lon="3.42935">
        <ele>642.3</ele>
        <time>2016-04-24T15:15:08Z</time>
      </trkpt>
      <trkpt lat="43.96734" lon="3.42935">
        <ele>640.86</ele>
        <time>2016-04-24T15:15:09Z</time>
      </trkpt>
      <trkpt lat="43.96746" lon="3.42938">
        <ele>640.86</ele>
        <time>2016-04-24T15:15:10Z</time>
      </trkpt>
      <trkpt lat="43.96758" lon="3.42939">
        <ele>641.34</ele>
        <time>2016-04-24T15:15:11Z</time>
      </trkpt>
      <trkpt lat="43.96768" lon="3.4294">
        <ele>639.89</ele>
        <time>2016-04-24T15:15:12Z</time>
      </trkpt>
      <trkpt lat="43.96776" lon="3.42949">
        <ele>638.93</ele>
        <time>2016-04-24T15:15:13Z</time>
      </trkpt>
      <trkpt lat="43.96781" lon="3.42961">
        <ele>638.45</ele>
        <time>2016-04-24T15:15:14Z</time>
      </trkpt>
      <trkpt lat="43.9678" lon="3.42974">
        <ele>637.49</ele>
        <time>2016-04-24T15:15:15Z</time>
      </trkpt>
      <trkpt lat="43.96774" lon="3.42985">
        <ele>637.01</ele>
        <time>2016-04-24T15:15:16Z</time>
      </trkpt>
      <trkpt lat="43.96763" lon="3.42993">
        <ele>637.01</ele>
        <time>2016-04-24T15:15:17Z</time>
      </trkpt>
      <trkpt lat="43.96748" lon="3.43004">
        <ele>634.13</ele>
        <time>2016-04-24T15:15:18Z</time>
      </trkpt>
      <trkpt lat="43.96729" lon="3.43013">
        <ele>634.13</ele>
        <time>2016-04-24T15:15:19Z</time>
      </trkpt>
      <trkpt lat="43.96712" lon="3.43023">
        <ele>634.13</ele>
        <time>2016-04-24T15:15:20Z</time>
      </trkpt>
      <trkpt lat="43.96661" lon="3.43052">
        <ele>632.68</ele>
        <time>2016-04-24T15:15:23Z</time>
      </trkpt>
      <trkpt lat="43.96645" lon="3.43057">
        <ele>632.2</ele>
        <time>2016-04-24T15:15:24Z</time>
      </trkpt>
      <trkpt lat="43.96627" lon="3.43061">
        <ele>631.24</ele>
        <time>2016-04-24T15:15:25Z</time>
      </trkpt>
      <trkpt lat="43.96564" lon="3.43078">
        <ele>628.36</ele>
        <time>2016-04-24T15:15:29Z</time>
      </trkpt>
      <trkpt lat="43.96552" lon="3.4309">
        <ele>627.4</ele>
        <time>2016-04-24T15:15:30Z</time>
      </trkpt>
      <trkpt lat="43.96542" lon="3.43107">
        <ele>626.44</ele>
        <time>2016-04-24T15:15:31Z</time>
      </trkpt>
      <trkpt lat="43.96534" lon="3.43127">
        <ele>625.47</ele>
        <time>2016-04-24T15:15:32Z</time>
      </trkpt>
      <trkpt lat="43.96528" lon="3.43148">
        <ele>624.51</ele>
        <time>2016-04-24T15:15:33Z</time>
      </trkpt>
      <trkpt lat="43.96525" lon="3.4317">
        <ele>623.55</ele>
        <time>2016-04-24T15:15:34Z</time>
      </trkpt>
      <trkpt lat="43.96524" lon="3.43192">
        <ele>622.59</ele>
        <time>2016-04-24T15:15:35Z</time>
      </trkpt>
      <trkpt lat="43.96526" lon="3.43216">
        <ele>622.11</ele>
        <time>2016-04-24T15:15:36Z</time>
      </trkpt>
      <trkpt lat="43.96528" lon="3.43239">
        <ele>621.15</ele>
        <time>2016-04-24T15:15:37Z</time>
      </trkpt>
      <trkpt lat="43.96531" lon="3.43283">
        <ele>619.23</ele>
        <time>2016-04-24T15:15:39Z</time>
      </trkpt>
      <trkpt lat="43.96526" lon="3.43305">
        <ele>618.75</ele>
        <time>2016-04-24T15:15:40Z</time>
      </trkpt>
      <trkpt lat="43.96518" lon="3.43326">
        <ele>617.78</ele>
        <time>2016-04-24T15:15:41Z</time>
      </trkpt>
      <trkpt lat="43.96443" lon="3.43472">
        <ele>612.02</ele>
        <time>2016-04-24T15:15:47Z</time>
      </trkpt>
      <trkpt lat="43.96361" lon="3.43678">
        <ele>604.33</ele>
        <time>2016-04-24T15:15:55Z</time>
      </trkpt>
      <trkpt lat="43.96354" lon="3.43714">
        <ele>602.88</ele>
        <time>2016-04-24T15:15:57Z</time>
      </trkpt>
      <trkpt lat="43.96355" lon="3.43728">
        <ele>602.4</ele>
        <time>2016-04-24T15:15:58Z</time>
      </trkpt>
      <trkpt lat="43.9636" lon="3.43741">
        <ele>601.44</ele>
        <time>2016-04-24T15:15:59Z</time>
      </trkpt>
      <trkpt lat="43.96369" lon="3.43751">
        <ele>600</ele>
        <time>2016-04-24T15:16:00Z</time>
      </trkpt>
      <trkpt lat="43.96381" lon="3.43756">
        <ele>598.56</ele>
        <time>2016-04-24T15:16:01Z</time>
      </trkpt>
      <trkpt lat="43.96396" lon="3.43759">
        <ele>597.12</ele>
        <time>2016-04-24T15:16:02Z</time>
      </trkpt>
      <trkpt lat="43.96413" lon="3.43759">
        <ele>596.15</ele>
        <time>2016-04-24T15:16:03Z</time>
      </trkpt>
      <trkpt lat="43.96433" lon="3.43757">
        <ele>596.64</ele>
        <time>2016-04-24T15:16:04Z</time>
      </trkpt>
      <trkpt lat="43.96451" lon="3.43756">
        <ele>596.64</ele>
        <time>2016-04-24T15:16:05Z</time>
      </trkpt>
      <trkpt lat="43.96469" lon="3.43753">
        <ele>596.64</ele>
        <time>2016-04-24T15:16:06Z</time>
      </trkpt>
      <trkpt lat="43.96485" lon="3.4375">
        <ele>596.15</ele>
        <time>2016-04-24T15:16:07Z</time>
      </trkpt>
      <trkpt lat="43.96502" lon="3.43743">
        <ele>595.19</ele>
        <time>2016-04-24T15:16:08Z</time>
      </trkpt>
      <trkpt lat="43.96516" lon="3.43735">
        <ele>595.67</ele>
        <time>2016-04-24T15:16:09Z</time>
      </trkpt>
      <trkpt lat="43.9653" lon="3.43727">
        <ele>595.19</ele>
        <time>2016-04-24T15:16:10Z</time>
      </trkpt>
      <trkpt lat="43.96544" lon="3.4372">
        <ele>594.71</ele>
        <time>2016-04-24T15:16:11Z</time>
      </trkpt>
      <trkpt lat="43.96556" lon="3.43716">
        <ele>593.75</ele>
        <time>2016-04-24T15:16:12Z</time>
      </trkpt>
      <trkpt lat="43.96569" lon="3.43716">
        <ele>593.27</ele>
        <time>2016-04-24T15:16:13Z</time>
      </trkpt>
      <trkpt lat="43.96581" lon="3.4372">
        <ele>592.31</ele>
        <time>2016-04-24T15:16:14Z</time>
      </trkpt>
      <trkpt lat="43.96589" lon="3.43731">
        <ele>592.79</ele>
        <time>2016-04-24T15:16:15Z</time>
      </trkpt>
      <trkpt lat="43.96595" lon="3.43748">
        <ele>592.79</ele>
        <time>2016-04-24T15:16:16Z</time>
      </trkpt>
      <trkpt lat="43.96597" lon="3.43764">
        <ele>592.79</ele>
        <time>2016-04-24T15:16:17Z</time>
      </trkpt>
      <trkpt lat="43.96598" lon="3.43779">
        <ele>592.79</ele>
        <time>2016-04-24T15:16:18Z</time>
      </trkpt>
      <trkpt lat="43.96599" lon="3.43794">
        <ele>592.79</ele>
        <time>2016-04-24T15:16:19Z</time>
      </trkpt>
      <trkpt lat="43.96607" lon="3.43902">
        <ele>594.23</ele>
        <time>2016-04-24T15:16:29Z</time>
      </trkpt>
      <trkpt lat="43.9661" lon="3.43925">
        <ele>594.71</ele>
        <time>2016-04-24T15:16:32Z</time>
      </trkpt>
      <trkpt lat="43.96611" lon="3.43931">
        <ele>595.19</ele>
        <time>2016-04-24T15:16:33Z</time>
      </trkpt>
      <trkpt lat="43.96614" lon="3.43938">
        <ele>595.19</ele>
        <time>2016-04-24T15:16:34Z</time>
      </trkpt>
      <trkpt lat="43.96643" lon="3.44001">
        <ele>598.08</ele>
        <time>2016-04-24T15:16:44Z</time>
      </trkpt>
      <trkpt lat="43.96654" lon="3.44031">
        <ele>598.56</ele>
        <time>2016-04-24T15:16:47Z</time>
      </trkpt>
      <trkpt lat="43.96669" lon="3.44149">
        <ele>603.36</ele>
        <time>2016-04-24T15:16:54Z</time>
      </trkpt>
      <trkpt lat="43.96667" lon="3.44253">
        <ele>608.17</ele>
        <time>2016-04-24T15:17:00Z</time>
      </trkpt>
      <trkpt lat="43.96671" lon="3.44269">
        <ele>608.65</ele>
        <time>2016-04-24T15:17:01Z</time>
      </trkpt>
      <trkpt lat="43.96691" lon="3.44336">
        <ele>612.02</ele>
        <time>2016-04-24T15:17:06Z</time>
      </trkpt>
      <trkpt lat="43.96696" lon="3.44344">
        <ele>612.5</ele>
        <time>2016-04-24T15:17:07Z</time>
      </trkpt>
      <trkpt lat="43.96703" lon="3.44349">
        <ele>612.5</ele>
        <time>2016-04-24T15:17:08Z</time>
      </trkpt>
      <trkpt lat="43.96712" lon="3.44344">
        <ele>612.98</ele>
        <time>2016-04-24T15:17:09Z</time>
      </trkpt>
      <trkpt lat="43.96719" lon="3.44337">
        <ele>613.46</ele>
        <time>2016-04-24T15:17:10Z</time>
      </trkpt>
      <trkpt lat="43.96724" lon="3.44324">
        <ele>613.94</ele>
        <time>2016-04-24T15:17:11Z</time>
      </trkpt>
      <trkpt lat="43.96727" lon="3.44311">
        <ele>614.42</ele>
        <time>2016-04-24T15:17:12Z</time>
      </trkpt>
      <trkpt lat="43.96729" lon="3.44296">
        <ele>614.9</ele>
        <time>2016-04-24T15:17:13Z</time>
      </trkpt>
      <trkpt lat="43.96731" lon="3.44281">
        <ele>615.38</ele>
        <time>2016-04-24T15:17:14Z</time>
      </trkpt>
      <trkpt lat="43.96731" lon="3.44264">
        <ele>615.86</ele>
        <time>2016-04-24T15:17:15Z</time>
      </trkpt>
      <trkpt lat="43.96731" lon="3.44246">
        <ele>616.34</ele>
        <time>2016-04-24T15:17:16Z</time>
      </trkpt>
      <trkpt lat="43.96733" lon="3.44198">
        <ele>617.78</ele>
        <time>2016-04-24T15:17:19Z</time>
      </trkpt>
      <trkpt lat="43.96736" lon="3.44185">
        <ele>618.26</ele>
        <time>2016-04-24T15:17:20Z</time>
      </trkpt>
      <trkpt lat="43.96742" lon="3.44174">
        <ele>619.23</ele>
        <time>2016-04-24T15:17:21Z</time>
      </trkpt>
      <trkpt lat="43.9675" lon="3.44169">
        <ele>620.19</ele>
        <time>2016-04-24T15:17:22Z</time>
      </trkpt>
      <trkpt lat="43.96758" lon="3.44171">
        <ele>621.15</ele>
        <time>2016-04-24T15:17:23Z</time>
      </trkpt>
      <trkpt lat="43.96768" lon="3.44179">
        <ele>622.59</ele>
        <time>2016-04-24T15:17:24Z</time>
      </trkpt>
      <trkpt lat="43.96778" lon="3.44189">
        <ele>623.55</ele>
        <time>2016-04-24T15:17:25Z</time>
      </trkpt>
      <trkpt lat="43.96786" lon="3.44203">
        <ele>624.03</ele>
        <time>2016-04-24T15:17:26Z</time>
      </trkpt>
      <trkpt lat="43.96794" lon="3.4422">
        <ele>624.51</ele>
        <time>2016-04-24T15:17:27Z</time>
      </trkpt>
      <trkpt lat="43.96804" lon="3.44243">
        <ele>625.47</ele>
        <time>2016-04-24T15:17:28Z</time>
      </trkpt>
      <trkpt lat="43.96813" lon="3.4427">
        <ele>626.44</ele>
        <time>2016-04-24T15:17:29Z</time>
      </trkpt>
      <trkpt lat="43.96819" lon="3.44299">
        <ele>627.88</ele>
        <time>2016-04-24T15:17:30Z</time>
      </trkpt>
      <trkpt lat="43.96823" lon="3.44329">
        <ele>628.84</ele>
        <time>2016-04-24T15:17:31Z</time>
      </trkpt>
      <trkpt lat="43.96822" lon="3.44361">
        <ele>629.8</ele>
        <time>2016-04-24T15:17:32Z</time>
      </trkpt>
      <trkpt lat="43.96823" lon="3.44394">
        <ele>631.24</ele>
        <time>2016-04-24T15:17:33Z</time>
      </trkpt>
      <trkpt lat="43.96827" lon="3.44427">
        <ele>633.17</ele>
        <time>2016-04-24T15:17:34Z</time>
      </trkpt>
      <trkpt lat="43.96832" lon="3.44462">
        <ele>634.61</ele>
        <time>2016-04-24T15:17:35Z</time>
      </trkpt>
      <trkpt lat="43.96866" lon="3.44634">
        <ele>642.78</ele>
        <time>2016-04-24T15:17:41Z</time>
      </trkpt>
      <trkpt lat="43.96961" lon="3.45219">
        <ele>665.85</ele>
        <time>2016-04-24T15:18:10Z</time>
      </trkpt>
      <trkpt lat="43.96954" lon="3.45232">
        <ele>659.6</ele>
        <time>2016-04-24T15:18:11Z</time>
      </trkpt>
      <trkpt lat="43.96946" lon="3.45244">
        <ele>652.87</ele>
        <time>2016-04-24T15:18:12Z</time>
      </trkpt>
      <trkpt lat="43.96935" lon="3.45256">
        <ele>649.03</ele>
        <time>2016-04-24T15:18:13Z</time>
      </trkpt>
      <trkpt lat="43.96925" lon="3.45266">
        <ele>648.07</ele>
        <time>2016-04-24T15:18:14Z</time>
      </trkpt>
      <trkpt lat="43.96918" lon="3.45276">
        <ele>647.1</ele>
        <time>2016-04-24T15:18:15Z</time>
      </trkpt>
      <trkpt lat="43.96915" lon="3.45289">
        <ele>645.66</ele>
        <time>2016-04-24T15:18:16Z</time>
      </trkpt>
      <trkpt lat="43.96926" lon="3.45331">
        <ele>641.82</ele>
        <time>2016-04-24T15:18:19Z</time>
      </trkpt>
      <trkpt lat="43.96934" lon="3.45341">
        <ele>640.38</ele>
        <time>2016-04-24T15:18:20Z</time>
      </trkpt>
      <trkpt lat="43.96945" lon="3.45348">
        <ele>638.93</ele>
        <time>2016-04-24T15:18:21Z</time>
      </trkpt>
      <trkpt lat="43.96959" lon="3.45354">
        <ele>637.49</ele>
        <time>2016-04-24T15:18:22Z</time>
      </trkpt>
      <trkpt lat="43.9698" lon="3.45356">
        <ele>637.01</ele>
        <time>2016-04-24T15:18:23Z</time>
      </trkpt>
      <trkpt lat="43.97001" lon="3.4536">
        <ele>636.53</ele>
        <time>2016-04-24T15:18:24Z</time>
      </trkpt>
      <trkpt lat="43.97022" lon="3.45364">
        <ele>635.09</ele>
        <time>2016-04-24T15:18:25Z</time>
      </trkpt>
      <trkpt lat="43.97096" lon="3.45376">
        <ele>630.28</ele>
        <time>2016-04-24T15:18:29Z</time>
      </trkpt>
      <trkpt lat="43.97114" lon="3.45372">
        <ele>629.32</ele>
        <time>2016-04-24T15:18:30Z</time>
      </trkpt>
      <trkpt lat="43.97131" lon="3.45365">
        <ele>628.36</ele>
        <time>2016-04-24T15:18:31Z</time>
      </trkpt>
      <trkpt lat="43.97149" lon="3.45354">
        <ele>627.4</ele>
        <time>2016-04-24T15:18:32Z</time>
      </trkpt>
      <trkpt lat="43.97167" lon="3.45346">
        <ele>625.96</ele>
        <time>2016-04-24T15:18:33Z</time>
      </trkpt>
      <trkpt lat="43.97184" lon="3.45341">
        <ele>624.99</ele>
        <time>2016-04-24T15:18:34Z</time>
      </trkpt>
      <trkpt lat="43.97202" lon="3.45338">
        <ele>623.55</ele>
        <time>2016-04-24T15:18:35Z</time>
      </trkpt>
      <trkpt lat="43.97219" lon="3.45339">
        <ele>622.59</ele>
        <time>2016-04-24T15:18:36Z</time>
      </trkpt>
      <trkpt lat="43.97235" lon="3.45343">
        <ele>621.63</ele>
        <time>2016-04-24T15:18:37Z</time>
      </trkpt>
      <trkpt lat="43.9725" lon="3.45351">
        <ele>620.67</ele>
        <time>2016-04-24T15:18:38Z</time>
      </trkpt>
      <trkpt lat="43.97266" lon="3.4536">
        <ele>619.71</ele>
        <time>2016-04-24T15:18:39Z</time>
      </trkpt>
      <trkpt lat="43.97281" lon="3.45371">
        <ele>618.26</ele>
        <time>2016-04-24T15:18:40Z</time>
      </trkpt>
      <trkpt lat="43.97293" lon="3.45389">
        <ele>616.82</ele>
        <time>2016-04-24T15:18:41Z</time>
      </trkpt>
      <trkpt lat="43.97304" lon="3.45408">
        <ele>615.86</ele>
        <time>2016-04-24T15:18:42Z</time>
      </trkpt>
      <trkpt lat="43.97313" lon="3.45428">
        <ele>614.9</ele>
        <time>2016-04-24T15:18:43Z</time>
      </trkpt>
      <trkpt lat="43.97322" lon="3.45447">
        <ele>613.94</ele>
        <time>2016-04-24T15:18:44Z</time>
      </trkpt>
      <trkpt lat="43.97332" lon="3.45465">
        <ele>612.5</ele>
        <time>2016-04-24T15:18:45Z</time>
      </trkpt>
      <trkpt lat="43.97345" lon="3.4548">
        <ele>611.54</ele>
        <time>2016-04-24T15:18:46Z</time>
      </trkpt>
      <trkpt lat="43.97359" lon="3.45489">
        <ele>610.09</ele>
        <time>2016-04-24T15:18:47Z</time>
      </trkpt>
      <trkpt lat="43.97375" lon="3.45496">
        <ele>609.13</ele>
        <time>2016-04-24T15:18:48Z</time>
      </trkpt>
      <trkpt lat="43.97389" lon="3.45507">
        <ele>608.17</ele>
        <time>2016-04-24T15:18:49Z</time>
      </trkpt>
      <trkpt lat="43.974" lon="3.45524">
        <ele>607.21</ele>
        <time>2016-04-24T15:18:50Z</time>
      </trkpt>
      <trkpt lat="43.97406" lon="3.45544">
        <ele>606.25</ele>
        <time>2016-04-24T15:18:51Z</time>
      </trkpt>
      <trkpt lat="43.97406" lon="3.45565">
        <ele>605.29</ele>
        <time>2016-04-24T15:18:52Z</time>
      </trkpt>
      <trkpt lat="43.97401" lon="3.45585">
        <ele>604.33</ele>
        <time>2016-04-24T15:18:53Z</time>
      </trkpt>
      <trkpt lat="43.97395" lon="3.45603">
        <ele>603.36</ele>
        <time>2016-04-24T15:18:54Z</time>
      </trkpt>
      <trkpt lat="43.97386" lon="3.45624">
        <ele>602.88</ele>
        <time>2016-04-24T15:18:55Z</time>
      </trkpt>
      <trkpt lat="43.97381" lon="3.45646">
        <ele>602.88</ele>
        <time>2016-04-24T15:18:56Z</time>
      </trkpt>
      <trkpt lat="43.97381" lon="3.4567">
        <ele>602.4</ele>
        <time>2016-04-24T15:18:57Z</time>
      </trkpt>
      <trkpt lat="43.97384" lon="3.45692">
        <ele>600.96</ele>
        <time>2016-04-24T15:18:58Z</time>
      </trkpt>
      <trkpt lat="43.97391" lon="3.45715">
        <ele>600</ele>
        <time>2016-04-24T15:18:59Z</time>
      </trkpt>
      <trkpt lat="43.97397" lon="3.45738">
        <ele>598.56</ele>
        <time>2016-04-24T15:19:00Z</time>
      </trkpt>
      <trkpt lat="43.97402" lon="3.45761">
        <ele>597.6</ele>
        <time>2016-04-24T15:19:01Z</time>
      </trkpt>
      <trkpt lat="43.97403" lon="3.45785">
        <ele>596.15</ele>
        <time>2016-04-24T15:19:02Z</time>
      </trkpt>
      <trkpt lat="43.97401" lon="3.45812">
        <ele>595.19</ele>
        <time>2016-04-24T15:19:03Z</time>
      </trkpt>
      <trkpt lat="43.97392" lon="3.45939">
        <ele>590.39</ele>
        <time>2016-04-24T15:19:07Z</time>
      </trkpt>
      <trkpt lat="43.97392" lon="3.45972">
        <ele>588.95</ele>
        <time>2016-04-24T15:19:08Z</time>
      </trkpt>
      <trkpt lat="43.97413" lon="3.46145">
        <ele>581.73</ele>
        <time>2016-04-24T15:19:14Z</time>
      </trkpt>
      <trkpt lat="43.9742" lon="3.46165">
        <ele>581.25</ele>
        <time>2016-04-24T15:19:15Z</time>
      </trkpt>
      <trkpt lat="43.97429" lon="3.46181">
        <ele>579.33</ele>
        <time>2016-04-24T15:19:16Z</time>
      </trkpt>
      <trkpt lat="43.9744" lon="3.46189">
        <ele>577.41</ele>
        <time>2016-04-24T15:19:17Z</time>
      </trkpt>
      <trkpt lat="43.97451" lon="3.46194">
        <ele>575.49</ele>
        <time>2016-04-24T15:19:18Z</time>
      </trkpt>
      <trkpt lat="43.97464" lon="3.46188">
        <ele>573.56</ele>
        <time>2016-04-24T15:19:19Z</time>
      </trkpt>
      <trkpt lat="43.9748" lon="3.46174">
        <ele>571.64</ele>
        <time>2016-04-24T15:19:20Z</time>
      </trkpt>
      <trkpt lat="43.97497" lon="3.46157">
        <ele>569.72</ele>
        <time>2016-04-24T15:19:21Z</time>
      </trkpt>
      <trkpt lat="43.97513" lon="3.46138">
        <ele>569.72</ele>
        <time>2016-04-24T15:19:22Z</time>
      </trkpt>
      <trkpt lat="43.97532" lon="3.4612">
        <ele>570.68</ele>
        <time>2016-04-24T15:19:23Z</time>
      </trkpt>
      <trkpt lat="43.97553" lon="3.46105">
        <ele>570.2</ele>
        <time>2016-04-24T15:19:24Z</time>
      </trkpt>
      <trkpt lat="43.97577" lon="3.46092">
        <ele>568.28</ele>
        <time>2016-04-24T15:19:25Z</time>
      </trkpt>
      <trkpt lat="43.97599" lon="3.46081">
        <ele>566.83</ele>
        <time>2016-04-24T15:19:26Z</time>
      </trkpt>
      <trkpt lat="43.97709" lon="3.46029">
        <ele>560.59</ele>
        <time>2016-04-24T15:19:32Z</time>
      </trkpt>
      <trkpt lat="43.97723" lon="3.46035">
        <ele>559.62</ele>
        <time>2016-04-24T15:19:33Z</time>
      </trkpt>
      <trkpt lat="43.97736" lon="3.46046">
        <ele>558.18</ele>
        <time>2016-04-24T15:19:34Z</time>
      </trkpt>
      <trkpt lat="43.97749" lon="3.46061">
        <ele>557.22</ele>
        <time>2016-04-24T15:19:35Z</time>
      </trkpt>
      <trkpt lat="43.97751" lon="3.46083">
        <ele>555.3</ele>
        <time>2016-04-24T15:19:36Z</time>
      </trkpt>
      <trkpt lat="43.97748" lon="3.46107">
        <ele>554.34</ele>
        <time>2016-04-24T15:19:37Z</time>
      </trkpt>
      <trkpt lat="43.97744" lon="3.46131">
        <ele>553.38</ele>
        <time>2016-04-24T15:19:38Z</time>
      </trkpt>
      <trkpt lat="43.97735" lon="3.46157">
        <ele>552.9</ele>
        <time>2016-04-24T15:19:39Z</time>
      </trkpt>
      <trkpt lat="43.97727" lon="3.46185">
        <ele>552.9</ele>
        <time>2016-04-24T15:19:40Z</time>
      </trkpt>
      <trkpt lat="43.97716" lon="3.46214">
        <ele>552.41</ele>
        <time>2016-04-24T15:19:41Z</time>
      </trkpt>
      <trkpt lat="43.97702" lon="3.46247">
        <ele>553.86</ele>
        <time>2016-04-24T15:19:42Z</time>
      </trkpt>
      <trkpt lat="43.97637" lon="3.46428">
        <ele>544.24</ele>
        <time>2016-04-24T15:19:47Z</time>
      </trkpt>
      <trkpt lat="43.97599" lon="3.46596">
        <ele>537.03</ele>
        <time>2016-04-24T15:19:52Z</time>
      </trkpt>
      <trkpt lat="43.97598" lon="3.46625">
        <ele>535.11</ele>
        <time>2016-04-24T15:19:53Z</time>
      </trkpt>
      <trkpt lat="43.97602" lon="3.46653">
        <ele>533.67</ele>
        <time>2016-04-24T15:19:54Z</time>
      </trkpt>
      <trkpt lat="43.97611" lon="3.4668">
        <ele>532.23</ele>
        <time>2016-04-24T15:19:55Z</time>
      </trkpt>
      <trkpt lat="43.97622" lon="3.46704">
        <ele>530.3</ele>
        <time>2016-04-24T15:19:56Z</time>
      </trkpt>
      <trkpt lat="43.97637" lon="3.46724">
        <ele>528.86</ele>
        <time>2016-04-24T15:19:57Z</time>
      </trkpt>
      <trkpt lat="43.97652" lon="3.46739">
        <ele>527.9</ele>
        <time>2016-04-24T15:19:58Z</time>
      </trkpt>
      <trkpt lat="43.9767" lon="3.46746">
        <ele>526.46</ele>
        <time>2016-04-24T15:19:59Z</time>
      </trkpt>
      <trkpt lat="43.9769" lon="3.46747">
        <ele>525.02</ele>
        <time>2016-04-24T15:20:00Z</time>
      </trkpt>
      <trkpt lat="43.9772" lon="3.46741">
        <ele>524.06</ele>
        <time>2016-04-24T15:20:01Z</time>
      </trkpt>
      <trkpt lat="43.97742" lon="3.46739">
        <ele>522.13</ele>
        <time>2016-04-24T15:20:02Z</time>
      </trkpt>
      <trkpt lat="43.97762" lon="3.46733">
        <ele>521.65</ele>
        <time>2016-04-24T15:20:03Z</time>
      </trkpt>
      <trkpt lat="43.97785" lon="3.46727">
        <ele>521.65</ele>
        <time>2016-04-24T15:20:04Z</time>
      </trkpt>
      <trkpt lat="43.97828" lon="3.46722">
        <ele>520.69</ele>
        <time>2016-04-24T15:20:06Z</time>
      </trkpt>
      <trkpt lat="43.97849" lon="3.46726">
        <ele>519.25</ele>
        <time>2016-04-24T15:20:07Z</time>
      </trkpt>
      <trkpt lat="43.97869" lon="3.46735">
        <ele>516.85</ele>
        <time>2016-04-24T15:20:08Z</time>
      </trkpt>
      <trkpt lat="43.97888" lon="3.46749">
        <ele>517.33</ele>
        <time>2016-04-24T15:20:09Z</time>
      </trkpt>
      <trkpt lat="43.97909" lon="3.46761">
        <ele>515.4</ele>
        <time>2016-04-24T15:20:10Z</time>
      </trkpt>
      <trkpt lat="43.9805" lon="3.4683">
        <ele>508.67</ele>
        <time>2016-04-24T15:20:17Z</time>
      </trkpt>
      <trkpt lat="43.98071" lon="3.46832">
        <ele>507.23</ele>
        <time>2016-04-24T15:20:18Z</time>
      </trkpt>
      <trkpt lat="43.98089" lon="3.46829">
        <ele>506.27</ele>
        <time>2016-04-24T15:20:19Z</time>
      </trkpt>
      <trkpt lat="43.98132" lon="3.46829">
        <ele>502.91</ele>
        <time>2016-04-24T15:20:22Z</time>
      </trkpt>
      <trkpt lat="43.98141" lon="3.46842">
        <ele>501.95</ele>
        <time>2016-04-24T15:20:23Z</time>
      </trkpt>
      <trkpt lat="43.98145" lon="3.46855">
        <ele>500.5</ele>
        <time>2016-04-24T15:20:24Z</time>
      </trkpt>
      <trkpt lat="43.98146" lon="3.4687">
        <ele>499.54</ele>
        <time>2016-04-24T15:20:25Z</time>
      </trkpt>
      <trkpt lat="43.98137" lon="3.46883">
        <ele>496.66</ele>
        <time>2016-04-24T15:20:26Z</time>
      </trkpt>
      <trkpt lat="43.98124" lon="3.46892">
        <ele>494.26</ele>
        <time>2016-04-24T15:20:27Z</time>
      </trkpt>
      <trkpt lat="43.98109" lon="3.46899">
        <ele>492.81</ele>
        <time>2016-04-24T15:20:28Z</time>
      </trkpt>
      <trkpt lat="43.98089" lon="3.46906">
        <ele>490.89</ele>
        <time>2016-04-24T15:20:29Z</time>
      </trkpt>
      <trkpt lat="43.98065" lon="3.46914">
        <ele>489.45</ele>
        <time>2016-04-24T15:20:30Z</time>
      </trkpt>
      <trkpt lat="43.98041" lon="3.46922">
        <ele>488.49</ele>
        <time>2016-04-24T15:20:31Z</time>
      </trkpt>
      <trkpt lat="43.97888" lon="3.46961">
        <ele>482.72</ele>
        <time>2016-04-24T15:20:37Z</time>
      </trkpt>
      <trkpt lat="43.97762" lon="3.47021">
        <ele>474.55</ele>
        <time>2016-04-24T15:20:43Z</time>
      </trkpt>
      <trkpt lat="43.9775" lon="3.4704">
        <ele>473.59</ele>
        <time>2016-04-24T15:20:44Z</time>
      </trkpt>
      <trkpt lat="43.97743" lon="3.47062">
        <ele>472.63</ele>
        <time>2016-04-24T15:20:45Z</time>
      </trkpt>
      <trkpt lat="43.97741" lon="3.47084">
        <ele>470.7</ele>
        <time>2016-04-24T15:20:46Z</time>
      </trkpt>
      <trkpt lat="43.97745" lon="3.47108">
        <ele>468.78</ele>
        <time>2016-04-24T15:20:47Z</time>
      </trkpt>
      <trkpt lat="43.97752" lon="3.47134">
        <ele>468.3</ele>
        <time>2016-04-24T15:20:48Z</time>
      </trkpt>
      <trkpt lat="43.97759" lon="3.4716">
        <ele>466.86</ele>
        <time>2016-04-24T15:20:49Z</time>
      </trkpt>
      <trkpt lat="43.9777" lon="3.47184">
        <ele>465.42</ele>
        <time>2016-04-24T15:20:50Z</time>
      </trkpt>
      <trkpt lat="43.97784" lon="3.47207">
        <ele>463.97</ele>
        <time>2016-04-24T15:20:51Z</time>
      </trkpt>
      <trkpt lat="43.97799" lon="3.4723">
        <ele>462.53</ele>
        <time>2016-04-24T15:20:52Z</time>
      </trkpt>
      <trkpt lat="43.97813" lon="3.47252">
        <ele>462.05</ele>
        <time>2016-04-24T15:20:53Z</time>
      </trkpt>
      <trkpt lat="43.97851" lon="3.47314">
        <ele>459.17</ele>
        <time>2016-04-24T15:20:56Z</time>
      </trkpt>
      <trkpt lat="43.97866" lon="3.4733">
        <ele>458.21</ele>
        <time>2016-04-24T15:20:57Z</time>
      </trkpt>
      <trkpt lat="43.97878" lon="3.47345">
        <ele>457.24</ele>
        <time>2016-04-24T15:20:58Z</time>
      </trkpt>
      <trkpt lat="43.97887" lon="3.47361">
        <ele>455.8</ele>
        <time>2016-04-24T15:20:59Z</time>
      </trkpt>
      <trkpt lat="43.97892" lon="3.47378">
        <ele>454.84</ele>
        <time>2016-04-24T15:21:00Z</time>
      </trkpt>
      <trkpt lat="43.97894" lon="3.47399">
        <ele>453.88</ele>
        <time>2016-04-24T15:21:01Z</time>
      </trkpt>
      <trkpt lat="43.97891" lon="3.47426">
        <ele>452.92</ele>
        <time>2016-04-24T15:21:02Z</time>
      </trkpt>
      <trkpt lat="43.97892" lon="3.47452">
        <ele>451.48</ele>
        <time>2016-04-24T15:21:03Z</time>
      </trkpt>
      <trkpt lat="43.97893" lon="3.47479">
        <ele>450.03</ele>
        <time>2016-04-24T15:21:04Z</time>
      </trkpt>
      <trkpt lat="43.97891" lon="3.47505">
        <ele>448.59</ele>
        <time>2016-04-24T15:21:05Z</time>
      </trkpt>
      <trkpt lat="43.97887" lon="3.47529">
        <ele>447.63</ele>
        <time>2016-04-24T15:21:06Z</time>
      </trkpt>
      <trkpt lat="43.9788" lon="3.47552">
        <ele>446.67</ele>
        <time>2016-04-24T15:21:07Z</time>
      </trkpt>
      <trkpt lat="43.97872" lon="3.47574">
        <ele>445.71</ele>
        <time>2016-04-24T15:21:08Z</time>
      </trkpt>
      <trkpt lat="43.97863" lon="3.47596">
        <ele>445.71</ele>
        <time>2016-04-24T15:21:09Z</time>
      </trkpt>
      <trkpt lat="43.97851" lon="3.47641">
        <ele>443.79</ele>
        <time>2016-04-24T15:21:11Z</time>
      </trkpt>
      <trkpt lat="43.97849" lon="3.47666">
        <ele>442.82</ele>
        <time>2016-04-24T15:21:12Z</time>
      </trkpt>
      <trkpt lat="43.97851" lon="3.47692">
        <ele>441.86</ele>
        <time>2016-04-24T15:21:13Z</time>
      </trkpt>
      <trkpt lat="43.97856" lon="3.47718">
        <ele>440.9</ele>
        <time>2016-04-24T15:21:14Z</time>
      </trkpt>
      <trkpt lat="43.97859" lon="3.47743">
        <ele>439.94</ele>
        <time>2016-04-24T15:21:15Z</time>
      </trkpt>
      <trkpt lat="43.97857" lon="3.47766">
        <ele>438.98</ele>
        <time>2016-04-24T15:21:16Z</time>
      </trkpt>
      <trkpt lat="43.9785" lon="3.47787">
        <ele>438.02</ele>
        <time>2016-04-24T15:21:17Z</time>
      </trkpt>
      <trkpt lat="43.97843" lon="3.47806">
        <ele>436.58</ele>
        <time>2016-04-24T15:21:18Z</time>
      </trkpt>
      <trkpt lat="43.97838" lon="3.47829">
        <ele>436.1</ele>
        <time>2016-04-24T15:21:19Z</time>
      </trkpt>
      <trkpt lat="43.97837" lon="3.47857">
        <ele>435.61</ele>
        <time>2016-04-24T15:21:20Z</time>
      </trkpt>
      <trkpt lat="43.97841" lon="3.47885">
        <ele>434.17</ele>
        <time>2016-04-24T15:21:21Z</time>
      </trkpt>
      <trkpt lat="43.97847" lon="3.47917">
        <ele>433.21</ele>
        <time>2016-04-24T15:21:22Z</time>
      </trkpt>
      <trkpt lat="43.97853" lon="3.47949">
        <ele>432.25</ele>
        <time>2016-04-24T15:21:23Z</time>
      </trkpt>
      <trkpt lat="43.97866" lon="3.48081">
        <ele>426.96</ele>
        <time>2016-04-24T15:21:27Z</time>
      </trkpt>
      <trkpt lat="43.97864" lon="3.48114">
        <ele>426</ele>
        <time>2016-04-24T15:21:28Z</time>
      </trkpt>
      <trkpt lat="43.97834" lon="3.48354">
        <ele>415.43</ele>
        <time>2016-04-24T15:21:36Z</time>
      </trkpt>
      <trkpt lat="43.97835" lon="3.48381">
        <ele>413.98</ele>
        <time>2016-04-24T15:21:37Z</time>
      </trkpt>
      <trkpt lat="43.9784" lon="3.48408">
        <ele>413.02</ele>
        <time>2016-04-24T15:21:38Z</time>
      </trkpt>
      <trkpt lat="43.97844" lon="3.48434">
        <ele>411.58</ele>
        <time>2016-04-24T15:21:39Z</time>
      </trkpt>
      <trkpt lat="43.97846" lon="3.48461">
        <ele>409.66</ele>
        <time>2016-04-24T15:21:40Z</time>
      </trkpt>
      <trkpt lat="43.97842" lon="3.4849">
        <ele>408.7</ele>
        <time>2016-04-24T15:21:41Z</time>
      </trkpt>
      <trkpt lat="43.97836" lon="3.48519">
        <ele>407.74</ele>
        <time>2016-04-24T15:21:42Z</time>
      </trkpt>
      <trkpt lat="43.97832" lon="3.48547">
        <ele>405.81</ele>
        <time>2016-04-24T15:21:43Z</time>
      </trkpt>
      <trkpt lat="43.97831" lon="3.48579">
        <ele>404.85</ele>
        <time>2016-04-24T15:21:44Z</time>
      </trkpt>
      <trkpt lat="43.97832" lon="3.48612">
        <ele>403.89</ele>
        <time>2016-04-24T15:21:45Z</time>
      </trkpt>
      <trkpt lat="43.97835" lon="3.48646">
        <ele>402.45</ele>
        <time>2016-04-24T15:21:46Z</time>
      </trkpt>
      <trkpt lat="43.97836" lon="3.4887">
        <ele>392.84</ele>
        <time>2016-04-24T15:21:52Z</time>
      </trkpt>
      <trkpt lat="43.97787" lon="3.49133">
        <ele>381.3</ele>
        <time>2016-04-24T15:21:59Z</time>
      </trkpt>
      <trkpt lat="43.97733" lon="3.49406">
        <ele>370.24</ele>
        <time>2016-04-24T15:22:07Z</time>
      </trkpt>
      <trkpt lat="43.97718" lon="3.49616">
        <ele>361.59</ele>
        <time>2016-04-24T15:22:14Z</time>
      </trkpt>
      <trkpt lat="43.97712" lon="3.49637">
        <ele>361.11</ele>
        <time>2016-04-24T15:22:15Z</time>
      </trkpt>
      <trkpt lat="43.97704" lon="3.49657">
        <ele>360.63</ele>
        <time>2016-04-24T15:22:16Z</time>
      </trkpt>
      <trkpt lat="43.97693" lon="3.49675">
        <ele>360.15</ele>
        <time>2016-04-24T15:22:17Z</time>
      </trkpt>
      <trkpt lat="43.97679" lon="3.49694">
        <ele>359.67</ele>
        <time>2016-04-24T15:22:18Z</time>
      </trkpt>
      <trkpt lat="43.97663" lon="3.49714">
        <ele>358.71</ele>
        <time>2016-04-24T15:22:19Z</time>
      </trkpt>
      <trkpt lat="43.97631" lon="3.49757">
        <ele>358.23</ele>
        <time>2016-04-24T15:22:21Z</time>
      </trkpt>
      <trkpt lat="43.97618" lon="3.49782">
        <ele>358.23</ele>
        <time>2016-04-24T15:22:22Z</time>
      </trkpt>
      <trkpt lat="43.97606" lon="3.49808">
        <ele>358.71</ele>
        <time>2016-04-24T15:22:23Z</time>
      </trkpt>
      <trkpt lat="43.97596" lon="3.49836">
        <ele>358.71</ele>
        <time>2016-04-24T15:22:24Z</time>
      </trkpt>
      <trkpt lat="43.97588" lon="3.49866">
        <ele>358.23</ele>
        <time>2016-04-24T15:22:25Z</time>
      </trkpt>
      <trkpt lat="43.97581" lon="3.49898">
        <ele>357.75</ele>
        <time>2016-04-24T15:22:26Z</time>
      </trkpt>
      <trkpt lat="43.97575" lon="3.4993">
        <ele>356.31</ele>
        <time>2016-04-24T15:22:27Z</time>
      </trkpt>
      <trkpt lat="43.97557" lon="3.50049">
        <ele>351.98</ele>
        <time>2016-04-24T15:22:31Z</time>
      </trkpt>
      <trkpt lat="43.97556" lon="3.50079">
        <ele>350.54</ele>
        <time>2016-04-24T15:22:32Z</time>
      </trkpt>
      <trkpt lat="43.97559" lon="3.5011">
        <ele>349.58</ele>
        <time>2016-04-24T15:22:33Z</time>
      </trkpt>
      <trkpt lat="43.97563" lon="3.50141">
        <ele>347.65</ele>
        <time>2016-04-24T15:22:34Z</time>
      </trkpt>
      <trkpt lat="43.97568" lon="3.50172">
        <ele>346.69</ele>
        <time>2016-04-24T15:22:35Z</time>
      </trkpt>
      <trkpt lat="43.97585" lon="3.50267">
        <ele>345.25</ele>
        <time>2016-04-24T15:22:38Z</time>
      </trkpt>
      <trkpt lat="43.97587" lon="3.503">
        <ele>344.29</ele>
        <time>2016-04-24T15:22:39Z</time>
      </trkpt>
      <trkpt lat="43.97587" lon="3.50334">
        <ele>344.29</ele>
        <time>2016-04-24T15:22:40Z</time>
      </trkpt>
      <trkpt lat="43.97586" lon="3.50529">
        <ele>342.37</ele>
        <time>2016-04-24T15:22:46Z</time>
      </trkpt>
      <trkpt lat="43.97569" lon="3.507">
        <ele>340.92</ele>
        <time>2016-04-24T15:22:53Z</time>
      </trkpt>
      <trkpt lat="43.97565" lon="3.50718">
        <ele>340.92</ele>
        <time>2016-04-24T15:22:54Z</time>
      </trkpt>
      <trkpt lat="43.97558" lon="3.50734">
        <ele>340.44</ele>
        <time>2016-04-24T15:22:55Z</time>
      </trkpt>
      <trkpt lat="43.97551" lon="3.50751">
        <ele>340.44</ele>
        <time>2016-04-24T15:22:56Z</time>
      </trkpt>
      <trkpt lat="43.97494" lon="3.50914">
        <ele>337.56</ele>
        <time>2016-04-24T15:23:05Z</time>
      </trkpt>
      <trkpt lat="43.97429" lon="3.5113">
        <ele>336.6</ele>
        <time>2016-04-24T15:23:14Z</time>
      </trkpt>
      <trkpt lat="43.97419" lon="3.51152">
        <ele>336.6</ele>
        <time>2016-04-24T15:23:15Z</time>
      </trkpt>
      <trkpt lat="43.97406" lon="3.51172">
        <ele>336.6</ele>
        <time>2016-04-24T15:23:16Z</time>
      </trkpt>
      <trkpt lat="43.97391" lon="3.51189">
        <ele>336.12</ele>
        <time>2016-04-24T15:23:17Z</time>
      </trkpt>
      <trkpt lat="43.97373" lon="3.51205">
        <ele>335.64</ele>
        <time>2016-04-24T15:23:18Z</time>
      </trkpt>
      <trkpt lat="43.97354" lon="3.5122">
        <ele>335.16</ele>
        <time>2016-04-24T15:23:19Z</time>
      </trkpt>
      <trkpt lat="43.97182" lon="3.51335">
        <ele>332.75</ele>
        <time>2016-04-24T15:23:27Z</time>
      </trkpt>
      <trkpt lat="43.97021" lon="3.51397">
        <ele>332.75</ele>
        <time>2016-04-24T15:23:34Z</time>
      </trkpt>
      <trkpt lat="43.96915" lon="3.5145">
        <ele>332.27</ele>
        <time>2016-04-24T15:23:40Z</time>
      </trkpt>
      <trkpt lat="43.96901" lon="3.51465">
        <ele>332.27</ele>
        <time>2016-04-24T15:23:41Z</time>
      </trkpt>
      <trkpt lat="43.96889" lon="3.51482">
        <ele>332.27</ele>
        <time>2016-04-24T15:23:42Z</time>
      </trkpt>
      <trkpt lat="43.96813" lon="3.51609">
        <ele>328.43</ele>
        <time>2016-04-24T15:23:50Z</time>
      </trkpt>
      <trkpt lat="43.96785" lon="3.51663">
        <ele>326.5</ele>
        <time>2016-04-24T15:23:56Z</time>
      </trkpt>
      <trkpt lat="43.96748" lon="3.51719">
        <ele>327.47</ele>
        <time>2016-04-24T15:24:02Z</time>
      </trkpt>
      <trkpt lat="43.9674" lon="3.51726">
        <ele>327.95</ele>
        <time>2016-04-24T15:24:03Z</time>
      </trkpt>
      <trkpt lat="43.967" lon="3.51758">
        <ele>334.2</ele>
        <time>2016-04-24T15:24:08Z</time>
      </trkpt>
      <trkpt lat="43.96693" lon="3.51766">
        <ele>334.68</ele>
        <time>2016-04-24T15:24:09Z</time>
      </trkpt>
      <trkpt lat="43.96686" lon="3.51775">
        <ele>334.68</ele>
        <time>2016-04-24T15:24:10Z</time>
      </trkpt>
      <trkpt lat="43.96673" lon="3.51794">
        <ele>335.64</ele>
        <time>2016-04-24T15:24:12Z</time>
      </trkpt>
      <trkpt lat="43.96655" lon="3.51827">
        <ele>335.16</ele>
        <time>2016-04-24T15:24:15Z</time>
      </trkpt>
      <trkpt lat="43.9665" lon="3.51841">
        <ele>334.2</ele>
        <time>2016-04-24T15:24:16Z</time>
      </trkpt>
      <trkpt lat="43.96647" lon="3.51857">
        <ele>332.75</ele>
        <time>2016-04-24T15:24:17Z</time>
      </trkpt>
      <trkpt lat="43.96648" lon="3.51874">
        <ele>332.27</ele>
        <time>2016-04-24T15:24:18Z</time>
      </trkpt>
      <trkpt lat="43.96651" lon="3.5189">
        <ele>332.27</ele>
        <time>2016-04-24T15:24:19Z</time>
      </trkpt>
      <trkpt lat="43.96655" lon="3.51906">
        <ele>332.27</ele>
        <time>2016-04-24T15:24:20Z</time>
      </trkpt>
      <trkpt lat="43.96663" lon="3.51922">
        <ele>332.27</ele>
        <time>2016-04-24T15:24:21Z</time>
      </trkpt>
      <trkpt lat="43.96673" lon="3.51933">
        <ele>332.27</ele>
        <time>2016-04-24T15:24:22Z</time>
      </trkpt>
      <trkpt lat="43.96682" lon="3.51944">
        <ele>332.27</ele>
        <time>2016-04-24T15:24:23Z</time>
      </trkpt>
      <trkpt lat="43.96747" lon="3.5204">
        <ele>332.75</ele>
        <time>2016-04-24T15:24:33Z</time>
      </trkpt>
      <trkpt lat="43.9675" lon="3.52056">
        <ele>332.75</ele>
        <time>2016-04-24T15:24:34Z</time>
      </trkpt>
      <trkpt lat="43.9675" lon="3.52074">
        <ele>332.75</ele>
        <time>2016-04-24T15:24:35Z</time>
      </trkpt>
      <trkpt lat="43.96748" lon="3.52094">
        <ele>332.27</ele>
        <time>2016-04-24T15:24:36Z</time>
      </trkpt>
      <trkpt lat="43.96743" lon="3.52115">
        <ele>332.27</ele>
        <time>2016-04-24T15:24:37Z</time>
      </trkpt>
      <trkpt lat="43.96739" lon="3.52137">
        <ele>331.79</ele>
        <time>2016-04-24T15:24:38Z</time>
      </trkpt>
      <trkpt lat="43.96736" lon="3.5216">
        <ele>331.31</ele>
        <time>2016-04-24T15:24:39Z</time>
      </trkpt>
      <trkpt lat="43.96736" lon="3.52185">
        <ele>330.83</ele>
        <time>2016-04-24T15:24:40Z</time>
      </trkpt>
      <trkpt lat="43.96738" lon="3.52212">
        <ele>330.35</ele>
        <time>2016-04-24T15:24:41Z</time>
      </trkpt>
      <trkpt lat="43.9674" lon="3.5224">
        <ele>330.35</ele>
        <time>2016-04-24T15:24:42Z</time>
      </trkpt>
      <trkpt lat="43.96766" lon="3.52452">
        <ele>327.95</ele>
        <time>2016-04-24T15:24:50Z</time>
      </trkpt>
      <trkpt lat="43.96781" lon="3.52519">
        <ele>326.5</ele>
        <time>2016-04-24T15:24:53Z</time>
      </trkpt>
      <trkpt lat="43.96787" lon="3.52537">
        <ele>326.02</ele>
        <time>2016-04-24T15:24:54Z</time>
      </trkpt>
      <trkpt lat="43.96799" lon="3.5255">
        <ele>325.54</ele>
        <time>2016-04-24T15:24:55Z</time>
      </trkpt>
      <trkpt lat="43.96814" lon="3.52555">
        <ele>325.06</ele>
        <time>2016-04-24T15:24:56Z</time>
      </trkpt>
      <trkpt lat="43.9683" lon="3.52556">
        <ele>324.1</ele>
        <time>2016-04-24T15:24:57Z</time>
      </trkpt>
      <trkpt lat="43.96846" lon="3.52556">
        <ele>323.62</ele>
        <time>2016-04-24T15:24:58Z</time>
      </trkpt>
      <trkpt lat="43.96862" lon="3.52555">
        <ele>323.62</ele>
        <time>2016-04-24T15:24:59Z</time>
      </trkpt>
      <trkpt lat="43.96878" lon="3.52556">
        <ele>324.1</ele>
        <time>2016-04-24T15:25:00Z</time>
      </trkpt>
      <trkpt lat="43.96893" lon="3.52563">
        <ele>324.58</ele>
        <time>2016-04-24T15:25:01Z</time>
      </trkpt>
      <trkpt lat="43.96908" lon="3.52572">
        <ele>324.58</ele>
        <time>2016-04-24T15:25:02Z</time>
      </trkpt>
      <trkpt lat="43.96922" lon="3.52582">
        <ele>324.58</ele>
        <time>2016-04-24T15:25:03Z</time>
      </trkpt>
      <trkpt lat="43.96984" lon="3.52629">
        <ele>323.62</ele>
        <time>2016-04-24T15:25:08Z</time>
      </trkpt>
      <trkpt lat="43.96994" lon="3.5264">
        <ele>323.14</ele>
        <time>2016-04-24T15:25:09Z</time>
      </trkpt>
      <trkpt lat="43.97003" lon="3.52655">
        <ele>323.14</ele>
        <time>2016-04-24T15:25:10Z</time>
      </trkpt>
      <trkpt lat="43.97009" lon="3.52671">
        <ele>323.14</ele>
        <time>2016-04-24T15:25:11Z</time>
      </trkpt>
      <trkpt lat="43.97014" lon="3.52687">
        <ele>323.14</ele>
        <time>2016-04-24T15:25:12Z</time>
      </trkpt>
      <trkpt lat="43.97032" lon="3.5273">
        <ele>322.66</ele>
        <time>2016-04-24T15:25:15Z</time>
      </trkpt>
      <trkpt lat="43.97041" lon="3.52743">
        <ele>322.66</ele>
        <time>2016-04-24T15:25:16Z</time>
      </trkpt>
      <trkpt lat="43.97052" lon="3.52753">
        <ele>322.18</ele>
        <time>2016-04-24T15:25:17Z</time>
      </trkpt>
      <trkpt lat="43.97063" lon="3.5276">
        <ele>322.18</ele>
        <time>2016-04-24T15:25:18Z</time>
      </trkpt>
      <trkpt lat="43.97075" lon="3.52764">
        <ele>322.18</ele>
        <time>2016-04-24T15:25:19Z</time>
      </trkpt>
      <trkpt lat="43.97086" lon="3.52767">
        <ele>322.18</ele>
        <time>2016-04-24T15:25:20Z</time>
      </trkpt>
      <trkpt lat="43.97127" lon="3.52776">
        <ele>321.7</ele>
        <time>2016-04-24T15:25:24Z</time>
      </trkpt>
      <trkpt lat="43.97196" lon="3.52793">
        <ele>320.74</ele>
        <time>2016-04-24T15:25:31Z</time>
      </trkpt>
      <trkpt lat="43.97205" lon="3.52803">
        <ele>320.74</ele>
        <time>2016-04-24T15:25:32Z</time>
      </trkpt>
      <trkpt lat="43.97212" lon="3.52815">
        <ele>320.74</ele>
        <time>2016-04-24T15:25:33Z</time>
      </trkpt>
      <trkpt lat="43.97216" lon="3.52829">
        <ele>319.78</ele>
        <time>2016-04-24T15:25:34Z</time>
      </trkpt>
      <trkpt lat="43.97216" lon="3.52845">
        <ele>319.78</ele>
        <time>2016-04-24T15:25:35Z</time>
      </trkpt>
      <trkpt lat="43.97214" lon="3.52863">
        <ele>319.78</ele>
        <time>2016-04-24T15:25:36Z</time>
      </trkpt>
      <trkpt lat="43.97213" lon="3.5288">
        <ele>319.78</ele>
        <time>2016-04-24T15:25:37Z</time>
      </trkpt>
      <trkpt lat="43.97206" lon="3.52998">
        <ele>319.3</ele>
        <time>2016-04-24T15:25:45Z</time>
      </trkpt>
      <trkpt lat="43.97204" lon="3.53008">
        <ele>319.3</ele>
        <time>2016-04-24T15:25:46Z</time>
      </trkpt>
      <trkpt lat="43.972" lon="3.53016">
        <ele>319.3</ele>
        <time>2016-04-24T15:25:47Z</time>
      </trkpt>
      <trkpt lat="43.97195" lon="3.53023">
        <ele>319.3</ele>
        <time>2016-04-24T15:25:48Z</time>
      </trkpt>
      <trkpt lat="43.97189" lon="3.53029">
        <ele>319.78</ele>
        <time>2016-04-24T15:25:49Z</time>
      </trkpt>
      <trkpt lat="43.9718" lon="3.53033">
        <ele>320.74</ele>
        <time>2016-04-24T15:25:50Z</time>
      </trkpt>
      <trkpt lat="43.97169" lon="3.53035">
        <ele>321.7</ele>
        <time>2016-04-24T15:25:51Z</time>
      </trkpt>
      <trkpt lat="43.97159" lon="3.53035">
        <ele>322.66</ele>
        <time>2016-04-24T15:25:52Z</time>
      </trkpt>
      <trkpt lat="43.97149" lon="3.53036">
        <ele>323.14</ele>
        <time>2016-04-24T15:25:53Z</time>
      </trkpt>
      <trkpt lat="43.97099" lon="3.53048">
        <ele>325.06</ele>
        <time>2016-04-24T15:25:58Z</time>
      </trkpt>
      <trkpt lat="43.97094" lon="3.53057">
        <ele>325.06</ele>
        <time>2016-04-24T15:25:59Z</time>
      </trkpt>
      <trkpt lat="43.97092" lon="3.53071">
        <ele>323.62</ele>
        <time>2016-04-24T15:26:00Z</time>
      </trkpt>
      <trkpt lat="43.9709" lon="3.53085">
        <ele>322.66</ele>
        <time>2016-04-24T15:26:01Z</time>
      </trkpt>
      <trkpt lat="43.97089" lon="3.531">
        <ele>321.7</ele>
        <time>2016-04-24T15:26:02Z</time>
      </trkpt>
      <trkpt lat="43.97077" lon="3.53238">
        <ele>321.7</ele>
        <time>2016-04-24T15:26:11Z</time>
      </trkpt>
      <trkpt lat="43.97074" lon="3.53253">
        <ele>321.7</ele>
        <time>2016-04-24T15:26:12Z</time>
      </trkpt>
      <trkpt lat="43.97069" lon="3.53268">
        <ele>322.18</ele>
        <time>2016-04-24T15:26:13Z</time>
      </trkpt>
      <trkpt lat="43.97062" lon="3.53283">
        <ele>322.18</ele>
        <time>2016-04-24T15:26:14Z</time>
      </trkpt>
      <trkpt lat="43.97053" lon="3.53299">
        <ele>322.66</ele>
        <time>2016-04-24T15:26:15Z</time>
      </trkpt>
      <trkpt lat="43.97042" lon="3.53314">
        <ele>322.66</ele>
        <time>2016-04-24T15:26:16Z</time>
      </trkpt>
      <trkpt lat="43.9701" lon="3.53366">
        <ele>323.14</ele>
        <time>2016-04-24T15:26:19Z</time>
      </trkpt>
      <trkpt lat="43.97001" lon="3.53387">
        <ele>323.14</ele>
        <time>2016-04-24T15:26:20Z</time>
      </trkpt>
      <trkpt lat="43.96994" lon="3.53409">
        <ele>323.14</ele>
        <time>2016-04-24T15:26:21Z</time>
      </trkpt>
      <trkpt lat="43.96992" lon="3.53433">
        <ele>322.66</ele>
        <time>2016-04-24T15:26:22Z</time>
      </trkpt>
      <trkpt lat="43.96992" lon="3.53457">
        <ele>322.66</ele>
        <time>2016-04-24T15:26:23Z</time>
      </trkpt>
      <trkpt lat="43.96995" lon="3.53483">
        <ele>322.18</ele>
        <time>2016-04-24T15:26:24Z</time>
      </trkpt>
      <trkpt lat="43.97" lon="3.53508">
        <ele>321.7</ele>
        <time>2016-04-24T15:26:25Z</time>
      </trkpt>
      <trkpt lat="43.97007" lon="3.53565">
        <ele>320.74</ele>
        <time>2016-04-24T15:26:27Z</time>
      </trkpt>
      <trkpt lat="43.97007" lon="3.53594">
        <ele>320.74</ele>
        <time>2016-04-24T15:26:28Z</time>
      </trkpt>
      <trkpt lat="43.97004" lon="3.53624">
        <ele>320.74</ele>
        <time>2016-04-24T15:26:29Z</time>
      </trkpt>
      <trkpt lat="43.96995" lon="3.53655">
        <ele>320.26</ele>
        <time>2016-04-24T15:26:30Z</time>
      </trkpt>
      <trkpt lat="43.96981" lon="3.53681">
        <ele>320.26</ele>
        <time>2016-04-24T15:26:31Z</time>
      </trkpt>
      <trkpt lat="43.96967" lon="3.53705">
        <ele>319.78</ele>
        <time>2016-04-24T15:26:32Z</time>
      </trkpt>
      <trkpt lat="43.96953" lon="3.53727">
        <ele>319.3</ele>
        <time>2016-04-24T15:26:33Z</time>
      </trkpt>
      <trkpt lat="43.9693" lon="3.53775">
        <ele>318.33</ele>
        <time>2016-04-24T15:26:35Z</time>
      </trkpt>
      <trkpt lat="43.96922" lon="3.53805">
        <ele>317.85</ele>
        <time>2016-04-24T15:26:36Z</time>
      </trkpt>
      <trkpt lat="43.96918" lon="3.53835">
        <ele>316.89</ele>
        <time>2016-04-24T15:26:37Z</time>
      </trkpt>
      <trkpt lat="43.9692" lon="3.53866">
        <ele>315.93</ele>
        <time>2016-04-24T15:26:38Z</time>
      </trkpt>
      <trkpt lat="43.96925" lon="3.53898">
        <ele>314.97</ele>
        <time>2016-04-24T15:26:39Z</time>
      </trkpt>
      <trkpt lat="43.96932" lon="3.53931">
        <ele>314.97</ele>
        <time>2016-04-24T15:26:40Z</time>
      </trkpt>
      <trkpt lat="43.96941" lon="3.53962">
        <ele>314.49</ele>
        <time>2016-04-24T15:26:41Z</time>
      </trkpt>
      <trkpt lat="43.96954" lon="3.53992">
        <ele>314.49</ele>
        <time>2016-04-24T15:26:42Z</time>
      </trkpt>
      <trkpt lat="43.9697" lon="3.54021">
        <ele>313.53</ele>
        <time>2016-04-24T15:26:43Z</time>
      </trkpt>
      <trkpt lat="43.96987" lon="3.5405">
        <ele>313.05</ele>
        <time>2016-04-24T15:26:44Z</time>
      </trkpt>
      <trkpt lat="43.97059" lon="3.54243">
        <ele>310.64</ele>
        <time>2016-04-24T15:26:50Z</time>
      </trkpt>
      <trkpt lat="43.9706" lon="3.54277">
        <ele>311.6</ele>
        <time>2016-04-24T15:26:51Z</time>
      </trkpt>
      <trkpt lat="43.97054" lon="3.54489">
        <ele>309.68</ele>
        <time>2016-04-24T15:26:57Z</time>
      </trkpt>
      <trkpt lat="43.97047" lon="3.54522">
        <ele>309.2</ele>
        <time>2016-04-24T15:26:58Z</time>
      </trkpt>
      <trkpt lat="43.97039" lon="3.54554">
        <ele>309.2</ele>
        <time>2016-04-24T15:26:59Z</time>
      </trkpt>
      <trkpt lat="43.97016" lon="3.5464">
        <ele>309.2</ele>
        <time>2016-04-24T15:27:02Z</time>
      </trkpt>
      <trkpt lat="43.97012" lon="3.54669">
        <ele>308.72</ele>
        <time>2016-04-24T15:27:03Z</time>
      </trkpt>
      <trkpt lat="43.97014" lon="3.547">
        <ele>307.76</ele>
        <time>2016-04-24T15:27:04Z</time>
      </trkpt>
      <trkpt lat="43.97013" lon="3.54882">
        <ele>305.84</ele>
        <time>2016-04-24T15:27:10Z</time>
      </trkpt>
      <trkpt lat="43.97016" lon="3.54908">
        <ele>305.36</ele>
        <time>2016-04-24T15:27:11Z</time>
      </trkpt>
      <trkpt lat="43.97022" lon="3.54933">
        <ele>305.36</ele>
        <time>2016-04-24T15:27:12Z</time>
      </trkpt>
      <trkpt lat="43.97031" lon="3.54956">
        <ele>304.88</ele>
        <time>2016-04-24T15:27:13Z</time>
      </trkpt>
      <trkpt lat="43.97041" lon="3.54978">
        <ele>304.39</ele>
        <time>2016-04-24T15:27:14Z</time>
      </trkpt>
      <trkpt lat="43.97056" lon="3.54999">
        <ele>304.39</ele>
        <time>2016-04-24T15:27:15Z</time>
      </trkpt>
      <trkpt lat="43.9707" lon="3.55022">
        <ele>303.91</ele>
        <time>2016-04-24T15:27:16Z</time>
      </trkpt>
      <trkpt lat="43.97104" lon="3.55108">
        <ele>302.95</ele>
        <time>2016-04-24T15:27:19Z</time>
      </trkpt>
      <trkpt lat="43.97111" lon="3.55141">
        <ele>301.99</ele>
        <time>2016-04-24T15:27:20Z</time>
      </trkpt>
      <trkpt lat="43.97143" lon="3.5535">
        <ele>296.22</ele>
        <time>2016-04-24T15:27:27Z</time>
      </trkpt>
      <trkpt lat="43.97139" lon="3.55372">
        <ele>295.74</ele>
        <time>2016-04-24T15:27:28Z</time>
      </trkpt>
      <trkpt lat="43.97129" lon="3.55389">
        <ele>294.3</ele>
        <time>2016-04-24T15:27:29Z</time>
      </trkpt>
      <trkpt lat="43.97119" lon="3.55405">
        <ele>293.34</ele>
        <time>2016-04-24T15:27:30Z</time>
      </trkpt>
      <trkpt lat="43.97106" lon="3.5542">
        <ele>292.86</ele>
        <time>2016-04-24T15:27:31Z</time>
      </trkpt>
      <trkpt lat="43.97093" lon="3.55437">
        <ele>292.38</ele>
        <time>2016-04-24T15:27:32Z</time>
      </trkpt>
      <trkpt lat="43.97082" lon="3.55457">
        <ele>291.42</ele>
        <time>2016-04-24T15:27:33Z</time>
      </trkpt>
      <trkpt lat="43.97073" lon="3.5548">
        <ele>290.46</ele>
        <time>2016-04-24T15:27:34Z</time>
      </trkpt>
      <trkpt lat="43.97064" lon="3.55504">
        <ele>289.97</ele>
        <time>2016-04-24T15:27:35Z</time>
      </trkpt>
      <trkpt lat="43.97056" lon="3.5553">
        <ele>289.49</ele>
        <time>2016-04-24T15:27:36Z</time>
      </trkpt>
      <trkpt lat="43.97043" lon="3.55581">
        <ele>288.05</ele>
        <time>2016-04-24T15:27:38Z</time>
      </trkpt>
      <trkpt lat="43.9704" lon="3.55607">
        <ele>286.61</ele>
        <time>2016-04-24T15:27:39Z</time>
      </trkpt>
      <trkpt lat="43.97039" lon="3.55634">
        <ele>286.13</ele>
        <time>2016-04-24T15:27:40Z</time>
      </trkpt>
      <trkpt lat="43.9704" lon="3.55796">
        <ele>282.77</ele>
        <time>2016-04-24T15:27:47Z</time>
      </trkpt>
      <trkpt lat="43.97045" lon="3.55817">
        <ele>282.77</ele>
        <time>2016-04-24T15:27:48Z</time>
      </trkpt>
      <trkpt lat="43.97051" lon="3.55838">
        <ele>282.28</ele>
        <time>2016-04-24T15:27:49Z</time>
      </trkpt>
      <trkpt lat="43.97091" lon="3.55974">
        <ele>281.8</ele>
        <time>2016-04-24T15:27:56Z</time>
      </trkpt>
      <trkpt lat="43.97093" lon="3.55996">
        <ele>281.8</ele>
        <time>2016-04-24T15:27:57Z</time>
      </trkpt>
      <trkpt lat="43.97107" lon="3.56212">
        <ele>280.84</ele>
        <time>2016-04-24T15:28:08Z</time>
      </trkpt>
      <trkpt lat="43.97087" lon="3.56351">
        <ele>280.84</ele>
        <time>2016-04-24T15:28:15Z</time>
      </trkpt>
      <trkpt lat="43.9708" lon="3.56368">
        <ele>280.84</ele>
        <time>2016-04-24T15:28:16Z</time>
      </trkpt>
      <trkpt lat="43.97073" lon="3.56384">
        <ele>280.36</ele>
        <time>2016-04-24T15:28:17Z</time>
      </trkpt>
      <trkpt lat="43.9705" lon="3.56427">
        <ele>280.36</ele>
        <time>2016-04-24T15:28:20Z</time>
      </trkpt>
      <trkpt lat="43.97044" lon="3.56443">
        <ele>280.36</ele>
        <time>2016-04-24T15:28:21Z</time>
      </trkpt>
      <trkpt lat="43.9704" lon="3.56462">
        <ele>279.88</ele>
        <time>2016-04-24T15:28:22Z</time>
      </trkpt>
      <trkpt lat="43.97038" lon="3.56481">
        <ele>279.88</ele>
        <time>2016-04-24T15:28:23Z</time>
      </trkpt>
      <trkpt lat="43.97038" lon="3.56501">
        <ele>279.4</ele>
        <time>2016-04-24T15:28:24Z</time>
      </trkpt>
      <trkpt lat="43.9704" lon="3.5652">
        <ele>279.4</ele>
        <time>2016-04-24T15:28:25Z</time>
      </trkpt>
      <trkpt lat="43.97043" lon="3.56539">
        <ele>278.92</ele>
        <time>2016-04-24T15:28:26Z</time>
      </trkpt>
      <trkpt lat="43.97046" lon="3.56617">
        <ele>278.44</ele>
        <time>2016-04-24T15:28:30Z</time>
      </trkpt>
      <trkpt lat="43.97043" lon="3.56636">
        <ele>278.44</ele>
        <time>2016-04-24T15:28:31Z</time>
      </trkpt>
      <trkpt lat="43.9704" lon="3.56654">
        <ele>278.44</ele>
        <time>2016-04-24T15:28:32Z</time>
      </trkpt>
      <trkpt lat="43.97034" lon="3.56671">
        <ele>277.96</ele>
        <time>2016-04-24T15:28:33Z</time>
      </trkpt>
      <trkpt lat="43.97028" lon="3.56687">
        <ele>277.96</ele>
        <time>2016-04-24T15:28:34Z</time>
      </trkpt>
      <trkpt lat="43.97022" lon="3.56703">
        <ele>277.96</ele>
        <time>2016-04-24T15:28:35Z</time>
      </trkpt>
      <trkpt lat="43.97018" lon="3.56719">
        <ele>277.96</ele>
        <time>2016-04-24T15:28:36Z</time>
      </trkpt>
      <trkpt lat="43.97017" lon="3.56737">
        <ele>277.48</ele>
        <time>2016-04-24T15:28:37Z</time>
      </trkpt>
      <trkpt lat="43.97018" lon="3.56756">
        <ele>277</ele>
        <time>2016-04-24T15:28:38Z</time>
      </trkpt>
      <trkpt lat="43.9702" lon="3.56776">
        <ele>277</ele>
        <time>2016-04-24T15:28:39Z</time>
      </trkpt>
      <trkpt lat="43.97042" lon="3.56901">
        <ele>274.11</ele>
        <time>2016-04-24T15:28:45Z</time>
      </trkpt>
      <trkpt lat="43.97049" lon="3.56921">
        <ele>273.63</ele>
        <time>2016-04-24T15:28:46Z</time>
      </trkpt>
      <trkpt lat="43.97058" lon="3.56939">
        <ele>273.63</ele>
        <time>2016-04-24T15:28:47Z</time>
      </trkpt>
      <trkpt lat="43.9711" lon="3.57042">
        <ele>272.19</ele>
        <time>2016-04-24T15:28:53Z</time>
      </trkpt>
      <trkpt lat="43.97114" lon="3.5706">
        <ele>272.19</ele>
        <time>2016-04-24T15:28:54Z</time>
      </trkpt>
      <trkpt lat="43.97116" lon="3.57078">
        <ele>272.19</ele>
        <time>2016-04-24T15:28:55Z</time>
      </trkpt>
      <trkpt lat="43.9712" lon="3.57146">
        <ele>272.67</ele>
        <time>2016-04-24T15:28:59Z</time>
      </trkpt>
      <trkpt lat="43.97118" lon="3.57164">
        <ele>272.67</ele>
        <time>2016-04-24T15:29:00Z</time>
      </trkpt>
      <trkpt lat="43.97114" lon="3.57181">
        <ele>272.67</ele>
        <time>2016-04-24T15:29:01Z</time>
      </trkpt>
      <trkpt lat="43.97108" lon="3.57197">
        <ele>272.67</ele>
        <time>2016-04-24T15:29:02Z</time>
      </trkpt>
      <trkpt lat="43.97102" lon="3.57214">
        <ele>272.67</ele>
        <time>2016-04-24T15:29:03Z</time>
      </trkpt>
      <trkpt lat="43.97061" lon="3.57374">
        <ele>272.19</ele>
        <time>2016-04-24T15:29:12Z</time>
      </trkpt>
      <trkpt lat="43.97047" lon="3.57469">
        <ele>271.71</ele>
        <time>2016-04-24T15:29:18Z</time>
      </trkpt>
      <trkpt lat="43.97047" lon="3.57484">
        <ele>271.71</ele>
        <time>2016-04-24T15:29:19Z</time>
      </trkpt>
      <trkpt lat="43.97051" lon="3.57498">
        <ele>271.71</ele>
        <time>2016-04-24T15:29:20Z</time>
      </trkpt>
      <trkpt lat="43.97056" lon="3.5751">
        <ele>271.23</ele>
        <time>2016-04-24T15:29:21Z</time>
      </trkpt>
      <trkpt lat="43.97063" lon="3.57522">
        <ele>270.27</ele>
        <time>2016-04-24T15:29:22Z</time>
      </trkpt>
      <trkpt lat="43.97071" lon="3.57532">
        <ele>270.27</ele>
        <time>2016-04-24T15:29:23Z</time>
      </trkpt>
      <trkpt lat="43.9708" lon="3.57541">
        <ele>269.79</ele>
        <time>2016-04-24T15:29:24Z</time>
      </trkpt>
      <trkpt lat="43.97091" lon="3.57551">
        <ele>269.31</ele>
        <time>2016-04-24T15:29:25Z</time>
      </trkpt>
      <trkpt lat="43.97141" lon="3.57594">
        <ele>268.35</ele>
        <time>2016-04-24T15:29:30Z</time>
      </trkpt>
      <trkpt lat="43.97152" lon="3.576">
        <ele>268.35</ele>
        <time>2016-04-24T15:29:31Z</time>
      </trkpt>
      <trkpt lat="43.97162" lon="3.57604">
        <ele>268.35</ele>
        <time>2016-04-24T15:29:32Z</time>
      </trkpt>
      <trkpt lat="43.97203" lon="3.57618">
        <ele>267.38</ele>
        <time>2016-04-24T15:29:36Z</time>
      </trkpt>
      <trkpt lat="43.97211" lon="3.57628">
        <ele>267.38</ele>
        <time>2016-04-24T15:29:37Z</time>
      </trkpt>
      <trkpt lat="43.97218" lon="3.5764">
        <ele>267.38</ele>
        <time>2016-04-24T15:29:38Z</time>
      </trkpt>
      <trkpt lat="43.97221" lon="3.57656">
        <ele>267.38</ele>
        <time>2016-04-24T15:29:39Z</time>
      </trkpt>
      <trkpt lat="43.97223" lon="3.57672">
        <ele>267.38</ele>
        <time>2016-04-24T15:29:40Z</time>
      </trkpt>
      <trkpt lat="43.97224" lon="3.5769">
        <ele>266.42</ele>
        <time>2016-04-24T15:29:41Z</time>
      </trkpt>
      <trkpt lat="43.97226" lon="3.57708">
        <ele>265.94</ele>
        <time>2016-04-24T15:29:42Z</time>
      </trkpt>
      <trkpt lat="43.97237" lon="3.57783">
        <ele>264.5</ele>
        <time>2016-04-24T15:29:46Z</time>
      </trkpt>
      <trkpt lat="43.97241" lon="3.578">
        <ele>264.02</ele>
        <time>2016-04-24T15:29:47Z</time>
      </trkpt>
      <trkpt lat="43.97247" lon="3.57816">
        <ele>263.54</ele>
        <time>2016-04-24T15:29:48Z</time>
      </trkpt>
      <trkpt lat="43.97253" lon="3.57832">
        <ele>263.54</ele>
        <time>2016-04-24T15:29:49Z</time>
      </trkpt>
      <trkpt lat="43.97261" lon="3.57848">
        <ele>263.06</ele>
        <time>2016-04-24T15:29:50Z</time>
      </trkpt>
      <trkpt lat="43.9727" lon="3.57864">
        <ele>263.06</ele>
        <time>2016-04-24T15:29:51Z</time>
      </trkpt>
      <trkpt lat="43.9735" lon="3.57998">
        <ele>260.65</ele>
        <time>2016-04-24T15:30:00Z</time>
      </trkpt>
      <trkpt lat="43.97381" lon="3.58056">
        <ele>259.69</ele>
        <time>2016-04-24T15:30:05Z</time>
      </trkpt>
      <trkpt lat="43.97383" lon="3.58065">
        <ele>259.69</ele>
        <time>2016-04-24T15:30:06Z</time>
      </trkpt>
      <trkpt lat="43.97383" lon="3.58072">
        <ele>259.69</ele>
        <time>2016-04-24T15:30:07Z</time>
      </trkpt>
      <trkpt lat="43.97381" lon="3.58081">
        <ele>259.69</ele>
        <time>2016-04-24T15:30:08Z</time>
      </trkpt>
      <trkpt lat="43.97379" lon="3.5809">
        <ele>259.69</ele>
        <time>2016-04-24T15:30:09Z</time>
      </trkpt>
      <trkpt lat="43.97378" lon="3.581">
        <ele>259.69</ele>
        <time>2016-04-24T15:30:10Z</time>
      </trkpt>
      <trkpt lat="43.97377" lon="3.58111">
        <ele>259.69</ele>
        <time>2016-04-24T15:30:11Z</time>
      </trkpt>
      <trkpt lat="43.97376" lon="3.58122">
        <ele>259.69</ele>
        <time>2016-04-24T15:30:12Z</time>
      </trkpt>
      <trkpt lat="43.97373" lon="3.58134">
        <ele>259.21</ele>
        <time>2016-04-24T15:30:13Z</time>
      </trkpt>
      <trkpt lat="43.97344" lon="3.58249">
        <ele>257.77</ele>
        <time>2016-04-24T15:30:21Z</time>
      </trkpt>
      <trkpt lat="43.97344" lon="3.58264">
        <ele>257.29</ele>
        <time>2016-04-24T15:30:22Z</time>
      </trkpt>
      <trkpt lat="43.97343" lon="3.58347">
        <ele>257.29</ele>
        <time>2016-04-24T15:30:28Z</time>
      </trkpt>
      <trkpt lat="43.97344" lon="3.5836">
        <ele>257.29</ele>
        <time>2016-04-24T15:30:29Z</time>
      </trkpt>
      <trkpt lat="43.97346" lon="3.58371">
        <ele>257.29</ele>
        <time>2016-04-24T15:30:30Z</time>
      </trkpt>
      <trkpt lat="43.97353" lon="3.58471">
        <ele>256.33</ele>
        <time>2016-04-24T15:30:38Z</time>
      </trkpt>
      <trkpt lat="43.97358" lon="3.58592">
        <ele>254.89</ele>
        <time>2016-04-24T15:30:47Z</time>
      </trkpt>
      <trkpt lat="43.97364" lon="3.58711">
        <ele>253.93</ele>
        <time>2016-04-24T15:30:57Z</time>
      </trkpt>
      <trkpt lat="43.97373" lon="3.58828">
        <ele>252.96</ele>
        <time>2016-04-24T15:31:07Z</time>
      </trkpt>
      <trkpt lat="43.97373" lon="3.58881">
        <ele>252</ele>
        <time>2016-04-24T15:31:11Z</time>
      </trkpt>
      <trkpt lat="43.97371" lon="3.58898">
        <ele>251.52</ele>
        <time>2016-04-24T15:31:12Z</time>
      </trkpt>
      <trkpt lat="43.97339" lon="3.59063">
        <ele>249.6</ele>
        <time>2016-04-24T15:31:21Z</time>
      </trkpt>
      <trkpt lat="43.97318" lon="3.59192">
        <ele>248.64</ele>
        <time>2016-04-24T15:31:29Z</time>
      </trkpt>
      <trkpt lat="43.97318" lon="3.59207">
        <ele>248.64</ele>
        <time>2016-04-24T15:31:30Z</time>
      </trkpt>
      <trkpt lat="43.97323" lon="3.5928">
        <ele>248.16</ele>
        <time>2016-04-24T15:31:37Z</time>
      </trkpt>
      <trkpt lat="43.97325" lon="3.5929">
        <ele>248.16</ele>
        <time>2016-04-24T15:31:38Z</time>
      </trkpt>
      <trkpt lat="43.97329" lon="3.59301">
        <ele>247.68</ele>
        <time>2016-04-24T15:31:39Z</time>
      </trkpt>
      <trkpt lat="43.97335" lon="3.59309">
        <ele>247.68</ele>
        <time>2016-04-24T15:31:40Z</time>
      </trkpt>
      <trkpt lat="43.97344" lon="3.59315">
        <ele>247.2</ele>
        <time>2016-04-24T15:31:41Z</time>
      </trkpt>
      <trkpt lat="43.97355" lon="3.59323">
        <ele>247.2</ele>
        <time>2016-04-24T15:31:42Z</time>
      </trkpt>
      <trkpt lat="43.97366" lon="3.59334">
        <ele>247.2</ele>
        <time>2016-04-24T15:31:43Z</time>
      </trkpt>
      <trkpt lat="43.97377" lon="3.59348">
        <ele>247.2</ele>
        <time>2016-04-24T15:31:44Z</time>
      </trkpt>
      <trkpt lat="43.97388" lon="3.59364">
        <ele>247.2</ele>
        <time>2016-04-24T15:31:45Z</time>
      </trkpt>
      <trkpt lat="43.97498" lon="3.59498">
        <ele>244.79</ele>
        <time>2016-04-24T15:31:53Z</time>
      </trkpt>
      <trkpt lat="43.97657" lon="3.5964">
        <ele>242.39</ele>
        <time>2016-04-24T15:32:02Z</time>
      </trkpt>
      <trkpt lat="43.9781" lon="3.5978">
        <ele>239.99</ele>
        <time>2016-04-24T15:32:10Z</time>
      </trkpt>
      <trkpt lat="43.97906" lon="3.59874">
        <ele>239.02</ele>
        <time>2016-04-24T15:32:17Z</time>
      </trkpt>
      <trkpt lat="43.98086" lon="3.60027">
        <ele>236.62</ele>
        <time>2016-04-24T15:32:29Z</time>
      </trkpt>
      <trkpt lat="43.98272" lon="3.60199">
        <ele>234.22</ele>
        <time>2016-04-24T15:32:41Z</time>
      </trkpt>
      <trkpt lat="43.98407" lon="3.60327">
        <ele>232.3</ele>
        <time>2016-04-24T15:32:51Z</time>
      </trkpt>
      <trkpt lat="43.98532" lon="3.60418">
        <ele>230.85</ele>
        <time>2016-04-24T15:33:00Z</time>
      </trkpt>
      <trkpt lat="43.98555" lon="3.60431">
        <ele>230.37</ele>
        <time>2016-04-24T15:33:03Z</time>
      </trkpt>
      <trkpt lat="43.98561" lon="3.60436">
        <ele>230.37</ele>
        <time>2016-04-24T15:33:04Z</time>
      </trkpt>
      <trkpt lat="43.98566" lon="3.6044">
        <ele>230.37</ele>
        <time>2016-04-24T15:33:05Z</time>
      </trkpt>
      <trkpt lat="43.98572" lon="3.60443">
        <ele>230.37</ele>
        <time>2016-04-24T15:33:06Z</time>
      </trkpt>
      <trkpt lat="43.98579" lon="3.60445">
        <ele>230.37</ele>
        <time>2016-04-24T15:33:07Z</time>
      </trkpt>
      <trkpt lat="43.98589" lon="3.60446">
        <ele>230.37</ele>
        <time>2016-04-24T15:33:08Z</time>
      </trkpt>
      <trkpt lat="43.98688" lon="3.60461">
        <ele>231.33</ele>
        <time>2016-04-24T15:33:15Z</time>
      </trkpt>
      <trkpt lat="43.98865" lon="3.60496">
        <ele>231.81</ele>
        <time>2016-04-24T15:33:26Z</time>
      </trkpt>
      <trkpt lat="43.98983" lon="3.60583">
        <ele>228.93</ele>
        <time>2016-04-24T15:33:34Z</time>
      </trkpt>
      <trkpt lat="43.98995" lon="3.606">
        <ele>228.45</ele>
        <time>2016-04-24T15:33:35Z</time>
      </trkpt>
      <trkpt lat="43.99007" lon="3.60617">
        <ele>227.97</ele>
        <time>2016-04-24T15:33:36Z</time>
      </trkpt>
      <trkpt lat="43.99082" lon="3.60767">
        <ele>226.53</ele>
        <time>2016-04-24T15:33:44Z</time>
      </trkpt>
      <trkpt lat="43.99194" lon="3.6099">
        <ele>226.05</ele>
        <time>2016-04-24T15:33:57Z</time>
      </trkpt>
      <trkpt lat="43.992" lon="3.61006">
        <ele>226.05</ele>
        <time>2016-04-24T15:33:58Z</time>
      </trkpt>
      <trkpt lat="43.99204" lon="3.61023">
        <ele>226.05</ele>
        <time>2016-04-24T15:33:59Z</time>
      </trkpt>
      <trkpt lat="43.99207" lon="3.6104">
        <ele>226.05</ele>
        <time>2016-04-24T15:34:00Z</time>
      </trkpt>
      <trkpt lat="43.99209" lon="3.61056">
        <ele>226.05</ele>
        <time>2016-04-24T15:34:01Z</time>
      </trkpt>
      <trkpt lat="43.9921" lon="3.61072">
        <ele>226.05</ele>
        <time>2016-04-24T15:34:02Z</time>
      </trkpt>
      <trkpt lat="43.99209" lon="3.61113">
        <ele>225.57</ele>
        <time>2016-04-24T15:34:05Z</time>
      </trkpt>
      <trkpt lat="43.99207" lon="3.61124">
        <ele>225.57</ele>
        <time>2016-04-24T15:34:06Z</time>
      </trkpt>
      <trkpt lat="43.99203" lon="3.61147">
        <ele>225.09</ele>
        <time>2016-04-24T15:34:08Z</time>
      </trkpt>
      <trkpt lat="43.99205" lon="3.6116">
        <ele>225.09</ele>
        <time>2016-04-24T15:34:09Z</time>
      </trkpt>
      <trkpt lat="43.99209" lon="3.61173">
        <ele>224.61</ele>
        <time>2016-04-24T15:34:10Z</time>
      </trkpt>
      <trkpt lat="43.99219" lon="3.61202">
        <ele>224.61</ele>
        <time>2016-04-24T15:34:12Z</time>
      </trkpt>
      <trkpt lat="43.99221" lon="3.61219">
        <ele>224.61</ele>
        <time>2016-04-24T15:34:13Z</time>
      </trkpt>
      <trkpt lat="43.99222" lon="3.61236">
        <ele>224.12</ele>
        <time>2016-04-24T15:34:14Z</time>
      </trkpt>
      <trkpt lat="43.99227" lon="3.61405">
        <ele>223.64</ele>
        <time>2016-04-24T15:34:22Z</time>
      </trkpt>
      <trkpt lat="43.99237" lon="3.61625">
        <ele>223.16</ele>
        <time>2016-04-24T15:34:34Z</time>
      </trkpt>
      <trkpt lat="43.99228" lon="3.61807">
        <ele>223.64</ele>
        <time>2016-04-24T15:34:44Z</time>
      </trkpt>
      <trkpt lat="43.99191" lon="3.61998">
        <ele>222.68</ele>
        <time>2016-04-24T15:34:52Z</time>
      </trkpt>
      <trkpt lat="43.99186" lon="3.62244">
        <ele>222.2</ele>
        <time>2016-04-24T15:35:01Z</time>
      </trkpt>
      <trkpt lat="43.99187" lon="3.62543">
        <ele>220.76</ele>
        <time>2016-04-24T15:35:13Z</time>
      </trkpt>
      <trkpt lat="43.99191" lon="3.62661">
        <ele>220.28</ele>
        <time>2016-04-24T15:35:20Z</time>
      </trkpt>
      <trkpt lat="43.9919" lon="3.62682">
        <ele>220.28</ele>
        <time>2016-04-24T15:35:25Z</time>
      </trkpt>
      <trkpt lat="43.99186" lon="3.62691">
        <ele>218.84</ele>
        <time>2016-04-24T15:35:28Z</time>
      </trkpt>
      <trkpt lat="43.99182" lon="3.62696">
        <ele>218.84</ele>
        <time>2016-04-24T15:35:29Z</time>
      </trkpt>
      <trkpt lat="43.99177" lon="3.62701">
        <ele>218.36</ele>
        <time>2016-04-24T15:35:30Z</time>
      </trkpt>
      <trkpt lat="43.99173" lon="3.62708">
        <ele>218.36</ele>
        <time>2016-04-24T15:35:31Z</time>
      </trkpt>
      <trkpt lat="43.99171" lon="3.62717">
        <ele>218.36</ele>
        <time>2016-04-24T15:35:32Z</time>
      </trkpt>
      <trkpt lat="43.99172" lon="3.62726">
        <ele>218.36</ele>
        <time>2016-04-24T15:35:33Z</time>
      </trkpt>
      <trkpt lat="43.99175" lon="3.62735">
        <ele>217.88</ele>
        <time>2016-04-24T15:35:34Z</time>
      </trkpt>
      <trkpt lat="43.99181" lon="3.62741">
        <ele>217.88</ele>
        <time>2016-04-24T15:35:35Z</time>
      </trkpt>
      <trkpt lat="43.9919" lon="3.62748">
        <ele>217.4</ele>
        <time>2016-04-24T15:35:36Z</time>
      </trkpt>
      <trkpt lat="43.992" lon="3.62758">
        <ele>217.88</ele>
        <time>2016-04-24T15:35:37Z</time>
      </trkpt>
      <trkpt lat="43.99207" lon="3.62773">
        <ele>217.4</ele>
        <time>2016-04-24T15:35:38Z</time>
      </trkpt>
      <trkpt lat="43.99214" lon="3.62788">
        <ele>217.4</ele>
        <time>2016-04-24T15:35:39Z</time>
      </trkpt>
      <trkpt lat="43.99219" lon="3.62805">
        <ele>216.91</ele>
        <time>2016-04-24T15:35:40Z</time>
      </trkpt>
      <trkpt lat="43.99225" lon="3.62824">
        <ele>216.91</ele>
        <time>2016-04-24T15:35:41Z</time>
      </trkpt>
      <trkpt lat="43.99293" lon="3.63033">
        <ele>215.95</ele>
        <time>2016-04-24T15:35:51Z</time>
      </trkpt>
      <trkpt lat="43.99353" lon="3.63245">
        <ele>216.43</ele>
        <time>2016-04-24T15:35:59Z</time>
      </trkpt>
      <trkpt lat="43.99383" lon="3.63343">
        <ele>215.95</ele>
        <time>2016-04-24T15:36:03Z</time>
      </trkpt>
      <trkpt lat="43.99387" lon="3.6337">
        <ele>215.95</ele>
        <time>2016-04-24T15:36:04Z</time>
      </trkpt>
      <trkpt lat="43.99389" lon="3.63399">
        <ele>215.95</ele>
        <time>2016-04-24T15:36:05Z</time>
      </trkpt>
      <trkpt lat="43.99388" lon="3.63428">
        <ele>215.95</ele>
        <time>2016-04-24T15:36:06Z</time>
      </trkpt>
      <trkpt lat="43.99386" lon="3.63458">
        <ele>216.43</ele>
        <time>2016-04-24T15:36:07Z</time>
      </trkpt>
      <trkpt lat="43.99381" lon="3.63487">
        <ele>216.43</ele>
        <time>2016-04-24T15:36:08Z</time>
      </trkpt>
      <trkpt lat="43.99376" lon="3.63516">
        <ele>215.95</ele>
        <time>2016-04-24T15:36:09Z</time>
      </trkpt>
      <trkpt lat="43.99347" lon="3.63732">
        <ele>215.47</ele>
        <time>2016-04-24T15:36:17Z</time>
      </trkpt>
      <trkpt lat="43.99348" lon="3.63759">
        <ele>215.47</ele>
        <time>2016-04-24T15:36:18Z</time>
      </trkpt>
      <trkpt lat="43.99352" lon="3.63786">
        <ele>215.95</ele>
        <time>2016-04-24T15:36:19Z</time>
      </trkpt>
      <trkpt lat="43.99357" lon="3.63813">
        <ele>215.95</ele>
        <time>2016-04-24T15:36:20Z</time>
      </trkpt>
      <trkpt lat="43.99365" lon="3.63841">
        <ele>215.95</ele>
        <time>2016-04-24T15:36:21Z</time>
      </trkpt>
      <trkpt lat="43.99374" lon="3.63868">
        <ele>215.47</ele>
        <time>2016-04-24T15:36:22Z</time>
      </trkpt>
      <trkpt lat="43.99422" lon="3.63996">
        <ele>214.99</ele>
        <time>2016-04-24T15:36:28Z</time>
      </trkpt>
      <trkpt lat="43.99432" lon="3.64005">
        <ele>214.51</ele>
        <time>2016-04-24T15:36:29Z</time>
      </trkpt>
      <trkpt lat="43.99446" lon="3.64009">
        <ele>214.03</ele>
        <time>2016-04-24T15:36:30Z</time>
      </trkpt>
      <trkpt lat="43.99462" lon="3.64007">
        <ele>214.03</ele>
        <time>2016-04-24T15:36:31Z</time>
      </trkpt>
      <trkpt lat="43.99479" lon="3.64003">
        <ele>213.55</ele>
        <time>2016-04-24T15:36:32Z</time>
      </trkpt>
      <trkpt lat="43.99497" lon="3.64001">
        <ele>213.55</ele>
        <time>2016-04-24T15:36:33Z</time>
      </trkpt>
      <trkpt lat="43.99515" lon="3.63996">
        <ele>213.07</ele>
        <time>2016-04-24T15:36:34Z</time>
      </trkpt>
      <trkpt lat="43.99532" lon="3.63996">
        <ele>213.07</ele>
        <time>2016-04-24T15:36:35Z</time>
      </trkpt>
      <trkpt lat="43.99552" lon="3.64001">
        <ele>213.55</ele>
        <time>2016-04-24T15:36:36Z</time>
      </trkpt>
      <trkpt lat="43.99572" lon="3.64011">
        <ele>214.03</ele>
        <time>2016-04-24T15:36:37Z</time>
      </trkpt>
      <trkpt lat="43.99592" lon="3.64025">
        <ele>214.03</ele>
        <time>2016-04-24T15:36:38Z</time>
      </trkpt>
      <trkpt lat="43.9961" lon="3.6404">
        <ele>213.55</ele>
        <time>2016-04-24T15:36:39Z</time>
      </trkpt>
      <trkpt lat="43.99626" lon="3.64059">
        <ele>213.55</ele>
        <time>2016-04-24T15:36:40Z</time>
      </trkpt>
      <trkpt lat="43.9964" lon="3.64079">
        <ele>213.55</ele>
        <time>2016-04-24T15:36:41Z</time>
      </trkpt>
      <trkpt lat="43.99653" lon="3.64098">
        <ele>213.55</ele>
        <time>2016-04-24T15:36:42Z</time>
      </trkpt>
      <trkpt lat="43.99747" lon="3.64265">
        <ele>212.59</ele>
        <time>2016-04-24T15:36:50Z</time>
      </trkpt>
      <trkpt lat="43.99751" lon="3.6429">
        <ele>212.11</ele>
        <time>2016-04-24T15:36:51Z</time>
      </trkpt>
      <trkpt lat="43.99753" lon="3.64316">
        <ele>212.11</ele>
        <time>2016-04-24T15:36:52Z</time>
      </trkpt>
      <trkpt lat="43.99752" lon="3.64341">
        <ele>212.11</ele>
        <time>2016-04-24T15:36:53Z</time>
      </trkpt>
      <trkpt lat="43.99749" lon="3.64366">
        <ele>212.11</ele>
        <time>2016-04-24T15:36:54Z</time>
      </trkpt>
      <trkpt lat="43.99743" lon="3.64389">
        <ele>211.63</ele>
        <time>2016-04-24T15:36:55Z</time>
      </trkpt>
      <trkpt lat="43.99736" lon="3.64411">
        <ele>210.67</ele>
        <time>2016-04-24T15:36:56Z</time>
      </trkpt>
      <trkpt lat="43.99698" lon="3.64611">
        <ele>208.74</ele>
        <time>2016-04-24T15:37:05Z</time>
      </trkpt>
      <trkpt lat="43.99699" lon="3.64633">
        <ele>208.26</ele>
        <time>2016-04-24T15:37:06Z</time>
      </trkpt>
      <trkpt lat="43.99703" lon="3.64654">
        <ele>208.26</ele>
        <time>2016-04-24T15:37:07Z</time>
      </trkpt>
      <trkpt lat="43.9971" lon="3.64674">
        <ele>207.78</ele>
        <time>2016-04-24T15:37:08Z</time>
      </trkpt>
      <trkpt lat="43.9972" lon="3.64693">
        <ele>207.3</ele>
        <time>2016-04-24T15:37:09Z</time>
      </trkpt>
      <trkpt lat="43.99733" lon="3.64709">
        <ele>206.82</ele>
        <time>2016-04-24T15:37:10Z</time>
      </trkpt>
      <trkpt lat="43.99748" lon="3.64721">
        <ele>206.82</ele>
        <time>2016-04-24T15:37:11Z</time>
      </trkpt>
      <trkpt lat="43.99765" lon="3.64731">
        <ele>205.86</ele>
        <time>2016-04-24T15:37:12Z</time>
      </trkpt>
      <trkpt lat="43.99783" lon="3.64739">
        <ele>204.9</ele>
        <time>2016-04-24T15:37:13Z</time>
      </trkpt>
      <trkpt lat="43.99815" lon="3.6476">
        <ele>203.46</ele>
        <time>2016-04-24T15:37:15Z</time>
      </trkpt>
      <trkpt lat="43.9983" lon="3.64773">
        <ele>202.98</ele>
        <time>2016-04-24T15:37:16Z</time>
      </trkpt>
      <trkpt lat="43.99965" lon="3.64898">
        <ele>200.57</ele>
        <time>2016-04-24T15:37:26Z</time>
      </trkpt>
      <trkpt lat="44.00017" lon="3.64985">
        <ele>201.05</ele>
        <time>2016-04-24T15:37:31Z</time>
      </trkpt>
      <trkpt lat="44.00024" lon="3.65006">
        <ele>201.05</ele>
        <time>2016-04-24T15:37:32Z</time>
      </trkpt>
      <trkpt lat="44.00029" lon="3.65028">
        <ele>201.53</ele>
        <time>2016-04-24T15:37:33Z</time>
      </trkpt>
      <trkpt lat="44.00074" lon="3.65226">
        <ele>200.09</ele>
        <time>2016-04-24T15:37:42Z</time>
      </trkpt>
      <trkpt lat="44.00102" lon="3.65295">
        <ele>198.65</ele>
        <time>2016-04-24T15:37:46Z</time>
      </trkpt>
      <trkpt lat="44.00107" lon="3.65315">
        <ele>198.17</ele>
        <time>2016-04-24T15:37:47Z</time>
      </trkpt>
      <trkpt lat="44.00111" lon="3.65336">
        <ele>198.17</ele>
        <time>2016-04-24T15:37:48Z</time>
      </trkpt>
      <trkpt lat="44.00114" lon="3.6536">
        <ele>197.69</ele>
        <time>2016-04-24T15:37:49Z</time>
      </trkpt>
      <trkpt lat="44.00116" lon="3.65385">
        <ele>197.69</ele>
        <time>2016-04-24T15:37:50Z</time>
      </trkpt>
      <trkpt lat="44.0014" lon="3.65554">
        <ele>196.25</ele>
        <time>2016-04-24T15:37:56Z</time>
      </trkpt>
      <trkpt lat="44.00143" lon="3.65582">
        <ele>196.25</ele>
        <time>2016-04-24T15:37:57Z</time>
      </trkpt>
      <trkpt lat="44.00144" lon="3.65612">
        <ele>195.77</ele>
        <time>2016-04-24T15:37:58Z</time>
      </trkpt>
      <trkpt lat="44.00142" lon="3.65643">
        <ele>195.77</ele>
        <time>2016-04-24T15:37:59Z</time>
      </trkpt>
      <trkpt lat="44.00138" lon="3.65675">
        <ele>195.77</ele>
        <time>2016-04-24T15:38:00Z</time>
      </trkpt>
      <trkpt lat="44.00131" lon="3.65705">
        <ele>195.77</ele>
        <time>2016-04-24T15:38:01Z</time>
      </trkpt>
      <trkpt lat="44.0012" lon="3.65731">
        <ele>195.28</ele>
        <time>2016-04-24T15:38:02Z</time>
      </trkpt>
      <trkpt lat="44.00107" lon="3.65753">
        <ele>195.28</ele>
        <time>2016-04-24T15:38:03Z</time>
      </trkpt>
      <trkpt lat="44.00092" lon="3.65772">
        <ele>195.28</ele>
        <time>2016-04-24T15:38:04Z</time>
      </trkpt>
      <trkpt lat="44.00077" lon="3.65788">
        <ele>195.28</ele>
        <time>2016-04-24T15:38:05Z</time>
      </trkpt>
      <trkpt lat="44.00061" lon="3.65803">
        <ele>195.28</ele>
        <time>2016-04-24T15:38:06Z</time>
      </trkpt>
      <trkpt lat="44.00049" lon="3.65818">
        <ele>195.28</ele>
        <time>2016-04-24T15:38:07Z</time>
      </trkpt>
      <trkpt lat="44.0004" lon="3.65838">
        <ele>195.77</ele>
        <time>2016-04-24T15:38:08Z</time>
      </trkpt>
      <trkpt lat="44.00041" lon="3.65857">
        <ele>196.25</ele>
        <time>2016-04-24T15:38:09Z</time>
      </trkpt>
      <trkpt lat="44.00043" lon="3.65877">
        <ele>196.73</ele>
        <time>2016-04-24T15:38:10Z</time>
      </trkpt>
      <trkpt lat="44.00046" lon="3.65897">
        <ele>196.25</ele>
        <time>2016-04-24T15:38:11Z</time>
      </trkpt>
      <trkpt lat="44.00051" lon="3.65915">
        <ele>196.25</ele>
        <time>2016-04-24T15:38:12Z</time>
      </trkpt>
      <trkpt lat="44.00058" lon="3.65933">
        <ele>196.25</ele>
        <time>2016-04-24T15:38:13Z</time>
      </trkpt>
      <trkpt lat="44.00066" lon="3.65951">
        <ele>197.21</ele>
        <time>2016-04-24T15:38:14Z</time>
      </trkpt>
      <trkpt lat="44.00074" lon="3.65968">
        <ele>197.21</ele>
        <time>2016-04-24T15:38:15Z</time>
      </trkpt>
      <trkpt lat="44.0008" lon="3.65986">
        <ele>196.73</ele>
        <time>2016-04-24T15:38:16Z</time>
      </trkpt>
      <trkpt lat="44.00084" lon="3.66004">
        <ele>196.73</ele>
        <time>2016-04-24T15:38:17Z</time>
      </trkpt>
      <trkpt lat="44.00088" lon="3.66022">
        <ele>196.25</ele>
        <time>2016-04-24T15:38:18Z</time>
      </trkpt>
      <trkpt lat="44.00092" lon="3.66038">
        <ele>195.77</ele>
        <time>2016-04-24T15:38:19Z</time>
      </trkpt>
      <trkpt lat="44.00097" lon="3.66052">
        <ele>195.77</ele>
        <time>2016-04-24T15:38:20Z</time>
      </trkpt>
      <trkpt lat="44.00108" lon="3.66075">
        <ele>194.8</ele>
        <time>2016-04-24T15:38:22Z</time>
      </trkpt>
      <trkpt lat="44.00107" lon="3.66085">
        <ele>194.32</ele>
        <time>2016-04-24T15:38:23Z</time>
      </trkpt>
      <trkpt lat="44.00106" lon="3.66094">
        <ele>193.84</ele>
        <time>2016-04-24T15:38:24Z</time>
      </trkpt>
      <trkpt lat="44.00102" lon="3.66102">
        <ele>193.36</ele>
        <time>2016-04-24T15:38:25Z</time>
      </trkpt>
      <trkpt lat="44.00097" lon="3.6611">
        <ele>192.88</ele>
        <time>2016-04-24T15:38:26Z</time>
      </trkpt>
      <trkpt lat="44.00092" lon="3.6612">
        <ele>192.88</ele>
        <time>2016-04-24T15:38:27Z</time>
      </trkpt>
      <trkpt lat="44.00032" lon="3.66233">
        <ele>194.8</ele>
        <time>2016-04-24T15:38:37Z</time>
      </trkpt>
      <trkpt lat="43.99984" lon="3.66324">
        <ele>201.53</ele>
        <time>2016-04-24T15:38:46Z</time>
      </trkpt>
      <trkpt lat="43.99968" lon="3.6636">
        <ele>202.01</ele>
        <time>2016-04-24T15:38:49Z</time>
      </trkpt>
      <trkpt lat="43.99965" lon="3.66375">
        <ele>202.01</ele>
        <time>2016-04-24T15:38:50Z</time>
      </trkpt>
      <trkpt lat="43.99951" lon="3.66454">
        <ele>202.01</ele>
        <time>2016-04-24T15:38:55Z</time>
      </trkpt>
      <trkpt lat="43.99924" lon="3.66615">
        <ele>201.53</ele>
        <time>2016-04-24T15:39:04Z</time>
      </trkpt>
      <trkpt lat="43.99901" lon="3.66773">
        <ele>200.57</ele>
        <time>2016-04-24T15:39:13Z</time>
      </trkpt>
      <trkpt lat="43.99886" lon="3.66958">
        <ele>198.65</ele>
        <time>2016-04-24T15:39:21Z</time>
      </trkpt>
      <trkpt lat="43.99866" lon="3.67184">
        <ele>195.28</ele>
        <time>2016-04-24T15:39:32Z</time>
      </trkpt>
      <trkpt lat="43.99832" lon="3.67349">
        <ele>191.92</ele>
        <time>2016-04-24T15:39:40Z</time>
      </trkpt>
      <trkpt lat="43.99785" lon="3.67466">
        <ele>190.96</ele>
        <time>2016-04-24T15:39:47Z</time>
      </trkpt>
      <trkpt lat="43.99754" lon="3.67548">
        <ele>191.44</ele>
        <time>2016-04-24T15:39:55Z</time>
      </trkpt>
      <trkpt lat="43.99719" lon="3.67642">
        <ele>193.84</ele>
        <time>2016-04-24T15:40:08Z</time>
      </trkpt>
      <trkpt lat="43.99708" lon="3.67674">
        <ele>197.21</ele>
        <time>2016-04-24T15:40:12Z</time>
      </trkpt>
      <trkpt lat="43.99703" lon="3.67682">
        <ele>197.69</ele>
        <time>2016-04-24T15:40:13Z</time>
      </trkpt>
      <trkpt lat="43.99695" lon="3.67689">
        <ele>197.69</ele>
        <time>2016-04-24T15:40:14Z</time>
      </trkpt>
      <trkpt lat="43.99629" lon="3.67748">
        <ele>195.77</ele>
        <time>2016-04-24T15:40:21Z</time>
      </trkpt>
      <trkpt lat="43.99585" lon="3.67787">
        <ele>194.8</ele>
        <time>2016-04-24T15:40:27Z</time>
      </trkpt>
      <trkpt lat="43.99577" lon="3.67787">
        <ele>194.8</ele>
        <time>2016-04-24T15:40:28Z</time>
      </trkpt>
      <trkpt lat="43.99569" lon="3.67781">
        <ele>194.32</ele>
        <time>2016-04-24T15:40:29Z</time>
      </trkpt>
      <trkpt lat="43.99561" lon="3.67774">
        <ele>194.32</ele>
        <time>2016-04-24T15:40:30Z</time>
      </trkpt>
      <trkpt lat="43.99553" lon="3.67764">
        <ele>194.32</ele>
        <time>2016-04-24T15:40:31Z</time>
      </trkpt>
      <trkpt lat="43.99547" lon="3.67753">
        <ele>193.84</ele>
        <time>2016-04-24T15:40:32Z</time>
      </trkpt>
      <trkpt lat="43.99541" lon="3.67743">
        <ele>193.84</ele>
        <time>2016-04-24T15:40:33Z</time>
      </trkpt>
      <trkpt lat="43.99515" lon="3.67706">
        <ele>193.84</ele>
        <time>2016-04-24T15:40:37Z</time>
      </trkpt>
      <trkpt lat="43.99507" lon="3.67698">
        <ele>193.84</ele>
        <time>2016-04-24T15:40:38Z</time>
      </trkpt>
      <trkpt lat="43.99498" lon="3.67692">
        <ele>193.84</ele>
        <time>2016-04-24T15:40:39Z</time>
      </trkpt>
      <trkpt lat="43.99476" lon="3.67682">
        <ele>195.28</ele>
        <time>2016-04-24T15:40:41Z</time>
      </trkpt>
      <trkpt lat="43.99466" lon="3.67678">
        <ele>197.21</ele>
        <time>2016-04-24T15:40:42Z</time>
      </trkpt>
      <trkpt lat="43.99455" lon="3.67683">
        <ele>198.17</ele>
        <time>2016-04-24T15:40:43Z</time>
      </trkpt>
      <trkpt lat="43.99442" lon="3.67686">
        <ele>197.69</ele>
        <time>2016-04-24T15:40:44Z</time>
      </trkpt>
      <trkpt lat="43.99429" lon="3.6769">
        <ele>196.73</ele>
        <time>2016-04-24T15:40:45Z</time>
      </trkpt>
      <trkpt lat="43.99388" lon="3.67702">
        <ele>195.77</ele>
        <time>2016-04-24T15:40:48Z</time>
      </trkpt>
      <trkpt lat="43.99377" lon="3.6771">
        <ele>195.77</ele>
        <time>2016-04-24T15:40:49Z</time>
      </trkpt>
      <trkpt lat="43.99366" lon="3.67718">
        <ele>195.28</ele>
        <time>2016-04-24T15:40:50Z</time>
      </trkpt>
      <trkpt lat="43.99355" lon="3.67727">
        <ele>195.28</ele>
        <time>2016-04-24T15:40:51Z</time>
      </trkpt>
      <trkpt lat="43.99345" lon="3.67738">
        <ele>195.28</ele>
        <time>2016-04-24T15:40:52Z</time>
      </trkpt>
      <trkpt lat="43.9924" lon="3.67864">
        <ele>195.77</ele>
        <time>2016-04-24T15:41:03Z</time>
      </trkpt>
      <trkpt lat="43.99235" lon="3.6788">
        <ele>195.77</ele>
        <time>2016-04-24T15:41:04Z</time>
      </trkpt>
      <trkpt lat="43.9923" lon="3.67898">
        <ele>194.8</ele>
        <time>2016-04-24T15:41:05Z</time>
      </trkpt>
      <trkpt lat="43.99195" lon="3.68067">
        <ele>190.96</ele>
        <time>2016-04-24T15:41:13Z</time>
      </trkpt>
      <trkpt lat="43.99189" lon="3.68131">
        <ele>189.52</ele>
        <time>2016-04-24T15:41:16Z</time>
      </trkpt>
      <trkpt lat="43.9919" lon="3.68153">
        <ele>189.04</ele>
        <time>2016-04-24T15:41:17Z</time>
      </trkpt>
      <trkpt lat="43.99193" lon="3.68175">
        <ele>189.04</ele>
        <time>2016-04-24T15:41:18Z</time>
      </trkpt>
      <trkpt lat="43.99198" lon="3.68198">
        <ele>188.56</ele>
        <time>2016-04-24T15:41:19Z</time>
      </trkpt>
      <trkpt lat="43.99205" lon="3.68221">
        <ele>188.08</ele>
        <time>2016-04-24T15:41:20Z</time>
      </trkpt>
      <trkpt lat="43.99213" lon="3.68244">
        <ele>188.08</ele>
        <time>2016-04-24T15:41:21Z</time>
      </trkpt>
      <trkpt lat="43.99277" lon="3.68405">
        <ele>187.11</ele>
        <time>2016-04-24T15:41:27Z</time>
      </trkpt>
      <trkpt lat="43.99355" lon="3.68631">
        <ele>186.15</ele>
        <time>2016-04-24T15:41:35Z</time>
      </trkpt>
      <trkpt lat="43.99358" lon="3.68657">
        <ele>185.67</ele>
        <time>2016-04-24T15:41:36Z</time>
      </trkpt>
      <trkpt lat="43.99358" lon="3.68681">
        <ele>185.67</ele>
        <time>2016-04-24T15:41:37Z</time>
      </trkpt>
      <trkpt lat="43.99355" lon="3.68705">
        <ele>185.67</ele>
        <time>2016-04-24T15:41:38Z</time>
      </trkpt>
      <trkpt lat="43.99349" lon="3.68727">
        <ele>185.67</ele>
        <time>2016-04-24T15:41:39Z</time>
      </trkpt>
      <trkpt lat="43.9934" lon="3.68749">
        <ele>185.19</ele>
        <time>2016-04-24T15:41:40Z</time>
      </trkpt>
      <trkpt lat="43.99328" lon="3.68769">
        <ele>184.71</ele>
        <time>2016-04-24T15:41:41Z</time>
      </trkpt>
      <trkpt lat="43.99314" lon="3.6879">
        <ele>184.71</ele>
        <time>2016-04-24T15:41:42Z</time>
      </trkpt>
      <trkpt lat="43.99296" lon="3.6881">
        <ele>184.71</ele>
        <time>2016-04-24T15:41:43Z</time>
      </trkpt>
      <trkpt lat="43.99279" lon="3.68827">
        <ele>184.23</ele>
        <time>2016-04-24T15:41:44Z</time>
      </trkpt>
      <trkpt lat="43.9926" lon="3.68842">
        <ele>183.75</ele>
        <time>2016-04-24T15:41:45Z</time>
      </trkpt>
      <trkpt lat="43.99241" lon="3.68855">
        <ele>183.27</ele>
        <time>2016-04-24T15:41:46Z</time>
      </trkpt>
      <trkpt lat="43.99223" lon="3.68865">
        <ele>183.27</ele>
        <time>2016-04-24T15:41:47Z</time>
      </trkpt>
      <trkpt lat="43.99169" lon="3.68888">
        <ele>181.83</ele>
        <time>2016-04-24T15:41:50Z</time>
      </trkpt>
      <trkpt lat="43.99151" lon="3.6889">
        <ele>180.87</ele>
        <time>2016-04-24T15:41:51Z</time>
      </trkpt>
      <trkpt lat="43.99132" lon="3.68887">
        <ele>180.38</ele>
        <time>2016-04-24T15:41:52Z</time>
      </trkpt>
      <trkpt lat="43.99113" lon="3.6888">
        <ele>179.9</ele>
        <time>2016-04-24T15:41:53Z</time>
      </trkpt>
      <trkpt lat="43.99094" lon="3.68873">
        <ele>179.42</ele>
        <time>2016-04-24T15:41:54Z</time>
      </trkpt>
      <trkpt lat="43.98969" lon="3.68834">
        <ele>183.75</ele>
        <time>2016-04-24T15:42:01Z</time>
      </trkpt>
      <trkpt lat="43.98814" lon="3.68794">
        <ele>184.71</ele>
        <time>2016-04-24T15:42:11Z</time>
      </trkpt>
      <trkpt lat="43.987" lon="3.68707">
        <ele>185.67</ele>
        <time>2016-04-24T15:42:17Z</time>
      </trkpt>
      <trkpt lat="43.98485" lon="3.68529">
        <ele>184.71</ele>
        <time>2016-04-24T15:42:26Z</time>
      </trkpt>
      <trkpt lat="43.98411" lon="3.68483">
        <ele>184.71</ele>
        <time>2016-04-24T15:42:29Z</time>
      </trkpt>
      <trkpt lat="43.98386" lon="3.68477">
        <ele>184.71</ele>
        <time>2016-04-24T15:42:30Z</time>
      </trkpt>
      <trkpt lat="43.98362" lon="3.68475">
        <ele>184.71</ele>
        <time>2016-04-24T15:42:31Z</time>
      </trkpt>
      <trkpt lat="43.98337" lon="3.68478">
        <ele>184.71</ele>
        <time>2016-04-24T15:42:32Z</time>
      </trkpt>
      <trkpt lat="43.98311" lon="3.68488">
        <ele>184.71</ele>
        <time>2016-04-24T15:42:33Z</time>
      </trkpt>
      <trkpt lat="43.98288" lon="3.68503">
        <ele>184.71</ele>
        <time>2016-04-24T15:42:34Z</time>
      </trkpt>
      <trkpt lat="43.98266" lon="3.68523">
        <ele>183.75</ele>
        <time>2016-04-24T15:42:35Z</time>
      </trkpt>
      <trkpt lat="43.98247" lon="3.68545">
        <ele>183.75</ele>
        <time>2016-04-24T15:42:36Z</time>
      </trkpt>
      <trkpt lat="43.9823" lon="3.6857">
        <ele>183.27</ele>
        <time>2016-04-24T15:42:37Z</time>
      </trkpt>
      <trkpt lat="43.98218" lon="3.68599">
        <ele>181.83</ele>
        <time>2016-04-24T15:42:38Z</time>
      </trkpt>
      <trkpt lat="43.98207" lon="3.68633">
        <ele>181.35</ele>
        <time>2016-04-24T15:42:39Z</time>
      </trkpt>
      <trkpt lat="43.98201" lon="3.68666">
        <ele>180.38</ele>
        <time>2016-04-24T15:42:40Z</time>
      </trkpt>
      <trkpt lat="43.98196" lon="3.68702">
        <ele>180.38</ele>
        <time>2016-04-24T15:42:41Z</time>
      </trkpt>
      <trkpt lat="43.98197" lon="3.68737">
        <ele>180.38</ele>
        <time>2016-04-24T15:42:42Z</time>
      </trkpt>
      <trkpt lat="43.98201" lon="3.68773">
        <ele>179.9</ele>
        <time>2016-04-24T15:42:43Z</time>
      </trkpt>
      <trkpt lat="43.98207" lon="3.68809">
        <ele>179.9</ele>
        <time>2016-04-24T15:42:44Z</time>
      </trkpt>
      <trkpt lat="43.98215" lon="3.68846">
        <ele>179.9</ele>
        <time>2016-04-24T15:42:45Z</time>
      </trkpt>
      <trkpt lat="43.98254" lon="3.69076">
        <ele>178.46</ele>
        <time>2016-04-24T15:42:52Z</time>
      </trkpt>
      <trkpt lat="43.98253" lon="3.69102">
        <ele>178.46</ele>
        <time>2016-04-24T15:42:53Z</time>
      </trkpt>
      <trkpt lat="43.9825" lon="3.69128">
        <ele>178.46</ele>
        <time>2016-04-24T15:42:54Z</time>
      </trkpt>
      <trkpt lat="43.98243" lon="3.69153">
        <ele>178.46</ele>
        <time>2016-04-24T15:42:55Z</time>
      </trkpt>
      <trkpt lat="43.98232" lon="3.69174">
        <ele>177.98</ele>
        <time>2016-04-24T15:42:56Z</time>
      </trkpt>
      <trkpt lat="43.98217" lon="3.69193">
        <ele>177.98</ele>
        <time>2016-04-24T15:42:57Z</time>
      </trkpt>
      <trkpt lat="43.98201" lon="3.69208">
        <ele>178.46</ele>
        <time>2016-04-24T15:42:58Z</time>
      </trkpt>
      <trkpt lat="43.98185" lon="3.69217">
        <ele>178.46</ele>
        <time>2016-04-24T15:42:59Z</time>
      </trkpt>
      <trkpt lat="43.98166" lon="3.69222">
        <ele>178.94</ele>
        <time>2016-04-24T15:43:00Z</time>
      </trkpt>
      <trkpt lat="43.98146" lon="3.69224">
        <ele>178.94</ele>
        <time>2016-04-24T15:43:01Z</time>
      </trkpt>
      <trkpt lat="43.98124" lon="3.69222">
        <ele>179.42</ele>
        <time>2016-04-24T15:43:02Z</time>
      </trkpt>
      <trkpt lat="43.98103" lon="3.69217">
        <ele>179.9</ele>
        <time>2016-04-24T15:43:03Z</time>
      </trkpt>
      <trkpt lat="43.98081" lon="3.6921">
        <ele>180.38</ele>
        <time>2016-04-24T15:43:04Z</time>
      </trkpt>
      <trkpt lat="43.9806" lon="3.692">
        <ele>180.87</ele>
        <time>2016-04-24T15:43:05Z</time>
      </trkpt>
      <trkpt lat="43.9804" lon="3.69189">
        <ele>181.35</ele>
        <time>2016-04-24T15:43:06Z</time>
      </trkpt>
      <trkpt lat="43.9802" lon="3.69176">
        <ele>181.35</ele>
        <time>2016-04-24T15:43:07Z</time>
      </trkpt>
      <trkpt lat="43.98001" lon="3.6916">
        <ele>181.35</ele>
        <time>2016-04-24T15:43:08Z</time>
      </trkpt>
      <trkpt lat="43.97982" lon="3.69144">
        <ele>181.35</ele>
        <time>2016-04-24T15:43:09Z</time>
      </trkpt>
      <trkpt lat="43.97872" lon="3.69014">
        <ele>180.38</ele>
        <time>2016-04-24T15:43:16Z</time>
      </trkpt>
      <trkpt lat="43.97798" lon="3.68844">
        <ele>180.38</ele>
        <time>2016-04-24T15:43:24Z</time>
      </trkpt>
      <trkpt lat="43.9772" lon="3.68657">
        <ele>179.9</ele>
        <time>2016-04-24T15:43:34Z</time>
      </trkpt>
      <trkpt lat="43.97708" lon="3.68644">
        <ele>179.9</ele>
        <time>2016-04-24T15:43:35Z</time>
      </trkpt>
      <trkpt lat="43.97696" lon="3.68634">
        <ele>179.9</ele>
        <time>2016-04-24T15:43:36Z</time>
      </trkpt>
      <trkpt lat="43.97682" lon="3.68626">
        <ele>179.9</ele>
        <time>2016-04-24T15:43:37Z</time>
      </trkpt>
      <trkpt lat="43.97667" lon="3.6862">
        <ele>180.38</ele>
        <time>2016-04-24T15:43:38Z</time>
      </trkpt>
      <trkpt lat="43.97652" lon="3.68617">
        <ele>180.38</ele>
        <time>2016-04-24T15:43:39Z</time>
      </trkpt>
      <trkpt lat="43.97635" lon="3.68616">
        <ele>179.9</ele>
        <time>2016-04-24T15:43:40Z</time>
      </trkpt>
      <trkpt lat="43.97617" lon="3.68618">
        <ele>179.9</ele>
        <time>2016-04-24T15:43:41Z</time>
      </trkpt>
      <trkpt lat="43.97599" lon="3.68622">
        <ele>179.9</ele>
        <time>2016-04-24T15:43:42Z</time>
      </trkpt>
      <trkpt lat="43.97582" lon="3.68628">
        <ele>178.94</ele>
        <time>2016-04-24T15:43:43Z</time>
      </trkpt>
      <trkpt lat="43.97565" lon="3.68635">
        <ele>178.94</ele>
        <time>2016-04-24T15:43:44Z</time>
      </trkpt>
      <trkpt lat="43.97381" lon="3.68704">
        <ele>176.54</ele>
        <time>2016-04-24T15:43:55Z</time>
      </trkpt>
      <trkpt lat="43.97357" lon="3.68719">
        <ele>177.5</ele>
        <time>2016-04-24T15:43:57Z</time>
      </trkpt>
      <trkpt lat="43.97346" lon="3.6873">
        <ele>177.02</ele>
        <time>2016-04-24T15:43:58Z</time>
      </trkpt>
      <trkpt lat="43.97336" lon="3.68743">
        <ele>177.02</ele>
        <time>2016-04-24T15:43:59Z</time>
      </trkpt>
      <trkpt lat="43.97225" lon="3.68894">
        <ele>176.06</ele>
        <time>2016-04-24T15:44:10Z</time>
      </trkpt>
      <trkpt lat="43.97123" lon="3.69033">
        <ele>176.54</ele>
        <time>2016-04-24T15:44:20Z</time>
      </trkpt>
      <trkpt lat="43.97002" lon="3.6923">
        <ele>172.21</ele>
        <time>2016-04-24T15:44:30Z</time>
      </trkpt>
      <trkpt lat="43.96988" lon="3.69247">
        <ele>172.21</ele>
        <time>2016-04-24T15:44:31Z</time>
      </trkpt>
      <trkpt lat="43.96973" lon="3.69261">
        <ele>171.73</ele>
        <time>2016-04-24T15:44:32Z</time>
      </trkpt>
      <trkpt lat="43.96955" lon="3.6927">
        <ele>171.73</ele>
        <time>2016-04-24T15:44:33Z</time>
      </trkpt>
      <trkpt lat="43.96936" lon="3.69275">
        <ele>170.77</ele>
        <time>2016-04-24T15:44:34Z</time>
      </trkpt>
      <trkpt lat="43.96913" lon="3.69273">
        <ele>170.29</ele>
        <time>2016-04-24T15:44:35Z</time>
      </trkpt>
      <trkpt lat="43.96891" lon="3.69269">
        <ele>170.29</ele>
        <time>2016-04-24T15:44:36Z</time>
      </trkpt>
      <trkpt lat="43.96869" lon="3.69263">
        <ele>170.77</ele>
        <time>2016-04-24T15:44:37Z</time>
      </trkpt>
      <trkpt lat="43.96846" lon="3.69256">
        <ele>170.77</ele>
        <time>2016-04-24T15:44:38Z</time>
      </trkpt>
      <trkpt lat="43.96825" lon="3.69247">
        <ele>170.77</ele>
        <time>2016-04-24T15:44:39Z</time>
      </trkpt>
      <trkpt lat="43.96805" lon="3.69237">
        <ele>170.77</ele>
        <time>2016-04-24T15:44:40Z</time>
      </trkpt>
      <trkpt lat="43.96785" lon="3.69226">
        <ele>171.25</ele>
        <time>2016-04-24T15:44:41Z</time>
      </trkpt>
      <trkpt lat="43.9668" lon="3.69156">
        <ele>170.29</ele>
        <time>2016-04-24T15:44:47Z</time>
      </trkpt>
      <trkpt lat="43.96666" lon="3.6914">
        <ele>170.29</ele>
        <time>2016-04-24T15:44:48Z</time>
      </trkpt>
      <trkpt lat="43.96653" lon="3.69124">
        <ele>170.29</ele>
        <time>2016-04-24T15:44:49Z</time>
      </trkpt>
      <trkpt lat="43.96631" lon="3.6909">
        <ele>169.81</ele>
        <time>2016-04-24T15:44:51Z</time>
      </trkpt>
      <trkpt lat="43.96622" lon="3.69072">
        <ele>169.81</ele>
        <time>2016-04-24T15:44:52Z</time>
      </trkpt>
      <trkpt lat="43.96615" lon="3.69054">
        <ele>169.81</ele>
        <time>2016-04-24T15:44:53Z</time>
      </trkpt>
      <trkpt lat="43.9661" lon="3.69034">
        <ele>169.81</ele>
        <time>2016-04-24T15:44:54Z</time>
      </trkpt>
      <trkpt lat="43.96604" lon="3.69014">
        <ele>169.81</ele>
        <time>2016-04-24T15:44:55Z</time>
      </trkpt>
      <trkpt lat="43.9658" lon="3.68864">
        <ele>169.33</ele>
        <time>2016-04-24T15:45:03Z</time>
      </trkpt>
      <trkpt lat="43.96576" lon="3.68843">
        <ele>169.33</ele>
        <time>2016-04-24T15:45:05Z</time>
      </trkpt>
      <trkpt lat="43.96572" lon="3.68833">
        <ele>169.33</ele>
        <time>2016-04-24T15:45:06Z</time>
      </trkpt>
      <trkpt lat="43.96567" lon="3.68821">
        <ele>168.85</ele>
        <time>2016-04-24T15:45:07Z</time>
      </trkpt>
      <trkpt lat="43.96561" lon="3.68811">
        <ele>168.85</ele>
        <time>2016-04-24T15:45:08Z</time>
      </trkpt>
      <trkpt lat="43.96553" lon="3.68801">
        <ele>168.85</ele>
        <time>2016-04-24T15:45:09Z</time>
      </trkpt>
      <trkpt lat="43.96544" lon="3.68793">
        <ele>168.85</ele>
        <time>2016-04-24T15:45:10Z</time>
      </trkpt>
      <trkpt lat="43.96534" lon="3.68788">
        <ele>168.37</ele>
        <time>2016-04-24T15:45:11Z</time>
      </trkpt>
      <trkpt lat="43.96522" lon="3.68785">
        <ele>168.37</ele>
        <time>2016-04-24T15:45:12Z</time>
      </trkpt>
      <trkpt lat="43.96511" lon="3.68785">
        <ele>168.37</ele>
        <time>2016-04-24T15:45:13Z</time>
      </trkpt>
      <trkpt lat="43.96498" lon="3.68786">
        <ele>168.37</ele>
        <time>2016-04-24T15:45:14Z</time>
      </trkpt>
      <trkpt lat="43.96425" lon="3.68794">
        <ele>169.33</ele>
        <time>2016-04-24T15:45:19Z</time>
      </trkpt>
      <trkpt lat="43.96407" lon="3.68808">
        <ele>169.33</ele>
        <time>2016-04-24T15:45:20Z</time>
      </trkpt>
      <trkpt lat="43.96301" lon="3.68861">
        <ele>169.33</ele>
        <time>2016-04-24T15:45:24Z</time>
      </trkpt>
      <trkpt lat="43.96157" lon="3.68891">
        <ele>171.73</ele>
        <time>2016-04-24T15:45:30Z</time>
      </trkpt>
      <trkpt lat="43.96104" lon="3.68889">
        <ele>172.21</ele>
        <time>2016-04-24T15:45:33Z</time>
      </trkpt>
      <trkpt lat="43.96087" lon="3.68884">
        <ele>172.69</ele>
        <time>2016-04-24T15:45:34Z</time>
      </trkpt>
      <trkpt lat="43.96069" lon="3.68871">
        <ele>173.17</ele>
        <time>2016-04-24T15:45:35Z</time>
      </trkpt>
      <trkpt lat="43.96048" lon="3.68856">
        <ele>172.69</ele>
        <time>2016-04-24T15:45:36Z</time>
      </trkpt>
      <trkpt lat="43.96026" lon="3.68835">
        <ele>173.17</ele>
        <time>2016-04-24T15:45:37Z</time>
      </trkpt>
      <trkpt lat="43.96002" lon="3.68812">
        <ele>173.17</ele>
        <time>2016-04-24T15:45:38Z</time>
      </trkpt>
      <trkpt lat="43.95848" lon="3.68668">
        <ele>175.1</ele>
        <time>2016-04-24T15:45:45Z</time>
      </trkpt>
      <trkpt lat="43.95806" lon="3.68661">
        <ele>177.98</ele>
        <time>2016-04-24T15:45:47Z</time>
      </trkpt>
      <trkpt lat="43.95782" lon="3.68667">
        <ele>177.98</ele>
        <time>2016-04-24T15:45:48Z</time>
      </trkpt>
      <trkpt lat="43.95753" lon="3.68673">
        <ele>178.46</ele>
        <time>2016-04-24T15:45:49Z</time>
      </trkpt>
      <trkpt lat="43.95592" lon="3.68694">
        <ele>177.02</ele>
        <time>2016-04-24T15:45:55Z</time>
      </trkpt>
      <trkpt lat="43.95489" lon="3.68703">
        <ele>177.02</ele>
        <time>2016-04-24T15:46:00Z</time>
      </trkpt>
      <trkpt lat="43.95472" lon="3.68697">
        <ele>176.54</ele>
        <time>2016-04-24T15:46:01Z</time>
      </trkpt>
      <trkpt lat="43.95401" lon="3.68663">
        <ele>174.14</ele>
        <time>2016-04-24T15:46:05Z</time>
      </trkpt>
      <trkpt lat="43.95263" lon="3.68567">
        <ele>166.93</ele>
        <time>2016-04-24T15:46:13Z</time>
      </trkpt>
      <trkpt lat="43.95111" lon="3.68522">
        <ele>162.12</ele>
        <time>2016-04-24T15:46:20Z</time>
      </trkpt>
      <trkpt lat="43.94971" lon="3.68476">
        <ele>159.24</ele>
        <time>2016-04-24T15:46:27Z</time>
      </trkpt>
      <trkpt lat="43.94843" lon="3.68417">
        <ele>161.16</ele>
        <time>2016-04-24T15:46:35Z</time>
      </trkpt>
      <trkpt lat="43.94727" lon="3.68369">
        <ele>162.12</ele>
        <time>2016-04-24T15:46:42Z</time>
      </trkpt>
      <trkpt lat="43.94714" lon="3.68369">
        <ele>162.12</ele>
        <time>2016-04-24T15:46:43Z</time>
      </trkpt>
      <trkpt lat="43.94702" lon="3.68371">
        <ele>162.6</ele>
        <time>2016-04-24T15:46:44Z</time>
      </trkpt>
      <trkpt lat="43.94691" lon="3.68382">
        <ele>163.08</ele>
        <time>2016-04-24T15:46:45Z</time>
      </trkpt>
      <trkpt lat="43.9468" lon="3.68393">
        <ele>163.56</ele>
        <time>2016-04-24T15:46:46Z</time>
      </trkpt>
      <trkpt lat="43.9467" lon="3.68407">
        <ele>164.04</ele>
        <time>2016-04-24T15:46:47Z</time>
      </trkpt>
      <trkpt lat="43.94663" lon="3.68422">
        <ele>164.52</ele>
        <time>2016-04-24T15:46:48Z</time>
      </trkpt>
      <trkpt lat="43.94655" lon="3.68438">
        <ele>165</ele>
        <time>2016-04-24T15:46:49Z</time>
      </trkpt>
      <trkpt lat="43.94647" lon="3.68454">
        <ele>165</ele>
        <time>2016-04-24T15:46:50Z</time>
      </trkpt>
      <trkpt lat="43.94596" lon="3.68609">
        <ele>169.81</ele>
        <time>2016-04-24T15:46:59Z</time>
      </trkpt>
      <trkpt lat="43.94577" lon="3.68794">
        <ele>175.1</ele>
        <time>2016-04-24T15:47:07Z</time>
      </trkpt>
      <trkpt lat="43.94572" lon="3.68816">
        <ele>176.06</ele>
        <time>2016-04-24T15:47:08Z</time>
      </trkpt>
      <trkpt lat="43.94566" lon="3.68836">
        <ele>176.54</ele>
        <time>2016-04-24T15:47:09Z</time>
      </trkpt>
      <trkpt lat="43.94559" lon="3.68855">
        <ele>177.02</ele>
        <time>2016-04-24T15:47:10Z</time>
      </trkpt>
      <trkpt lat="43.94551" lon="3.68871">
        <ele>177.5</ele>
        <time>2016-04-24T15:47:11Z</time>
      </trkpt>
      <trkpt lat="43.94542" lon="3.68887">
        <ele>178.46</ele>
        <time>2016-04-24T15:47:12Z</time>
      </trkpt>
      <trkpt lat="43.94532" lon="3.68902">
        <ele>178.94</ele>
        <time>2016-04-24T15:47:13Z</time>
      </trkpt>
      <trkpt lat="43.9452" lon="3.68914">
        <ele>178.94</ele>
        <time>2016-04-24T15:47:14Z</time>
      </trkpt>
      <trkpt lat="43.94506" lon="3.68925">
        <ele>179.42</ele>
        <time>2016-04-24T15:47:15Z</time>
      </trkpt>
      <trkpt lat="43.9449" lon="3.68933">
        <ele>179.42</ele>
        <time>2016-04-24T15:47:16Z</time>
      </trkpt>
      <trkpt lat="43.94473" lon="3.68938">
        <ele>179.9</ele>
        <time>2016-04-24T15:47:17Z</time>
      </trkpt>
      <trkpt lat="43.94454" lon="3.68941">
        <ele>180.38</ele>
        <time>2016-04-24T15:47:18Z</time>
      </trkpt>
      <trkpt lat="43.94435" lon="3.6894">
        <ele>180.38</ele>
        <time>2016-04-24T15:47:19Z</time>
      </trkpt>
      <trkpt lat="43.94414" lon="3.68939">
        <ele>180.38</ele>
        <time>2016-04-24T15:47:20Z</time>
      </trkpt>
      <trkpt lat="43.94394" lon="3.68936">
        <ele>179.9</ele>
        <time>2016-04-24T15:47:21Z</time>
      </trkpt>
      <trkpt lat="43.94256" lon="3.68941">
        <ele>172.21</ele>
        <time>2016-04-24T15:47:28Z</time>
      </trkpt>
      <trkpt lat="43.94096" lon="3.6902">
        <ele>165.96</ele>
        <time>2016-04-24T15:47:35Z</time>
      </trkpt>
      <trkpt lat="43.93936" lon="3.69048">
        <ele>158.27</ele>
        <time>2016-04-24T15:47:41Z</time>
      </trkpt>
      <trkpt lat="43.93877" lon="3.69056">
        <ele>155.39</ele>
        <time>2016-04-24T15:47:44Z</time>
      </trkpt>
      <trkpt lat="43.9386" lon="3.69069">
        <ele>154.43</ele>
        <time>2016-04-24T15:47:45Z</time>
      </trkpt>
      <trkpt lat="43.93844" lon="3.69087">
        <ele>153.47</ele>
        <time>2016-04-24T15:47:46Z</time>
      </trkpt>
      <trkpt lat="43.93816" lon="3.69195">
        <ele>142.41</ele>
        <time>2016-04-24T15:47:50Z</time>
      </trkpt>
      <trkpt lat="43.93811" lon="3.69348">
        <ele>145.3</ele>
        <time>2016-04-24T15:47:55Z</time>
      </trkpt>
      <trkpt lat="43.93803" lon="3.69373">
        <ele>145.3</ele>
        <time>2016-04-24T15:47:56Z</time>
      </trkpt>
      <trkpt lat="43.93794" lon="3.69397">
        <ele>145.78</ele>
        <time>2016-04-24T15:47:57Z</time>
      </trkpt>
      <trkpt lat="43.93761" lon="3.69468">
        <ele>146.74</ele>
        <time>2016-04-24T15:48:02Z</time>
      </trkpt>
      <trkpt lat="43.93665" lon="3.69632">
        <ele>150.1</ele>
        <time>2016-04-24T15:48:14Z</time>
      </trkpt>
      <trkpt lat="43.93606" lon="3.69728">
        <ele>150.1</ele>
        <time>2016-04-24T15:48:23Z</time>
      </trkpt>
      <trkpt lat="43.93548" lon="3.69813">
        <ele>152.03</ele>
        <time>2016-04-24T15:48:31Z</time>
      </trkpt>
      <trkpt lat="43.93475" lon="3.69925">
        <ele>153.95</ele>
        <time>2016-04-24T15:48:41Z</time>
      </trkpt>
      <trkpt lat="43.93443" lon="3.69971">
        <ele>153.47</ele>
        <time>2016-04-24T15:48:45Z</time>
      </trkpt>
      <trkpt lat="43.93383" lon="3.70108">
        <ele>152.99</ele>
        <time>2016-04-24T15:48:55Z</time>
      </trkpt>
      <trkpt lat="43.93327" lon="3.70252">
        <ele>155.87</ele>
        <time>2016-04-24T15:49:06Z</time>
      </trkpt>
      <trkpt lat="43.93282" lon="3.70334">
        <ele>154.43</ele>
        <time>2016-04-24T15:49:12Z</time>
      </trkpt>
      <trkpt lat="43.93272" lon="3.70345">
        <ele>154.43</ele>
        <time>2016-04-24T15:49:13Z</time>
      </trkpt>
      <trkpt lat="43.93262" lon="3.70355">
        <ele>153.95</ele>
        <time>2016-04-24T15:49:14Z</time>
      </trkpt>
      <trkpt lat="43.93173" lon="3.70419">
        <ele>152.03</ele>
        <time>2016-04-24T15:49:23Z</time>
      </trkpt>
      <trkpt lat="43.93157" lon="3.70433">
        <ele>152.03</ele>
        <time>2016-04-24T15:49:25Z</time>
      </trkpt>
      <trkpt lat="43.93074" lon="3.70518">
        <ele>151.06</ele>
        <time>2016-04-24T15:49:35Z</time>
      </trkpt>
      <trkpt lat="43.93066" lon="3.70524">
        <ele>151.06</ele>
        <time>2016-04-24T15:49:36Z</time>
      </trkpt>
      <trkpt lat="43.93058" lon="3.70527">
        <ele>151.54</ele>
        <time>2016-04-24T15:49:37Z</time>
      </trkpt>
      <trkpt lat="43.9305" lon="3.70526">
        <ele>151.54</ele>
        <time>2016-04-24T15:49:38Z</time>
      </trkpt>
      <trkpt lat="43.93041" lon="3.70526">
        <ele>151.54</ele>
        <time>2016-04-24T15:49:39Z</time>
      </trkpt>
      <trkpt lat="43.93033" lon="3.70529">
        <ele>151.54</ele>
        <time>2016-04-24T15:49:40Z</time>
      </trkpt>
      <trkpt lat="43.93027" lon="3.70535">
        <ele>151.06</ele>
        <time>2016-04-24T15:49:41Z</time>
      </trkpt>
      <trkpt lat="43.93024" lon="3.70547">
        <ele>150.58</ele>
        <time>2016-04-24T15:49:42Z</time>
      </trkpt>
      <trkpt lat="43.93024" lon="3.70557">
        <ele>150.58</ele>
        <time>2016-04-24T15:49:43Z</time>
      </trkpt>
      <trkpt lat="43.93027" lon="3.70568">
        <ele>150.1</ele>
        <time>2016-04-24T15:49:44Z</time>
      </trkpt>
      <trkpt lat="43.93033" lon="3.70578">
        <ele>150.58</ele>
        <time>2016-04-24T15:49:45Z</time>
      </trkpt>
      <trkpt lat="43.93038" lon="3.70589">
        <ele>150.58</ele>
        <time>2016-04-24T15:49:46Z</time>
      </trkpt>
      <trkpt lat="43.93041" lon="3.706">
        <ele>150.58</ele>
        <time>2016-04-24T15:49:47Z</time>
      </trkpt>
      <trkpt lat="43.93042" lon="3.70611">
        <ele>150.58</ele>
        <time>2016-04-24T15:49:48Z</time>
      </trkpt>
      <trkpt lat="43.9304" lon="3.70624">
        <ele>150.58</ele>
        <time>2016-04-24T15:49:49Z</time>
      </trkpt>
      <trkpt lat="43.93038" lon="3.70637">
        <ele>150.58</ele>
        <time>2016-04-24T15:49:50Z</time>
      </trkpt>
      <trkpt lat="43.93037" lon="3.70652">
        <ele>150.1</ele>
        <time>2016-04-24T15:49:51Z</time>
      </trkpt>
      <trkpt lat="43.93036" lon="3.70666">
        <ele>150.1</ele>
        <time>2016-04-24T15:49:52Z</time>
      </trkpt>
      <trkpt lat="43.93058" lon="3.70784">
        <ele>150.58</ele>
        <time>2016-04-24T15:50:00Z</time>
      </trkpt>
      <trkpt lat="43.93134" lon="3.70913">
        <ele>148.66</ele>
        <time>2016-04-24T15:50:09Z</time>
      </trkpt>
      <trkpt lat="43.9321" lon="3.71048">
        <ele>149.62</ele>
        <time>2016-04-24T15:50:20Z</time>
      </trkpt>
      <trkpt lat="43.93215" lon="3.71059">
        <ele>150.1</ele>
        <time>2016-04-24T15:50:21Z</time>
      </trkpt>
      <trkpt lat="43.93217" lon="3.7107">
        <ele>150.58</ele>
        <time>2016-04-24T15:50:22Z</time>
      </trkpt>
      <trkpt lat="43.93218" lon="3.71081">
        <ele>150.58</ele>
        <time>2016-04-24T15:50:23Z</time>
      </trkpt>
      <trkpt lat="43.93217" lon="3.71092">
        <ele>150.58</ele>
        <time>2016-04-24T15:50:24Z</time>
      </trkpt>
      <trkpt lat="43.93215" lon="3.71104">
        <ele>150.58</ele>
        <time>2016-04-24T15:50:25Z</time>
      </trkpt>
      <trkpt lat="43.93211" lon="3.71115">
        <ele>150.58</ele>
        <time>2016-04-24T15:50:26Z</time>
      </trkpt>
      <trkpt lat="43.93205" lon="3.71125">
        <ele>150.1</ele>
        <time>2016-04-24T15:50:27Z</time>
      </trkpt>
      <trkpt lat="43.93197" lon="3.71133">
        <ele>150.58</ele>
        <time>2016-04-24T15:50:28Z</time>
      </trkpt>
      <trkpt lat="43.93188" lon="3.7114">
        <ele>150.58</ele>
        <time>2016-04-24T15:50:29Z</time>
      </trkpt>
      <trkpt lat="43.93179" lon="3.71147">
        <ele>150.58</ele>
        <time>2016-04-24T15:50:30Z</time>
      </trkpt>
      <trkpt lat="43.93081" lon="3.71221">
        <ele>150.1</ele>
        <time>2016-04-24T15:50:41Z</time>
      </trkpt>
      <trkpt lat="43.92985" lon="3.71297">
        <ele>150.58</ele>
        <time>2016-04-24T15:50:51Z</time>
      </trkpt>
      <trkpt lat="43.92898" lon="3.71365">
        <ele>151.54</ele>
        <time>2016-04-24T15:51:01Z</time>
      </trkpt>
      <trkpt lat="43.92786" lon="3.71457">
        <ele>150.1</ele>
        <time>2016-04-24T15:51:13Z</time>
      </trkpt>
      <trkpt lat="43.92669" lon="3.71549">
        <ele>149.62</ele>
        <time>2016-04-24T15:51:24Z</time>
      </trkpt>
      <trkpt lat="43.92661" lon="3.71553">
        <ele>149.62</ele>
        <time>2016-04-24T15:51:25Z</time>
      </trkpt>
      <trkpt lat="43.92652" lon="3.71557">
        <ele>149.14</ele>
        <time>2016-04-24T15:51:26Z</time>
      </trkpt>
      <trkpt lat="43.92645" lon="3.71564">
        <ele>149.14</ele>
        <time>2016-04-24T15:51:27Z</time>
      </trkpt>
      <trkpt lat="43.92639" lon="3.71575">
        <ele>149.14</ele>
        <time>2016-04-24T15:51:28Z</time>
      </trkpt>
      <trkpt lat="43.92634" lon="3.71586">
        <ele>148.66</ele>
        <time>2016-04-24T15:51:29Z</time>
      </trkpt>
      <trkpt lat="43.92576" lon="3.71702">
        <ele>147.7</ele>
        <time>2016-04-24T15:51:37Z</time>
      </trkpt>
      <trkpt lat="43.92523" lon="3.71877">
        <ele>145.78</ele>
        <time>2016-04-24T15:51:46Z</time>
      </trkpt>
      <trkpt lat="43.9247" lon="3.72031">
        <ele>143.37</ele>
        <time>2016-04-24T15:51:55Z</time>
      </trkpt>
      <trkpt lat="43.92457" lon="3.72057">
        <ele>143.37</ele>
        <time>2016-04-24T15:52:01Z</time>
      </trkpt>
      <trkpt lat="43.92441" lon="3.72088">
        <ele>144.34</ele>
        <time>2016-04-24T15:52:12Z</time>
      </trkpt>
      <trkpt lat="43.9239" lon="3.72179">
        <ele>143.37</ele>
        <time>2016-04-24T15:52:20Z</time>
      </trkpt>
      <trkpt lat="43.92329" lon="3.72266">
        <ele>143.37</ele>
        <time>2016-04-24T15:52:28Z</time>
      </trkpt>
      <trkpt lat="43.92319" lon="3.72272">
        <ele>143.37</ele>
        <time>2016-04-24T15:52:29Z</time>
      </trkpt>
      <trkpt lat="43.92309" lon="3.72277">
        <ele>143.37</ele>
        <time>2016-04-24T15:52:30Z</time>
      </trkpt>
      <trkpt lat="43.923" lon="3.72281">
        <ele>143.37</ele>
        <time>2016-04-24T15:52:31Z</time>
      </trkpt>
      <trkpt lat="43.92243" lon="3.72295">
        <ele>142.89</ele>
        <time>2016-04-24T15:52:38Z</time>
      </trkpt>
      <trkpt lat="43.92237" lon="3.72299">
        <ele>142.89</ele>
        <time>2016-04-24T15:52:39Z</time>
      </trkpt>
      <trkpt lat="43.9223" lon="3.72306">
        <ele>142.89</ele>
        <time>2016-04-24T15:52:40Z</time>
      </trkpt>
      <trkpt lat="43.92224" lon="3.72314">
        <ele>143.85</ele>
        <time>2016-04-24T15:52:41Z</time>
      </trkpt>
      <trkpt lat="43.92218" lon="3.72321">
        <ele>144.34</ele>
        <time>2016-04-24T15:52:42Z</time>
      </trkpt>
      <trkpt lat="43.92204" lon="3.72349">
        <ele>145.78</ele>
        <time>2016-04-24T15:52:45Z</time>
      </trkpt>
      <trkpt lat="43.92202" lon="3.72359">
        <ele>145.78</ele>
        <time>2016-04-24T15:52:46Z</time>
      </trkpt>
      <trkpt lat="43.922" lon="3.72368">
        <ele>145.78</ele>
        <time>2016-04-24T15:52:47Z</time>
      </trkpt>
      <trkpt lat="43.92188" lon="3.72456">
        <ele>143.85</ele>
        <time>2016-04-24T15:52:56Z</time>
      </trkpt>
      <trkpt lat="43.92182" lon="3.72483">
        <ele>143.85</ele>
        <time>2016-04-24T15:52:59Z</time>
      </trkpt>
      <trkpt lat="43.92179" lon="3.72493">
        <ele>143.85</ele>
        <time>2016-04-24T15:53:00Z</time>
      </trkpt>
      <trkpt lat="43.92175" lon="3.72502">
        <ele>143.85</ele>
        <time>2016-04-24T15:53:01Z</time>
      </trkpt>
      <trkpt lat="43.9217" lon="3.72511">
        <ele>143.85</ele>
        <time>2016-04-24T15:53:02Z</time>
      </trkpt>
      <trkpt lat="43.92164" lon="3.7252">
        <ele>144.34</ele>
        <time>2016-04-24T15:53:03Z</time>
      </trkpt>
      <trkpt lat="43.92157" lon="3.7253">
        <ele>143.37</ele>
        <time>2016-04-24T15:53:04Z</time>
      </trkpt>
      <trkpt lat="43.9215" lon="3.72539">
        <ele>143.37</ele>
        <time>2016-04-24T15:53:05Z</time>
      </trkpt>
      <trkpt lat="43.92141" lon="3.72547">
        <ele>142.89</ele>
        <time>2016-04-24T15:53:06Z</time>
      </trkpt>
      <trkpt lat="43.92133" lon="3.72555">
        <ele>142.89</ele>
        <time>2016-04-24T15:53:07Z</time>
      </trkpt>
      <trkpt lat="43.92124" lon="3.72562">
        <ele>142.89</ele>
        <time>2016-04-24T15:53:08Z</time>
      </trkpt>
      <trkpt lat="43.92114" lon="3.72567">
        <ele>143.37</ele>
        <time>2016-04-24T15:53:09Z</time>
      </trkpt>
      <trkpt lat="43.92103" lon="3.7257">
        <ele>143.37</ele>
        <time>2016-04-24T15:53:10Z</time>
      </trkpt>
      <trkpt lat="43.92092" lon="3.7257">
        <ele>143.37</ele>
        <time>2016-04-24T15:53:11Z</time>
      </trkpt>
      <trkpt lat="43.9208" lon="3.72565">
        <ele>142.89</ele>
        <time>2016-04-24T15:53:12Z</time>
      </trkpt>
      <trkpt lat="43.92069" lon="3.7256">
        <ele>142.89</ele>
        <time>2016-04-24T15:53:13Z</time>
      </trkpt>
      <trkpt lat="43.92057" lon="3.72556">
        <ele>142.41</ele>
        <time>2016-04-24T15:53:14Z</time>
      </trkpt>
      <trkpt lat="43.92046" lon="3.72556">
        <ele>142.41</ele>
        <time>2016-04-24T15:53:15Z</time>
      </trkpt>
      <trkpt lat="43.92035" lon="3.72559">
        <ele>142.41</ele>
        <time>2016-04-24T15:53:16Z</time>
      </trkpt>
      <trkpt lat="43.92023" lon="3.72565">
        <ele>142.89</ele>
        <time>2016-04-24T15:53:17Z</time>
      </trkpt>
      <trkpt lat="43.92011" lon="3.7257">
        <ele>144.34</ele>
        <time>2016-04-24T15:53:18Z</time>
      </trkpt>
      <trkpt lat="43.91901" lon="3.72647">
        <ele>142.41</ele>
        <time>2016-04-24T15:53:26Z</time>
      </trkpt>
      <trkpt lat="43.91889" lon="3.7266">
        <ele>142.89</ele>
        <time>2016-04-24T15:53:27Z</time>
      </trkpt>
      <trkpt lat="43.91879" lon="3.72673">
        <ele>142.89</ele>
        <time>2016-04-24T15:53:28Z</time>
      </trkpt>
      <trkpt lat="43.91871" lon="3.72686">
        <ele>142.89</ele>
        <time>2016-04-24T15:53:29Z</time>
      </trkpt>
      <trkpt lat="43.91863" lon="3.72701">
        <ele>142.41</ele>
        <time>2016-04-24T15:53:30Z</time>
      </trkpt>
      <trkpt lat="43.91856" lon="3.72716">
        <ele>141.93</ele>
        <time>2016-04-24T15:53:31Z</time>
      </trkpt>
      <trkpt lat="43.91839" lon="3.72746">
        <ele>141.93</ele>
        <time>2016-04-24T15:53:33Z</time>
      </trkpt>
      <trkpt lat="43.91827" lon="3.72758">
        <ele>142.41</ele>
        <time>2016-04-24T15:53:34Z</time>
      </trkpt>
      <trkpt lat="43.91817" lon="3.72766">
        <ele>142.41</ele>
        <time>2016-04-24T15:53:35Z</time>
      </trkpt>
      <trkpt lat="43.91803" lon="3.72774">
        <ele>143.85</ele>
        <time>2016-04-24T15:53:36Z</time>
      </trkpt>
      <trkpt lat="43.91788" lon="3.72785">
        <ele>143.85</ele>
        <time>2016-04-24T15:53:37Z</time>
      </trkpt>
      <trkpt lat="43.91772" lon="3.72791">
        <ele>143.85</ele>
        <time>2016-04-24T15:53:38Z</time>
      </trkpt>
      <trkpt lat="43.91736" lon="3.72794">
        <ele>142.89</ele>
        <time>2016-04-24T15:53:40Z</time>
      </trkpt>
      <trkpt lat="43.91716" lon="3.7279">
        <ele>142.41</ele>
        <time>2016-04-24T15:53:41Z</time>
      </trkpt>
      <trkpt lat="43.91698" lon="3.72786">
        <ele>142.41</ele>
        <time>2016-04-24T15:53:42Z</time>
      </trkpt>
      <trkpt lat="43.91602" lon="3.7276">
        <ele>146.26</ele>
        <time>2016-04-24T15:53:49Z</time>
      </trkpt>
      <trkpt lat="43.91591" lon="3.72765">
        <ele>146.74</ele>
        <time>2016-04-24T15:53:50Z</time>
      </trkpt>
      <trkpt lat="43.9158" lon="3.72775">
        <ele>147.22</ele>
        <time>2016-04-24T15:53:51Z</time>
      </trkpt>
      <trkpt lat="43.91571" lon="3.72786">
        <ele>146.74</ele>
        <time>2016-04-24T15:53:52Z</time>
      </trkpt>
      <trkpt lat="43.91566" lon="3.72804">
        <ele>146.26</ele>
        <time>2016-04-24T15:53:53Z</time>
      </trkpt>
      <trkpt lat="43.91565" lon="3.72821">
        <ele>145.3</ele>
        <time>2016-04-24T15:53:54Z</time>
      </trkpt>
      <trkpt lat="43.91566" lon="3.72839">
        <ele>143.37</ele>
        <time>2016-04-24T15:53:55Z</time>
      </trkpt>
      <trkpt lat="43.91575" lon="3.72856">
        <ele>142.89</ele>
        <time>2016-04-24T15:53:56Z</time>
      </trkpt>
      <trkpt lat="43.91585" lon="3.72874">
        <ele>142.89</ele>
        <time>2016-04-24T15:53:57Z</time>
      </trkpt>
      <trkpt lat="43.91595" lon="3.72893">
        <ele>142.41</ele>
        <time>2016-04-24T15:53:58Z</time>
      </trkpt>
      <trkpt lat="43.91606" lon="3.72914">
        <ele>142.89</ele>
        <time>2016-04-24T15:53:59Z</time>
      </trkpt>
      <trkpt lat="43.91615" lon="3.72938">
        <ele>143.37</ele>
        <time>2016-04-24T15:54:00Z</time>
      </trkpt>
      <trkpt lat="43.91677" lon="3.73157">
        <ele>143.37</ele>
        <time>2016-04-24T15:54:08Z</time>
      </trkpt>
      <trkpt lat="43.91687" lon="3.73241">
        <ele>143.85</ele>
        <time>2016-04-24T15:54:11Z</time>
      </trkpt>
      <trkpt lat="43.91686" lon="3.73268">
        <ele>142.89</ele>
        <time>2016-04-24T15:54:12Z</time>
      </trkpt>
      <trkpt lat="43.91682" lon="3.73294">
        <ele>142.41</ele>
        <time>2016-04-24T15:54:13Z</time>
      </trkpt>
      <trkpt lat="43.91655" lon="3.73435">
        <ele>140.97</ele>
        <time>2016-04-24T15:54:19Z</time>
      </trkpt>
      <trkpt lat="43.91572" lon="3.73625">
        <ele>141.93</ele>
        <time>2016-04-24T15:54:27Z</time>
      </trkpt>
      <trkpt lat="43.91491" lon="3.73746">
        <ele>140.97</ele>
        <time>2016-04-24T15:54:33Z</time>
      </trkpt>
      <trkpt lat="43.91475" lon="3.73759">
        <ele>140.49</ele>
        <time>2016-04-24T15:54:34Z</time>
      </trkpt>
      <trkpt lat="43.91456" lon="3.73772">
        <ele>138.57</ele>
        <time>2016-04-24T15:54:35Z</time>
      </trkpt>
      <trkpt lat="43.91386" lon="3.73812">
        <ele>135.68</ele>
        <time>2016-04-24T15:54:39Z</time>
      </trkpt>
      <trkpt lat="43.91368" lon="3.73817">
        <ele>134.72</ele>
        <time>2016-04-24T15:54:40Z</time>
      </trkpt>
      <trkpt lat="43.9135" lon="3.73819">
        <ele>134.24</ele>
        <time>2016-04-24T15:54:41Z</time>
      </trkpt>
      <trkpt lat="43.9133" lon="3.73815">
        <ele>134.24</ele>
        <time>2016-04-24T15:54:42Z</time>
      </trkpt>
      <trkpt lat="43.91311" lon="3.73806">
        <ele>134.24</ele>
        <time>2016-04-24T15:54:43Z</time>
      </trkpt>
      <trkpt lat="43.91294" lon="3.73793">
        <ele>134.24</ele>
        <time>2016-04-24T15:54:44Z</time>
      </trkpt>
      <trkpt lat="43.91279" lon="3.73778">
        <ele>134.72</ele>
        <time>2016-04-24T15:54:45Z</time>
      </trkpt>
      <trkpt lat="43.91265" lon="3.73763">
        <ele>134.72</ele>
        <time>2016-04-24T15:54:46Z</time>
      </trkpt>
      <trkpt lat="43.91145" lon="3.73667">
        <ele>135.2</ele>
        <time>2016-04-24T15:54:54Z</time>
      </trkpt>
      <trkpt lat="43.91039" lon="3.73649">
        <ele>134.72</ele>
        <time>2016-04-24T15:55:01Z</time>
      </trkpt>
      <trkpt lat="43.90982" lon="3.73672">
        <ele>133.76</ele>
        <time>2016-04-24T15:55:05Z</time>
      </trkpt>
      <trkpt lat="43.90968" lon="3.73683">
        <ele>133.28</ele>
        <time>2016-04-24T15:55:06Z</time>
      </trkpt>
      <trkpt lat="43.90854" lon="3.73769">
        <ele>132.32</ele>
        <time>2016-04-24T15:55:13Z</time>
      </trkpt>
      <trkpt lat="43.90807" lon="3.73781">
        <ele>132.8</ele>
        <time>2016-04-24T15:55:16Z</time>
      </trkpt>
      <trkpt lat="43.90789" lon="3.73777">
        <ele>132.8</ele>
        <time>2016-04-24T15:55:17Z</time>
      </trkpt>
      <trkpt lat="43.9063" lon="3.73754">
        <ele>134.24</ele>
        <time>2016-04-24T15:55:27Z</time>
      </trkpt>
      <trkpt lat="43.90517" lon="3.73775">
        <ele>139.05</ele>
        <time>2016-04-24T15:55:35Z</time>
      </trkpt>
      <trkpt lat="43.90415" lon="3.73803">
        <ele>141.45</ele>
        <time>2016-04-24T15:55:44Z</time>
      </trkpt>
      <trkpt lat="43.90396" lon="3.73806">
        <ele>141.45</ele>
        <time>2016-04-24T15:55:46Z</time>
      </trkpt>
      <trkpt lat="43.90387" lon="3.73805">
        <ele>141.45</ele>
        <time>2016-04-24T15:55:47Z</time>
      </trkpt>
      <trkpt lat="43.90377" lon="3.73804">
        <ele>141.45</ele>
        <time>2016-04-24T15:55:48Z</time>
      </trkpt>
      <trkpt lat="43.90368" lon="3.73803">
        <ele>141.45</ele>
        <time>2016-04-24T15:55:49Z</time>
      </trkpt>
      <trkpt lat="43.90359" lon="3.738">
        <ele>141.45</ele>
        <time>2016-04-24T15:55:50Z</time>
      </trkpt>
      <trkpt lat="43.90236" lon="3.73765">
        <ele>140.49</ele>
        <time>2016-04-24T15:56:02Z</time>
      </trkpt>
      <trkpt lat="43.90136" lon="3.73738">
        <ele>139.53</ele>
        <time>2016-04-24T15:56:14Z</time>
      </trkpt>
      <trkpt lat="43.90025" lon="3.73707">
        <ele>138.57</ele>
        <time>2016-04-24T15:56:26Z</time>
      </trkpt>
      <trkpt lat="43.89945" lon="3.73687">
        <ele>136.64</ele>
        <time>2016-04-24T15:56:36Z</time>
      </trkpt>
      <trkpt lat="43.89879" lon="3.73671">
        <ele>138.57</ele>
        <time>2016-04-24T15:56:46Z</time>
      </trkpt>
      <trkpt lat="43.89871" lon="3.7367">
        <ele>138.57</ele>
        <time>2016-04-24T15:56:47Z</time>
      </trkpt>
      <trkpt lat="43.89862" lon="3.73672">
        <ele>138.09</ele>
        <time>2016-04-24T15:56:48Z</time>
      </trkpt>
      <trkpt lat="43.89853" lon="3.73674">
        <ele>138.57</ele>
        <time>2016-04-24T15:56:49Z</time>
      </trkpt>
      <trkpt lat="43.89844" lon="3.73678">
        <ele>138.57</ele>
        <time>2016-04-24T15:56:50Z</time>
      </trkpt>
      <trkpt lat="43.89728" lon="3.73716">
        <ele>137.13</ele>
        <time>2016-04-24T15:57:04Z</time>
      </trkpt>
      <trkpt lat="43.89658" lon="3.73736">
        <ele>144.34</ele>
        <time>2016-04-24T15:57:15Z</time>
      </trkpt>
      <trkpt lat="43.89574" lon="3.73765">
        <ele>146.74</ele>
        <time>2016-04-24T15:57:28Z</time>
      </trkpt>
      <trkpt lat="43.89495" lon="3.7379">
        <ele>150.1</ele>
        <time>2016-04-24T15:57:38Z</time>
      </trkpt>
      <trkpt lat="43.89386" lon="3.73825">
        <ele>148.66</ele>
        <time>2016-04-24T15:57:50Z</time>
      </trkpt>
      <trkpt lat="43.89272" lon="3.73861">
        <ele>142.89</ele>
        <time>2016-04-24T15:58:02Z</time>
      </trkpt>
      <trkpt lat="43.89177" lon="3.73891">
        <ele>139.53</ele>
        <time>2016-04-24T15:58:13Z</time>
      </trkpt>
      <trkpt lat="43.89056" lon="3.73929">
        <ele>139.05</ele>
        <time>2016-04-24T15:58:26Z</time>
      </trkpt>
      <trkpt lat="43.88967" lon="3.73956">
        <ele>136.16</ele>
        <time>2016-04-24T15:58:38Z</time>
      </trkpt>
      <trkpt lat="43.88957" lon="3.73958">
        <ele>136.16</ele>
        <time>2016-04-24T15:58:40Z</time>
      </trkpt>
      <trkpt lat="43.88952" lon="3.73956">
        <ele>135.68</ele>
        <time>2016-04-24T15:58:41Z</time>
      </trkpt>
      <trkpt lat="43.88946" lon="3.73953">
        <ele>135.2</ele>
        <time>2016-04-24T15:58:48Z</time>
      </trkpt>
      <trkpt lat="43.88943" lon="3.73951">
        <ele>135.2</ele>
        <time>2016-04-24T15:58:49Z</time>
      </trkpt>
      <trkpt lat="43.88939" lon="3.73948">
        <ele>134.72</ele>
        <time>2016-04-24T15:58:50Z</time>
      </trkpt>
      <trkpt lat="43.88933" lon="3.73946">
        <ele>134.72</ele>
        <time>2016-04-24T15:58:51Z</time>
      </trkpt>
      <trkpt lat="43.88928" lon="3.73951">
        <ele>134.72</ele>
        <time>2016-04-24T15:58:52Z</time>
      </trkpt>
      <trkpt lat="43.88923" lon="3.7396">
        <ele>134.24</ele>
        <time>2016-04-24T15:58:53Z</time>
      </trkpt>
      <trkpt lat="43.88917" lon="3.73971">
        <ele>134.24</ele>
        <time>2016-04-24T15:58:54Z</time>
      </trkpt>
      <trkpt lat="43.88906" lon="3.7398">
        <ele>134.24</ele>
        <time>2016-04-24T15:58:55Z</time>
      </trkpt>
      <trkpt lat="43.88894" lon="3.73989">
        <ele>134.24</ele>
        <time>2016-04-24T15:58:56Z</time>
      </trkpt>
      <trkpt lat="43.88879" lon="3.73997">
        <ele>134.24</ele>
        <time>2016-04-24T15:58:57Z</time>
      </trkpt>
      <trkpt lat="43.88758" lon="3.74055">
        <ele>138.57</ele>
        <time>2016-04-24T15:59:04Z</time>
      </trkpt>
      <trkpt lat="43.88641" lon="3.74053">
        <ele>143.37</ele>
        <time>2016-04-24T15:59:10Z</time>
      </trkpt>
      <trkpt lat="43.88451" lon="3.7406">
        <ele>156.35</ele>
        <time>2016-04-24T15:59:20Z</time>
      </trkpt>
      <trkpt lat="43.88347" lon="3.74143">
        <ele>159.24</ele>
        <time>2016-04-24T15:59:26Z</time>
      </trkpt>
      <trkpt lat="43.88259" lon="3.74289">
        <ele>161.64</ele>
        <time>2016-04-24T15:59:32Z</time>
      </trkpt>
      <trkpt lat="43.88161" lon="3.74411">
        <ele>164.52</ele>
        <time>2016-04-24T15:59:37Z</time>
      </trkpt>
      <trkpt lat="43.88036" lon="3.74481">
        <ele>166.93</ele>
        <time>2016-04-24T15:59:42Z</time>
      </trkpt>
      <trkpt lat="43.87937" lon="3.74502">
        <ele>170.77</ele>
        <time>2016-04-24T15:59:46Z</time>
      </trkpt>
      <trkpt lat="43.87912" lon="3.745">
        <ele>171.73</ele>
        <time>2016-04-24T15:59:47Z</time>
      </trkpt>
      <trkpt lat="43.87888" lon="3.74489">
        <ele>172.69</ele>
        <time>2016-04-24T15:59:48Z</time>
      </trkpt>
      <trkpt lat="43.87863" lon="3.74475">
        <ele>173.66</ele>
        <time>2016-04-24T15:59:49Z</time>
      </trkpt>
      <trkpt lat="43.87836" lon="3.74461">
        <ele>174.14</ele>
        <time>2016-04-24T15:59:50Z</time>
      </trkpt>
      <trkpt lat="43.87812" lon="3.74443">
        <ele>174.14</ele>
        <time>2016-04-24T15:59:51Z</time>
      </trkpt>
      <trkpt lat="43.87791" lon="3.74422">
        <ele>174.62</ele>
        <time>2016-04-24T15:59:52Z</time>
      </trkpt>
      <trkpt lat="43.87774" lon="3.74397">
        <ele>174.62</ele>
        <time>2016-04-24T15:59:53Z</time>
      </trkpt>
      <trkpt lat="43.87768" lon="3.74364">
        <ele>176.06</ele>
        <time>2016-04-24T15:59:54Z</time>
      </trkpt>
      <trkpt lat="43.87757" lon="3.74336">
        <ele>176.54</ele>
        <time>2016-04-24T15:59:55Z</time>
      </trkpt>
      <trkpt lat="43.87746" lon="3.7431">
        <ele>177.02</ele>
        <time>2016-04-24T15:59:56Z</time>
      </trkpt>
      <trkpt lat="43.87701" lon="3.74242">
        <ele>178.94</ele>
        <time>2016-04-24T15:59:59Z</time>
      </trkpt>
      <trkpt lat="43.87683" lon="3.74224">
        <ele>179.42</ele>
        <time>2016-04-24T16:00:00Z</time>
      </trkpt>
      <trkpt lat="43.87664" lon="3.74209">
        <ele>179.9</ele>
        <time>2016-04-24T16:00:01Z</time>
      </trkpt>
      <trkpt lat="43.87643" lon="3.74197">
        <ele>180.87</ele>
        <time>2016-04-24T16:00:02Z</time>
      </trkpt>
      <trkpt lat="43.87622" lon="3.74187">
        <ele>181.35</ele>
        <time>2016-04-24T16:00:03Z</time>
      </trkpt>
      <trkpt lat="43.87599" lon="3.74181">
        <ele>181.35</ele>
        <time>2016-04-24T16:00:04Z</time>
      </trkpt>
      <trkpt lat="43.87576" lon="3.74179">
        <ele>181.83</ele>
        <time>2016-04-24T16:00:05Z</time>
      </trkpt>
      <trkpt lat="43.87553" lon="3.7418">
        <ele>181.83</ele>
        <time>2016-04-24T16:00:06Z</time>
      </trkpt>
      <trkpt lat="43.8753" lon="3.74184">
        <ele>182.31</ele>
        <time>2016-04-24T16:00:07Z</time>
      </trkpt>
      <trkpt lat="43.87508" lon="3.74189">
        <ele>181.83</ele>
        <time>2016-04-24T16:00:08Z</time>
      </trkpt>
      <trkpt lat="43.87298" lon="3.74242">
        <ele>184.71</ele>
        <time>2016-04-24T16:00:18Z</time>
      </trkpt>
      <trkpt lat="43.87129" lon="3.74231">
        <ele>190.96</ele>
        <time>2016-04-24T16:00:27Z</time>
      </trkpt>
      <trkpt lat="43.86969" lon="3.74178">
        <ele>197.21</ele>
        <time>2016-04-24T16:00:34Z</time>
      </trkpt>
      <trkpt lat="43.86827" lon="3.74093">
        <ele>203.46</ele>
        <time>2016-04-24T16:00:42Z</time>
      </trkpt>
      <trkpt lat="43.86679" lon="3.74028">
        <ele>209.22</ele>
        <time>2016-04-24T16:00:50Z</time>
      </trkpt>
      <trkpt lat="43.86656" lon="3.74029">
        <ele>210.19</ele>
        <time>2016-04-24T16:00:51Z</time>
      </trkpt>
      <trkpt lat="43.86631" lon="3.74031">
        <ele>210.67</ele>
        <time>2016-04-24T16:00:52Z</time>
      </trkpt>
      <trkpt lat="43.86607" lon="3.74037">
        <ele>211.63</ele>
        <time>2016-04-24T16:00:53Z</time>
      </trkpt>
      <trkpt lat="43.86584" lon="3.74045">
        <ele>212.59</ele>
        <time>2016-04-24T16:00:54Z</time>
      </trkpt>
      <trkpt lat="43.86563" lon="3.74055">
        <ele>213.07</ele>
        <time>2016-04-24T16:00:55Z</time>
      </trkpt>
      <trkpt lat="43.86543" lon="3.74066">
        <ele>213.55</ele>
        <time>2016-04-24T16:00:56Z</time>
      </trkpt>
      <trkpt lat="43.86351" lon="3.74207">
        <ele>219.8</ele>
        <time>2016-04-24T16:01:06Z</time>
      </trkpt>
      <trkpt lat="43.86199" lon="3.74308">
        <ele>227.49</ele>
        <time>2016-04-24T16:01:13Z</time>
      </trkpt>
      <trkpt lat="43.86174" lon="3.74314">
        <ele>229.41</ele>
        <time>2016-04-24T16:01:14Z</time>
      </trkpt>
      <trkpt lat="43.86147" lon="3.74314">
        <ele>230.85</ele>
        <time>2016-04-24T16:01:15Z</time>
      </trkpt>
      <trkpt lat="43.8612" lon="3.74311">
        <ele>232.78</ele>
        <time>2016-04-24T16:01:16Z</time>
      </trkpt>
      <trkpt lat="43.86094" lon="3.74305">
        <ele>235.18</ele>
        <time>2016-04-24T16:01:17Z</time>
      </trkpt>
      <trkpt lat="43.86068" lon="3.74296">
        <ele>237.58</ele>
        <time>2016-04-24T16:01:18Z</time>
      </trkpt>
      <trkpt lat="43.86043" lon="3.74284">
        <ele>239.99</ele>
        <time>2016-04-24T16:01:19Z</time>
      </trkpt>
      <trkpt lat="43.8602" lon="3.74268">
        <ele>242.87</ele>
        <time>2016-04-24T16:01:20Z</time>
      </trkpt>
      <trkpt lat="43.85996" lon="3.74251">
        <ele>245.27</ele>
        <time>2016-04-24T16:01:21Z</time>
      </trkpt>
      <trkpt lat="43.85841" lon="3.74176">
        <ele>259.21</ele>
        <time>2016-04-24T16:01:26Z</time>
      </trkpt>
      <trkpt lat="43.85804" lon="3.74174">
        <ele>262.58</ele>
        <time>2016-04-24T16:01:27Z</time>
      </trkpt>
      <trkpt lat="43.85767" lon="3.74174">
        <ele>264.98</ele>
        <time>2016-04-24T16:01:28Z</time>
      </trkpt>
      <trkpt lat="43.85731" lon="3.74178">
        <ele>267.86</ele>
        <time>2016-04-24T16:01:29Z</time>
      </trkpt>
      <trkpt lat="43.85698" lon="3.74182">
        <ele>270.27</ele>
        <time>2016-04-24T16:01:30Z</time>
      </trkpt>
      <trkpt lat="43.85473" lon="3.7421">
        <ele>289.97</ele>
        <time>2016-04-24T16:01:37Z</time>
      </trkpt>
      <trkpt lat="43.85282" lon="3.74167">
        <ele>307.28</ele>
        <time>2016-04-24T16:01:43Z</time>
      </trkpt>
      <trkpt lat="43.85086" lon="3.74063">
        <ele>324.58</ele>
        <time>2016-04-24T16:01:50Z</time>
      </trkpt>
      <trkpt lat="43.84899" lon="3.73986">
        <ele>327.95</ele>
        <time>2016-04-24T16:01:57Z</time>
      </trkpt>
      <trkpt lat="43.84869" lon="3.73985">
        <ele>327.47</ele>
        <time>2016-04-24T16:01:58Z</time>
      </trkpt>
      <trkpt lat="43.84838" lon="3.7399">
        <ele>326.02</ele>
        <time>2016-04-24T16:01:59Z</time>
      </trkpt>
      <trkpt lat="43.84805" lon="3.74">
        <ele>324.58</ele>
        <time>2016-04-24T16:02:00Z</time>
      </trkpt>
      <trkpt lat="43.8477" lon="3.74011">
        <ele>322.66</ele>
        <time>2016-04-24T16:02:01Z</time>
      </trkpt>
      <trkpt lat="43.84735" lon="3.74026">
        <ele>320.74</ele>
        <time>2016-04-24T16:02:02Z</time>
      </trkpt>
      <trkpt lat="43.84552" lon="3.74122">
        <ele>310.16</ele>
        <time>2016-04-24T16:02:08Z</time>
      </trkpt>
      <trkpt lat="43.84196" lon="3.74312">
        <ele>279.88</ele>
        <time>2016-04-24T16:02:21Z</time>
      </trkpt>
      <trkpt lat="43.83958" lon="3.74423">
        <ele>260.65</ele>
        <time>2016-04-24T16:02:30Z</time>
      </trkpt>
      <trkpt lat="43.83813" lon="3.74416">
        <ele>252</ele>
        <time>2016-04-24T16:02:35Z</time>
      </trkpt>
      <trkpt lat="43.83701" lon="3.74361">
        <ele>247.2</ele>
        <time>2016-04-24T16:02:40Z</time>
      </trkpt>
      <trkpt lat="43.83505" lon="3.74245">
        <ele>238.54</ele>
        <time>2016-04-24T16:02:49Z</time>
      </trkpt>
      <trkpt lat="43.83439" lon="3.74229">
        <ele>236.14</ele>
        <time>2016-04-24T16:02:52Z</time>
      </trkpt>
      <trkpt lat="43.83416" lon="3.74231">
        <ele>235.18</ele>
        <time>2016-04-24T16:02:53Z</time>
      </trkpt>
      <trkpt lat="43.83392" lon="3.74236">
        <ele>234.22</ele>
        <time>2016-04-24T16:02:54Z</time>
      </trkpt>
      <trkpt lat="43.83367" lon="3.74245">
        <ele>233.26</ele>
        <time>2016-04-24T16:02:55Z</time>
      </trkpt>
      <trkpt lat="43.83343" lon="3.74259">
        <ele>232.3</ele>
        <time>2016-04-24T16:02:56Z</time>
      </trkpt>
      <trkpt lat="43.83321" lon="3.74277">
        <ele>230.85</ele>
        <time>2016-04-24T16:02:57Z</time>
      </trkpt>
      <trkpt lat="43.83298" lon="3.74298">
        <ele>229.89</ele>
        <time>2016-04-24T16:02:58Z</time>
      </trkpt>
      <trkpt lat="43.83274" lon="3.7432">
        <ele>228.93</ele>
        <time>2016-04-24T16:02:59Z</time>
      </trkpt>
      <trkpt lat="43.83085" lon="3.74495">
        <ele>220.76</ele>
        <time>2016-04-24T16:03:07Z</time>
      </trkpt>
      <trkpt lat="43.83061" lon="3.74506">
        <ele>220.28</ele>
        <time>2016-04-24T16:03:08Z</time>
      </trkpt>
      <trkpt lat="43.83037" lon="3.74511">
        <ele>219.32</ele>
        <time>2016-04-24T16:03:09Z</time>
      </trkpt>
      <trkpt lat="43.8301" lon="3.74512">
        <ele>218.84</ele>
        <time>2016-04-24T16:03:10Z</time>
      </trkpt>
      <trkpt lat="43.82981" lon="3.74509">
        <ele>217.88</ele>
        <time>2016-04-24T16:03:11Z</time>
      </trkpt>
      <trkpt lat="43.82951" lon="3.74506">
        <ele>217.4</ele>
        <time>2016-04-24T16:03:12Z</time>
      </trkpt>
      <trkpt lat="43.82689" lon="3.74485">
        <ele>214.03</ele>
        <time>2016-04-24T16:03:21Z</time>
      </trkpt>
      <trkpt lat="43.82498" lon="3.74468">
        <ele>213.55</ele>
        <time>2016-04-24T16:03:27Z</time>
      </trkpt>
      <trkpt lat="43.82338" lon="3.74457">
        <ele>216.43</ele>
        <time>2016-04-24T16:03:34Z</time>
      </trkpt>
      <trkpt lat="43.82142" lon="3.7446">
        <ele>213.07</ele>
        <time>2016-04-24T16:03:43Z</time>
      </trkpt>
      <trkpt lat="43.8197" lon="3.74451">
        <ele>205.86</ele>
        <time>2016-04-24T16:03:49Z</time>
      </trkpt>
      <trkpt lat="43.81919" lon="3.74443">
        <ele>203.94</ele>
        <time>2016-04-24T16:03:51Z</time>
      </trkpt>
      <trkpt lat="43.81894" lon="3.74444">
        <ele>202.98</ele>
        <time>2016-04-24T16:03:52Z</time>
      </trkpt>
      <trkpt lat="43.81868" lon="3.74448">
        <ele>201.53</ele>
        <time>2016-04-24T16:03:53Z</time>
      </trkpt>
      <trkpt lat="43.81817" lon="3.74455">
        <ele>199.13</ele>
        <time>2016-04-24T16:03:55Z</time>
      </trkpt>
      <trkpt lat="43.81791" lon="3.74452">
        <ele>197.69</ele>
        <time>2016-04-24T16:03:56Z</time>
      </trkpt>
      <trkpt lat="43.81766" lon="3.74443">
        <ele>196.73</ele>
        <time>2016-04-24T16:03:57Z</time>
      </trkpt>
      <trkpt lat="43.81743" lon="3.74431">
        <ele>195.77</ele>
        <time>2016-04-24T16:03:58Z</time>
      </trkpt>
      <trkpt lat="43.81721" lon="3.74418">
        <ele>194.8</ele>
        <time>2016-04-24T16:03:59Z</time>
      </trkpt>
      <trkpt lat="43.81569" lon="3.7434">
        <ele>188.56</ele>
        <time>2016-04-24T16:04:07Z</time>
      </trkpt>
      <trkpt lat="43.81551" lon="3.74336">
        <ele>187.59</ele>
        <time>2016-04-24T16:04:08Z</time>
      </trkpt>
      <trkpt lat="43.81532" lon="3.74336">
        <ele>186.63</ele>
        <time>2016-04-24T16:04:09Z</time>
      </trkpt>
      <trkpt lat="43.81513" lon="3.74339">
        <ele>186.15</ele>
        <time>2016-04-24T16:04:10Z</time>
      </trkpt>
      <trkpt lat="43.81494" lon="3.74342">
        <ele>185.19</ele>
        <time>2016-04-24T16:04:11Z</time>
      </trkpt>
      <trkpt lat="43.81318" lon="3.74384">
        <ele>178.46</ele>
        <time>2016-04-24T16:04:21Z</time>
      </trkpt>
      <trkpt lat="43.81303" lon="3.74382">
        <ele>177.98</ele>
        <time>2016-04-24T16:04:22Z</time>
      </trkpt>
      <trkpt lat="43.81288" lon="3.74376">
        <ele>177.5</ele>
        <time>2016-04-24T16:04:23Z</time>
      </trkpt>
      <trkpt lat="43.81275" lon="3.74367">
        <ele>177.02</ele>
        <time>2016-04-24T16:04:24Z</time>
      </trkpt>
      <trkpt lat="43.81262" lon="3.74357">
        <ele>176.54</ele>
        <time>2016-04-24T16:04:25Z</time>
      </trkpt>
      <trkpt lat="43.81252" lon="3.74344">
        <ele>176.54</ele>
        <time>2016-04-24T16:04:26Z</time>
      </trkpt>
      <trkpt lat="43.81242" lon="3.74329">
        <ele>176.06</ele>
        <time>2016-04-24T16:04:27Z</time>
      </trkpt>
      <trkpt lat="43.81233" lon="3.74313">
        <ele>175.58</ele>
        <time>2016-04-24T16:04:28Z</time>
      </trkpt>
      <trkpt lat="43.81224" lon="3.74294">
        <ele>175.58</ele>
        <time>2016-04-24T16:04:29Z</time>
      </trkpt>
      <trkpt lat="43.81215" lon="3.74275">
        <ele>175.1</ele>
        <time>2016-04-24T16:04:30Z</time>
      </trkpt>
      <trkpt lat="43.81159" lon="3.7417">
        <ele>175.58</ele>
        <time>2016-04-24T16:04:35Z</time>
      </trkpt>
      <trkpt lat="43.81143" lon="3.74152">
        <ele>175.58</ele>
        <time>2016-04-24T16:04:36Z</time>
      </trkpt>
      <trkpt lat="43.81124" lon="3.74137">
        <ele>175.58</ele>
        <time>2016-04-24T16:04:37Z</time>
      </trkpt>
      <trkpt lat="43.81101" lon="3.74128">
        <ele>176.54</ele>
        <time>2016-04-24T16:04:38Z</time>
      </trkpt>
      <trkpt lat="43.81078" lon="3.74122">
        <ele>177.02</ele>
        <time>2016-04-24T16:04:39Z</time>
      </trkpt>
      <trkpt lat="43.81055" lon="3.74122">
        <ele>177.5</ele>
        <time>2016-04-24T16:04:40Z</time>
      </trkpt>
      <trkpt lat="43.81034" lon="3.74126">
        <ele>177.98</ele>
        <time>2016-04-24T16:04:41Z</time>
      </trkpt>
      <trkpt lat="43.81015" lon="3.74131">
        <ele>178.46</ele>
        <time>2016-04-24T16:04:42Z</time>
      </trkpt>
      <trkpt lat="43.80995" lon="3.74137">
        <ele>178.94</ele>
        <time>2016-04-24T16:04:43Z</time>
      </trkpt>
      <trkpt lat="43.80976" lon="3.74145">
        <ele>179.42</ele>
        <time>2016-04-24T16:04:44Z</time>
      </trkpt>
      <trkpt lat="43.80917" lon="3.74161">
        <ele>180.87</ele>
        <time>2016-04-24T16:04:47Z</time>
      </trkpt>
      <trkpt lat="43.80897" lon="3.74161">
        <ele>181.83</ele>
        <time>2016-04-24T16:04:48Z</time>
      </trkpt>
      <trkpt lat="43.80876" lon="3.74159">
        <ele>182.31</ele>
        <time>2016-04-24T16:04:49Z</time>
      </trkpt>
      <trkpt lat="43.80857" lon="3.74154">
        <ele>182.79</ele>
        <time>2016-04-24T16:04:50Z</time>
      </trkpt>
      <trkpt lat="43.80838" lon="3.74146">
        <ele>183.27</ele>
        <time>2016-04-24T16:04:51Z</time>
      </trkpt>
      <trkpt lat="43.80818" lon="3.74134">
        <ele>183.75</ele>
        <time>2016-04-24T16:04:52Z</time>
      </trkpt>
      <trkpt lat="43.80795" lon="3.74114">
        <ele>184.23</ele>
        <time>2016-04-24T16:04:53Z</time>
      </trkpt>
      <trkpt lat="43.80772" lon="3.74091">
        <ele>185.19</ele>
        <time>2016-04-24T16:04:54Z</time>
      </trkpt>
      <trkpt lat="43.80747" lon="3.74067">
        <ele>185.67</ele>
        <time>2016-04-24T16:04:55Z</time>
      </trkpt>
      <trkpt lat="43.80589" lon="3.73923">
        <ele>190.96</ele>
        <time>2016-04-24T16:05:02Z</time>
      </trkpt>
      <trkpt lat="43.80492" lon="3.73846">
        <ele>194.32</ele>
        <time>2016-04-24T16:05:07Z</time>
      </trkpt>
      <trkpt lat="43.80467" lon="3.73834">
        <ele>194.8</ele>
        <time>2016-04-24T16:05:08Z</time>
      </trkpt>
      <trkpt lat="43.80439" lon="3.73824">
        <ele>195.77</ele>
        <time>2016-04-24T16:05:09Z</time>
      </trkpt>
      <trkpt lat="43.80285" lon="3.73792">
        <ele>200.09</ele>
        <time>2016-04-24T16:05:14Z</time>
      </trkpt>
      <trkpt lat="43.80119" lon="3.73794">
        <ele>203.94</ele>
        <time>2016-04-24T16:05:20Z</time>
      </trkpt>
      <trkpt lat="43.7999" lon="3.73841">
        <ele>203.94</ele>
        <time>2016-04-24T16:05:25Z</time>
      </trkpt>
      <trkpt lat="43.79803" lon="3.73955">
        <ele>196.25</ele>
        <time>2016-04-24T16:05:31Z</time>
      </trkpt>
      <trkpt lat="43.79651" lon="3.73995">
        <ele>187.59</ele>
        <time>2016-04-24T16:05:36Z</time>
      </trkpt>
      <trkpt lat="43.79537" lon="3.73967">
        <ele>185.19</ele>
        <time>2016-04-24T16:05:40Z</time>
      </trkpt>
      <trkpt lat="43.79509" lon="3.73951">
        <ele>185.67</ele>
        <time>2016-04-24T16:05:41Z</time>
      </trkpt>
      <trkpt lat="43.79482" lon="3.7393">
        <ele>186.15</ele>
        <time>2016-04-24T16:05:42Z</time>
      </trkpt>
      <trkpt lat="43.79456" lon="3.73906">
        <ele>187.11</ele>
        <time>2016-04-24T16:05:43Z</time>
      </trkpt>
      <trkpt lat="43.79429" lon="3.7388">
        <ele>188.08</ele>
        <time>2016-04-24T16:05:44Z</time>
      </trkpt>
      <trkpt lat="43.79235" lon="3.73704">
        <ele>191.92</ele>
        <time>2016-04-24T16:05:51Z</time>
      </trkpt>
      <trkpt lat="43.79205" lon="3.73689">
        <ele>192.4</ele>
        <time>2016-04-24T16:05:52Z</time>
      </trkpt>
      <trkpt lat="43.79176" lon="3.7368">
        <ele>192.88</ele>
        <time>2016-04-24T16:05:53Z</time>
      </trkpt>
      <trkpt lat="43.79148" lon="3.73673">
        <ele>193.36</ele>
        <time>2016-04-24T16:05:54Z</time>
      </trkpt>
      <trkpt lat="43.79121" lon="3.7367">
        <ele>193.36</ele>
        <time>2016-04-24T16:05:55Z</time>
      </trkpt>
      <trkpt lat="43.79096" lon="3.73667">
        <ele>193.36</ele>
        <time>2016-04-24T16:05:56Z</time>
      </trkpt>
      <trkpt lat="43.79003" lon="3.73665">
        <ele>193.84</ele>
        <time>2016-04-24T16:06:01Z</time>
      </trkpt>
      <trkpt lat="43.78971" lon="3.73662">
        <ele>193.84</ele>
        <time>2016-04-24T16:06:04Z</time>
      </trkpt>
      <trkpt lat="43.78963" lon="3.73659">
        <ele>193.84</ele>
        <time>2016-04-24T16:06:05Z</time>
      </trkpt>
      <trkpt lat="43.78956" lon="3.73654">
        <ele>193.84</ele>
        <time>2016-04-24T16:06:06Z</time>
      </trkpt>
      <trkpt lat="43.78942" lon="3.73644">
        <ele>193.84</ele>
        <time>2016-04-24T16:06:08Z</time>
      </trkpt>
      <trkpt lat="43.78933" lon="3.73644">
        <ele>194.32</ele>
        <time>2016-04-24T16:06:09Z</time>
      </trkpt>
      <trkpt lat="43.78924" lon="3.73647">
        <ele>194.32</ele>
        <time>2016-04-24T16:06:10Z</time>
      </trkpt>
      <trkpt lat="43.78907" lon="3.73654">
        <ele>193.84</ele>
        <time>2016-04-24T16:06:12Z</time>
      </trkpt>
      <trkpt lat="43.78898" lon="3.73655">
        <ele>193.84</ele>
        <time>2016-04-24T16:06:13Z</time>
      </trkpt>
      <trkpt lat="43.78806" lon="3.73639">
        <ele>194.32</ele>
        <time>2016-04-24T16:06:20Z</time>
      </trkpt>
      <trkpt lat="43.78651" lon="3.73613">
        <ele>197.21</ele>
        <time>2016-04-24T16:06:29Z</time>
      </trkpt>
      <trkpt lat="43.78511" lon="3.73651">
        <ele>200.57</ele>
        <time>2016-04-24T16:06:37Z</time>
      </trkpt>
      <trkpt lat="43.78437" lon="3.73679">
        <ele>202.01</ele>
        <time>2016-04-24T16:06:42Z</time>
      </trkpt>
      <trkpt lat="43.78423" lon="3.7368">
        <ele>202.01</ele>
        <time>2016-04-24T16:06:43Z</time>
      </trkpt>
      <trkpt lat="43.78409" lon="3.73679">
        <ele>202.01</ele>
        <time>2016-04-24T16:06:44Z</time>
      </trkpt>
      <trkpt lat="43.78396" lon="3.73675">
        <ele>202.01</ele>
        <time>2016-04-24T16:06:45Z</time>
      </trkpt>
      <trkpt lat="43.78384" lon="3.73669">
        <ele>202.01</ele>
        <time>2016-04-24T16:06:46Z</time>
      </trkpt>
      <trkpt lat="43.78373" lon="3.73661">
        <ele>202.49</ele>
        <time>2016-04-24T16:06:47Z</time>
      </trkpt>
      <trkpt lat="43.78363" lon="3.73653">
        <ele>202.49</ele>
        <time>2016-04-24T16:06:48Z</time>
      </trkpt>
      <trkpt lat="43.78355" lon="3.73645">
        <ele>202.98</ele>
        <time>2016-04-24T16:06:49Z</time>
      </trkpt>
      <trkpt lat="43.78349" lon="3.73637">
        <ele>202.98</ele>
        <time>2016-04-24T16:06:50Z</time>
      </trkpt>
      <trkpt lat="43.78346" lon="3.73628">
        <ele>202.98</ele>
        <time>2016-04-24T16:06:51Z</time>
      </trkpt>
      <trkpt lat="43.78345" lon="3.73618">
        <ele>203.46</ele>
        <time>2016-04-24T16:06:52Z</time>
      </trkpt>
      <trkpt lat="43.78344" lon="3.73608">
        <ele>203.46</ele>
        <time>2016-04-24T16:06:53Z</time>
      </trkpt>
      <trkpt lat="43.78342" lon="3.73598">
        <ele>203.46</ele>
        <time>2016-04-24T16:06:54Z</time>
      </trkpt>
      <trkpt lat="43.78338" lon="3.73588">
        <ele>203.46</ele>
        <time>2016-04-24T16:06:55Z</time>
      </trkpt>
      <trkpt lat="43.78333" lon="3.73581">
        <ele>203.46</ele>
        <time>2016-04-24T16:06:56Z</time>
      </trkpt>
      <trkpt lat="43.78326" lon="3.73577">
        <ele>203.94</ele>
        <time>2016-04-24T16:06:57Z</time>
      </trkpt>
      <trkpt lat="43.78319" lon="3.73576">
        <ele>203.94</ele>
        <time>2016-04-24T16:06:58Z</time>
      </trkpt>
      <trkpt lat="43.78312" lon="3.73577">
        <ele>203.94</ele>
        <time>2016-04-24T16:06:59Z</time>
      </trkpt>
      <trkpt lat="43.78306" lon="3.73581">
        <ele>203.94</ele>
        <time>2016-04-24T16:07:00Z</time>
      </trkpt>
      <trkpt lat="43.783" lon="3.73587">
        <ele>203.94</ele>
        <time>2016-04-24T16:07:01Z</time>
      </trkpt>
      <trkpt lat="43.78295" lon="3.73594">
        <ele>204.42</ele>
        <time>2016-04-24T16:07:02Z</time>
      </trkpt>
      <trkpt lat="43.7829" lon="3.73601">
        <ele>204.42</ele>
        <time>2016-04-24T16:07:03Z</time>
      </trkpt>
      <trkpt lat="43.78284" lon="3.73606">
        <ele>204.42</ele>
        <time>2016-04-24T16:07:04Z</time>
      </trkpt>
      <trkpt lat="43.78277" lon="3.7361">
        <ele>204.42</ele>
        <time>2016-04-24T16:07:05Z</time>
      </trkpt>
      <trkpt lat="43.7827" lon="3.73612">
        <ele>204.42</ele>
        <time>2016-04-24T16:07:06Z</time>
      </trkpt>
      <trkpt lat="43.78209" lon="3.73629">
        <ele>206.34</ele>
        <time>2016-04-24T16:07:14Z</time>
      </trkpt>
      <trkpt lat="43.78202" lon="3.73627">
        <ele>206.82</ele>
        <time>2016-04-24T16:07:15Z</time>
      </trkpt>
      <trkpt lat="43.78198" lon="3.73625">
        <ele>206.82</ele>
        <time>2016-04-24T16:07:16Z</time>
      </trkpt>
      <trkpt lat="43.78189" lon="3.73621">
        <ele>207.3</ele>
        <time>2016-04-24T16:07:19Z</time>
      </trkpt>
      <trkpt lat="43.78186" lon="3.73622">
        <ele>207.78</ele>
        <time>2016-04-24T16:07:20Z</time>
      </trkpt>
      <trkpt lat="43.78172" lon="3.73626">
        <ele>208.26</ele>
        <time>2016-04-24T16:07:25Z</time>
      </trkpt>
      <trkpt lat="43.78173" lon="3.73626">
        <ele>207.78</ele>
        <time>2016-04-24T16:07:36Z</time>
      </trkpt>
      <trkpt lat="43.78175" lon="3.73627">
        <ele>206.82</ele>
        <time>2016-04-24T16:08:11Z</time>
      </trkpt>
      <trkpt lat="43.78173" lon="3.73629">
        <ele>206.82</ele>
        <time>2016-04-24T16:23:15Z</time>
      </trkpt>
      <trkpt lat="43.78175" lon="3.73629">
        <ele>206.82</ele>
        <time>2016-04-24T16:23:51Z</time>
      </trkpt>
      <trkpt lat="43.78165" lon="3.73654">
        <ele>206.82</ele>
        <time>2016-04-24T16:23:58Z</time>
      </trkpt>
      <trkpt lat="43.78161" lon="3.73659">
        <ele>206.82</ele>
        <time>2016-04-24T16:23:59Z</time>
      </trkpt>
      <trkpt lat="43.78154" lon="3.73665">
        <ele>206.82</ele>
        <time>2016-04-24T16:24:00Z</time>
      </trkpt>
      <trkpt lat="43.78144" lon="3.73671">
        <ele>206.82</ele>
        <time>2016-04-24T16:24:01Z</time>
      </trkpt>
      <trkpt lat="43.78131" lon="3.73679">
        <ele>207.3</ele>
        <time>2016-04-24T16:24:02Z</time>
      </trkpt>
      <trkpt lat="43.78033" lon="3.73737">
        <ele>209.7</ele>
        <time>2016-04-24T16:24:07Z</time>
      </trkpt>
      <trkpt lat="43.77907" lon="3.7384">
        <ele>215.95</ele>
        <time>2016-04-24T16:24:12Z</time>
      </trkpt>
      <trkpt lat="43.77885" lon="3.73873">
        <ele>217.4</ele>
        <time>2016-04-24T16:24:13Z</time>
      </trkpt>
      <trkpt lat="43.77751" lon="3.74057">
        <ele>227.01</ele>
        <time>2016-04-24T16:24:19Z</time>
      </trkpt>
      <trkpt lat="43.7763" lon="3.74174">
        <ele>236.14</ele>
        <time>2016-04-24T16:24:24Z</time>
      </trkpt>
      <trkpt lat="43.77489" lon="3.74293">
        <ele>245.27</ele>
        <time>2016-04-24T16:24:29Z</time>
      </trkpt>
      <trkpt lat="43.7735" lon="3.7448">
        <ele>257.29</ele>
        <time>2016-04-24T16:24:35Z</time>
      </trkpt>
      <trkpt lat="43.77318" lon="3.74504">
        <ele>259.69</ele>
        <time>2016-04-24T16:24:36Z</time>
      </trkpt>
      <trkpt lat="43.77125" lon="3.74615">
        <ele>271.71</ele>
        <time>2016-04-24T16:24:42Z</time>
      </trkpt>
      <trkpt lat="43.77027" lon="3.74624">
        <ele>273.63</ele>
        <time>2016-04-24T16:24:45Z</time>
      </trkpt>
      <trkpt lat="43.76996" lon="3.74619">
        <ele>273.63</ele>
        <time>2016-04-24T16:24:46Z</time>
      </trkpt>
      <trkpt lat="43.76965" lon="3.74612">
        <ele>273.15</ele>
        <time>2016-04-24T16:24:47Z</time>
      </trkpt>
      <trkpt lat="43.76727" lon="3.74553">
        <ele>267.86</ele>
        <time>2016-04-24T16:24:55Z</time>
      </trkpt>
      <trkpt lat="43.76534" lon="3.7458">
        <ele>263.06</ele>
        <time>2016-04-24T16:25:02Z</time>
      </trkpt>
      <trkpt lat="43.764" lon="3.74648">
        <ele>258.73</ele>
        <time>2016-04-24T16:25:08Z</time>
      </trkpt>
      <trkpt lat="43.76263" lon="3.74724">
        <ele>255.85</ele>
        <time>2016-04-24T16:25:14Z</time>
      </trkpt>
      <trkpt lat="43.76065" lon="3.7485">
        <ele>251.04</ele>
        <time>2016-04-24T16:25:21Z</time>
      </trkpt>
      <trkpt lat="43.75912" lon="3.75001">
        <ele>246.72</ele>
        <time>2016-04-24T16:25:27Z</time>
      </trkpt>
      <trkpt lat="43.75822" lon="3.75082">
        <ele>244.31</ele>
        <time>2016-04-24T16:25:32Z</time>
      </trkpt>
      <trkpt lat="43.7581" lon="3.75087">
        <ele>243.83</ele>
        <time>2016-04-24T16:25:33Z</time>
      </trkpt>
      <trkpt lat="43.75798" lon="3.75089">
        <ele>243.83</ele>
        <time>2016-04-24T16:25:34Z</time>
      </trkpt>
      <trkpt lat="43.75779" lon="3.75095">
        <ele>243.35</ele>
        <time>2016-04-24T16:25:36Z</time>
      </trkpt>
      <trkpt lat="43.75772" lon="3.75104">
        <ele>242.87</ele>
        <time>2016-04-24T16:25:37Z</time>
      </trkpt>
      <trkpt lat="43.75766" lon="3.75117">
        <ele>242.87</ele>
        <time>2016-04-24T16:25:38Z</time>
      </trkpt>
      <trkpt lat="43.75753" lon="3.75147">
        <ele>241.91</ele>
        <time>2016-04-24T16:25:40Z</time>
      </trkpt>
      <trkpt lat="43.7574" lon="3.75164">
        <ele>241.43</ele>
        <time>2016-04-24T16:25:41Z</time>
      </trkpt>
      <trkpt lat="43.75656" lon="3.75249">
        <ele>239.51</ele>
        <time>2016-04-24T16:25:45Z</time>
      </trkpt>
      <trkpt lat="43.75504" lon="3.75397">
        <ele>238.06</ele>
        <time>2016-04-24T16:25:50Z</time>
      </trkpt>
      <trkpt lat="43.7523" lon="3.75666">
        <ele>235.66</ele>
        <time>2016-04-24T16:25:58Z</time>
      </trkpt>
      <trkpt lat="43.74954" lon="3.75934">
        <ele>232.78</ele>
        <time>2016-04-24T16:26:07Z</time>
      </trkpt>
      <trkpt lat="43.74796" lon="3.76098">
        <ele>229.41</ele>
        <time>2016-04-24T16:26:13Z</time>
      </trkpt>
      <trkpt lat="43.74712" lon="3.76181">
        <ele>227.49</ele>
        <time>2016-04-24T16:26:18Z</time>
      </trkpt>
      <trkpt lat="43.74622" lon="3.76281">
        <ele>226.53</ele>
        <time>2016-04-24T16:26:23Z</time>
      </trkpt>
      <trkpt lat="43.74508" lon="3.76457">
        <ele>227.97</ele>
        <time>2016-04-24T16:26:30Z</time>
      </trkpt>
      <trkpt lat="43.74371" lon="3.76703">
        <ele>230.37</ele>
        <time>2016-04-24T16:26:40Z</time>
      </trkpt>
      <trkpt lat="43.74299" lon="3.7683">
        <ele>230.37</ele>
        <time>2016-04-24T16:26:47Z</time>
      </trkpt>
      <trkpt lat="43.74234" lon="3.76964">
        <ele>231.33</ele>
        <time>2016-04-24T16:26:53Z</time>
      </trkpt>
      <trkpt lat="43.74141" lon="3.77225">
        <ele>232.78</ele>
        <time>2016-04-24T16:27:02Z</time>
      </trkpt>
      <trkpt lat="43.7405" lon="3.7748">
        <ele>233.74</ele>
        <time>2016-04-24T16:27:12Z</time>
      </trkpt>
      <trkpt lat="43.7399" lon="3.77656">
        <ele>233.26</ele>
        <time>2016-04-24T16:27:21Z</time>
      </trkpt>
      <trkpt lat="43.73986" lon="3.77676">
        <ele>232.3</ele>
        <time>2016-04-24T16:27:22Z</time>
      </trkpt>
      <trkpt lat="43.73983" lon="3.77698">
        <ele>231.81</ele>
        <time>2016-04-24T16:27:23Z</time>
      </trkpt>
      <trkpt lat="43.73981" lon="3.7772">
        <ele>231.33</ele>
        <time>2016-04-24T16:27:24Z</time>
      </trkpt>
      <trkpt lat="43.7398" lon="3.77743">
        <ele>230.37</ele>
        <time>2016-04-24T16:27:25Z</time>
      </trkpt>
      <trkpt lat="43.73981" lon="3.77766">
        <ele>229.41</ele>
        <time>2016-04-24T16:27:26Z</time>
      </trkpt>
      <trkpt lat="43.73985" lon="3.77952">
        <ele>225.09</ele>
        <time>2016-04-24T16:27:32Z</time>
      </trkpt>
      <trkpt lat="43.73991" lon="3.78201">
        <ele>218.84</ele>
        <time>2016-04-24T16:27:38Z</time>
      </trkpt>
      <trkpt lat="43.73976" lon="3.78459">
        <ele>212.59</ele>
        <time>2016-04-24T16:27:45Z</time>
      </trkpt>
      <trkpt lat="43.73959" lon="3.78493">
        <ele>211.63</ele>
        <time>2016-04-24T16:27:46Z</time>
      </trkpt>
      <trkpt lat="43.73939" lon="3.78526">
        <ele>210.67</ele>
        <time>2016-04-24T16:27:47Z</time>
      </trkpt>
      <trkpt lat="43.73916" lon="3.78559">
        <ele>209.22</ele>
        <time>2016-04-24T16:27:48Z</time>
      </trkpt>
      <trkpt lat="43.7389" lon="3.78591">
        <ele>208.26</ele>
        <time>2016-04-24T16:27:49Z</time>
      </trkpt>
      <trkpt lat="43.73864" lon="3.78624">
        <ele>207.3</ele>
        <time>2016-04-24T16:27:50Z</time>
      </trkpt>
      <trkpt lat="43.73837" lon="3.78656">
        <ele>206.34</ele>
        <time>2016-04-24T16:27:51Z</time>
      </trkpt>
      <trkpt lat="43.73566" lon="3.78958">
        <ele>201.53</ele>
        <time>2016-04-24T16:28:01Z</time>
      </trkpt>
      <trkpt lat="43.73415" lon="3.79144">
        <ele>198.65</ele>
        <time>2016-04-24T16:28:08Z</time>
      </trkpt>
      <trkpt lat="43.73284" lon="3.79312">
        <ele>193.36</ele>
        <time>2016-04-24T16:28:15Z</time>
      </trkpt>
      <trkpt lat="43.73141" lon="3.79461">
        <ele>193.84</ele>
        <time>2016-04-24T16:28:23Z</time>
      </trkpt>
      <trkpt lat="43.72988" lon="3.79563">
        <ele>197.21</ele>
        <time>2016-04-24T16:28:33Z</time>
      </trkpt>
      <trkpt lat="43.72957" lon="3.79576">
        <ele>197.21</ele>
        <time>2016-04-24T16:28:35Z</time>
      </trkpt>
      <trkpt lat="43.72941" lon="3.79579">
        <ele>197.21</ele>
        <time>2016-04-24T16:28:36Z</time>
      </trkpt>
      <trkpt lat="43.72925" lon="3.7958">
        <ele>196.73</ele>
        <time>2016-04-24T16:28:37Z</time>
      </trkpt>
      <trkpt lat="43.72907" lon="3.79579">
        <ele>196.25</ele>
        <time>2016-04-24T16:28:38Z</time>
      </trkpt>
      <trkpt lat="43.7289" lon="3.79577">
        <ele>195.77</ele>
        <time>2016-04-24T16:28:39Z</time>
      </trkpt>
      <trkpt lat="43.72766" lon="3.79544">
        <ele>191.44</ele>
        <time>2016-04-24T16:28:45Z</time>
      </trkpt>
      <trkpt lat="43.72743" lon="3.79533">
        <ele>190.48</ele>
        <time>2016-04-24T16:28:46Z</time>
      </trkpt>
      <trkpt lat="43.72722" lon="3.7952">
        <ele>189.52</ele>
        <time>2016-04-24T16:28:47Z</time>
      </trkpt>
      <trkpt lat="43.72623" lon="3.79461">
        <ele>184.71</ele>
        <time>2016-04-24T16:28:52Z</time>
      </trkpt>
      <trkpt lat="43.72602" lon="3.79456">
        <ele>183.75</ele>
        <time>2016-04-24T16:28:53Z</time>
      </trkpt>
      <trkpt lat="43.72582" lon="3.79455">
        <ele>182.79</ele>
        <time>2016-04-24T16:28:54Z</time>
      </trkpt>
      <trkpt lat="43.7256" lon="3.79458">
        <ele>181.83</ele>
        <time>2016-04-24T16:28:55Z</time>
      </trkpt>
      <trkpt lat="43.72537" lon="3.79463">
        <ele>180.87</ele>
        <time>2016-04-24T16:28:56Z</time>
      </trkpt>
      <trkpt lat="43.72294" lon="3.79508">
        <ele>169.33</ele>
        <time>2016-04-24T16:29:06Z</time>
      </trkpt>
      <trkpt lat="43.7208" lon="3.79478">
        <ele>160.68</ele>
        <time>2016-04-24T16:29:15Z</time>
      </trkpt>
      <trkpt lat="43.71667" lon="3.79417">
        <ele>153.95</ele>
        <time>2016-04-24T16:29:32Z</time>
      </trkpt>
      <trkpt lat="43.71592" lon="3.79418">
        <ele>152.51</ele>
        <time>2016-04-24T16:29:35Z</time>
      </trkpt>
      <trkpt lat="43.71567" lon="3.79424">
        <ele>152.03</ele>
        <time>2016-04-24T16:29:36Z</time>
      </trkpt>
      <trkpt lat="43.71381" lon="3.79512">
        <ele>148.18</ele>
        <time>2016-04-24T16:29:43Z</time>
      </trkpt>
      <trkpt lat="43.71225" lon="3.79669">
        <ele>152.51</ele>
        <time>2016-04-24T16:29:49Z</time>
      </trkpt>
      <trkpt lat="43.71019" lon="3.79913">
        <ele>164.04</ele>
        <time>2016-04-24T16:29:58Z</time>
      </trkpt>
      <trkpt lat="43.70932" lon="3.80105">
        <ele>163.08</ele>
        <time>2016-04-24T16:30:04Z</time>
      </trkpt>
      <trkpt lat="43.70883" lon="3.80337">
        <ele>154.91</ele>
        <time>2016-04-24T16:30:09Z</time>
      </trkpt>
      <trkpt lat="43.70869" lon="3.80621">
        <ele>145.3</ele>
        <time>2016-04-24T16:30:14Z</time>
      </trkpt>
      <trkpt lat="43.70828" lon="3.80842">
        <ele>141.93</ele>
        <time>2016-04-24T16:30:19Z</time>
      </trkpt>
      <trkpt lat="43.70767" lon="3.81083">
        <ele>140.49</ele>
        <time>2016-04-24T16:30:26Z</time>
      </trkpt>
      <trkpt lat="43.7072" lon="3.81298">
        <ele>139.05</ele>
        <time>2016-04-24T16:30:34Z</time>
      </trkpt>
      <trkpt lat="43.70717" lon="3.81369">
        <ele>138.09</ele>
        <time>2016-04-24T16:30:37Z</time>
      </trkpt>
      <trkpt lat="43.70719" lon="3.81391">
        <ele>137.61</ele>
        <time>2016-04-24T16:30:38Z</time>
      </trkpt>
      <trkpt lat="43.70722" lon="3.81412">
        <ele>137.61</ele>
        <time>2016-04-24T16:30:39Z</time>
      </trkpt>
      <trkpt lat="43.70726" lon="3.81434">
        <ele>137.13</ele>
        <time>2016-04-24T16:30:40Z</time>
      </trkpt>
      <trkpt lat="43.70731" lon="3.81454">
        <ele>136.16</ele>
        <time>2016-04-24T16:30:41Z</time>
      </trkpt>
      <trkpt lat="43.70737" lon="3.81475">
        <ele>135.68</ele>
        <time>2016-04-24T16:30:42Z</time>
      </trkpt>
      <trkpt lat="43.70743" lon="3.81494">
        <ele>135.2</ele>
        <time>2016-04-24T16:30:43Z</time>
      </trkpt>
      <trkpt lat="43.70812" lon="3.81646">
        <ele>128.47</ele>
        <time>2016-04-24T16:30:52Z</time>
      </trkpt>
      <trkpt lat="43.70841" lon="3.81732">
        <ele>124.63</ele>
        <time>2016-04-24T16:30:59Z</time>
      </trkpt>
      <trkpt lat="43.70845" lon="3.81776">
        <ele>123.19</ele>
        <time>2016-04-24T16:31:05Z</time>
      </trkpt>
      <trkpt lat="43.70844" lon="3.81784">
        <ele>123.19</ele>
        <time>2016-04-24T16:31:06Z</time>
      </trkpt>
      <trkpt lat="43.70842" lon="3.81791">
        <ele>123.19</ele>
        <time>2016-04-24T16:31:07Z</time>
      </trkpt>
      <trkpt lat="43.70837" lon="3.81799">
        <ele>123.19</ele>
        <time>2016-04-24T16:31:08Z</time>
      </trkpt>
      <trkpt lat="43.70831" lon="3.81807">
        <ele>123.19</ele>
        <time>2016-04-24T16:31:09Z</time>
      </trkpt>
      <trkpt lat="43.70825" lon="3.81816">
        <ele>122.71</ele>
        <time>2016-04-24T16:31:10Z</time>
      </trkpt>
      <trkpt lat="43.70814" lon="3.8184">
        <ele>122.71</ele>
        <time>2016-04-24T16:31:12Z</time>
      </trkpt>
      <trkpt lat="43.70805" lon="3.8185">
        <ele>122.22</ele>
        <time>2016-04-24T16:31:13Z</time>
      </trkpt>
      <trkpt lat="43.70795" lon="3.8186">
        <ele>122.22</ele>
        <time>2016-04-24T16:31:14Z</time>
      </trkpt>
      <trkpt lat="43.70781" lon="3.81866">
        <ele>122.22</ele>
        <time>2016-04-24T16:31:15Z</time>
      </trkpt>
      <trkpt lat="43.70767" lon="3.81872">
        <ele>121.74</ele>
        <time>2016-04-24T16:31:16Z</time>
      </trkpt>
      <trkpt lat="43.7075" lon="3.81876">
        <ele>121.26</ele>
        <time>2016-04-24T16:31:17Z</time>
      </trkpt>
      <trkpt lat="43.7073" lon="3.8188">
        <ele>120.78</ele>
        <time>2016-04-24T16:31:18Z</time>
      </trkpt>
      <trkpt lat="43.70707" lon="3.8188">
        <ele>120.78</ele>
        <time>2016-04-24T16:31:19Z</time>
      </trkpt>
      <trkpt lat="43.70684" lon="3.8188">
        <ele>121.26</ele>
        <time>2016-04-24T16:31:20Z</time>
      </trkpt>
      <trkpt lat="43.70498" lon="3.81893">
        <ele>124.15</ele>
        <time>2016-04-24T16:31:28Z</time>
      </trkpt>
      <trkpt lat="43.70325" lon="3.8194">
        <ele>120.3</ele>
        <time>2016-04-24T16:31:35Z</time>
      </trkpt>
      <trkpt lat="43.70163" lon="3.8205">
        <ele>112.61</ele>
        <time>2016-04-24T16:31:43Z</time>
      </trkpt>
      <trkpt lat="43.70051" lon="3.82199">
        <ele>110.21</ele>
        <time>2016-04-24T16:31:50Z</time>
      </trkpt>
      <trkpt lat="43.69956" lon="3.82399">
        <ele>111.17</ele>
        <time>2016-04-24T16:31:57Z</time>
      </trkpt>
      <trkpt lat="43.69839" lon="3.82548">
        <ele>112.13</ele>
        <time>2016-04-24T16:32:02Z</time>
      </trkpt>
      <trkpt lat="43.69811" lon="3.82568">
        <ele>112.61</ele>
        <time>2016-04-24T16:32:03Z</time>
      </trkpt>
      <trkpt lat="43.69784" lon="3.82585">
        <ele>113.09</ele>
        <time>2016-04-24T16:32:04Z</time>
      </trkpt>
      <trkpt lat="43.69758" lon="3.82599">
        <ele>113.09</ele>
        <time>2016-04-24T16:32:05Z</time>
      </trkpt>
      <trkpt lat="43.69733" lon="3.82611">
        <ele>113.09</ele>
        <time>2016-04-24T16:32:06Z</time>
      </trkpt>
      <trkpt lat="43.69593" lon="3.82648">
        <ele>112.61</ele>
        <time>2016-04-24T16:32:12Z</time>
      </trkpt>
      <trkpt lat="43.69436" lon="3.8265">
        <ele>111.65</ele>
        <time>2016-04-24T16:32:17Z</time>
      </trkpt>
      <trkpt lat="43.69257" lon="3.82597">
        <ele>111.17</ele>
        <time>2016-04-24T16:32:22Z</time>
      </trkpt>
      <trkpt lat="43.69036" lon="3.82469">
        <ele>110.21</ele>
        <time>2016-04-24T16:32:29Z</time>
      </trkpt>
      <trkpt lat="43.68807" lon="3.82322">
        <ele>108.29</ele>
        <time>2016-04-24T16:32:37Z</time>
      </trkpt>
      <trkpt lat="43.68654" lon="3.82251">
        <ele>105.4</ele>
        <time>2016-04-24T16:32:44Z</time>
      </trkpt>
      <trkpt lat="43.68509" lon="3.82204">
        <ele>102.52</ele>
        <time>2016-04-24T16:32:51Z</time>
      </trkpt>
      <trkpt lat="43.6831" lon="3.82164">
        <ele>100.6</ele>
        <time>2016-04-24T16:32:59Z</time>
      </trkpt>
      <trkpt lat="43.68089" lon="3.82136">
        <ele>104.44</ele>
        <time>2016-04-24T16:33:08Z</time>
      </trkpt>
      <trkpt lat="43.67902" lon="3.82111">
        <ele>111.17</ele>
        <time>2016-04-24T16:33:16Z</time>
      </trkpt>
      <trkpt lat="43.67699" lon="3.82077">
        <ele>119.82</ele>
        <time>2016-04-24T16:33:23Z</time>
      </trkpt>
      <trkpt lat="43.67537" lon="3.82021">
        <ele>127.03</ele>
        <time>2016-04-24T16:33:29Z</time>
      </trkpt>
      <trkpt lat="43.67407" lon="3.81938">
        <ele>130.88</ele>
        <time>2016-04-24T16:33:35Z</time>
      </trkpt>
      <trkpt lat="43.6736" lon="3.81896">
        <ele>131.36</ele>
        <time>2016-04-24T16:33:38Z</time>
      </trkpt>
      <trkpt lat="43.67347" lon="3.81881">
        <ele>131.36</ele>
        <time>2016-04-24T16:33:39Z</time>
      </trkpt>
      <trkpt lat="43.67338" lon="3.81864">
        <ele>130.88</ele>
        <time>2016-04-24T16:33:40Z</time>
      </trkpt>
      <trkpt lat="43.67333" lon="3.81841">
        <ele>130.4</ele>
        <time>2016-04-24T16:33:41Z</time>
      </trkpt>
      <trkpt lat="43.67333" lon="3.81816">
        <ele>130.4</ele>
        <time>2016-04-24T16:33:42Z</time>
      </trkpt>
      <trkpt lat="43.6734" lon="3.81796">
        <ele>128.95</ele>
        <time>2016-04-24T16:33:43Z</time>
      </trkpt>
      <trkpt lat="43.67353" lon="3.8178">
        <ele>127.99</ele>
        <time>2016-04-24T16:33:44Z</time>
      </trkpt>
      <trkpt lat="43.67365" lon="3.81767">
        <ele>126.07</ele>
        <time>2016-04-24T16:33:45Z</time>
      </trkpt>
      <trkpt lat="43.67391" lon="3.81764">
        <ele>125.59</ele>
        <time>2016-04-24T16:33:46Z</time>
      </trkpt>
      <trkpt lat="43.67412" lon="3.81774">
        <ele>124.63</ele>
        <time>2016-04-24T16:33:47Z</time>
      </trkpt>
      <trkpt lat="43.67429" lon="3.8179">
        <ele>124.15</ele>
        <time>2016-04-24T16:33:48Z</time>
      </trkpt>
      <trkpt lat="43.6744" lon="3.81809">
        <ele>122.22</ele>
        <time>2016-04-24T16:33:49Z</time>
      </trkpt>
      <trkpt lat="43.67441" lon="3.81837">
        <ele>120.3</ele>
        <time>2016-04-24T16:33:50Z</time>
      </trkpt>
      <trkpt lat="43.67439" lon="3.8186">
        <ele>120.3</ele>
        <time>2016-04-24T16:33:51Z</time>
      </trkpt>
      <trkpt lat="43.67426" lon="3.8188">
        <ele>121.26</ele>
        <time>2016-04-24T16:33:52Z</time>
      </trkpt>
      <trkpt lat="43.67413" lon="3.81898">
        <ele>120.3</ele>
        <time>2016-04-24T16:33:53Z</time>
      </trkpt>
      <trkpt lat="43.67396" lon="3.81916">
        <ele>121.26</ele>
        <time>2016-04-24T16:33:54Z</time>
      </trkpt>
      <trkpt lat="43.67378" lon="3.81932">
        <ele>121.26</ele>
        <time>2016-04-24T16:33:55Z</time>
      </trkpt>
      <trkpt lat="43.67355" lon="3.8195">
        <ele>121.74</ele>
        <time>2016-04-24T16:33:56Z</time>
      </trkpt>
      <trkpt lat="43.67329" lon="3.81972">
        <ele>122.22</ele>
        <time>2016-04-24T16:33:57Z</time>
      </trkpt>
      <trkpt lat="43.67218" lon="3.8209">
        <ele>124.15</ele>
        <time>2016-04-24T16:34:01Z</time>
      </trkpt>
      <trkpt lat="43.67067" lon="3.82339">
        <ele>121.74</ele>
        <time>2016-04-24T16:34:07Z</time>
      </trkpt>
      <trkpt lat="43.66947" lon="3.82526">
        <ele>115.01</ele>
        <time>2016-04-24T16:34:12Z</time>
      </trkpt>
      <trkpt lat="43.66773" lon="3.82678">
        <ele>114.05</ele>
        <time>2016-04-24T16:34:18Z</time>
      </trkpt>
      <trkpt lat="43.66472" lon="3.82898">
        <ele>120.78</ele>
        <time>2016-04-24T16:34:27Z</time>
      </trkpt>
      <trkpt lat="43.66221" lon="3.83057">
        <ele>119.82</ele>
        <time>2016-04-24T16:34:35Z</time>
      </trkpt>
      <trkpt lat="43.66186" lon="3.83064">
        <ele>118.38</ele>
        <time>2016-04-24T16:34:36Z</time>
      </trkpt>
      <trkpt lat="43.65899" lon="3.83115">
        <ele>95.31</ele>
        <time>2016-04-24T16:34:44Z</time>
      </trkpt>
      <trkpt lat="43.65719" lon="3.83182">
        <ele>91.46</ele>
        <time>2016-04-24T16:34:50Z</time>
      </trkpt>
      <trkpt lat="43.65645" lon="3.83243">
        <ele>90.5</ele>
        <time>2016-04-24T16:34:53Z</time>
      </trkpt>
      <trkpt lat="43.65625" lon="3.83272">
        <ele>90.02</ele>
        <time>2016-04-24T16:34:54Z</time>
      </trkpt>
      <trkpt lat="43.65604" lon="3.83302">
        <ele>90.02</ele>
        <time>2016-04-24T16:34:55Z</time>
      </trkpt>
      <trkpt lat="43.65454" lon="3.83495">
        <ele>88.1</ele>
        <time>2016-04-24T16:35:01Z</time>
      </trkpt>
      <trkpt lat="43.65262" lon="3.8364">
        <ele>91.46</ele>
        <time>2016-04-24T16:35:07Z</time>
      </trkpt>
      <trkpt lat="43.65115" lon="3.8379">
        <ele>90.98</ele>
        <time>2016-04-24T16:35:12Z</time>
      </trkpt>
      <trkpt lat="43.64913" lon="3.84005">
        <ele>89.54</ele>
        <time>2016-04-24T16:35:19Z</time>
      </trkpt>
      <trkpt lat="43.64704" lon="3.84167">
        <ele>83.77</ele>
        <time>2016-04-24T16:35:26Z</time>
      </trkpt>
      <trkpt lat="43.64571" lon="3.84261">
        <ele>77.52</ele>
        <time>2016-04-24T16:35:32Z</time>
      </trkpt>
      <trkpt lat="43.64366" lon="3.84429">
        <ele>70.79</ele>
        <time>2016-04-24T16:35:41Z</time>
      </trkpt>
      <trkpt lat="43.64252" lon="3.84558">
        <ele>68.39</ele>
        <time>2016-04-24T16:35:48Z</time>
      </trkpt>
      <trkpt lat="43.64127" lon="3.84665">
        <ele>64.07</ele>
        <time>2016-04-24T16:35:56Z</time>
      </trkpt>
      <trkpt lat="43.63978" lon="3.84686">
        <ele>61.66</ele>
        <time>2016-04-24T16:36:05Z</time>
      </trkpt>
      <trkpt lat="43.63953" lon="3.84677">
        <ele>60.22</ele>
        <time>2016-04-24T16:36:06Z</time>
      </trkpt>
      <trkpt lat="43.63796" lon="3.84601">
        <ele>58.78</ele>
        <time>2016-04-24T16:36:13Z</time>
      </trkpt>
      <trkpt lat="43.63734" lon="3.84543">
        <ele>59.26</ele>
        <time>2016-04-24T16:36:18Z</time>
      </trkpt>
      <trkpt lat="43.63716" lon="3.84524">
        <ele>59.26</ele>
        <time>2016-04-24T16:36:24Z</time>
      </trkpt>
      <trkpt lat="43.63698" lon="3.84505">
        <ele>58.78</ele>
        <time>2016-04-24T16:36:34Z</time>
      </trkpt>
      <trkpt lat="43.63632" lon="3.8445">
        <ele>55.41</ele>
        <time>2016-04-24T16:36:42Z</time>
      </trkpt>
      <trkpt lat="43.63519" lon="3.84387">
        <ele>55.89</ele>
        <time>2016-04-24T16:36:52Z</time>
      </trkpt>
      <trkpt lat="43.63432" lon="3.84342">
        <ele>57.34</ele>
        <time>2016-04-24T16:37:02Z</time>
      </trkpt>
      <trkpt lat="43.63418" lon="3.84337">
        <ele>56.86</ele>
        <time>2016-04-24T16:37:11Z</time>
      </trkpt>
      <trkpt lat="43.63397" lon="3.84327">
        <ele>57.34</ele>
        <time>2016-04-24T16:37:20Z</time>
      </trkpt>
      <trkpt lat="43.63396" lon="3.84326">
        <ele>57.34</ele>
        <time>2016-04-24T16:37:36Z</time>
      </trkpt>
      <trkpt lat="43.63391" lon="3.84324">
        <ele>55.89</ele>
        <time>2016-04-24T16:38:19Z</time>
      </trkpt>
      <trkpt lat="43.63387" lon="3.84325">
        <ele>55.89</ele>
        <time>2016-04-24T16:38:20Z</time>
      </trkpt>
      <trkpt lat="43.63384" lon="3.84329">
        <ele>55.41</ele>
        <time>2016-04-24T16:38:21Z</time>
      </trkpt>
      <trkpt lat="43.63384" lon="3.84333">
        <ele>55.41</ele>
        <time>2016-04-24T16:38:22Z</time>
      </trkpt>
      <trkpt lat="43.63386" lon="3.84336">
        <ele>55.41</ele>
        <time>2016-04-24T16:38:23Z</time>
      </trkpt>
      <trkpt lat="43.63392" lon="3.8434">
        <ele>55.41</ele>
        <time>2016-04-24T16:38:24Z</time>
      </trkpt>
      <trkpt lat="43.634" lon="3.84342">
        <ele>55.41</ele>
        <time>2016-04-24T16:38:25Z</time>
      </trkpt>
      <trkpt lat="43.63409" lon="3.84345">
        <ele>55.41</ele>
        <time>2016-04-24T16:38:26Z</time>
      </trkpt>
      <trkpt lat="43.63486" lon="3.84383">
        <ele>54.93</ele>
        <time>2016-04-24T16:38:35Z</time>
      </trkpt>
      <trkpt lat="43.63493" lon="3.8439">
        <ele>54.45</ele>
        <time>2016-04-24T16:38:36Z</time>
      </trkpt>
      <trkpt lat="43.63502" lon="3.844">
        <ele>54.45</ele>
        <time>2016-04-24T16:38:38Z</time>
      </trkpt>
      <trkpt lat="43.63503" lon="3.84402">
        <ele>54.45</ele>
        <time>2016-04-24T16:38:39Z</time>
      </trkpt>
      <trkpt lat="43.63501" lon="3.84401">
        <ele>54.45</ele>
        <time>2016-04-24T16:38:51Z</time>
      </trkpt>
      <trkpt lat="43.63502" lon="3.84404">
        <ele>54.45</ele>
        <time>2016-04-24T16:39:05Z</time>
      </trkpt>
      <trkpt lat="43.63519" lon="3.84465">
        <ele>53.49</ele>
        <time>2016-04-24T16:39:10Z</time>
      </trkpt>
      <trkpt lat="43.63527" lon="3.84499">
        <ele>53.01</ele>
        <time>2016-04-24T16:39:13Z</time>
      </trkpt>
      <trkpt lat="43.6353" lon="3.84509">
        <ele>52.53</ele>
        <time>2016-04-24T16:39:14Z</time>
      </trkpt>
      <trkpt lat="43.63533" lon="3.84517">
        <ele>52.53</ele>
        <time>2016-04-24T16:39:15Z</time>
      </trkpt>
      <trkpt lat="43.63533" lon="3.84524">
        <ele>52.53</ele>
        <time>2016-04-24T16:39:16Z</time>
      </trkpt>
      <trkpt lat="43.63532" lon="3.8453">
        <ele>52.53</ele>
        <time>2016-04-24T16:39:17Z</time>
      </trkpt>
      <trkpt lat="43.63529" lon="3.84535">
        <ele>52.53</ele>
        <time>2016-04-24T16:39:18Z</time>
      </trkpt>
      <trkpt lat="43.63526" lon="3.8454">
        <ele>52.05</ele>
        <time>2016-04-24T16:39:19Z</time>
      </trkpt>
      <trkpt lat="43.63514" lon="3.84557">
        <ele>51.57</ele>
        <time>2016-04-24T16:39:25Z</time>
      </trkpt>
      <trkpt lat="43.63516" lon="3.84559">
        <ele>51.57</ele>
        <time>2016-04-24T16:39:33Z</time>
      </trkpt>
      <trkpt lat="43.63517" lon="3.8456">
        <ele>51.57</ele>
        <time>2016-04-24T16:39:34Z</time>
      </trkpt>
      <trkpt lat="43.63518" lon="3.84559">
        <ele>51.57</ele>
        <time>2016-04-24T16:39:35Z</time>
      </trkpt>
      <trkpt lat="43.6352" lon="3.84557">
        <ele>51.09</ele>
        <time>2016-04-24T16:39:36Z</time>
      </trkpt>
      <trkpt lat="43.6352" lon="3.84554">
        <ele>51.09</ele>
        <time>2016-04-24T16:39:37Z</time>
      </trkpt>
      <trkpt lat="43.63519" lon="3.84552">
        <ele>51.09</ele>
        <time>2016-04-24T16:39:38Z</time>
      </trkpt>
      <trkpt lat="43.63517" lon="3.84551">
        <ele>51.09</ele>
        <time>2016-04-24T16:39:39Z</time>
      </trkpt>
      <trkpt lat="43.63515" lon="3.84551">
        <ele>51.09</ele>
        <time>2016-04-24T16:39:40Z</time>
      </trkpt>
      <trkpt lat="43.63513" lon="3.84552">
        <ele>51.57</ele>
        <time>2016-04-24T16:39:41Z</time>
      </trkpt>
      <trkpt lat="43.63511" lon="3.84552">
        <ele>51.57</ele>
        <time>2016-04-24T16:39:42Z</time>
      </trkpt>
      <trkpt lat="43.63509" lon="3.84552">
        <ele>52.05</ele>
        <time>2016-04-24T16:39:55Z</time>
      </trkpt>
      <trkpt lat="43.63508" lon="3.84554">
        <ele>51.09</ele>
        <time>2016-04-24T16:50:57Z</time>
      </trkpt>
      <trkpt lat="43.63513" lon="3.84555">
        <ele>52.53</ele>
        <time>2016-04-24T16:51:30Z</time>
      </trkpt>
      <trkpt lat="43.6352" lon="3.84548">
        <ele>52.53</ele>
        <time>2016-04-24T16:51:34Z</time>
      </trkpt>
      <trkpt lat="43.63526" lon="3.84541">
        <ele>53.01</ele>
        <time>2016-04-24T16:51:45Z</time>
      </trkpt>
      <trkpt lat="43.63528" lon="3.84539">
        <ele>53.97</ele>
        <time>2016-04-24T16:52:08Z</time>
      </trkpt>
      <trkpt lat="43.63535" lon="3.84537">
        <ele>53.97</ele>
        <time>2016-04-24T16:52:10Z</time>
      </trkpt>
      <trkpt lat="43.63539" lon="3.8454">
        <ele>53.97</ele>
        <time>2016-04-24T16:52:11Z</time>
      </trkpt>
      <trkpt lat="43.63543" lon="3.84545">
        <ele>53.97</ele>
        <time>2016-04-24T16:52:12Z</time>
      </trkpt>
      <trkpt lat="43.63546" lon="3.84552">
        <ele>53.97</ele>
        <time>2016-04-24T16:52:13Z</time>
      </trkpt>
      <trkpt lat="43.6355" lon="3.84558">
        <ele>53.49</ele>
        <time>2016-04-24T16:52:14Z</time>
      </trkpt>
      <trkpt lat="43.63554" lon="3.84561">
        <ele>53.49</ele>
        <time>2016-04-24T16:52:15Z</time>
      </trkpt>
      <trkpt lat="43.63559" lon="3.84558">
        <ele>53.49</ele>
        <time>2016-04-24T16:52:16Z</time>
      </trkpt>
      <trkpt lat="43.63566" lon="3.8455">
        <ele>53.49</ele>
        <time>2016-04-24T16:52:17Z</time>
      </trkpt>
      <trkpt lat="43.63571" lon="3.84541">
        <ele>53.49</ele>
        <time>2016-04-24T16:52:18Z</time>
      </trkpt>
      <trkpt lat="43.63578" lon="3.8453">
        <ele>53.49</ele>
        <time>2016-04-24T16:52:19Z</time>
      </trkpt>
      <trkpt lat="43.63585" lon="3.84519">
        <ele>53.01</ele>
        <time>2016-04-24T16:52:20Z</time>
      </trkpt>
      <trkpt lat="43.63593" lon="3.84509">
        <ele>53.01</ele>
        <time>2016-04-24T16:52:21Z</time>
      </trkpt>
      <trkpt lat="43.63602" lon="3.84499">
        <ele>53.01</ele>
        <time>2016-04-24T16:52:22Z</time>
      </trkpt>
      <trkpt lat="43.63611" lon="3.84489">
        <ele>53.01</ele>
        <time>2016-04-24T16:52:23Z</time>
      </trkpt>
      <trkpt lat="43.63618" lon="3.84479">
        <ele>53.01</ele>
        <time>2016-04-24T16:52:24Z</time>
      </trkpt>
      <trkpt lat="43.63622" lon="3.84467">
        <ele>53.01</ele>
        <time>2016-04-24T16:52:25Z</time>
      </trkpt>
      <trkpt lat="43.63622" lon="3.84455">
        <ele>52.05</ele>
        <time>2016-04-24T16:52:26Z</time>
      </trkpt>
      <trkpt lat="43.63618" lon="3.84442">
        <ele>51.09</ele>
        <time>2016-04-24T16:52:27Z</time>
      </trkpt>
      <trkpt lat="43.63611" lon="3.84433">
        <ele>50.13</ele>
        <time>2016-04-24T16:52:28Z</time>
      </trkpt>
      <trkpt lat="43.63601" lon="3.84425">
        <ele>49.16</ele>
        <time>2016-04-24T16:52:29Z</time>
      </trkpt>
      <trkpt lat="43.63587" lon="3.8442">
        <ele>50.13</ele>
        <time>2016-04-24T16:52:30Z</time>
      </trkpt>
      <trkpt lat="43.63574" lon="3.84414">
        <ele>50.61</ele>
        <time>2016-04-24T16:52:31Z</time>
      </trkpt>
      <trkpt lat="43.63453" lon="3.84349">
        <ele>56.86</ele>
        <time>2016-04-24T16:52:41Z</time>
      </trkpt>
      <trkpt lat="43.63341" lon="3.84308">
        <ele>57.34</ele>
        <time>2016-04-24T16:52:50Z</time>
      </trkpt>
      <trkpt lat="43.63257" lon="3.84287">
        <ele>56.37</ele>
        <time>2016-04-24T16:52:58Z</time>
      </trkpt>
      <trkpt lat="43.6319" lon="3.84244">
        <ele>56.37</ele>
        <time>2016-04-24T16:53:07Z</time>
      </trkpt>
      <trkpt lat="43.63172" lon="3.84226">
        <ele>56.86</ele>
        <time>2016-04-24T16:53:11Z</time>
      </trkpt>
      <trkpt lat="43.63169" lon="3.84217">
        <ele>56.86</ele>
        <time>2016-04-24T16:53:12Z</time>
      </trkpt>
      <trkpt lat="43.63167" lon="3.84205">
        <ele>56.86</ele>
        <time>2016-04-24T16:53:13Z</time>
      </trkpt>
      <trkpt lat="43.63164" lon="3.84191">
        <ele>56.86</ele>
        <time>2016-04-24T16:53:14Z</time>
      </trkpt>
      <trkpt lat="43.6316" lon="3.84177">
        <ele>56.86</ele>
        <time>2016-04-24T16:53:15Z</time>
      </trkpt>
      <trkpt lat="43.63152" lon="3.84164">
        <ele>56.37</ele>
        <time>2016-04-24T16:53:16Z</time>
      </trkpt>
      <trkpt lat="43.63143" lon="3.84154">
        <ele>56.86</ele>
        <time>2016-04-24T16:53:17Z</time>
      </trkpt>
      <trkpt lat="43.6313" lon="3.84148">
        <ele>56.86</ele>
        <time>2016-04-24T16:53:18Z</time>
      </trkpt>
      <trkpt lat="43.63117" lon="3.84148">
        <ele>56.86</ele>
        <time>2016-04-24T16:53:19Z</time>
      </trkpt>
      <trkpt lat="43.63104" lon="3.84153">
        <ele>56.86</ele>
        <time>2016-04-24T16:53:20Z</time>
      </trkpt>
      <trkpt lat="43.63091" lon="3.84162">
        <ele>56.86</ele>
        <time>2016-04-24T16:53:21Z</time>
      </trkpt>
      <trkpt lat="43.63079" lon="3.84171">
        <ele>56.86</ele>
        <time>2016-04-24T16:53:22Z</time>
      </trkpt>
      <trkpt lat="43.63066" lon="3.84177">
        <ele>56.86</ele>
        <time>2016-04-24T16:53:23Z</time>
      </trkpt>
      <trkpt lat="43.63051" lon="3.84179">
        <ele>56.86</ele>
        <time>2016-04-24T16:53:24Z</time>
      </trkpt>
      <trkpt lat="43.63035" lon="3.84177">
        <ele>56.86</ele>
        <time>2016-04-24T16:53:25Z</time>
      </trkpt>
      <trkpt lat="43.62919" lon="3.84148">
        <ele>58.3</ele>
        <time>2016-04-24T16:53:31Z</time>
      </trkpt>
      <trkpt lat="43.629" lon="3.84137">
        <ele>58.78</ele>
        <time>2016-04-24T16:53:32Z</time>
      </trkpt>
      <trkpt lat="43.62881" lon="3.84124">
        <ele>58.78</ele>
        <time>2016-04-24T16:53:33Z</time>
      </trkpt>
      <trkpt lat="43.62862" lon="3.84108">
        <ele>59.26</ele>
        <time>2016-04-24T16:53:34Z</time>
      </trkpt>
      <trkpt lat="43.62844" lon="3.84091">
        <ele>59.26</ele>
        <time>2016-04-24T16:53:35Z</time>
      </trkpt>
      <trkpt lat="43.62706" lon="3.83926">
        <ele>65.99</ele>
        <time>2016-04-24T16:53:43Z</time>
      </trkpt>
      <trkpt lat="43.62601" lon="3.83751">
        <ele>72.24</ele>
        <time>2016-04-24T16:53:52Z</time>
      </trkpt>
      <trkpt lat="43.62556" lon="3.83678">
        <ele>74.64</ele>
        <time>2016-04-24T16:53:58Z</time>
      </trkpt>
      <trkpt lat="43.62553" lon="3.83668">
        <ele>75.12</ele>
        <time>2016-04-24T16:53:59Z</time>
      </trkpt>
      <trkpt lat="43.62552" lon="3.83656">
        <ele>75.6</ele>
        <time>2016-04-24T16:54:00Z</time>
      </trkpt>
      <trkpt lat="43.62553" lon="3.83642">
        <ele>74.64</ele>
        <time>2016-04-24T16:54:01Z</time>
      </trkpt>
      <trkpt lat="43.62554" lon="3.83629">
        <ele>74.64</ele>
        <time>2016-04-24T16:54:02Z</time>
      </trkpt>
      <trkpt lat="43.62554" lon="3.83616">
        <ele>74.64</ele>
        <time>2016-04-24T16:54:03Z</time>
      </trkpt>
      <trkpt lat="43.62551" lon="3.83606">
        <ele>75.12</ele>
        <time>2016-04-24T16:54:04Z</time>
      </trkpt>
      <trkpt lat="43.62546" lon="3.83594">
        <ele>75.12</ele>
        <time>2016-04-24T16:54:05Z</time>
      </trkpt>
      <trkpt lat="43.62539" lon="3.83584">
        <ele>75.12</ele>
        <time>2016-04-24T16:54:06Z</time>
      </trkpt>
      <trkpt lat="43.6253" lon="3.83577">
        <ele>75.12</ele>
        <time>2016-04-24T16:54:07Z</time>
      </trkpt>
      <trkpt lat="43.62521" lon="3.83572">
        <ele>74.64</ele>
        <time>2016-04-24T16:54:08Z</time>
      </trkpt>
      <trkpt lat="43.62512" lon="3.83563">
        <ele>74.64</ele>
        <time>2016-04-24T16:54:09Z</time>
      </trkpt>
      <trkpt lat="43.62505" lon="3.83551">
        <ele>74.64</ele>
        <time>2016-04-24T16:54:10Z</time>
      </trkpt>
      <trkpt lat="43.62499" lon="3.83534">
        <ele>74.16</ele>
        <time>2016-04-24T16:54:11Z</time>
      </trkpt>
      <trkpt lat="43.62429" lon="3.83425">
        <ele>74.64</ele>
        <time>2016-04-24T16:54:18Z</time>
      </trkpt>
      <trkpt lat="43.62416" lon="3.83414">
        <ele>74.16</ele>
        <time>2016-04-24T16:54:19Z</time>
      </trkpt>
      <trkpt lat="43.62402" lon="3.83405">
        <ele>74.64</ele>
        <time>2016-04-24T16:54:20Z</time>
      </trkpt>
      <trkpt lat="43.62353" lon="3.83377">
        <ele>74.64</ele>
        <time>2016-04-24T16:54:25Z</time>
      </trkpt>
      <trkpt lat="43.62347" lon="3.8337">
        <ele>74.64</ele>
        <time>2016-04-24T16:54:26Z</time>
      </trkpt>
      <trkpt lat="43.62343" lon="3.8336">
        <ele>74.16</ele>
        <time>2016-04-24T16:54:27Z</time>
      </trkpt>
      <trkpt lat="43.62334" lon="3.83336">
        <ele>73.68</ele>
        <time>2016-04-24T16:54:29Z</time>
      </trkpt>
      <trkpt lat="43.62327" lon="3.83328">
        <ele>73.68</ele>
        <time>2016-04-24T16:54:30Z</time>
      </trkpt>
      <trkpt lat="43.62318" lon="3.83324">
        <ele>73.2</ele>
        <time>2016-04-24T16:54:31Z</time>
      </trkpt>
      <trkpt lat="43.62309" lon="3.83327">
        <ele>73.68</ele>
        <time>2016-04-24T16:54:32Z</time>
      </trkpt>
      <trkpt lat="43.62302" lon="3.83331">
        <ele>73.68</ele>
        <time>2016-04-24T16:54:33Z</time>
      </trkpt>
      <trkpt lat="43.62295" lon="3.83337">
        <ele>74.16</ele>
        <time>2016-04-24T16:54:34Z</time>
      </trkpt>
      <trkpt lat="43.62291" lon="3.83346">
        <ele>74.16</ele>
        <time>2016-04-24T16:54:35Z</time>
      </trkpt>
      <trkpt lat="43.62288" lon="3.83356">
        <ele>74.16</ele>
        <time>2016-04-24T16:54:36Z</time>
      </trkpt>
      <trkpt lat="43.62287" lon="3.83367">
        <ele>74.64</ele>
        <time>2016-04-24T16:54:37Z</time>
      </trkpt>
      <trkpt lat="43.62287" lon="3.83379">
        <ele>75.12</ele>
        <time>2016-04-24T16:54:38Z</time>
      </trkpt>
      <trkpt lat="43.62289" lon="3.83392">
        <ele>75.12</ele>
        <time>2016-04-24T16:54:39Z</time>
      </trkpt>
      <trkpt lat="43.62289" lon="3.83407">
        <ele>75.12</ele>
        <time>2016-04-24T16:54:40Z</time>
      </trkpt>
      <trkpt lat="43.62288" lon="3.83421">
        <ele>75.6</ele>
        <time>2016-04-24T16:54:41Z</time>
      </trkpt>
      <trkpt lat="43.62285" lon="3.83435">
        <ele>76.08</ele>
        <time>2016-04-24T16:54:42Z</time>
      </trkpt>
      <trkpt lat="43.6228" lon="3.83447">
        <ele>76.56</ele>
        <time>2016-04-24T16:54:43Z</time>
      </trkpt>
      <trkpt lat="43.62275" lon="3.83459">
        <ele>76.56</ele>
        <time>2016-04-24T16:54:44Z</time>
      </trkpt>
      <trkpt lat="43.6226" lon="3.83496">
        <ele>78</ele>
        <time>2016-04-24T16:54:48Z</time>
      </trkpt>
      <trkpt lat="43.62254" lon="3.83511">
        <ele>78.97</ele>
        <time>2016-04-24T16:54:55Z</time>
      </trkpt>
      <trkpt lat="43.62235" lon="3.8355">
        <ele>80.89</ele>
        <time>2016-04-24T16:55:20Z</time>
      </trkpt>
      <trkpt lat="43.62193" lon="3.83605">
        <ele>80.89</ele>
        <time>2016-04-24T16:55:24Z</time>
      </trkpt>
      <trkpt lat="43.62177" lon="3.83618">
        <ele>80.89</ele>
        <time>2016-04-24T16:55:25Z</time>
      </trkpt>
      <trkpt lat="43.62056" lon="3.83712">
        <ele>80.89</ele>
        <time>2016-04-24T16:55:34Z</time>
      </trkpt>
      <trkpt lat="43.61991" lon="3.83766">
        <ele>82.33</ele>
        <time>2016-04-24T16:55:42Z</time>
      </trkpt>
      <trkpt lat="43.61986" lon="3.8377">
        <ele>83.77</ele>
        <time>2016-04-24T16:55:48Z</time>
      </trkpt>
    </trkseg>
  </trk>
</gpx>